<?xml version="1.0" encoding="UTF-8" standalone="no" ?>
<gpx xmlns="http://www.topografix.com/GPX/1/1" xmlns:xsi="http://www.w3.org/2001/XMLSchema-instance" xsi:schemaLocation="http://www.topografix.com/GPX/1/1 http://www.topografix.com/GPX/1/1/gpx.xsd" version="1.1" creator="VisuGPX - https://www.visugpx.com">
  <metadata>
    <name>PUIG TARRES ULTRA</name>
    <desc><![CDATA[PUIG TARRES ULTRA-----------------]]></desc>
  </metadata>
  <trk>
    <name><![CDATA[PUIG TERRES ULTRA on GPSies.com]]></name>
    <trkseg>
      <trkpt lat="42.23257" lon="1.87947">
        <ele>732</ele>
        <time>2010-01-01T00:00:00Z</time>
      </trkpt>
      <trkpt lat="42.23259" lon="1.87948">
        <ele>732</ele>
        <time>2010-01-01T00:00:00Z</time>
      </trkpt>
      <trkpt lat="42.23256" lon="1.87947">
        <ele>732</ele>
        <time>2010-01-01T00:00:01Z</time>
      </trkpt>
      <trkpt lat="42.23257" lon="1.87947">
        <ele>732</ele>
        <time>2010-01-01T00:00:02Z</time>
      </trkpt>
      <trkpt lat="42.23255" lon="1.8795">
        <ele>732</ele>
        <time>2010-01-01T00:00:03Z</time>
      </trkpt>
      <trkpt lat="42.23253" lon="1.87947">
        <ele>732</ele>
        <time>2010-01-01T00:00:04Z</time>
      </trkpt>
      <trkpt lat="42.23256" lon="1.87947">
        <ele>732</ele>
        <time>2010-01-01T00:00:06Z</time>
      </trkpt>
      <trkpt lat="42.23255" lon="1.87947">
        <ele>732</ele>
        <time>2010-01-01T00:00:06Z</time>
      </trkpt>
      <trkpt lat="42.23255" lon="1.87941">
        <ele>731</ele>
        <time>2010-01-01T00:00:08Z</time>
      </trkpt>
      <trkpt lat="42.23256" lon="1.87944">
        <ele>732</ele>
        <time>2010-01-01T00:00:09Z</time>
      </trkpt>
      <trkpt lat="42.23254" lon="1.87942">
        <ele>731</ele>
        <time>2010-01-01T00:00:10Z</time>
      </trkpt>
      <trkpt lat="42.23256" lon="1.87948">
        <ele>732</ele>
        <time>2010-01-01T00:00:12Z</time>
      </trkpt>
      <trkpt lat="42.23257" lon="1.87947">
        <ele>732</ele>
        <time>2010-01-01T00:00:12Z</time>
      </trkpt>
      <trkpt lat="42.23254" lon="1.87946">
        <ele>732</ele>
        <time>2010-01-01T00:00:13Z</time>
      </trkpt>
      <trkpt lat="42.23255" lon="1.87946">
        <ele>732</ele>
        <time>2010-01-01T00:00:13Z</time>
      </trkpt>
      <trkpt lat="42.23256" lon="1.87947">
        <ele>732</ele>
        <time>2010-01-01T00:00:14Z</time>
      </trkpt>
      <trkpt lat="42.23258" lon="1.87945">
        <ele>732</ele>
        <time>2010-01-01T00:00:15Z</time>
      </trkpt>
      <trkpt lat="42.23251" lon="1.87942">
        <ele>731</ele>
        <time>2010-01-01T00:00:18Z</time>
      </trkpt>
      <trkpt lat="42.23254" lon="1.87947">
        <ele>732</ele>
        <time>2010-01-01T00:00:20Z</time>
      </trkpt>
      <trkpt lat="42.23256" lon="1.87945">
        <ele>732</ele>
        <time>2010-01-01T00:00:21Z</time>
      </trkpt>
      <trkpt lat="42.2326" lon="1.87947">
        <ele>732</ele>
        <time>2010-01-01T00:00:23Z</time>
      </trkpt>
      <trkpt lat="42.23257" lon="1.8795">
        <ele>732</ele>
        <time>2010-01-01T00:00:24Z</time>
      </trkpt>
      <trkpt lat="42.23256" lon="1.87941">
        <ele>731</ele>
        <time>2010-01-01T00:00:27Z</time>
      </trkpt>
      <trkpt lat="42.23276" lon="1.87929">
        <ele>731</ele>
        <time>2010-01-01T00:00:35Z</time>
      </trkpt>
      <trkpt lat="42.23301" lon="1.87935">
        <ele>732</ele>
        <time>2010-01-01T00:00:45Z</time>
      </trkpt>
      <trkpt lat="42.23309" lon="1.87933">
        <ele>733</ele>
        <time>2010-01-01T00:00:49Z</time>
      </trkpt>
      <trkpt lat="42.23337" lon="1.87913">
        <ele>737</ele>
        <time>2010-01-01T00:01:02Z</time>
      </trkpt>
      <trkpt lat="42.23369" lon="1.87885">
        <ele>737</ele>
        <time>2010-01-01T00:01:17Z</time>
      </trkpt>
      <trkpt lat="42.23382" lon="1.87871">
        <ele>736</ele>
        <time>2010-01-01T00:01:23Z</time>
      </trkpt>
      <trkpt lat="42.23395" lon="1.87795">
        <ele>732</ele>
        <time>2010-01-01T00:01:47Z</time>
      </trkpt>
      <trkpt lat="42.23402" lon="1.87765">
        <ele>736</ele>
        <time>2010-01-01T00:01:56Z</time>
      </trkpt>
      <trkpt lat="42.23434" lon="1.87701">
        <ele>739</ele>
        <time>2010-01-01T00:02:19Z</time>
      </trkpt>
      <trkpt lat="42.23452" lon="1.87693">
        <ele>738</ele>
        <time>2010-01-01T00:02:26Z</time>
      </trkpt>
      <trkpt lat="42.23476" lon="1.87675">
        <ele>738</ele>
        <time>2010-01-01T00:02:38Z</time>
      </trkpt>
      <trkpt lat="42.23494" lon="1.87656">
        <ele>740</ele>
        <time>2010-01-01T00:02:46Z</time>
      </trkpt>
      <trkpt lat="42.23513" lon="1.87645">
        <ele>741</ele>
        <time>2010-01-01T00:02:55Z</time>
      </trkpt>
      <trkpt lat="42.23527" lon="1.87634">
        <ele>742</ele>
        <time>2010-01-01T00:03:01Z</time>
      </trkpt>
      <trkpt lat="42.23554" lon="1.87611">
        <ele>744</ele>
        <time>2010-01-01T00:03:14Z</time>
      </trkpt>
      <trkpt lat="42.236" lon="1.87569">
        <ele>741</ele>
        <time>2010-01-01T00:03:36Z</time>
      </trkpt>
      <trkpt lat="42.23616" lon="1.87545">
        <ele>740</ele>
        <time>2010-01-01T00:03:46Z</time>
      </trkpt>
      <trkpt lat="42.23624" lon="1.87523">
        <ele>742</ele>
        <time>2010-01-01T00:03:53Z</time>
      </trkpt>
      <trkpt lat="42.23629" lon="1.87501">
        <ele>745</ele>
        <time>2010-01-01T00:04:00Z</time>
      </trkpt>
      <trkpt lat="42.23634" lon="1.87489">
        <ele>745</ele>
        <time>2010-01-01T00:04:04Z</time>
      </trkpt>
      <trkpt lat="42.23623" lon="1.87498">
        <ele>749</ele>
        <time>2010-01-01T00:04:09Z</time>
      </trkpt>
      <trkpt lat="42.23613" lon="1.87509">
        <ele>750</ele>
        <time>2010-01-01T00:04:14Z</time>
      </trkpt>
      <trkpt lat="42.23606" lon="1.87526">
        <ele>748</ele>
        <time>2010-01-01T00:04:20Z</time>
      </trkpt>
      <trkpt lat="42.23595" lon="1.87529">
        <ele>753</ele>
        <time>2010-01-01T00:04:25Z</time>
      </trkpt>
      <trkpt lat="42.23586" lon="1.87518">
        <ele>760</ele>
        <time>2010-01-01T00:04:29Z</time>
      </trkpt>
      <trkpt lat="42.23577" lon="1.87517">
        <ele>764</ele>
        <time>2010-01-01T00:04:33Z</time>
      </trkpt>
      <trkpt lat="42.23575" lon="1.87509">
        <ele>767</ele>
        <time>2010-01-01T00:04:35Z</time>
      </trkpt>
      <trkpt lat="42.2357" lon="1.87508">
        <ele>770</ele>
        <time>2010-01-01T00:04:38Z</time>
      </trkpt>
      <trkpt lat="42.2356" lon="1.87521">
        <ele>771</ele>
        <time>2010-01-01T00:04:43Z</time>
      </trkpt>
      <trkpt lat="42.23552" lon="1.87526">
        <ele>773</ele>
        <time>2010-01-01T00:04:47Z</time>
      </trkpt>
      <trkpt lat="42.23544" lon="1.8753">
        <ele>773</ele>
        <time>2010-01-01T00:04:50Z</time>
      </trkpt>
      <trkpt lat="42.23542" lon="1.87523">
        <ele>775</ele>
        <time>2010-01-01T00:04:52Z</time>
      </trkpt>
      <trkpt lat="42.23558" lon="1.87493">
        <ele>778</ele>
        <time>2010-01-01T00:05:03Z</time>
      </trkpt>
      <trkpt lat="42.23561" lon="1.87491">
        <ele>778</ele>
        <time>2010-01-01T00:05:04Z</time>
      </trkpt>
      <trkpt lat="42.23577" lon="1.87483">
        <ele>774</ele>
        <time>2010-01-01T00:05:11Z</time>
      </trkpt>
      <trkpt lat="42.23588" lon="1.87471">
        <ele>774</ele>
        <time>2010-01-01T00:05:17Z</time>
      </trkpt>
      <trkpt lat="42.23604" lon="1.87457">
        <ele>773</ele>
        <time>2010-01-01T00:05:25Z</time>
      </trkpt>
      <trkpt lat="42.23612" lon="1.87448">
        <ele>774</ele>
        <time>2010-01-01T00:05:29Z</time>
      </trkpt>
      <trkpt lat="42.23627" lon="1.87418">
        <ele>783</ele>
        <time>2010-01-01T00:05:39Z</time>
      </trkpt>
      <trkpt lat="42.23648" lon="1.87394">
        <ele>788</ele>
        <time>2010-01-01T00:05:50Z</time>
      </trkpt>
      <trkpt lat="42.23659" lon="1.87377">
        <ele>791</ele>
        <time>2010-01-01T00:05:57Z</time>
      </trkpt>
      <trkpt lat="42.23671" lon="1.8733">
        <ele>797</ele>
        <time>2010-01-01T00:06:12Z</time>
      </trkpt>
      <trkpt lat="42.23673" lon="1.87313">
        <ele>798</ele>
        <time>2010-01-01T00:06:17Z</time>
      </trkpt>
      <trkpt lat="42.23678" lon="1.87295">
        <ele>801</ele>
        <time>2010-01-01T00:06:23Z</time>
      </trkpt>
      <trkpt lat="42.23683" lon="1.87292">
        <ele>800</ele>
        <time>2010-01-01T00:06:25Z</time>
      </trkpt>
      <trkpt lat="42.23698" lon="1.87269">
        <ele>802</ele>
        <time>2010-01-01T00:06:34Z</time>
      </trkpt>
      <trkpt lat="42.23716" lon="1.87252">
        <ele>802</ele>
        <time>2010-01-01T00:06:43Z</time>
      </trkpt>
      <trkpt lat="42.23735" lon="1.87236">
        <ele>801</ele>
        <time>2010-01-01T00:06:52Z</time>
      </trkpt>
      <trkpt lat="42.23754" lon="1.87215">
        <ele>800</ele>
        <time>2010-01-01T00:07:01Z</time>
      </trkpt>
      <trkpt lat="42.23762" lon="1.87202">
        <ele>799</ele>
        <time>2010-01-01T00:07:06Z</time>
      </trkpt>
      <trkpt lat="42.23764" lon="1.87173">
        <ele>801</ele>
        <time>2010-01-01T00:07:15Z</time>
      </trkpt>
      <trkpt lat="42.23761" lon="1.87143">
        <ele>805</ele>
        <time>2010-01-01T00:07:24Z</time>
      </trkpt>
      <trkpt lat="42.2376" lon="1.87113">
        <ele>806</ele>
        <time>2010-01-01T00:07:33Z</time>
      </trkpt>
      <trkpt lat="42.23752" lon="1.87091">
        <ele>809</ele>
        <time>2010-01-01T00:07:40Z</time>
      </trkpt>
      <trkpt lat="42.23749" lon="1.87067">
        <ele>811</ele>
        <time>2010-01-01T00:07:48Z</time>
      </trkpt>
      <trkpt lat="42.23741" lon="1.87048">
        <ele>814</ele>
        <time>2010-01-01T00:07:54Z</time>
      </trkpt>
      <trkpt lat="42.23744" lon="1.87019">
        <ele>817</ele>
        <time>2010-01-01T00:08:03Z</time>
      </trkpt>
      <trkpt lat="42.2375" lon="1.86995">
        <ele>819</ele>
        <time>2010-01-01T00:08:10Z</time>
      </trkpt>
      <trkpt lat="42.23744" lon="1.86984">
        <ele>821</ele>
        <time>2010-01-01T00:08:14Z</time>
      </trkpt>
      <trkpt lat="42.23741" lon="1.86962">
        <ele>824</ele>
        <time>2010-01-01T00:08:21Z</time>
      </trkpt>
      <trkpt lat="42.23752" lon="1.86949">
        <ele>823</ele>
        <time>2010-01-01T00:08:27Z</time>
      </trkpt>
      <trkpt lat="42.23755" lon="1.86937">
        <ele>826</ele>
        <time>2010-01-01T00:08:31Z</time>
      </trkpt>
      <trkpt lat="42.23761" lon="1.86918">
        <ele>830</ele>
        <time>2010-01-01T00:08:37Z</time>
      </trkpt>
      <trkpt lat="42.23766" lon="1.86909">
        <ele>833</ele>
        <time>2010-01-01T00:08:40Z</time>
      </trkpt>
      <trkpt lat="42.23765" lon="1.86872">
        <ele>838</ele>
        <time>2010-01-01T00:08:51Z</time>
      </trkpt>
      <trkpt lat="42.23768" lon="1.86863">
        <ele>839</ele>
        <time>2010-01-01T00:08:54Z</time>
      </trkpt>
      <trkpt lat="42.23776" lon="1.86863">
        <ele>840</ele>
        <time>2010-01-01T00:08:57Z</time>
      </trkpt>
      <trkpt lat="42.23783" lon="1.86874">
        <ele>841</ele>
        <time>2010-01-01T00:09:01Z</time>
      </trkpt>
      <trkpt lat="42.23793" lon="1.86877">
        <ele>843</ele>
        <time>2010-01-01T00:09:06Z</time>
      </trkpt>
      <trkpt lat="42.23801" lon="1.86883">
        <ele>843</ele>
        <time>2010-01-01T00:09:09Z</time>
      </trkpt>
      <trkpt lat="42.23824" lon="1.86869">
        <ele>848</ele>
        <time>2010-01-01T00:09:19Z</time>
      </trkpt>
      <trkpt lat="42.23827" lon="1.86856">
        <ele>851</ele>
        <time>2010-01-01T00:09:23Z</time>
      </trkpt>
      <trkpt lat="42.23833" lon="1.86846">
        <ele>854</ele>
        <time>2010-01-01T00:09:27Z</time>
      </trkpt>
      <trkpt lat="42.23835" lon="1.86828">
        <ele>857</ele>
        <time>2010-01-01T00:09:33Z</time>
      </trkpt>
      <trkpt lat="42.23841" lon="1.86816">
        <ele>860</ele>
        <time>2010-01-01T00:09:37Z</time>
      </trkpt>
      <trkpt lat="42.23843" lon="1.86787">
        <ele>865</ele>
        <time>2010-01-01T00:09:45Z</time>
      </trkpt>
      <trkpt lat="42.23846" lon="1.86783">
        <ele>866</ele>
        <time>2010-01-01T00:09:47Z</time>
      </trkpt>
      <trkpt lat="42.23853" lon="1.86786">
        <ele>867</ele>
        <time>2010-01-01T00:09:50Z</time>
      </trkpt>
      <trkpt lat="42.23858" lon="1.86758">
        <ele>873</ele>
        <time>2010-01-01T00:09:59Z</time>
      </trkpt>
      <trkpt lat="42.23857" lon="1.86742">
        <ele>875</ele>
        <time>2010-01-01T00:10:03Z</time>
      </trkpt>
      <trkpt lat="42.23859" lon="1.86725">
        <ele>878</ele>
        <time>2010-01-01T00:10:08Z</time>
      </trkpt>
      <trkpt lat="42.23866" lon="1.86717">
        <ele>880</ele>
        <time>2010-01-01T00:10:12Z</time>
      </trkpt>
      <trkpt lat="42.23869" lon="1.86699">
        <ele>882</ele>
        <time>2010-01-01T00:10:18Z</time>
      </trkpt>
      <trkpt lat="42.23864" lon="1.86679">
        <ele>885</ele>
        <time>2010-01-01T00:10:24Z</time>
      </trkpt>
      <trkpt lat="42.23861" lon="1.86657">
        <ele>888</ele>
        <time>2010-01-01T00:10:31Z</time>
      </trkpt>
      <trkpt lat="42.2386" lon="1.86641">
        <ele>889</ele>
        <time>2010-01-01T00:10:35Z</time>
      </trkpt>
      <trkpt lat="42.23863" lon="1.86619">
        <ele>891</ele>
        <time>2010-01-01T00:10:42Z</time>
      </trkpt>
      <trkpt lat="42.23866" lon="1.86602">
        <ele>894</ele>
        <time>2010-01-01T00:10:47Z</time>
      </trkpt>
      <trkpt lat="42.23872" lon="1.86592">
        <ele>897</ele>
        <time>2010-01-01T00:10:51Z</time>
      </trkpt>
      <trkpt lat="42.23882" lon="1.8659">
        <ele>899</ele>
        <time>2010-01-01T00:10:55Z</time>
      </trkpt>
      <trkpt lat="42.23883" lon="1.86581">
        <ele>901</ele>
        <time>2010-01-01T00:10:58Z</time>
      </trkpt>
      <trkpt lat="42.23874" lon="1.86517">
        <ele>914</ele>
        <time>2010-01-01T00:11:17Z</time>
      </trkpt>
      <trkpt lat="42.23864" lon="1.86499">
        <ele>916</ele>
        <time>2010-01-01T00:11:24Z</time>
      </trkpt>
      <trkpt lat="42.23848" lon="1.8648">
        <ele>916</ele>
        <time>2010-01-01T00:11:32Z</time>
      </trkpt>
      <trkpt lat="42.23842" lon="1.86469">
        <ele>917</ele>
        <time>2010-01-01T00:11:36Z</time>
      </trkpt>
      <trkpt lat="42.23851" lon="1.86438">
        <ele>927</ele>
        <time>2010-01-01T00:11:46Z</time>
      </trkpt>
      <trkpt lat="42.23846" lon="1.86393">
        <ele>933</ele>
        <time>2010-01-01T00:11:59Z</time>
      </trkpt>
      <trkpt lat="42.23848" lon="1.86329">
        <ele>945</ele>
        <time>2010-01-01T00:12:18Z</time>
      </trkpt>
      <trkpt lat="42.2384" lon="1.86236">
        <ele>960</ele>
        <time>2010-01-01T00:12:46Z</time>
      </trkpt>
      <trkpt lat="42.23836" lon="1.86221">
        <ele>962</ele>
        <time>2010-01-01T00:12:51Z</time>
      </trkpt>
      <trkpt lat="42.23831" lon="1.86188">
        <ele>967</ele>
        <time>2010-01-01T00:13:01Z</time>
      </trkpt>
      <trkpt lat="42.23826" lon="1.86172">
        <ele>969</ele>
        <time>2010-01-01T00:13:06Z</time>
      </trkpt>
      <trkpt lat="42.23825" lon="1.8616">
        <ele>971</ele>
        <time>2010-01-01T00:13:09Z</time>
      </trkpt>
      <trkpt lat="42.23833" lon="1.86113">
        <ele>982</ele>
        <time>2010-01-01T00:13:24Z</time>
      </trkpt>
      <trkpt lat="42.23838" lon="1.86101">
        <ele>986</ele>
        <time>2010-01-01T00:13:28Z</time>
      </trkpt>
      <trkpt lat="42.23846" lon="1.86069">
        <ele>992</ele>
        <time>2010-01-01T00:13:38Z</time>
      </trkpt>
      <trkpt lat="42.23859" lon="1.86037">
        <ele>998</ele>
        <time>2010-01-01T00:13:49Z</time>
      </trkpt>
      <trkpt lat="42.23867" lon="1.86001">
        <ele>1001</ele>
        <time>2010-01-01T00:14:00Z</time>
      </trkpt>
      <trkpt lat="42.2387" lon="1.85964">
        <ele>1003</ele>
        <time>2010-01-01T00:14:11Z</time>
      </trkpt>
      <trkpt lat="42.23869" lon="1.85931">
        <ele>1010</ele>
        <time>2010-01-01T00:14:21Z</time>
      </trkpt>
      <trkpt lat="42.23872" lon="1.8588">
        <ele>1023</ele>
        <time>2010-01-01T00:14:36Z</time>
      </trkpt>
      <trkpt lat="42.23872" lon="1.85859">
        <ele>1026</ele>
        <time>2010-01-01T00:14:42Z</time>
      </trkpt>
      <trkpt lat="42.23869" lon="1.85844">
        <ele>1028</ele>
        <time>2010-01-01T00:14:46Z</time>
      </trkpt>
      <trkpt lat="42.23869" lon="1.8583">
        <ele>1030</ele>
        <time>2010-01-01T00:14:51Z</time>
      </trkpt>
      <trkpt lat="42.23871" lon="1.85815">
        <ele>1033</ele>
        <time>2010-01-01T00:14:55Z</time>
      </trkpt>
      <trkpt lat="42.23867" lon="1.85808">
        <ele>1033</ele>
        <time>2010-01-01T00:14:58Z</time>
      </trkpt>
      <trkpt lat="42.2387" lon="1.85798">
        <ele>1036</ele>
        <time>2010-01-01T00:15:01Z</time>
      </trkpt>
      <trkpt lat="42.23885" lon="1.85796">
        <ele>1039</ele>
        <time>2010-01-01T00:15:07Z</time>
      </trkpt>
      <trkpt lat="42.23882" lon="1.85786">
        <ele>1040</ele>
        <time>2010-01-01T00:15:10Z</time>
      </trkpt>
      <trkpt lat="42.23874" lon="1.85775">
        <ele>1041</ele>
        <time>2010-01-01T00:15:15Z</time>
      </trkpt>
      <trkpt lat="42.23869" lon="1.85759">
        <ele>1044</ele>
        <time>2010-01-01T00:15:20Z</time>
      </trkpt>
      <trkpt lat="42.23873" lon="1.85739">
        <ele>1049</ele>
        <time>2010-01-01T00:15:26Z</time>
      </trkpt>
      <trkpt lat="42.23871" lon="1.85721">
        <ele>1053</ele>
        <time>2010-01-01T00:15:31Z</time>
      </trkpt>
      <trkpt lat="42.23869" lon="1.85709">
        <ele>1056</ele>
        <time>2010-01-01T00:15:35Z</time>
      </trkpt>
      <trkpt lat="42.23875" lon="1.85708">
        <ele>1056</ele>
        <time>2010-01-01T00:15:37Z</time>
      </trkpt>
      <trkpt lat="42.23892" lon="1.8573">
        <ele>1054</ele>
        <time>2010-01-01T00:15:47Z</time>
      </trkpt>
      <trkpt lat="42.23908" lon="1.85741">
        <ele>1057</ele>
        <time>2010-01-01T00:15:54Z</time>
      </trkpt>
      <trkpt lat="42.23925" lon="1.85742">
        <ele>1063</ele>
        <time>2010-01-01T00:16:01Z</time>
      </trkpt>
      <trkpt lat="42.2394" lon="1.85746">
        <ele>1068</ele>
        <time>2010-01-01T00:16:07Z</time>
      </trkpt>
      <trkpt lat="42.23957" lon="1.85758">
        <ele>1071</ele>
        <time>2010-01-01T00:16:15Z</time>
      </trkpt>
      <trkpt lat="42.23963" lon="1.85764">
        <ele>1072</ele>
        <time>2010-01-01T00:16:18Z</time>
      </trkpt>
      <trkpt lat="42.23968" lon="1.85852">
        <ele>1064</ele>
        <time>2010-01-01T00:16:44Z</time>
      </trkpt>
      <trkpt lat="42.23975" lon="1.85865">
        <ele>1065</ele>
        <time>2010-01-01T00:16:48Z</time>
      </trkpt>
      <trkpt lat="42.24008" lon="1.85904">
        <ele>1077</ele>
        <time>2010-01-01T00:17:06Z</time>
      </trkpt>
      <trkpt lat="42.24015" lon="1.85925">
        <ele>1078</ele>
        <time>2010-01-01T00:17:13Z</time>
      </trkpt>
      <trkpt lat="42.24019" lon="1.85954">
        <ele>1076</ele>
        <time>2010-01-01T00:17:21Z</time>
      </trkpt>
      <trkpt lat="42.24023" lon="1.85976">
        <ele>1076</ele>
        <time>2010-01-01T00:17:28Z</time>
      </trkpt>
      <trkpt lat="42.2403" lon="1.85995">
        <ele>1075</ele>
        <time>2010-01-01T00:17:34Z</time>
      </trkpt>
      <trkpt lat="42.24039" lon="1.86015">
        <ele>1074</ele>
        <time>2010-01-01T00:17:42Z</time>
      </trkpt>
      <trkpt lat="42.24053" lon="1.86017">
        <ele>1076</ele>
        <time>2010-01-01T00:17:47Z</time>
      </trkpt>
      <trkpt lat="42.24077" lon="1.85998">
        <ele>1080</ele>
        <time>2010-01-01T00:17:58Z</time>
      </trkpt>
      <trkpt lat="42.24077" lon="1.85976">
        <ele>1086</ele>
        <time>2010-01-01T00:18:05Z</time>
      </trkpt>
      <trkpt lat="42.24055" lon="1.85947">
        <ele>1089</ele>
        <time>2010-01-01T00:18:17Z</time>
      </trkpt>
      <trkpt lat="42.24048" lon="1.85924">
        <ele>1091</ele>
        <time>2010-01-01T00:18:24Z</time>
      </trkpt>
      <trkpt lat="42.24043" lon="1.85899">
        <ele>1095</ele>
        <time>2010-01-01T00:18:32Z</time>
      </trkpt>
      <trkpt lat="42.24035" lon="1.85871">
        <ele>1096</ele>
        <time>2010-01-01T00:18:40Z</time>
      </trkpt>
      <trkpt lat="42.24032" lon="1.85848">
        <ele>1097</ele>
        <time>2010-01-01T00:18:48Z</time>
      </trkpt>
      <trkpt lat="42.2403" lon="1.85827">
        <ele>1098</ele>
        <time>2010-01-01T00:18:54Z</time>
      </trkpt>
      <trkpt lat="42.24034" lon="1.8581">
        <ele>1101</ele>
        <time>2010-01-01T00:18:59Z</time>
      </trkpt>
      <trkpt lat="42.24041" lon="1.85781">
        <ele>1107</ele>
        <time>2010-01-01T00:19:08Z</time>
      </trkpt>
      <trkpt lat="42.24043" lon="1.85764">
        <ele>1108</ele>
        <time>2010-01-01T00:19:13Z</time>
      </trkpt>
      <trkpt lat="42.24053" lon="1.85723">
        <ele>1114</ele>
        <time>2010-01-01T00:19:26Z</time>
      </trkpt>
      <trkpt lat="42.24059" lon="1.85686">
        <ele>1114</ele>
        <time>2010-01-01T00:19:37Z</time>
      </trkpt>
      <trkpt lat="42.24059" lon="1.85673">
        <ele>1113</ele>
        <time>2010-01-01T00:19:41Z</time>
      </trkpt>
      <trkpt lat="42.24041" lon="1.85659">
        <ele>1113</ele>
        <time>2010-01-01T00:19:49Z</time>
      </trkpt>
      <trkpt lat="42.24035" lon="1.85649">
        <ele>1114</ele>
        <time>2010-01-01T00:19:53Z</time>
      </trkpt>
      <trkpt lat="42.24027" lon="1.85625">
        <ele>1119</ele>
        <time>2010-01-01T00:20:01Z</time>
      </trkpt>
      <trkpt lat="42.2401" lon="1.85616">
        <ele>1123</ele>
        <time>2010-01-01T00:20:08Z</time>
      </trkpt>
      <trkpt lat="42.24011" lon="1.85604">
        <ele>1126</ele>
        <time>2010-01-01T00:20:12Z</time>
      </trkpt>
      <trkpt lat="42.24006" lon="1.85587">
        <ele>1131</ele>
        <time>2010-01-01T00:20:17Z</time>
      </trkpt>
      <trkpt lat="42.23999" lon="1.8558">
        <ele>1134</ele>
        <time>2010-01-01T00:20:21Z</time>
      </trkpt>
      <trkpt lat="42.23993" lon="1.85571">
        <ele>1136</ele>
        <time>2010-01-01T00:20:24Z</time>
      </trkpt>
      <trkpt lat="42.23982" lon="1.85514">
        <ele>1146</ele>
        <time>2010-01-01T00:20:42Z</time>
      </trkpt>
      <trkpt lat="42.23977" lon="1.85499">
        <ele>1149</ele>
        <time>2010-01-01T00:20:47Z</time>
      </trkpt>
      <trkpt lat="42.23964" lon="1.85462">
        <ele>1156</ele>
        <time>2010-01-01T00:20:59Z</time>
      </trkpt>
      <trkpt lat="42.23954" lon="1.85446">
        <ele>1159</ele>
        <time>2010-01-01T00:21:05Z</time>
      </trkpt>
      <trkpt lat="42.23945" lon="1.85424">
        <ele>1163</ele>
        <time>2010-01-01T00:21:12Z</time>
      </trkpt>
      <trkpt lat="42.23933" lon="1.85383">
        <ele>1170</ele>
        <time>2010-01-01T00:21:25Z</time>
      </trkpt>
      <trkpt lat="42.2392" lon="1.85357">
        <ele>1175</ele>
        <time>2010-01-01T00:21:35Z</time>
      </trkpt>
      <trkpt lat="42.23905" lon="1.85341">
        <ele>1177</ele>
        <time>2010-01-01T00:21:42Z</time>
      </trkpt>
      <trkpt lat="42.2389" lon="1.85328">
        <ele>1181</ele>
        <time>2010-01-01T00:21:50Z</time>
      </trkpt>
      <trkpt lat="42.23872" lon="1.85315">
        <ele>1183</ele>
        <time>2010-01-01T00:21:58Z</time>
      </trkpt>
      <trkpt lat="42.23866" lon="1.85313">
        <ele>1184</ele>
        <time>2010-01-01T00:22:00Z</time>
      </trkpt>
      <trkpt lat="42.23866" lon="1.85309">
        <ele>1184</ele>
        <time>2010-01-01T00:22:01Z</time>
      </trkpt>
      <trkpt lat="42.23863" lon="1.85304">
        <ele>1186</ele>
        <time>2010-01-01T00:22:03Z</time>
      </trkpt>
      <trkpt lat="42.23848" lon="1.85297">
        <ele>1189</ele>
        <time>2010-01-01T00:22:10Z</time>
      </trkpt>
      <trkpt lat="42.23829" lon="1.85282">
        <ele>1194</ele>
        <time>2010-01-01T00:22:18Z</time>
      </trkpt>
      <trkpt lat="42.23815" lon="1.85261">
        <ele>1200</ele>
        <time>2010-01-01T00:22:27Z</time>
      </trkpt>
      <trkpt lat="42.23801" lon="1.8525">
        <ele>1206</ele>
        <time>2010-01-01T00:22:33Z</time>
      </trkpt>
      <trkpt lat="42.23793" lon="1.85241">
        <ele>1210</ele>
        <time>2010-01-01T00:22:37Z</time>
      </trkpt>
      <trkpt lat="42.23778" lon="1.85221">
        <ele>1221</ele>
        <time>2010-01-01T00:22:46Z</time>
      </trkpt>
      <trkpt lat="42.23771" lon="1.85209">
        <ele>1224</ele>
        <time>2010-01-01T00:22:50Z</time>
      </trkpt>
      <trkpt lat="42.23768" lon="1.85198">
        <ele>1227</ele>
        <time>2010-01-01T00:22:54Z</time>
      </trkpt>
      <trkpt lat="42.23753" lon="1.85162">
        <ele>1236</ele>
        <time>2010-01-01T00:23:06Z</time>
      </trkpt>
      <trkpt lat="42.23734" lon="1.85135">
        <ele>1244</ele>
        <time>2010-01-01T00:23:17Z</time>
      </trkpt>
      <trkpt lat="42.23719" lon="1.85128">
        <ele>1249</ele>
        <time>2010-01-01T00:23:23Z</time>
      </trkpt>
      <trkpt lat="42.23712" lon="1.85093">
        <ele>1256</ele>
        <time>2010-01-01T00:23:34Z</time>
      </trkpt>
      <trkpt lat="42.23696" lon="1.85035">
        <ele>1268</ele>
        <time>2010-01-01T00:23:52Z</time>
      </trkpt>
      <trkpt lat="42.23677" lon="1.85008">
        <ele>1277</ele>
        <time>2010-01-01T00:24:03Z</time>
      </trkpt>
      <trkpt lat="42.23675" lon="1.84979">
        <ele>1280</ele>
        <time>2010-01-01T00:24:12Z</time>
      </trkpt>
      <trkpt lat="42.2367" lon="1.8496">
        <ele>1286</ele>
        <time>2010-01-01T00:24:18Z</time>
      </trkpt>
      <trkpt lat="42.23662" lon="1.84939">
        <ele>1294</ele>
        <time>2010-01-01T00:24:25Z</time>
      </trkpt>
      <trkpt lat="42.23663" lon="1.84902">
        <ele>1300</ele>
        <time>2010-01-01T00:24:36Z</time>
      </trkpt>
      <trkpt lat="42.23665" lon="1.84885">
        <ele>1301</ele>
        <time>2010-01-01T00:24:41Z</time>
      </trkpt>
      <trkpt lat="42.23664" lon="1.84856">
        <ele>1307</ele>
        <time>2010-01-01T00:24:50Z</time>
      </trkpt>
      <trkpt lat="42.23665" lon="1.84834">
        <ele>1311</ele>
        <time>2010-01-01T00:24:57Z</time>
      </trkpt>
      <trkpt lat="42.23659" lon="1.84805">
        <ele>1320</ele>
        <time>2010-01-01T00:25:05Z</time>
      </trkpt>
      <trkpt lat="42.23658" lon="1.84774">
        <ele>1325</ele>
        <time>2010-01-01T00:25:15Z</time>
      </trkpt>
      <trkpt lat="42.23667" lon="1.84744">
        <ele>1328</ele>
        <time>2010-01-01T00:25:24Z</time>
      </trkpt>
      <trkpt lat="42.23682" lon="1.84714">
        <ele>1333</ele>
        <time>2010-01-01T00:25:35Z</time>
      </trkpt>
      <trkpt lat="42.23692" lon="1.84703">
        <ele>1332</ele>
        <time>2010-01-01T00:25:40Z</time>
      </trkpt>
      <trkpt lat="42.23694" lon="1.84693">
        <ele>1335</ele>
        <time>2010-01-01T00:25:43Z</time>
      </trkpt>
      <trkpt lat="42.2371" lon="1.84675">
        <ele>1333</ele>
        <time>2010-01-01T00:25:51Z</time>
      </trkpt>
      <trkpt lat="42.23706" lon="1.84668">
        <ele>1336</ele>
        <time>2010-01-01T00:25:54Z</time>
      </trkpt>
      <trkpt lat="42.23714" lon="1.84651">
        <ele>1340</ele>
        <time>2010-01-01T00:26:00Z</time>
      </trkpt>
      <trkpt lat="42.23714" lon="1.84622">
        <ele>1350</ele>
        <time>2010-01-01T00:26:08Z</time>
      </trkpt>
      <trkpt lat="42.23713" lon="1.84605">
        <ele>1356</ele>
        <time>2010-01-01T00:26:14Z</time>
      </trkpt>
      <trkpt lat="42.23714" lon="1.84589">
        <ele>1360</ele>
        <time>2010-01-01T00:26:18Z</time>
      </trkpt>
      <trkpt lat="42.2371" lon="1.84566">
        <ele>1364</ele>
        <time>2010-01-01T00:26:26Z</time>
      </trkpt>
      <trkpt lat="42.23711" lon="1.84529">
        <ele>1365</ele>
        <time>2010-01-01T00:26:36Z</time>
      </trkpt>
      <trkpt lat="42.2372" lon="1.8452">
        <ele>1363</ele>
        <time>2010-01-01T00:26:41Z</time>
      </trkpt>
      <trkpt lat="42.23728" lon="1.84506">
        <ele>1359</ele>
        <time>2010-01-01T00:26:46Z</time>
      </trkpt>
      <trkpt lat="42.23734" lon="1.84472">
        <ele>1359</ele>
        <time>2010-01-01T00:26:57Z</time>
      </trkpt>
      <trkpt lat="42.23739" lon="1.84451">
        <ele>1357</ele>
        <time>2010-01-01T00:27:03Z</time>
      </trkpt>
      <trkpt lat="42.23749" lon="1.84439">
        <ele>1354</ele>
        <time>2010-01-01T00:27:08Z</time>
      </trkpt>
      <trkpt lat="42.23768" lon="1.8442">
        <ele>1347</ele>
        <time>2010-01-01T00:27:18Z</time>
      </trkpt>
      <trkpt lat="42.23788" lon="1.84393">
        <ele>1345</ele>
        <time>2010-01-01T00:27:29Z</time>
      </trkpt>
      <trkpt lat="42.23809" lon="1.84329">
        <ele>1349</ele>
        <time>2010-01-01T00:27:50Z</time>
      </trkpt>
      <trkpt lat="42.23814" lon="1.84297">
        <ele>1349</ele>
        <time>2010-01-01T00:28:00Z</time>
      </trkpt>
      <trkpt lat="42.23819" lon="1.84278">
        <ele>1348</ele>
        <time>2010-01-01T00:28:06Z</time>
      </trkpt>
      <trkpt lat="42.23828" lon="1.84257">
        <ele>1349</ele>
        <time>2010-01-01T00:28:13Z</time>
      </trkpt>
      <trkpt lat="42.23842" lon="1.84235">
        <ele>1351</ele>
        <time>2010-01-01T00:28:22Z</time>
      </trkpt>
      <trkpt lat="42.23859" lon="1.84195">
        <ele>1354</ele>
        <time>2010-01-01T00:28:35Z</time>
      </trkpt>
      <trkpt lat="42.23864" lon="1.8418">
        <ele>1357</ele>
        <time>2010-01-01T00:28:40Z</time>
      </trkpt>
      <trkpt lat="42.23868" lon="1.8416">
        <ele>1359</ele>
        <time>2010-01-01T00:28:46Z</time>
      </trkpt>
      <trkpt lat="42.23882" lon="1.84111">
        <ele>1368</ele>
        <time>2010-01-01T00:29:02Z</time>
      </trkpt>
      <trkpt lat="42.23884" lon="1.84095">
        <ele>1370</ele>
        <time>2010-01-01T00:29:07Z</time>
      </trkpt>
      <trkpt lat="42.23887" lon="1.84052">
        <ele>1373</ele>
        <time>2010-01-01T00:29:20Z</time>
      </trkpt>
      <trkpt lat="42.23891" lon="1.84019">
        <ele>1379</ele>
        <time>2010-01-01T00:29:29Z</time>
      </trkpt>
      <trkpt lat="42.23892" lon="1.83986">
        <ele>1383</ele>
        <time>2010-01-01T00:29:39Z</time>
      </trkpt>
      <trkpt lat="42.23888" lon="1.83941">
        <ele>1391</ele>
        <time>2010-01-01T00:29:53Z</time>
      </trkpt>
      <trkpt lat="42.23882" lon="1.83909">
        <ele>1399</ele>
        <time>2010-01-01T00:30:02Z</time>
      </trkpt>
      <trkpt lat="42.23879" lon="1.839">
        <ele>1400</ele>
        <time>2010-01-01T00:30:05Z</time>
      </trkpt>
      <trkpt lat="42.23862" lon="1.83856">
        <ele>1402</ele>
        <time>2010-01-01T00:30:20Z</time>
      </trkpt>
      <trkpt lat="42.23846" lon="1.83819">
        <ele>1389</ele>
        <time>2010-01-01T00:30:33Z</time>
      </trkpt>
      <trkpt lat="42.2385" lon="1.83797">
        <ele>1386</ele>
        <time>2010-01-01T00:30:40Z</time>
      </trkpt>
      <trkpt lat="42.23862" lon="1.83785">
        <ele>1390</ele>
        <time>2010-01-01T00:30:46Z</time>
      </trkpt>
      <trkpt lat="42.23879" lon="1.83775">
        <ele>1397</ele>
        <time>2010-01-01T00:30:53Z</time>
      </trkpt>
      <trkpt lat="42.23886" lon="1.83767">
        <ele>1399</ele>
        <time>2010-01-01T00:30:56Z</time>
      </trkpt>
      <trkpt lat="42.23906" lon="1.83732">
        <ele>1396</ele>
        <time>2010-01-01T00:31:10Z</time>
      </trkpt>
      <trkpt lat="42.23932" lon="1.83678">
        <ele>1395</ele>
        <time>2010-01-01T00:31:29Z</time>
      </trkpt>
      <trkpt lat="42.2394" lon="1.83649">
        <ele>1396</ele>
        <time>2010-01-01T00:31:38Z</time>
      </trkpt>
      <trkpt lat="42.23946" lon="1.83597">
        <ele>1395</ele>
        <time>2010-01-01T00:31:53Z</time>
      </trkpt>
      <trkpt lat="42.23948" lon="1.83568">
        <ele>1389</ele>
        <time>2010-01-01T00:32:02Z</time>
      </trkpt>
      <trkpt lat="42.23963" lon="1.83559">
        <ele>1390</ele>
        <time>2010-01-01T00:32:09Z</time>
      </trkpt>
      <trkpt lat="42.23971" lon="1.83559">
        <ele>1392</ele>
        <time>2010-01-01T00:32:12Z</time>
      </trkpt>
      <trkpt lat="42.24019" lon="1.83542">
        <ele>1394</ele>
        <time>2010-01-01T00:32:32Z</time>
      </trkpt>
      <trkpt lat="42.24036" lon="1.83528">
        <ele>1391</ele>
        <time>2010-01-01T00:32:40Z</time>
      </trkpt>
      <trkpt lat="42.24061" lon="1.83514">
        <ele>1392</ele>
        <time>2010-01-01T00:32:51Z</time>
      </trkpt>
      <trkpt lat="42.2409" lon="1.83488">
        <ele>1391</ele>
        <time>2010-01-01T00:33:05Z</time>
      </trkpt>
      <trkpt lat="42.24117" lon="1.83447">
        <ele>1393</ele>
        <time>2010-01-01T00:33:21Z</time>
      </trkpt>
      <trkpt lat="42.24125" lon="1.83409">
        <ele>1390</ele>
        <time>2010-01-01T00:33:33Z</time>
      </trkpt>
      <trkpt lat="42.24125" lon="1.83403">
        <ele>1389</ele>
        <time>2010-01-01T00:33:35Z</time>
      </trkpt>
      <trkpt lat="42.24127" lon="1.83398">
        <ele>1389</ele>
        <time>2010-01-01T00:33:36Z</time>
      </trkpt>
      <trkpt lat="42.24129" lon="1.83358">
        <ele>1384</ele>
        <time>2010-01-01T00:33:48Z</time>
      </trkpt>
      <trkpt lat="42.24145" lon="1.83347">
        <ele>1386</ele>
        <time>2010-01-01T00:33:55Z</time>
      </trkpt>
      <trkpt lat="42.24166" lon="1.83324">
        <ele>1380</ele>
        <time>2010-01-01T00:34:06Z</time>
      </trkpt>
      <trkpt lat="42.24181" lon="1.83316">
        <ele>1381</ele>
        <time>2010-01-01T00:34:13Z</time>
      </trkpt>
      <trkpt lat="42.24203" lon="1.83299">
        <ele>1382</ele>
        <time>2010-01-01T00:34:23Z</time>
      </trkpt>
      <trkpt lat="42.24206" lon="1.83294">
        <ele>1381</ele>
        <time>2010-01-01T00:34:25Z</time>
      </trkpt>
      <trkpt lat="42.24216" lon="1.83289">
        <ele>1384</ele>
        <time>2010-01-01T00:34:29Z</time>
      </trkpt>
      <trkpt lat="42.24241" lon="1.83245">
        <ele>1383</ele>
        <time>2010-01-01T00:34:45Z</time>
      </trkpt>
      <trkpt lat="42.24244" lon="1.8322">
        <ele>1379</ele>
        <time>2010-01-01T00:34:53Z</time>
      </trkpt>
      <trkpt lat="42.24251" lon="1.8321">
        <ele>1380</ele>
        <time>2010-01-01T00:34:57Z</time>
      </trkpt>
      <trkpt lat="42.24262" lon="1.83154">
        <ele>1384</ele>
        <time>2010-01-01T00:35:14Z</time>
      </trkpt>
      <trkpt lat="42.2428" lon="1.83102">
        <ele>1394</ele>
        <time>2010-01-01T00:35:31Z</time>
      </trkpt>
      <trkpt lat="42.24282" lon="1.83078">
        <ele>1396</ele>
        <time>2010-01-01T00:35:38Z</time>
      </trkpt>
      <trkpt lat="42.24297" lon="1.82987">
        <ele>1407</ele>
        <time>2010-01-01T00:36:06Z</time>
      </trkpt>
      <trkpt lat="42.24303" lon="1.82987">
        <ele>1412</ele>
        <time>2010-01-01T00:36:08Z</time>
      </trkpt>
      <trkpt lat="42.24307" lon="1.82978">
        <ele>1414</ele>
        <time>2010-01-01T00:36:11Z</time>
      </trkpt>
      <trkpt lat="42.24321" lon="1.82922">
        <ele>1423</ele>
        <time>2010-01-01T00:36:29Z</time>
      </trkpt>
      <trkpt lat="42.24331" lon="1.82894">
        <ele>1431</ele>
        <time>2010-01-01T00:36:38Z</time>
      </trkpt>
      <trkpt lat="42.24335" lon="1.82876">
        <ele>1434</ele>
        <time>2010-01-01T00:36:44Z</time>
      </trkpt>
      <trkpt lat="42.24335" lon="1.8285">
        <ele>1434</ele>
        <time>2010-01-01T00:36:51Z</time>
      </trkpt>
      <trkpt lat="42.24344" lon="1.82813">
        <ele>1442</ele>
        <time>2010-01-01T00:37:03Z</time>
      </trkpt>
      <trkpt lat="42.24342" lon="1.82801">
        <ele>1442</ele>
        <time>2010-01-01T00:37:06Z</time>
      </trkpt>
      <trkpt lat="42.24315" lon="1.82737">
        <ele>1434</ele>
        <time>2010-01-01T00:37:28Z</time>
      </trkpt>
      <trkpt lat="42.24293" lon="1.82698">
        <ele>1436</ele>
        <time>2010-01-01T00:37:43Z</time>
      </trkpt>
      <trkpt lat="42.24279" lon="1.82684">
        <ele>1433</ele>
        <time>2010-01-01T00:37:50Z</time>
      </trkpt>
      <trkpt lat="42.24276" lon="1.82677">
        <ele>1432</ele>
        <time>2010-01-01T00:37:52Z</time>
      </trkpt>
      <trkpt lat="42.24276" lon="1.82671">
        <ele>1431</ele>
        <time>2010-01-01T00:37:54Z</time>
      </trkpt>
      <trkpt lat="42.24274" lon="1.82671">
        <ele>1431</ele>
        <time>2010-01-01T00:37:54Z</time>
      </trkpt>
      <trkpt lat="42.24276" lon="1.82674">
        <ele>1431</ele>
        <time>2010-01-01T00:37:56Z</time>
      </trkpt>
      <trkpt lat="42.24277" lon="1.82674">
        <ele>1431</ele>
        <time>2010-01-01T00:37:56Z</time>
      </trkpt>
      <trkpt lat="42.24277" lon="1.82663">
        <ele>1429</ele>
        <time>2010-01-01T00:37:59Z</time>
      </trkpt>
      <trkpt lat="42.24279" lon="1.8266">
        <ele>1429</ele>
        <time>2010-01-01T00:38:00Z</time>
      </trkpt>
      <trkpt lat="42.24288" lon="1.82655">
        <ele>1433</ele>
        <time>2010-01-01T00:38:04Z</time>
      </trkpt>
      <trkpt lat="42.24297" lon="1.82646">
        <ele>1436</ele>
        <time>2010-01-01T00:38:09Z</time>
      </trkpt>
      <trkpt lat="42.24325" lon="1.82565">
        <ele>1439</ele>
        <time>2010-01-01T00:38:35Z</time>
      </trkpt>
      <trkpt lat="42.24345" lon="1.82539">
        <ele>1441</ele>
        <time>2010-01-01T00:38:47Z</time>
      </trkpt>
      <trkpt lat="42.24353" lon="1.82511">
        <ele>1439</ele>
        <time>2010-01-01T00:38:55Z</time>
      </trkpt>
      <trkpt lat="42.24361" lon="1.82496">
        <ele>1440</ele>
        <time>2010-01-01T00:39:01Z</time>
      </trkpt>
      <trkpt lat="42.24365" lon="1.8247">
        <ele>1434</ele>
        <time>2010-01-01T00:39:09Z</time>
      </trkpt>
      <trkpt lat="42.2437" lon="1.82446">
        <ele>1431</ele>
        <time>2010-01-01T00:39:16Z</time>
      </trkpt>
      <trkpt lat="42.2438" lon="1.82421">
        <ele>1434</ele>
        <time>2010-01-01T00:39:24Z</time>
      </trkpt>
      <trkpt lat="42.24392" lon="1.824">
        <ele>1440</ele>
        <time>2010-01-01T00:39:32Z</time>
      </trkpt>
      <trkpt lat="42.24408" lon="1.82381">
        <ele>1444</ele>
        <time>2010-01-01T00:39:41Z</time>
      </trkpt>
      <trkpt lat="42.24425" lon="1.82374">
        <ele>1450</ele>
        <time>2010-01-01T00:39:48Z</time>
      </trkpt>
      <trkpt lat="42.2444" lon="1.82364">
        <ele>1452</ele>
        <time>2010-01-01T00:39:55Z</time>
      </trkpt>
      <trkpt lat="42.24451" lon="1.82362">
        <ele>1457</ele>
        <time>2010-01-01T00:39:59Z</time>
      </trkpt>
      <trkpt lat="42.24461" lon="1.82346">
        <ele>1454</ele>
        <time>2010-01-01T00:40:06Z</time>
      </trkpt>
      <trkpt lat="42.24467" lon="1.82327">
        <ele>1448</ele>
        <time>2010-01-01T00:40:12Z</time>
      </trkpt>
      <trkpt lat="42.2449" lon="1.8231">
        <ele>1452</ele>
        <time>2010-01-01T00:40:22Z</time>
      </trkpt>
      <trkpt lat="42.24499" lon="1.82307">
        <ele>1456</ele>
        <time>2010-01-01T00:40:26Z</time>
      </trkpt>
      <trkpt lat="42.24496" lon="1.8232">
        <ele>1459</ele>
        <time>2010-01-01T00:40:30Z</time>
      </trkpt>
      <trkpt lat="42.24489" lon="1.82329">
        <ele>1459</ele>
        <time>2010-01-01T00:40:34Z</time>
      </trkpt>
      <trkpt lat="42.24488" lon="1.82334">
        <ele>1461</ele>
        <time>2010-01-01T00:40:35Z</time>
      </trkpt>
      <trkpt lat="42.24513" lon="1.82335">
        <ele>1469</ele>
        <time>2010-01-01T00:40:45Z</time>
      </trkpt>
      <trkpt lat="42.24524" lon="1.82327">
        <ele>1469</ele>
        <time>2010-01-01T00:40:50Z</time>
      </trkpt>
      <trkpt lat="42.24531" lon="1.82315">
        <ele>1465</ele>
        <time>2010-01-01T00:40:55Z</time>
      </trkpt>
      <trkpt lat="42.24538" lon="1.82309">
        <ele>1463</ele>
        <time>2010-01-01T00:40:58Z</time>
      </trkpt>
      <trkpt lat="42.2455" lon="1.82304">
        <ele>1461</ele>
        <time>2010-01-01T00:41:03Z</time>
      </trkpt>
      <trkpt lat="42.24553" lon="1.82309">
        <ele>1462</ele>
        <time>2010-01-01T00:41:05Z</time>
      </trkpt>
      <trkpt lat="42.24573" lon="1.82332">
        <ele>1463</ele>
        <time>2010-01-01T00:41:16Z</time>
      </trkpt>
      <trkpt lat="42.24582" lon="1.82348">
        <ele>1464</ele>
        <time>2010-01-01T00:41:22Z</time>
      </trkpt>
      <trkpt lat="42.24591" lon="1.82378">
        <ele>1468</ele>
        <time>2010-01-01T00:41:31Z</time>
      </trkpt>
      <trkpt lat="42.24597" lon="1.82405">
        <ele>1473</ele>
        <time>2010-01-01T00:41:39Z</time>
      </trkpt>
      <trkpt lat="42.24604" lon="1.82424">
        <ele>1472</ele>
        <time>2010-01-01T00:41:46Z</time>
      </trkpt>
      <trkpt lat="42.24613" lon="1.82469">
        <ele>1465</ele>
        <time>2010-01-01T00:42:00Z</time>
      </trkpt>
      <trkpt lat="42.24622" lon="1.82499">
        <ele>1460</ele>
        <time>2010-01-01T00:42:09Z</time>
      </trkpt>
      <trkpt lat="42.24631" lon="1.82525">
        <ele>1461</ele>
        <time>2010-01-01T00:42:18Z</time>
      </trkpt>
      <trkpt lat="42.24645" lon="1.82549">
        <ele>1461</ele>
        <time>2010-01-01T00:42:27Z</time>
      </trkpt>
      <trkpt lat="42.2465" lon="1.82575">
        <ele>1462</ele>
        <time>2010-01-01T00:42:35Z</time>
      </trkpt>
      <trkpt lat="42.24657" lon="1.82585">
        <ele>1462</ele>
        <time>2010-01-01T00:42:39Z</time>
      </trkpt>
      <trkpt lat="42.24669" lon="1.82579">
        <ele>1461</ele>
        <time>2010-01-01T00:42:44Z</time>
      </trkpt>
      <trkpt lat="42.24681" lon="1.82583">
        <ele>1462</ele>
        <time>2010-01-01T00:42:49Z</time>
      </trkpt>
      <trkpt lat="42.24698" lon="1.82584">
        <ele>1464</ele>
        <time>2010-01-01T00:42:55Z</time>
      </trkpt>
      <trkpt lat="42.24725" lon="1.82583">
        <ele>1467</ele>
        <time>2010-01-01T00:43:06Z</time>
      </trkpt>
      <trkpt lat="42.24737" lon="1.8259">
        <ele>1470</ele>
        <time>2010-01-01T00:43:12Z</time>
      </trkpt>
      <trkpt lat="42.24746" lon="1.82598">
        <ele>1472</ele>
        <time>2010-01-01T00:43:16Z</time>
      </trkpt>
      <trkpt lat="42.24765" lon="1.82601">
        <ele>1478</ele>
        <time>2010-01-01T00:43:23Z</time>
      </trkpt>
      <trkpt lat="42.24782" lon="1.82597">
        <ele>1482</ele>
        <time>2010-01-01T00:43:30Z</time>
      </trkpt>
      <trkpt lat="42.24797" lon="1.82591">
        <ele>1483</ele>
        <time>2010-01-01T00:43:37Z</time>
      </trkpt>
      <trkpt lat="42.2481" lon="1.82592">
        <ele>1486</ele>
        <time>2010-01-01T00:43:42Z</time>
      </trkpt>
      <trkpt lat="42.24819" lon="1.82597">
        <ele>1489</ele>
        <time>2010-01-01T00:43:46Z</time>
      </trkpt>
      <trkpt lat="42.24841" lon="1.82593">
        <ele>1495</ele>
        <time>2010-01-01T00:43:55Z</time>
      </trkpt>
      <trkpt lat="42.24859" lon="1.82595">
        <ele>1500</ele>
        <time>2010-01-01T00:44:02Z</time>
      </trkpt>
      <trkpt lat="42.24892" lon="1.82579">
        <ele>1503</ele>
        <time>2010-01-01T00:44:16Z</time>
      </trkpt>
      <trkpt lat="42.24898" lon="1.82572">
        <ele>1502</ele>
        <time>2010-01-01T00:44:19Z</time>
      </trkpt>
      <trkpt lat="42.24899" lon="1.82559">
        <ele>1499</ele>
        <time>2010-01-01T00:44:23Z</time>
      </trkpt>
      <trkpt lat="42.24913" lon="1.82543">
        <ele>1497</ele>
        <time>2010-01-01T00:44:30Z</time>
      </trkpt>
      <trkpt lat="42.24939" lon="1.82523">
        <ele>1499</ele>
        <time>2010-01-01T00:44:42Z</time>
      </trkpt>
      <trkpt lat="42.24964" lon="1.8249">
        <ele>1496</ele>
        <time>2010-01-01T00:44:56Z</time>
      </trkpt>
      <trkpt lat="42.24983" lon="1.82461">
        <ele>1496</ele>
        <time>2010-01-01T00:45:08Z</time>
      </trkpt>
      <trkpt lat="42.24989" lon="1.82445">
        <ele>1496</ele>
        <time>2010-01-01T00:45:13Z</time>
      </trkpt>
      <trkpt lat="42.2501" lon="1.82408">
        <ele>1493</ele>
        <time>2010-01-01T00:45:27Z</time>
      </trkpt>
      <trkpt lat="42.25027" lon="1.8235">
        <ele>1493</ele>
        <time>2010-01-01T00:45:45Z</time>
      </trkpt>
      <trkpt lat="42.25046" lon="1.82306">
        <ele>1492</ele>
        <time>2010-01-01T00:46:00Z</time>
      </trkpt>
      <trkpt lat="42.25047" lon="1.82299">
        <ele>1491</ele>
        <time>2010-01-01T00:46:02Z</time>
      </trkpt>
      <trkpt lat="42.25074" lon="1.822">
        <ele>1486</ele>
        <time>2010-01-01T00:46:34Z</time>
      </trkpt>
      <trkpt lat="42.25079" lon="1.82169">
        <ele>1483</ele>
        <time>2010-01-01T00:46:43Z</time>
      </trkpt>
      <trkpt lat="42.25083" lon="1.82159">
        <ele>1483</ele>
        <time>2010-01-01T00:46:46Z</time>
      </trkpt>
      <trkpt lat="42.25085" lon="1.82148">
        <ele>1482</ele>
        <time>2010-01-01T00:46:50Z</time>
      </trkpt>
      <trkpt lat="42.25092" lon="1.82131">
        <ele>1482</ele>
        <time>2010-01-01T00:46:56Z</time>
      </trkpt>
      <trkpt lat="42.25102" lon="1.8212">
        <ele>1483</ele>
        <time>2010-01-01T00:47:01Z</time>
      </trkpt>
      <trkpt lat="42.25119" lon="1.82107">
        <ele>1485</ele>
        <time>2010-01-01T00:47:08Z</time>
      </trkpt>
      <trkpt lat="42.25161" lon="1.82063">
        <ele>1480</ele>
        <time>2010-01-01T00:47:30Z</time>
      </trkpt>
      <trkpt lat="42.25185" lon="1.82044">
        <ele>1475</ele>
        <time>2010-01-01T00:47:41Z</time>
      </trkpt>
      <trkpt lat="42.25203" lon="1.82035">
        <ele>1472</ele>
        <time>2010-01-01T00:47:49Z</time>
      </trkpt>
      <trkpt lat="42.25242" lon="1.82029">
        <ele>1474</ele>
        <time>2010-01-01T00:48:04Z</time>
      </trkpt>
      <trkpt lat="42.2526" lon="1.8202">
        <ele>1477</ele>
        <time>2010-01-01T00:48:12Z</time>
      </trkpt>
      <trkpt lat="42.25277" lon="1.82009">
        <ele>1480</ele>
        <time>2010-01-01T00:48:19Z</time>
      </trkpt>
      <trkpt lat="42.25299" lon="1.8198">
        <ele>1477</ele>
        <time>2010-01-01T00:48:32Z</time>
      </trkpt>
      <trkpt lat="42.25317" lon="1.8195">
        <ele>1476</ele>
        <time>2010-01-01T00:48:44Z</time>
      </trkpt>
      <trkpt lat="42.25332" lon="1.81931">
        <ele>1476</ele>
        <time>2010-01-01T00:48:52Z</time>
      </trkpt>
      <trkpt lat="42.25343" lon="1.8191">
        <ele>1473</ele>
        <time>2010-01-01T00:48:59Z</time>
      </trkpt>
      <trkpt lat="42.25357" lon="1.81875">
        <ele>1473</ele>
        <time>2010-01-01T00:49:11Z</time>
      </trkpt>
      <trkpt lat="42.25364" lon="1.81862">
        <ele>1473</ele>
        <time>2010-01-01T00:49:16Z</time>
      </trkpt>
      <trkpt lat="42.25366" lon="1.81849">
        <ele>1475</ele>
        <time>2010-01-01T00:49:20Z</time>
      </trkpt>
      <trkpt lat="42.25376" lon="1.81843">
        <ele>1472</ele>
        <time>2010-01-01T00:49:24Z</time>
      </trkpt>
      <trkpt lat="42.25372" lon="1.81836">
        <ele>1475</ele>
        <time>2010-01-01T00:49:27Z</time>
      </trkpt>
      <trkpt lat="42.25369" lon="1.81822">
        <ele>1479</ele>
        <time>2010-01-01T00:49:31Z</time>
      </trkpt>
      <trkpt lat="42.25359" lon="1.81801">
        <ele>1484</ele>
        <time>2010-01-01T00:49:38Z</time>
      </trkpt>
      <trkpt lat="42.25356" lon="1.81786">
        <ele>1484</ele>
        <time>2010-01-01T00:49:43Z</time>
      </trkpt>
      <trkpt lat="42.25351" lon="1.81742">
        <ele>1488</ele>
        <time>2010-01-01T00:49:56Z</time>
      </trkpt>
      <trkpt lat="42.25346" lon="1.81721">
        <ele>1491</ele>
        <time>2010-01-01T00:50:03Z</time>
      </trkpt>
      <trkpt lat="42.25349" lon="1.81708">
        <ele>1493</ele>
        <time>2010-01-01T00:50:07Z</time>
      </trkpt>
      <trkpt lat="42.2535" lon="1.8168">
        <ele>1498</ele>
        <time>2010-01-01T00:50:15Z</time>
      </trkpt>
      <trkpt lat="42.25342" lon="1.81624">
        <ele>1510</ele>
        <time>2010-01-01T00:50:32Z</time>
      </trkpt>
      <trkpt lat="42.25342" lon="1.81613">
        <ele>1512</ele>
        <time>2010-01-01T00:50:35Z</time>
      </trkpt>
      <trkpt lat="42.25335" lon="1.81581">
        <ele>1517</ele>
        <time>2010-01-01T00:50:45Z</time>
      </trkpt>
      <trkpt lat="42.2534" lon="1.81567">
        <ele>1518</ele>
        <time>2010-01-01T00:50:50Z</time>
      </trkpt>
      <trkpt lat="42.2534" lon="1.81517">
        <ele>1523</ele>
        <time>2010-01-01T00:51:04Z</time>
      </trkpt>
      <trkpt lat="42.25337" lon="1.81478">
        <ele>1527</ele>
        <time>2010-01-01T00:51:16Z</time>
      </trkpt>
      <trkpt lat="42.25337" lon="1.81458">
        <ele>1529</ele>
        <time>2010-01-01T00:51:22Z</time>
      </trkpt>
      <trkpt lat="42.25338" lon="1.81422">
        <ele>1534</ele>
        <time>2010-01-01T00:51:33Z</time>
      </trkpt>
      <trkpt lat="42.25335" lon="1.81398">
        <ele>1538</ele>
        <time>2010-01-01T00:51:40Z</time>
      </trkpt>
      <trkpt lat="42.25331" lon="1.81388">
        <ele>1540</ele>
        <time>2010-01-01T00:51:43Z</time>
      </trkpt>
      <trkpt lat="42.25327" lon="1.81363">
        <ele>1541</ele>
        <time>2010-01-01T00:51:51Z</time>
      </trkpt>
      <trkpt lat="42.25327" lon="1.81345">
        <ele>1541</ele>
        <time>2010-01-01T00:51:56Z</time>
      </trkpt>
      <trkpt lat="42.25333" lon="1.81326">
        <ele>1542</ele>
        <time>2010-01-01T00:52:02Z</time>
      </trkpt>
      <trkpt lat="42.25344" lon="1.81285">
        <ele>1536</ele>
        <time>2010-01-01T00:52:15Z</time>
      </trkpt>
      <trkpt lat="42.25354" lon="1.81273">
        <ele>1534</ele>
        <time>2010-01-01T00:52:21Z</time>
      </trkpt>
      <trkpt lat="42.25368" lon="1.81263">
        <ele>1529</ele>
        <time>2010-01-01T00:52:27Z</time>
      </trkpt>
      <trkpt lat="42.25395" lon="1.81215">
        <ele>1517</ele>
        <time>2010-01-01T00:52:45Z</time>
      </trkpt>
      <trkpt lat="42.25398" lon="1.81167">
        <ele>1509</ele>
        <time>2010-01-01T00:52:59Z</time>
      </trkpt>
      <trkpt lat="42.25398" lon="1.81138">
        <ele>1507</ele>
        <time>2010-01-01T00:53:08Z</time>
      </trkpt>
      <trkpt lat="42.25387" lon="1.81064">
        <ele>1500</ele>
        <time>2010-01-01T00:53:30Z</time>
      </trkpt>
      <trkpt lat="42.25389" lon="1.81039">
        <ele>1498</ele>
        <time>2010-01-01T00:53:38Z</time>
      </trkpt>
      <trkpt lat="42.25383" lon="1.81008">
        <ele>1494</ele>
        <time>2010-01-01T00:53:47Z</time>
      </trkpt>
      <trkpt lat="42.25377" lon="1.80966">
        <ele>1488</ele>
        <time>2010-01-01T00:54:00Z</time>
      </trkpt>
      <trkpt lat="42.25381" lon="1.80945">
        <ele>1486</ele>
        <time>2010-01-01T00:54:06Z</time>
      </trkpt>
      <trkpt lat="42.25389" lon="1.80923">
        <ele>1485</ele>
        <time>2010-01-01T00:54:13Z</time>
      </trkpt>
      <trkpt lat="42.25384" lon="1.80907">
        <ele>1483</ele>
        <time>2010-01-01T00:54:18Z</time>
      </trkpt>
      <trkpt lat="42.25382" lon="1.8089">
        <ele>1482</ele>
        <time>2010-01-01T00:54:23Z</time>
      </trkpt>
      <trkpt lat="42.25375" lon="1.80872">
        <ele>1479</ele>
        <time>2010-01-01T00:54:29Z</time>
      </trkpt>
      <trkpt lat="42.25378" lon="1.80854">
        <ele>1478</ele>
        <time>2010-01-01T00:54:35Z</time>
      </trkpt>
      <trkpt lat="42.25375" lon="1.8076">
        <ele>1471</ele>
        <time>2010-01-01T00:55:03Z</time>
      </trkpt>
      <trkpt lat="42.25361" lon="1.80681">
        <ele>1464</ele>
        <time>2010-01-01T00:55:27Z</time>
      </trkpt>
      <trkpt lat="42.25361" lon="1.80667">
        <ele>1462</ele>
        <time>2010-01-01T00:55:31Z</time>
      </trkpt>
      <trkpt lat="42.25358" lon="1.80642">
        <ele>1458</ele>
        <time>2010-01-01T00:55:39Z</time>
      </trkpt>
      <trkpt lat="42.25352" lon="1.80616">
        <ele>1455</ele>
        <time>2010-01-01T00:55:47Z</time>
      </trkpt>
      <trkpt lat="42.25351" lon="1.80591">
        <ele>1452</ele>
        <time>2010-01-01T00:55:54Z</time>
      </trkpt>
      <trkpt lat="42.2535" lon="1.80575">
        <ele>1450</ele>
        <time>2010-01-01T00:55:59Z</time>
      </trkpt>
      <trkpt lat="42.25353" lon="1.80557">
        <ele>1448</ele>
        <time>2010-01-01T00:56:04Z</time>
      </trkpt>
      <trkpt lat="42.25352" lon="1.80544">
        <ele>1445</ele>
        <time>2010-01-01T00:56:08Z</time>
      </trkpt>
      <trkpt lat="42.25354" lon="1.8053">
        <ele>1442</ele>
        <time>2010-01-01T00:56:12Z</time>
      </trkpt>
      <trkpt lat="42.25351" lon="1.80478">
        <ele>1423</ele>
        <time>2010-01-01T00:56:28Z</time>
      </trkpt>
      <trkpt lat="42.25345" lon="1.80426">
        <ele>1410</ele>
        <time>2010-01-01T00:56:43Z</time>
      </trkpt>
      <trkpt lat="42.25347" lon="1.80407">
        <ele>1408</ele>
        <time>2010-01-01T00:56:49Z</time>
      </trkpt>
      <trkpt lat="42.2534" lon="1.80356">
        <ele>1405</ele>
        <time>2010-01-01T00:57:04Z</time>
      </trkpt>
      <trkpt lat="42.25345" lon="1.80327">
        <ele>1405</ele>
        <time>2010-01-01T00:57:13Z</time>
      </trkpt>
      <trkpt lat="42.25342" lon="1.80316">
        <ele>1403</ele>
        <time>2010-01-01T00:57:17Z</time>
      </trkpt>
      <trkpt lat="42.25342" lon="1.80306">
        <ele>1402</ele>
        <time>2010-01-01T00:57:20Z</time>
      </trkpt>
      <trkpt lat="42.25344" lon="1.80287">
        <ele>1399</ele>
        <time>2010-01-01T00:57:25Z</time>
      </trkpt>
      <trkpt lat="42.25349" lon="1.80268">
        <ele>1397</ele>
        <time>2010-01-01T00:57:31Z</time>
      </trkpt>
      <trkpt lat="42.25352" lon="1.80246">
        <ele>1392</ele>
        <time>2010-01-01T00:57:38Z</time>
      </trkpt>
      <trkpt lat="42.25355" lon="1.80246">
        <ele>1393</ele>
        <time>2010-01-01T00:57:39Z</time>
      </trkpt>
      <trkpt lat="42.25361" lon="1.80232">
        <ele>1390</ele>
        <time>2010-01-01T00:57:44Z</time>
      </trkpt>
      <trkpt lat="42.25359" lon="1.80194">
        <ele>1384</ele>
        <time>2010-01-01T00:57:55Z</time>
      </trkpt>
      <trkpt lat="42.25362" lon="1.8013">
        <ele>1378</ele>
        <time>2010-01-01T00:58:14Z</time>
      </trkpt>
      <trkpt lat="42.25355" lon="1.80084">
        <ele>1369</ele>
        <time>2010-01-01T00:58:28Z</time>
      </trkpt>
      <trkpt lat="42.25358" lon="1.80066">
        <ele>1370</ele>
        <time>2010-01-01T00:58:34Z</time>
      </trkpt>
      <trkpt lat="42.25372" lon="1.80046">
        <ele>1370</ele>
        <time>2010-01-01T00:58:42Z</time>
      </trkpt>
      <trkpt lat="42.25383" lon="1.80005">
        <ele>1368</ele>
        <time>2010-01-01T00:58:55Z</time>
      </trkpt>
      <trkpt lat="42.25403" lon="1.79952">
        <ele>1360</ele>
        <time>2010-01-01T00:59:12Z</time>
      </trkpt>
      <trkpt lat="42.25406" lon="1.79938">
        <ele>1358</ele>
        <time>2010-01-01T00:59:17Z</time>
      </trkpt>
      <trkpt lat="42.25423" lon="1.79927">
        <ele>1357</ele>
        <time>2010-01-01T00:59:24Z</time>
      </trkpt>
      <trkpt lat="42.25445" lon="1.7993">
        <ele>1359</ele>
        <time>2010-01-01T00:59:33Z</time>
      </trkpt>
      <trkpt lat="42.25462" lon="1.79939">
        <ele>1360</ele>
        <time>2010-01-01T00:59:41Z</time>
      </trkpt>
      <trkpt lat="42.25478" lon="1.79963">
        <ele>1358</ele>
        <time>2010-01-01T00:59:50Z</time>
      </trkpt>
      <trkpt lat="42.25482" lon="1.79958">
        <ele>1357</ele>
        <time>2010-01-01T00:59:52Z</time>
      </trkpt>
      <trkpt lat="42.25473" lon="1.79915">
        <ele>1360</ele>
        <time>2010-01-01T01:00:05Z</time>
      </trkpt>
      <trkpt lat="42.25474" lon="1.79884">
        <ele>1363</ele>
        <time>2010-01-01T01:00:14Z</time>
      </trkpt>
      <trkpt lat="42.25478" lon="1.79867">
        <ele>1365</ele>
        <time>2010-01-01T01:00:20Z</time>
      </trkpt>
      <trkpt lat="42.25479" lon="1.7985">
        <ele>1368</ele>
        <time>2010-01-01T01:00:25Z</time>
      </trkpt>
      <trkpt lat="42.25475" lon="1.79832">
        <ele>1371</ele>
        <time>2010-01-01T01:00:30Z</time>
      </trkpt>
      <trkpt lat="42.2547" lon="1.79819">
        <ele>1372</ele>
        <time>2010-01-01T01:00:35Z</time>
      </trkpt>
      <trkpt lat="42.25465" lon="1.79797">
        <ele>1374</ele>
        <time>2010-01-01T01:00:42Z</time>
      </trkpt>
      <trkpt lat="42.25464" lon="1.79761">
        <ele>1377</ele>
        <time>2010-01-01T01:00:52Z</time>
      </trkpt>
      <trkpt lat="42.25466" lon="1.79678">
        <ele>1386</ele>
        <time>2010-01-01T01:01:17Z</time>
      </trkpt>
      <trkpt lat="42.2546" lon="1.79656">
        <ele>1388</ele>
        <time>2010-01-01T01:01:24Z</time>
      </trkpt>
      <trkpt lat="42.25426" lon="1.79632">
        <ele>1388</ele>
        <time>2010-01-01T01:01:39Z</time>
      </trkpt>
      <trkpt lat="42.25411" lon="1.79625">
        <ele>1386</ele>
        <time>2010-01-01T01:01:45Z</time>
      </trkpt>
      <trkpt lat="42.25398" lon="1.79623">
        <ele>1382</ele>
        <time>2010-01-01T01:01:51Z</time>
      </trkpt>
      <trkpt lat="42.25394" lon="1.79621">
        <ele>1381</ele>
        <time>2010-01-01T01:01:52Z</time>
      </trkpt>
      <trkpt lat="42.25391" lon="1.79613">
        <ele>1379</ele>
        <time>2010-01-01T01:01:55Z</time>
      </trkpt>
      <trkpt lat="42.2539" lon="1.79572">
        <ele>1379</ele>
        <time>2010-01-01T01:02:07Z</time>
      </trkpt>
      <trkpt lat="42.25386" lon="1.79519">
        <ele>1376</ele>
        <time>2010-01-01T01:02:23Z</time>
      </trkpt>
      <trkpt lat="42.25388" lon="1.79502">
        <ele>1376</ele>
        <time>2010-01-01T01:02:28Z</time>
      </trkpt>
      <trkpt lat="42.25392" lon="1.79477">
        <ele>1378</ele>
        <time>2010-01-01T01:02:36Z</time>
      </trkpt>
      <trkpt lat="42.25414" lon="1.79427">
        <ele>1386</ele>
        <time>2010-01-01T01:02:53Z</time>
      </trkpt>
      <trkpt lat="42.25462" lon="1.7936">
        <ele>1396</ele>
        <time>2010-01-01T01:03:21Z</time>
      </trkpt>
      <trkpt lat="42.25476" lon="1.79331">
        <ele>1398</ele>
        <time>2010-01-01T01:03:31Z</time>
      </trkpt>
      <trkpt lat="42.25493" lon="1.79286">
        <ele>1402</ele>
        <time>2010-01-01T01:03:46Z</time>
      </trkpt>
      <trkpt lat="42.25511" lon="1.79227">
        <ele>1405</ele>
        <time>2010-01-01T01:04:05Z</time>
      </trkpt>
      <trkpt lat="42.2551" lon="1.79199">
        <ele>1405</ele>
        <time>2010-01-01T01:04:13Z</time>
      </trkpt>
      <trkpt lat="42.25507" lon="1.792">
        <ele>1404</ele>
        <time>2010-01-01T01:04:14Z</time>
      </trkpt>
      <trkpt lat="42.25506" lon="1.79197">
        <ele>1404</ele>
        <time>2010-01-01T01:04:15Z</time>
      </trkpt>
      <trkpt lat="42.2551" lon="1.79178">
        <ele>1404</ele>
        <time>2010-01-01T01:04:21Z</time>
      </trkpt>
      <trkpt lat="42.25522" lon="1.79159">
        <ele>1409</ele>
        <time>2010-01-01T01:04:28Z</time>
      </trkpt>
      <trkpt lat="42.25539" lon="1.79139">
        <ele>1412</ele>
        <time>2010-01-01T01:04:37Z</time>
      </trkpt>
      <trkpt lat="42.25536" lon="1.79141">
        <ele>1412</ele>
        <time>2010-01-01T01:04:39Z</time>
      </trkpt>
      <trkpt lat="42.25544" lon="1.79121">
        <ele>1413</ele>
        <time>2010-01-01T01:04:46Z</time>
      </trkpt>
      <trkpt lat="42.25547" lon="1.79095">
        <ele>1412</ele>
        <time>2010-01-01T01:04:54Z</time>
      </trkpt>
      <trkpt lat="42.25558" lon="1.79068">
        <ele>1412</ele>
        <time>2010-01-01T01:05:03Z</time>
      </trkpt>
      <trkpt lat="42.2557" lon="1.79051">
        <ele>1415</ele>
        <time>2010-01-01T01:05:10Z</time>
      </trkpt>
      <trkpt lat="42.25586" lon="1.79041">
        <ele>1418</ele>
        <time>2010-01-01T01:05:17Z</time>
      </trkpt>
      <trkpt lat="42.25604" lon="1.79038">
        <ele>1421</ele>
        <time>2010-01-01T01:05:24Z</time>
      </trkpt>
      <trkpt lat="42.25598" lon="1.79042">
        <ele>1420</ele>
        <time>2010-01-01T01:05:27Z</time>
      </trkpt>
      <trkpt lat="42.25593" lon="1.79041">
        <ele>1419</ele>
        <time>2010-01-01T01:05:29Z</time>
      </trkpt>
      <trkpt lat="42.25588" lon="1.7903">
        <ele>1420</ele>
        <time>2010-01-01T01:05:33Z</time>
      </trkpt>
      <trkpt lat="42.2558" lon="1.79018">
        <ele>1421</ele>
        <time>2010-01-01T01:05:37Z</time>
      </trkpt>
      <trkpt lat="42.25572" lon="1.79009">
        <ele>1422</ele>
        <time>2010-01-01T01:05:42Z</time>
      </trkpt>
      <trkpt lat="42.25569" lon="1.79002">
        <ele>1424</ele>
        <time>2010-01-01T01:05:44Z</time>
      </trkpt>
      <trkpt lat="42.25582" lon="1.78976">
        <ele>1430</ele>
        <time>2010-01-01T01:05:53Z</time>
      </trkpt>
      <trkpt lat="42.25582" lon="1.78936">
        <ele>1433</ele>
        <time>2010-01-01T01:06:05Z</time>
      </trkpt>
      <trkpt lat="42.25595" lon="1.78862">
        <ele>1433</ele>
        <time>2010-01-01T01:06:28Z</time>
      </trkpt>
      <trkpt lat="42.25608" lon="1.78823">
        <ele>1415</ele>
        <time>2010-01-01T01:06:41Z</time>
      </trkpt>
      <trkpt lat="42.25611" lon="1.78777">
        <ele>1444</ele>
        <time>2010-01-01T01:06:54Z</time>
      </trkpt>
      <trkpt lat="42.25615" lon="1.7876">
        <ele>1451</ele>
        <time>2010-01-01T01:06:59Z</time>
      </trkpt>
      <trkpt lat="42.25614" lon="1.78717">
        <ele>1471</ele>
        <time>2010-01-01T01:07:12Z</time>
      </trkpt>
      <trkpt lat="42.25623" lon="1.78694">
        <ele>1466</ele>
        <time>2010-01-01T01:07:20Z</time>
      </trkpt>
      <trkpt lat="42.25649" lon="1.78615">
        <ele>1446</ele>
        <time>2010-01-01T01:07:46Z</time>
      </trkpt>
      <trkpt lat="42.25649" lon="1.78593">
        <ele>1446</ele>
        <time>2010-01-01T01:07:52Z</time>
      </trkpt>
      <trkpt lat="42.25644" lon="1.78563">
        <ele>1448</ele>
        <time>2010-01-01T01:08:01Z</time>
      </trkpt>
      <trkpt lat="42.25646" lon="1.7855">
        <ele>1447</ele>
        <time>2010-01-01T01:08:05Z</time>
      </trkpt>
      <trkpt lat="42.25647" lon="1.78547">
        <ele>1446</ele>
        <time>2010-01-01T01:08:06Z</time>
      </trkpt>
      <trkpt lat="42.25643" lon="1.78496">
        <ele>1453</ele>
        <time>2010-01-01T01:08:22Z</time>
      </trkpt>
      <trkpt lat="42.25634" lon="1.7849">
        <ele>1458</ele>
        <time>2010-01-01T01:08:25Z</time>
      </trkpt>
      <trkpt lat="42.25633" lon="1.78477">
        <ele>1459</ele>
        <time>2010-01-01T01:08:29Z</time>
      </trkpt>
      <trkpt lat="42.25626" lon="1.78468">
        <ele>1463</ele>
        <time>2010-01-01T01:08:33Z</time>
      </trkpt>
      <trkpt lat="42.25613" lon="1.78435">
        <ele>1473</ele>
        <time>2010-01-01T01:08:44Z</time>
      </trkpt>
      <trkpt lat="42.25613" lon="1.78406">
        <ele>1478</ele>
        <time>2010-01-01T01:08:53Z</time>
      </trkpt>
      <trkpt lat="42.25616" lon="1.78395">
        <ele>1480</ele>
        <time>2010-01-01T01:08:56Z</time>
      </trkpt>
      <trkpt lat="42.25614" lon="1.78371">
        <ele>1488</ele>
        <time>2010-01-01T01:09:03Z</time>
      </trkpt>
      <trkpt lat="42.25626" lon="1.78364">
        <ele>1487</ele>
        <time>2010-01-01T01:09:09Z</time>
      </trkpt>
      <trkpt lat="42.25645" lon="1.78342">
        <ele>1488</ele>
        <time>2010-01-01T01:09:19Z</time>
      </trkpt>
      <trkpt lat="42.25657" lon="1.78325">
        <ele>1487</ele>
        <time>2010-01-01T01:09:26Z</time>
      </trkpt>
      <trkpt lat="42.25665" lon="1.78308">
        <ele>1489</ele>
        <time>2010-01-01T01:09:32Z</time>
      </trkpt>
      <trkpt lat="42.25669" lon="1.7829">
        <ele>1491</ele>
        <time>2010-01-01T01:09:37Z</time>
      </trkpt>
      <trkpt lat="42.25677" lon="1.78271">
        <ele>1487</ele>
        <time>2010-01-01T01:09:44Z</time>
      </trkpt>
      <trkpt lat="42.25682" lon="1.78251">
        <ele>1488</ele>
        <time>2010-01-01T01:09:50Z</time>
      </trkpt>
      <trkpt lat="42.25679" lon="1.78242">
        <ele>1491</ele>
        <time>2010-01-01T01:09:53Z</time>
      </trkpt>
      <trkpt lat="42.25682" lon="1.78216">
        <ele>1494</ele>
        <time>2010-01-01T01:10:01Z</time>
      </trkpt>
      <trkpt lat="42.25689" lon="1.7819">
        <ele>1496</ele>
        <time>2010-01-01T01:10:09Z</time>
      </trkpt>
      <trkpt lat="42.25703" lon="1.7817">
        <ele>1496</ele>
        <time>2010-01-01T01:10:17Z</time>
      </trkpt>
      <trkpt lat="42.25716" lon="1.7816">
        <ele>1493</ele>
        <time>2010-01-01T01:10:23Z</time>
      </trkpt>
      <trkpt lat="42.25723" lon="1.78147">
        <ele>1492</ele>
        <time>2010-01-01T01:10:28Z</time>
      </trkpt>
      <trkpt lat="42.25761" lon="1.78101">
        <ele>1481</ele>
        <time>2010-01-01T01:10:48Z</time>
      </trkpt>
      <trkpt lat="42.25779" lon="1.78059">
        <ele>1488</ele>
        <time>2010-01-01T01:11:03Z</time>
      </trkpt>
      <trkpt lat="42.25784" lon="1.78038">
        <ele>1492</ele>
        <time>2010-01-01T01:11:09Z</time>
      </trkpt>
      <trkpt lat="42.25792" lon="1.78016">
        <ele>1490</ele>
        <time>2010-01-01T01:11:16Z</time>
      </trkpt>
      <trkpt lat="42.25816" lon="1.77965">
        <ele>1488</ele>
        <time>2010-01-01T01:11:34Z</time>
      </trkpt>
      <trkpt lat="42.25824" lon="1.77942">
        <ele>1492</ele>
        <time>2010-01-01T01:11:42Z</time>
      </trkpt>
      <trkpt lat="42.25838" lon="1.77897">
        <ele>1496</ele>
        <time>2010-01-01T01:11:56Z</time>
      </trkpt>
      <trkpt lat="42.25839" lon="1.77872">
        <ele>1501</ele>
        <time>2010-01-01T01:12:04Z</time>
      </trkpt>
      <trkpt lat="42.25853" lon="1.77816">
        <ele>1504</ele>
        <time>2010-01-01T01:12:21Z</time>
      </trkpt>
      <trkpt lat="42.25866" lon="1.77797">
        <ele>1498</ele>
        <time>2010-01-01T01:12:29Z</time>
      </trkpt>
      <trkpt lat="42.2588" lon="1.77755">
        <ele>1499</ele>
        <time>2010-01-01T01:12:42Z</time>
      </trkpt>
      <trkpt lat="42.25885" lon="1.77736">
        <ele>1500</ele>
        <time>2010-01-01T01:12:49Z</time>
      </trkpt>
      <trkpt lat="42.25884" lon="1.77712">
        <ele>1504</ele>
        <time>2010-01-01T01:12:56Z</time>
      </trkpt>
      <trkpt lat="42.25886" lon="1.77707">
        <ele>1504</ele>
        <time>2010-01-01T01:12:57Z</time>
      </trkpt>
      <trkpt lat="42.25891" lon="1.77702">
        <ele>1501</ele>
        <time>2010-01-01T01:13:00Z</time>
      </trkpt>
      <trkpt lat="42.259" lon="1.77676">
        <ele>1499</ele>
        <time>2010-01-01T01:13:08Z</time>
      </trkpt>
      <trkpt lat="42.25902" lon="1.77646">
        <ele>1498</ele>
        <time>2010-01-01T01:13:17Z</time>
      </trkpt>
      <trkpt lat="42.25892" lon="1.77592">
        <ele>1502</ele>
        <time>2010-01-01T01:13:34Z</time>
      </trkpt>
      <trkpt lat="42.25898" lon="1.77562">
        <ele>1501</ele>
        <time>2010-01-01T01:13:43Z</time>
      </trkpt>
      <trkpt lat="42.25906" lon="1.77539">
        <ele>1500</ele>
        <time>2010-01-01T01:13:50Z</time>
      </trkpt>
      <trkpt lat="42.25909" lon="1.77524">
        <ele>1500</ele>
        <time>2010-01-01T01:13:55Z</time>
      </trkpt>
      <trkpt lat="42.25915" lon="1.77516">
        <ele>1500</ele>
        <time>2010-01-01T01:13:59Z</time>
      </trkpt>
      <trkpt lat="42.25916" lon="1.77519">
        <ele>1499</ele>
        <time>2010-01-01T01:14:00Z</time>
      </trkpt>
      <trkpt lat="42.25919" lon="1.77506">
        <ele>1500</ele>
        <time>2010-01-01T01:14:04Z</time>
      </trkpt>
      <trkpt lat="42.25931" lon="1.77494">
        <ele>1500</ele>
        <time>2010-01-01T01:14:09Z</time>
      </trkpt>
      <trkpt lat="42.25951" lon="1.77486">
        <ele>1496</ele>
        <time>2010-01-01T01:14:18Z</time>
      </trkpt>
      <trkpt lat="42.25962" lon="1.77461">
        <ele>1495</ele>
        <time>2010-01-01T01:14:27Z</time>
      </trkpt>
      <trkpt lat="42.25986" lon="1.77429">
        <ele>1493</ele>
        <time>2010-01-01T01:14:40Z</time>
      </trkpt>
      <trkpt lat="42.25997" lon="1.774">
        <ele>1497</ele>
        <time>2010-01-01T01:14:50Z</time>
      </trkpt>
      <trkpt lat="42.2602" lon="1.77353">
        <ele>1505</ele>
        <time>2010-01-01T01:15:06Z</time>
      </trkpt>
      <trkpt lat="42.26046" lon="1.77316">
        <ele>1508</ele>
        <time>2010-01-01T01:15:22Z</time>
      </trkpt>
      <trkpt lat="42.26073" lon="1.77286">
        <ele>1506</ele>
        <time>2010-01-01T01:15:35Z</time>
      </trkpt>
      <trkpt lat="42.26085" lon="1.77278">
        <ele>1504</ele>
        <time>2010-01-01T01:15:41Z</time>
      </trkpt>
      <trkpt lat="42.26084" lon="1.7725">
        <ele>1507</ele>
        <time>2010-01-01T01:15:49Z</time>
      </trkpt>
      <trkpt lat="42.2607" lon="1.77211">
        <ele>1513</ele>
        <time>2010-01-01T01:16:02Z</time>
      </trkpt>
      <trkpt lat="42.26067" lon="1.77187">
        <ele>1513</ele>
        <time>2010-01-01T01:16:09Z</time>
      </trkpt>
      <trkpt lat="42.2607" lon="1.77162">
        <ele>1509</ele>
        <time>2010-01-01T01:16:17Z</time>
      </trkpt>
      <trkpt lat="42.26072" lon="1.7711">
        <ele>1508</ele>
        <time>2010-01-01T01:16:32Z</time>
      </trkpt>
      <trkpt lat="42.26075" lon="1.77101">
        <ele>1507</ele>
        <time>2010-01-01T01:16:35Z</time>
      </trkpt>
      <trkpt lat="42.26087" lon="1.77084">
        <ele>1503</ele>
        <time>2010-01-01T01:16:42Z</time>
      </trkpt>
      <trkpt lat="42.26095" lon="1.77067">
        <ele>1502</ele>
        <time>2010-01-01T01:16:48Z</time>
      </trkpt>
      <trkpt lat="42.26105" lon="1.77037">
        <ele>1498</ele>
        <time>2010-01-01T01:16:58Z</time>
      </trkpt>
      <trkpt lat="42.26117" lon="1.77009">
        <ele>1489</ele>
        <time>2010-01-01T01:17:07Z</time>
      </trkpt>
      <trkpt lat="42.26116" lon="1.76998">
        <ele>1490</ele>
        <time>2010-01-01T01:17:10Z</time>
      </trkpt>
      <trkpt lat="42.26095" lon="1.7695">
        <ele>1504</ele>
        <time>2010-01-01T01:17:27Z</time>
      </trkpt>
      <trkpt lat="42.26092" lon="1.76928">
        <ele>1504</ele>
        <time>2010-01-01T01:17:34Z</time>
      </trkpt>
      <trkpt lat="42.26092" lon="1.76919">
        <ele>1504</ele>
        <time>2010-01-01T01:17:36Z</time>
      </trkpt>
      <trkpt lat="42.2609" lon="1.7691">
        <ele>1504</ele>
        <time>2010-01-01T01:17:39Z</time>
      </trkpt>
      <trkpt lat="42.26089" lon="1.76892">
        <ele>1501</ele>
        <time>2010-01-01T01:17:44Z</time>
      </trkpt>
      <trkpt lat="42.26091" lon="1.76862">
        <ele>1496</ele>
        <time>2010-01-01T01:17:53Z</time>
      </trkpt>
      <trkpt lat="42.26094" lon="1.76839">
        <ele>1490</ele>
        <time>2010-01-01T01:18:00Z</time>
      </trkpt>
      <trkpt lat="42.26091" lon="1.76803">
        <ele>1483</ele>
        <time>2010-01-01T01:18:11Z</time>
      </trkpt>
      <trkpt lat="42.26062" lon="1.7675">
        <ele>1471</ele>
        <time>2010-01-01T01:18:31Z</time>
      </trkpt>
      <trkpt lat="42.26054" lon="1.76739">
        <ele>1468</ele>
        <time>2010-01-01T01:18:35Z</time>
      </trkpt>
      <trkpt lat="42.2604" lon="1.76713">
        <ele>1461</ele>
        <time>2010-01-01T01:18:45Z</time>
      </trkpt>
      <trkpt lat="42.26039" lon="1.76709">
        <ele>1460</ele>
        <time>2010-01-01T01:18:46Z</time>
      </trkpt>
      <trkpt lat="42.2604" lon="1.76684">
        <ele>1454</ele>
        <time>2010-01-01T01:18:53Z</time>
      </trkpt>
      <trkpt lat="42.26042" lon="1.7666">
        <ele>1450</ele>
        <time>2010-01-01T01:19:00Z</time>
      </trkpt>
      <trkpt lat="42.26014" lon="1.76606">
        <ele>1444</ele>
        <time>2010-01-01T01:19:20Z</time>
      </trkpt>
      <trkpt lat="42.26011" lon="1.76606">
        <ele>1444</ele>
        <time>2010-01-01T01:19:21Z</time>
      </trkpt>
      <trkpt lat="42.26009" lon="1.76608">
        <ele>1444</ele>
        <time>2010-01-01T01:19:22Z</time>
      </trkpt>
      <trkpt lat="42.2601" lon="1.76605">
        <ele>1444</ele>
        <time>2010-01-01T01:19:24Z</time>
      </trkpt>
      <trkpt lat="42.26005" lon="1.76601">
        <ele>1444</ele>
        <time>2010-01-01T01:19:26Z</time>
      </trkpt>
      <trkpt lat="42.25985" lon="1.76609">
        <ele>1443</ele>
        <time>2010-01-01T01:19:34Z</time>
      </trkpt>
      <trkpt lat="42.25961" lon="1.76621">
        <ele>1442</ele>
        <time>2010-01-01T01:19:45Z</time>
      </trkpt>
      <trkpt lat="42.25948" lon="1.76623">
        <ele>1443</ele>
        <time>2010-01-01T01:19:49Z</time>
      </trkpt>
      <trkpt lat="42.25916" lon="1.76631">
        <ele>1440</ele>
        <time>2010-01-01T01:20:03Z</time>
      </trkpt>
      <trkpt lat="42.25905" lon="1.76627">
        <ele>1436</ele>
        <time>2010-01-01T01:20:07Z</time>
      </trkpt>
      <trkpt lat="42.25884" lon="1.76623">
        <ele>1431</ele>
        <time>2010-01-01T01:20:16Z</time>
      </trkpt>
      <trkpt lat="42.25868" lon="1.76619">
        <ele>1431</ele>
        <time>2010-01-01T01:20:22Z</time>
      </trkpt>
      <trkpt lat="42.25833" lon="1.76601">
        <ele>1434</ele>
        <time>2010-01-01T01:20:37Z</time>
      </trkpt>
      <trkpt lat="42.2581" lon="1.76586">
        <ele>1432</ele>
        <time>2010-01-01T01:20:47Z</time>
      </trkpt>
      <trkpt lat="42.25793" lon="1.76585">
        <ele>1429</ele>
        <time>2010-01-01T01:20:54Z</time>
      </trkpt>
      <trkpt lat="42.25764" lon="1.76578">
        <ele>1426</ele>
        <time>2010-01-01T01:21:06Z</time>
      </trkpt>
      <trkpt lat="42.25739" lon="1.76567">
        <ele>1424</ele>
        <time>2010-01-01T01:21:16Z</time>
      </trkpt>
      <trkpt lat="42.25726" lon="1.76559">
        <ele>1422</ele>
        <time>2010-01-01T01:21:22Z</time>
      </trkpt>
      <trkpt lat="42.25709" lon="1.76542">
        <ele>1423</ele>
        <time>2010-01-01T01:21:31Z</time>
      </trkpt>
      <trkpt lat="42.257" lon="1.76532">
        <ele>1424</ele>
        <time>2010-01-01T01:21:35Z</time>
      </trkpt>
      <trkpt lat="42.25689" lon="1.76526">
        <ele>1424</ele>
        <time>2010-01-01T01:21:40Z</time>
      </trkpt>
      <trkpt lat="42.25671" lon="1.76526">
        <ele>1423</ele>
        <time>2010-01-01T01:21:47Z</time>
      </trkpt>
      <trkpt lat="42.2566" lon="1.76521">
        <ele>1423</ele>
        <time>2010-01-01T01:21:52Z</time>
      </trkpt>
      <trkpt lat="42.25607" lon="1.76511">
        <ele>1427</ele>
        <time>2010-01-01T01:22:13Z</time>
      </trkpt>
      <trkpt lat="42.25591" lon="1.76513">
        <ele>1427</ele>
        <time>2010-01-01T01:22:20Z</time>
      </trkpt>
      <trkpt lat="42.25583" lon="1.76517">
        <ele>1427</ele>
        <time>2010-01-01T01:22:23Z</time>
      </trkpt>
      <trkpt lat="42.25578" lon="1.76522">
        <ele>1427</ele>
        <time>2010-01-01T01:22:26Z</time>
      </trkpt>
      <trkpt lat="42.25572" lon="1.76531">
        <ele>1427</ele>
        <time>2010-01-01T01:22:29Z</time>
      </trkpt>
      <trkpt lat="42.2557" lon="1.76546">
        <ele>1425</ele>
        <time>2010-01-01T01:22:34Z</time>
      </trkpt>
      <trkpt lat="42.25571" lon="1.76545">
        <ele>1425</ele>
        <time>2010-01-01T01:22:34Z</time>
      </trkpt>
      <trkpt lat="42.25571" lon="1.76538">
        <ele>1426</ele>
        <time>2010-01-01T01:22:36Z</time>
      </trkpt>
      <trkpt lat="42.25552" lon="1.7657">
        <ele>1424</ele>
        <time>2010-01-01T01:22:48Z</time>
      </trkpt>
      <trkpt lat="42.25535" lon="1.7658">
        <ele>1426</ele>
        <time>2010-01-01T01:22:55Z</time>
      </trkpt>
      <trkpt lat="42.25513" lon="1.76599">
        <ele>1427</ele>
        <time>2010-01-01T01:23:06Z</time>
      </trkpt>
      <trkpt lat="42.25485" lon="1.76618">
        <ele>1424</ele>
        <time>2010-01-01T01:23:19Z</time>
      </trkpt>
      <trkpt lat="42.25455" lon="1.76633">
        <ele>1417</ele>
        <time>2010-01-01T01:23:32Z</time>
      </trkpt>
      <trkpt lat="42.2545" lon="1.76632">
        <ele>1416</ele>
        <time>2010-01-01T01:23:34Z</time>
      </trkpt>
      <trkpt lat="42.25445" lon="1.76611">
        <ele>1413</ele>
        <time>2010-01-01T01:23:40Z</time>
      </trkpt>
      <trkpt lat="42.25444" lon="1.76595">
        <ele>1411</ele>
        <time>2010-01-01T01:23:45Z</time>
      </trkpt>
      <trkpt lat="42.25444" lon="1.76585">
        <ele>1410</ele>
        <time>2010-01-01T01:23:48Z</time>
      </trkpt>
      <trkpt lat="42.2545" lon="1.76564">
        <ele>1413</ele>
        <time>2010-01-01T01:23:54Z</time>
      </trkpt>
      <trkpt lat="42.2545" lon="1.76529">
        <ele>1413</ele>
        <time>2010-01-01T01:24:05Z</time>
      </trkpt>
      <trkpt lat="42.25442" lon="1.76509">
        <ele>1408</ele>
        <time>2010-01-01T01:24:12Z</time>
      </trkpt>
      <trkpt lat="42.25437" lon="1.76489">
        <ele>1407</ele>
        <time>2010-01-01T01:24:18Z</time>
      </trkpt>
      <trkpt lat="42.25432" lon="1.76473">
        <ele>1406</ele>
        <time>2010-01-01T01:24:23Z</time>
      </trkpt>
      <trkpt lat="42.25424" lon="1.7646">
        <ele>1404</ele>
        <time>2010-01-01T01:24:28Z</time>
      </trkpt>
      <trkpt lat="42.25418" lon="1.76454">
        <ele>1402</ele>
        <time>2010-01-01T01:24:31Z</time>
      </trkpt>
      <trkpt lat="42.25414" lon="1.76442">
        <ele>1403</ele>
        <time>2010-01-01T01:24:35Z</time>
      </trkpt>
      <trkpt lat="42.25411" lon="1.76441">
        <ele>1401</ele>
        <time>2010-01-01T01:24:36Z</time>
      </trkpt>
      <trkpt lat="42.2541" lon="1.76428">
        <ele>1404</ele>
        <time>2010-01-01T01:24:40Z</time>
      </trkpt>
      <trkpt lat="42.25394" lon="1.76392">
        <ele>1404</ele>
        <time>2010-01-01T01:24:52Z</time>
      </trkpt>
      <trkpt lat="42.25383" lon="1.76375">
        <ele>1405</ele>
        <time>2010-01-01T01:24:59Z</time>
      </trkpt>
      <trkpt lat="42.25378" lon="1.76362">
        <ele>1408</ele>
        <time>2010-01-01T01:25:03Z</time>
      </trkpt>
      <trkpt lat="42.25371" lon="1.76355">
        <ele>1406</ele>
        <time>2010-01-01T01:25:07Z</time>
      </trkpt>
      <trkpt lat="42.25367" lon="1.76349">
        <ele>1406</ele>
        <time>2010-01-01T01:25:10Z</time>
      </trkpt>
      <trkpt lat="42.25355" lon="1.76343">
        <ele>1400</ele>
        <time>2010-01-01T01:25:15Z</time>
      </trkpt>
      <trkpt lat="42.25345" lon="1.76334">
        <ele>1398</ele>
        <time>2010-01-01T01:25:19Z</time>
      </trkpt>
      <trkpt lat="42.25328" lon="1.76306">
        <ele>1400</ele>
        <time>2010-01-01T01:25:30Z</time>
      </trkpt>
      <trkpt lat="42.25309" lon="1.76306">
        <ele>1392</ele>
        <time>2010-01-01T01:25:38Z</time>
      </trkpt>
      <trkpt lat="42.25306" lon="1.76308">
        <ele>1390</ele>
        <time>2010-01-01T01:25:39Z</time>
      </trkpt>
      <trkpt lat="42.25298" lon="1.76304">
        <ele>1388</ele>
        <time>2010-01-01T01:25:43Z</time>
      </trkpt>
      <trkpt lat="42.25282" lon="1.76288">
        <ele>1390</ele>
        <time>2010-01-01T01:25:50Z</time>
      </trkpt>
      <trkpt lat="42.25262" lon="1.76284">
        <ele>1384</ele>
        <time>2010-01-01T01:25:59Z</time>
      </trkpt>
      <trkpt lat="42.25258" lon="1.76281">
        <ele>1384</ele>
        <time>2010-01-01T01:26:00Z</time>
      </trkpt>
      <trkpt lat="42.25252" lon="1.76268">
        <ele>1387</ele>
        <time>2010-01-01T01:26:05Z</time>
      </trkpt>
      <trkpt lat="42.25252" lon="1.76265">
        <ele>1388</ele>
        <time>2010-01-01T01:26:06Z</time>
      </trkpt>
      <trkpt lat="42.25244" lon="1.76256">
        <ele>1389</ele>
        <time>2010-01-01T01:26:10Z</time>
      </trkpt>
      <trkpt lat="42.25231" lon="1.76252">
        <ele>1384</ele>
        <time>2010-01-01T01:26:16Z</time>
      </trkpt>
      <trkpt lat="42.25227" lon="1.76249">
        <ele>1383</ele>
        <time>2010-01-01T01:26:17Z</time>
      </trkpt>
      <trkpt lat="42.2522" lon="1.7625">
        <ele>1379</ele>
        <time>2010-01-01T01:26:20Z</time>
      </trkpt>
      <trkpt lat="42.25212" lon="1.76248">
        <ele>1376</ele>
        <time>2010-01-01T01:26:23Z</time>
      </trkpt>
      <trkpt lat="42.2521" lon="1.7624">
        <ele>1378</ele>
        <time>2010-01-01T01:26:26Z</time>
      </trkpt>
      <trkpt lat="42.25203" lon="1.76223">
        <ele>1382</ele>
        <time>2010-01-01T01:26:32Z</time>
      </trkpt>
      <trkpt lat="42.2519" lon="1.762">
        <ele>1382</ele>
        <time>2010-01-01T01:26:40Z</time>
      </trkpt>
      <trkpt lat="42.25172" lon="1.76141">
        <ele>1384</ele>
        <time>2010-01-01T01:26:59Z</time>
      </trkpt>
      <trkpt lat="42.25166" lon="1.76112">
        <ele>1383</ele>
        <time>2010-01-01T01:27:08Z</time>
      </trkpt>
      <trkpt lat="42.25147" lon="1.76058">
        <ele>1379</ele>
        <time>2010-01-01T01:27:26Z</time>
      </trkpt>
      <trkpt lat="42.25143" lon="1.76053">
        <ele>1378</ele>
        <time>2010-01-01T01:27:28Z</time>
      </trkpt>
      <trkpt lat="42.25148" lon="1.76054">
        <ele>1380</ele>
        <time>2010-01-01T01:27:30Z</time>
      </trkpt>
      <trkpt lat="42.25152" lon="1.76063">
        <ele>1381</ele>
        <time>2010-01-01T01:27:33Z</time>
      </trkpt>
      <trkpt lat="42.25145" lon="1.76057">
        <ele>1379</ele>
        <time>2010-01-01T01:27:37Z</time>
      </trkpt>
      <trkpt lat="42.25141" lon="1.76049">
        <ele>1378</ele>
        <time>2010-01-01T01:27:39Z</time>
      </trkpt>
      <trkpt lat="42.25134" lon="1.76045">
        <ele>1376</ele>
        <time>2010-01-01T01:27:42Z</time>
      </trkpt>
      <trkpt lat="42.25137" lon="1.76043">
        <ele>1377</ele>
        <time>2010-01-01T01:27:44Z</time>
      </trkpt>
      <trkpt lat="42.25143" lon="1.76032">
        <ele>1377</ele>
        <time>2010-01-01T01:27:48Z</time>
      </trkpt>
      <trkpt lat="42.25147" lon="1.76013">
        <ele>1375</ele>
        <time>2010-01-01T01:27:54Z</time>
      </trkpt>
      <trkpt lat="42.25154" lon="1.75998">
        <ele>1374</ele>
        <time>2010-01-01T01:27:59Z</time>
      </trkpt>
      <trkpt lat="42.2516" lon="1.75975">
        <ele>1368</ele>
        <time>2010-01-01T01:28:06Z</time>
      </trkpt>
      <trkpt lat="42.25167" lon="1.75957">
        <ele>1364</ele>
        <time>2010-01-01T01:28:12Z</time>
      </trkpt>
      <trkpt lat="42.25191" lon="1.75918">
        <ele>1356</ele>
        <time>2010-01-01T01:28:27Z</time>
      </trkpt>
      <trkpt lat="42.25203" lon="1.75917">
        <ele>1357</ele>
        <time>2010-01-01T01:28:32Z</time>
      </trkpt>
      <trkpt lat="42.25215" lon="1.75924">
        <ele>1360</ele>
        <time>2010-01-01T01:28:37Z</time>
      </trkpt>
      <trkpt lat="42.2523" lon="1.7593">
        <ele>1363</ele>
        <time>2010-01-01T01:28:43Z</time>
      </trkpt>
      <trkpt lat="42.25246" lon="1.75935">
        <ele>1366</ele>
        <time>2010-01-01T01:28:50Z</time>
      </trkpt>
      <trkpt lat="42.25256" lon="1.75934">
        <ele>1364</ele>
        <time>2010-01-01T01:28:54Z</time>
      </trkpt>
      <trkpt lat="42.25266" lon="1.75935">
        <ele>1361</ele>
        <time>2010-01-01T01:28:58Z</time>
      </trkpt>
      <trkpt lat="42.25281" lon="1.75934">
        <ele>1356</ele>
        <time>2010-01-01T01:29:04Z</time>
      </trkpt>
      <trkpt lat="42.25293" lon="1.75929">
        <ele>1348</ele>
        <time>2010-01-01T01:29:09Z</time>
      </trkpt>
      <trkpt lat="42.25308" lon="1.75917">
        <ele>1337</ele>
        <time>2010-01-01T01:29:16Z</time>
      </trkpt>
      <trkpt lat="42.2534" lon="1.75936">
        <ele>1348</ele>
        <time>2010-01-01T01:29:30Z</time>
      </trkpt>
      <trkpt lat="42.25352" lon="1.75931">
        <ele>1349</ele>
        <time>2010-01-01T01:29:35Z</time>
      </trkpt>
      <trkpt lat="42.25362" lon="1.7591">
        <ele>1346</ele>
        <time>2010-01-01T01:29:43Z</time>
      </trkpt>
      <trkpt lat="42.25368" lon="1.7589">
        <ele>1338</ele>
        <time>2010-01-01T01:29:49Z</time>
      </trkpt>
      <trkpt lat="42.25378" lon="1.75878">
        <ele>1335</ele>
        <time>2010-01-01T01:29:54Z</time>
      </trkpt>
      <trkpt lat="42.25387" lon="1.75874">
        <ele>1334</ele>
        <time>2010-01-01T01:29:58Z</time>
      </trkpt>
      <trkpt lat="42.25402" lon="1.75862">
        <ele>1332</ele>
        <time>2010-01-01T01:30:05Z</time>
      </trkpt>
      <trkpt lat="42.25428" lon="1.75872">
        <ele>1340</ele>
        <time>2010-01-01T01:30:16Z</time>
      </trkpt>
      <trkpt lat="42.25433" lon="1.7586">
        <ele>1334</ele>
        <time>2010-01-01T01:30:20Z</time>
      </trkpt>
      <trkpt lat="42.25439" lon="1.75855">
        <ele>1333</ele>
        <time>2010-01-01T01:30:23Z</time>
      </trkpt>
      <trkpt lat="42.25452" lon="1.75851">
        <ele>1332</ele>
        <time>2010-01-01T01:30:28Z</time>
      </trkpt>
      <trkpt lat="42.25461" lon="1.75838">
        <ele>1327</ele>
        <time>2010-01-01T01:30:34Z</time>
      </trkpt>
      <trkpt lat="42.25493" lon="1.75844">
        <ele>1329</ele>
        <time>2010-01-01T01:30:47Z</time>
      </trkpt>
      <trkpt lat="42.25515" lon="1.75851">
        <ele>1329</ele>
        <time>2010-01-01T01:30:56Z</time>
      </trkpt>
      <trkpt lat="42.25533" lon="1.75851">
        <ele>1326</ele>
        <time>2010-01-01T01:31:03Z</time>
      </trkpt>
      <trkpt lat="42.25537" lon="1.75849">
        <ele>1325</ele>
        <time>2010-01-01T01:31:04Z</time>
      </trkpt>
      <trkpt lat="42.25544" lon="1.75853">
        <ele>1326</ele>
        <time>2010-01-01T01:31:07Z</time>
      </trkpt>
      <trkpt lat="42.25565" lon="1.75831">
        <ele>1318</ele>
        <time>2010-01-01T01:31:18Z</time>
      </trkpt>
      <trkpt lat="42.25571" lon="1.75821">
        <ele>1315</ele>
        <time>2010-01-01T01:31:22Z</time>
      </trkpt>
      <trkpt lat="42.2558" lon="1.75813">
        <ele>1314</ele>
        <time>2010-01-01T01:31:26Z</time>
      </trkpt>
      <trkpt lat="42.25589" lon="1.75808">
        <ele>1317</ele>
        <time>2010-01-01T01:31:30Z</time>
      </trkpt>
      <trkpt lat="42.25593" lon="1.75802">
        <ele>1317</ele>
        <time>2010-01-01T01:31:33Z</time>
      </trkpt>
      <trkpt lat="42.25607" lon="1.75758">
        <ele>1306</ele>
        <time>2010-01-01T01:31:47Z</time>
      </trkpt>
      <trkpt lat="42.2561" lon="1.75744">
        <ele>1302</ele>
        <time>2010-01-01T01:31:51Z</time>
      </trkpt>
      <trkpt lat="42.25606" lon="1.75727">
        <ele>1302</ele>
        <time>2010-01-01T01:31:56Z</time>
      </trkpt>
      <trkpt lat="42.25605" lon="1.75716">
        <ele>1298</ele>
        <time>2010-01-01T01:32:00Z</time>
      </trkpt>
      <trkpt lat="42.25606" lon="1.75711">
        <ele>1296</ele>
        <time>2010-01-01T01:32:01Z</time>
      </trkpt>
      <trkpt lat="42.25603" lon="1.75694">
        <ele>1286</ele>
        <time>2010-01-01T01:32:06Z</time>
      </trkpt>
      <trkpt lat="42.25606" lon="1.7567">
        <ele>1284</ele>
        <time>2010-01-01T01:32:14Z</time>
      </trkpt>
      <trkpt lat="42.25606" lon="1.75656">
        <ele>1291</ele>
        <time>2010-01-01T01:32:18Z</time>
      </trkpt>
      <trkpt lat="42.25606" lon="1.75653">
        <ele>1294</ele>
        <time>2010-01-01T01:32:19Z</time>
      </trkpt>
      <trkpt lat="42.25611" lon="1.75653">
        <ele>1296</ele>
        <time>2010-01-01T01:32:21Z</time>
      </trkpt>
      <trkpt lat="42.25616" lon="1.75644">
        <ele>1306</ele>
        <time>2010-01-01T01:32:24Z</time>
      </trkpt>
      <trkpt lat="42.25618" lon="1.75645">
        <ele>1306</ele>
        <time>2010-01-01T01:32:25Z</time>
      </trkpt>
      <trkpt lat="42.2562" lon="1.75637">
        <ele>1310</ele>
        <time>2010-01-01T01:32:28Z</time>
      </trkpt>
      <trkpt lat="42.25624" lon="1.75611">
        <ele>1308</ele>
        <time>2010-01-01T01:32:35Z</time>
      </trkpt>
      <trkpt lat="42.25624" lon="1.75596">
        <ele>1307</ele>
        <time>2010-01-01T01:32:40Z</time>
      </trkpt>
      <trkpt lat="42.25627" lon="1.75587">
        <ele>1309</ele>
        <time>2010-01-01T01:32:43Z</time>
      </trkpt>
      <trkpt lat="42.25624" lon="1.75573">
        <ele>1306</ele>
        <time>2010-01-01T01:32:47Z</time>
      </trkpt>
      <trkpt lat="42.25624" lon="1.75558">
        <ele>1306</ele>
        <time>2010-01-01T01:32:51Z</time>
      </trkpt>
      <trkpt lat="42.25625" lon="1.75549">
        <ele>1308</ele>
        <time>2010-01-01T01:32:54Z</time>
      </trkpt>
      <trkpt lat="42.25627" lon="1.75546">
        <ele>1310</ele>
        <time>2010-01-01T01:32:55Z</time>
      </trkpt>
      <trkpt lat="42.25621" lon="1.75534">
        <ele>1306</ele>
        <time>2010-01-01T01:33:00Z</time>
      </trkpt>
      <trkpt lat="42.25619" lon="1.75518">
        <ele>1307</ele>
        <time>2010-01-01T01:33:04Z</time>
      </trkpt>
      <trkpt lat="42.25614" lon="1.75502">
        <ele>1306</ele>
        <time>2010-01-01T01:33:10Z</time>
      </trkpt>
      <trkpt lat="42.25615" lon="1.75511">
        <ele>1305</ele>
        <time>2010-01-01T01:33:12Z</time>
      </trkpt>
      <trkpt lat="42.25612" lon="1.75515">
        <ele>1302</ele>
        <time>2010-01-01T01:33:14Z</time>
      </trkpt>
      <trkpt lat="42.25606" lon="1.7551">
        <ele>1298</ele>
        <time>2010-01-01T01:33:17Z</time>
      </trkpt>
      <trkpt lat="42.25598" lon="1.75491">
        <ele>1297</ele>
        <time>2010-01-01T01:33:23Z</time>
      </trkpt>
      <trkpt lat="42.25587" lon="1.75485">
        <ele>1289</ele>
        <time>2010-01-01T01:33:28Z</time>
      </trkpt>
      <trkpt lat="42.2559" lon="1.75472">
        <ele>1295</ele>
        <time>2010-01-01T01:33:32Z</time>
      </trkpt>
      <trkpt lat="42.25589" lon="1.75468">
        <ele>1294</ele>
        <time>2010-01-01T01:33:33Z</time>
      </trkpt>
      <trkpt lat="42.25585" lon="1.75462">
        <ele>1290</ele>
        <time>2010-01-01T01:33:36Z</time>
      </trkpt>
      <trkpt lat="42.25576" lon="1.75428">
        <ele>1280</ele>
        <time>2010-01-01T01:33:46Z</time>
      </trkpt>
      <trkpt lat="42.2556" lon="1.75403">
        <ele>1269</ele>
        <time>2010-01-01T01:33:56Z</time>
      </trkpt>
      <trkpt lat="42.25558" lon="1.75393">
        <ele>1268</ele>
        <time>2010-01-01T01:34:00Z</time>
      </trkpt>
      <trkpt lat="42.25558" lon="1.7539">
        <ele>1268</ele>
        <time>2010-01-01T01:34:00Z</time>
      </trkpt>
      <trkpt lat="42.25565" lon="1.75383">
        <ele>1273</ele>
        <time>2010-01-01T01:34:04Z</time>
      </trkpt>
      <trkpt lat="42.25567" lon="1.75369">
        <ele>1275</ele>
        <time>2010-01-01T01:34:08Z</time>
      </trkpt>
      <trkpt lat="42.25576" lon="1.75353">
        <ele>1285</ele>
        <time>2010-01-01T01:34:14Z</time>
      </trkpt>
      <trkpt lat="42.25576" lon="1.75344">
        <ele>1287</ele>
        <time>2010-01-01T01:34:17Z</time>
      </trkpt>
      <trkpt lat="42.25574" lon="1.75305">
        <ele>1292</ele>
        <time>2010-01-01T01:34:28Z</time>
      </trkpt>
      <trkpt lat="42.25558" lon="1.75257">
        <ele>1286</ele>
        <time>2010-01-01T01:34:44Z</time>
      </trkpt>
      <trkpt lat="42.25553" lon="1.75247">
        <ele>1283</ele>
        <time>2010-01-01T01:34:47Z</time>
      </trkpt>
      <trkpt lat="42.25541" lon="1.75236">
        <ele>1281</ele>
        <time>2010-01-01T01:34:53Z</time>
      </trkpt>
      <trkpt lat="42.25529" lon="1.75239">
        <ele>1277</ele>
        <time>2010-01-01T01:34:58Z</time>
      </trkpt>
      <trkpt lat="42.25514" lon="1.75212">
        <ele>1277</ele>
        <time>2010-01-01T01:35:08Z</time>
      </trkpt>
      <trkpt lat="42.25507" lon="1.75196">
        <ele>1277</ele>
        <time>2010-01-01T01:35:14Z</time>
      </trkpt>
      <trkpt lat="42.25504" lon="1.75182">
        <ele>1280</ele>
        <time>2010-01-01T01:35:18Z</time>
      </trkpt>
      <trkpt lat="42.25496" lon="1.75163">
        <ele>1281</ele>
        <time>2010-01-01T01:35:24Z</time>
      </trkpt>
      <trkpt lat="42.25483" lon="1.75145">
        <ele>1277</ele>
        <time>2010-01-01T01:35:32Z</time>
      </trkpt>
      <trkpt lat="42.25467" lon="1.75128">
        <ele>1269</ele>
        <time>2010-01-01T01:35:40Z</time>
      </trkpt>
      <trkpt lat="42.25456" lon="1.75114">
        <ele>1263</ele>
        <time>2010-01-01T01:35:46Z</time>
      </trkpt>
      <trkpt lat="42.25461" lon="1.75074">
        <ele>1266</ele>
        <time>2010-01-01T01:35:58Z</time>
      </trkpt>
      <trkpt lat="42.25467" lon="1.75058">
        <ele>1268</ele>
        <time>2010-01-01T01:36:03Z</time>
      </trkpt>
      <trkpt lat="42.25476" lon="1.75044">
        <ele>1269</ele>
        <time>2010-01-01T01:36:09Z</time>
      </trkpt>
      <trkpt lat="42.25494" lon="1.75029">
        <ele>1272</ele>
        <time>2010-01-01T01:36:17Z</time>
      </trkpt>
      <trkpt lat="42.2551" lon="1.75026">
        <ele>1276</ele>
        <time>2010-01-01T01:36:24Z</time>
      </trkpt>
      <trkpt lat="42.25517" lon="1.75021">
        <ele>1276</ele>
        <time>2010-01-01T01:36:27Z</time>
      </trkpt>
      <trkpt lat="42.25522" lon="1.75009">
        <ele>1273</ele>
        <time>2010-01-01T01:36:31Z</time>
      </trkpt>
      <trkpt lat="42.25544" lon="1.74991">
        <ele>1272</ele>
        <time>2010-01-01T01:36:41Z</time>
      </trkpt>
      <trkpt lat="42.25552" lon="1.74979">
        <ele>1269</ele>
        <time>2010-01-01T01:36:46Z</time>
      </trkpt>
      <trkpt lat="42.25555" lon="1.74957">
        <ele>1264</ele>
        <time>2010-01-01T01:36:53Z</time>
      </trkpt>
      <trkpt lat="42.25559" lon="1.74936">
        <ele>1263</ele>
        <time>2010-01-01T01:36:59Z</time>
      </trkpt>
      <trkpt lat="42.2557" lon="1.74925">
        <ele>1269</ele>
        <time>2010-01-01T01:37:04Z</time>
      </trkpt>
      <trkpt lat="42.25573" lon="1.74913">
        <ele>1271</ele>
        <time>2010-01-01T01:37:08Z</time>
      </trkpt>
      <trkpt lat="42.25573" lon="1.74902">
        <ele>1270</ele>
        <time>2010-01-01T01:37:12Z</time>
      </trkpt>
      <trkpt lat="42.2556" lon="1.74858">
        <ele>1269</ele>
        <time>2010-01-01T01:37:26Z</time>
      </trkpt>
      <trkpt lat="42.25561" lon="1.74836">
        <ele>1276</ele>
        <time>2010-01-01T01:37:32Z</time>
      </trkpt>
      <trkpt lat="42.25563" lon="1.74829">
        <ele>1278</ele>
        <time>2010-01-01T01:37:34Z</time>
      </trkpt>
      <trkpt lat="42.25561" lon="1.74812">
        <ele>1283</ele>
        <time>2010-01-01T01:37:39Z</time>
      </trkpt>
      <trkpt lat="42.25553" lon="1.74787">
        <ele>1282</ele>
        <time>2010-01-01T01:37:47Z</time>
      </trkpt>
      <trkpt lat="42.25541" lon="1.74773">
        <ele>1277</ele>
        <time>2010-01-01T01:37:54Z</time>
      </trkpt>
      <trkpt lat="42.25532" lon="1.74765">
        <ele>1274</ele>
        <time>2010-01-01T01:37:58Z</time>
      </trkpt>
      <trkpt lat="42.25526" lon="1.74752">
        <ele>1275</ele>
        <time>2010-01-01T01:38:02Z</time>
      </trkpt>
      <trkpt lat="42.25514" lon="1.74741">
        <ele>1272</ele>
        <time>2010-01-01T01:38:08Z</time>
      </trkpt>
      <trkpt lat="42.25497" lon="1.74714">
        <ele>1269</ele>
        <time>2010-01-01T01:38:19Z</time>
      </trkpt>
      <trkpt lat="42.25492" lon="1.74694">
        <ele>1271</ele>
        <time>2010-01-01T01:38:25Z</time>
      </trkpt>
      <trkpt lat="42.25491" lon="1.74681">
        <ele>1270</ele>
        <time>2010-01-01T01:38:29Z</time>
      </trkpt>
      <trkpt lat="42.25494" lon="1.74666">
        <ele>1271</ele>
        <time>2010-01-01T01:38:33Z</time>
      </trkpt>
      <trkpt lat="42.25499" lon="1.74655">
        <ele>1271</ele>
        <time>2010-01-01T01:38:37Z</time>
      </trkpt>
      <trkpt lat="42.25524" lon="1.74617">
        <ele>1280</ele>
        <time>2010-01-01T01:38:52Z</time>
      </trkpt>
      <trkpt lat="42.25527" lon="1.74602">
        <ele>1282</ele>
        <time>2010-01-01T01:38:57Z</time>
      </trkpt>
      <trkpt lat="42.25523" lon="1.74561">
        <ele>1271</ele>
        <time>2010-01-01T01:39:09Z</time>
      </trkpt>
      <trkpt lat="42.25528" lon="1.74552">
        <ele>1272</ele>
        <time>2010-01-01T01:39:12Z</time>
      </trkpt>
      <trkpt lat="42.25541" lon="1.74542">
        <ele>1283</ele>
        <time>2010-01-01T01:39:19Z</time>
      </trkpt>
      <trkpt lat="42.25544" lon="1.74511">
        <ele>1283</ele>
        <time>2010-01-01T01:39:28Z</time>
      </trkpt>
      <trkpt lat="42.25547" lon="1.74496">
        <ele>1285</ele>
        <time>2010-01-01T01:39:33Z</time>
      </trkpt>
      <trkpt lat="42.25546" lon="1.74465">
        <ele>1284</ele>
        <time>2010-01-01T01:39:42Z</time>
      </trkpt>
      <trkpt lat="42.25549" lon="1.7445">
        <ele>1287</ele>
        <time>2010-01-01T01:39:46Z</time>
      </trkpt>
      <trkpt lat="42.25545" lon="1.74434">
        <ele>1286</ele>
        <time>2010-01-01T01:39:51Z</time>
      </trkpt>
      <trkpt lat="42.25538" lon="1.74421">
        <ele>1285</ele>
        <time>2010-01-01T01:39:56Z</time>
      </trkpt>
      <trkpt lat="42.25534" lon="1.74401">
        <ele>1285</ele>
        <time>2010-01-01T01:40:02Z</time>
      </trkpt>
      <trkpt lat="42.25542" lon="1.74369">
        <ele>1292</ele>
        <time>2010-01-01T01:40:12Z</time>
      </trkpt>
      <trkpt lat="42.25542" lon="1.74353">
        <ele>1292</ele>
        <time>2010-01-01T01:40:17Z</time>
      </trkpt>
      <trkpt lat="42.25536" lon="1.74339">
        <ele>1285</ele>
        <time>2010-01-01T01:40:22Z</time>
      </trkpt>
      <trkpt lat="42.25536" lon="1.74326">
        <ele>1287</ele>
        <time>2010-01-01T01:40:26Z</time>
      </trkpt>
      <trkpt lat="42.25539" lon="1.74323">
        <ele>1290</ele>
        <time>2010-01-01T01:40:27Z</time>
      </trkpt>
      <trkpt lat="42.25539" lon="1.74308">
        <ele>1295</ele>
        <time>2010-01-01T01:40:31Z</time>
      </trkpt>
      <trkpt lat="42.25534" lon="1.74293">
        <ele>1294</ele>
        <time>2010-01-01T01:40:36Z</time>
      </trkpt>
      <trkpt lat="42.25529" lon="1.74282">
        <ele>1294</ele>
        <time>2010-01-01T01:40:40Z</time>
      </trkpt>
      <trkpt lat="42.25524" lon="1.74278">
        <ele>1292</ele>
        <time>2010-01-01T01:40:42Z</time>
      </trkpt>
      <trkpt lat="42.25517" lon="1.74249">
        <ele>1286</ele>
        <time>2010-01-01T01:40:51Z</time>
      </trkpt>
      <trkpt lat="42.25522" lon="1.74237">
        <ele>1289</ele>
        <time>2010-01-01T01:40:55Z</time>
      </trkpt>
      <trkpt lat="42.25524" lon="1.74221">
        <ele>1290</ele>
        <time>2010-01-01T01:41:00Z</time>
      </trkpt>
      <trkpt lat="42.25524" lon="1.74168">
        <ele>1300</ele>
        <time>2010-01-01T01:41:16Z</time>
      </trkpt>
      <trkpt lat="42.25521" lon="1.74149">
        <ele>1300</ele>
        <time>2010-01-01T01:41:22Z</time>
      </trkpt>
      <trkpt lat="42.25513" lon="1.74131">
        <ele>1298</ele>
        <time>2010-01-01T01:41:28Z</time>
      </trkpt>
      <trkpt lat="42.25499" lon="1.74115">
        <ele>1296</ele>
        <time>2010-01-01T01:41:35Z</time>
      </trkpt>
      <trkpt lat="42.25479" lon="1.74102">
        <ele>1288</ele>
        <time>2010-01-01T01:41:44Z</time>
      </trkpt>
      <trkpt lat="42.25465" lon="1.74096">
        <ele>1282</ele>
        <time>2010-01-01T01:41:50Z</time>
      </trkpt>
      <trkpt lat="42.2546" lon="1.74097">
        <ele>1280</ele>
        <time>2010-01-01T01:41:52Z</time>
      </trkpt>
      <trkpt lat="42.25452" lon="1.74094">
        <ele>1276</ele>
        <time>2010-01-01T01:41:55Z</time>
      </trkpt>
      <trkpt lat="42.25451" lon="1.74093">
        <ele>1276</ele>
        <time>2010-01-01T01:41:56Z</time>
      </trkpt>
      <trkpt lat="42.25454" lon="1.74094">
        <ele>1277</ele>
        <time>2010-01-01T01:41:57Z</time>
      </trkpt>
      <trkpt lat="42.25451" lon="1.74086">
        <ele>1277</ele>
        <time>2010-01-01T01:42:00Z</time>
      </trkpt>
      <trkpt lat="42.25443" lon="1.74072">
        <ele>1273</ele>
        <time>2010-01-01T01:42:05Z</time>
      </trkpt>
      <trkpt lat="42.25447" lon="1.74052">
        <ele>1276</ele>
        <time>2010-01-01T01:42:11Z</time>
      </trkpt>
      <trkpt lat="42.25448" lon="1.74029">
        <ele>1277</ele>
        <time>2010-01-01T01:42:18Z</time>
      </trkpt>
      <trkpt lat="42.25444" lon="1.74016">
        <ele>1275</ele>
        <time>2010-01-01T01:42:22Z</time>
      </trkpt>
      <trkpt lat="42.25446" lon="1.74013">
        <ele>1276</ele>
        <time>2010-01-01T01:42:23Z</time>
      </trkpt>
      <trkpt lat="42.25452" lon="1.74011">
        <ele>1279</ele>
        <time>2010-01-01T01:42:26Z</time>
      </trkpt>
      <trkpt lat="42.25459" lon="1.74005">
        <ele>1283</ele>
        <time>2010-01-01T01:42:29Z</time>
      </trkpt>
      <trkpt lat="42.25462" lon="1.73985">
        <ele>1286</ele>
        <time>2010-01-01T01:42:35Z</time>
      </trkpt>
      <trkpt lat="42.25461" lon="1.73977">
        <ele>1285</ele>
        <time>2010-01-01T01:42:38Z</time>
      </trkpt>
      <trkpt lat="42.25451" lon="1.73968">
        <ele>1280</ele>
        <time>2010-01-01T01:42:42Z</time>
      </trkpt>
      <trkpt lat="42.25445" lon="1.73955">
        <ele>1281</ele>
        <time>2010-01-01T01:42:47Z</time>
      </trkpt>
      <trkpt lat="42.25438" lon="1.73946">
        <ele>1280</ele>
        <time>2010-01-01T01:42:51Z</time>
      </trkpt>
      <trkpt lat="42.25436" lon="1.73947">
        <ele>1279</ele>
        <time>2010-01-01T01:42:52Z</time>
      </trkpt>
      <trkpt lat="42.25431" lon="1.73932">
        <ele>1282</ele>
        <time>2010-01-01T01:42:57Z</time>
      </trkpt>
      <trkpt lat="42.25425" lon="1.73924">
        <ele>1282</ele>
        <time>2010-01-01T01:43:00Z</time>
      </trkpt>
      <trkpt lat="42.25418" lon="1.73919">
        <ele>1280</ele>
        <time>2010-01-01T01:43:03Z</time>
      </trkpt>
      <trkpt lat="42.25409" lon="1.73934">
        <ele>1272</ele>
        <time>2010-01-01T01:43:09Z</time>
      </trkpt>
      <trkpt lat="42.25397" lon="1.73928">
        <ele>1271</ele>
        <time>2010-01-01T01:43:14Z</time>
      </trkpt>
      <trkpt lat="42.25377" lon="1.73913">
        <ele>1274</ele>
        <time>2010-01-01T01:43:23Z</time>
      </trkpt>
      <trkpt lat="42.25364" lon="1.73907">
        <ele>1275</ele>
        <time>2010-01-01T01:43:29Z</time>
      </trkpt>
      <trkpt lat="42.25346" lon="1.73895">
        <ele>1277</ele>
        <time>2010-01-01T01:43:37Z</time>
      </trkpt>
      <trkpt lat="42.25336" lon="1.73884">
        <ele>1281</ele>
        <time>2010-01-01T01:43:42Z</time>
      </trkpt>
      <trkpt lat="42.25317" lon="1.73857">
        <ele>1285</ele>
        <time>2010-01-01T01:43:53Z</time>
      </trkpt>
      <trkpt lat="42.25316" lon="1.7386">
        <ele>1284</ele>
        <time>2010-01-01T01:43:54Z</time>
      </trkpt>
      <trkpt lat="42.25296" lon="1.73841">
        <ele>1281</ele>
        <time>2010-01-01T01:44:03Z</time>
      </trkpt>
      <trkpt lat="42.2529" lon="1.73837">
        <ele>1280</ele>
        <time>2010-01-01T01:44:06Z</time>
      </trkpt>
      <trkpt lat="42.25287" lon="1.73839">
        <ele>1279</ele>
        <time>2010-01-01T01:44:08Z</time>
      </trkpt>
      <trkpt lat="42.2528" lon="1.73839">
        <ele>1277</ele>
        <time>2010-01-01T01:44:10Z</time>
      </trkpt>
      <trkpt lat="42.25287" lon="1.73798">
        <ele>1280</ele>
        <time>2010-01-01T01:44:23Z</time>
      </trkpt>
      <trkpt lat="42.25287" lon="1.73768">
        <ele>1279</ele>
        <time>2010-01-01T01:44:31Z</time>
      </trkpt>
      <trkpt lat="42.2529" lon="1.73756">
        <ele>1281</ele>
        <time>2010-01-01T01:44:35Z</time>
      </trkpt>
      <trkpt lat="42.25287" lon="1.73735">
        <ele>1280</ele>
        <time>2010-01-01T01:44:42Z</time>
      </trkpt>
      <trkpt lat="42.25282" lon="1.73715">
        <ele>1276</ele>
        <time>2010-01-01T01:44:48Z</time>
      </trkpt>
      <trkpt lat="42.25278" lon="1.73706">
        <ele>1272</ele>
        <time>2010-01-01T01:44:51Z</time>
      </trkpt>
      <trkpt lat="42.25274" lon="1.73709">
        <ele>1270</ele>
        <time>2010-01-01T01:44:53Z</time>
      </trkpt>
      <trkpt lat="42.25271" lon="1.73707">
        <ele>1268</ele>
        <time>2010-01-01T01:44:54Z</time>
      </trkpt>
      <trkpt lat="42.25267" lon="1.73694">
        <ele>1263</ele>
        <time>2010-01-01T01:44:58Z</time>
      </trkpt>
      <trkpt lat="42.25265" lon="1.73678">
        <ele>1261</ele>
        <time>2010-01-01T01:45:03Z</time>
      </trkpt>
      <trkpt lat="42.25264" lon="1.73674">
        <ele>1260</ele>
        <time>2010-01-01T01:45:04Z</time>
      </trkpt>
      <trkpt lat="42.25263" lon="1.73649">
        <ele>1258</ele>
        <time>2010-01-01T01:45:12Z</time>
      </trkpt>
      <trkpt lat="42.25253" lon="1.73651">
        <ele>1255</ele>
        <time>2010-01-01T01:45:16Z</time>
      </trkpt>
      <trkpt lat="42.25265" lon="1.73648">
        <ele>1259</ele>
        <time>2010-01-01T01:45:21Z</time>
      </trkpt>
      <trkpt lat="42.25266" lon="1.73643">
        <ele>1259</ele>
        <time>2010-01-01T01:45:22Z</time>
      </trkpt>
      <trkpt lat="42.25243" lon="1.73637">
        <ele>1251</ele>
        <time>2010-01-01T01:45:31Z</time>
      </trkpt>
      <trkpt lat="42.25229" lon="1.73622">
        <ele>1244</ele>
        <time>2010-01-01T01:45:39Z</time>
      </trkpt>
      <trkpt lat="42.25221" lon="1.73612">
        <ele>1240</ele>
        <time>2010-01-01T01:45:43Z</time>
      </trkpt>
      <trkpt lat="42.25216" lon="1.73599">
        <ele>1235</ele>
        <time>2010-01-01T01:45:47Z</time>
      </trkpt>
      <trkpt lat="42.25207" lon="1.73596">
        <ele>1231</ele>
        <time>2010-01-01T01:45:51Z</time>
      </trkpt>
      <trkpt lat="42.25201" lon="1.73578">
        <ele>1227</ele>
        <time>2010-01-01T01:45:57Z</time>
      </trkpt>
      <trkpt lat="42.25195" lon="1.73568">
        <ele>1223</ele>
        <time>2010-01-01T01:46:01Z</time>
      </trkpt>
      <trkpt lat="42.25193" lon="1.7356">
        <ele>1220</ele>
        <time>2010-01-01T01:46:03Z</time>
      </trkpt>
      <trkpt lat="42.25184" lon="1.73563">
        <ele>1216</ele>
        <time>2010-01-01T01:46:07Z</time>
      </trkpt>
      <trkpt lat="42.25176" lon="1.73568">
        <ele>1213</ele>
        <time>2010-01-01T01:46:11Z</time>
      </trkpt>
      <trkpt lat="42.25172" lon="1.73565">
        <ele>1211</ele>
        <time>2010-01-01T01:46:12Z</time>
      </trkpt>
      <trkpt lat="42.25166" lon="1.73566">
        <ele>1208</ele>
        <time>2010-01-01T01:46:15Z</time>
      </trkpt>
      <trkpt lat="42.25161" lon="1.73561">
        <ele>1204</ele>
        <time>2010-01-01T01:46:17Z</time>
      </trkpt>
      <trkpt lat="42.25153" lon="1.7356">
        <ele>1200</ele>
        <time>2010-01-01T01:46:20Z</time>
      </trkpt>
      <trkpt lat="42.25142" lon="1.73551">
        <ele>1193</ele>
        <time>2010-01-01T01:46:26Z</time>
      </trkpt>
      <trkpt lat="42.25139" lon="1.73556">
        <ele>1192</ele>
        <time>2010-01-01T01:46:27Z</time>
      </trkpt>
      <trkpt lat="42.25137" lon="1.73546">
        <ele>1190</ele>
        <time>2010-01-01T01:46:30Z</time>
      </trkpt>
      <trkpt lat="42.25134" lon="1.73544">
        <ele>1188</ele>
        <time>2010-01-01T01:46:32Z</time>
      </trkpt>
      <trkpt lat="42.25124" lon="1.73557">
        <ele>1183</ele>
        <time>2010-01-01T01:46:37Z</time>
      </trkpt>
      <trkpt lat="42.25118" lon="1.73538">
        <ele>1180</ele>
        <time>2010-01-01T01:46:43Z</time>
      </trkpt>
      <trkpt lat="42.25119" lon="1.73539">
        <ele>1180</ele>
        <time>2010-01-01T01:46:44Z</time>
      </trkpt>
      <trkpt lat="42.25113" lon="1.73542">
        <ele>1177</ele>
        <time>2010-01-01T01:46:46Z</time>
      </trkpt>
      <trkpt lat="42.25107" lon="1.7354">
        <ele>1174</ele>
        <time>2010-01-01T01:46:49Z</time>
      </trkpt>
      <trkpt lat="42.25099" lon="1.73525">
        <ele>1170</ele>
        <time>2010-01-01T01:46:54Z</time>
      </trkpt>
      <trkpt lat="42.25095" lon="1.73521">
        <ele>1166</ele>
        <time>2010-01-01T01:46:56Z</time>
      </trkpt>
      <trkpt lat="42.2509" lon="1.73525">
        <ele>1165</ele>
        <time>2010-01-01T01:46:59Z</time>
      </trkpt>
      <trkpt lat="42.25087" lon="1.73514">
        <ele>1161</ele>
        <time>2010-01-01T01:47:03Z</time>
      </trkpt>
      <trkpt lat="42.25078" lon="1.73518">
        <ele>1157</ele>
        <time>2010-01-01T01:47:06Z</time>
      </trkpt>
      <trkpt lat="42.25074" lon="1.73509">
        <ele>1153</ele>
        <time>2010-01-01T01:47:09Z</time>
      </trkpt>
      <trkpt lat="42.25072" lon="1.73517">
        <ele>1153</ele>
        <time>2010-01-01T01:47:12Z</time>
      </trkpt>
      <trkpt lat="42.25068" lon="1.73514">
        <ele>1151</ele>
        <time>2010-01-01T01:47:13Z</time>
      </trkpt>
      <trkpt lat="42.25064" lon="1.73493">
        <ele>1143</ele>
        <time>2010-01-01T01:47:20Z</time>
      </trkpt>
      <trkpt lat="42.25054" lon="1.73502">
        <ele>1140</ele>
        <time>2010-01-01T01:47:25Z</time>
      </trkpt>
      <trkpt lat="42.25052" lon="1.73495">
        <ele>1138</ele>
        <time>2010-01-01T01:47:27Z</time>
      </trkpt>
      <trkpt lat="42.25052" lon="1.73483">
        <ele>1135</ele>
        <time>2010-01-01T01:47:30Z</time>
      </trkpt>
      <trkpt lat="42.25046" lon="1.73489">
        <ele>1133</ele>
        <time>2010-01-01T01:47:33Z</time>
      </trkpt>
      <trkpt lat="42.2504" lon="1.73491">
        <ele>1130</ele>
        <time>2010-01-01T01:47:36Z</time>
      </trkpt>
      <trkpt lat="42.25042" lon="1.73476">
        <ele>1129</ele>
        <time>2010-01-01T01:47:41Z</time>
      </trkpt>
      <trkpt lat="42.25034" lon="1.73481">
        <ele>1125</ele>
        <time>2010-01-01T01:47:44Z</time>
      </trkpt>
      <trkpt lat="42.25031" lon="1.73478">
        <ele>1123</ele>
        <time>2010-01-01T01:47:46Z</time>
      </trkpt>
      <trkpt lat="42.2503" lon="1.73474">
        <ele>1122</ele>
        <time>2010-01-01T01:47:47Z</time>
      </trkpt>
      <trkpt lat="42.25018" lon="1.73473">
        <ele>1115</ele>
        <time>2010-01-01T01:47:52Z</time>
      </trkpt>
      <trkpt lat="42.25022" lon="1.73462">
        <ele>1114</ele>
        <time>2010-01-01T01:47:55Z</time>
      </trkpt>
      <trkpt lat="42.25019" lon="1.73459">
        <ele>1112</ele>
        <time>2010-01-01T01:47:57Z</time>
      </trkpt>
      <trkpt lat="42.25022" lon="1.73452">
        <ele>1112</ele>
        <time>2010-01-01T01:47:59Z</time>
      </trkpt>
      <trkpt lat="42.25018" lon="1.73454">
        <ele>1110</ele>
        <time>2010-01-01T01:48:01Z</time>
      </trkpt>
      <trkpt lat="42.24995" lon="1.73456">
        <ele>1099</ele>
        <time>2010-01-01T01:48:10Z</time>
      </trkpt>
      <trkpt lat="42.24987" lon="1.73454">
        <ele>1094</ele>
        <time>2010-01-01T01:48:14Z</time>
      </trkpt>
      <trkpt lat="42.24981" lon="1.73455">
        <ele>1092</ele>
        <time>2010-01-01T01:48:16Z</time>
      </trkpt>
      <trkpt lat="42.24975" lon="1.73464">
        <ele>1091</ele>
        <time>2010-01-01T01:48:20Z</time>
      </trkpt>
      <trkpt lat="42.24964" lon="1.735">
        <ele>1091</ele>
        <time>2010-01-01T01:48:31Z</time>
      </trkpt>
      <trkpt lat="42.24954" lon="1.73517">
        <ele>1087</ele>
        <time>2010-01-01T01:48:38Z</time>
      </trkpt>
      <trkpt lat="42.24953" lon="1.73512">
        <ele>1086</ele>
        <time>2010-01-01T01:48:39Z</time>
      </trkpt>
      <trkpt lat="42.24954" lon="1.73504">
        <ele>1086</ele>
        <time>2010-01-01T01:48:41Z</time>
      </trkpt>
      <trkpt lat="42.24938" lon="1.73449">
        <ele>1071</ele>
        <time>2010-01-01T01:48:59Z</time>
      </trkpt>
      <trkpt lat="42.24937" lon="1.73402">
        <ele>1062</ele>
        <time>2010-01-01T01:49:13Z</time>
      </trkpt>
      <trkpt lat="42.24932" lon="1.73362">
        <ele>1056</ele>
        <time>2010-01-01T01:49:25Z</time>
      </trkpt>
      <trkpt lat="42.24929" lon="1.73347">
        <ele>1055</ele>
        <time>2010-01-01T01:49:30Z</time>
      </trkpt>
      <trkpt lat="42.24907" lon="1.73333">
        <ele>1052</ele>
        <time>2010-01-01T01:49:39Z</time>
      </trkpt>
      <trkpt lat="42.24906" lon="1.73329">
        <ele>1053</ele>
        <time>2010-01-01T01:49:40Z</time>
      </trkpt>
      <trkpt lat="42.24903" lon="1.7333">
        <ele>1052</ele>
        <time>2010-01-01T01:49:41Z</time>
      </trkpt>
      <trkpt lat="42.249" lon="1.73333">
        <ele>1051</ele>
        <time>2010-01-01T01:49:43Z</time>
      </trkpt>
      <trkpt lat="42.24895" lon="1.73344">
        <ele>1050</ele>
        <time>2010-01-01T01:49:47Z</time>
      </trkpt>
      <trkpt lat="42.24893" lon="1.73361">
        <ele>1048</ele>
        <time>2010-01-01T01:49:52Z</time>
      </trkpt>
      <trkpt lat="42.2489" lon="1.73364">
        <ele>1048</ele>
        <time>2010-01-01T01:49:53Z</time>
      </trkpt>
      <trkpt lat="42.24888" lon="1.73364">
        <ele>1048</ele>
        <time>2010-01-01T01:49:54Z</time>
      </trkpt>
      <trkpt lat="42.24881" lon="1.73343">
        <ele>1051</ele>
        <time>2010-01-01T01:50:01Z</time>
      </trkpt>
      <trkpt lat="42.24881" lon="1.73329">
        <ele>1054</ele>
        <time>2010-01-01T01:50:05Z</time>
      </trkpt>
      <trkpt lat="42.24888" lon="1.73318">
        <ele>1054</ele>
        <time>2010-01-01T01:50:09Z</time>
      </trkpt>
      <trkpt lat="42.24905" lon="1.73306">
        <ele>1057</ele>
        <time>2010-01-01T01:50:17Z</time>
      </trkpt>
      <trkpt lat="42.2492" lon="1.73304">
        <ele>1060</ele>
        <time>2010-01-01T01:50:24Z</time>
      </trkpt>
      <trkpt lat="42.24938" lon="1.73315">
        <ele>1060</ele>
        <time>2010-01-01T01:50:31Z</time>
      </trkpt>
      <trkpt lat="42.24954" lon="1.73323">
        <ele>1060</ele>
        <time>2010-01-01T01:50:38Z</time>
      </trkpt>
      <trkpt lat="42.24952" lon="1.73319">
        <ele>1060</ele>
        <time>2010-01-01T01:50:40Z</time>
      </trkpt>
      <trkpt lat="42.2496" lon="1.73334">
        <ele>1061</ele>
        <time>2010-01-01T01:50:45Z</time>
      </trkpt>
      <trkpt lat="42.24988" lon="1.73357">
        <ele>1066</ele>
        <time>2010-01-01T01:50:58Z</time>
      </trkpt>
      <trkpt lat="42.24995" lon="1.73359">
        <ele>1066</ele>
        <time>2010-01-01T01:51:01Z</time>
      </trkpt>
      <trkpt lat="42.25015" lon="1.7336">
        <ele>1070</ele>
        <time>2010-01-01T01:51:09Z</time>
      </trkpt>
      <trkpt lat="42.25023" lon="1.73354">
        <ele>1071</ele>
        <time>2010-01-01T01:51:13Z</time>
      </trkpt>
      <trkpt lat="42.25034" lon="1.7334">
        <ele>1069</ele>
        <time>2010-01-01T01:51:19Z</time>
      </trkpt>
      <trkpt lat="42.25035" lon="1.73311">
        <ele>1065</ele>
        <time>2010-01-01T01:51:27Z</time>
      </trkpt>
      <trkpt lat="42.25019" lon="1.7325">
        <ele>1063</ele>
        <time>2010-01-01T01:51:47Z</time>
      </trkpt>
      <trkpt lat="42.25012" lon="1.73211">
        <ele>1068</ele>
        <time>2010-01-01T01:51:59Z</time>
      </trkpt>
      <trkpt lat="42.25011" lon="1.73203">
        <ele>1070</ele>
        <time>2010-01-01T01:52:01Z</time>
      </trkpt>
      <trkpt lat="42.25014" lon="1.73174">
        <ele>1076</ele>
        <time>2010-01-01T01:52:10Z</time>
      </trkpt>
      <trkpt lat="42.25036" lon="1.73134">
        <ele>1076</ele>
        <time>2010-01-01T01:52:24Z</time>
      </trkpt>
      <trkpt lat="42.25039" lon="1.73119">
        <ele>1078</ele>
        <time>2010-01-01T01:52:29Z</time>
      </trkpt>
      <trkpt lat="42.25038" lon="1.7309">
        <ele>1078</ele>
        <time>2010-01-01T01:52:38Z</time>
      </trkpt>
      <trkpt lat="42.25036" lon="1.73068">
        <ele>1078</ele>
        <time>2010-01-01T01:52:44Z</time>
      </trkpt>
      <trkpt lat="42.2504" lon="1.73034">
        <ele>1082</ele>
        <time>2010-01-01T01:52:55Z</time>
      </trkpt>
      <trkpt lat="42.25052" lon="1.73002">
        <ele>1084</ele>
        <time>2010-01-01T01:53:05Z</time>
      </trkpt>
      <trkpt lat="42.25066" lon="1.72984">
        <ele>1084</ele>
        <time>2010-01-01T01:53:13Z</time>
      </trkpt>
      <trkpt lat="42.251" lon="1.72958">
        <ele>1085</ele>
        <time>2010-01-01T01:53:29Z</time>
      </trkpt>
      <trkpt lat="42.25113" lon="1.72942">
        <ele>1085</ele>
        <time>2010-01-01T01:53:36Z</time>
      </trkpt>
      <trkpt lat="42.25127" lon="1.72922">
        <ele>1088</ele>
        <time>2010-01-01T01:53:44Z</time>
      </trkpt>
      <trkpt lat="42.25151" lon="1.72875">
        <ele>1094</ele>
        <time>2010-01-01T01:54:01Z</time>
      </trkpt>
      <trkpt lat="42.25161" lon="1.72844">
        <ele>1097</ele>
        <time>2010-01-01T01:54:11Z</time>
      </trkpt>
      <trkpt lat="42.25165" lon="1.72806">
        <ele>1095</ele>
        <time>2010-01-01T01:54:22Z</time>
      </trkpt>
      <trkpt lat="42.25182" lon="1.72748">
        <ele>1108</ele>
        <time>2010-01-01T01:54:40Z</time>
      </trkpt>
      <trkpt lat="42.25195" lon="1.72691">
        <ele>1116</ele>
        <time>2010-01-01T01:54:58Z</time>
      </trkpt>
      <trkpt lat="42.25203" lon="1.72676">
        <ele>1120</ele>
        <time>2010-01-01T01:55:04Z</time>
      </trkpt>
      <trkpt lat="42.25208" lon="1.72661">
        <ele>1125</ele>
        <time>2010-01-01T01:55:09Z</time>
      </trkpt>
      <trkpt lat="42.25205" lon="1.72617">
        <ele>1130</ele>
        <time>2010-01-01T01:55:22Z</time>
      </trkpt>
      <trkpt lat="42.25206" lon="1.72569">
        <ele>1128</ele>
        <time>2010-01-01T01:55:36Z</time>
      </trkpt>
      <trkpt lat="42.25212" lon="1.72547">
        <ele>1127</ele>
        <time>2010-01-01T01:55:43Z</time>
      </trkpt>
      <trkpt lat="42.25231" lon="1.72517">
        <ele>1133</ele>
        <time>2010-01-01T01:55:55Z</time>
      </trkpt>
      <trkpt lat="42.25254" lon="1.72495">
        <ele>1138</ele>
        <time>2010-01-01T01:56:06Z</time>
      </trkpt>
      <trkpt lat="42.25275" lon="1.72482">
        <ele>1140</ele>
        <time>2010-01-01T01:56:15Z</time>
      </trkpt>
      <trkpt lat="42.25285" lon="1.72467">
        <ele>1143</ele>
        <time>2010-01-01T01:56:21Z</time>
      </trkpt>
      <trkpt lat="42.25298" lon="1.72453">
        <ele>1149</ele>
        <time>2010-01-01T01:56:28Z</time>
      </trkpt>
      <trkpt lat="42.25301" lon="1.72452">
        <ele>1149</ele>
        <time>2010-01-01T01:56:29Z</time>
      </trkpt>
      <trkpt lat="42.25341" lon="1.72471">
        <ele>1149</ele>
        <time>2010-01-01T01:56:46Z</time>
      </trkpt>
      <trkpt lat="42.2535" lon="1.72474">
        <ele>1150</ele>
        <time>2010-01-01T01:56:49Z</time>
      </trkpt>
      <trkpt lat="42.25383" lon="1.7248">
        <ele>1156</ele>
        <time>2010-01-01T01:57:03Z</time>
      </trkpt>
      <trkpt lat="42.25394" lon="1.72484">
        <ele>1159</ele>
        <time>2010-01-01T01:57:08Z</time>
      </trkpt>
      <trkpt lat="42.25403" lon="1.72484">
        <ele>1161</ele>
        <time>2010-01-01T01:57:11Z</time>
      </trkpt>
      <trkpt lat="42.2541" lon="1.72483">
        <ele>1163</ele>
        <time>2010-01-01T01:57:14Z</time>
      </trkpt>
      <trkpt lat="42.25428" lon="1.72474">
        <ele>1169</ele>
        <time>2010-01-01T01:57:22Z</time>
      </trkpt>
      <trkpt lat="42.25439" lon="1.72475">
        <ele>1174</ele>
        <time>2010-01-01T01:57:26Z</time>
      </trkpt>
      <trkpt lat="42.25449" lon="1.72483">
        <ele>1176</ele>
        <time>2010-01-01T01:57:30Z</time>
      </trkpt>
      <trkpt lat="42.25463" lon="1.7248">
        <ele>1176</ele>
        <time>2010-01-01T01:57:36Z</time>
      </trkpt>
      <trkpt lat="42.25478" lon="1.72475">
        <ele>1174</ele>
        <time>2010-01-01T01:57:43Z</time>
      </trkpt>
      <trkpt lat="42.25502" lon="1.72475">
        <ele>1170</ele>
        <time>2010-01-01T01:57:52Z</time>
      </trkpt>
      <trkpt lat="42.25512" lon="1.72469">
        <ele>1172</ele>
        <time>2010-01-01T01:57:56Z</time>
      </trkpt>
      <trkpt lat="42.25522" lon="1.7246">
        <ele>1174</ele>
        <time>2010-01-01T01:58:01Z</time>
      </trkpt>
      <trkpt lat="42.25538" lon="1.72441">
        <ele>1181</ele>
        <time>2010-01-01T01:58:10Z</time>
      </trkpt>
      <trkpt lat="42.25542" lon="1.72426">
        <ele>1187</ele>
        <time>2010-01-01T01:58:15Z</time>
      </trkpt>
      <trkpt lat="42.25551" lon="1.7242">
        <ele>1191</ele>
        <time>2010-01-01T01:58:19Z</time>
      </trkpt>
      <trkpt lat="42.25565" lon="1.72416">
        <ele>1194</ele>
        <time>2010-01-01T01:58:24Z</time>
      </trkpt>
      <trkpt lat="42.25583" lon="1.72415">
        <ele>1197</ele>
        <time>2010-01-01T01:58:31Z</time>
      </trkpt>
      <trkpt lat="42.25603" lon="1.72402">
        <ele>1203</ele>
        <time>2010-01-01T01:58:40Z</time>
      </trkpt>
      <trkpt lat="42.25615" lon="1.72399">
        <ele>1206</ele>
        <time>2010-01-01T01:58:45Z</time>
      </trkpt>
      <trkpt lat="42.25625" lon="1.72403">
        <ele>1208</ele>
        <time>2010-01-01T01:58:49Z</time>
      </trkpt>
      <trkpt lat="42.25645" lon="1.72389">
        <ele>1213</ele>
        <time>2010-01-01T01:58:58Z</time>
      </trkpt>
      <trkpt lat="42.25659" lon="1.72384">
        <ele>1218</ele>
        <time>2010-01-01T01:59:04Z</time>
      </trkpt>
      <trkpt lat="42.25672" lon="1.72392">
        <ele>1217</ele>
        <time>2010-01-01T01:59:10Z</time>
      </trkpt>
      <trkpt lat="42.25695" lon="1.72373">
        <ele>1218</ele>
        <time>2010-01-01T01:59:21Z</time>
      </trkpt>
      <trkpt lat="42.25709" lon="1.72364">
        <ele>1219</ele>
        <time>2010-01-01T01:59:27Z</time>
      </trkpt>
      <trkpt lat="42.25721" lon="1.72354">
        <ele>1223</ele>
        <time>2010-01-01T01:59:33Z</time>
      </trkpt>
      <trkpt lat="42.25737" lon="1.72346">
        <ele>1225</ele>
        <time>2010-01-01T01:59:39Z</time>
      </trkpt>
      <trkpt lat="42.25748" lon="1.72331">
        <ele>1227</ele>
        <time>2010-01-01T01:59:45Z</time>
      </trkpt>
      <trkpt lat="42.2577" lon="1.72306">
        <ele>1225</ele>
        <time>2010-01-01T01:59:57Z</time>
      </trkpt>
      <trkpt lat="42.25801" lon="1.72288">
        <ele>1221</ele>
        <time>2010-01-01T02:00:11Z</time>
      </trkpt>
      <trkpt lat="42.25814" lon="1.72288">
        <ele>1219</ele>
        <time>2010-01-01T02:00:16Z</time>
      </trkpt>
      <trkpt lat="42.2583" lon="1.72293">
        <ele>1218</ele>
        <time>2010-01-01T02:00:22Z</time>
      </trkpt>
      <trkpt lat="42.25851" lon="1.72304">
        <ele>1219</ele>
        <time>2010-01-01T02:00:32Z</time>
      </trkpt>
      <trkpt lat="42.2587" lon="1.72316">
        <ele>1221</ele>
        <time>2010-01-01T02:00:40Z</time>
      </trkpt>
      <trkpt lat="42.25886" lon="1.72324">
        <ele>1223</ele>
        <time>2010-01-01T02:00:47Z</time>
      </trkpt>
      <trkpt lat="42.25905" lon="1.72326">
        <ele>1227</ele>
        <time>2010-01-01T02:00:54Z</time>
      </trkpt>
      <trkpt lat="42.25913" lon="1.72325">
        <ele>1229</ele>
        <time>2010-01-01T02:00:57Z</time>
      </trkpt>
      <trkpt lat="42.25923" lon="1.7232">
        <ele>1231</ele>
        <time>2010-01-01T02:01:02Z</time>
      </trkpt>
      <trkpt lat="42.2594" lon="1.72326">
        <ele>1235</ele>
        <time>2010-01-01T02:01:09Z</time>
      </trkpt>
      <trkpt lat="42.25951" lon="1.72336">
        <ele>1238</ele>
        <time>2010-01-01T02:01:14Z</time>
      </trkpt>
      <trkpt lat="42.25971" lon="1.72345">
        <ele>1242</ele>
        <time>2010-01-01T02:01:23Z</time>
      </trkpt>
      <trkpt lat="42.25981" lon="1.72356">
        <ele>1244</ele>
        <time>2010-01-01T02:01:28Z</time>
      </trkpt>
      <trkpt lat="42.25988" lon="1.72368">
        <ele>1244</ele>
        <time>2010-01-01T02:01:32Z</time>
      </trkpt>
      <trkpt lat="42.25995" lon="1.72385">
        <ele>1244</ele>
        <time>2010-01-01T02:01:38Z</time>
      </trkpt>
      <trkpt lat="42.2601" lon="1.72393">
        <ele>1244</ele>
        <time>2010-01-01T02:01:45Z</time>
      </trkpt>
      <trkpt lat="42.26" lon="1.72394">
        <ele>1244</ele>
        <time>2010-01-01T02:01:49Z</time>
      </trkpt>
      <trkpt lat="42.26006" lon="1.72396">
        <ele>1244</ele>
        <time>2010-01-01T02:01:51Z</time>
      </trkpt>
      <trkpt lat="42.26013" lon="1.72401">
        <ele>1244</ele>
        <time>2010-01-01T02:01:54Z</time>
      </trkpt>
      <trkpt lat="42.26036" lon="1.72437">
        <ele>1247</ele>
        <time>2010-01-01T02:02:08Z</time>
      </trkpt>
      <trkpt lat="42.2605" lon="1.72444">
        <ele>1249</ele>
        <time>2010-01-01T02:02:14Z</time>
      </trkpt>
      <trkpt lat="42.26063" lon="1.72458">
        <ele>1256</ele>
        <time>2010-01-01T02:02:21Z</time>
      </trkpt>
      <trkpt lat="42.26077" lon="1.72469">
        <ele>1261</ele>
        <time>2010-01-01T02:02:27Z</time>
      </trkpt>
      <trkpt lat="42.26088" lon="1.72502">
        <ele>1269</ele>
        <time>2010-01-01T02:02:38Z</time>
      </trkpt>
      <trkpt lat="42.26094" lon="1.72505">
        <ele>1271</ele>
        <time>2010-01-01T02:02:41Z</time>
      </trkpt>
      <trkpt lat="42.26103" lon="1.72514">
        <ele>1274</ele>
        <time>2010-01-01T02:02:45Z</time>
      </trkpt>
      <trkpt lat="42.26105" lon="1.72523">
        <ele>1275</ele>
        <time>2010-01-01T02:02:48Z</time>
      </trkpt>
      <trkpt lat="42.26117" lon="1.72539">
        <ele>1279</ele>
        <time>2010-01-01T02:02:55Z</time>
      </trkpt>
      <trkpt lat="42.26124" lon="1.72553">
        <ele>1282</ele>
        <time>2010-01-01T02:03:00Z</time>
      </trkpt>
      <trkpt lat="42.26134" lon="1.72561">
        <ele>1285</ele>
        <time>2010-01-01T02:03:04Z</time>
      </trkpt>
      <trkpt lat="42.26136" lon="1.7259">
        <ele>1289</ele>
        <time>2010-01-01T02:03:13Z</time>
      </trkpt>
      <trkpt lat="42.2615" lon="1.72604">
        <ele>1294</ele>
        <time>2010-01-01T02:03:20Z</time>
      </trkpt>
      <trkpt lat="42.26151" lon="1.72618">
        <ele>1296</ele>
        <time>2010-01-01T02:03:25Z</time>
      </trkpt>
      <trkpt lat="42.26159" lon="1.72638">
        <ele>1302</ele>
        <time>2010-01-01T02:03:31Z</time>
      </trkpt>
      <trkpt lat="42.26159" lon="1.72654">
        <ele>1303</ele>
        <time>2010-01-01T02:03:36Z</time>
      </trkpt>
      <trkpt lat="42.26163" lon="1.72666">
        <ele>1305</ele>
        <time>2010-01-01T02:03:40Z</time>
      </trkpt>
      <trkpt lat="42.26168" lon="1.72697">
        <ele>1308</ele>
        <time>2010-01-01T02:03:49Z</time>
      </trkpt>
      <trkpt lat="42.26169" lon="1.72706">
        <ele>1309</ele>
        <time>2010-01-01T02:03:52Z</time>
      </trkpt>
      <trkpt lat="42.26167" lon="1.72717">
        <ele>1308</ele>
        <time>2010-01-01T02:03:55Z</time>
      </trkpt>
      <trkpt lat="42.26167" lon="1.72726">
        <ele>1309</ele>
        <time>2010-01-01T02:03:58Z</time>
      </trkpt>
      <trkpt lat="42.26173" lon="1.72756">
        <ele>1318</ele>
        <time>2010-01-01T02:04:07Z</time>
      </trkpt>
      <trkpt lat="42.26171" lon="1.7277">
        <ele>1319</ele>
        <time>2010-01-01T02:04:11Z</time>
      </trkpt>
      <trkpt lat="42.26174" lon="1.72791">
        <ele>1322</ele>
        <time>2010-01-01T02:04:18Z</time>
      </trkpt>
      <trkpt lat="42.26174" lon="1.72807">
        <ele>1324</ele>
        <time>2010-01-01T02:04:22Z</time>
      </trkpt>
      <trkpt lat="42.26182" lon="1.72818">
        <ele>1326</ele>
        <time>2010-01-01T02:04:27Z</time>
      </trkpt>
      <trkpt lat="42.26181" lon="1.72822">
        <ele>1327</ele>
        <time>2010-01-01T02:04:29Z</time>
      </trkpt>
      <trkpt lat="42.26181" lon="1.72817">
        <ele>1326</ele>
        <time>2010-01-01T02:04:30Z</time>
      </trkpt>
      <trkpt lat="42.26172" lon="1.72818">
        <ele>1325</ele>
        <time>2010-01-01T02:04:34Z</time>
      </trkpt>
      <trkpt lat="42.26177" lon="1.72825">
        <ele>1326</ele>
        <time>2010-01-01T02:04:36Z</time>
      </trkpt>
      <trkpt lat="42.26181" lon="1.72817">
        <ele>1326</ele>
        <time>2010-01-01T02:04:40Z</time>
      </trkpt>
      <trkpt lat="42.26185" lon="1.72819">
        <ele>1327</ele>
        <time>2010-01-01T02:04:42Z</time>
      </trkpt>
      <trkpt lat="42.26182" lon="1.72809">
        <ele>1326</ele>
        <time>2010-01-01T02:04:45Z</time>
      </trkpt>
      <trkpt lat="42.26175" lon="1.7282">
        <ele>1326</ele>
        <time>2010-01-01T02:04:49Z</time>
      </trkpt>
      <trkpt lat="42.2617" lon="1.72821">
        <ele>1325</ele>
        <time>2010-01-01T02:04:51Z</time>
      </trkpt>
      <trkpt lat="42.26179" lon="1.72805">
        <ele>1325</ele>
        <time>2010-01-01T02:04:57Z</time>
      </trkpt>
      <trkpt lat="42.26176" lon="1.72812">
        <ele>1325</ele>
        <time>2010-01-01T02:04:59Z</time>
      </trkpt>
      <trkpt lat="42.26167" lon="1.72812">
        <ele>1324</ele>
        <time>2010-01-01T02:05:03Z</time>
      </trkpt>
      <trkpt lat="42.2617" lon="1.72816">
        <ele>1324</ele>
        <time>2010-01-01T02:05:04Z</time>
      </trkpt>
      <trkpt lat="42.26172" lon="1.72816">
        <ele>1325</ele>
        <time>2010-01-01T02:05:05Z</time>
      </trkpt>
      <trkpt lat="42.26174" lon="1.72812">
        <ele>1325</ele>
        <time>2010-01-01T02:05:06Z</time>
      </trkpt>
      <trkpt lat="42.26175" lon="1.72814">
        <ele>1325</ele>
        <time>2010-01-01T02:05:07Z</time>
      </trkpt>
      <trkpt lat="42.26176" lon="1.7281">
        <ele>1325</ele>
        <time>2010-01-01T02:05:08Z</time>
      </trkpt>
      <trkpt lat="42.26175" lon="1.72812">
        <ele>1325</ele>
        <time>2010-01-01T02:05:09Z</time>
      </trkpt>
      <trkpt lat="42.26172" lon="1.72803">
        <ele>1323</ele>
        <time>2010-01-01T02:05:12Z</time>
      </trkpt>
      <trkpt lat="42.26181" lon="1.72807">
        <ele>1325</ele>
        <time>2010-01-01T02:05:16Z</time>
      </trkpt>
      <trkpt lat="42.2618" lon="1.72811">
        <ele>1325</ele>
        <time>2010-01-01T02:05:17Z</time>
      </trkpt>
      <trkpt lat="42.26182" lon="1.72814">
        <ele>1326</ele>
        <time>2010-01-01T02:05:18Z</time>
      </trkpt>
      <trkpt lat="42.26181" lon="1.72811">
        <ele>1326</ele>
        <time>2010-01-01T02:05:19Z</time>
      </trkpt>
      <trkpt lat="42.26186" lon="1.72811">
        <ele>1326</ele>
        <time>2010-01-01T02:05:21Z</time>
      </trkpt>
      <trkpt lat="42.26186" lon="1.72821">
        <ele>1327</ele>
        <time>2010-01-01T02:05:24Z</time>
      </trkpt>
      <trkpt lat="42.26192" lon="1.72837">
        <ele>1329</ele>
        <time>2010-01-01T02:05:30Z</time>
      </trkpt>
      <trkpt lat="42.26197" lon="1.72855">
        <ele>1335</ele>
        <time>2010-01-01T02:05:36Z</time>
      </trkpt>
      <trkpt lat="42.26204" lon="1.72869">
        <ele>1339</ele>
        <time>2010-01-01T02:05:41Z</time>
      </trkpt>
      <trkpt lat="42.26187" lon="1.72885">
        <ele>1345</ele>
        <time>2010-01-01T02:05:49Z</time>
      </trkpt>
      <trkpt lat="42.26192" lon="1.72878">
        <ele>1341</ele>
        <time>2010-01-01T02:05:52Z</time>
      </trkpt>
      <trkpt lat="42.26199" lon="1.72874">
        <ele>1340</ele>
        <time>2010-01-01T02:05:55Z</time>
      </trkpt>
      <trkpt lat="42.26215" lon="1.72889">
        <ele>1345</ele>
        <time>2010-01-01T02:06:02Z</time>
      </trkpt>
      <trkpt lat="42.2623" lon="1.72921">
        <ele>1353</ele>
        <time>2010-01-01T02:06:14Z</time>
      </trkpt>
      <trkpt lat="42.26234" lon="1.72934">
        <ele>1357</ele>
        <time>2010-01-01T02:06:18Z</time>
      </trkpt>
      <trkpt lat="42.26239" lon="1.72946">
        <ele>1360</ele>
        <time>2010-01-01T02:06:22Z</time>
      </trkpt>
      <trkpt lat="42.26237" lon="1.72963">
        <ele>1364</ele>
        <time>2010-01-01T02:06:27Z</time>
      </trkpt>
      <trkpt lat="42.26252" lon="1.72972">
        <ele>1366</ele>
        <time>2010-01-01T02:06:34Z</time>
      </trkpt>
      <trkpt lat="42.26259" lon="1.72986">
        <ele>1370</ele>
        <time>2010-01-01T02:06:38Z</time>
      </trkpt>
      <trkpt lat="42.26259" lon="1.72994">
        <ele>1372</ele>
        <time>2010-01-01T02:06:41Z</time>
      </trkpt>
      <trkpt lat="42.26265" lon="1.73011">
        <ele>1375</ele>
        <time>2010-01-01T02:06:46Z</time>
      </trkpt>
      <trkpt lat="42.26271" lon="1.73021">
        <ele>1377</ele>
        <time>2010-01-01T02:06:50Z</time>
      </trkpt>
      <trkpt lat="42.26295" lon="1.73036">
        <ele>1383</ele>
        <time>2010-01-01T02:07:01Z</time>
      </trkpt>
      <trkpt lat="42.26308" lon="1.73047">
        <ele>1386</ele>
        <time>2010-01-01T02:07:07Z</time>
      </trkpt>
      <trkpt lat="42.26318" lon="1.73064">
        <ele>1390</ele>
        <time>2010-01-01T02:07:13Z</time>
      </trkpt>
      <trkpt lat="42.26331" lon="1.73094">
        <ele>1397</ele>
        <time>2010-01-01T02:07:23Z</time>
      </trkpt>
      <trkpt lat="42.2634" lon="1.73103">
        <ele>1400</ele>
        <time>2010-01-01T02:07:28Z</time>
      </trkpt>
      <trkpt lat="42.26346" lon="1.73125">
        <ele>1403</ele>
        <time>2010-01-01T02:07:35Z</time>
      </trkpt>
      <trkpt lat="42.26356" lon="1.73139">
        <ele>1407</ele>
        <time>2010-01-01T02:07:41Z</time>
      </trkpt>
      <trkpt lat="42.26361" lon="1.73152">
        <ele>1410</ele>
        <time>2010-01-01T02:07:45Z</time>
      </trkpt>
      <trkpt lat="42.26364" lon="1.73186">
        <ele>1418</ele>
        <time>2010-01-01T02:07:55Z</time>
      </trkpt>
      <trkpt lat="42.2637" lon="1.73203">
        <ele>1425</ele>
        <time>2010-01-01T02:08:01Z</time>
      </trkpt>
      <trkpt lat="42.2637" lon="1.73221">
        <ele>1428</ele>
        <time>2010-01-01T02:08:06Z</time>
      </trkpt>
      <trkpt lat="42.26376" lon="1.7324">
        <ele>1431</ele>
        <time>2010-01-01T02:08:13Z</time>
      </trkpt>
      <trkpt lat="42.26378" lon="1.73253">
        <ele>1430</ele>
        <time>2010-01-01T02:08:16Z</time>
      </trkpt>
      <trkpt lat="42.26384" lon="1.73271">
        <ele>1428</ele>
        <time>2010-01-01T02:08:22Z</time>
      </trkpt>
      <trkpt lat="42.2639" lon="1.73284">
        <ele>1428</ele>
        <time>2010-01-01T02:08:27Z</time>
      </trkpt>
      <trkpt lat="42.26394" lon="1.73302">
        <ele>1433</ele>
        <time>2010-01-01T02:08:32Z</time>
      </trkpt>
      <trkpt lat="42.26402" lon="1.73325">
        <ele>1439</ele>
        <time>2010-01-01T02:08:40Z</time>
      </trkpt>
      <trkpt lat="42.26406" lon="1.73349">
        <ele>1445</ele>
        <time>2010-01-01T02:08:47Z</time>
      </trkpt>
      <trkpt lat="42.26401" lon="1.73379">
        <ele>1448</ele>
        <time>2010-01-01T02:08:56Z</time>
      </trkpt>
      <trkpt lat="42.26407" lon="1.73392">
        <ele>1450</ele>
        <time>2010-01-01T02:09:01Z</time>
      </trkpt>
      <trkpt lat="42.26408" lon="1.73412">
        <ele>1453</ele>
        <time>2010-01-01T02:09:07Z</time>
      </trkpt>
      <trkpt lat="42.26421" lon="1.7345">
        <ele>1456</ele>
        <time>2010-01-01T02:09:19Z</time>
      </trkpt>
      <trkpt lat="42.26429" lon="1.73467">
        <ele>1460</ele>
        <time>2010-01-01T02:09:25Z</time>
      </trkpt>
      <trkpt lat="42.26426" lon="1.73489">
        <ele>1466</ele>
        <time>2010-01-01T02:09:32Z</time>
      </trkpt>
      <trkpt lat="42.2643" lon="1.73498">
        <ele>1469</ele>
        <time>2010-01-01T02:09:35Z</time>
      </trkpt>
      <trkpt lat="42.26432" lon="1.73521">
        <ele>1477</ele>
        <time>2010-01-01T02:09:42Z</time>
      </trkpt>
      <trkpt lat="42.26438" lon="1.73535">
        <ele>1480</ele>
        <time>2010-01-01T02:09:47Z</time>
      </trkpt>
      <trkpt lat="42.26433" lon="1.7355">
        <ele>1484</ele>
        <time>2010-01-01T02:09:51Z</time>
      </trkpt>
      <trkpt lat="42.26437" lon="1.7358">
        <ele>1491</ele>
        <time>2010-01-01T02:10:00Z</time>
      </trkpt>
      <trkpt lat="42.26435" lon="1.73601">
        <ele>1497</ele>
        <time>2010-01-01T02:10:07Z</time>
      </trkpt>
      <trkpt lat="42.26441" lon="1.73612">
        <ele>1498</ele>
        <time>2010-01-01T02:10:11Z</time>
      </trkpt>
      <trkpt lat="42.26441" lon="1.73626">
        <ele>1500</ele>
        <time>2010-01-01T02:10:15Z</time>
      </trkpt>
      <trkpt lat="42.26438" lon="1.73635">
        <ele>1501</ele>
        <time>2010-01-01T02:10:18Z</time>
      </trkpt>
      <trkpt lat="42.26441" lon="1.73646">
        <ele>1502</ele>
        <time>2010-01-01T02:10:21Z</time>
      </trkpt>
      <trkpt lat="42.26441" lon="1.73655">
        <ele>1504</ele>
        <time>2010-01-01T02:10:24Z</time>
      </trkpt>
      <trkpt lat="42.26436" lon="1.73662">
        <ele>1508</ele>
        <time>2010-01-01T02:10:27Z</time>
      </trkpt>
      <trkpt lat="42.26433" lon="1.73674">
        <ele>1511</ele>
        <time>2010-01-01T02:10:31Z</time>
      </trkpt>
      <trkpt lat="42.26433" lon="1.73688">
        <ele>1515</ele>
        <time>2010-01-01T02:10:35Z</time>
      </trkpt>
      <trkpt lat="42.26437" lon="1.73703">
        <ele>1517</ele>
        <time>2010-01-01T02:10:40Z</time>
      </trkpt>
      <trkpt lat="42.26436" lon="1.73713">
        <ele>1520</ele>
        <time>2010-01-01T02:10:42Z</time>
      </trkpt>
      <trkpt lat="42.26434" lon="1.73754">
        <ele>1528</ele>
        <time>2010-01-01T02:10:55Z</time>
      </trkpt>
      <trkpt lat="42.26431" lon="1.73766">
        <ele>1532</ele>
        <time>2010-01-01T02:10:58Z</time>
      </trkpt>
      <trkpt lat="42.26437" lon="1.73802">
        <ele>1537</ele>
        <time>2010-01-01T02:11:09Z</time>
      </trkpt>
      <trkpt lat="42.26437" lon="1.73817">
        <ele>1540</ele>
        <time>2010-01-01T02:11:14Z</time>
      </trkpt>
      <trkpt lat="42.26443" lon="1.73838">
        <ele>1543</ele>
        <time>2010-01-01T02:11:20Z</time>
      </trkpt>
      <trkpt lat="42.26433" lon="1.73869">
        <ele>1555</ele>
        <time>2010-01-01T02:11:30Z</time>
      </trkpt>
      <trkpt lat="42.26438" lon="1.73892">
        <ele>1560</ele>
        <time>2010-01-01T02:11:38Z</time>
      </trkpt>
      <trkpt lat="42.26439" lon="1.73903">
        <ele>1560</ele>
        <time>2010-01-01T02:11:41Z</time>
      </trkpt>
      <trkpt lat="42.26434" lon="1.73915">
        <ele>1563</ele>
        <time>2010-01-01T02:11:45Z</time>
      </trkpt>
      <trkpt lat="42.26431" lon="1.73928">
        <ele>1565</ele>
        <time>2010-01-01T02:11:49Z</time>
      </trkpt>
      <trkpt lat="42.26437" lon="1.7395">
        <ele>1566</ele>
        <time>2010-01-01T02:11:56Z</time>
      </trkpt>
      <trkpt lat="42.26438" lon="1.73969">
        <ele>1570</ele>
        <time>2010-01-01T02:12:02Z</time>
      </trkpt>
      <trkpt lat="42.26443" lon="1.73982">
        <ele>1571</ele>
        <time>2010-01-01T02:12:06Z</time>
      </trkpt>
      <trkpt lat="42.26442" lon="1.73994">
        <ele>1573</ele>
        <time>2010-01-01T02:12:09Z</time>
      </trkpt>
      <trkpt lat="42.26439" lon="1.74004">
        <ele>1576</ele>
        <time>2010-01-01T02:12:13Z</time>
      </trkpt>
      <trkpt lat="42.26437" lon="1.74016">
        <ele>1577</ele>
        <time>2010-01-01T02:12:16Z</time>
      </trkpt>
      <trkpt lat="42.26439" lon="1.74032">
        <ele>1578</ele>
        <time>2010-01-01T02:12:21Z</time>
      </trkpt>
      <trkpt lat="42.26436" lon="1.74042">
        <ele>1579</ele>
        <time>2010-01-01T02:12:24Z</time>
      </trkpt>
      <trkpt lat="42.26436" lon="1.74057">
        <ele>1580</ele>
        <time>2010-01-01T02:12:29Z</time>
      </trkpt>
      <trkpt lat="42.26458" lon="1.74115">
        <ele>1581</ele>
        <time>2010-01-01T02:12:48Z</time>
      </trkpt>
      <trkpt lat="42.26457" lon="1.7414">
        <ele>1580</ele>
        <time>2010-01-01T02:12:55Z</time>
      </trkpt>
      <trkpt lat="42.26445" lon="1.74171">
        <ele>1578</ele>
        <time>2010-01-01T02:13:06Z</time>
      </trkpt>
      <trkpt lat="42.2647" lon="1.74191">
        <ele>1574</ele>
        <time>2010-01-01T02:13:17Z</time>
      </trkpt>
      <trkpt lat="42.26469" lon="1.74175">
        <ele>1576</ele>
        <time>2010-01-01T02:13:22Z</time>
      </trkpt>
      <trkpt lat="42.26465" lon="1.74151">
        <ele>1579</ele>
        <time>2010-01-01T02:13:29Z</time>
      </trkpt>
      <trkpt lat="42.26458" lon="1.74138">
        <ele>1580</ele>
        <time>2010-01-01T02:13:34Z</time>
      </trkpt>
      <trkpt lat="42.26457" lon="1.74132">
        <ele>1580</ele>
        <time>2010-01-01T02:13:36Z</time>
      </trkpt>
      <trkpt lat="42.26457" lon="1.74136">
        <ele>1580</ele>
        <time>2010-01-01T02:13:37Z</time>
      </trkpt>
      <trkpt lat="42.26458" lon="1.74139">
        <ele>1580</ele>
        <time>2010-01-01T02:13:38Z</time>
      </trkpt>
      <trkpt lat="42.26456" lon="1.74139">
        <ele>1580</ele>
        <time>2010-01-01T02:13:39Z</time>
      </trkpt>
      <trkpt lat="42.26457" lon="1.74134">
        <ele>1580</ele>
        <time>2010-01-01T02:13:40Z</time>
      </trkpt>
      <trkpt lat="42.26456" lon="1.74137">
        <ele>1580</ele>
        <time>2010-01-01T02:13:41Z</time>
      </trkpt>
      <trkpt lat="42.26774" lon="1.74408">
        <ele>1619</ele>
        <time>2010-01-01T02:16:11Z</time>
      </trkpt>
      <trkpt lat="42.26779" lon="1.74415">
        <ele>1619</ele>
        <time>2010-01-01T02:16:14Z</time>
      </trkpt>
      <trkpt lat="42.26796" lon="1.74426">
        <ele>1621</ele>
        <time>2010-01-01T02:16:22Z</time>
      </trkpt>
      <trkpt lat="42.26821" lon="1.74449">
        <ele>1620</ele>
        <time>2010-01-01T02:16:34Z</time>
      </trkpt>
      <trkpt lat="42.26832" lon="1.74454">
        <ele>1622</ele>
        <time>2010-01-01T02:16:39Z</time>
      </trkpt>
      <trkpt lat="42.26842" lon="1.74476">
        <ele>1620</ele>
        <time>2010-01-01T02:16:47Z</time>
      </trkpt>
      <trkpt lat="42.26851" lon="1.7448">
        <ele>1623</ele>
        <time>2010-01-01T02:16:50Z</time>
      </trkpt>
      <trkpt lat="42.26869" lon="1.74521">
        <ele>1626</ele>
        <time>2010-01-01T02:17:05Z</time>
      </trkpt>
      <trkpt lat="42.26878" lon="1.74526">
        <ele>1632</ele>
        <time>2010-01-01T02:17:08Z</time>
      </trkpt>
      <trkpt lat="42.26884" lon="1.74532">
        <ele>1634</ele>
        <time>2010-01-01T02:17:11Z</time>
      </trkpt>
      <trkpt lat="42.2688" lon="1.74539">
        <ele>1631</ele>
        <time>2010-01-01T02:17:14Z</time>
      </trkpt>
      <trkpt lat="42.26886" lon="1.74576">
        <ele>1630</ele>
        <time>2010-01-01T02:17:25Z</time>
      </trkpt>
      <trkpt lat="42.2689" lon="1.74583">
        <ele>1632</ele>
        <time>2010-01-01T02:17:28Z</time>
      </trkpt>
      <trkpt lat="42.26891" lon="1.74596">
        <ele>1631</ele>
        <time>2010-01-01T02:17:32Z</time>
      </trkpt>
      <trkpt lat="42.26893" lon="1.74598">
        <ele>1633</ele>
        <time>2010-01-01T02:17:33Z</time>
      </trkpt>
      <trkpt lat="42.26895" lon="1.74608">
        <ele>1633</ele>
        <time>2010-01-01T02:17:36Z</time>
      </trkpt>
      <trkpt lat="42.269" lon="1.74615">
        <ele>1636</ele>
        <time>2010-01-01T02:17:39Z</time>
      </trkpt>
      <trkpt lat="42.269" lon="1.74627">
        <ele>1635</ele>
        <time>2010-01-01T02:17:43Z</time>
      </trkpt>
      <trkpt lat="42.2691" lon="1.74642">
        <ele>1641</ele>
        <time>2010-01-01T02:17:48Z</time>
      </trkpt>
      <trkpt lat="42.26918" lon="1.7465">
        <ele>1645</ele>
        <time>2010-01-01T02:17:52Z</time>
      </trkpt>
      <trkpt lat="42.26925" lon="1.74654">
        <ele>1648</ele>
        <time>2010-01-01T02:17:55Z</time>
      </trkpt>
      <trkpt lat="42.26929" lon="1.74665">
        <ele>1650</ele>
        <time>2010-01-01T02:17:59Z</time>
      </trkpt>
      <trkpt lat="42.26937" lon="1.74669">
        <ele>1654</ele>
        <time>2010-01-01T02:18:03Z</time>
      </trkpt>
      <trkpt lat="42.26943" lon="1.7467">
        <ele>1656</ele>
        <time>2010-01-01T02:18:05Z</time>
      </trkpt>
      <trkpt lat="42.26948" lon="1.74677">
        <ele>1658</ele>
        <time>2010-01-01T02:18:08Z</time>
      </trkpt>
      <trkpt lat="42.26953" lon="1.74676">
        <ele>1660</ele>
        <time>2010-01-01T02:18:10Z</time>
      </trkpt>
      <trkpt lat="42.26957" lon="1.74679">
        <ele>1662</ele>
        <time>2010-01-01T02:18:12Z</time>
      </trkpt>
      <trkpt lat="42.26964" lon="1.74683">
        <ele>1665</ele>
        <time>2010-01-01T02:18:15Z</time>
      </trkpt>
      <trkpt lat="42.26976" lon="1.74705">
        <ele>1670</ele>
        <time>2010-01-01T02:18:23Z</time>
      </trkpt>
      <trkpt lat="42.26981" lon="1.74721">
        <ele>1672</ele>
        <time>2010-01-01T02:18:28Z</time>
      </trkpt>
      <trkpt lat="42.26994" lon="1.7474">
        <ele>1676</ele>
        <time>2010-01-01T02:18:36Z</time>
      </trkpt>
      <trkpt lat="42.27002" lon="1.74745">
        <ele>1679</ele>
        <time>2010-01-01T02:18:39Z</time>
      </trkpt>
      <trkpt lat="42.27001" lon="1.74753">
        <ele>1677</ele>
        <time>2010-01-01T02:18:42Z</time>
      </trkpt>
      <trkpt lat="42.27006" lon="1.74753">
        <ele>1679</ele>
        <time>2010-01-01T02:18:44Z</time>
      </trkpt>
      <trkpt lat="42.27011" lon="1.74751">
        <ele>1681</ele>
        <time>2010-01-01T02:18:46Z</time>
      </trkpt>
      <trkpt lat="42.27014" lon="1.74745">
        <ele>1683</ele>
        <time>2010-01-01T02:18:48Z</time>
      </trkpt>
      <trkpt lat="42.27023" lon="1.74737">
        <ele>1688</ele>
        <time>2010-01-01T02:18:52Z</time>
      </trkpt>
      <trkpt lat="42.27023" lon="1.7473">
        <ele>1689</ele>
        <time>2010-01-01T02:18:54Z</time>
      </trkpt>
      <trkpt lat="42.27028" lon="1.74724">
        <ele>1692</ele>
        <time>2010-01-01T02:18:57Z</time>
      </trkpt>
      <trkpt lat="42.27032" lon="1.74703">
        <ele>1697</ele>
        <time>2010-01-01T02:19:03Z</time>
      </trkpt>
      <trkpt lat="42.27036" lon="1.74693">
        <ele>1701</ele>
        <time>2010-01-01T02:19:07Z</time>
      </trkpt>
      <trkpt lat="42.2704" lon="1.74689">
        <ele>1703</ele>
        <time>2010-01-01T02:19:09Z</time>
      </trkpt>
      <trkpt lat="42.27045" lon="1.74692">
        <ele>1706</ele>
        <time>2010-01-01T02:19:11Z</time>
      </trkpt>
      <trkpt lat="42.2706" lon="1.74688">
        <ele>1715</ele>
        <time>2010-01-01T02:19:17Z</time>
      </trkpt>
      <trkpt lat="42.27062" lon="1.74676">
        <ele>1718</ele>
        <time>2010-01-01T02:19:20Z</time>
      </trkpt>
      <trkpt lat="42.27075" lon="1.74652">
        <ele>1728</ele>
        <time>2010-01-01T02:19:29Z</time>
      </trkpt>
      <trkpt lat="42.27083" lon="1.74654">
        <ele>1731</ele>
        <time>2010-01-01T02:19:33Z</time>
      </trkpt>
      <trkpt lat="42.27089" lon="1.74664">
        <ele>1735</ele>
        <time>2010-01-01T02:19:36Z</time>
      </trkpt>
      <trkpt lat="42.27096" lon="1.74662">
        <ele>1738</ele>
        <time>2010-01-01T02:19:39Z</time>
      </trkpt>
      <trkpt lat="42.2709" lon="1.74661">
        <ele>1735</ele>
        <time>2010-01-01T02:19:41Z</time>
      </trkpt>
      <trkpt lat="42.27095" lon="1.74661">
        <ele>1738</ele>
        <time>2010-01-01T02:19:44Z</time>
      </trkpt>
      <trkpt lat="42.27102" lon="1.74667">
        <ele>1741</ele>
        <time>2010-01-01T02:19:47Z</time>
      </trkpt>
      <trkpt lat="42.27104" lon="1.74673">
        <ele>1742</ele>
        <time>2010-01-01T02:19:49Z</time>
      </trkpt>
      <trkpt lat="42.2712" lon="1.74684">
        <ele>1751</ele>
        <time>2010-01-01T02:19:56Z</time>
      </trkpt>
      <trkpt lat="42.27135" lon="1.74687">
        <ele>1758</ele>
        <time>2010-01-01T02:20:02Z</time>
      </trkpt>
      <trkpt lat="42.27143" lon="1.74696">
        <ele>1761</ele>
        <time>2010-01-01T02:20:06Z</time>
      </trkpt>
      <trkpt lat="42.27149" lon="1.747">
        <ele>1763</ele>
        <time>2010-01-01T02:20:09Z</time>
      </trkpt>
      <trkpt lat="42.2716" lon="1.74704">
        <ele>1766</ele>
        <time>2010-01-01T02:20:14Z</time>
      </trkpt>
      <trkpt lat="42.27163" lon="1.74711">
        <ele>1767</ele>
        <time>2010-01-01T02:20:16Z</time>
      </trkpt>
      <trkpt lat="42.27171" lon="1.74711">
        <ele>1770</ele>
        <time>2010-01-01T02:20:19Z</time>
      </trkpt>
      <trkpt lat="42.27178" lon="1.74707">
        <ele>1772</ele>
        <time>2010-01-01T02:20:22Z</time>
      </trkpt>
      <trkpt lat="42.27183" lon="1.747">
        <ele>1774</ele>
        <time>2010-01-01T02:20:25Z</time>
      </trkpt>
      <trkpt lat="42.27195" lon="1.74711">
        <ele>1778</ele>
        <time>2010-01-01T02:20:31Z</time>
      </trkpt>
      <trkpt lat="42.27206" lon="1.74708">
        <ele>1782</ele>
        <time>2010-01-01T02:20:35Z</time>
      </trkpt>
      <trkpt lat="42.27211" lon="1.74708">
        <ele>1784</ele>
        <time>2010-01-01T02:20:37Z</time>
      </trkpt>
      <trkpt lat="42.27235" lon="1.7472">
        <ele>1793</ele>
        <time>2010-01-01T02:20:48Z</time>
      </trkpt>
      <trkpt lat="42.27239" lon="1.74725">
        <ele>1794</ele>
        <time>2010-01-01T02:20:50Z</time>
      </trkpt>
      <trkpt lat="42.27256" lon="1.74739">
        <ele>1800</ele>
        <time>2010-01-01T02:20:58Z</time>
      </trkpt>
      <trkpt lat="42.2726" lon="1.74731">
        <ele>1803</ele>
        <time>2010-01-01T02:21:01Z</time>
      </trkpt>
      <trkpt lat="42.27284" lon="1.74721">
        <ele>1816</ele>
        <time>2010-01-01T02:21:11Z</time>
      </trkpt>
      <trkpt lat="42.27286" lon="1.74724">
        <ele>1817</ele>
        <time>2010-01-01T02:21:12Z</time>
      </trkpt>
      <trkpt lat="42.2729" lon="1.74717">
        <ele>1820</ele>
        <time>2010-01-01T02:21:14Z</time>
      </trkpt>
      <trkpt lat="42.273" lon="1.74715">
        <ele>1825</ele>
        <time>2010-01-01T02:21:18Z</time>
      </trkpt>
      <trkpt lat="42.27309" lon="1.74708">
        <ele>1831</ele>
        <time>2010-01-01T02:21:22Z</time>
      </trkpt>
      <trkpt lat="42.27313" lon="1.74705">
        <ele>1834</ele>
        <time>2010-01-01T02:21:24Z</time>
      </trkpt>
      <trkpt lat="42.27315" lon="1.74698">
        <ele>1836</ele>
        <time>2010-01-01T02:21:27Z</time>
      </trkpt>
      <trkpt lat="42.27317" lon="1.74707">
        <ele>1836</ele>
        <time>2010-01-01T02:21:30Z</time>
      </trkpt>
      <trkpt lat="42.27323" lon="1.74707">
        <ele>1839</ele>
        <time>2010-01-01T02:21:32Z</time>
      </trkpt>
      <trkpt lat="42.27326" lon="1.74713">
        <ele>1840</ele>
        <time>2010-01-01T02:21:34Z</time>
      </trkpt>
      <trkpt lat="42.27334" lon="1.74705">
        <ele>1845</ele>
        <time>2010-01-01T02:21:38Z</time>
      </trkpt>
      <trkpt lat="42.27347" lon="1.747">
        <ele>1850</ele>
        <time>2010-01-01T02:21:43Z</time>
      </trkpt>
      <trkpt lat="42.27353" lon="1.74701">
        <ele>1853</ele>
        <time>2010-01-01T02:21:46Z</time>
      </trkpt>
      <trkpt lat="42.27357" lon="1.74704">
        <ele>1854</ele>
        <time>2010-01-01T02:21:48Z</time>
      </trkpt>
      <trkpt lat="42.27359" lon="1.7471">
        <ele>1854</ele>
        <time>2010-01-01T02:21:50Z</time>
      </trkpt>
      <trkpt lat="42.27363" lon="1.74707">
        <ele>1856</ele>
        <time>2010-01-01T02:21:52Z</time>
      </trkpt>
      <trkpt lat="42.27369" lon="1.74706">
        <ele>1858</ele>
        <time>2010-01-01T02:21:54Z</time>
      </trkpt>
      <trkpt lat="42.27374" lon="1.74708">
        <ele>1859</ele>
        <time>2010-01-01T02:21:56Z</time>
      </trkpt>
      <trkpt lat="42.27375" lon="1.74712">
        <ele>1859</ele>
        <time>2010-01-01T02:21:58Z</time>
      </trkpt>
      <trkpt lat="42.27383" lon="1.74721">
        <ele>1860</ele>
        <time>2010-01-01T02:22:02Z</time>
      </trkpt>
      <trkpt lat="42.27388" lon="1.7473">
        <ele>1861</ele>
        <time>2010-01-01T02:22:05Z</time>
      </trkpt>
      <trkpt lat="42.2739" lon="1.74736">
        <ele>1862</ele>
        <time>2010-01-01T02:22:07Z</time>
      </trkpt>
      <trkpt lat="42.2739" lon="1.74755">
        <ele>1861</ele>
        <time>2010-01-01T02:22:13Z</time>
      </trkpt>
      <trkpt lat="42.27403" lon="1.7478">
        <ele>1863</ele>
        <time>2010-01-01T02:22:21Z</time>
      </trkpt>
      <trkpt lat="42.27402" lon="1.74786">
        <ele>1863</ele>
        <time>2010-01-01T02:22:23Z</time>
      </trkpt>
      <trkpt lat="42.27408" lon="1.74794">
        <ele>1865</ele>
        <time>2010-01-01T02:22:27Z</time>
      </trkpt>
      <trkpt lat="42.27416" lon="1.74798">
        <ele>1868</ele>
        <time>2010-01-01T02:22:30Z</time>
      </trkpt>
      <trkpt lat="42.2742" lon="1.74803">
        <ele>1869</ele>
        <time>2010-01-01T02:22:32Z</time>
      </trkpt>
      <trkpt lat="42.27429" lon="1.74807">
        <ele>1873</ele>
        <time>2010-01-01T02:22:36Z</time>
      </trkpt>
      <trkpt lat="42.27439" lon="1.74809">
        <ele>1878</ele>
        <time>2010-01-01T02:22:40Z</time>
      </trkpt>
      <trkpt lat="42.27442" lon="1.74815">
        <ele>1879</ele>
        <time>2010-01-01T02:22:42Z</time>
      </trkpt>
      <trkpt lat="42.27451" lon="1.7481">
        <ele>1883</ele>
        <time>2010-01-01T02:22:46Z</time>
      </trkpt>
      <trkpt lat="42.27457" lon="1.74813">
        <ele>1886</ele>
        <time>2010-01-01T02:22:49Z</time>
      </trkpt>
      <trkpt lat="42.27477" lon="1.74832">
        <ele>1891</ele>
        <time>2010-01-01T02:22:58Z</time>
      </trkpt>
      <trkpt lat="42.27478" lon="1.74835">
        <ele>1892</ele>
        <time>2010-01-01T02:22:59Z</time>
      </trkpt>
      <trkpt lat="42.27478" lon="1.74847">
        <ele>1891</ele>
        <time>2010-01-01T02:23:03Z</time>
      </trkpt>
      <trkpt lat="42.27485" lon="1.74853">
        <ele>1894</ele>
        <time>2010-01-01T02:23:07Z</time>
      </trkpt>
      <trkpt lat="42.27485" lon="1.74867">
        <ele>1894</ele>
        <time>2010-01-01T02:23:11Z</time>
      </trkpt>
      <trkpt lat="42.27488" lon="1.74879">
        <ele>1897</ele>
        <time>2010-01-01T02:23:14Z</time>
      </trkpt>
      <trkpt lat="42.27489" lon="1.74894">
        <ele>1899</ele>
        <time>2010-01-01T02:23:19Z</time>
      </trkpt>
      <trkpt lat="42.2749" lon="1.7488">
        <ele>1898</ele>
        <time>2010-01-01T02:23:23Z</time>
      </trkpt>
      <trkpt lat="42.27485" lon="1.74884">
        <ele>1896</ele>
        <time>2010-01-01T02:23:25Z</time>
      </trkpt>
      <trkpt lat="42.27492" lon="1.74905">
        <ele>1901</ele>
        <time>2010-01-01T02:23:32Z</time>
      </trkpt>
      <trkpt lat="42.27491" lon="1.74926">
        <ele>1900</ele>
        <time>2010-01-01T02:23:38Z</time>
      </trkpt>
      <trkpt lat="42.27496" lon="1.74934">
        <ele>1903</ele>
        <time>2010-01-01T02:23:41Z</time>
      </trkpt>
      <trkpt lat="42.27498" lon="1.74941">
        <ele>1903</ele>
        <time>2010-01-01T02:23:43Z</time>
      </trkpt>
      <trkpt lat="42.27498" lon="1.74948">
        <ele>1903</ele>
        <time>2010-01-01T02:23:45Z</time>
      </trkpt>
      <trkpt lat="42.27501" lon="1.74952">
        <ele>1905</ele>
        <time>2010-01-01T02:23:47Z</time>
      </trkpt>
      <trkpt lat="42.275" lon="1.74965">
        <ele>1905</ele>
        <time>2010-01-01T02:23:51Z</time>
      </trkpt>
      <trkpt lat="42.27507" lon="1.74983">
        <ele>1908</ele>
        <time>2010-01-01T02:23:57Z</time>
      </trkpt>
      <trkpt lat="42.27506" lon="1.74997">
        <ele>1908</ele>
        <time>2010-01-01T02:24:01Z</time>
      </trkpt>
      <trkpt lat="42.27512" lon="1.75008">
        <ele>1911</ele>
        <time>2010-01-01T02:24:05Z</time>
      </trkpt>
      <trkpt lat="42.27511" lon="1.75016">
        <ele>1911</ele>
        <time>2010-01-01T02:24:08Z</time>
      </trkpt>
      <trkpt lat="42.27521" lon="1.75021">
        <ele>1916</ele>
        <time>2010-01-01T02:24:12Z</time>
      </trkpt>
      <trkpt lat="42.27527" lon="1.75033">
        <ele>1919</ele>
        <time>2010-01-01T02:24:16Z</time>
      </trkpt>
      <trkpt lat="42.27529" lon="1.75031">
        <ele>1920</ele>
        <time>2010-01-01T02:24:17Z</time>
      </trkpt>
      <trkpt lat="42.27529" lon="1.75039">
        <ele>1919</ele>
        <time>2010-01-01T02:24:20Z</time>
      </trkpt>
      <trkpt lat="42.27535" lon="1.75048">
        <ele>1922</ele>
        <time>2010-01-01T02:24:23Z</time>
      </trkpt>
      <trkpt lat="42.27541" lon="1.75051">
        <ele>1924</ele>
        <time>2010-01-01T02:24:26Z</time>
      </trkpt>
      <trkpt lat="42.27553" lon="1.75079">
        <ele>1926</ele>
        <time>2010-01-01T02:24:35Z</time>
      </trkpt>
      <trkpt lat="42.2756" lon="1.75088">
        <ele>1929</ele>
        <time>2010-01-01T02:24:39Z</time>
      </trkpt>
      <trkpt lat="42.27563" lon="1.75113">
        <ele>1924</ele>
        <time>2010-01-01T02:24:47Z</time>
      </trkpt>
      <trkpt lat="42.27571" lon="1.75127">
        <ele>1926</ele>
        <time>2010-01-01T02:24:52Z</time>
      </trkpt>
      <trkpt lat="42.27582" lon="1.75135">
        <ele>1931</ele>
        <time>2010-01-01T02:24:57Z</time>
      </trkpt>
      <trkpt lat="42.27584" lon="1.75144">
        <ele>1930</ele>
        <time>2010-01-01T02:25:00Z</time>
      </trkpt>
      <trkpt lat="42.27597" lon="1.75153">
        <ele>1935</ele>
        <time>2010-01-01T02:25:06Z</time>
      </trkpt>
      <trkpt lat="42.27607" lon="1.75178">
        <ele>1937</ele>
        <time>2010-01-01T02:25:14Z</time>
      </trkpt>
      <trkpt lat="42.27625" lon="1.75191">
        <ele>1944</ele>
        <time>2010-01-01T02:25:22Z</time>
      </trkpt>
      <trkpt lat="42.27626" lon="1.75199">
        <ele>1944</ele>
        <time>2010-01-01T02:25:25Z</time>
      </trkpt>
      <trkpt lat="42.2764" lon="1.75229">
        <ele>1950</ele>
        <time>2010-01-01T02:25:35Z</time>
      </trkpt>
      <trkpt lat="42.27649" lon="1.75236">
        <ele>1952</ele>
        <time>2010-01-01T02:25:39Z</time>
      </trkpt>
      <trkpt lat="42.27664" lon="1.75241">
        <ele>1957</ele>
        <time>2010-01-01T02:25:45Z</time>
      </trkpt>
      <trkpt lat="42.27664" lon="1.75243">
        <ele>1957</ele>
        <time>2010-01-01T02:25:46Z</time>
      </trkpt>
      <trkpt lat="42.27668" lon="1.75245">
        <ele>1958</ele>
        <time>2010-01-01T02:25:48Z</time>
      </trkpt>
      <trkpt lat="42.27669" lon="1.75247">
        <ele>1958</ele>
        <time>2010-01-01T02:25:48Z</time>
      </trkpt>
      <trkpt lat="42.27682" lon="1.75239">
        <ele>1963</ele>
        <time>2010-01-01T02:25:54Z</time>
      </trkpt>
      <trkpt lat="42.27698" lon="1.75225">
        <ele>1970</ele>
        <time>2010-01-01T02:26:02Z</time>
      </trkpt>
      <trkpt lat="42.27701" lon="1.75204">
        <ele>1974</ele>
        <time>2010-01-01T02:26:08Z</time>
      </trkpt>
      <trkpt lat="42.277" lon="1.75193">
        <ele>1975</ele>
        <time>2010-01-01T02:26:12Z</time>
      </trkpt>
      <trkpt lat="42.27702" lon="1.75179">
        <ele>1979</ele>
        <time>2010-01-01T02:26:16Z</time>
      </trkpt>
      <trkpt lat="42.277" lon="1.75155">
        <ele>1983</ele>
        <time>2010-01-01T02:26:23Z</time>
      </trkpt>
      <trkpt lat="42.27697" lon="1.75141">
        <ele>1983</ele>
        <time>2010-01-01T02:26:27Z</time>
      </trkpt>
      <trkpt lat="42.27696" lon="1.75129">
        <ele>1985</ele>
        <time>2010-01-01T02:26:31Z</time>
      </trkpt>
      <trkpt lat="42.27691" lon="1.75127">
        <ele>1982</ele>
        <time>2010-01-01T02:26:33Z</time>
      </trkpt>
      <trkpt lat="42.27692" lon="1.75104">
        <ele>1988</ele>
        <time>2010-01-01T02:26:40Z</time>
      </trkpt>
      <trkpt lat="42.27691" lon="1.75095">
        <ele>1990</ele>
        <time>2010-01-01T02:26:43Z</time>
      </trkpt>
      <trkpt lat="42.27691" lon="1.75068">
        <ele>1997</ele>
        <time>2010-01-01T02:26:51Z</time>
      </trkpt>
      <trkpt lat="42.27698" lon="1.75044">
        <ele>2006</ele>
        <time>2010-01-01T02:26:58Z</time>
      </trkpt>
      <trkpt lat="42.27697" lon="1.75037">
        <ele>2007</ele>
        <time>2010-01-01T02:27:00Z</time>
      </trkpt>
      <trkpt lat="42.27699" lon="1.75008">
        <ele>2012</ele>
        <time>2010-01-01T02:27:09Z</time>
      </trkpt>
      <trkpt lat="42.27697" lon="1.74989">
        <ele>2014</ele>
        <time>2010-01-01T02:27:14Z</time>
      </trkpt>
      <trkpt lat="42.27698" lon="1.74971">
        <ele>2017</ele>
        <time>2010-01-01T02:27:20Z</time>
      </trkpt>
      <trkpt lat="42.27701" lon="1.7496">
        <ele>2019</ele>
        <time>2010-01-01T02:27:24Z</time>
      </trkpt>
      <trkpt lat="42.27699" lon="1.7495">
        <ele>2019</ele>
        <time>2010-01-01T02:27:27Z</time>
      </trkpt>
      <trkpt lat="42.27702" lon="1.74945">
        <ele>2020</ele>
        <time>2010-01-01T02:27:28Z</time>
      </trkpt>
      <trkpt lat="42.27707" lon="1.74952">
        <ele>2022</ele>
        <time>2010-01-01T02:27:31Z</time>
      </trkpt>
      <trkpt lat="42.27713" lon="1.74958">
        <ele>2025</ele>
        <time>2010-01-01T02:27:34Z</time>
      </trkpt>
      <trkpt lat="42.27738" lon="1.74963">
        <ele>2037</ele>
        <time>2010-01-01T02:27:44Z</time>
      </trkpt>
      <trkpt lat="42.27742" lon="1.74973">
        <ele>2037</ele>
        <time>2010-01-01T02:27:47Z</time>
      </trkpt>
      <trkpt lat="42.27744" lon="1.74965">
        <ele>2039</ele>
        <time>2010-01-01T02:27:50Z</time>
      </trkpt>
      <trkpt lat="42.27746" lon="1.74964">
        <ele>2040</ele>
        <time>2010-01-01T02:27:51Z</time>
      </trkpt>
      <trkpt lat="42.27749" lon="1.74957">
        <ele>2043</ele>
        <time>2010-01-01T02:27:53Z</time>
      </trkpt>
      <trkpt lat="42.2775" lon="1.74951">
        <ele>2044</ele>
        <time>2010-01-01T02:27:55Z</time>
      </trkpt>
      <trkpt lat="42.27765" lon="1.74957">
        <ele>2050</ele>
        <time>2010-01-01T02:28:01Z</time>
      </trkpt>
      <trkpt lat="42.27774" lon="1.74953">
        <ele>2055</ele>
        <time>2010-01-01T02:28:05Z</time>
      </trkpt>
      <trkpt lat="42.27776" lon="1.74955">
        <ele>2056</ele>
        <time>2010-01-01T02:28:06Z</time>
      </trkpt>
      <trkpt lat="42.2778" lon="1.74941">
        <ele>2060</ele>
        <time>2010-01-01T02:28:10Z</time>
      </trkpt>
      <trkpt lat="42.2778" lon="1.74934">
        <ele>2061</ele>
        <time>2010-01-01T02:28:13Z</time>
      </trkpt>
      <trkpt lat="42.27789" lon="1.74923">
        <ele>2065</ele>
        <time>2010-01-01T02:28:17Z</time>
      </trkpt>
      <trkpt lat="42.27802" lon="1.74919">
        <ele>2072</ele>
        <time>2010-01-01T02:28:23Z</time>
      </trkpt>
      <trkpt lat="42.27808" lon="1.74913">
        <ele>2075</ele>
        <time>2010-01-01T02:28:26Z</time>
      </trkpt>
      <trkpt lat="42.27808" lon="1.74903">
        <ele>2077</ele>
        <time>2010-01-01T02:28:29Z</time>
      </trkpt>
      <trkpt lat="42.27811" lon="1.74895">
        <ele>2080</ele>
        <time>2010-01-01T02:28:31Z</time>
      </trkpt>
      <trkpt lat="42.2781" lon="1.74892">
        <ele>2080</ele>
        <time>2010-01-01T02:28:32Z</time>
      </trkpt>
      <trkpt lat="42.27813" lon="1.74878">
        <ele>2082</ele>
        <time>2010-01-01T02:28:37Z</time>
      </trkpt>
      <trkpt lat="42.27811" lon="1.74866">
        <ele>2082</ele>
        <time>2010-01-01T02:28:40Z</time>
      </trkpt>
      <trkpt lat="42.27817" lon="1.74849">
        <ele>2085</ele>
        <time>2010-01-01T02:28:46Z</time>
      </trkpt>
      <trkpt lat="42.27818" lon="1.74838">
        <ele>2087</ele>
        <time>2010-01-01T02:28:49Z</time>
      </trkpt>
      <trkpt lat="42.27828" lon="1.74827">
        <ele>2093</ele>
        <time>2010-01-01T02:28:54Z</time>
      </trkpt>
      <trkpt lat="42.27836" lon="1.7482">
        <ele>2098</ele>
        <time>2010-01-01T02:28:58Z</time>
      </trkpt>
      <trkpt lat="42.27841" lon="1.7482">
        <ele>2100</ele>
        <time>2010-01-01T02:29:00Z</time>
      </trkpt>
      <trkpt lat="42.27842" lon="1.74806">
        <ele>2102</ele>
        <time>2010-01-01T02:29:04Z</time>
      </trkpt>
      <trkpt lat="42.27852" lon="1.74816">
        <ele>2105</ele>
        <time>2010-01-01T02:29:09Z</time>
      </trkpt>
      <trkpt lat="42.27853" lon="1.74815">
        <ele>2106</ele>
        <time>2010-01-01T02:29:09Z</time>
      </trkpt>
      <trkpt lat="42.27865" lon="1.74823">
        <ele>2111</ele>
        <time>2010-01-01T02:29:14Z</time>
      </trkpt>
      <trkpt lat="42.27869" lon="1.74819">
        <ele>2113</ele>
        <time>2010-01-01T02:29:16Z</time>
      </trkpt>
      <trkpt lat="42.27877" lon="1.74819">
        <ele>2117</ele>
        <time>2010-01-01T02:29:20Z</time>
      </trkpt>
      <trkpt lat="42.2788" lon="1.74824">
        <ele>2118</ele>
        <time>2010-01-01T02:29:22Z</time>
      </trkpt>
      <trkpt lat="42.27881" lon="1.7482">
        <ele>2119</ele>
        <time>2010-01-01T02:29:23Z</time>
      </trkpt>
      <trkpt lat="42.27885" lon="1.74816">
        <ele>2121</ele>
        <time>2010-01-01T02:29:25Z</time>
      </trkpt>
      <trkpt lat="42.27885" lon="1.74807">
        <ele>2123</ele>
        <time>2010-01-01T02:29:27Z</time>
      </trkpt>
      <trkpt lat="42.27889" lon="1.74803">
        <ele>2126</ele>
        <time>2010-01-01T02:29:29Z</time>
      </trkpt>
      <trkpt lat="42.27891" lon="1.74809">
        <ele>2125</ele>
        <time>2010-01-01T02:29:31Z</time>
      </trkpt>
      <trkpt lat="42.27895" lon="1.74813">
        <ele>2125</ele>
        <time>2010-01-01T02:29:33Z</time>
      </trkpt>
      <trkpt lat="42.279" lon="1.74832">
        <ele>2123</ele>
        <time>2010-01-01T02:29:39Z</time>
      </trkpt>
      <trkpt lat="42.2791" lon="1.7482">
        <ele>2128</ele>
        <time>2010-01-01T02:29:44Z</time>
      </trkpt>
      <trkpt lat="42.27913" lon="1.74812">
        <ele>2131</ele>
        <time>2010-01-01T02:29:47Z</time>
      </trkpt>
      <trkpt lat="42.27917" lon="1.74809">
        <ele>2133</ele>
        <time>2010-01-01T02:29:48Z</time>
      </trkpt>
      <trkpt lat="42.27921" lon="1.748">
        <ele>2134</ele>
        <time>2010-01-01T02:29:52Z</time>
      </trkpt>
      <trkpt lat="42.27921" lon="1.74773">
        <ele>2144</ele>
        <time>2010-01-01T02:30:00Z</time>
      </trkpt>
      <trkpt lat="42.27922" lon="1.74759">
        <ele>2143</ele>
        <time>2010-01-01T02:30:04Z</time>
      </trkpt>
      <trkpt lat="42.27914" lon="1.74748">
        <ele>2143</ele>
        <time>2010-01-01T02:30:08Z</time>
      </trkpt>
      <trkpt lat="42.27913" lon="1.74736">
        <ele>2146</ele>
        <time>2010-01-01T02:30:12Z</time>
      </trkpt>
      <trkpt lat="42.27906" lon="1.74733">
        <ele>2143</ele>
        <time>2010-01-01T02:30:15Z</time>
      </trkpt>
      <trkpt lat="42.27897" lon="1.74679">
        <ele>2150</ele>
        <time>2010-01-01T02:30:32Z</time>
      </trkpt>
      <trkpt lat="42.27895" lon="1.74656">
        <ele>2153</ele>
        <time>2010-01-01T02:30:38Z</time>
      </trkpt>
      <trkpt lat="42.27881" lon="1.74645">
        <ele>2147</ele>
        <time>2010-01-01T02:30:45Z</time>
      </trkpt>
      <trkpt lat="42.2788" lon="1.74628">
        <ele>2147</ele>
        <time>2010-01-01T02:30:50Z</time>
      </trkpt>
      <trkpt lat="42.27871" lon="1.74629">
        <ele>2143</ele>
        <time>2010-01-01T02:30:53Z</time>
      </trkpt>
      <trkpt lat="42.27865" lon="1.74618">
        <ele>2141</ele>
        <time>2010-01-01T02:30:57Z</time>
      </trkpt>
      <trkpt lat="42.27861" lon="1.74576">
        <ele>2146</ele>
        <time>2010-01-01T02:31:10Z</time>
      </trkpt>
      <trkpt lat="42.27862" lon="1.74552">
        <ele>2150</ele>
        <time>2010-01-01T02:31:17Z</time>
      </trkpt>
      <trkpt lat="42.2786" lon="1.7454">
        <ele>2151</ele>
        <time>2010-01-01T02:31:20Z</time>
      </trkpt>
      <trkpt lat="42.27864" lon="1.74513">
        <ele>2158</ele>
        <time>2010-01-01T02:31:29Z</time>
      </trkpt>
      <trkpt lat="42.27862" lon="1.74507">
        <ele>2158</ele>
        <time>2010-01-01T02:31:30Z</time>
      </trkpt>
      <trkpt lat="42.27865" lon="1.74493">
        <ele>2163</ele>
        <time>2010-01-01T02:31:35Z</time>
      </trkpt>
      <trkpt lat="42.27866" lon="1.74469">
        <ele>2166</ele>
        <time>2010-01-01T02:31:42Z</time>
      </trkpt>
      <trkpt lat="42.27869" lon="1.74464">
        <ele>2169</ele>
        <time>2010-01-01T02:31:44Z</time>
      </trkpt>
      <trkpt lat="42.27871" lon="1.74451">
        <ele>2172</ele>
        <time>2010-01-01T02:31:48Z</time>
      </trkpt>
      <trkpt lat="42.27875" lon="1.74448">
        <ele>2175</ele>
        <time>2010-01-01T02:31:50Z</time>
      </trkpt>
      <trkpt lat="42.27878" lon="1.74438">
        <ele>2178</ele>
        <time>2010-01-01T02:31:53Z</time>
      </trkpt>
      <trkpt lat="42.27877" lon="1.74431">
        <ele>2179</ele>
        <time>2010-01-01T02:31:55Z</time>
      </trkpt>
      <trkpt lat="42.27879" lon="1.74431">
        <ele>2180</ele>
        <time>2010-01-01T02:31:55Z</time>
      </trkpt>
      <trkpt lat="42.27877" lon="1.74422">
        <ele>2181</ele>
        <time>2010-01-01T02:31:58Z</time>
      </trkpt>
      <trkpt lat="42.27882" lon="1.74411">
        <ele>2187</ele>
        <time>2010-01-01T02:32:02Z</time>
      </trkpt>
      <trkpt lat="42.27882" lon="1.74389">
        <ele>2193</ele>
        <time>2010-01-01T02:32:08Z</time>
      </trkpt>
      <trkpt lat="42.2789" lon="1.74372">
        <ele>2200</ele>
        <time>2010-01-01T02:32:14Z</time>
      </trkpt>
      <trkpt lat="42.27891" lon="1.74365">
        <ele>2202</ele>
        <time>2010-01-01T02:32:16Z</time>
      </trkpt>
      <trkpt lat="42.27889" lon="1.74363">
        <ele>2201</ele>
        <time>2010-01-01T02:32:17Z</time>
      </trkpt>
      <trkpt lat="42.27889" lon="1.74342">
        <ele>2206</ele>
        <time>2010-01-01T02:32:23Z</time>
      </trkpt>
      <trkpt lat="42.27892" lon="1.74335">
        <ele>2209</ele>
        <time>2010-01-01T02:32:26Z</time>
      </trkpt>
      <trkpt lat="42.27892" lon="1.74329">
        <ele>2210</ele>
        <time>2010-01-01T02:32:28Z</time>
      </trkpt>
      <trkpt lat="42.27887" lon="1.74318">
        <ele>2212</ele>
        <time>2010-01-01T02:32:31Z</time>
      </trkpt>
      <trkpt lat="42.27891" lon="1.74313">
        <ele>2215</ele>
        <time>2010-01-01T02:32:34Z</time>
      </trkpt>
      <trkpt lat="42.27888" lon="1.74295">
        <ele>2220</ele>
        <time>2010-01-01T02:32:39Z</time>
      </trkpt>
      <trkpt lat="42.27888" lon="1.7428">
        <ele>2225</ele>
        <time>2010-01-01T02:32:43Z</time>
      </trkpt>
      <trkpt lat="42.27886" lon="1.74271">
        <ele>2228</ele>
        <time>2010-01-01T02:32:46Z</time>
      </trkpt>
      <trkpt lat="42.27887" lon="1.74267">
        <ele>2230</ele>
        <time>2010-01-01T02:32:47Z</time>
      </trkpt>
      <trkpt lat="42.27881" lon="1.74246">
        <ele>2235</ele>
        <time>2010-01-01T02:32:54Z</time>
      </trkpt>
      <trkpt lat="42.27874" lon="1.74237">
        <ele>2235</ele>
        <time>2010-01-01T02:32:58Z</time>
      </trkpt>
      <trkpt lat="42.27876" lon="1.74212">
        <ele>2241</ele>
        <time>2010-01-01T02:33:05Z</time>
      </trkpt>
      <trkpt lat="42.2788" lon="1.74204">
        <ele>2245</ele>
        <time>2010-01-01T02:33:09Z</time>
      </trkpt>
      <trkpt lat="42.27871" lon="1.74204">
        <ele>2240</ele>
        <time>2010-01-01T02:33:12Z</time>
      </trkpt>
      <trkpt lat="42.27861" lon="1.74198">
        <ele>2237</ele>
        <time>2010-01-01T02:33:17Z</time>
      </trkpt>
      <trkpt lat="42.27825" lon="1.74168">
        <ele>2237</ele>
        <time>2010-01-01T02:33:34Z</time>
      </trkpt>
      <trkpt lat="42.27821" lon="1.74156">
        <ele>2240</ele>
        <time>2010-01-01T02:33:38Z</time>
      </trkpt>
      <trkpt lat="42.27815" lon="1.74146">
        <ele>2241</ele>
        <time>2010-01-01T02:33:41Z</time>
      </trkpt>
      <trkpt lat="42.27814" lon="1.74137">
        <ele>2244</ele>
        <time>2010-01-01T02:33:44Z</time>
      </trkpt>
      <trkpt lat="42.27799" lon="1.7411">
        <ele>2240</ele>
        <time>2010-01-01T02:33:54Z</time>
      </trkpt>
      <trkpt lat="42.27799" lon="1.74098">
        <ele>2241</ele>
        <time>2010-01-01T02:33:58Z</time>
      </trkpt>
      <trkpt lat="42.27793" lon="1.74091">
        <ele>2238</ele>
        <time>2010-01-01T02:34:01Z</time>
      </trkpt>
      <trkpt lat="42.27788" lon="1.74081">
        <ele>2235</ele>
        <time>2010-01-01T02:34:04Z</time>
      </trkpt>
      <trkpt lat="42.2779" lon="1.74061">
        <ele>2238</ele>
        <time>2010-01-01T02:34:10Z</time>
      </trkpt>
      <trkpt lat="42.27787" lon="1.7405">
        <ele>2238</ele>
        <time>2010-01-01T02:34:14Z</time>
      </trkpt>
      <trkpt lat="42.27788" lon="1.74023">
        <ele>2241</ele>
        <time>2010-01-01T02:34:22Z</time>
      </trkpt>
      <trkpt lat="42.27788" lon="1.74013">
        <ele>2241</ele>
        <time>2010-01-01T02:34:25Z</time>
      </trkpt>
      <trkpt lat="42.27792" lon="1.73984">
        <ele>2244</ele>
        <time>2010-01-01T02:34:34Z</time>
      </trkpt>
      <trkpt lat="42.27798" lon="1.73973">
        <ele>2248</ele>
        <time>2010-01-01T02:34:38Z</time>
      </trkpt>
      <trkpt lat="42.27799" lon="1.7396">
        <ele>2246</ele>
        <time>2010-01-01T02:34:41Z</time>
      </trkpt>
      <trkpt lat="42.27803" lon="1.73955">
        <ele>2247</ele>
        <time>2010-01-01T02:34:44Z</time>
      </trkpt>
      <trkpt lat="42.27808" lon="1.73912">
        <ele>2247</ele>
        <time>2010-01-01T02:34:57Z</time>
      </trkpt>
      <trkpt lat="42.27808" lon="1.73899">
        <ele>2246</ele>
        <time>2010-01-01T02:35:00Z</time>
      </trkpt>
      <trkpt lat="42.27811" lon="1.73888">
        <ele>2248</ele>
        <time>2010-01-01T02:35:04Z</time>
      </trkpt>
      <trkpt lat="42.27817" lon="1.73888">
        <ele>2251</ele>
        <time>2010-01-01T02:35:06Z</time>
      </trkpt>
      <trkpt lat="42.27822" lon="1.73876">
        <ele>2253</ele>
        <time>2010-01-01T02:35:10Z</time>
      </trkpt>
      <trkpt lat="42.27829" lon="1.73882">
        <ele>2257</ele>
        <time>2010-01-01T02:35:13Z</time>
      </trkpt>
      <trkpt lat="42.27839" lon="1.73887">
        <ele>2263</ele>
        <time>2010-01-01T02:35:17Z</time>
      </trkpt>
      <trkpt lat="42.27847" lon="1.73874">
        <ele>2265</ele>
        <time>2010-01-01T02:35:23Z</time>
      </trkpt>
      <trkpt lat="42.27853" lon="1.73875">
        <ele>2267</ele>
        <time>2010-01-01T02:35:25Z</time>
      </trkpt>
      <trkpt lat="42.27863" lon="1.73864">
        <ele>2271</ele>
        <time>2010-01-01T02:35:30Z</time>
      </trkpt>
      <trkpt lat="42.2787" lon="1.73852">
        <ele>2274</ele>
        <time>2010-01-01T02:35:35Z</time>
      </trkpt>
      <trkpt lat="42.27873" lon="1.73855">
        <ele>2276</ele>
        <time>2010-01-01T02:35:36Z</time>
      </trkpt>
      <trkpt lat="42.27875" lon="1.73854">
        <ele>2277</ele>
        <time>2010-01-01T02:35:37Z</time>
      </trkpt>
      <trkpt lat="42.27876" lon="1.73848">
        <ele>2277</ele>
        <time>2010-01-01T02:35:39Z</time>
      </trkpt>
      <trkpt lat="42.2788" lon="1.73847">
        <ele>2279</ele>
        <time>2010-01-01T02:35:40Z</time>
      </trkpt>
      <trkpt lat="42.27891" lon="1.73835">
        <ele>2285</ele>
        <time>2010-01-01T02:35:46Z</time>
      </trkpt>
      <trkpt lat="42.27895" lon="1.73835">
        <ele>2288</ele>
        <time>2010-01-01T02:35:47Z</time>
      </trkpt>
      <trkpt lat="42.27904" lon="1.73831">
        <ele>2292</ele>
        <time>2010-01-01T02:35:51Z</time>
      </trkpt>
      <trkpt lat="42.27917" lon="1.73812">
        <ele>2296</ele>
        <time>2010-01-01T02:35:59Z</time>
      </trkpt>
      <trkpt lat="42.27931" lon="1.73801">
        <ele>2301</ele>
        <time>2010-01-01T02:36:05Z</time>
      </trkpt>
      <trkpt lat="42.27939" lon="1.73787">
        <ele>2303</ele>
        <time>2010-01-01T02:36:11Z</time>
      </trkpt>
      <trkpt lat="42.27947" lon="1.73785">
        <ele>2307</ele>
        <time>2010-01-01T02:36:14Z</time>
      </trkpt>
      <trkpt lat="42.27956" lon="1.7378">
        <ele>2312</ele>
        <time>2010-01-01T02:36:18Z</time>
      </trkpt>
      <trkpt lat="42.27957" lon="1.7378">
        <ele>2313</ele>
        <time>2010-01-01T02:36:18Z</time>
      </trkpt>
      <trkpt lat="42.27969" lon="1.73772">
        <ele>2319</ele>
        <time>2010-01-01T02:36:24Z</time>
      </trkpt>
      <trkpt lat="42.27974" lon="1.73775">
        <ele>2322</ele>
        <time>2010-01-01T02:36:26Z</time>
      </trkpt>
      <trkpt lat="42.27975" lon="1.7378">
        <ele>2323</ele>
        <time>2010-01-01T02:36:27Z</time>
      </trkpt>
      <trkpt lat="42.27984" lon="1.73779">
        <ele>2326</ele>
        <time>2010-01-01T02:36:31Z</time>
      </trkpt>
      <trkpt lat="42.27992" lon="1.73775">
        <ele>2329</ele>
        <time>2010-01-01T02:36:34Z</time>
      </trkpt>
      <trkpt lat="42.27995" lon="1.7377">
        <ele>2329</ele>
        <time>2010-01-01T02:36:36Z</time>
      </trkpt>
      <trkpt lat="42.28009" lon="1.73761">
        <ele>2334</ele>
        <time>2010-01-01T02:36:42Z</time>
      </trkpt>
      <trkpt lat="42.28012" lon="1.73756">
        <ele>2335</ele>
        <time>2010-01-01T02:36:44Z</time>
      </trkpt>
      <trkpt lat="42.2802" lon="1.73756">
        <ele>2338</ele>
        <time>2010-01-01T02:36:47Z</time>
      </trkpt>
      <trkpt lat="42.28039" lon="1.7374">
        <ele>2344</ele>
        <time>2010-01-01T02:36:56Z</time>
      </trkpt>
      <trkpt lat="42.28051" lon="1.73734">
        <ele>2349</ele>
        <time>2010-01-01T02:37:02Z</time>
      </trkpt>
      <trkpt lat="42.28061" lon="1.73725">
        <ele>2350</ele>
        <time>2010-01-01T02:37:06Z</time>
      </trkpt>
      <trkpt lat="42.28067" lon="1.73724">
        <ele>2353</ele>
        <time>2010-01-01T02:37:09Z</time>
      </trkpt>
      <trkpt lat="42.28085" lon="1.73706">
        <ele>2357</ele>
        <time>2010-01-01T02:37:18Z</time>
      </trkpt>
      <trkpt lat="42.28093" lon="1.73703">
        <ele>2360</ele>
        <time>2010-01-01T02:37:21Z</time>
      </trkpt>
      <trkpt lat="42.28101" lon="1.73695">
        <ele>2362</ele>
        <time>2010-01-01T02:37:25Z</time>
      </trkpt>
      <trkpt lat="42.28106" lon="1.73695">
        <ele>2364</ele>
        <time>2010-01-01T02:37:27Z</time>
      </trkpt>
      <trkpt lat="42.2811" lon="1.73688">
        <ele>2364</ele>
        <time>2010-01-01T02:37:30Z</time>
      </trkpt>
      <trkpt lat="42.28122" lon="1.73678">
        <ele>2367</ele>
        <time>2010-01-01T02:37:35Z</time>
      </trkpt>
      <trkpt lat="42.28133" lon="1.73664">
        <ele>2368</ele>
        <time>2010-01-01T02:37:41Z</time>
      </trkpt>
      <trkpt lat="42.28142" lon="1.73659">
        <ele>2371</ele>
        <time>2010-01-01T02:37:45Z</time>
      </trkpt>
      <trkpt lat="42.28151" lon="1.73648">
        <ele>2371</ele>
        <time>2010-01-01T02:37:50Z</time>
      </trkpt>
      <trkpt lat="42.28156" lon="1.73649">
        <ele>2374</ele>
        <time>2010-01-01T02:37:52Z</time>
      </trkpt>
      <trkpt lat="42.28159" lon="1.73648">
        <ele>2375</ele>
        <time>2010-01-01T02:37:53Z</time>
      </trkpt>
      <trkpt lat="42.2818" lon="1.73656">
        <ele>2388</ele>
        <time>2010-01-01T02:38:02Z</time>
      </trkpt>
      <trkpt lat="42.2819" lon="1.73653">
        <ele>2393</ele>
        <time>2010-01-01T02:38:06Z</time>
      </trkpt>
      <trkpt lat="42.28198" lon="1.73647">
        <ele>2394</ele>
        <time>2010-01-01T02:38:10Z</time>
      </trkpt>
      <trkpt lat="42.28207" lon="1.73647">
        <ele>2397</ele>
        <time>2010-01-01T02:38:13Z</time>
      </trkpt>
      <trkpt lat="42.28213" lon="1.73645">
        <ele>2398</ele>
        <time>2010-01-01T02:38:16Z</time>
      </trkpt>
      <trkpt lat="42.28222" lon="1.7365">
        <ele>2402</ele>
        <time>2010-01-01T02:38:20Z</time>
      </trkpt>
      <trkpt lat="42.28227" lon="1.73647">
        <ele>2402</ele>
        <time>2010-01-01T02:38:22Z</time>
      </trkpt>
      <trkpt lat="42.28238" lon="1.73646">
        <ele>2404</ele>
        <time>2010-01-01T02:38:26Z</time>
      </trkpt>
      <trkpt lat="42.28251" lon="1.73659">
        <ele>2411</ele>
        <time>2010-01-01T02:38:33Z</time>
      </trkpt>
      <trkpt lat="42.28254" lon="1.73673">
        <ele>2416</ele>
        <time>2010-01-01T02:38:37Z</time>
      </trkpt>
      <trkpt lat="42.28264" lon="1.73683">
        <ele>2420</ele>
        <time>2010-01-01T02:38:42Z</time>
      </trkpt>
      <trkpt lat="42.28269" lon="1.73678">
        <ele>2419</ele>
        <time>2010-01-01T02:38:44Z</time>
      </trkpt>
      <trkpt lat="42.2827" lon="1.73692">
        <ele>2423</ele>
        <time>2010-01-01T02:38:49Z</time>
      </trkpt>
      <trkpt lat="42.28274" lon="1.73709">
        <ele>2428</ele>
        <time>2010-01-01T02:38:54Z</time>
      </trkpt>
      <trkpt lat="42.28271" lon="1.73717">
        <ele>2430</ele>
        <time>2010-01-01T02:38:56Z</time>
      </trkpt>
      <trkpt lat="42.28284" lon="1.73722">
        <ele>2433</ele>
        <time>2010-01-01T02:39:02Z</time>
      </trkpt>
      <trkpt lat="42.28286" lon="1.73732">
        <ele>2435</ele>
        <time>2010-01-01T02:39:05Z</time>
      </trkpt>
      <trkpt lat="42.2828" lon="1.73742">
        <ele>2437</ele>
        <time>2010-01-01T02:39:09Z</time>
      </trkpt>
      <trkpt lat="42.28284" lon="1.73754">
        <ele>2439</ele>
        <time>2010-01-01T02:39:13Z</time>
      </trkpt>
      <trkpt lat="42.28292" lon="1.73753">
        <ele>2438</ele>
        <time>2010-01-01T02:39:16Z</time>
      </trkpt>
      <trkpt lat="42.28295" lon="1.7376">
        <ele>2439</ele>
        <time>2010-01-01T02:39:18Z</time>
      </trkpt>
      <trkpt lat="42.28296" lon="1.73768">
        <ele>2440</ele>
        <time>2010-01-01T02:39:21Z</time>
      </trkpt>
      <trkpt lat="42.28291" lon="1.73777">
        <ele>2441</ele>
        <time>2010-01-01T02:39:24Z</time>
      </trkpt>
      <trkpt lat="42.28283" lon="1.73784">
        <ele>2441</ele>
        <time>2010-01-01T02:39:28Z</time>
      </trkpt>
      <trkpt lat="42.28278" lon="1.73783">
        <ele>2442</ele>
        <time>2010-01-01T02:39:30Z</time>
      </trkpt>
      <trkpt lat="42.28271" lon="1.73787">
        <ele>2442</ele>
        <time>2010-01-01T02:39:33Z</time>
      </trkpt>
      <trkpt lat="42.28263" lon="1.73799">
        <ele>2444</ele>
        <time>2010-01-01T02:39:38Z</time>
      </trkpt>
      <trkpt lat="42.28261" lon="1.73808">
        <ele>2444</ele>
        <time>2010-01-01T02:39:40Z</time>
      </trkpt>
      <trkpt lat="42.28252" lon="1.73808">
        <ele>2448</ele>
        <time>2010-01-01T02:39:44Z</time>
      </trkpt>
      <trkpt lat="42.28251" lon="1.73815">
        <ele>2447</ele>
        <time>2010-01-01T02:39:46Z</time>
      </trkpt>
      <trkpt lat="42.28243" lon="1.73818">
        <ele>2448</ele>
        <time>2010-01-01T02:39:49Z</time>
      </trkpt>
      <trkpt lat="42.2824" lon="1.73814">
        <ele>2448</ele>
        <time>2010-01-01T02:39:51Z</time>
      </trkpt>
      <trkpt lat="42.28236" lon="1.73812">
        <ele>2448</ele>
        <time>2010-01-01T02:39:53Z</time>
      </trkpt>
      <trkpt lat="42.28235" lon="1.7382">
        <ele>2448</ele>
        <time>2010-01-01T02:39:55Z</time>
      </trkpt>
      <trkpt lat="42.28231" lon="1.73823">
        <ele>2448</ele>
        <time>2010-01-01T02:39:57Z</time>
      </trkpt>
      <trkpt lat="42.28231" lon="1.73817">
        <ele>2448</ele>
        <time>2010-01-01T02:39:59Z</time>
      </trkpt>
      <trkpt lat="42.28238" lon="1.73812">
        <ele>2448</ele>
        <time>2010-01-01T02:40:02Z</time>
      </trkpt>
      <trkpt lat="42.28235" lon="1.73813">
        <ele>2448</ele>
        <time>2010-01-01T02:40:03Z</time>
      </trkpt>
      <trkpt lat="42.28239" lon="1.73813">
        <ele>2448</ele>
        <time>2010-01-01T02:40:05Z</time>
      </trkpt>
      <trkpt lat="42.28241" lon="1.73809">
        <ele>2448</ele>
        <time>2010-01-01T02:40:07Z</time>
      </trkpt>
      <trkpt lat="42.28246" lon="1.73812">
        <ele>2448</ele>
        <time>2010-01-01T02:40:09Z</time>
      </trkpt>
      <trkpt lat="42.28241" lon="1.73812">
        <ele>2448</ele>
        <time>2010-01-01T02:40:11Z</time>
      </trkpt>
      <trkpt lat="42.28236" lon="1.73809">
        <ele>2448</ele>
        <time>2010-01-01T02:40:13Z</time>
      </trkpt>
      <trkpt lat="42.28237" lon="1.7381">
        <ele>2448</ele>
        <time>2010-01-01T02:40:13Z</time>
      </trkpt>
      <trkpt lat="42.28234" lon="1.73811">
        <ele>2448</ele>
        <time>2010-01-01T02:40:15Z</time>
      </trkpt>
      <trkpt lat="42.28233" lon="1.73819">
        <ele>2448</ele>
        <time>2010-01-01T02:40:17Z</time>
      </trkpt>
      <trkpt lat="42.28236" lon="1.7382">
        <ele>2448</ele>
        <time>2010-01-01T02:40:19Z</time>
      </trkpt>
      <trkpt lat="42.2824" lon="1.73816">
        <ele>2448</ele>
        <time>2010-01-01T02:40:20Z</time>
      </trkpt>
      <trkpt lat="42.28239" lon="1.73809">
        <ele>2448</ele>
        <time>2010-01-01T02:40:23Z</time>
      </trkpt>
      <trkpt lat="42.28244" lon="1.73813">
        <ele>2448</ele>
        <time>2010-01-01T02:40:25Z</time>
      </trkpt>
      <trkpt lat="42.28243" lon="1.73814">
        <ele>2448</ele>
        <time>2010-01-01T02:40:26Z</time>
      </trkpt>
      <trkpt lat="42.2824" lon="1.7381">
        <ele>2448</ele>
        <time>2010-01-01T02:40:27Z</time>
      </trkpt>
      <trkpt lat="42.28245" lon="1.73812">
        <ele>2448</ele>
        <time>2010-01-01T02:40:30Z</time>
      </trkpt>
      <trkpt lat="42.28251" lon="1.73811">
        <ele>2448</ele>
        <time>2010-01-01T02:40:32Z</time>
      </trkpt>
      <trkpt lat="42.2826" lon="1.7381">
        <ele>2445</ele>
        <time>2010-01-01T02:40:35Z</time>
      </trkpt>
      <trkpt lat="42.28261" lon="1.73804">
        <ele>2445</ele>
        <time>2010-01-01T02:40:37Z</time>
      </trkpt>
      <trkpt lat="42.28266" lon="1.73805">
        <ele>2443</ele>
        <time>2010-01-01T02:40:39Z</time>
      </trkpt>
      <trkpt lat="42.28275" lon="1.73799">
        <ele>2441</ele>
        <time>2010-01-01T02:40:43Z</time>
      </trkpt>
      <trkpt lat="42.28278" lon="1.73794">
        <ele>2441</ele>
        <time>2010-01-01T02:40:45Z</time>
      </trkpt>
      <trkpt lat="42.28268" lon="1.73807">
        <ele>2442</ele>
        <time>2010-01-01T02:40:51Z</time>
      </trkpt>
      <trkpt lat="42.28258" lon="1.73814">
        <ele>2445</ele>
        <time>2010-01-01T02:40:55Z</time>
      </trkpt>
      <trkpt lat="42.28254" lon="1.73814">
        <ele>2446</ele>
        <time>2010-01-01T02:40:57Z</time>
      </trkpt>
      <trkpt lat="42.28284" lon="1.73788">
        <ele>2441</ele>
        <time>2010-01-01T02:41:11Z</time>
      </trkpt>
      <trkpt lat="42.2829" lon="1.73779">
        <ele>2441</ele>
        <time>2010-01-01T02:41:15Z</time>
      </trkpt>
      <trkpt lat="42.28323" lon="1.73774">
        <ele>2437</ele>
        <time>2010-01-01T02:41:28Z</time>
      </trkpt>
      <trkpt lat="42.28343" lon="1.73773">
        <ele>2434</ele>
        <time>2010-01-01T02:41:36Z</time>
      </trkpt>
      <trkpt lat="42.28352" lon="1.73768">
        <ele>2434</ele>
        <time>2010-01-01T02:41:40Z</time>
      </trkpt>
      <trkpt lat="42.28371" lon="1.73755">
        <ele>2435</ele>
        <time>2010-01-01T02:41:49Z</time>
      </trkpt>
      <trkpt lat="42.28401" lon="1.7374">
        <ele>2437</ele>
        <time>2010-01-01T02:42:01Z</time>
      </trkpt>
      <trkpt lat="42.28412" lon="1.73732">
        <ele>2439</ele>
        <time>2010-01-01T02:42:06Z</time>
      </trkpt>
      <trkpt lat="42.28418" lon="1.73722">
        <ele>2441</ele>
        <time>2010-01-01T02:42:10Z</time>
      </trkpt>
      <trkpt lat="42.28426" lon="1.73714">
        <ele>2439</ele>
        <time>2010-01-01T02:42:14Z</time>
      </trkpt>
      <trkpt lat="42.28447" lon="1.73699">
        <ele>2435</ele>
        <time>2010-01-01T02:42:24Z</time>
      </trkpt>
      <trkpt lat="42.28462" lon="1.73682">
        <ele>2429</ele>
        <time>2010-01-01T02:42:32Z</time>
      </trkpt>
      <trkpt lat="42.28462" lon="1.73671">
        <ele>2430</ele>
        <time>2010-01-01T02:42:35Z</time>
      </trkpt>
      <trkpt lat="42.28458" lon="1.73664">
        <ele>2432</ele>
        <time>2010-01-01T02:42:37Z</time>
      </trkpt>
      <trkpt lat="42.28449" lon="1.73657">
        <ele>2434</ele>
        <time>2010-01-01T02:42:42Z</time>
      </trkpt>
      <trkpt lat="42.28442" lon="1.73648">
        <ele>2434</ele>
        <time>2010-01-01T02:42:45Z</time>
      </trkpt>
      <trkpt lat="42.28439" lon="1.73636">
        <ele>2431</ele>
        <time>2010-01-01T02:42:49Z</time>
      </trkpt>
      <trkpt lat="42.28436" lon="1.73608">
        <ele>2428</ele>
        <time>2010-01-01T02:42:57Z</time>
      </trkpt>
      <trkpt lat="42.28428" lon="1.73599">
        <ele>2425</ele>
        <time>2010-01-01T02:43:02Z</time>
      </trkpt>
      <trkpt lat="42.28424" lon="1.73587">
        <ele>2422</ele>
        <time>2010-01-01T02:43:06Z</time>
      </trkpt>
      <trkpt lat="42.28424" lon="1.73573">
        <ele>2420</ele>
        <time>2010-01-01T02:43:10Z</time>
      </trkpt>
      <trkpt lat="42.2842" lon="1.73561">
        <ele>2419</ele>
        <time>2010-01-01T02:43:14Z</time>
      </trkpt>
      <trkpt lat="42.28419" lon="1.73547">
        <ele>2416</ele>
        <time>2010-01-01T02:43:18Z</time>
      </trkpt>
      <trkpt lat="42.28422" lon="1.73522">
        <ele>2409</ele>
        <time>2010-01-01T02:43:25Z</time>
      </trkpt>
      <trkpt lat="42.28419" lon="1.73514">
        <ele>2409</ele>
        <time>2010-01-01T02:43:28Z</time>
      </trkpt>
      <trkpt lat="42.28424" lon="1.73512">
        <ele>2407</ele>
        <time>2010-01-01T02:43:30Z</time>
      </trkpt>
      <trkpt lat="42.28419" lon="1.7351">
        <ele>2408</ele>
        <time>2010-01-01T02:43:32Z</time>
      </trkpt>
      <trkpt lat="42.2842" lon="1.73502">
        <ele>2406</ele>
        <time>2010-01-01T02:43:34Z</time>
      </trkpt>
      <trkpt lat="42.28414" lon="1.73479">
        <ele>2404</ele>
        <time>2010-01-01T02:43:41Z</time>
      </trkpt>
      <trkpt lat="42.28409" lon="1.73467">
        <ele>2402</ele>
        <time>2010-01-01T02:43:45Z</time>
      </trkpt>
      <trkpt lat="42.28403" lon="1.73457">
        <ele>2401</ele>
        <time>2010-01-01T02:43:49Z</time>
      </trkpt>
      <trkpt lat="42.28398" lon="1.73446">
        <ele>2399</ele>
        <time>2010-01-01T02:43:53Z</time>
      </trkpt>
      <trkpt lat="42.28399" lon="1.73434">
        <ele>2400</ele>
        <time>2010-01-01T02:43:57Z</time>
      </trkpt>
      <trkpt lat="42.28408" lon="1.73435">
        <ele>2399</ele>
        <time>2010-01-01T02:44:00Z</time>
      </trkpt>
      <trkpt lat="42.28409" lon="1.73426">
        <ele>2400</ele>
        <time>2010-01-01T02:44:03Z</time>
      </trkpt>
      <trkpt lat="42.28406" lon="1.734">
        <ele>2399</ele>
        <time>2010-01-01T02:44:11Z</time>
      </trkpt>
      <trkpt lat="42.28402" lon="1.73388">
        <ele>2399</ele>
        <time>2010-01-01T02:44:15Z</time>
      </trkpt>
      <trkpt lat="42.28403" lon="1.73378">
        <ele>2398</ele>
        <time>2010-01-01T02:44:18Z</time>
      </trkpt>
      <trkpt lat="42.28399" lon="1.73368">
        <ele>2398</ele>
        <time>2010-01-01T02:44:21Z</time>
      </trkpt>
      <trkpt lat="42.28396" lon="1.73338">
        <ele>2402</ele>
        <time>2010-01-01T02:44:30Z</time>
      </trkpt>
      <trkpt lat="42.28392" lon="1.73326">
        <ele>2405</ele>
        <time>2010-01-01T02:44:34Z</time>
      </trkpt>
      <trkpt lat="42.28387" lon="1.73319">
        <ele>2406</ele>
        <time>2010-01-01T02:44:37Z</time>
      </trkpt>
      <trkpt lat="42.28389" lon="1.73326">
        <ele>2405</ele>
        <time>2010-01-01T02:44:39Z</time>
      </trkpt>
      <trkpt lat="42.28399" lon="1.73351">
        <ele>2399</ele>
        <time>2010-01-01T02:44:47Z</time>
      </trkpt>
      <trkpt lat="42.284" lon="1.73365">
        <ele>2398</ele>
        <time>2010-01-01T02:44:51Z</time>
      </trkpt>
      <trkpt lat="42.28404" lon="1.73377">
        <ele>2398</ele>
        <time>2010-01-01T02:44:55Z</time>
      </trkpt>
      <trkpt lat="42.28405" lon="1.73392">
        <ele>2399</ele>
        <time>2010-01-01T02:45:00Z</time>
      </trkpt>
      <trkpt lat="42.28408" lon="1.73406">
        <ele>2399</ele>
        <time>2010-01-01T02:45:04Z</time>
      </trkpt>
      <trkpt lat="42.28408" lon="1.73421">
        <ele>2400</ele>
        <time>2010-01-01T02:45:08Z</time>
      </trkpt>
      <trkpt lat="42.28414" lon="1.73449">
        <ele>2399</ele>
        <time>2010-01-01T02:45:17Z</time>
      </trkpt>
      <trkpt lat="42.28431" lon="1.73486">
        <ele>2400</ele>
        <time>2010-01-01T02:45:30Z</time>
      </trkpt>
      <trkpt lat="42.28439" lon="1.73494">
        <ele>2398</ele>
        <time>2010-01-01T02:45:34Z</time>
      </trkpt>
      <trkpt lat="42.2846" lon="1.73503">
        <ele>2392</ele>
        <time>2010-01-01T02:45:43Z</time>
      </trkpt>
      <trkpt lat="42.28466" lon="1.73514">
        <ele>2392</ele>
        <time>2010-01-01T02:45:47Z</time>
      </trkpt>
      <trkpt lat="42.28485" lon="1.73534">
        <ele>2390</ele>
        <time>2010-01-01T02:45:56Z</time>
      </trkpt>
      <trkpt lat="42.28492" lon="1.73544">
        <ele>2389</ele>
        <time>2010-01-01T02:46:00Z</time>
      </trkpt>
      <trkpt lat="42.28519" lon="1.73566">
        <ele>2385</ele>
        <time>2010-01-01T02:46:13Z</time>
      </trkpt>
      <trkpt lat="42.28528" lon="1.73572">
        <ele>2382</ele>
        <time>2010-01-01T02:46:17Z</time>
      </trkpt>
      <trkpt lat="42.28539" lon="1.73575">
        <ele>2377</ele>
        <time>2010-01-01T02:46:22Z</time>
      </trkpt>
      <trkpt lat="42.28545" lon="1.73585">
        <ele>2377</ele>
        <time>2010-01-01T02:46:26Z</time>
      </trkpt>
      <trkpt lat="42.28553" lon="1.73593">
        <ele>2374</ele>
        <time>2010-01-01T02:46:29Z</time>
      </trkpt>
      <trkpt lat="42.28572" lon="1.73608">
        <ele>2371</ele>
        <time>2010-01-01T02:46:38Z</time>
      </trkpt>
      <trkpt lat="42.28582" lon="1.73614">
        <ele>2369</ele>
        <time>2010-01-01T02:46:43Z</time>
      </trkpt>
      <trkpt lat="42.28611" lon="1.73638">
        <ele>2362</ele>
        <time>2010-01-01T02:46:56Z</time>
      </trkpt>
      <trkpt lat="42.28619" lon="1.73643">
        <ele>2359</ele>
        <time>2010-01-01T02:47:00Z</time>
      </trkpt>
      <trkpt lat="42.28631" lon="1.73646">
        <ele>2357</ele>
        <time>2010-01-01T02:47:04Z</time>
      </trkpt>
      <trkpt lat="42.28641" lon="1.73646">
        <ele>2354</ele>
        <time>2010-01-01T02:47:09Z</time>
      </trkpt>
      <trkpt lat="42.28651" lon="1.7365">
        <ele>2353</ele>
        <time>2010-01-01T02:47:13Z</time>
      </trkpt>
      <trkpt lat="42.28658" lon="1.7366">
        <ele>2353</ele>
        <time>2010-01-01T02:47:17Z</time>
      </trkpt>
      <trkpt lat="42.28668" lon="1.73668">
        <ele>2352</ele>
        <time>2010-01-01T02:47:22Z</time>
      </trkpt>
      <trkpt lat="42.28687" lon="1.73676">
        <ele>2348</ele>
        <time>2010-01-01T02:47:30Z</time>
      </trkpt>
      <trkpt lat="42.28698" lon="1.73676">
        <ele>2346</ele>
        <time>2010-01-01T02:47:34Z</time>
      </trkpt>
      <trkpt lat="42.28705" lon="1.73678">
        <ele>2344</ele>
        <time>2010-01-01T02:47:37Z</time>
      </trkpt>
      <trkpt lat="42.287" lon="1.73676">
        <ele>2345</ele>
        <time>2010-01-01T02:47:39Z</time>
      </trkpt>
      <trkpt lat="42.28706" lon="1.73677">
        <ele>2343</ele>
        <time>2010-01-01T02:47:41Z</time>
      </trkpt>
      <trkpt lat="42.28713" lon="1.73684">
        <ele>2342</ele>
        <time>2010-01-01T02:47:44Z</time>
      </trkpt>
      <trkpt lat="42.28713" lon="1.73682">
        <ele>2342</ele>
        <time>2010-01-01T02:47:45Z</time>
      </trkpt>
      <trkpt lat="42.28698" lon="1.73677">
        <ele>2345</ele>
        <time>2010-01-01T02:47:51Z</time>
      </trkpt>
      <trkpt lat="42.28689" lon="1.73678">
        <ele>2348</ele>
        <time>2010-01-01T02:47:55Z</time>
      </trkpt>
      <trkpt lat="42.28672" lon="1.73666">
        <ele>2351</ele>
        <time>2010-01-01T02:48:02Z</time>
      </trkpt>
      <trkpt lat="42.28656" lon="1.73658">
        <ele>2353</ele>
        <time>2010-01-01T02:48:09Z</time>
      </trkpt>
      <trkpt lat="42.28649" lon="1.73648">
        <ele>2353</ele>
        <time>2010-01-01T02:48:13Z</time>
      </trkpt>
      <trkpt lat="42.28643" lon="1.73645">
        <ele>2354</ele>
        <time>2010-01-01T02:48:16Z</time>
      </trkpt>
      <trkpt lat="42.28625" lon="1.7364">
        <ele>2358</ele>
        <time>2010-01-01T02:48:23Z</time>
      </trkpt>
      <trkpt lat="42.28605" lon="1.73632">
        <ele>2363</ele>
        <time>2010-01-01T02:48:31Z</time>
      </trkpt>
      <trkpt lat="42.28586" lon="1.73618">
        <ele>2368</ele>
        <time>2010-01-01T02:48:40Z</time>
      </trkpt>
      <trkpt lat="42.28577" lon="1.73608">
        <ele>2370</ele>
        <time>2010-01-01T02:48:45Z</time>
      </trkpt>
      <trkpt lat="42.28569" lon="1.73603">
        <ele>2371</ele>
        <time>2010-01-01T02:48:48Z</time>
      </trkpt>
      <trkpt lat="42.2856" lon="1.736">
        <ele>2373</ele>
        <time>2010-01-01T02:48:52Z</time>
      </trkpt>
      <trkpt lat="42.2853" lon="1.73569">
        <ele>2381</ele>
        <time>2010-01-01T02:49:07Z</time>
      </trkpt>
      <trkpt lat="42.28523" lon="1.73569">
        <ele>2384</ele>
        <time>2010-01-01T02:49:10Z</time>
      </trkpt>
      <trkpt lat="42.28514" lon="1.73564">
        <ele>2386</ele>
        <time>2010-01-01T02:49:14Z</time>
      </trkpt>
      <trkpt lat="42.28499" lon="1.73553">
        <ele>2389</ele>
        <time>2010-01-01T02:49:20Z</time>
      </trkpt>
      <trkpt lat="42.28485" lon="1.73535">
        <ele>2390</ele>
        <time>2010-01-01T02:49:28Z</time>
      </trkpt>
      <trkpt lat="42.28468" lon="1.73524">
        <ele>2394</ele>
        <time>2010-01-01T02:49:36Z</time>
      </trkpt>
      <trkpt lat="42.28465" lon="1.73517">
        <ele>2393</ele>
        <time>2010-01-01T02:49:38Z</time>
      </trkpt>
      <trkpt lat="42.28448" lon="1.73499">
        <ele>2396</ele>
        <time>2010-01-01T02:49:47Z</time>
      </trkpt>
      <trkpt lat="42.2844" lon="1.73495">
        <ele>2398</ele>
        <time>2010-01-01T02:49:51Z</time>
      </trkpt>
      <trkpt lat="42.28434" lon="1.73495">
        <ele>2400</ele>
        <time>2010-01-01T02:49:53Z</time>
      </trkpt>
      <trkpt lat="42.28431" lon="1.7349">
        <ele>2400</ele>
        <time>2010-01-01T02:49:55Z</time>
      </trkpt>
      <trkpt lat="42.28418" lon="1.73459">
        <ele>2401</ele>
        <time>2010-01-01T02:50:05Z</time>
      </trkpt>
      <trkpt lat="42.28727" lon="1.73714">
        <ele>2340</ele>
        <time>2010-01-01T02:52:30Z</time>
      </trkpt>
      <trkpt lat="42.28745" lon="1.73748">
        <ele>2337</ele>
        <time>2010-01-01T02:52:43Z</time>
      </trkpt>
      <trkpt lat="42.28759" lon="1.73763">
        <ele>2336</ele>
        <time>2010-01-01T02:52:50Z</time>
      </trkpt>
      <trkpt lat="42.28795" lon="1.73783">
        <ele>2339</ele>
        <time>2010-01-01T02:53:06Z</time>
      </trkpt>
      <trkpt lat="42.28805" lon="1.73774">
        <ele>2345</ele>
        <time>2010-01-01T02:53:10Z</time>
      </trkpt>
      <trkpt lat="42.28827" lon="1.73804">
        <ele>2341</ele>
        <time>2010-01-01T02:53:23Z</time>
      </trkpt>
      <trkpt lat="42.28835" lon="1.73832">
        <ele>2332</ele>
        <time>2010-01-01T02:53:32Z</time>
      </trkpt>
      <trkpt lat="42.28833" lon="1.73862">
        <ele>2319</ele>
        <time>2010-01-01T02:53:41Z</time>
      </trkpt>
      <trkpt lat="42.28849" lon="1.73888">
        <ele>2322</ele>
        <time>2010-01-01T02:53:50Z</time>
      </trkpt>
      <trkpt lat="42.28875" lon="1.73969">
        <ele>2306</ele>
        <time>2010-01-01T02:54:17Z</time>
      </trkpt>
      <trkpt lat="42.28937" lon="1.74066">
        <ele>2301</ele>
        <time>2010-01-01T02:54:54Z</time>
      </trkpt>
      <trkpt lat="42.28986" lon="1.74137">
        <ele>2299</ele>
        <time>2010-01-01T02:55:23Z</time>
      </trkpt>
      <trkpt lat="42.28975" lon="1.74162">
        <ele>2286</ele>
        <time>2010-01-01T02:55:32Z</time>
      </trkpt>
      <trkpt lat="42.29003" lon="1.74216">
        <ele>2286</ele>
        <time>2010-01-01T02:55:52Z</time>
      </trkpt>
      <trkpt lat="42.29021" lon="1.74244">
        <ele>2287</ele>
        <time>2010-01-01T02:56:02Z</time>
      </trkpt>
      <trkpt lat="42.29013" lon="1.74285">
        <ele>2273</ele>
        <time>2010-01-01T02:56:15Z</time>
      </trkpt>
      <trkpt lat="42.29051" lon="1.74364">
        <ele>2265</ele>
        <time>2010-01-01T02:56:43Z</time>
      </trkpt>
      <trkpt lat="42.29054" lon="1.74409">
        <ele>2256</ele>
        <time>2010-01-01T02:56:56Z</time>
      </trkpt>
      <trkpt lat="42.29048" lon="1.74461">
        <ele>2246</ele>
        <time>2010-01-01T02:57:12Z</time>
      </trkpt>
      <trkpt lat="42.29065" lon="1.74519">
        <ele>2243</ele>
        <time>2010-01-01T02:57:30Z</time>
      </trkpt>
      <trkpt lat="42.29083" lon="1.74549">
        <ele>2238</ele>
        <time>2010-01-01T02:57:42Z</time>
      </trkpt>
      <trkpt lat="42.29086" lon="1.74585">
        <ele>2223</ele>
        <time>2010-01-01T02:57:53Z</time>
      </trkpt>
      <trkpt lat="42.2908" lon="1.74669">
        <ele>2216</ele>
        <time>2010-01-01T02:58:17Z</time>
      </trkpt>
      <trkpt lat="42.29086" lon="1.74725">
        <ele>2214</ele>
        <time>2010-01-01T02:58:34Z</time>
      </trkpt>
      <trkpt lat="42.29099" lon="1.74868">
        <ele>2189</ele>
        <time>2010-01-01T02:59:17Z</time>
      </trkpt>
      <trkpt lat="42.291" lon="1.7492">
        <ele>2187</ele>
        <time>2010-01-01T02:59:32Z</time>
      </trkpt>
      <trkpt lat="42.29099" lon="1.74956">
        <ele>2193</ele>
        <time>2010-01-01T02:59:43Z</time>
      </trkpt>
      <trkpt lat="42.29099" lon="1.7501">
        <ele>2182</ele>
        <time>2010-01-01T02:59:59Z</time>
      </trkpt>
      <trkpt lat="42.291" lon="1.75072">
        <ele>2177</ele>
        <time>2010-01-01T03:00:17Z</time>
      </trkpt>
      <trkpt lat="42.29105" lon="1.75124">
        <ele>2181</ele>
        <time>2010-01-01T03:00:33Z</time>
      </trkpt>
      <trkpt lat="42.29116" lon="1.75156">
        <ele>2176</ele>
        <time>2010-01-01T03:00:43Z</time>
      </trkpt>
      <trkpt lat="42.2913" lon="1.75209">
        <ele>2175</ele>
        <time>2010-01-01T03:01:00Z</time>
      </trkpt>
      <trkpt lat="42.29146" lon="1.75248">
        <ele>2175</ele>
        <time>2010-01-01T03:01:13Z</time>
      </trkpt>
      <trkpt lat="42.29162" lon="1.75267">
        <ele>2172</ele>
        <time>2010-01-01T03:01:22Z</time>
      </trkpt>
      <trkpt lat="42.2917" lon="1.75291">
        <ele>2172</ele>
        <time>2010-01-01T03:01:29Z</time>
      </trkpt>
      <trkpt lat="42.29124" lon="1.75252">
        <ele>2171</ele>
        <time>2010-01-01T03:01:51Z</time>
      </trkpt>
      <trkpt lat="42.29118" lon="1.75254">
        <ele>2168</ele>
        <time>2010-01-01T03:01:54Z</time>
      </trkpt>
      <trkpt lat="42.29115" lon="1.75253">
        <ele>2168</ele>
        <time>2010-01-01T03:01:55Z</time>
      </trkpt>
      <trkpt lat="42.29114" lon="1.75253">
        <ele>2167</ele>
        <time>2010-01-01T03:01:56Z</time>
      </trkpt>
      <trkpt lat="42.29113" lon="1.75258">
        <ele>2166</ele>
        <time>2010-01-01T03:01:57Z</time>
      </trkpt>
      <trkpt lat="42.29109" lon="1.75255">
        <ele>2165</ele>
        <time>2010-01-01T03:01:59Z</time>
      </trkpt>
      <trkpt lat="42.29101" lon="1.75254">
        <ele>2160</ele>
        <time>2010-01-01T03:02:02Z</time>
      </trkpt>
      <trkpt lat="42.291" lon="1.75255">
        <ele>2159</ele>
        <time>2010-01-01T03:02:03Z</time>
      </trkpt>
      <trkpt lat="42.291" lon="1.7526">
        <ele>2159</ele>
        <time>2010-01-01T03:02:04Z</time>
      </trkpt>
      <trkpt lat="42.29096" lon="1.75266">
        <ele>2156</ele>
        <time>2010-01-01T03:02:07Z</time>
      </trkpt>
      <trkpt lat="42.29097" lon="1.75275">
        <ele>2155</ele>
        <time>2010-01-01T03:02:09Z</time>
      </trkpt>
      <trkpt lat="42.29096" lon="1.75274">
        <ele>2155</ele>
        <time>2010-01-01T03:02:10Z</time>
      </trkpt>
      <trkpt lat="42.29095" lon="1.75275">
        <ele>2154</ele>
        <time>2010-01-01T03:02:11Z</time>
      </trkpt>
      <trkpt lat="42.29094" lon="1.75285">
        <ele>2152</ele>
        <time>2010-01-01T03:02:14Z</time>
      </trkpt>
      <trkpt lat="42.29089" lon="1.75283">
        <ele>2149</ele>
        <time>2010-01-01T03:02:16Z</time>
      </trkpt>
      <trkpt lat="42.29088" lon="1.75288">
        <ele>2148</ele>
        <time>2010-01-01T03:02:17Z</time>
      </trkpt>
      <trkpt lat="42.29087" lon="1.75286">
        <ele>2147</ele>
        <time>2010-01-01T03:02:18Z</time>
      </trkpt>
      <trkpt lat="42.29086" lon="1.75287">
        <ele>2146</ele>
        <time>2010-01-01T03:02:19Z</time>
      </trkpt>
      <trkpt lat="42.29084" lon="1.7529">
        <ele>2144</ele>
        <time>2010-01-01T03:02:20Z</time>
      </trkpt>
      <trkpt lat="42.29081" lon="1.75289">
        <ele>2143</ele>
        <time>2010-01-01T03:02:21Z</time>
      </trkpt>
      <trkpt lat="42.29081" lon="1.75294">
        <ele>2142</ele>
        <time>2010-01-01T03:02:22Z</time>
      </trkpt>
      <trkpt lat="42.29079" lon="1.75296">
        <ele>2140</ele>
        <time>2010-01-01T03:02:23Z</time>
      </trkpt>
      <trkpt lat="42.29078" lon="1.75295">
        <ele>2140</ele>
        <time>2010-01-01T03:02:24Z</time>
      </trkpt>
      <trkpt lat="42.29076" lon="1.75298">
        <ele>2138</ele>
        <time>2010-01-01T03:02:25Z</time>
      </trkpt>
      <trkpt lat="42.29069" lon="1.75293">
        <ele>2135</ele>
        <time>2010-01-01T03:02:28Z</time>
      </trkpt>
      <trkpt lat="42.29068" lon="1.75295">
        <ele>2134</ele>
        <time>2010-01-01T03:02:29Z</time>
      </trkpt>
      <trkpt lat="42.29066" lon="1.75303">
        <ele>2131</ele>
        <time>2010-01-01T03:02:32Z</time>
      </trkpt>
      <trkpt lat="42.29063" lon="1.75304">
        <ele>2129</ele>
        <time>2010-01-01T03:02:33Z</time>
      </trkpt>
      <trkpt lat="42.29063" lon="1.75308">
        <ele>2128</ele>
        <time>2010-01-01T03:02:34Z</time>
      </trkpt>
      <trkpt lat="42.2906" lon="1.75311">
        <ele>2126</ele>
        <time>2010-01-01T03:02:35Z</time>
      </trkpt>
      <trkpt lat="42.29058" lon="1.75318">
        <ele>2125</ele>
        <time>2010-01-01T03:02:38Z</time>
      </trkpt>
      <trkpt lat="42.29055" lon="1.75319">
        <ele>2123</ele>
        <time>2010-01-01T03:02:39Z</time>
      </trkpt>
      <trkpt lat="42.29053" lon="1.75322">
        <ele>2121</ele>
        <time>2010-01-01T03:02:40Z</time>
      </trkpt>
      <trkpt lat="42.29049" lon="1.75324">
        <ele>2118</ele>
        <time>2010-01-01T03:02:42Z</time>
      </trkpt>
      <trkpt lat="42.29049" lon="1.7533">
        <ele>2118</ele>
        <time>2010-01-01T03:02:44Z</time>
      </trkpt>
      <trkpt lat="42.29045" lon="1.75329">
        <ele>2115</ele>
        <time>2010-01-01T03:02:45Z</time>
      </trkpt>
      <trkpt lat="42.29044" lon="1.75333">
        <ele>2114</ele>
        <time>2010-01-01T03:02:47Z</time>
      </trkpt>
      <trkpt lat="42.2904" lon="1.75338">
        <ele>2110</ele>
        <time>2010-01-01T03:02:49Z</time>
      </trkpt>
      <trkpt lat="42.29039" lon="1.7535">
        <ele>2110</ele>
        <time>2010-01-01T03:02:52Z</time>
      </trkpt>
      <trkpt lat="42.29036" lon="1.75368">
        <ele>2107</ele>
        <time>2010-01-01T03:02:58Z</time>
      </trkpt>
      <trkpt lat="42.29033" lon="1.75373">
        <ele>2105</ele>
        <time>2010-01-01T03:03:00Z</time>
      </trkpt>
      <trkpt lat="42.29031" lon="1.75373">
        <ele>2104</ele>
        <time>2010-01-01T03:03:00Z</time>
      </trkpt>
      <trkpt lat="42.2903" lon="1.75379">
        <ele>2103</ele>
        <time>2010-01-01T03:03:02Z</time>
      </trkpt>
      <trkpt lat="42.29028" lon="1.75376">
        <ele>2101</ele>
        <time>2010-01-01T03:03:04Z</time>
      </trkpt>
      <trkpt lat="42.29027" lon="1.75381">
        <ele>2101</ele>
        <time>2010-01-01T03:03:05Z</time>
      </trkpt>
      <trkpt lat="42.29024" lon="1.75382">
        <ele>2099</ele>
        <time>2010-01-01T03:03:06Z</time>
      </trkpt>
      <trkpt lat="42.29022" lon="1.75386">
        <ele>2098</ele>
        <time>2010-01-01T03:03:08Z</time>
      </trkpt>
      <trkpt lat="42.29014" lon="1.75387">
        <ele>2093</ele>
        <time>2010-01-01T03:03:11Z</time>
      </trkpt>
      <trkpt lat="42.29012" lon="1.7539">
        <ele>2092</ele>
        <time>2010-01-01T03:03:12Z</time>
      </trkpt>
      <trkpt lat="42.29008" lon="1.75392">
        <ele>2089</ele>
        <time>2010-01-01T03:03:14Z</time>
      </trkpt>
      <trkpt lat="42.29005" lon="1.75387">
        <ele>2088</ele>
        <time>2010-01-01T03:03:16Z</time>
      </trkpt>
      <trkpt lat="42.29001" lon="1.7539">
        <ele>2085</ele>
        <time>2010-01-01T03:03:18Z</time>
      </trkpt>
      <trkpt lat="42.29001" lon="1.75391">
        <ele>2085</ele>
        <time>2010-01-01T03:03:18Z</time>
      </trkpt>
      <trkpt lat="42.28998" lon="1.75391">
        <ele>2083</ele>
        <time>2010-01-01T03:03:19Z</time>
      </trkpt>
      <trkpt lat="42.28996" lon="1.75392">
        <ele>2081</ele>
        <time>2010-01-01T03:03:20Z</time>
      </trkpt>
      <trkpt lat="42.28993" lon="1.75392">
        <ele>2079</ele>
        <time>2010-01-01T03:03:22Z</time>
      </trkpt>
      <trkpt lat="42.28986" lon="1.75398">
        <ele>2074</ele>
        <time>2010-01-01T03:03:25Z</time>
      </trkpt>
      <trkpt lat="42.28984" lon="1.75403">
        <ele>2072</ele>
        <time>2010-01-01T03:03:26Z</time>
      </trkpt>
      <trkpt lat="42.2898" lon="1.75405">
        <ele>2070</ele>
        <time>2010-01-01T03:03:28Z</time>
      </trkpt>
      <trkpt lat="42.28976" lon="1.75402">
        <ele>2066</ele>
        <time>2010-01-01T03:03:30Z</time>
      </trkpt>
      <trkpt lat="42.28976" lon="1.75398">
        <ele>2066</ele>
        <time>2010-01-01T03:03:31Z</time>
      </trkpt>
      <trkpt lat="42.28973" lon="1.75398">
        <ele>2064</ele>
        <time>2010-01-01T03:03:32Z</time>
      </trkpt>
      <trkpt lat="42.28971" lon="1.754">
        <ele>2063</ele>
        <time>2010-01-01T03:03:33Z</time>
      </trkpt>
      <trkpt lat="42.28967" lon="1.75395">
        <ele>2060</ele>
        <time>2010-01-01T03:03:36Z</time>
      </trkpt>
      <trkpt lat="42.28966" lon="1.75398">
        <ele>2059</ele>
        <time>2010-01-01T03:03:37Z</time>
      </trkpt>
      <trkpt lat="42.28965" lon="1.75397">
        <ele>2058</ele>
        <time>2010-01-01T03:03:37Z</time>
      </trkpt>
      <trkpt lat="42.2896" lon="1.75417">
        <ele>2055</ele>
        <time>2010-01-01T03:03:43Z</time>
      </trkpt>
      <trkpt lat="42.28959" lon="1.75418">
        <ele>2055</ele>
        <time>2010-01-01T03:03:44Z</time>
      </trkpt>
      <trkpt lat="42.28952" lon="1.7541">
        <ele>2049</ele>
        <time>2010-01-01T03:03:48Z</time>
      </trkpt>
      <trkpt lat="42.2895" lon="1.75409">
        <ele>2048</ele>
        <time>2010-01-01T03:03:49Z</time>
      </trkpt>
      <trkpt lat="42.28949" lon="1.75411">
        <ele>2048</ele>
        <time>2010-01-01T03:03:49Z</time>
      </trkpt>
      <trkpt lat="42.28947" lon="1.75409">
        <ele>2046</ele>
        <time>2010-01-01T03:03:50Z</time>
      </trkpt>
      <trkpt lat="42.28947" lon="1.7541">
        <ele>2046</ele>
        <time>2010-01-01T03:03:51Z</time>
      </trkpt>
      <trkpt lat="42.28944" lon="1.75404">
        <ele>2044</ele>
        <time>2010-01-01T03:03:53Z</time>
      </trkpt>
      <trkpt lat="42.28939" lon="1.75405">
        <ele>2042</ele>
        <time>2010-01-01T03:03:55Z</time>
      </trkpt>
      <trkpt lat="42.28936" lon="1.75402">
        <ele>2041</ele>
        <time>2010-01-01T03:03:56Z</time>
      </trkpt>
      <trkpt lat="42.28934" lon="1.75403">
        <ele>2039</ele>
        <time>2010-01-01T03:03:57Z</time>
      </trkpt>
      <trkpt lat="42.2893" lon="1.75399">
        <ele>2038</ele>
        <time>2010-01-01T03:03:59Z</time>
      </trkpt>
      <trkpt lat="42.28923" lon="1.75413">
        <ele>2034</ele>
        <time>2010-01-01T03:04:04Z</time>
      </trkpt>
      <trkpt lat="42.28921" lon="1.75422">
        <ele>2033</ele>
        <time>2010-01-01T03:04:07Z</time>
      </trkpt>
      <trkpt lat="42.28919" lon="1.75427">
        <ele>2032</ele>
        <time>2010-01-01T03:04:09Z</time>
      </trkpt>
      <trkpt lat="42.28919" lon="1.75434">
        <ele>2032</ele>
        <time>2010-01-01T03:04:11Z</time>
      </trkpt>
      <trkpt lat="42.28918" lon="1.75436">
        <ele>2031</ele>
        <time>2010-01-01T03:04:11Z</time>
      </trkpt>
      <trkpt lat="42.28915" lon="1.75436">
        <ele>2030</ele>
        <time>2010-01-01T03:04:13Z</time>
      </trkpt>
      <trkpt lat="42.28913" lon="1.75439">
        <ele>2029</ele>
        <time>2010-01-01T03:04:14Z</time>
      </trkpt>
      <trkpt lat="42.28911" lon="1.75433">
        <ele>2028</ele>
        <time>2010-01-01T03:04:16Z</time>
      </trkpt>
      <trkpt lat="42.28904" lon="1.75432">
        <ele>2024</ele>
        <time>2010-01-01T03:04:19Z</time>
      </trkpt>
      <trkpt lat="42.28901" lon="1.75427">
        <ele>2023</ele>
        <time>2010-01-01T03:04:20Z</time>
      </trkpt>
      <trkpt lat="42.28893" lon="1.75423">
        <ele>2019</ele>
        <time>2010-01-01T03:04:24Z</time>
      </trkpt>
      <trkpt lat="42.28892" lon="1.75424">
        <ele>2018</ele>
        <time>2010-01-01T03:04:25Z</time>
      </trkpt>
      <trkpt lat="42.2889" lon="1.75425">
        <ele>2017</ele>
        <time>2010-01-01T03:04:25Z</time>
      </trkpt>
      <trkpt lat="42.28884" lon="1.75438">
        <ele>2013</ele>
        <time>2010-01-01T03:04:30Z</time>
      </trkpt>
      <trkpt lat="42.28877" lon="1.75439">
        <ele>2009</ele>
        <time>2010-01-01T03:04:33Z</time>
      </trkpt>
      <trkpt lat="42.28875" lon="1.75443">
        <ele>2007</ele>
        <time>2010-01-01T03:04:34Z</time>
      </trkpt>
      <trkpt lat="42.28868" lon="1.75437">
        <ele>2003</ele>
        <time>2010-01-01T03:04:38Z</time>
      </trkpt>
      <trkpt lat="42.28863" lon="1.7543">
        <ele>2001</ele>
        <time>2010-01-01T03:04:41Z</time>
      </trkpt>
      <trkpt lat="42.28861" lon="1.75424">
        <ele>2000</ele>
        <time>2010-01-01T03:04:43Z</time>
      </trkpt>
      <trkpt lat="42.28854" lon="1.75424">
        <ele>1995</ele>
        <time>2010-01-01T03:04:46Z</time>
      </trkpt>
      <trkpt lat="42.28849" lon="1.75428">
        <ele>1991</ele>
        <time>2010-01-01T03:04:48Z</time>
      </trkpt>
      <trkpt lat="42.28849" lon="1.75431">
        <ele>1991</ele>
        <time>2010-01-01T03:04:49Z</time>
      </trkpt>
      <trkpt lat="42.28846" lon="1.75434">
        <ele>1989</ele>
        <time>2010-01-01T03:04:50Z</time>
      </trkpt>
      <trkpt lat="42.28845" lon="1.75448">
        <ele>1987</ele>
        <time>2010-01-01T03:04:54Z</time>
      </trkpt>
      <trkpt lat="42.28835" lon="1.7546">
        <ele>1981</ele>
        <time>2010-01-01T03:04:59Z</time>
      </trkpt>
      <trkpt lat="42.28833" lon="1.75459">
        <ele>1979</ele>
        <time>2010-01-01T03:05:00Z</time>
      </trkpt>
      <trkpt lat="42.28828" lon="1.75461">
        <ele>1977</ele>
        <time>2010-01-01T03:05:03Z</time>
      </trkpt>
      <trkpt lat="42.28825" lon="1.75459">
        <ele>1975</ele>
        <time>2010-01-01T03:05:04Z</time>
      </trkpt>
      <trkpt lat="42.28819" lon="1.75457">
        <ele>1972</ele>
        <time>2010-01-01T03:05:07Z</time>
      </trkpt>
      <trkpt lat="42.28814" lon="1.75461">
        <ele>1969</ele>
        <time>2010-01-01T03:05:09Z</time>
      </trkpt>
      <trkpt lat="42.2881" lon="1.7546">
        <ele>1967</ele>
        <time>2010-01-01T03:05:11Z</time>
      </trkpt>
      <trkpt lat="42.28807" lon="1.75461">
        <ele>1966</ele>
        <time>2010-01-01T03:05:12Z</time>
      </trkpt>
      <trkpt lat="42.28808" lon="1.75458">
        <ele>1966</ele>
        <time>2010-01-01T03:05:13Z</time>
      </trkpt>
      <trkpt lat="42.28803" lon="1.75454">
        <ele>1963</ele>
        <time>2010-01-01T03:05:15Z</time>
      </trkpt>
      <trkpt lat="42.28798" lon="1.75453">
        <ele>1961</ele>
        <time>2010-01-01T03:05:17Z</time>
      </trkpt>
      <trkpt lat="42.28794" lon="1.75454">
        <ele>1959</ele>
        <time>2010-01-01T03:05:19Z</time>
      </trkpt>
      <trkpt lat="42.28772" lon="1.75428">
        <ele>1949</ele>
        <time>2010-01-01T03:05:31Z</time>
      </trkpt>
      <trkpt lat="42.28743" lon="1.75383">
        <ele>1939</ele>
        <time>2010-01-01T03:05:48Z</time>
      </trkpt>
      <trkpt lat="42.28713" lon="1.75319">
        <ele>1922</ele>
        <time>2010-01-01T03:06:11Z</time>
      </trkpt>
      <trkpt lat="42.28692" lon="1.75293">
        <ele>1908</ele>
        <time>2010-01-01T03:06:22Z</time>
      </trkpt>
      <trkpt lat="42.28664" lon="1.75229">
        <ele>1889</ele>
        <time>2010-01-01T03:06:44Z</time>
      </trkpt>
      <trkpt lat="42.28657" lon="1.7519">
        <ele>1888</ele>
        <time>2010-01-01T03:06:56Z</time>
      </trkpt>
      <trkpt lat="42.28656" lon="1.75156">
        <ele>1887</ele>
        <time>2010-01-01T03:07:06Z</time>
      </trkpt>
      <trkpt lat="42.28627" lon="1.75126">
        <ele>1871</ele>
        <time>2010-01-01T03:07:21Z</time>
      </trkpt>
      <trkpt lat="42.28627" lon="1.751">
        <ele>1875</ele>
        <time>2010-01-01T03:07:28Z</time>
      </trkpt>
      <trkpt lat="42.28606" lon="1.75066">
        <ele>1872</ele>
        <time>2010-01-01T03:07:41Z</time>
      </trkpt>
      <trkpt lat="42.28594" lon="1.75066">
        <ele>1868</ele>
        <time>2010-01-01T03:07:46Z</time>
      </trkpt>
      <trkpt lat="42.28581" lon="1.75076">
        <ele>1862</ele>
        <time>2010-01-01T03:07:52Z</time>
      </trkpt>
      <trkpt lat="42.28565" lon="1.75079">
        <ele>1856</ele>
        <time>2010-01-01T03:07:59Z</time>
      </trkpt>
      <trkpt lat="42.28541" lon="1.75053">
        <ele>1854</ele>
        <time>2010-01-01T03:08:11Z</time>
      </trkpt>
      <trkpt lat="42.28541" lon="1.75036">
        <ele>1860</ele>
        <time>2010-01-01T03:08:16Z</time>
      </trkpt>
      <trkpt lat="42.28511" lon="1.7501">
        <ele>1859</ele>
        <time>2010-01-01T03:08:30Z</time>
      </trkpt>
      <trkpt lat="42.28486" lon="1.75061">
        <ele>1830</ele>
        <time>2010-01-01T03:08:49Z</time>
      </trkpt>
      <trkpt lat="42.28462" lon="1.75068">
        <ele>1819</ele>
        <time>2010-01-01T03:08:58Z</time>
      </trkpt>
      <trkpt lat="42.28443" lon="1.75091">
        <ele>1810</ele>
        <time>2010-01-01T03:09:09Z</time>
      </trkpt>
      <trkpt lat="42.28419" lon="1.75128">
        <ele>1785</ele>
        <time>2010-01-01T03:09:23Z</time>
      </trkpt>
      <trkpt lat="42.28383" lon="1.75119">
        <ele>1779</ele>
        <time>2010-01-01T03:09:38Z</time>
      </trkpt>
      <trkpt lat="42.2837" lon="1.75113">
        <ele>1783</ele>
        <time>2010-01-01T03:09:43Z</time>
      </trkpt>
      <trkpt lat="42.28362" lon="1.75134">
        <ele>1772</ele>
        <time>2010-01-01T03:09:51Z</time>
      </trkpt>
      <trkpt lat="42.28386" lon="1.75199">
        <ele>1746</ele>
        <time>2010-01-01T03:10:12Z</time>
      </trkpt>
      <trkpt lat="42.28389" lon="1.75222">
        <ele>1742</ele>
        <time>2010-01-01T03:10:19Z</time>
      </trkpt>
      <trkpt lat="42.28394" lon="1.75285">
        <ele>1728</ele>
        <time>2010-01-01T03:10:37Z</time>
      </trkpt>
      <trkpt lat="42.28402" lon="1.75338">
        <ele>1716</ele>
        <time>2010-01-01T03:10:54Z</time>
      </trkpt>
      <trkpt lat="42.28392" lon="1.75388">
        <ele>1710</ele>
        <time>2010-01-01T03:11:09Z</time>
      </trkpt>
      <trkpt lat="42.28379" lon="1.75422">
        <ele>1705</ele>
        <time>2010-01-01T03:11:20Z</time>
      </trkpt>
      <trkpt lat="42.28368" lon="1.75443">
        <ele>1704</ele>
        <time>2010-01-01T03:11:28Z</time>
      </trkpt>
      <trkpt lat="42.28379" lon="1.75501">
        <ele>1693</ele>
        <time>2010-01-01T03:11:46Z</time>
      </trkpt>
      <trkpt lat="42.28387" lon="1.75525">
        <ele>1683</ele>
        <time>2010-01-01T03:11:53Z</time>
      </trkpt>
      <trkpt lat="42.28405" lon="1.75548">
        <ele>1678</ele>
        <time>2010-01-01T03:12:03Z</time>
      </trkpt>
      <trkpt lat="42.28408" lon="1.75572">
        <ele>1681</ele>
        <time>2010-01-01T03:12:10Z</time>
      </trkpt>
      <trkpt lat="42.28408" lon="1.75596">
        <ele>1682</ele>
        <time>2010-01-01T03:12:17Z</time>
      </trkpt>
      <trkpt lat="42.28402" lon="1.75619">
        <ele>1681</ele>
        <time>2010-01-01T03:12:25Z</time>
      </trkpt>
      <trkpt lat="42.28375" lon="1.75656">
        <ele>1678</ele>
        <time>2010-01-01T03:12:40Z</time>
      </trkpt>
      <trkpt lat="42.28365" lon="1.75679">
        <ele>1671</ele>
        <time>2010-01-01T03:12:48Z</time>
      </trkpt>
      <trkpt lat="42.28354" lon="1.75742">
        <ele>1659</ele>
        <time>2010-01-01T03:13:07Z</time>
      </trkpt>
      <trkpt lat="42.28341" lon="1.75774">
        <ele>1654</ele>
        <time>2010-01-01T03:13:18Z</time>
      </trkpt>
      <trkpt lat="42.28332" lon="1.75815">
        <ele>1642</ele>
        <time>2010-01-01T03:13:30Z</time>
      </trkpt>
      <trkpt lat="42.28329" lon="1.7587">
        <ele>1623</ele>
        <time>2010-01-01T03:13:47Z</time>
      </trkpt>
      <trkpt lat="42.2833" lon="1.75875">
        <ele>1622</ele>
        <time>2010-01-01T03:13:48Z</time>
      </trkpt>
      <trkpt lat="42.28326" lon="1.75885">
        <ele>1620</ele>
        <time>2010-01-01T03:13:52Z</time>
      </trkpt>
      <trkpt lat="42.28323" lon="1.7592">
        <ele>1616</ele>
        <time>2010-01-01T03:14:02Z</time>
      </trkpt>
      <trkpt lat="42.28322" lon="1.7593">
        <ele>1615</ele>
        <time>2010-01-01T03:14:05Z</time>
      </trkpt>
      <trkpt lat="42.28323" lon="1.75933">
        <ele>1614</ele>
        <time>2010-01-01T03:14:06Z</time>
      </trkpt>
      <trkpt lat="42.28326" lon="1.75931">
        <ele>1615</ele>
        <time>2010-01-01T03:14:07Z</time>
      </trkpt>
      <trkpt lat="42.28329" lon="1.7593">
        <ele>1616</ele>
        <time>2010-01-01T03:14:09Z</time>
      </trkpt>
      <trkpt lat="42.28329" lon="1.75929">
        <ele>1616</ele>
        <time>2010-01-01T03:14:09Z</time>
      </trkpt>
      <trkpt lat="42.28328" lon="1.75931">
        <ele>1615</ele>
        <time>2010-01-01T03:14:10Z</time>
      </trkpt>
      <trkpt lat="42.28323" lon="1.75932">
        <ele>1615</ele>
        <time>2010-01-01T03:14:12Z</time>
      </trkpt>
      <trkpt lat="42.2832" lon="1.75924">
        <ele>1615</ele>
        <time>2010-01-01T03:14:14Z</time>
      </trkpt>
      <trkpt lat="42.28304" lon="1.75915">
        <ele>1614</ele>
        <time>2010-01-01T03:14:21Z</time>
      </trkpt>
      <trkpt lat="42.28298" lon="1.75915">
        <ele>1613</ele>
        <time>2010-01-01T03:14:24Z</time>
      </trkpt>
      <trkpt lat="42.28292" lon="1.75918">
        <ele>1610</ele>
        <time>2010-01-01T03:14:26Z</time>
      </trkpt>
      <trkpt lat="42.28289" lon="1.75931">
        <ele>1607</ele>
        <time>2010-01-01T03:14:30Z</time>
      </trkpt>
      <trkpt lat="42.28283" lon="1.7593">
        <ele>1605</ele>
        <time>2010-01-01T03:14:33Z</time>
      </trkpt>
      <trkpt lat="42.28278" lon="1.75932">
        <ele>1603</ele>
        <time>2010-01-01T03:14:35Z</time>
      </trkpt>
      <trkpt lat="42.28276" lon="1.75935">
        <ele>1602</ele>
        <time>2010-01-01T03:14:36Z</time>
      </trkpt>
      <trkpt lat="42.28272" lon="1.75932">
        <ele>1601</ele>
        <time>2010-01-01T03:14:38Z</time>
      </trkpt>
      <trkpt lat="42.2827" lon="1.75934">
        <ele>1599</ele>
        <time>2010-01-01T03:14:39Z</time>
      </trkpt>
      <trkpt lat="42.28268" lon="1.75933">
        <ele>1598</ele>
        <time>2010-01-01T03:14:40Z</time>
      </trkpt>
      <trkpt lat="42.28254" lon="1.75928">
        <ele>1593</ele>
        <time>2010-01-01T03:14:45Z</time>
      </trkpt>
      <trkpt lat="42.28247" lon="1.7593">
        <ele>1588</ele>
        <time>2010-01-01T03:14:48Z</time>
      </trkpt>
      <trkpt lat="42.28239" lon="1.7593">
        <ele>1584</ele>
        <time>2010-01-01T03:14:51Z</time>
      </trkpt>
      <trkpt lat="42.28233" lon="1.75925">
        <ele>1583</ele>
        <time>2010-01-01T03:14:54Z</time>
      </trkpt>
      <trkpt lat="42.28225" lon="1.75924">
        <ele>1579</ele>
        <time>2010-01-01T03:14:57Z</time>
      </trkpt>
      <trkpt lat="42.28228" lon="1.75926">
        <ele>1579</ele>
        <time>2010-01-01T03:14:59Z</time>
      </trkpt>
      <trkpt lat="42.28227" lon="1.75926">
        <ele>1579</ele>
        <time>2010-01-01T03:14:59Z</time>
      </trkpt>
      <trkpt lat="42.28228" lon="1.75923">
        <ele>1581</ele>
        <time>2010-01-01T03:15:00Z</time>
      </trkpt>
      <trkpt lat="42.2823" lon="1.75922">
        <ele>1582</ele>
        <time>2010-01-01T03:15:01Z</time>
      </trkpt>
      <trkpt lat="42.28228" lon="1.75924">
        <ele>1580</ele>
        <time>2010-01-01T03:15:02Z</time>
      </trkpt>
      <trkpt lat="42.28229" lon="1.75925">
        <ele>1581</ele>
        <time>2010-01-01T03:15:02Z</time>
      </trkpt>
      <trkpt lat="42.28219" lon="1.75916">
        <ele>1579</ele>
        <time>2010-01-01T03:15:07Z</time>
      </trkpt>
      <trkpt lat="42.28213" lon="1.75906">
        <ele>1580</ele>
        <time>2010-01-01T03:15:11Z</time>
      </trkpt>
      <trkpt lat="42.28206" lon="1.75902">
        <ele>1578</ele>
        <time>2010-01-01T03:15:14Z</time>
      </trkpt>
      <trkpt lat="42.28203" lon="1.75896">
        <ele>1579</ele>
        <time>2010-01-01T03:15:16Z</time>
      </trkpt>
      <trkpt lat="42.28199" lon="1.75894">
        <ele>1578</ele>
        <time>2010-01-01T03:15:18Z</time>
      </trkpt>
      <trkpt lat="42.28193" lon="1.75894">
        <ele>1575</ele>
        <time>2010-01-01T03:15:20Z</time>
      </trkpt>
      <trkpt lat="42.28184" lon="1.75887">
        <ele>1572</ele>
        <time>2010-01-01T03:15:25Z</time>
      </trkpt>
      <trkpt lat="42.28182" lon="1.75887">
        <ele>1571</ele>
        <time>2010-01-01T03:15:25Z</time>
      </trkpt>
      <trkpt lat="42.2818" lon="1.75882">
        <ele>1572</ele>
        <time>2010-01-01T03:15:27Z</time>
      </trkpt>
      <trkpt lat="42.28177" lon="1.75881">
        <ele>1570</ele>
        <time>2010-01-01T03:15:28Z</time>
      </trkpt>
      <trkpt lat="42.28171" lon="1.75871">
        <ele>1570</ele>
        <time>2010-01-01T03:15:32Z</time>
      </trkpt>
      <trkpt lat="42.28166" lon="1.7587">
        <ele>1567</ele>
        <time>2010-01-01T03:15:34Z</time>
      </trkpt>
      <trkpt lat="42.28163" lon="1.75868">
        <ele>1566</ele>
        <time>2010-01-01T03:15:36Z</time>
      </trkpt>
      <trkpt lat="42.28155" lon="1.75867">
        <ele>1561</ele>
        <time>2010-01-01T03:15:39Z</time>
      </trkpt>
      <trkpt lat="42.28147" lon="1.75871">
        <ele>1556</ele>
        <time>2010-01-01T03:15:42Z</time>
      </trkpt>
      <trkpt lat="42.28141" lon="1.75867">
        <ele>1554</ele>
        <time>2010-01-01T03:15:45Z</time>
      </trkpt>
      <trkpt lat="42.28141" lon="1.75862">
        <ele>1556</ele>
        <time>2010-01-01T03:15:47Z</time>
      </trkpt>
      <trkpt lat="42.28144" lon="1.75864">
        <ele>1557</ele>
        <time>2010-01-01T03:15:48Z</time>
      </trkpt>
      <trkpt lat="42.2814" lon="1.75861">
        <ele>1555</ele>
        <time>2010-01-01T03:15:50Z</time>
      </trkpt>
      <trkpt lat="42.28138" lon="1.75857">
        <ele>1556</ele>
        <time>2010-01-01T03:15:51Z</time>
      </trkpt>
      <trkpt lat="42.2813" lon="1.75848">
        <ele>1555</ele>
        <time>2010-01-01T03:15:55Z</time>
      </trkpt>
      <trkpt lat="42.28127" lon="1.75848">
        <ele>1554</ele>
        <time>2010-01-01T03:15:56Z</time>
      </trkpt>
      <trkpt lat="42.28126" lon="1.75838">
        <ele>1557</ele>
        <time>2010-01-01T03:16:00Z</time>
      </trkpt>
      <trkpt lat="42.2812" lon="1.75829">
        <ele>1557</ele>
        <time>2010-01-01T03:16:03Z</time>
      </trkpt>
      <trkpt lat="42.28107" lon="1.75826">
        <ele>1553</ele>
        <time>2010-01-01T03:16:08Z</time>
      </trkpt>
      <trkpt lat="42.28104" lon="1.75825">
        <ele>1553</ele>
        <time>2010-01-01T03:16:09Z</time>
      </trkpt>
      <trkpt lat="42.28103" lon="1.75827">
        <ele>1552</ele>
        <time>2010-01-01T03:16:10Z</time>
      </trkpt>
      <trkpt lat="42.28098" lon="1.75828">
        <ele>1550</ele>
        <time>2010-01-01T03:16:12Z</time>
      </trkpt>
      <trkpt lat="42.28101" lon="1.75839">
        <ele>1546</ele>
        <time>2010-01-01T03:16:16Z</time>
      </trkpt>
      <trkpt lat="42.28099" lon="1.75839">
        <ele>1545</ele>
        <time>2010-01-01T03:16:17Z</time>
      </trkpt>
      <trkpt lat="42.28097" lon="1.75843">
        <ele>1543</ele>
        <time>2010-01-01T03:16:18Z</time>
      </trkpt>
      <trkpt lat="42.28097" lon="1.75862">
        <ele>1533</ele>
        <time>2010-01-01T03:16:24Z</time>
      </trkpt>
      <trkpt lat="42.28097" lon="1.75862">
        <ele>1534</ele>
        <time>2010-01-01T03:16:24Z</time>
      </trkpt>
      <trkpt lat="42.28097" lon="1.75852">
        <ele>1538</ele>
        <time>2010-01-01T03:16:27Z</time>
      </trkpt>
      <trkpt lat="42.28096" lon="1.75853">
        <ele>1537</ele>
        <time>2010-01-01T03:16:27Z</time>
      </trkpt>
      <trkpt lat="42.28095" lon="1.75852">
        <ele>1537</ele>
        <time>2010-01-01T03:16:28Z</time>
      </trkpt>
      <trkpt lat="42.281" lon="1.7585">
        <ele>1540</ele>
        <time>2010-01-01T03:16:30Z</time>
      </trkpt>
      <trkpt lat="42.28096" lon="1.75846">
        <ele>1541</ele>
        <time>2010-01-01T03:16:32Z</time>
      </trkpt>
      <trkpt lat="42.2809" lon="1.75845">
        <ele>1539</ele>
        <time>2010-01-01T03:16:34Z</time>
      </trkpt>
      <trkpt lat="42.28087" lon="1.75849">
        <ele>1535</ele>
        <time>2010-01-01T03:16:36Z</time>
      </trkpt>
      <trkpt lat="42.28087" lon="1.75852">
        <ele>1534</ele>
        <time>2010-01-01T03:16:37Z</time>
      </trkpt>
      <trkpt lat="42.28085" lon="1.75854">
        <ele>1532</ele>
        <time>2010-01-01T03:16:38Z</time>
      </trkpt>
      <trkpt lat="42.28085" lon="1.75861">
        <ele>1527</ele>
        <time>2010-01-01T03:16:40Z</time>
      </trkpt>
      <trkpt lat="42.28086" lon="1.75866">
        <ele>1526</ele>
        <time>2010-01-01T03:16:42Z</time>
      </trkpt>
      <trkpt lat="42.28084" lon="1.75873">
        <ele>1522</ele>
        <time>2010-01-01T03:16:44Z</time>
      </trkpt>
      <trkpt lat="42.28087" lon="1.75886">
        <ele>1518</ele>
        <time>2010-01-01T03:16:48Z</time>
      </trkpt>
      <trkpt lat="42.28085" lon="1.75906">
        <ele>1509</ele>
        <time>2010-01-01T03:16:54Z</time>
      </trkpt>
      <trkpt lat="42.28086" lon="1.75912">
        <ele>1508</ele>
        <time>2010-01-01T03:16:56Z</time>
      </trkpt>
      <trkpt lat="42.28086" lon="1.7593">
        <ele>1503</ele>
        <time>2010-01-01T03:17:01Z</time>
      </trkpt>
      <trkpt lat="42.28088" lon="1.75936">
        <ele>1503</ele>
        <time>2010-01-01T03:17:03Z</time>
      </trkpt>
      <trkpt lat="42.28088" lon="1.7594">
        <ele>1502</ele>
        <time>2010-01-01T03:17:04Z</time>
      </trkpt>
      <trkpt lat="42.28082" lon="1.75949">
        <ele>1497</ele>
        <time>2010-01-01T03:17:08Z</time>
      </trkpt>
      <trkpt lat="42.28082" lon="1.75953">
        <ele>1496</ele>
        <time>2010-01-01T03:17:09Z</time>
      </trkpt>
      <trkpt lat="42.2808" lon="1.75954">
        <ele>1495</ele>
        <time>2010-01-01T03:17:10Z</time>
      </trkpt>
      <trkpt lat="42.2807" lon="1.75935">
        <ele>1495</ele>
        <time>2010-01-01T03:17:17Z</time>
      </trkpt>
      <trkpt lat="42.28064" lon="1.7593">
        <ele>1494</ele>
        <time>2010-01-01T03:17:20Z</time>
      </trkpt>
      <trkpt lat="42.28062" lon="1.75931">
        <ele>1492</ele>
        <time>2010-01-01T03:17:21Z</time>
      </trkpt>
      <trkpt lat="42.28063" lon="1.75947">
        <ele>1488</ele>
        <time>2010-01-01T03:17:25Z</time>
      </trkpt>
      <trkpt lat="42.2806" lon="1.75954">
        <ele>1485</ele>
        <time>2010-01-01T03:17:28Z</time>
      </trkpt>
      <trkpt lat="42.2806" lon="1.75962">
        <ele>1483</ele>
        <time>2010-01-01T03:17:30Z</time>
      </trkpt>
      <trkpt lat="42.28053" lon="1.75966">
        <ele>1478</ele>
        <time>2010-01-01T03:17:33Z</time>
      </trkpt>
      <trkpt lat="42.28055" lon="1.7598">
        <ele>1475</ele>
        <time>2010-01-01T03:17:37Z</time>
      </trkpt>
      <trkpt lat="42.28054" lon="1.75987">
        <ele>1474</ele>
        <time>2010-01-01T03:17:39Z</time>
      </trkpt>
      <trkpt lat="42.28053" lon="1.7599">
        <ele>1473</ele>
        <time>2010-01-01T03:17:40Z</time>
      </trkpt>
      <trkpt lat="42.28049" lon="1.7599">
        <ele>1471</ele>
        <time>2010-01-01T03:17:42Z</time>
      </trkpt>
      <trkpt lat="42.28045" lon="1.76">
        <ele>1468</ele>
        <time>2010-01-01T03:17:45Z</time>
      </trkpt>
      <trkpt lat="42.2805" lon="1.7601">
        <ele>1467</ele>
        <time>2010-01-01T03:17:49Z</time>
      </trkpt>
      <trkpt lat="42.28045" lon="1.76004">
        <ele>1467</ele>
        <time>2010-01-01T03:17:51Z</time>
      </trkpt>
      <trkpt lat="42.28041" lon="1.76003">
        <ele>1465</ele>
        <time>2010-01-01T03:17:53Z</time>
      </trkpt>
      <trkpt lat="42.28039" lon="1.76005">
        <ele>1464</ele>
        <time>2010-01-01T03:17:54Z</time>
      </trkpt>
      <trkpt lat="42.28037" lon="1.7601">
        <ele>1462</ele>
        <time>2010-01-01T03:17:56Z</time>
      </trkpt>
      <trkpt lat="42.28038" lon="1.76019">
        <ele>1460</ele>
        <time>2010-01-01T03:17:58Z</time>
      </trkpt>
      <trkpt lat="42.28038" lon="1.76016">
        <ele>1461</ele>
        <time>2010-01-01T03:17:59Z</time>
      </trkpt>
      <trkpt lat="42.28019" lon="1.75996">
        <ele>1460</ele>
        <time>2010-01-01T03:18:09Z</time>
      </trkpt>
      <trkpt lat="42.28017" lon="1.75998">
        <ele>1459</ele>
        <time>2010-01-01T03:18:10Z</time>
      </trkpt>
      <trkpt lat="42.2802" lon="1.76007">
        <ele>1457</ele>
        <time>2010-01-01T03:18:13Z</time>
      </trkpt>
      <trkpt lat="42.28023" lon="1.76012">
        <ele>1457</ele>
        <time>2010-01-01T03:18:15Z</time>
      </trkpt>
      <trkpt lat="42.28023" lon="1.76018">
        <ele>1455</ele>
        <time>2010-01-01T03:18:17Z</time>
      </trkpt>
      <trkpt lat="42.28013" lon="1.76008">
        <ele>1455</ele>
        <time>2010-01-01T03:18:22Z</time>
      </trkpt>
      <trkpt lat="42.28004" lon="1.76005">
        <ele>1453</ele>
        <time>2010-01-01T03:18:25Z</time>
      </trkpt>
      <trkpt lat="42.27997" lon="1.76019">
        <ele>1448</ele>
        <time>2010-01-01T03:18:30Z</time>
      </trkpt>
      <trkpt lat="42.27998" lon="1.76032">
        <ele>1444</ele>
        <time>2010-01-01T03:18:34Z</time>
      </trkpt>
      <trkpt lat="42.27993" lon="1.76049">
        <ele>1440</ele>
        <time>2010-01-01T03:18:39Z</time>
      </trkpt>
      <trkpt lat="42.27994" lon="1.76056">
        <ele>1439</ele>
        <time>2010-01-01T03:18:42Z</time>
      </trkpt>
      <trkpt lat="42.27981" lon="1.76034">
        <ele>1441</ele>
        <time>2010-01-01T03:18:50Z</time>
      </trkpt>
      <trkpt lat="42.27975" lon="1.76029">
        <ele>1441</ele>
        <time>2010-01-01T03:18:53Z</time>
      </trkpt>
      <trkpt lat="42.2797" lon="1.76029">
        <ele>1440</ele>
        <time>2010-01-01T03:18:55Z</time>
      </trkpt>
      <trkpt lat="42.27966" lon="1.76031">
        <ele>1439</ele>
        <time>2010-01-01T03:18:56Z</time>
      </trkpt>
      <trkpt lat="42.27963" lon="1.76027">
        <ele>1440</ele>
        <time>2010-01-01T03:18:58Z</time>
      </trkpt>
      <trkpt lat="42.27959" lon="1.76026">
        <ele>1440</ele>
        <time>2010-01-01T03:19:00Z</time>
      </trkpt>
      <trkpt lat="42.27955" lon="1.7603">
        <ele>1439</ele>
        <time>2010-01-01T03:19:02Z</time>
      </trkpt>
      <trkpt lat="42.27954" lon="1.76034">
        <ele>1437</ele>
        <time>2010-01-01T03:19:03Z</time>
      </trkpt>
      <trkpt lat="42.27956" lon="1.76045">
        <ele>1434</ele>
        <time>2010-01-01T03:19:06Z</time>
      </trkpt>
      <trkpt lat="42.2795" lon="1.76055">
        <ele>1432</ele>
        <time>2010-01-01T03:19:10Z</time>
      </trkpt>
      <trkpt lat="42.27949" lon="1.76058">
        <ele>1430</ele>
        <time>2010-01-01T03:19:11Z</time>
      </trkpt>
      <trkpt lat="42.27952" lon="1.76066">
        <ele>1425</ele>
        <time>2010-01-01T03:19:14Z</time>
      </trkpt>
      <trkpt lat="42.27952" lon="1.7607">
        <ele>1423</ele>
        <time>2010-01-01T03:19:15Z</time>
      </trkpt>
      <trkpt lat="42.27944" lon="1.76073">
        <ele>1421</ele>
        <time>2010-01-01T03:19:19Z</time>
      </trkpt>
      <trkpt lat="42.27937" lon="1.7607">
        <ele>1424</ele>
        <time>2010-01-01T03:19:22Z</time>
      </trkpt>
      <trkpt lat="42.27935" lon="1.76076">
        <ele>1421</ele>
        <time>2010-01-01T03:19:24Z</time>
      </trkpt>
      <trkpt lat="42.27938" lon="1.76079">
        <ele>1419</ele>
        <time>2010-01-01T03:19:25Z</time>
      </trkpt>
      <trkpt lat="42.27941" lon="1.76078">
        <ele>1419</ele>
        <time>2010-01-01T03:19:26Z</time>
      </trkpt>
      <trkpt lat="42.27943" lon="1.76081">
        <ele>1416</ele>
        <time>2010-01-01T03:19:28Z</time>
      </trkpt>
      <trkpt lat="42.27943" lon="1.76084">
        <ele>1414</ele>
        <time>2010-01-01T03:19:29Z</time>
      </trkpt>
      <trkpt lat="42.2794" lon="1.76082">
        <ele>1416</ele>
        <time>2010-01-01T03:19:30Z</time>
      </trkpt>
      <trkpt lat="42.27939" lon="1.76083">
        <ele>1416</ele>
        <time>2010-01-01T03:19:31Z</time>
      </trkpt>
      <trkpt lat="42.27941" lon="1.76082">
        <ele>1416</ele>
        <time>2010-01-01T03:19:32Z</time>
      </trkpt>
      <trkpt lat="42.27938" lon="1.7608">
        <ele>1418</ele>
        <time>2010-01-01T03:19:33Z</time>
      </trkpt>
      <trkpt lat="42.27938" lon="1.76081">
        <ele>1417</ele>
        <time>2010-01-01T03:19:33Z</time>
      </trkpt>
      <trkpt lat="42.27941" lon="1.76082">
        <ele>1416</ele>
        <time>2010-01-01T03:19:34Z</time>
      </trkpt>
      <trkpt lat="42.27936" lon="1.76082">
        <ele>1417</ele>
        <time>2010-01-01T03:19:36Z</time>
      </trkpt>
      <trkpt lat="42.2794" lon="1.76079">
        <ele>1418</ele>
        <time>2010-01-01T03:19:38Z</time>
      </trkpt>
      <trkpt lat="42.27943" lon="1.76079">
        <ele>1418</ele>
        <time>2010-01-01T03:19:39Z</time>
      </trkpt>
      <trkpt lat="42.27942" lon="1.76082">
        <ele>1416</ele>
        <time>2010-01-01T03:19:40Z</time>
      </trkpt>
      <trkpt lat="42.27931" lon="1.76078">
        <ele>1421</ele>
        <time>2010-01-01T03:19:45Z</time>
      </trkpt>
      <trkpt lat="42.27925" lon="1.76078">
        <ele>1422</ele>
        <time>2010-01-01T03:19:47Z</time>
      </trkpt>
      <trkpt lat="42.27924" lon="1.7608">
        <ele>1421</ele>
        <time>2010-01-01T03:19:48Z</time>
      </trkpt>
      <trkpt lat="42.27927" lon="1.76092">
        <ele>1414</ele>
        <time>2010-01-01T03:19:52Z</time>
      </trkpt>
      <trkpt lat="42.27925" lon="1.76099">
        <ele>1410</ele>
        <time>2010-01-01T03:19:54Z</time>
      </trkpt>
      <trkpt lat="42.27929" lon="1.76117">
        <ele>1400</ele>
        <time>2010-01-01T03:20:00Z</time>
      </trkpt>
      <trkpt lat="42.27926" lon="1.76132">
        <ele>1395</ele>
        <time>2010-01-01T03:20:04Z</time>
      </trkpt>
      <trkpt lat="42.27929" lon="1.7614">
        <ele>1391</ele>
        <time>2010-01-01T03:20:07Z</time>
      </trkpt>
      <trkpt lat="42.27926" lon="1.76146">
        <ele>1390</ele>
        <time>2010-01-01T03:20:09Z</time>
      </trkpt>
      <trkpt lat="42.27929" lon="1.76148">
        <ele>1389</ele>
        <time>2010-01-01T03:20:10Z</time>
      </trkpt>
      <trkpt lat="42.27929" lon="1.76154">
        <ele>1388</ele>
        <time>2010-01-01T03:20:12Z</time>
      </trkpt>
      <trkpt lat="42.27926" lon="1.76153">
        <ele>1388</ele>
        <time>2010-01-01T03:20:13Z</time>
      </trkpt>
      <trkpt lat="42.27916" lon="1.76141">
        <ele>1393</ele>
        <time>2010-01-01T03:20:18Z</time>
      </trkpt>
      <trkpt lat="42.27911" lon="1.76141">
        <ele>1395</ele>
        <time>2010-01-01T03:20:20Z</time>
      </trkpt>
      <trkpt lat="42.27909" lon="1.76144">
        <ele>1395</ele>
        <time>2010-01-01T03:20:21Z</time>
      </trkpt>
      <trkpt lat="42.27917" lon="1.76161">
        <ele>1387</ele>
        <time>2010-01-01T03:20:27Z</time>
      </trkpt>
      <trkpt lat="42.27921" lon="1.76167">
        <ele>1385</ele>
        <time>2010-01-01T03:20:30Z</time>
      </trkpt>
      <trkpt lat="42.2792" lon="1.76173">
        <ele>1383</ele>
        <time>2010-01-01T03:20:31Z</time>
      </trkpt>
      <trkpt lat="42.27922" lon="1.76178">
        <ele>1381</ele>
        <time>2010-01-01T03:20:33Z</time>
      </trkpt>
      <trkpt lat="42.27924" lon="1.76191">
        <ele>1377</ele>
        <time>2010-01-01T03:20:37Z</time>
      </trkpt>
      <trkpt lat="42.27923" lon="1.76209">
        <ele>1370</ele>
        <time>2010-01-01T03:20:42Z</time>
      </trkpt>
      <trkpt lat="42.27927" lon="1.76224">
        <ele>1364</ele>
        <time>2010-01-01T03:20:47Z</time>
      </trkpt>
      <trkpt lat="42.27926" lon="1.7623">
        <ele>1361</ele>
        <time>2010-01-01T03:20:49Z</time>
      </trkpt>
      <trkpt lat="42.27919" lon="1.76234">
        <ele>1360</ele>
        <time>2010-01-01T03:20:52Z</time>
      </trkpt>
      <trkpt lat="42.27911" lon="1.76243">
        <ele>1355</ele>
        <time>2010-01-01T03:20:56Z</time>
      </trkpt>
      <trkpt lat="42.27907" lon="1.76243">
        <ele>1355</ele>
        <time>2010-01-01T03:20:58Z</time>
      </trkpt>
      <trkpt lat="42.27905" lon="1.76241">
        <ele>1356</ele>
        <time>2010-01-01T03:20:59Z</time>
      </trkpt>
      <trkpt lat="42.27897" lon="1.76242">
        <ele>1355</ele>
        <time>2010-01-01T03:21:02Z</time>
      </trkpt>
      <trkpt lat="42.27891" lon="1.7624">
        <ele>1356</ele>
        <time>2010-01-01T03:21:04Z</time>
      </trkpt>
      <trkpt lat="42.27887" lon="1.7624">
        <ele>1356</ele>
        <time>2010-01-01T03:21:06Z</time>
      </trkpt>
      <trkpt lat="42.27879" lon="1.76242">
        <ele>1355</ele>
        <time>2010-01-01T03:21:09Z</time>
      </trkpt>
      <trkpt lat="42.27874" lon="1.76239">
        <ele>1358</ele>
        <time>2010-01-01T03:21:12Z</time>
      </trkpt>
      <trkpt lat="42.27865" lon="1.76242">
        <ele>1356</ele>
        <time>2010-01-01T03:21:15Z</time>
      </trkpt>
      <trkpt lat="42.27856" lon="1.76248">
        <ele>1353</ele>
        <time>2010-01-01T03:21:19Z</time>
      </trkpt>
      <trkpt lat="42.27853" lon="1.76248">
        <ele>1354</ele>
        <time>2010-01-01T03:21:21Z</time>
      </trkpt>
      <trkpt lat="42.27846" lon="1.76255">
        <ele>1353</ele>
        <time>2010-01-01T03:21:24Z</time>
      </trkpt>
      <trkpt lat="42.27843" lon="1.76256">
        <ele>1353</ele>
        <time>2010-01-01T03:21:25Z</time>
      </trkpt>
      <trkpt lat="42.27842" lon="1.76265">
        <ele>1348</ele>
        <time>2010-01-01T03:21:28Z</time>
      </trkpt>
      <trkpt lat="42.27838" lon="1.7627">
        <ele>1346</ele>
        <time>2010-01-01T03:21:30Z</time>
      </trkpt>
      <trkpt lat="42.27831" lon="1.7627">
        <ele>1348</ele>
        <time>2010-01-01T03:21:33Z</time>
      </trkpt>
      <trkpt lat="42.27825" lon="1.76277">
        <ele>1344</ele>
        <time>2010-01-01T03:21:36Z</time>
      </trkpt>
      <trkpt lat="42.27821" lon="1.76279">
        <ele>1344</ele>
        <time>2010-01-01T03:21:38Z</time>
      </trkpt>
      <trkpt lat="42.27799" lon="1.76294">
        <ele>1340</ele>
        <time>2010-01-01T03:21:48Z</time>
      </trkpt>
      <trkpt lat="42.2779" lon="1.76294">
        <ele>1342</ele>
        <time>2010-01-01T03:21:51Z</time>
      </trkpt>
      <trkpt lat="42.27802" lon="1.76303">
        <ele>1335</ele>
        <time>2010-01-01T03:21:57Z</time>
      </trkpt>
      <trkpt lat="42.27797" lon="1.76301">
        <ele>1337</ele>
        <time>2010-01-01T03:21:59Z</time>
      </trkpt>
      <trkpt lat="42.27788" lon="1.763">
        <ele>1340</ele>
        <time>2010-01-01T03:22:02Z</time>
      </trkpt>
      <trkpt lat="42.27783" lon="1.76306">
        <ele>1339</ele>
        <time>2010-01-01T03:22:05Z</time>
      </trkpt>
      <trkpt lat="42.27781" lon="1.76312">
        <ele>1337</ele>
        <time>2010-01-01T03:22:07Z</time>
      </trkpt>
      <trkpt lat="42.27782" lon="1.76328">
        <ele>1330</ele>
        <time>2010-01-01T03:22:12Z</time>
      </trkpt>
      <trkpt lat="42.2778" lon="1.76327">
        <ele>1331</ele>
        <time>2010-01-01T03:22:13Z</time>
      </trkpt>
      <trkpt lat="42.27777" lon="1.76334">
        <ele>1329</ele>
        <time>2010-01-01T03:22:15Z</time>
      </trkpt>
      <trkpt lat="42.27779" lon="1.76353">
        <ele>1318</ele>
        <time>2010-01-01T03:22:21Z</time>
      </trkpt>
      <trkpt lat="42.2778" lon="1.76356">
        <ele>1317</ele>
        <time>2010-01-01T03:22:22Z</time>
      </trkpt>
      <trkpt lat="42.27781" lon="1.76355">
        <ele>1317</ele>
        <time>2010-01-01T03:22:22Z</time>
      </trkpt>
      <trkpt lat="42.27781" lon="1.76357">
        <ele>1316</ele>
        <time>2010-01-01T03:22:23Z</time>
      </trkpt>
      <trkpt lat="42.27781" lon="1.7636">
        <ele>1315</ele>
        <time>2010-01-01T03:22:24Z</time>
      </trkpt>
      <trkpt lat="42.27774" lon="1.76371">
        <ele>1310</ele>
        <time>2010-01-01T03:22:28Z</time>
      </trkpt>
      <trkpt lat="42.27774" lon="1.76377">
        <ele>1306</ele>
        <time>2010-01-01T03:22:30Z</time>
      </trkpt>
      <trkpt lat="42.27769" lon="1.76375">
        <ele>1309</ele>
        <time>2010-01-01T03:22:32Z</time>
      </trkpt>
      <trkpt lat="42.27766" lon="1.76382">
        <ele>1306</ele>
        <time>2010-01-01T03:22:34Z</time>
      </trkpt>
      <trkpt lat="42.27759" lon="1.76384">
        <ele>1307</ele>
        <time>2010-01-01T03:22:37Z</time>
      </trkpt>
      <trkpt lat="42.27757" lon="1.76387">
        <ele>1306</ele>
        <time>2010-01-01T03:22:38Z</time>
      </trkpt>
      <trkpt lat="42.27744" lon="1.76413">
        <ele>1297</ele>
        <time>2010-01-01T03:22:48Z</time>
      </trkpt>
      <trkpt lat="42.27741" lon="1.76418">
        <ele>1297</ele>
        <time>2010-01-01T03:22:49Z</time>
      </trkpt>
      <trkpt lat="42.27739" lon="1.76424">
        <ele>1296</ele>
        <time>2010-01-01T03:22:52Z</time>
      </trkpt>
      <trkpt lat="42.27733" lon="1.76431">
        <ele>1297</ele>
        <time>2010-01-01T03:22:55Z</time>
      </trkpt>
      <trkpt lat="42.27725" lon="1.76444">
        <ele>1296</ele>
        <time>2010-01-01T03:23:00Z</time>
      </trkpt>
      <trkpt lat="42.27726" lon="1.76449">
        <ele>1293</ele>
        <time>2010-01-01T03:23:01Z</time>
      </trkpt>
      <trkpt lat="42.27724" lon="1.7645">
        <ele>1293</ele>
        <time>2010-01-01T03:23:02Z</time>
      </trkpt>
      <trkpt lat="42.27723" lon="1.76457">
        <ele>1291</ele>
        <time>2010-01-01T03:23:04Z</time>
      </trkpt>
      <trkpt lat="42.27713" lon="1.76471">
        <ele>1290</ele>
        <time>2010-01-01T03:23:10Z</time>
      </trkpt>
      <trkpt lat="42.27712" lon="1.76478">
        <ele>1287</ele>
        <time>2010-01-01T03:23:12Z</time>
      </trkpt>
      <trkpt lat="42.27708" lon="1.76485">
        <ele>1288</ele>
        <time>2010-01-01T03:23:15Z</time>
      </trkpt>
      <trkpt lat="42.27703" lon="1.76501">
        <ele>1284</ele>
        <time>2010-01-01T03:23:20Z</time>
      </trkpt>
      <trkpt lat="42.27699" lon="1.7651">
        <ele>1282</ele>
        <time>2010-01-01T03:23:23Z</time>
      </trkpt>
      <trkpt lat="42.27697" lon="1.76519">
        <ele>1280</ele>
        <time>2010-01-01T03:23:26Z</time>
      </trkpt>
      <trkpt lat="42.27698" lon="1.76522">
        <ele>1279</ele>
        <time>2010-01-01T03:23:27Z</time>
      </trkpt>
      <trkpt lat="42.27695" lon="1.76526">
        <ele>1278</ele>
        <time>2010-01-01T03:23:28Z</time>
      </trkpt>
      <trkpt lat="42.27694" lon="1.76536">
        <ele>1276</ele>
        <time>2010-01-01T03:23:31Z</time>
      </trkpt>
      <trkpt lat="42.2769" lon="1.76545">
        <ele>1275</ele>
        <time>2010-01-01T03:23:34Z</time>
      </trkpt>
      <trkpt lat="42.27684" lon="1.76555">
        <ele>1275</ele>
        <time>2010-01-01T03:23:38Z</time>
      </trkpt>
      <trkpt lat="42.27669" lon="1.76573">
        <ele>1277</ele>
        <time>2010-01-01T03:23:46Z</time>
      </trkpt>
      <trkpt lat="42.27665" lon="1.76581">
        <ele>1278</ele>
        <time>2010-01-01T03:23:49Z</time>
      </trkpt>
      <trkpt lat="42.27663" lon="1.76589">
        <ele>1277</ele>
        <time>2010-01-01T03:23:52Z</time>
      </trkpt>
      <trkpt lat="42.27662" lon="1.766">
        <ele>1275</ele>
        <time>2010-01-01T03:23:55Z</time>
      </trkpt>
      <trkpt lat="42.27665" lon="1.76625">
        <ele>1265</ele>
        <time>2010-01-01T03:24:02Z</time>
      </trkpt>
      <trkpt lat="42.27664" lon="1.76637">
        <ele>1261</ele>
        <time>2010-01-01T03:24:06Z</time>
      </trkpt>
      <trkpt lat="42.27662" lon="1.76643">
        <ele>1260</ele>
        <time>2010-01-01T03:24:08Z</time>
      </trkpt>
      <trkpt lat="42.2766" lon="1.76658">
        <ele>1254</ele>
        <time>2010-01-01T03:24:12Z</time>
      </trkpt>
      <trkpt lat="42.27654" lon="1.76671">
        <ele>1252</ele>
        <time>2010-01-01T03:24:17Z</time>
      </trkpt>
      <trkpt lat="42.27655" lon="1.76673">
        <ele>1251</ele>
        <time>2010-01-01T03:24:18Z</time>
      </trkpt>
      <trkpt lat="42.27646" lon="1.76695">
        <ele>1245</ele>
        <time>2010-01-01T03:24:25Z</time>
      </trkpt>
      <trkpt lat="42.27649" lon="1.76693">
        <ele>1245</ele>
        <time>2010-01-01T03:24:27Z</time>
      </trkpt>
      <trkpt lat="42.27653" lon="1.76697">
        <ele>1242</ele>
        <time>2010-01-01T03:24:29Z</time>
      </trkpt>
      <trkpt lat="42.27648" lon="1.76706">
        <ele>1241</ele>
        <time>2010-01-01T03:24:32Z</time>
      </trkpt>
      <trkpt lat="42.27649" lon="1.76706">
        <ele>1241</ele>
        <time>2010-01-01T03:24:33Z</time>
      </trkpt>
      <trkpt lat="42.27648" lon="1.76699">
        <ele>1243</ele>
        <time>2010-01-01T03:24:35Z</time>
      </trkpt>
      <trkpt lat="42.27649" lon="1.76703">
        <ele>1241</ele>
        <time>2010-01-01T03:24:36Z</time>
      </trkpt>
      <trkpt lat="42.27646" lon="1.76714">
        <ele>1239</ele>
        <time>2010-01-01T03:24:39Z</time>
      </trkpt>
      <trkpt lat="42.27635" lon="1.76728">
        <ele>1236</ele>
        <time>2010-01-01T03:24:45Z</time>
      </trkpt>
      <trkpt lat="42.27626" lon="1.76747">
        <ele>1233</ele>
        <time>2010-01-01T03:24:52Z</time>
      </trkpt>
      <trkpt lat="42.27626" lon="1.76752">
        <ele>1232</ele>
        <time>2010-01-01T03:24:54Z</time>
      </trkpt>
      <trkpt lat="42.27627" lon="1.76751">
        <ele>1232</ele>
        <time>2010-01-01T03:24:54Z</time>
      </trkpt>
      <trkpt lat="42.2763" lon="1.76754">
        <ele>1231</ele>
        <time>2010-01-01T03:24:56Z</time>
      </trkpt>
      <trkpt lat="42.27634" lon="1.76756">
        <ele>1230</ele>
        <time>2010-01-01T03:24:57Z</time>
      </trkpt>
      <trkpt lat="42.2764" lon="1.76753">
        <ele>1230</ele>
        <time>2010-01-01T03:25:00Z</time>
      </trkpt>
      <trkpt lat="42.27643" lon="1.76747">
        <ele>1232</ele>
        <time>2010-01-01T03:25:02Z</time>
      </trkpt>
      <trkpt lat="42.27653" lon="1.76738">
        <ele>1234</ele>
        <time>2010-01-01T03:25:07Z</time>
      </trkpt>
      <trkpt lat="42.2765" lon="1.76746">
        <ele>1233</ele>
        <time>2010-01-01T03:25:09Z</time>
      </trkpt>
      <trkpt lat="42.27643" lon="1.76745">
        <ele>1232</ele>
        <time>2010-01-01T03:25:12Z</time>
      </trkpt>
      <trkpt lat="42.27634" lon="1.7674">
        <ele>1234</ele>
        <time>2010-01-01T03:25:16Z</time>
      </trkpt>
      <trkpt lat="42.2763" lon="1.7674">
        <ele>1235</ele>
        <time>2010-01-01T03:25:17Z</time>
      </trkpt>
      <trkpt lat="42.27627" lon="1.76743">
        <ele>1234</ele>
        <time>2010-01-01T03:25:19Z</time>
      </trkpt>
      <trkpt lat="42.27628" lon="1.76747">
        <ele>1233</ele>
        <time>2010-01-01T03:25:20Z</time>
      </trkpt>
      <trkpt lat="42.27641" lon="1.76739">
        <ele>1233</ele>
        <time>2010-01-01T03:25:26Z</time>
      </trkpt>
      <trkpt lat="42.27647" lon="1.76738">
        <ele>1234</ele>
        <time>2010-01-01T03:25:28Z</time>
      </trkpt>
      <trkpt lat="42.2764" lon="1.76746">
        <ele>1232</ele>
        <time>2010-01-01T03:25:32Z</time>
      </trkpt>
      <trkpt lat="42.27637" lon="1.76752">
        <ele>1230</ele>
        <time>2010-01-01T03:25:34Z</time>
      </trkpt>
      <trkpt lat="42.27631" lon="1.7676">
        <ele>1230</ele>
        <time>2010-01-01T03:25:38Z</time>
      </trkpt>
      <trkpt lat="42.27625" lon="1.7677">
        <ele>1229</ele>
        <time>2010-01-01T03:25:41Z</time>
      </trkpt>
      <trkpt lat="42.27623" lon="1.76776">
        <ele>1228</ele>
        <time>2010-01-01T03:25:43Z</time>
      </trkpt>
      <trkpt lat="42.27621" lon="1.76837">
        <ele>1222</ele>
        <time>2010-01-01T03:26:01Z</time>
      </trkpt>
      <trkpt lat="42.27627" lon="1.76862">
        <ele>1220</ele>
        <time>2010-01-01T03:26:09Z</time>
      </trkpt>
      <trkpt lat="42.27626" lon="1.76867">
        <ele>1219</ele>
        <time>2010-01-01T03:26:11Z</time>
      </trkpt>
      <trkpt lat="42.27623" lon="1.76864">
        <ele>1218</ele>
        <time>2010-01-01T03:26:12Z</time>
      </trkpt>
      <trkpt lat="42.2762" lon="1.76866">
        <ele>1216</ele>
        <time>2010-01-01T03:26:13Z</time>
      </trkpt>
      <trkpt lat="42.27618" lon="1.76875">
        <ele>1215</ele>
        <time>2010-01-01T03:26:16Z</time>
      </trkpt>
      <trkpt lat="42.27621" lon="1.76889">
        <ele>1215</ele>
        <time>2010-01-01T03:26:21Z</time>
      </trkpt>
      <trkpt lat="42.27614" lon="1.76911">
        <ele>1210</ele>
        <time>2010-01-01T03:26:28Z</time>
      </trkpt>
      <trkpt lat="42.27612" lon="1.7693">
        <ele>1208</ele>
        <time>2010-01-01T03:26:34Z</time>
      </trkpt>
      <trkpt lat="42.27607" lon="1.7695">
        <ele>1206</ele>
        <time>2010-01-01T03:26:40Z</time>
      </trkpt>
      <trkpt lat="42.27607" lon="1.76953">
        <ele>1206</ele>
        <time>2010-01-01T03:26:41Z</time>
      </trkpt>
      <trkpt lat="42.27611" lon="1.76953">
        <ele>1206</ele>
        <time>2010-01-01T03:26:42Z</time>
      </trkpt>
      <trkpt lat="42.27613" lon="1.76956">
        <ele>1207</ele>
        <time>2010-01-01T03:26:43Z</time>
      </trkpt>
      <trkpt lat="42.27615" lon="1.76967">
        <ele>1207</ele>
        <time>2010-01-01T03:26:47Z</time>
      </trkpt>
      <trkpt lat="42.27612" lon="1.76981">
        <ele>1204</ele>
        <time>2010-01-01T03:26:51Z</time>
      </trkpt>
      <trkpt lat="42.27604" lon="1.76998">
        <ele>1201</ele>
        <time>2010-01-01T03:26:57Z</time>
      </trkpt>
      <trkpt lat="42.27602" lon="1.77006">
        <ele>1201</ele>
        <time>2010-01-01T03:27:00Z</time>
      </trkpt>
      <trkpt lat="42.27605" lon="1.77043">
        <ele>1200</ele>
        <time>2010-01-01T03:27:11Z</time>
      </trkpt>
      <trkpt lat="42.27602" lon="1.77065">
        <ele>1199</ele>
        <time>2010-01-01T03:27:17Z</time>
      </trkpt>
      <trkpt lat="42.27602" lon="1.77074">
        <ele>1199</ele>
        <time>2010-01-01T03:27:20Z</time>
      </trkpt>
      <trkpt lat="42.27605" lon="1.77082">
        <ele>1199</ele>
        <time>2010-01-01T03:27:23Z</time>
      </trkpt>
      <trkpt lat="42.27609" lon="1.77086">
        <ele>1199</ele>
        <time>2010-01-01T03:27:25Z</time>
      </trkpt>
      <trkpt lat="42.2761" lon="1.77093">
        <ele>1197</ele>
        <time>2010-01-01T03:27:27Z</time>
      </trkpt>
      <trkpt lat="42.27621" lon="1.77104">
        <ele>1196</ele>
        <time>2010-01-01T03:27:32Z</time>
      </trkpt>
      <trkpt lat="42.27622" lon="1.77108">
        <ele>1195</ele>
        <time>2010-01-01T03:27:34Z</time>
      </trkpt>
      <trkpt lat="42.27617" lon="1.77123">
        <ele>1188</ele>
        <time>2010-01-01T03:27:38Z</time>
      </trkpt>
      <trkpt lat="42.27618" lon="1.77146">
        <ele>1180</ele>
        <time>2010-01-01T03:27:45Z</time>
      </trkpt>
      <trkpt lat="42.27622" lon="1.77161">
        <ele>1176</ele>
        <time>2010-01-01T03:27:50Z</time>
      </trkpt>
      <trkpt lat="42.27626" lon="1.77165">
        <ele>1175</ele>
        <time>2010-01-01T03:27:52Z</time>
      </trkpt>
      <trkpt lat="42.27626" lon="1.7717">
        <ele>1173</ele>
        <time>2010-01-01T03:27:53Z</time>
      </trkpt>
      <trkpt lat="42.27636" lon="1.77178">
        <ele>1172</ele>
        <time>2010-01-01T03:27:58Z</time>
      </trkpt>
      <trkpt lat="42.27648" lon="1.77184">
        <ele>1176</ele>
        <time>2010-01-01T03:28:04Z</time>
      </trkpt>
      <trkpt lat="42.27649" lon="1.77192">
        <ele>1174</ele>
        <time>2010-01-01T03:28:06Z</time>
      </trkpt>
      <trkpt lat="42.27648" lon="1.77194">
        <ele>1172</ele>
        <time>2010-01-01T03:28:07Z</time>
      </trkpt>
      <trkpt lat="42.27653" lon="1.77186">
        <ele>1177</ele>
        <time>2010-01-01T03:28:10Z</time>
      </trkpt>
      <trkpt lat="42.27657" lon="1.77186">
        <ele>1179</ele>
        <time>2010-01-01T03:28:11Z</time>
      </trkpt>
      <trkpt lat="42.2765" lon="1.77201">
        <ele>1172</ele>
        <time>2010-01-01T03:28:17Z</time>
      </trkpt>
      <trkpt lat="42.27649" lon="1.77209">
        <ele>1172</ele>
        <time>2010-01-01T03:28:19Z</time>
      </trkpt>
      <trkpt lat="42.27657" lon="1.77225">
        <ele>1174</ele>
        <time>2010-01-01T03:28:25Z</time>
      </trkpt>
      <trkpt lat="42.27656" lon="1.77232">
        <ele>1172</ele>
        <time>2010-01-01T03:28:27Z</time>
      </trkpt>
      <trkpt lat="42.27659" lon="1.77239">
        <ele>1172</ele>
        <time>2010-01-01T03:28:29Z</time>
      </trkpt>
      <trkpt lat="42.27658" lon="1.77253">
        <ele>1170</ele>
        <time>2010-01-01T03:28:33Z</time>
      </trkpt>
      <trkpt lat="42.27661" lon="1.77263">
        <ele>1169</ele>
        <time>2010-01-01T03:28:36Z</time>
      </trkpt>
      <trkpt lat="42.2766" lon="1.77266">
        <ele>1169</ele>
        <time>2010-01-01T03:28:38Z</time>
      </trkpt>
      <trkpt lat="42.27663" lon="1.77287">
        <ele>1166</ele>
        <time>2010-01-01T03:28:44Z</time>
      </trkpt>
      <trkpt lat="42.27663" lon="1.77295">
        <ele>1165</ele>
        <time>2010-01-01T03:28:46Z</time>
      </trkpt>
      <trkpt lat="42.27661" lon="1.77302">
        <ele>1162</ele>
        <time>2010-01-01T03:28:49Z</time>
      </trkpt>
      <trkpt lat="42.27663" lon="1.77316">
        <ele>1161</ele>
        <time>2010-01-01T03:28:53Z</time>
      </trkpt>
      <trkpt lat="42.27662" lon="1.77326">
        <ele>1158</ele>
        <time>2010-01-01T03:28:56Z</time>
      </trkpt>
      <trkpt lat="42.27664" lon="1.77336">
        <ele>1157</ele>
        <time>2010-01-01T03:28:59Z</time>
      </trkpt>
      <trkpt lat="42.27664" lon="1.77346">
        <ele>1156</ele>
        <time>2010-01-01T03:29:02Z</time>
      </trkpt>
      <trkpt lat="42.27666" lon="1.7737">
        <ele>1152</ele>
        <time>2010-01-01T03:29:09Z</time>
      </trkpt>
      <trkpt lat="42.27669" lon="1.77372">
        <ele>1152</ele>
        <time>2010-01-01T03:29:10Z</time>
      </trkpt>
      <trkpt lat="42.27673" lon="1.77371">
        <ele>1153</ele>
        <time>2010-01-01T03:29:12Z</time>
      </trkpt>
      <trkpt lat="42.2767" lon="1.77373">
        <ele>1152</ele>
        <time>2010-01-01T03:29:13Z</time>
      </trkpt>
      <trkpt lat="42.27678" lon="1.77377">
        <ele>1152</ele>
        <time>2010-01-01T03:29:16Z</time>
      </trkpt>
      <trkpt lat="42.27681" lon="1.77384">
        <ele>1151</ele>
        <time>2010-01-01T03:29:19Z</time>
      </trkpt>
      <trkpt lat="42.27685" lon="1.77389">
        <ele>1150</ele>
        <time>2010-01-01T03:29:21Z</time>
      </trkpt>
      <trkpt lat="42.27691" lon="1.77391">
        <ele>1151</ele>
        <time>2010-01-01T03:29:23Z</time>
      </trkpt>
      <trkpt lat="42.27696" lon="1.7739">
        <ele>1153</ele>
        <time>2010-01-01T03:29:25Z</time>
      </trkpt>
      <trkpt lat="42.27702" lon="1.77396">
        <ele>1153</ele>
        <time>2010-01-01T03:29:29Z</time>
      </trkpt>
      <trkpt lat="42.27704" lon="1.77395">
        <ele>1154</ele>
        <time>2010-01-01T03:29:29Z</time>
      </trkpt>
      <trkpt lat="42.27704" lon="1.77389">
        <ele>1155</ele>
        <time>2010-01-01T03:29:31Z</time>
      </trkpt>
      <trkpt lat="42.27706" lon="1.77392">
        <ele>1155</ele>
        <time>2010-01-01T03:29:32Z</time>
      </trkpt>
      <trkpt lat="42.27701" lon="1.77393">
        <ele>1153</ele>
        <time>2010-01-01T03:29:34Z</time>
      </trkpt>
      <trkpt lat="42.27688" lon="1.7741">
        <ele>1146</ele>
        <time>2010-01-01T03:29:41Z</time>
      </trkpt>
      <trkpt lat="42.27678" lon="1.77414">
        <ele>1142</ele>
        <time>2010-01-01T03:29:46Z</time>
      </trkpt>
      <trkpt lat="42.27671" lon="1.77414">
        <ele>1141</ele>
        <time>2010-01-01T03:29:48Z</time>
      </trkpt>
      <trkpt lat="42.27669" lon="1.77416">
        <ele>1140</ele>
        <time>2010-01-01T03:29:49Z</time>
      </trkpt>
      <trkpt lat="42.27666" lon="1.77424">
        <ele>1138</ele>
        <time>2010-01-01T03:29:52Z</time>
      </trkpt>
      <trkpt lat="42.27662" lon="1.77429">
        <ele>1137</ele>
        <time>2010-01-01T03:29:54Z</time>
      </trkpt>
      <trkpt lat="42.27658" lon="1.77439">
        <ele>1135</ele>
        <time>2010-01-01T03:29:58Z</time>
      </trkpt>
      <trkpt lat="42.2765" lon="1.77446">
        <ele>1133</ele>
        <time>2010-01-01T03:30:01Z</time>
      </trkpt>
      <trkpt lat="42.2765" lon="1.77449">
        <ele>1133</ele>
        <time>2010-01-01T03:30:02Z</time>
      </trkpt>
      <trkpt lat="42.27646" lon="1.77454">
        <ele>1131</ele>
        <time>2010-01-01T03:30:05Z</time>
      </trkpt>
      <trkpt lat="42.2764" lon="1.77468">
        <ele>1128</ele>
        <time>2010-01-01T03:30:09Z</time>
      </trkpt>
      <trkpt lat="42.27639" lon="1.77475">
        <ele>1128</ele>
        <time>2010-01-01T03:30:11Z</time>
      </trkpt>
      <trkpt lat="42.27643" lon="1.77487">
        <ele>1130</ele>
        <time>2010-01-01T03:30:15Z</time>
      </trkpt>
      <trkpt lat="42.27632" lon="1.77484">
        <ele>1128</ele>
        <time>2010-01-01T03:30:20Z</time>
      </trkpt>
      <trkpt lat="42.27623" lon="1.77489">
        <ele>1129</ele>
        <time>2010-01-01T03:30:24Z</time>
      </trkpt>
      <trkpt lat="42.2762" lon="1.77495">
        <ele>1128</ele>
        <time>2010-01-01T03:30:26Z</time>
      </trkpt>
      <trkpt lat="42.27619" lon="1.77503">
        <ele>1128</ele>
        <time>2010-01-01T03:30:28Z</time>
      </trkpt>
      <trkpt lat="42.27616" lon="1.77509">
        <ele>1127</ele>
        <time>2010-01-01T03:30:30Z</time>
      </trkpt>
      <trkpt lat="42.27601" lon="1.77535">
        <ele>1124</ele>
        <time>2010-01-01T03:30:40Z</time>
      </trkpt>
      <trkpt lat="42.27602" lon="1.77546">
        <ele>1121</ele>
        <time>2010-01-01T03:30:43Z</time>
      </trkpt>
      <trkpt lat="42.276" lon="1.77562">
        <ele>1120</ele>
        <time>2010-01-01T03:30:48Z</time>
      </trkpt>
      <trkpt lat="42.27603" lon="1.77566">
        <ele>1120</ele>
        <time>2010-01-01T03:30:50Z</time>
      </trkpt>
      <trkpt lat="42.27604" lon="1.7756">
        <ele>1120</ele>
        <time>2010-01-01T03:30:52Z</time>
      </trkpt>
      <trkpt lat="42.276" lon="1.77558">
        <ele>1120</ele>
        <time>2010-01-01T03:30:54Z</time>
      </trkpt>
      <trkpt lat="42.27602" lon="1.77562">
        <ele>1120</ele>
        <time>2010-01-01T03:30:55Z</time>
      </trkpt>
      <trkpt lat="42.27607" lon="1.77563">
        <ele>1120</ele>
        <time>2010-01-01T03:30:57Z</time>
      </trkpt>
      <trkpt lat="42.27615" lon="1.77562">
        <ele>1123</ele>
        <time>2010-01-01T03:31:00Z</time>
      </trkpt>
      <trkpt lat="42.27619" lon="1.77564">
        <ele>1125</ele>
        <time>2010-01-01T03:31:02Z</time>
      </trkpt>
      <trkpt lat="42.27618" lon="1.77565">
        <ele>1125</ele>
        <time>2010-01-01T03:31:03Z</time>
      </trkpt>
      <trkpt lat="42.27615" lon="1.77562">
        <ele>1123</ele>
        <time>2010-01-01T03:31:04Z</time>
      </trkpt>
      <trkpt lat="42.27611" lon="1.77562">
        <ele>1121</ele>
        <time>2010-01-01T03:31:06Z</time>
      </trkpt>
      <trkpt lat="42.27601" lon="1.77556">
        <ele>1120</ele>
        <time>2010-01-01T03:31:10Z</time>
      </trkpt>
      <trkpt lat="42.27593" lon="1.77546">
        <ele>1121</ele>
        <time>2010-01-01T03:31:15Z</time>
      </trkpt>
      <trkpt lat="42.27588" lon="1.77542">
        <ele>1122</ele>
        <time>2010-01-01T03:31:17Z</time>
      </trkpt>
      <trkpt lat="42.27582" lon="1.77542">
        <ele>1123</ele>
        <time>2010-01-01T03:31:20Z</time>
      </trkpt>
      <trkpt lat="42.27571" lon="1.77537">
        <ele>1128</ele>
        <time>2010-01-01T03:31:24Z</time>
      </trkpt>
      <trkpt lat="42.27572" lon="1.77544">
        <ele>1126</ele>
        <time>2010-01-01T03:31:26Z</time>
      </trkpt>
      <trkpt lat="42.27571" lon="1.77542">
        <ele>1127</ele>
        <time>2010-01-01T03:31:27Z</time>
      </trkpt>
      <trkpt lat="42.27569" lon="1.77542">
        <ele>1127</ele>
        <time>2010-01-01T03:31:28Z</time>
      </trkpt>
      <trkpt lat="42.27571" lon="1.77539">
        <ele>1128</ele>
        <time>2010-01-01T03:31:28Z</time>
      </trkpt>
      <trkpt lat="42.27564" lon="1.77539">
        <ele>1130</ele>
        <time>2010-01-01T03:31:31Z</time>
      </trkpt>
      <trkpt lat="42.27551" lon="1.77551">
        <ele>1133</ele>
        <time>2010-01-01T03:31:38Z</time>
      </trkpt>
      <trkpt lat="42.27543" lon="1.77565">
        <ele>1132</ele>
        <time>2010-01-01T03:31:43Z</time>
      </trkpt>
      <trkpt lat="42.27538" lon="1.77582">
        <ele>1127</ele>
        <time>2010-01-01T03:31:48Z</time>
      </trkpt>
      <trkpt lat="42.27537" lon="1.776">
        <ele>1121</ele>
        <time>2010-01-01T03:31:54Z</time>
      </trkpt>
      <trkpt lat="42.27542" lon="1.77613">
        <ele>1116</ele>
        <time>2010-01-01T03:31:58Z</time>
      </trkpt>
      <trkpt lat="42.27542" lon="1.7763">
        <ele>1113</ele>
        <time>2010-01-01T03:32:03Z</time>
      </trkpt>
      <trkpt lat="42.27536" lon="1.77647">
        <ele>1112</ele>
        <time>2010-01-01T03:32:09Z</time>
      </trkpt>
      <trkpt lat="42.27524" lon="1.7766">
        <ele>1110</ele>
        <time>2010-01-01T03:32:15Z</time>
      </trkpt>
      <trkpt lat="42.27523" lon="1.77659">
        <ele>1111</ele>
        <time>2010-01-01T03:32:16Z</time>
      </trkpt>
      <trkpt lat="42.27515" lon="1.7766">
        <ele>1111</ele>
        <time>2010-01-01T03:32:19Z</time>
      </trkpt>
      <trkpt lat="42.27506" lon="1.77681">
        <ele>1107</ele>
        <time>2010-01-01T03:32:26Z</time>
      </trkpt>
      <trkpt lat="42.27499" lon="1.77703">
        <ele>1102</ele>
        <time>2010-01-01T03:32:33Z</time>
      </trkpt>
      <trkpt lat="42.275" lon="1.77725">
        <ele>1097</ele>
        <time>2010-01-01T03:32:39Z</time>
      </trkpt>
      <trkpt lat="42.27497" lon="1.77734">
        <ele>1097</ele>
        <time>2010-01-01T03:32:42Z</time>
      </trkpt>
      <trkpt lat="42.27495" lon="1.77736">
        <ele>1096</ele>
        <time>2010-01-01T03:32:43Z</time>
      </trkpt>
      <trkpt lat="42.27488" lon="1.77735">
        <ele>1096</ele>
        <time>2010-01-01T03:32:46Z</time>
      </trkpt>
      <trkpt lat="42.27482" lon="1.77734">
        <ele>1095</ele>
        <time>2010-01-01T03:32:48Z</time>
      </trkpt>
      <trkpt lat="42.27478" lon="1.77731">
        <ele>1095</ele>
        <time>2010-01-01T03:32:50Z</time>
      </trkpt>
      <trkpt lat="42.27468" lon="1.77736">
        <ele>1095</ele>
        <time>2010-01-01T03:32:55Z</time>
      </trkpt>
      <trkpt lat="42.27458" lon="1.77739">
        <ele>1096</ele>
        <time>2010-01-01T03:32:59Z</time>
      </trkpt>
      <trkpt lat="42.27453" lon="1.7775">
        <ele>1093</ele>
        <time>2010-01-01T03:33:02Z</time>
      </trkpt>
      <trkpt lat="42.27451" lon="1.77752">
        <ele>1093</ele>
        <time>2010-01-01T03:33:03Z</time>
      </trkpt>
      <trkpt lat="42.27445" lon="1.77753">
        <ele>1094</ele>
        <time>2010-01-01T03:33:06Z</time>
      </trkpt>
      <trkpt lat="42.2744" lon="1.77752">
        <ele>1096</ele>
        <time>2010-01-01T03:33:08Z</time>
      </trkpt>
      <trkpt lat="42.27436" lon="1.77765">
        <ele>1093</ele>
        <time>2010-01-01T03:33:12Z</time>
      </trkpt>
      <trkpt lat="42.27425" lon="1.77783">
        <ele>1087</ele>
        <time>2010-01-01T03:33:19Z</time>
      </trkpt>
      <trkpt lat="42.27422" lon="1.77792">
        <ele>1085</ele>
        <time>2010-01-01T03:33:22Z</time>
      </trkpt>
      <trkpt lat="42.27418" lon="1.77793">
        <ele>1084</ele>
        <time>2010-01-01T03:33:23Z</time>
      </trkpt>
      <trkpt lat="42.27415" lon="1.778">
        <ele>1083</ele>
        <time>2010-01-01T03:33:26Z</time>
      </trkpt>
      <trkpt lat="42.27406" lon="1.77806">
        <ele>1084</ele>
        <time>2010-01-01T03:33:30Z</time>
      </trkpt>
      <trkpt lat="42.27402" lon="1.7782">
        <ele>1083</ele>
        <time>2010-01-01T03:33:34Z</time>
      </trkpt>
      <trkpt lat="42.27398" lon="1.77829">
        <ele>1082</ele>
        <time>2010-01-01T03:33:37Z</time>
      </trkpt>
      <trkpt lat="42.27393" lon="1.77832">
        <ele>1082</ele>
        <time>2010-01-01T03:33:40Z</time>
      </trkpt>
      <trkpt lat="42.27386" lon="1.77835">
        <ele>1084</ele>
        <time>2010-01-01T03:33:43Z</time>
      </trkpt>
      <trkpt lat="42.2738" lon="1.77834">
        <ele>1088</ele>
        <time>2010-01-01T03:33:45Z</time>
      </trkpt>
      <trkpt lat="42.27366" lon="1.77846">
        <ele>1093</ele>
        <time>2010-01-01T03:33:52Z</time>
      </trkpt>
      <trkpt lat="42.2736" lon="1.77848">
        <ele>1095</ele>
        <time>2010-01-01T03:33:54Z</time>
      </trkpt>
      <trkpt lat="42.27355" lon="1.77846">
        <ele>1099</ele>
        <time>2010-01-01T03:33:56Z</time>
      </trkpt>
      <trkpt lat="42.27347" lon="1.77853">
        <ele>1101</ele>
        <time>2010-01-01T03:34:00Z</time>
      </trkpt>
      <trkpt lat="42.27343" lon="1.77866">
        <ele>1096</ele>
        <time>2010-01-01T03:34:04Z</time>
      </trkpt>
      <trkpt lat="42.27344" lon="1.77882">
        <ele>1090</ele>
        <time>2010-01-01T03:34:09Z</time>
      </trkpt>
      <trkpt lat="42.27331" lon="1.7791">
        <ele>1083</ele>
        <time>2010-01-01T03:34:19Z</time>
      </trkpt>
      <trkpt lat="42.2732" lon="1.77925">
        <ele>1082</ele>
        <time>2010-01-01T03:34:25Z</time>
      </trkpt>
      <trkpt lat="42.27316" lon="1.77949">
        <ele>1078</ele>
        <time>2010-01-01T03:34:32Z</time>
      </trkpt>
      <trkpt lat="42.27305" lon="1.77966">
        <ele>1074</ele>
        <time>2010-01-01T03:34:39Z</time>
      </trkpt>
      <trkpt lat="42.27294" lon="1.77977">
        <ele>1072</ele>
        <time>2010-01-01T03:34:44Z</time>
      </trkpt>
      <trkpt lat="42.27288" lon="1.77987">
        <ele>1068</ele>
        <time>2010-01-01T03:34:48Z</time>
      </trkpt>
      <trkpt lat="42.27285" lon="1.77996">
        <ele>1065</ele>
        <time>2010-01-01T03:34:51Z</time>
      </trkpt>
      <trkpt lat="42.27275" lon="1.78009">
        <ele>1062</ele>
        <time>2010-01-01T03:34:57Z</time>
      </trkpt>
      <trkpt lat="42.27271" lon="1.78022">
        <ele>1061</ele>
        <time>2010-01-01T03:35:01Z</time>
      </trkpt>
      <trkpt lat="42.27264" lon="1.78036">
        <ele>1060</ele>
        <time>2010-01-01T03:35:06Z</time>
      </trkpt>
      <trkpt lat="42.27264" lon="1.78048">
        <ele>1060</ele>
        <time>2010-01-01T03:35:09Z</time>
      </trkpt>
      <trkpt lat="42.27261" lon="1.7806">
        <ele>1059</ele>
        <time>2010-01-01T03:35:13Z</time>
      </trkpt>
      <trkpt lat="42.27255" lon="1.7807">
        <ele>1059</ele>
        <time>2010-01-01T03:35:17Z</time>
      </trkpt>
      <trkpt lat="42.27252" lon="1.78081">
        <ele>1058</ele>
        <time>2010-01-01T03:35:20Z</time>
      </trkpt>
      <trkpt lat="42.27253" lon="1.78099">
        <ele>1057</ele>
        <time>2010-01-01T03:35:26Z</time>
      </trkpt>
      <trkpt lat="42.27255" lon="1.7811">
        <ele>1057</ele>
        <time>2010-01-01T03:35:29Z</time>
      </trkpt>
      <trkpt lat="42.27252" lon="1.7813">
        <ele>1055</ele>
        <time>2010-01-01T03:35:35Z</time>
      </trkpt>
      <trkpt lat="42.27254" lon="1.78135">
        <ele>1055</ele>
        <time>2010-01-01T03:35:37Z</time>
      </trkpt>
      <trkpt lat="42.27258" lon="1.78139">
        <ele>1056</ele>
        <time>2010-01-01T03:35:39Z</time>
      </trkpt>
      <trkpt lat="42.27259" lon="1.78148">
        <ele>1057</ele>
        <time>2010-01-01T03:35:41Z</time>
      </trkpt>
      <trkpt lat="42.27258" lon="1.78153">
        <ele>1056</ele>
        <time>2010-01-01T03:35:43Z</time>
      </trkpt>
      <trkpt lat="42.2726" lon="1.78156">
        <ele>1057</ele>
        <time>2010-01-01T03:35:44Z</time>
      </trkpt>
      <trkpt lat="42.27254" lon="1.78172">
        <ele>1054</ele>
        <time>2010-01-01T03:35:49Z</time>
      </trkpt>
      <trkpt lat="42.27253" lon="1.78205">
        <ele>1051</ele>
        <time>2010-01-01T03:35:59Z</time>
      </trkpt>
      <trkpt lat="42.27252" lon="1.78222">
        <ele>1049</ele>
        <time>2010-01-01T03:36:04Z</time>
      </trkpt>
      <trkpt lat="42.2725" lon="1.78225">
        <ele>1048</ele>
        <time>2010-01-01T03:36:05Z</time>
      </trkpt>
      <trkpt lat="42.2724" lon="1.78236">
        <ele>1044</ele>
        <time>2010-01-01T03:36:10Z</time>
      </trkpt>
      <trkpt lat="42.27238" lon="1.78243">
        <ele>1043</ele>
        <time>2010-01-01T03:36:13Z</time>
      </trkpt>
      <trkpt lat="42.2723" lon="1.78248">
        <ele>1041</ele>
        <time>2010-01-01T03:36:16Z</time>
      </trkpt>
      <trkpt lat="42.2722" lon="1.78249">
        <ele>1039</ele>
        <time>2010-01-01T03:36:20Z</time>
      </trkpt>
      <trkpt lat="42.27211" lon="1.78254">
        <ele>1039</ele>
        <time>2010-01-01T03:36:24Z</time>
      </trkpt>
      <trkpt lat="42.27202" lon="1.78266">
        <ele>1038</ele>
        <time>2010-01-01T03:36:29Z</time>
      </trkpt>
      <trkpt lat="42.27201" lon="1.78271">
        <ele>1038</ele>
        <time>2010-01-01T03:36:30Z</time>
      </trkpt>
      <trkpt lat="42.272" lon="1.78296">
        <ele>1037</ele>
        <time>2010-01-01T03:36:38Z</time>
      </trkpt>
      <trkpt lat="42.27202" lon="1.78305">
        <ele>1038</ele>
        <time>2010-01-01T03:36:41Z</time>
      </trkpt>
      <trkpt lat="42.27201" lon="1.78316">
        <ele>1036</ele>
        <time>2010-01-01T03:36:44Z</time>
      </trkpt>
      <trkpt lat="42.27209" lon="1.78334">
        <ele>1035</ele>
        <time>2010-01-01T03:36:50Z</time>
      </trkpt>
      <trkpt lat="42.27214" lon="1.7834">
        <ele>1036</ele>
        <time>2010-01-01T03:36:53Z</time>
      </trkpt>
      <trkpt lat="42.27214" lon="1.78353">
        <ele>1034</ele>
        <time>2010-01-01T03:36:57Z</time>
      </trkpt>
      <trkpt lat="42.272" lon="1.7836">
        <ele>1031</ele>
        <time>2010-01-01T03:37:03Z</time>
      </trkpt>
      <trkpt lat="42.27186" lon="1.78374">
        <ele>1028</ele>
        <time>2010-01-01T03:37:10Z</time>
      </trkpt>
      <trkpt lat="42.27178" lon="1.78379">
        <ele>1026</ele>
        <time>2010-01-01T03:37:14Z</time>
      </trkpt>
      <trkpt lat="42.2717" lon="1.78386">
        <ele>1024</ele>
        <time>2010-01-01T03:37:17Z</time>
      </trkpt>
      <trkpt lat="42.27153" lon="1.78412">
        <ele>1022</ele>
        <time>2010-01-01T03:37:28Z</time>
      </trkpt>
      <trkpt lat="42.27144" lon="1.78436">
        <ele>1021</ele>
        <time>2010-01-01T03:37:36Z</time>
      </trkpt>
      <trkpt lat="42.27145" lon="1.78445">
        <ele>1021</ele>
        <time>2010-01-01T03:37:38Z</time>
      </trkpt>
      <trkpt lat="42.27147" lon="1.78456">
        <ele>1023</ele>
        <time>2010-01-01T03:37:42Z</time>
      </trkpt>
      <trkpt lat="42.27156" lon="1.78469">
        <ele>1023</ele>
        <time>2010-01-01T03:37:47Z</time>
      </trkpt>
      <trkpt lat="42.27169" lon="1.7848">
        <ele>1022</ele>
        <time>2010-01-01T03:37:53Z</time>
      </trkpt>
      <trkpt lat="42.27179" lon="1.78495">
        <ele>1020</ele>
        <time>2010-01-01T03:37:59Z</time>
      </trkpt>
      <trkpt lat="42.27192" lon="1.78502">
        <ele>1018</ele>
        <time>2010-01-01T03:38:05Z</time>
      </trkpt>
      <trkpt lat="42.27199" lon="1.78504">
        <ele>1020</ele>
        <time>2010-01-01T03:38:07Z</time>
      </trkpt>
      <trkpt lat="42.27208" lon="1.78509">
        <ele>1022</ele>
        <time>2010-01-01T03:38:11Z</time>
      </trkpt>
      <trkpt lat="42.2721" lon="1.7852">
        <ele>1022</ele>
        <time>2010-01-01T03:38:15Z</time>
      </trkpt>
      <trkpt lat="42.2721" lon="1.78543">
        <ele>1020</ele>
        <time>2010-01-01T03:38:21Z</time>
      </trkpt>
      <trkpt lat="42.27204" lon="1.78557">
        <ele>1018</ele>
        <time>2010-01-01T03:38:26Z</time>
      </trkpt>
      <trkpt lat="42.27195" lon="1.78572">
        <ele>1014</ele>
        <time>2010-01-01T03:38:32Z</time>
      </trkpt>
      <trkpt lat="42.27181" lon="1.78578">
        <ele>1011</ele>
        <time>2010-01-01T03:38:38Z</time>
      </trkpt>
      <trkpt lat="42.27172" lon="1.78586">
        <ele>1009</ele>
        <time>2010-01-01T03:38:42Z</time>
      </trkpt>
      <trkpt lat="42.27169" lon="1.78594">
        <ele>1008</ele>
        <time>2010-01-01T03:38:45Z</time>
      </trkpt>
      <trkpt lat="42.27159" lon="1.78643">
        <ele>1011</ele>
        <time>2010-01-01T03:39:00Z</time>
      </trkpt>
      <trkpt lat="42.27139" lon="1.78654">
        <ele>1007</ele>
        <time>2010-01-01T03:39:08Z</time>
      </trkpt>
      <trkpt lat="42.27126" lon="1.78681">
        <ele>1005</ele>
        <time>2010-01-01T03:39:18Z</time>
      </trkpt>
      <trkpt lat="42.27111" lon="1.78727">
        <ele>1000</ele>
        <time>2010-01-01T03:39:32Z</time>
      </trkpt>
      <trkpt lat="42.2711" lon="1.78742">
        <ele>1000</ele>
        <time>2010-01-01T03:39:37Z</time>
      </trkpt>
      <trkpt lat="42.27101" lon="1.78811">
        <ele>1000</ele>
        <time>2010-01-01T03:39:58Z</time>
      </trkpt>
      <trkpt lat="42.27109" lon="1.78807">
        <ele>1002</ele>
        <time>2010-01-01T03:40:01Z</time>
      </trkpt>
      <trkpt lat="42.2712" lon="1.78797">
        <ele>1003</ele>
        <time>2010-01-01T03:40:06Z</time>
      </trkpt>
      <trkpt lat="42.27125" lon="1.78794">
        <ele>1004</ele>
        <time>2010-01-01T03:40:09Z</time>
      </trkpt>
      <trkpt lat="42.27132" lon="1.78794">
        <ele>1006</ele>
        <time>2010-01-01T03:40:11Z</time>
      </trkpt>
      <trkpt lat="42.27134" lon="1.78792">
        <ele>1007</ele>
        <time>2010-01-01T03:40:12Z</time>
      </trkpt>
      <trkpt lat="42.27133" lon="1.78785">
        <ele>1006</ele>
        <time>2010-01-01T03:40:14Z</time>
      </trkpt>
      <trkpt lat="42.27126" lon="1.78774">
        <ele>1003</ele>
        <time>2010-01-01T03:40:19Z</time>
      </trkpt>
      <trkpt lat="42.2712" lon="1.78768">
        <ele>1001</ele>
        <time>2010-01-01T03:40:22Z</time>
      </trkpt>
      <trkpt lat="42.2712" lon="1.78771">
        <ele>1001</ele>
        <time>2010-01-01T03:40:23Z</time>
      </trkpt>
      <trkpt lat="42.27118" lon="1.78765">
        <ele>1001</ele>
        <time>2010-01-01T03:40:25Z</time>
      </trkpt>
      <trkpt lat="42.27115" lon="1.78773">
        <ele>999</ele>
        <time>2010-01-01T03:40:27Z</time>
      </trkpt>
      <trkpt lat="42.27113" lon="1.78783">
        <ele>999</ele>
        <time>2010-01-01T03:40:30Z</time>
      </trkpt>
      <trkpt lat="42.27114" lon="1.78787">
        <ele>1000</ele>
        <time>2010-01-01T03:40:32Z</time>
      </trkpt>
      <trkpt lat="42.27121" lon="1.78786">
        <ele>1002</ele>
        <time>2010-01-01T03:40:35Z</time>
      </trkpt>
      <trkpt lat="42.27132" lon="1.78794">
        <ele>1006</ele>
        <time>2010-01-01T03:40:40Z</time>
      </trkpt>
      <trkpt lat="42.27144" lon="1.78799">
        <ele>1010</ele>
        <time>2010-01-01T03:40:45Z</time>
      </trkpt>
      <trkpt lat="42.27148" lon="1.78802">
        <ele>1011</ele>
        <time>2010-01-01T03:40:47Z</time>
      </trkpt>
      <trkpt lat="42.27166" lon="1.78804">
        <ele>1014</ele>
        <time>2010-01-01T03:40:54Z</time>
      </trkpt>
      <trkpt lat="42.27168" lon="1.78802">
        <ele>1015</ele>
        <time>2010-01-01T03:40:55Z</time>
      </trkpt>
      <trkpt lat="42.27166" lon="1.78804">
        <ele>1014</ele>
        <time>2010-01-01T03:40:55Z</time>
      </trkpt>
      <trkpt lat="42.27163" lon="1.78801">
        <ele>1014</ele>
        <time>2010-01-01T03:40:57Z</time>
      </trkpt>
      <trkpt lat="42.27165" lon="1.78794">
        <ele>1014</ele>
        <time>2010-01-01T03:40:59Z</time>
      </trkpt>
      <trkpt lat="42.27171" lon="1.78798">
        <ele>1015</ele>
        <time>2010-01-01T03:41:01Z</time>
      </trkpt>
      <trkpt lat="42.27176" lon="1.78807">
        <ele>1016</ele>
        <time>2010-01-01T03:41:05Z</time>
      </trkpt>
      <trkpt lat="42.2718" lon="1.78808">
        <ele>1017</ele>
        <time>2010-01-01T03:41:06Z</time>
      </trkpt>
      <trkpt lat="42.27188" lon="1.78804">
        <ele>1018</ele>
        <time>2010-01-01T03:41:10Z</time>
      </trkpt>
      <trkpt lat="42.27193" lon="1.78804">
        <ele>1019</ele>
        <time>2010-01-01T03:41:12Z</time>
      </trkpt>
      <trkpt lat="42.27195" lon="1.78803">
        <ele>1020</ele>
        <time>2010-01-01T03:41:13Z</time>
      </trkpt>
      <trkpt lat="42.27205" lon="1.78811">
        <ele>1022</ele>
        <time>2010-01-01T03:41:17Z</time>
      </trkpt>
      <trkpt lat="42.27208" lon="1.78816">
        <ele>1023</ele>
        <time>2010-01-01T03:41:19Z</time>
      </trkpt>
      <trkpt lat="42.27208" lon="1.78824">
        <ele>1024</ele>
        <time>2010-01-01T03:41:22Z</time>
      </trkpt>
      <trkpt lat="42.2721" lon="1.78828">
        <ele>1024</ele>
        <time>2010-01-01T03:41:23Z</time>
      </trkpt>
      <trkpt lat="42.27214" lon="1.78827">
        <ele>1025</ele>
        <time>2010-01-01T03:41:25Z</time>
      </trkpt>
      <trkpt lat="42.2722" lon="1.78832">
        <ele>1025</ele>
        <time>2010-01-01T03:41:27Z</time>
      </trkpt>
      <trkpt lat="42.27224" lon="1.78834">
        <ele>1026</ele>
        <time>2010-01-01T03:41:29Z</time>
      </trkpt>
      <trkpt lat="42.27225" lon="1.7884">
        <ele>1028</ele>
        <time>2010-01-01T03:41:31Z</time>
      </trkpt>
      <trkpt lat="42.27227" lon="1.78841">
        <ele>1029</ele>
        <time>2010-01-01T03:41:32Z</time>
      </trkpt>
      <trkpt lat="42.27242" lon="1.78844">
        <ele>1032</ele>
        <time>2010-01-01T03:41:38Z</time>
      </trkpt>
      <trkpt lat="42.27252" lon="1.78848">
        <ele>1034</ele>
        <time>2010-01-01T03:41:42Z</time>
      </trkpt>
      <trkpt lat="42.27248" lon="1.78849">
        <ele>1033</ele>
        <time>2010-01-01T03:41:44Z</time>
      </trkpt>
      <trkpt lat="42.27243" lon="1.78847">
        <ele>1032</ele>
        <time>2010-01-01T03:41:45Z</time>
      </trkpt>
      <trkpt lat="42.27241" lon="1.78849">
        <ele>1033</ele>
        <time>2010-01-01T03:41:47Z</time>
      </trkpt>
      <trkpt lat="42.27236" lon="1.78847">
        <ele>1032</ele>
        <time>2010-01-01T03:41:49Z</time>
      </trkpt>
      <trkpt lat="42.27234" lon="1.78848">
        <ele>1032</ele>
        <time>2010-01-01T03:41:49Z</time>
      </trkpt>
      <trkpt lat="42.27235" lon="1.78851">
        <ele>1033</ele>
        <time>2010-01-01T03:41:50Z</time>
      </trkpt>
      <trkpt lat="42.27237" lon="1.7885">
        <ele>1032</ele>
        <time>2010-01-01T03:41:51Z</time>
      </trkpt>
      <trkpt lat="42.2724" lon="1.78851">
        <ele>1033</ele>
        <time>2010-01-01T03:41:53Z</time>
      </trkpt>
      <trkpt lat="42.27244" lon="1.78855">
        <ele>1034</ele>
        <time>2010-01-01T03:41:55Z</time>
      </trkpt>
      <trkpt lat="42.2725" lon="1.78868">
        <ele>1038</ele>
        <time>2010-01-01T03:41:59Z</time>
      </trkpt>
      <trkpt lat="42.27259" lon="1.78876">
        <ele>1042</ele>
        <time>2010-01-01T03:42:04Z</time>
      </trkpt>
      <trkpt lat="42.2726" lon="1.7889">
        <ele>1046</ele>
        <time>2010-01-01T03:42:08Z</time>
      </trkpt>
      <trkpt lat="42.27262" lon="1.78896">
        <ele>1048</ele>
        <time>2010-01-01T03:42:10Z</time>
      </trkpt>
      <trkpt lat="42.27269" lon="1.78907">
        <ele>1051</ele>
        <time>2010-01-01T03:42:14Z</time>
      </trkpt>
      <trkpt lat="42.27289" lon="1.78923">
        <ele>1057</ele>
        <time>2010-01-01T03:42:23Z</time>
      </trkpt>
      <trkpt lat="42.27307" lon="1.7893">
        <ele>1061</ele>
        <time>2010-01-01T03:42:31Z</time>
      </trkpt>
      <trkpt lat="42.27311" lon="1.78936">
        <ele>1063</ele>
        <time>2010-01-01T03:42:33Z</time>
      </trkpt>
      <trkpt lat="42.27314" lon="1.78936">
        <ele>1063</ele>
        <time>2010-01-01T03:42:34Z</time>
      </trkpt>
      <trkpt lat="42.27321" lon="1.78932">
        <ele>1064</ele>
        <time>2010-01-01T03:42:37Z</time>
      </trkpt>
      <trkpt lat="42.27332" lon="1.78946">
        <ele>1068</ele>
        <time>2010-01-01T03:42:43Z</time>
      </trkpt>
      <trkpt lat="42.27339" lon="1.7895">
        <ele>1070</ele>
        <time>2010-01-01T03:42:46Z</time>
      </trkpt>
      <trkpt lat="42.27344" lon="1.78951">
        <ele>1071</ele>
        <time>2010-01-01T03:42:48Z</time>
      </trkpt>
      <trkpt lat="42.27357" lon="1.78946">
        <ele>1071</ele>
        <time>2010-01-01T03:42:54Z</time>
      </trkpt>
      <trkpt lat="42.27364" lon="1.78939">
        <ele>1072</ele>
        <time>2010-01-01T03:42:57Z</time>
      </trkpt>
      <trkpt lat="42.27373" lon="1.78939">
        <ele>1076</ele>
        <time>2010-01-01T03:43:01Z</time>
      </trkpt>
      <trkpt lat="42.27377" lon="1.78944">
        <ele>1077</ele>
        <time>2010-01-01T03:43:03Z</time>
      </trkpt>
      <trkpt lat="42.27381" lon="1.7894">
        <ele>1079</ele>
        <time>2010-01-01T03:43:05Z</time>
      </trkpt>
      <trkpt lat="42.27389" lon="1.78939">
        <ele>1081</ele>
        <time>2010-01-01T03:43:08Z</time>
      </trkpt>
      <trkpt lat="42.27394" lon="1.7894">
        <ele>1083</ele>
        <time>2010-01-01T03:43:10Z</time>
      </trkpt>
      <trkpt lat="42.27409" lon="1.78961">
        <ele>1089</ele>
        <time>2010-01-01T03:43:19Z</time>
      </trkpt>
      <trkpt lat="42.27433" lon="1.78963">
        <ele>1092</ele>
        <time>2010-01-01T03:43:28Z</time>
      </trkpt>
      <trkpt lat="42.27436" lon="1.78971">
        <ele>1093</ele>
        <time>2010-01-01T03:43:31Z</time>
      </trkpt>
      <trkpt lat="42.27446" lon="1.78968">
        <ele>1094</ele>
        <time>2010-01-01T03:43:35Z</time>
      </trkpt>
      <trkpt lat="42.27454" lon="1.78969">
        <ele>1095</ele>
        <time>2010-01-01T03:43:39Z</time>
      </trkpt>
      <trkpt lat="42.27462" lon="1.78966">
        <ele>1096</ele>
        <time>2010-01-01T03:43:42Z</time>
      </trkpt>
      <trkpt lat="42.27469" lon="1.78966">
        <ele>1097</ele>
        <time>2010-01-01T03:43:44Z</time>
      </trkpt>
      <trkpt lat="42.27471" lon="1.78963">
        <ele>1097</ele>
        <time>2010-01-01T03:43:45Z</time>
      </trkpt>
      <trkpt lat="42.27477" lon="1.7896">
        <ele>1097</ele>
        <time>2010-01-01T03:43:48Z</time>
      </trkpt>
      <trkpt lat="42.2748" lon="1.78961">
        <ele>1098</ele>
        <time>2010-01-01T03:43:49Z</time>
      </trkpt>
      <trkpt lat="42.27482" lon="1.78958">
        <ele>1098</ele>
        <time>2010-01-01T03:43:50Z</time>
      </trkpt>
      <trkpt lat="42.27499" lon="1.7896">
        <ele>1101</ele>
        <time>2010-01-01T03:43:57Z</time>
      </trkpt>
      <trkpt lat="42.27512" lon="1.7896">
        <ele>1100</ele>
        <time>2010-01-01T03:44:03Z</time>
      </trkpt>
      <trkpt lat="42.2752" lon="1.78965">
        <ele>1100</ele>
        <time>2010-01-01T03:44:06Z</time>
      </trkpt>
      <trkpt lat="42.27534" lon="1.78966">
        <ele>1101</ele>
        <time>2010-01-01T03:44:12Z</time>
      </trkpt>
      <trkpt lat="42.27545" lon="1.78959">
        <ele>1102</ele>
        <time>2010-01-01T03:44:16Z</time>
      </trkpt>
      <trkpt lat="42.27549" lon="1.78953">
        <ele>1101</ele>
        <time>2010-01-01T03:44:19Z</time>
      </trkpt>
      <trkpt lat="42.2756" lon="1.78946">
        <ele>1102</ele>
        <time>2010-01-01T03:44:24Z</time>
      </trkpt>
      <trkpt lat="42.27569" lon="1.78946">
        <ele>1105</ele>
        <time>2010-01-01T03:44:27Z</time>
      </trkpt>
      <trkpt lat="42.27575" lon="1.78944">
        <ele>1107</ele>
        <time>2010-01-01T03:44:30Z</time>
      </trkpt>
      <trkpt lat="42.27577" lon="1.78946">
        <ele>1108</ele>
        <time>2010-01-01T03:44:31Z</time>
      </trkpt>
      <trkpt lat="42.27581" lon="1.78944">
        <ele>1109</ele>
        <time>2010-01-01T03:44:32Z</time>
      </trkpt>
      <trkpt lat="42.27589" lon="1.7895">
        <ele>1112</ele>
        <time>2010-01-01T03:44:36Z</time>
      </trkpt>
      <trkpt lat="42.27593" lon="1.78946">
        <ele>1112</ele>
        <time>2010-01-01T03:44:38Z</time>
      </trkpt>
      <trkpt lat="42.27604" lon="1.78954">
        <ele>1114</ele>
        <time>2010-01-01T03:44:43Z</time>
      </trkpt>
      <trkpt lat="42.27617" lon="1.78955">
        <ele>1116</ele>
        <time>2010-01-01T03:44:48Z</time>
      </trkpt>
      <trkpt lat="42.27628" lon="1.78959">
        <ele>1118</ele>
        <time>2010-01-01T03:44:53Z</time>
      </trkpt>
      <trkpt lat="42.27639" lon="1.78956">
        <ele>1120</ele>
        <time>2010-01-01T03:44:57Z</time>
      </trkpt>
      <trkpt lat="42.27645" lon="1.78947">
        <ele>1119</ele>
        <time>2010-01-01T03:45:01Z</time>
      </trkpt>
      <trkpt lat="42.27649" lon="1.78951">
        <ele>1120</ele>
        <time>2010-01-01T03:45:03Z</time>
      </trkpt>
      <trkpt lat="42.27653" lon="1.78958">
        <ele>1121</ele>
        <time>2010-01-01T03:45:06Z</time>
      </trkpt>
      <trkpt lat="42.27657" lon="1.78959">
        <ele>1122</ele>
        <time>2010-01-01T03:45:07Z</time>
      </trkpt>
      <trkpt lat="42.2766" lon="1.78958">
        <ele>1122</ele>
        <time>2010-01-01T03:45:09Z</time>
      </trkpt>
      <trkpt lat="42.27667" lon="1.78953">
        <ele>1122</ele>
        <time>2010-01-01T03:45:12Z</time>
      </trkpt>
      <trkpt lat="42.27671" lon="1.78959">
        <ele>1123</ele>
        <time>2010-01-01T03:45:14Z</time>
      </trkpt>
      <trkpt lat="42.27679" lon="1.78961">
        <ele>1124</ele>
        <time>2010-01-01T03:45:17Z</time>
      </trkpt>
      <trkpt lat="42.27683" lon="1.78953">
        <ele>1123</ele>
        <time>2010-01-01T03:45:20Z</time>
      </trkpt>
      <trkpt lat="42.27684" lon="1.78953">
        <ele>1123</ele>
        <time>2010-01-01T03:45:21Z</time>
      </trkpt>
      <trkpt lat="42.27694" lon="1.78948">
        <ele>1123</ele>
        <time>2010-01-01T03:45:25Z</time>
      </trkpt>
      <trkpt lat="42.27704" lon="1.78949">
        <ele>1125</ele>
        <time>2010-01-01T03:45:29Z</time>
      </trkpt>
      <trkpt lat="42.27707" lon="1.78946">
        <ele>1125</ele>
        <time>2010-01-01T03:45:31Z</time>
      </trkpt>
      <trkpt lat="42.27705" lon="1.78942">
        <ele>1124</ele>
        <time>2010-01-01T03:45:32Z</time>
      </trkpt>
      <trkpt lat="42.27706" lon="1.7894">
        <ele>1125</ele>
        <time>2010-01-01T03:45:33Z</time>
      </trkpt>
      <trkpt lat="42.27708" lon="1.78939">
        <ele>1125</ele>
        <time>2010-01-01T03:45:34Z</time>
      </trkpt>
      <trkpt lat="42.27711" lon="1.78935">
        <ele>1126</ele>
        <time>2010-01-01T03:45:35Z</time>
      </trkpt>
      <trkpt lat="42.27712" lon="1.78936">
        <ele>1126</ele>
        <time>2010-01-01T03:45:36Z</time>
      </trkpt>
      <trkpt lat="42.27718" lon="1.78932">
        <ele>1127</ele>
        <time>2010-01-01T03:45:39Z</time>
      </trkpt>
      <trkpt lat="42.27718" lon="1.78928">
        <ele>1128</ele>
        <time>2010-01-01T03:45:40Z</time>
      </trkpt>
      <trkpt lat="42.27722" lon="1.78921">
        <ele>1129</ele>
        <time>2010-01-01T03:45:43Z</time>
      </trkpt>
      <trkpt lat="42.27729" lon="1.7892">
        <ele>1130</ele>
        <time>2010-01-01T03:45:45Z</time>
      </trkpt>
      <trkpt lat="42.27749" lon="1.78929">
        <ele>1134</ele>
        <time>2010-01-01T03:45:54Z</time>
      </trkpt>
      <trkpt lat="42.27754" lon="1.78934">
        <ele>1135</ele>
        <time>2010-01-01T03:45:56Z</time>
      </trkpt>
      <trkpt lat="42.27757" lon="1.78944">
        <ele>1135</ele>
        <time>2010-01-01T03:46:00Z</time>
      </trkpt>
      <trkpt lat="42.27766" lon="1.78954">
        <ele>1138</ele>
        <time>2010-01-01T03:46:04Z</time>
      </trkpt>
      <trkpt lat="42.27781" lon="1.7896">
        <ele>1142</ele>
        <time>2010-01-01T03:46:10Z</time>
      </trkpt>
      <trkpt lat="42.27786" lon="1.78958">
        <ele>1143</ele>
        <time>2010-01-01T03:46:12Z</time>
      </trkpt>
      <trkpt lat="42.27792" lon="1.7896">
        <ele>1144</ele>
        <time>2010-01-01T03:46:15Z</time>
      </trkpt>
      <trkpt lat="42.27796" lon="1.78964">
        <ele>1145</ele>
        <time>2010-01-01T03:46:17Z</time>
      </trkpt>
      <trkpt lat="42.27804" lon="1.78969">
        <ele>1146</ele>
        <time>2010-01-01T03:46:20Z</time>
      </trkpt>
      <trkpt lat="42.27816" lon="1.7897">
        <ele>1146</ele>
        <time>2010-01-01T03:46:25Z</time>
      </trkpt>
      <trkpt lat="42.2782" lon="1.78969">
        <ele>1146</ele>
        <time>2010-01-01T03:46:27Z</time>
      </trkpt>
      <trkpt lat="42.27823" lon="1.78966">
        <ele>1146</ele>
        <time>2010-01-01T03:46:29Z</time>
      </trkpt>
      <trkpt lat="42.27825" lon="1.78959">
        <ele>1146</ele>
        <time>2010-01-01T03:46:31Z</time>
      </trkpt>
      <trkpt lat="42.27835" lon="1.78954">
        <ele>1146</ele>
        <time>2010-01-01T03:46:35Z</time>
      </trkpt>
      <trkpt lat="42.27845" lon="1.78966">
        <ele>1146</ele>
        <time>2010-01-01T03:46:40Z</time>
      </trkpt>
      <trkpt lat="42.2785" lon="1.78968">
        <ele>1146</ele>
        <time>2010-01-01T03:46:42Z</time>
      </trkpt>
      <trkpt lat="42.27858" lon="1.78963">
        <ele>1146</ele>
        <time>2010-01-01T03:46:46Z</time>
      </trkpt>
      <trkpt lat="42.27877" lon="1.7896">
        <ele>1148</ele>
        <time>2010-01-01T03:46:54Z</time>
      </trkpt>
      <trkpt lat="42.2788" lon="1.78958">
        <ele>1148</ele>
        <time>2010-01-01T03:46:55Z</time>
      </trkpt>
      <trkpt lat="42.27885" lon="1.78959">
        <ele>1148</ele>
        <time>2010-01-01T03:46:57Z</time>
      </trkpt>
      <trkpt lat="42.27897" lon="1.78953">
        <ele>1151</ele>
        <time>2010-01-01T03:47:02Z</time>
      </trkpt>
      <trkpt lat="42.27903" lon="1.78957">
        <ele>1154</ele>
        <time>2010-01-01T03:47:05Z</time>
      </trkpt>
      <trkpt lat="42.27907" lon="1.78956">
        <ele>1155</ele>
        <time>2010-01-01T03:47:06Z</time>
      </trkpt>
      <trkpt lat="42.27914" lon="1.78959">
        <ele>1158</ele>
        <time>2010-01-01T03:47:09Z</time>
      </trkpt>
      <trkpt lat="42.27922" lon="1.78959">
        <ele>1162</ele>
        <time>2010-01-01T03:47:12Z</time>
      </trkpt>
      <trkpt lat="42.27925" lon="1.78947">
        <ele>1161</ele>
        <time>2010-01-01T03:47:16Z</time>
      </trkpt>
      <trkpt lat="42.27936" lon="1.78951">
        <ele>1168</ele>
        <time>2010-01-01T03:47:21Z</time>
      </trkpt>
      <trkpt lat="42.27944" lon="1.78951">
        <ele>1172</ele>
        <time>2010-01-01T03:47:24Z</time>
      </trkpt>
      <trkpt lat="42.27947" lon="1.7895">
        <ele>1173</ele>
        <time>2010-01-01T03:47:25Z</time>
      </trkpt>
      <trkpt lat="42.27948" lon="1.78947">
        <ele>1173</ele>
        <time>2010-01-01T03:47:26Z</time>
      </trkpt>
      <trkpt lat="42.27949" lon="1.78949">
        <ele>1174</ele>
        <time>2010-01-01T03:47:27Z</time>
      </trkpt>
      <trkpt lat="42.27953" lon="1.78947">
        <ele>1176</ele>
        <time>2010-01-01T03:47:29Z</time>
      </trkpt>
      <trkpt lat="42.27955" lon="1.7895">
        <ele>1177</ele>
        <time>2010-01-01T03:47:30Z</time>
      </trkpt>
      <trkpt lat="42.27947" lon="1.78945">
        <ele>1173</ele>
        <time>2010-01-01T03:47:33Z</time>
      </trkpt>
      <trkpt lat="42.27948" lon="1.78946">
        <ele>1173</ele>
        <time>2010-01-01T03:47:34Z</time>
      </trkpt>
      <trkpt lat="42.27951" lon="1.78945">
        <ele>1174</ele>
        <time>2010-01-01T03:47:35Z</time>
      </trkpt>
      <trkpt lat="42.27956" lon="1.78937">
        <ele>1176</ele>
        <time>2010-01-01T03:47:38Z</time>
      </trkpt>
      <trkpt lat="42.27959" lon="1.78934">
        <ele>1177</ele>
        <time>2010-01-01T03:47:39Z</time>
      </trkpt>
      <trkpt lat="42.27965" lon="1.78939">
        <ele>1180</ele>
        <time>2010-01-01T03:47:42Z</time>
      </trkpt>
      <trkpt lat="42.27971" lon="1.7894">
        <ele>1183</ele>
        <time>2010-01-01T03:47:45Z</time>
      </trkpt>
      <trkpt lat="42.27972" lon="1.78942">
        <ele>1184</ele>
        <time>2010-01-01T03:47:45Z</time>
      </trkpt>
      <trkpt lat="42.27973" lon="1.7894">
        <ele>1184</ele>
        <time>2010-01-01T03:47:46Z</time>
      </trkpt>
      <trkpt lat="42.27974" lon="1.78943">
        <ele>1185</ele>
        <time>2010-01-01T03:47:47Z</time>
      </trkpt>
      <trkpt lat="42.27976" lon="1.78943">
        <ele>1186</ele>
        <time>2010-01-01T03:47:48Z</time>
      </trkpt>
      <trkpt lat="42.27988" lon="1.78928">
        <ele>1190</ele>
        <time>2010-01-01T03:47:54Z</time>
      </trkpt>
      <trkpt lat="42.27993" lon="1.78913">
        <ele>1191</ele>
        <time>2010-01-01T03:47:59Z</time>
      </trkpt>
      <trkpt lat="42.27994" lon="1.78923">
        <ele>1192</ele>
        <time>2010-01-01T03:48:02Z</time>
      </trkpt>
      <trkpt lat="42.27993" lon="1.78927">
        <ele>1192</ele>
        <time>2010-01-01T03:48:03Z</time>
      </trkpt>
      <trkpt lat="42.27991" lon="1.78927">
        <ele>1191</ele>
        <time>2010-01-01T03:48:04Z</time>
      </trkpt>
      <trkpt lat="42.27991" lon="1.78929">
        <ele>1191</ele>
        <time>2010-01-01T03:48:04Z</time>
      </trkpt>
      <trkpt lat="42.28006" lon="1.78926">
        <ele>1199</ele>
        <time>2010-01-01T03:48:10Z</time>
      </trkpt>
      <trkpt lat="42.28013" lon="1.78928">
        <ele>1203</ele>
        <time>2010-01-01T03:48:13Z</time>
      </trkpt>
      <trkpt lat="42.28024" lon="1.78937">
        <ele>1210</ele>
        <time>2010-01-01T03:48:18Z</time>
      </trkpt>
      <trkpt lat="42.28027" lon="1.78935">
        <ele>1212</ele>
        <time>2010-01-01T03:48:20Z</time>
      </trkpt>
      <trkpt lat="42.28029" lon="1.78944">
        <ele>1212</ele>
        <time>2010-01-01T03:48:23Z</time>
      </trkpt>
      <trkpt lat="42.28028" lon="1.78936">
        <ele>1212</ele>
        <time>2010-01-01T03:48:25Z</time>
      </trkpt>
      <trkpt lat="42.28024" lon="1.78938">
        <ele>1210</ele>
        <time>2010-01-01T03:48:27Z</time>
      </trkpt>
      <trkpt lat="42.28025" lon="1.78938">
        <ele>1210</ele>
        <time>2010-01-01T03:48:27Z</time>
      </trkpt>
      <trkpt lat="42.28029" lon="1.78937">
        <ele>1213</ele>
        <time>2010-01-01T03:48:29Z</time>
      </trkpt>
      <trkpt lat="42.28033" lon="1.7894">
        <ele>1215</ele>
        <time>2010-01-01T03:48:31Z</time>
      </trkpt>
      <trkpt lat="42.28037" lon="1.78939">
        <ele>1217</ele>
        <time>2010-01-01T03:48:32Z</time>
      </trkpt>
      <trkpt lat="42.2804" lon="1.78942">
        <ele>1219</ele>
        <time>2010-01-01T03:48:34Z</time>
      </trkpt>
      <trkpt lat="42.28042" lon="1.78942">
        <ele>1220</ele>
        <time>2010-01-01T03:48:35Z</time>
      </trkpt>
      <trkpt lat="42.28044" lon="1.78939">
        <ele>1222</ele>
        <time>2010-01-01T03:48:36Z</time>
      </trkpt>
      <trkpt lat="42.28044" lon="1.78943">
        <ele>1222</ele>
        <time>2010-01-01T03:48:37Z</time>
      </trkpt>
      <trkpt lat="42.28049" lon="1.78946">
        <ele>1224</ele>
        <time>2010-01-01T03:48:39Z</time>
      </trkpt>
      <trkpt lat="42.2806" lon="1.78959">
        <ele>1230</ele>
        <time>2010-01-01T03:48:45Z</time>
      </trkpt>
      <trkpt lat="42.28084" lon="1.78969">
        <ele>1238</ele>
        <time>2010-01-01T03:48:55Z</time>
      </trkpt>
      <trkpt lat="42.28084" lon="1.78967">
        <ele>1239</ele>
        <time>2010-01-01T03:48:55Z</time>
      </trkpt>
      <trkpt lat="42.28085" lon="1.78968">
        <ele>1239</ele>
        <time>2010-01-01T03:48:56Z</time>
      </trkpt>
      <trkpt lat="42.2809" lon="1.78983">
        <ele>1238</ele>
        <time>2010-01-01T03:49:01Z</time>
      </trkpt>
      <trkpt lat="42.28094" lon="1.78985">
        <ele>1238</ele>
        <time>2010-01-01T03:49:03Z</time>
      </trkpt>
      <trkpt lat="42.28099" lon="1.78985">
        <ele>1239</ele>
        <time>2010-01-01T03:49:05Z</time>
      </trkpt>
      <trkpt lat="42.28102" lon="1.78988">
        <ele>1238</ele>
        <time>2010-01-01T03:49:06Z</time>
      </trkpt>
      <trkpt lat="42.28105" lon="1.78988">
        <ele>1238</ele>
        <time>2010-01-01T03:49:07Z</time>
      </trkpt>
      <trkpt lat="42.28112" lon="1.78998">
        <ele>1234</ele>
        <time>2010-01-01T03:49:11Z</time>
      </trkpt>
      <trkpt lat="42.28115" lon="1.79">
        <ele>1234</ele>
        <time>2010-01-01T03:49:13Z</time>
      </trkpt>
      <trkpt lat="42.28122" lon="1.79011">
        <ele>1233</ele>
        <time>2010-01-01T03:49:17Z</time>
      </trkpt>
      <trkpt lat="42.28124" lon="1.79018">
        <ele>1233</ele>
        <time>2010-01-01T03:49:19Z</time>
      </trkpt>
      <trkpt lat="42.28129" lon="1.79019">
        <ele>1233</ele>
        <time>2010-01-01T03:49:21Z</time>
      </trkpt>
      <trkpt lat="42.28131" lon="1.79029">
        <ele>1232</ele>
        <time>2010-01-01T03:49:24Z</time>
      </trkpt>
      <trkpt lat="42.28135" lon="1.79034">
        <ele>1232</ele>
        <time>2010-01-01T03:49:26Z</time>
      </trkpt>
      <trkpt lat="42.28139" lon="1.79031">
        <ele>1233</ele>
        <time>2010-01-01T03:49:28Z</time>
      </trkpt>
      <trkpt lat="42.28152" lon="1.79042">
        <ele>1235</ele>
        <time>2010-01-01T03:49:34Z</time>
      </trkpt>
      <trkpt lat="42.28158" lon="1.79051">
        <ele>1234</ele>
        <time>2010-01-01T03:49:38Z</time>
      </trkpt>
      <trkpt lat="42.28164" lon="1.79056">
        <ele>1233</ele>
        <time>2010-01-01T03:49:41Z</time>
      </trkpt>
      <trkpt lat="42.28168" lon="1.79053">
        <ele>1234</ele>
        <time>2010-01-01T03:49:43Z</time>
      </trkpt>
      <trkpt lat="42.2817" lon="1.79054">
        <ele>1234</ele>
        <time>2010-01-01T03:49:44Z</time>
      </trkpt>
      <trkpt lat="42.28174" lon="1.79069">
        <ele>1238</ele>
        <time>2010-01-01T03:49:48Z</time>
      </trkpt>
      <trkpt lat="42.28177" lon="1.79074">
        <ele>1241</ele>
        <time>2010-01-01T03:49:50Z</time>
      </trkpt>
      <trkpt lat="42.2818" lon="1.79074">
        <ele>1242</ele>
        <time>2010-01-01T03:49:52Z</time>
      </trkpt>
      <trkpt lat="42.28181" lon="1.79077">
        <ele>1243</ele>
        <time>2010-01-01T03:49:52Z</time>
      </trkpt>
      <trkpt lat="42.28193" lon="1.79072">
        <ele>1244</ele>
        <time>2010-01-01T03:49:57Z</time>
      </trkpt>
      <trkpt lat="42.28197" lon="1.79072">
        <ele>1245</ele>
        <time>2010-01-01T03:49:59Z</time>
      </trkpt>
      <trkpt lat="42.28204" lon="1.79075">
        <ele>1248</ele>
        <time>2010-01-01T03:50:02Z</time>
      </trkpt>
      <trkpt lat="42.28208" lon="1.79072">
        <ele>1248</ele>
        <time>2010-01-01T03:50:04Z</time>
      </trkpt>
      <trkpt lat="42.28212" lon="1.79071">
        <ele>1250</ele>
        <time>2010-01-01T03:50:05Z</time>
      </trkpt>
      <trkpt lat="42.28219" lon="1.79077">
        <ele>1252</ele>
        <time>2010-01-01T03:50:09Z</time>
      </trkpt>
      <trkpt lat="42.28222" lon="1.7907">
        <ele>1253</ele>
        <time>2010-01-01T03:50:11Z</time>
      </trkpt>
      <trkpt lat="42.2822" lon="1.79064">
        <ele>1251</ele>
        <time>2010-01-01T03:50:13Z</time>
      </trkpt>
      <trkpt lat="42.28216" lon="1.79061">
        <ele>1249</ele>
        <time>2010-01-01T03:50:15Z</time>
      </trkpt>
      <trkpt lat="42.28215" lon="1.79063">
        <ele>1249</ele>
        <time>2010-01-01T03:50:16Z</time>
      </trkpt>
      <trkpt lat="42.28212" lon="1.79075">
        <ele>1250</ele>
        <time>2010-01-01T03:50:19Z</time>
      </trkpt>
      <trkpt lat="42.28205" lon="1.79069">
        <ele>1247</ele>
        <time>2010-01-01T03:50:23Z</time>
      </trkpt>
      <trkpt lat="42.28205" lon="1.79074">
        <ele>1248</ele>
        <time>2010-01-01T03:50:24Z</time>
      </trkpt>
      <trkpt lat="42.28204" lon="1.79073">
        <ele>1247</ele>
        <time>2010-01-01T03:50:25Z</time>
      </trkpt>
      <trkpt lat="42.28203" lon="1.79074">
        <ele>1247</ele>
        <time>2010-01-01T03:50:25Z</time>
      </trkpt>
      <trkpt lat="42.282" lon="1.79088">
        <ele>1252</ele>
        <time>2010-01-01T03:50:29Z</time>
      </trkpt>
      <trkpt lat="42.28196" lon="1.79097">
        <ele>1257</ele>
        <time>2010-01-01T03:50:32Z</time>
      </trkpt>
      <trkpt lat="42.28194" lon="1.79111">
        <ele>1268</ele>
        <time>2010-01-01T03:50:37Z</time>
      </trkpt>
      <trkpt lat="42.28194" lon="1.79124">
        <ele>1277</ele>
        <time>2010-01-01T03:50:41Z</time>
      </trkpt>
      <trkpt lat="42.28203" lon="1.79135">
        <ele>1280</ele>
        <time>2010-01-01T03:50:45Z</time>
      </trkpt>
      <trkpt lat="42.28213" lon="1.79129">
        <ele>1273</ele>
        <time>2010-01-01T03:50:50Z</time>
      </trkpt>
      <trkpt lat="42.28217" lon="1.79124">
        <ele>1269</ele>
        <time>2010-01-01T03:50:52Z</time>
      </trkpt>
      <trkpt lat="42.28217" lon="1.79128">
        <ele>1271</ele>
        <time>2010-01-01T03:50:54Z</time>
      </trkpt>
      <trkpt lat="42.28218" lon="1.79127">
        <ele>1270</ele>
        <time>2010-01-01T03:50:54Z</time>
      </trkpt>
      <trkpt lat="42.28225" lon="1.79125">
        <ele>1268</ele>
        <time>2010-01-01T03:50:57Z</time>
      </trkpt>
      <trkpt lat="42.28232" lon="1.7912">
        <ele>1267</ele>
        <time>2010-01-01T03:51:00Z</time>
      </trkpt>
      <trkpt lat="42.28241" lon="1.79113">
        <ele>1267</ele>
        <time>2010-01-01T03:51:04Z</time>
      </trkpt>
      <trkpt lat="42.28242" lon="1.79108">
        <ele>1267</ele>
        <time>2010-01-01T03:51:05Z</time>
      </trkpt>
      <trkpt lat="42.28249" lon="1.79101">
        <ele>1266</ele>
        <time>2010-01-01T03:51:09Z</time>
      </trkpt>
      <trkpt lat="42.28252" lon="1.791">
        <ele>1266</ele>
        <time>2010-01-01T03:51:10Z</time>
      </trkpt>
      <trkpt lat="42.28275" lon="1.79103">
        <ele>1275</ele>
        <time>2010-01-01T03:51:20Z</time>
      </trkpt>
      <trkpt lat="42.28279" lon="1.791">
        <ele>1275</ele>
        <time>2010-01-01T03:51:22Z</time>
      </trkpt>
      <trkpt lat="42.28283" lon="1.79094">
        <ele>1275</ele>
        <time>2010-01-01T03:51:24Z</time>
      </trkpt>
      <trkpt lat="42.28288" lon="1.7909">
        <ele>1277</ele>
        <time>2010-01-01T03:51:26Z</time>
      </trkpt>
      <trkpt lat="42.28286" lon="1.79093">
        <ele>1276</ele>
        <time>2010-01-01T03:51:27Z</time>
      </trkpt>
      <trkpt lat="42.28289" lon="1.79094">
        <ele>1277</ele>
        <time>2010-01-01T03:51:28Z</time>
      </trkpt>
      <trkpt lat="42.28289" lon="1.79092">
        <ele>1277</ele>
        <time>2010-01-01T03:51:29Z</time>
      </trkpt>
      <trkpt lat="42.28294" lon="1.7909">
        <ele>1278</ele>
        <time>2010-01-01T03:51:31Z</time>
      </trkpt>
      <trkpt lat="42.28295" lon="1.79076">
        <ele>1280</ele>
        <time>2010-01-01T03:51:35Z</time>
      </trkpt>
      <trkpt lat="42.28293" lon="1.79057">
        <ele>1282</ele>
        <time>2010-01-01T03:51:41Z</time>
      </trkpt>
      <trkpt lat="42.28284" lon="1.79048">
        <ele>1294</ele>
        <time>2010-01-01T03:51:45Z</time>
      </trkpt>
      <trkpt lat="42.28282" lon="1.79042">
        <ele>1302</ele>
        <time>2010-01-01T03:51:47Z</time>
      </trkpt>
      <trkpt lat="42.28283" lon="1.79037">
        <ele>1309</ele>
        <time>2010-01-01T03:51:49Z</time>
      </trkpt>
      <trkpt lat="42.28286" lon="1.79044">
        <ele>1300</ele>
        <time>2010-01-01T03:51:51Z</time>
      </trkpt>
      <trkpt lat="42.28285" lon="1.79051">
        <ele>1289</ele>
        <time>2010-01-01T03:51:53Z</time>
      </trkpt>
      <trkpt lat="42.28289" lon="1.79058">
        <ele>1282</ele>
        <time>2010-01-01T03:51:56Z</time>
      </trkpt>
      <trkpt lat="42.28294" lon="1.79058">
        <ele>1282</ele>
        <time>2010-01-01T03:51:58Z</time>
      </trkpt>
      <trkpt lat="42.28293" lon="1.79056">
        <ele>1282</ele>
        <time>2010-01-01T03:51:58Z</time>
      </trkpt>
      <trkpt lat="42.28289" lon="1.79054">
        <ele>1285</ele>
        <time>2010-01-01T03:52:00Z</time>
      </trkpt>
      <trkpt lat="42.28285" lon="1.79061">
        <ele>1281</ele>
        <time>2010-01-01T03:52:03Z</time>
      </trkpt>
      <trkpt lat="42.28285" lon="1.79071">
        <ele>1279</ele>
        <time>2010-01-01T03:52:05Z</time>
      </trkpt>
      <trkpt lat="42.28286" lon="1.79081">
        <ele>1276</ele>
        <time>2010-01-01T03:52:09Z</time>
      </trkpt>
      <trkpt lat="42.28284" lon="1.79085">
        <ele>1275</ele>
        <time>2010-01-01T03:52:10Z</time>
      </trkpt>
      <trkpt lat="42.28284" lon="1.79089">
        <ele>1275</ele>
        <time>2010-01-01T03:52:11Z</time>
      </trkpt>
      <trkpt lat="42.28282" lon="1.7909">
        <ele>1275</ele>
        <time>2010-01-01T03:52:12Z</time>
      </trkpt>
      <trkpt lat="42.28278" lon="1.79111">
        <ele>1276</ele>
        <time>2010-01-01T03:52:18Z</time>
      </trkpt>
      <trkpt lat="42.2828" lon="1.79112">
        <ele>1277</ele>
        <time>2010-01-01T03:52:20Z</time>
      </trkpt>
      <trkpt lat="42.28283" lon="1.791">
        <ele>1276</ele>
        <time>2010-01-01T03:52:23Z</time>
      </trkpt>
      <trkpt lat="42.28287" lon="1.79093">
        <ele>1277</ele>
        <time>2010-01-01T03:52:26Z</time>
      </trkpt>
      <trkpt lat="42.28284" lon="1.79107">
        <ele>1277</ele>
        <time>2010-01-01T03:52:30Z</time>
      </trkpt>
      <trkpt lat="42.28287" lon="1.79109">
        <ele>1278</ele>
        <time>2010-01-01T03:52:31Z</time>
      </trkpt>
      <trkpt lat="42.2829" lon="1.79108">
        <ele>1279</ele>
        <time>2010-01-01T03:52:33Z</time>
      </trkpt>
      <trkpt lat="42.2829" lon="1.7911">
        <ele>1279</ele>
        <time>2010-01-01T03:52:33Z</time>
      </trkpt>
      <trkpt lat="42.28287" lon="1.79108">
        <ele>1278</ele>
        <time>2010-01-01T03:52:35Z</time>
      </trkpt>
      <trkpt lat="42.28288" lon="1.79105">
        <ele>1278</ele>
        <time>2010-01-01T03:52:36Z</time>
      </trkpt>
      <trkpt lat="42.2829" lon="1.79104">
        <ele>1278</ele>
        <time>2010-01-01T03:52:37Z</time>
      </trkpt>
      <trkpt lat="42.28293" lon="1.79112">
        <ele>1279</ele>
        <time>2010-01-01T03:52:39Z</time>
      </trkpt>
      <trkpt lat="42.28298" lon="1.79113">
        <ele>1281</ele>
        <time>2010-01-01T03:52:41Z</time>
      </trkpt>
      <trkpt lat="42.28309" lon="1.7911">
        <ele>1283</ele>
        <time>2010-01-01T03:52:46Z</time>
      </trkpt>
      <trkpt lat="42.28318" lon="1.791">
        <ele>1287</ele>
        <time>2010-01-01T03:52:50Z</time>
      </trkpt>
      <trkpt lat="42.28324" lon="1.79096">
        <ele>1290</ele>
        <time>2010-01-01T03:52:53Z</time>
      </trkpt>
      <trkpt lat="42.28331" lon="1.79094">
        <ele>1293</ele>
        <time>2010-01-01T03:52:56Z</time>
      </trkpt>
      <trkpt lat="42.28323" lon="1.79086">
        <ele>1289</ele>
        <time>2010-01-01T03:53:00Z</time>
      </trkpt>
      <trkpt lat="42.28323" lon="1.79081">
        <ele>1289</ele>
        <time>2010-01-01T03:53:02Z</time>
      </trkpt>
      <trkpt lat="42.28318" lon="1.79074">
        <ele>1287</ele>
        <time>2010-01-01T03:53:05Z</time>
      </trkpt>
      <trkpt lat="42.28315" lon="1.79073">
        <ele>1286</ele>
        <time>2010-01-01T03:53:06Z</time>
      </trkpt>
      <trkpt lat="42.28313" lon="1.79062">
        <ele>1284</ele>
        <time>2010-01-01T03:53:09Z</time>
      </trkpt>
      <trkpt lat="42.28311" lon="1.79064">
        <ele>1284</ele>
        <time>2010-01-01T03:53:11Z</time>
      </trkpt>
      <trkpt lat="42.28303" lon="1.7904">
        <ele>1309</ele>
        <time>2010-01-01T03:53:19Z</time>
      </trkpt>
      <trkpt lat="42.28307" lon="1.79038">
        <ele>1312</ele>
        <time>2010-01-01T03:53:20Z</time>
      </trkpt>
      <trkpt lat="42.28325" lon="1.79055">
        <ele>1290</ele>
        <time>2010-01-01T03:53:29Z</time>
      </trkpt>
      <trkpt lat="42.28332" lon="1.79058">
        <ele>1291</ele>
        <time>2010-01-01T03:53:32Z</time>
      </trkpt>
      <trkpt lat="42.28348" lon="1.79069">
        <ele>1296</ele>
        <time>2010-01-01T03:53:39Z</time>
      </trkpt>
      <trkpt lat="42.28369" lon="1.79098">
        <ele>1308</ele>
        <time>2010-01-01T03:53:51Z</time>
      </trkpt>
      <trkpt lat="42.28372" lon="1.79099">
        <ele>1310</ele>
        <time>2010-01-01T03:53:52Z</time>
      </trkpt>
      <trkpt lat="42.28376" lon="1.79103">
        <ele>1313</ele>
        <time>2010-01-01T03:53:55Z</time>
      </trkpt>
      <trkpt lat="42.28378" lon="1.79109">
        <ele>1315</ele>
        <time>2010-01-01T03:53:56Z</time>
      </trkpt>
      <trkpt lat="42.28235" lon="1.7903">
        <ele>1280</ele>
        <time>2010-01-01T03:54:58Z</time>
      </trkpt>
      <trkpt lat="42.28243" lon="1.79034">
        <ele>1283</ele>
        <time>2010-01-01T03:55:01Z</time>
      </trkpt>
      <trkpt lat="42.28255" lon="1.7903">
        <ele>1297</ele>
        <time>2010-01-01T03:55:06Z</time>
      </trkpt>
      <trkpt lat="42.28285" lon="1.79036">
        <ele>1310</ele>
        <time>2010-01-01T03:55:19Z</time>
      </trkpt>
      <trkpt lat="42.28295" lon="1.79033">
        <ele>1318</ele>
        <time>2010-01-01T03:55:23Z</time>
      </trkpt>
      <trkpt lat="42.28377" lon="1.79078">
        <ele>1307</ele>
        <time>2010-01-01T03:55:58Z</time>
      </trkpt>
      <trkpt lat="42.28368" lon="1.79054">
        <ele>1303</ele>
        <time>2010-01-01T03:56:06Z</time>
      </trkpt>
      <trkpt lat="42.28391" lon="1.79097">
        <ele>1318</ele>
        <time>2010-01-01T03:56:22Z</time>
      </trkpt>
      <trkpt lat="42.28397" lon="1.79093">
        <ele>1320</ele>
        <time>2010-01-01T03:56:24Z</time>
      </trkpt>
      <trkpt lat="42.28398" lon="1.79092">
        <ele>1321</ele>
        <time>2010-01-01T03:56:25Z</time>
      </trkpt>
      <trkpt lat="42.28396" lon="1.79095">
        <ele>1320</ele>
        <time>2010-01-01T03:56:26Z</time>
      </trkpt>
      <trkpt lat="42.28398" lon="1.79095">
        <ele>1321</ele>
        <time>2010-01-01T03:56:27Z</time>
      </trkpt>
      <trkpt lat="42.28411" lon="1.79083">
        <ele>1328</ele>
        <time>2010-01-01T03:56:33Z</time>
      </trkpt>
      <trkpt lat="42.2842" lon="1.79082">
        <ele>1333</ele>
        <time>2010-01-01T03:56:37Z</time>
      </trkpt>
      <trkpt lat="42.28426" lon="1.79085">
        <ele>1334</ele>
        <time>2010-01-01T03:56:39Z</time>
      </trkpt>
      <trkpt lat="42.28431" lon="1.79096">
        <ele>1334</ele>
        <time>2010-01-01T03:56:43Z</time>
      </trkpt>
      <trkpt lat="42.28431" lon="1.79108">
        <ele>1332</ele>
        <time>2010-01-01T03:56:46Z</time>
      </trkpt>
      <trkpt lat="42.28431" lon="1.79107">
        <ele>1333</ele>
        <time>2010-01-01T03:56:47Z</time>
      </trkpt>
      <trkpt lat="42.28428" lon="1.79103">
        <ele>1332</ele>
        <time>2010-01-01T03:56:49Z</time>
      </trkpt>
      <trkpt lat="42.2843" lon="1.79096">
        <ele>1334</ele>
        <time>2010-01-01T03:56:51Z</time>
      </trkpt>
      <trkpt lat="42.28431" lon="1.7911">
        <ele>1332</ele>
        <time>2010-01-01T03:56:55Z</time>
      </trkpt>
      <trkpt lat="42.28428" lon="1.7911">
        <ele>1331</ele>
        <time>2010-01-01T03:56:56Z</time>
      </trkpt>
      <trkpt lat="42.2843" lon="1.79104">
        <ele>1333</ele>
        <time>2010-01-01T03:56:58Z</time>
      </trkpt>
      <trkpt lat="42.28432" lon="1.79102">
        <ele>1334</ele>
        <time>2010-01-01T03:56:59Z</time>
      </trkpt>
      <trkpt lat="42.28437" lon="1.791">
        <ele>1335</ele>
        <time>2010-01-01T03:57:02Z</time>
      </trkpt>
      <trkpt lat="42.28442" lon="1.79104">
        <ele>1336</ele>
        <time>2010-01-01T03:57:04Z</time>
      </trkpt>
      <trkpt lat="42.28445" lon="1.79112">
        <ele>1338</ele>
        <time>2010-01-01T03:57:06Z</time>
      </trkpt>
      <trkpt lat="42.28451" lon="1.79107">
        <ele>1342</ele>
        <time>2010-01-01T03:57:09Z</time>
      </trkpt>
      <trkpt lat="42.28455" lon="1.79093">
        <ele>1344</ele>
        <time>2010-01-01T03:57:13Z</time>
      </trkpt>
      <trkpt lat="42.28455" lon="1.7909">
        <ele>1344</ele>
        <time>2010-01-01T03:57:14Z</time>
      </trkpt>
      <trkpt lat="42.28453" lon="1.79082">
        <ele>1344</ele>
        <time>2010-01-01T03:57:16Z</time>
      </trkpt>
      <trkpt lat="42.28455" lon="1.79068">
        <ele>1352</ele>
        <time>2010-01-01T03:57:21Z</time>
      </trkpt>
      <trkpt lat="42.28461" lon="1.79069">
        <ele>1354</ele>
        <time>2010-01-01T03:57:23Z</time>
      </trkpt>
      <trkpt lat="42.28478" lon="1.79045">
        <ele>1372</ele>
        <time>2010-01-01T03:57:33Z</time>
      </trkpt>
      <trkpt lat="42.28469" lon="1.79054">
        <ele>1363</ele>
        <time>2010-01-01T03:57:37Z</time>
      </trkpt>
      <trkpt lat="42.2847" lon="1.79055">
        <ele>1362</ele>
        <time>2010-01-01T03:57:38Z</time>
      </trkpt>
      <trkpt lat="42.28466" lon="1.79059">
        <ele>1359</ele>
        <time>2010-01-01T03:57:40Z</time>
      </trkpt>
      <trkpt lat="42.28459" lon="1.79071">
        <ele>1352</ele>
        <time>2010-01-01T03:57:44Z</time>
      </trkpt>
      <trkpt lat="42.28458" lon="1.79079">
        <ele>1348</ele>
        <time>2010-01-01T03:57:46Z</time>
      </trkpt>
      <trkpt lat="42.28461" lon="1.79078">
        <ele>1349</ele>
        <time>2010-01-01T03:57:48Z</time>
      </trkpt>
      <trkpt lat="42.28465" lon="1.7908">
        <ele>1350</ele>
        <time>2010-01-01T03:57:50Z</time>
      </trkpt>
      <trkpt lat="42.28468" lon="1.79075">
        <ele>1353</ele>
        <time>2010-01-01T03:57:52Z</time>
      </trkpt>
      <trkpt lat="42.28477" lon="1.79076">
        <ele>1356</ele>
        <time>2010-01-01T03:57:55Z</time>
      </trkpt>
      <trkpt lat="42.2848" lon="1.79081">
        <ele>1356</ele>
        <time>2010-01-01T03:57:57Z</time>
      </trkpt>
      <trkpt lat="42.28487" lon="1.79082">
        <ele>1359</ele>
        <time>2010-01-01T03:58:00Z</time>
      </trkpt>
      <trkpt lat="42.28496" lon="1.79086">
        <ele>1363</ele>
        <time>2010-01-01T03:58:04Z</time>
      </trkpt>
      <trkpt lat="42.28497" lon="1.79092">
        <ele>1363</ele>
        <time>2010-01-01T03:58:06Z</time>
      </trkpt>
      <trkpt lat="42.28502" lon="1.79101">
        <ele>1365</ele>
        <time>2010-01-01T03:58:09Z</time>
      </trkpt>
      <trkpt lat="42.28512" lon="1.79106">
        <ele>1371</ele>
        <time>2010-01-01T03:58:13Z</time>
      </trkpt>
      <trkpt lat="42.28515" lon="1.79105">
        <ele>1374</ele>
        <time>2010-01-01T03:58:14Z</time>
      </trkpt>
      <trkpt lat="42.28518" lon="1.791">
        <ele>1376</ele>
        <time>2010-01-01T03:58:16Z</time>
      </trkpt>
      <trkpt lat="42.28525" lon="1.79096">
        <ele>1381</ele>
        <time>2010-01-01T03:58:19Z</time>
      </trkpt>
      <trkpt lat="42.28534" lon="1.79097">
        <ele>1386</ele>
        <time>2010-01-01T03:58:23Z</time>
      </trkpt>
      <trkpt lat="42.2854" lon="1.79094">
        <ele>1388</ele>
        <time>2010-01-01T03:58:26Z</time>
      </trkpt>
      <trkpt lat="42.28537" lon="1.79092">
        <ele>1387</ele>
        <time>2010-01-01T03:58:27Z</time>
      </trkpt>
      <trkpt lat="42.28537" lon="1.79094">
        <ele>1387</ele>
        <time>2010-01-01T03:58:27Z</time>
      </trkpt>
      <trkpt lat="42.28528" lon="1.79098">
        <ele>1383</ele>
        <time>2010-01-01T03:58:31Z</time>
      </trkpt>
      <trkpt lat="42.28523" lon="1.79079">
        <ele>1383</ele>
        <time>2010-01-01T03:58:37Z</time>
      </trkpt>
      <trkpt lat="42.28521" lon="1.79046">
        <ele>1393</ele>
        <time>2010-01-01T03:58:47Z</time>
      </trkpt>
      <trkpt lat="42.28531" lon="1.79035">
        <ele>1400</ele>
        <time>2010-01-01T03:58:52Z</time>
      </trkpt>
      <trkpt lat="42.28536" lon="1.79038">
        <ele>1400</ele>
        <time>2010-01-01T03:58:54Z</time>
      </trkpt>
      <trkpt lat="42.28543" lon="1.79035">
        <ele>1401</ele>
        <time>2010-01-01T03:58:57Z</time>
      </trkpt>
      <trkpt lat="42.28547" lon="1.7903">
        <ele>1403</ele>
        <time>2010-01-01T03:58:59Z</time>
      </trkpt>
      <trkpt lat="42.2855" lon="1.79023">
        <ele>1408</ele>
        <time>2010-01-01T03:59:02Z</time>
      </trkpt>
      <trkpt lat="42.28562" lon="1.79019">
        <ele>1412</ele>
        <time>2010-01-01T03:59:07Z</time>
      </trkpt>
      <trkpt lat="42.28561" lon="1.79024">
        <ele>1409</ele>
        <time>2010-01-01T03:59:08Z</time>
      </trkpt>
      <trkpt lat="42.28565" lon="1.79028">
        <ele>1405</ele>
        <time>2010-01-01T03:59:10Z</time>
      </trkpt>
      <trkpt lat="42.2857" lon="1.79031">
        <ele>1403</ele>
        <time>2010-01-01T03:59:12Z</time>
      </trkpt>
      <trkpt lat="42.28576" lon="1.79033">
        <ele>1402</ele>
        <time>2010-01-01T03:59:15Z</time>
      </trkpt>
      <trkpt lat="42.2858" lon="1.79036">
        <ele>1401</ele>
        <time>2010-01-01T03:59:17Z</time>
      </trkpt>
      <trkpt lat="42.28585" lon="1.79036">
        <ele>1401</ele>
        <time>2010-01-01T03:59:18Z</time>
      </trkpt>
      <trkpt lat="42.28588" lon="1.79038">
        <ele>1401</ele>
        <time>2010-01-01T03:59:20Z</time>
      </trkpt>
      <trkpt lat="42.28592" lon="1.79025">
        <ele>1407</ele>
        <time>2010-01-01T03:59:24Z</time>
      </trkpt>
      <trkpt lat="42.28607" lon="1.79029">
        <ele>1408</ele>
        <time>2010-01-01T03:59:30Z</time>
      </trkpt>
      <trkpt lat="42.28611" lon="1.79034">
        <ele>1407</ele>
        <time>2010-01-01T03:59:32Z</time>
      </trkpt>
      <trkpt lat="42.28615" lon="1.7905">
        <ele>1406</ele>
        <time>2010-01-01T03:59:37Z</time>
      </trkpt>
      <trkpt lat="42.28619" lon="1.79058">
        <ele>1406</ele>
        <time>2010-01-01T03:59:40Z</time>
      </trkpt>
      <trkpt lat="42.28623" lon="1.79058">
        <ele>1408</ele>
        <time>2010-01-01T03:59:42Z</time>
      </trkpt>
      <trkpt lat="42.28621" lon="1.79056">
        <ele>1407</ele>
        <time>2010-01-01T03:59:43Z</time>
      </trkpt>
      <trkpt lat="42.28622" lon="1.79055">
        <ele>1408</ele>
        <time>2010-01-01T03:59:43Z</time>
      </trkpt>
      <trkpt lat="42.28622" lon="1.79054">
        <ele>1408</ele>
        <time>2010-01-01T03:59:44Z</time>
      </trkpt>
      <trkpt lat="42.28619" lon="1.79053">
        <ele>1407</ele>
        <time>2010-01-01T03:59:45Z</time>
      </trkpt>
      <trkpt lat="42.28616" lon="1.79056">
        <ele>1406</ele>
        <time>2010-01-01T03:59:46Z</time>
      </trkpt>
      <trkpt lat="42.28618" lon="1.79056">
        <ele>1406</ele>
        <time>2010-01-01T03:59:47Z</time>
      </trkpt>
      <trkpt lat="42.28598" lon="1.79014">
        <ele>1417</ele>
        <time>2010-01-01T04:00:02Z</time>
      </trkpt>
      <trkpt lat="42.28601" lon="1.79015">
        <ele>1416</ele>
        <time>2010-01-01T04:00:03Z</time>
      </trkpt>
      <trkpt lat="42.28601" lon="1.79014">
        <ele>1417</ele>
        <time>2010-01-01T04:00:04Z</time>
      </trkpt>
      <trkpt lat="42.28622" lon="1.79076">
        <ele>1403</ele>
        <time>2010-01-01T04:00:24Z</time>
      </trkpt>
      <trkpt lat="42.2863" lon="1.79092">
        <ele>1406</ele>
        <time>2010-01-01T04:00:29Z</time>
      </trkpt>
      <trkpt lat="42.28637" lon="1.79092">
        <ele>1408</ele>
        <time>2010-01-01T04:00:32Z</time>
      </trkpt>
      <trkpt lat="42.28645" lon="1.79113">
        <ele>1413</ele>
        <time>2010-01-01T04:00:39Z</time>
      </trkpt>
      <trkpt lat="42.28652" lon="1.79116">
        <ele>1415</ele>
        <time>2010-01-01T04:00:42Z</time>
      </trkpt>
      <trkpt lat="42.28656" lon="1.79116">
        <ele>1416</ele>
        <time>2010-01-01T04:00:43Z</time>
      </trkpt>
      <trkpt lat="42.28658" lon="1.79113">
        <ele>1416</ele>
        <time>2010-01-01T04:00:45Z</time>
      </trkpt>
      <trkpt lat="42.28668" lon="1.79116">
        <ele>1419</ele>
        <time>2010-01-01T04:00:49Z</time>
      </trkpt>
      <trkpt lat="42.28672" lon="1.79119">
        <ele>1420</ele>
        <time>2010-01-01T04:00:51Z</time>
      </trkpt>
      <trkpt lat="42.28679" lon="1.79134">
        <ele>1423</ele>
        <time>2010-01-01T04:00:56Z</time>
      </trkpt>
      <trkpt lat="42.28685" lon="1.79138">
        <ele>1425</ele>
        <time>2010-01-01T04:00:59Z</time>
      </trkpt>
      <trkpt lat="42.28704" lon="1.79146">
        <ele>1432</ele>
        <time>2010-01-01T04:01:06Z</time>
      </trkpt>
      <trkpt lat="42.28712" lon="1.79157">
        <ele>1437</ele>
        <time>2010-01-01T04:01:11Z</time>
      </trkpt>
      <trkpt lat="42.28714" lon="1.79172">
        <ele>1442</ele>
        <time>2010-01-01T04:01:15Z</time>
      </trkpt>
      <trkpt lat="42.28723" lon="1.79192">
        <ele>1453</ele>
        <time>2010-01-01T04:01:22Z</time>
      </trkpt>
      <trkpt lat="42.28727" lon="1.79194">
        <ele>1454</ele>
        <time>2010-01-01T04:01:24Z</time>
      </trkpt>
      <trkpt lat="42.28744" lon="1.79195">
        <ele>1457</ele>
        <time>2010-01-01T04:01:31Z</time>
      </trkpt>
      <trkpt lat="42.28749" lon="1.79193">
        <ele>1457</ele>
        <time>2010-01-01T04:01:33Z</time>
      </trkpt>
      <trkpt lat="42.2875" lon="1.79177">
        <ele>1452</ele>
        <time>2010-01-01T04:01:38Z</time>
      </trkpt>
      <trkpt lat="42.28754" lon="1.79169">
        <ele>1451</ele>
        <time>2010-01-01T04:01:41Z</time>
      </trkpt>
      <trkpt lat="42.28755" lon="1.79158">
        <ele>1451</ele>
        <time>2010-01-01T04:01:44Z</time>
      </trkpt>
      <trkpt lat="42.28756" lon="1.79161">
        <ele>1451</ele>
        <time>2010-01-01T04:01:45Z</time>
      </trkpt>
      <trkpt lat="42.28766" lon="1.79172">
        <ele>1457</ele>
        <time>2010-01-01T04:01:50Z</time>
      </trkpt>
      <trkpt lat="42.28769" lon="1.79179">
        <ele>1460</ele>
        <time>2010-01-01T04:01:53Z</time>
      </trkpt>
      <trkpt lat="42.28774" lon="1.79183">
        <ele>1462</ele>
        <time>2010-01-01T04:01:55Z</time>
      </trkpt>
      <trkpt lat="42.28781" lon="1.79198">
        <ele>1467</ele>
        <time>2010-01-01T04:02:00Z</time>
      </trkpt>
      <trkpt lat="42.28788" lon="1.79206">
        <ele>1471</ele>
        <time>2010-01-01T04:02:04Z</time>
      </trkpt>
      <trkpt lat="42.28792" lon="1.79207">
        <ele>1473</ele>
        <time>2010-01-01T04:02:06Z</time>
      </trkpt>
      <trkpt lat="42.28801" lon="1.79221">
        <ele>1478</ele>
        <time>2010-01-01T04:02:11Z</time>
      </trkpt>
      <trkpt lat="42.28804" lon="1.79224">
        <ele>1479</ele>
        <time>2010-01-01T04:02:13Z</time>
      </trkpt>
      <trkpt lat="42.28809" lon="1.79224">
        <ele>1481</ele>
        <time>2010-01-01T04:02:14Z</time>
      </trkpt>
      <trkpt lat="42.28812" lon="1.79223">
        <ele>1483</ele>
        <time>2010-01-01T04:02:16Z</time>
      </trkpt>
      <trkpt lat="42.28813" lon="1.79221">
        <ele>1483</ele>
        <time>2010-01-01T04:02:16Z</time>
      </trkpt>
      <trkpt lat="42.28809" lon="1.7919">
        <ele>1480</ele>
        <time>2010-01-01T04:02:26Z</time>
      </trkpt>
      <trkpt lat="42.28814" lon="1.79195">
        <ele>1483</ele>
        <time>2010-01-01T04:02:28Z</time>
      </trkpt>
      <trkpt lat="42.28818" lon="1.79197">
        <ele>1486</ele>
        <time>2010-01-01T04:02:30Z</time>
      </trkpt>
      <trkpt lat="42.28825" lon="1.79199">
        <ele>1490</ele>
        <time>2010-01-01T04:02:33Z</time>
      </trkpt>
      <trkpt lat="42.28828" lon="1.79201">
        <ele>1492</ele>
        <time>2010-01-01T04:02:34Z</time>
      </trkpt>
      <trkpt lat="42.28846" lon="1.79233">
        <ele>1500</ele>
        <time>2010-01-01T04:02:46Z</time>
      </trkpt>
      <trkpt lat="42.28857" lon="1.79238">
        <ele>1505</ele>
        <time>2010-01-01T04:02:51Z</time>
      </trkpt>
      <trkpt lat="42.2887" lon="1.79248">
        <ele>1509</ele>
        <time>2010-01-01T04:02:57Z</time>
      </trkpt>
      <trkpt lat="42.28873" lon="1.7925">
        <ele>1510</ele>
        <time>2010-01-01T04:02:58Z</time>
      </trkpt>
      <trkpt lat="42.28874" lon="1.79246">
        <ele>1511</ele>
        <time>2010-01-01T04:02:59Z</time>
      </trkpt>
      <trkpt lat="42.28879" lon="1.7925">
        <ele>1512</ele>
        <time>2010-01-01T04:03:01Z</time>
      </trkpt>
      <trkpt lat="42.28892" lon="1.79245">
        <ele>1517</ele>
        <time>2010-01-01T04:03:07Z</time>
      </trkpt>
      <trkpt lat="42.28895" lon="1.79245">
        <ele>1518</ele>
        <time>2010-01-01T04:03:08Z</time>
      </trkpt>
      <trkpt lat="42.28902" lon="1.79239">
        <ele>1521</ele>
        <time>2010-01-01T04:03:11Z</time>
      </trkpt>
      <trkpt lat="42.28904" lon="1.79235">
        <ele>1522</ele>
        <time>2010-01-01T04:03:13Z</time>
      </trkpt>
      <trkpt lat="42.28905" lon="1.79248">
        <ele>1520</ele>
        <time>2010-01-01T04:03:16Z</time>
      </trkpt>
      <trkpt lat="42.28908" lon="1.79255">
        <ele>1521</ele>
        <time>2010-01-01T04:03:19Z</time>
      </trkpt>
      <trkpt lat="42.28908" lon="1.7926">
        <ele>1522</ele>
        <time>2010-01-01T04:03:20Z</time>
      </trkpt>
      <trkpt lat="42.2891" lon="1.79263">
        <ele>1523</ele>
        <time>2010-01-01T04:03:22Z</time>
      </trkpt>
      <trkpt lat="42.28907" lon="1.79266">
        <ele>1522</ele>
        <time>2010-01-01T04:03:23Z</time>
      </trkpt>
      <trkpt lat="42.28909" lon="1.7927">
        <ele>1523</ele>
        <time>2010-01-01T04:03:25Z</time>
      </trkpt>
      <trkpt lat="42.28912" lon="1.79279">
        <ele>1525</ele>
        <time>2010-01-01T04:03:28Z</time>
      </trkpt>
      <trkpt lat="42.28911" lon="1.79285">
        <ele>1525</ele>
        <time>2010-01-01T04:03:30Z</time>
      </trkpt>
      <trkpt lat="42.28915" lon="1.79301">
        <ele>1528</ele>
        <time>2010-01-01T04:03:34Z</time>
      </trkpt>
      <trkpt lat="42.28917" lon="1.7932">
        <ele>1532</ele>
        <time>2010-01-01T04:03:40Z</time>
      </trkpt>
      <trkpt lat="42.2893" lon="1.79348">
        <ele>1541</ele>
        <time>2010-01-01T04:03:50Z</time>
      </trkpt>
      <trkpt lat="42.28942" lon="1.79362">
        <ele>1544</ele>
        <time>2010-01-01T04:03:56Z</time>
      </trkpt>
      <trkpt lat="42.28941" lon="1.79378">
        <ele>1547</ele>
        <time>2010-01-01T04:04:01Z</time>
      </trkpt>
      <trkpt lat="42.28953" lon="1.79397">
        <ele>1554</ele>
        <time>2010-01-01T04:04:08Z</time>
      </trkpt>
      <trkpt lat="42.28958" lon="1.79412">
        <ele>1558</ele>
        <time>2010-01-01T04:04:13Z</time>
      </trkpt>
      <trkpt lat="42.28952" lon="1.79431">
        <ele>1562</ele>
        <time>2010-01-01T04:04:19Z</time>
      </trkpt>
      <trkpt lat="42.2895" lon="1.7943">
        <ele>1561</ele>
        <time>2010-01-01T04:04:20Z</time>
      </trkpt>
      <trkpt lat="42.28948" lon="1.79434">
        <ele>1563</ele>
        <time>2010-01-01T04:04:22Z</time>
      </trkpt>
      <trkpt lat="42.28948" lon="1.79438">
        <ele>1564</ele>
        <time>2010-01-01T04:04:23Z</time>
      </trkpt>
      <trkpt lat="42.28951" lon="1.79446">
        <ele>1568</ele>
        <time>2010-01-01T04:04:25Z</time>
      </trkpt>
      <trkpt lat="42.28947" lon="1.79451">
        <ele>1570</ele>
        <time>2010-01-01T04:04:28Z</time>
      </trkpt>
      <trkpt lat="42.28946" lon="1.79456">
        <ele>1572</ele>
        <time>2010-01-01T04:04:29Z</time>
      </trkpt>
      <trkpt lat="42.28952" lon="1.79468">
        <ele>1576</ele>
        <time>2010-01-01T04:04:33Z</time>
      </trkpt>
      <trkpt lat="42.28957" lon="1.79471">
        <ele>1578</ele>
        <time>2010-01-01T04:04:36Z</time>
      </trkpt>
      <trkpt lat="42.28959" lon="1.79471">
        <ele>1577</ele>
        <time>2010-01-01T04:04:37Z</time>
      </trkpt>
      <trkpt lat="42.28968" lon="1.79478">
        <ele>1580</ele>
        <time>2010-01-01T04:04:41Z</time>
      </trkpt>
      <trkpt lat="42.28962" lon="1.79492">
        <ele>1585</ele>
        <time>2010-01-01T04:04:46Z</time>
      </trkpt>
      <trkpt lat="42.28964" lon="1.79497">
        <ele>1587</ele>
        <time>2010-01-01T04:04:47Z</time>
      </trkpt>
      <trkpt lat="42.28968" lon="1.79503">
        <ele>1588</ele>
        <time>2010-01-01T04:04:50Z</time>
      </trkpt>
      <trkpt lat="42.28968" lon="1.79509">
        <ele>1590</ele>
        <time>2010-01-01T04:04:51Z</time>
      </trkpt>
      <trkpt lat="42.28976" lon="1.79515">
        <ele>1592</ele>
        <time>2010-01-01T04:04:55Z</time>
      </trkpt>
      <trkpt lat="42.28982" lon="1.79512">
        <ele>1592</ele>
        <time>2010-01-01T04:04:58Z</time>
      </trkpt>
      <trkpt lat="42.28984" lon="1.79512">
        <ele>1593</ele>
        <time>2010-01-01T04:04:58Z</time>
      </trkpt>
      <trkpt lat="42.28991" lon="1.79523">
        <ele>1598</ele>
        <time>2010-01-01T04:05:03Z</time>
      </trkpt>
      <trkpt lat="42.28993" lon="1.79532">
        <ele>1601</ele>
        <time>2010-01-01T04:05:06Z</time>
      </trkpt>
      <trkpt lat="42.28996" lon="1.79533">
        <ele>1601</ele>
        <time>2010-01-01T04:05:07Z</time>
      </trkpt>
      <trkpt lat="42.28992" lon="1.79534">
        <ele>1601</ele>
        <time>2010-01-01T04:05:08Z</time>
      </trkpt>
      <trkpt lat="42.28989" lon="1.79544">
        <ele>1604</ele>
        <time>2010-01-01T04:05:11Z</time>
      </trkpt>
      <trkpt lat="42.28989" lon="1.7955">
        <ele>1606</ele>
        <time>2010-01-01T04:05:13Z</time>
      </trkpt>
      <trkpt lat="42.28995" lon="1.7956">
        <ele>1610</ele>
        <time>2010-01-01T04:05:17Z</time>
      </trkpt>
      <trkpt lat="42.28994" lon="1.79571">
        <ele>1615</ele>
        <time>2010-01-01T04:05:20Z</time>
      </trkpt>
      <trkpt lat="42.28998" lon="1.79572">
        <ele>1614</ele>
        <time>2010-01-01T04:05:22Z</time>
      </trkpt>
      <trkpt lat="42.29" lon="1.79583">
        <ele>1619</ele>
        <time>2010-01-01T04:05:26Z</time>
      </trkpt>
      <trkpt lat="42.29004" lon="1.79592">
        <ele>1624</ele>
        <time>2010-01-01T04:05:29Z</time>
      </trkpt>
      <trkpt lat="42.29007" lon="1.79594">
        <ele>1625</ele>
        <time>2010-01-01T04:05:30Z</time>
      </trkpt>
      <trkpt lat="42.29014" lon="1.79597">
        <ele>1627</ele>
        <time>2010-01-01T04:05:33Z</time>
      </trkpt>
      <trkpt lat="42.29033" lon="1.79596">
        <ele>1630</ele>
        <time>2010-01-01T04:05:40Z</time>
      </trkpt>
      <trkpt lat="42.29043" lon="1.7959">
        <ele>1630</ele>
        <time>2010-01-01T04:05:45Z</time>
      </trkpt>
      <trkpt lat="42.2905" lon="1.79581">
        <ele>1630</ele>
        <time>2010-01-01T04:05:49Z</time>
      </trkpt>
      <trkpt lat="42.29051" lon="1.79562">
        <ele>1626</ele>
        <time>2010-01-01T04:05:54Z</time>
      </trkpt>
      <trkpt lat="42.29049" lon="1.79554">
        <ele>1624</ele>
        <time>2010-01-01T04:05:57Z</time>
      </trkpt>
      <trkpt lat="42.29046" lon="1.79554">
        <ele>1623</ele>
        <time>2010-01-01T04:05:58Z</time>
      </trkpt>
      <trkpt lat="42.29042" lon="1.79566">
        <ele>1624</ele>
        <time>2010-01-01T04:06:02Z</time>
      </trkpt>
      <trkpt lat="42.29045" lon="1.79567">
        <ele>1625</ele>
        <time>2010-01-01T04:06:03Z</time>
      </trkpt>
      <trkpt lat="42.29048" lon="1.79571">
        <ele>1627</ele>
        <time>2010-01-01T04:06:05Z</time>
      </trkpt>
      <trkpt lat="42.29054" lon="1.79572">
        <ele>1630</ele>
        <time>2010-01-01T04:06:08Z</time>
      </trkpt>
      <trkpt lat="42.29061" lon="1.79575">
        <ele>1633</ele>
        <time>2010-01-01T04:06:10Z</time>
      </trkpt>
      <trkpt lat="42.29068" lon="1.79581">
        <ele>1638</ele>
        <time>2010-01-01T04:06:14Z</time>
      </trkpt>
      <trkpt lat="42.29072" lon="1.79589">
        <ele>1642</ele>
        <time>2010-01-01T04:06:17Z</time>
      </trkpt>
      <trkpt lat="42.29073" lon="1.79589">
        <ele>1643</ele>
        <time>2010-01-01T04:06:17Z</time>
      </trkpt>
      <trkpt lat="42.29073" lon="1.79588">
        <ele>1643</ele>
        <time>2010-01-01T04:06:17Z</time>
      </trkpt>
      <trkpt lat="42.29077" lon="1.79589">
        <ele>1645</ele>
        <time>2010-01-01T04:06:19Z</time>
      </trkpt>
      <trkpt lat="42.29079" lon="1.79596">
        <ele>1648</ele>
        <time>2010-01-01T04:06:21Z</time>
      </trkpt>
      <trkpt lat="42.29083" lon="1.796">
        <ele>1650</ele>
        <time>2010-01-01T04:06:23Z</time>
      </trkpt>
      <trkpt lat="42.29087" lon="1.79608">
        <ele>1654</ele>
        <time>2010-01-01T04:06:26Z</time>
      </trkpt>
      <trkpt lat="42.29094" lon="1.7961">
        <ele>1657</ele>
        <time>2010-01-01T04:06:29Z</time>
      </trkpt>
      <trkpt lat="42.29093" lon="1.79612">
        <ele>1657</ele>
        <time>2010-01-01T04:06:29Z</time>
      </trkpt>
      <trkpt lat="42.29096" lon="1.79625">
        <ele>1661</ele>
        <time>2010-01-01T04:06:33Z</time>
      </trkpt>
      <trkpt lat="42.291" lon="1.79641">
        <ele>1665</ele>
        <time>2010-01-01T04:06:38Z</time>
      </trkpt>
      <trkpt lat="42.29105" lon="1.79642">
        <ele>1667</ele>
        <time>2010-01-01T04:06:40Z</time>
      </trkpt>
      <trkpt lat="42.29105" lon="1.79648">
        <ele>1668</ele>
        <time>2010-01-01T04:06:42Z</time>
      </trkpt>
      <trkpt lat="42.29109" lon="1.79653">
        <ele>1671</ele>
        <time>2010-01-01T04:06:44Z</time>
      </trkpt>
      <trkpt lat="42.29108" lon="1.79662">
        <ele>1673</ele>
        <time>2010-01-01T04:06:47Z</time>
      </trkpt>
      <trkpt lat="42.29103" lon="1.79673">
        <ele>1675</ele>
        <time>2010-01-01T04:06:51Z</time>
      </trkpt>
      <trkpt lat="42.29103" lon="1.79677">
        <ele>1676</ele>
        <time>2010-01-01T04:06:52Z</time>
      </trkpt>
      <trkpt lat="42.29106" lon="1.79682">
        <ele>1678</ele>
        <time>2010-01-01T04:06:54Z</time>
      </trkpt>
      <trkpt lat="42.29117" lon="1.7969">
        <ele>1682</ele>
        <time>2010-01-01T04:06:59Z</time>
      </trkpt>
      <trkpt lat="42.2912" lon="1.79699">
        <ele>1684</ele>
        <time>2010-01-01T04:07:02Z</time>
      </trkpt>
      <trkpt lat="42.29127" lon="1.79703">
        <ele>1685</ele>
        <time>2010-01-01T04:07:05Z</time>
      </trkpt>
      <trkpt lat="42.29129" lon="1.79707">
        <ele>1686</ele>
        <time>2010-01-01T04:07:06Z</time>
      </trkpt>
      <trkpt lat="42.2913" lon="1.79715">
        <ele>1688</ele>
        <time>2010-01-01T04:07:09Z</time>
      </trkpt>
      <trkpt lat="42.29134" lon="1.79717">
        <ele>1688</ele>
        <time>2010-01-01T04:07:10Z</time>
      </trkpt>
      <trkpt lat="42.29141" lon="1.79725">
        <ele>1691</ele>
        <time>2010-01-01T04:07:14Z</time>
      </trkpt>
      <trkpt lat="42.29145" lon="1.79737">
        <ele>1696</ele>
        <time>2010-01-01T04:07:18Z</time>
      </trkpt>
      <trkpt lat="42.29143" lon="1.79746">
        <ele>1699</ele>
        <time>2010-01-01T04:07:21Z</time>
      </trkpt>
      <trkpt lat="42.29145" lon="1.79754">
        <ele>1703</ele>
        <time>2010-01-01T04:07:23Z</time>
      </trkpt>
      <trkpt lat="42.29147" lon="1.79756">
        <ele>1704</ele>
        <time>2010-01-01T04:07:24Z</time>
      </trkpt>
      <trkpt lat="42.29152" lon="1.79756">
        <ele>1705</ele>
        <time>2010-01-01T04:07:26Z</time>
      </trkpt>
      <trkpt lat="42.29154" lon="1.79769">
        <ele>1711</ele>
        <time>2010-01-01T04:07:30Z</time>
      </trkpt>
      <trkpt lat="42.29156" lon="1.79771">
        <ele>1713</ele>
        <time>2010-01-01T04:07:31Z</time>
      </trkpt>
      <trkpt lat="42.29159" lon="1.79772">
        <ele>1714</ele>
        <time>2010-01-01T04:07:32Z</time>
      </trkpt>
      <trkpt lat="42.29165" lon="1.79769">
        <ele>1713</ele>
        <time>2010-01-01T04:07:35Z</time>
      </trkpt>
      <trkpt lat="42.29163" lon="1.79769">
        <ele>1713</ele>
        <time>2010-01-01T04:07:35Z</time>
      </trkpt>
      <trkpt lat="42.29165" lon="1.79767">
        <ele>1713</ele>
        <time>2010-01-01T04:07:36Z</time>
      </trkpt>
      <trkpt lat="42.2917" lon="1.79772">
        <ele>1717</ele>
        <time>2010-01-01T04:07:39Z</time>
      </trkpt>
      <trkpt lat="42.29167" lon="1.79777">
        <ele>1717</ele>
        <time>2010-01-01T04:07:40Z</time>
      </trkpt>
      <trkpt lat="42.29163" lon="1.79779">
        <ele>1717</ele>
        <time>2010-01-01T04:07:42Z</time>
      </trkpt>
      <trkpt lat="42.29163" lon="1.79782">
        <ele>1718</ele>
        <time>2010-01-01T04:07:43Z</time>
      </trkpt>
      <trkpt lat="42.2916" lon="1.79783">
        <ele>1718</ele>
        <time>2010-01-01T04:07:44Z</time>
      </trkpt>
      <trkpt lat="42.29158" lon="1.79787">
        <ele>1719</ele>
        <time>2010-01-01T04:07:46Z</time>
      </trkpt>
      <trkpt lat="42.29157" lon="1.79793">
        <ele>1721</ele>
        <time>2010-01-01T04:07:48Z</time>
      </trkpt>
      <trkpt lat="42.29163" lon="1.79799">
        <ele>1724</ele>
        <time>2010-01-01T04:07:51Z</time>
      </trkpt>
      <trkpt lat="42.29161" lon="1.79804">
        <ele>1725</ele>
        <time>2010-01-01T04:07:52Z</time>
      </trkpt>
      <trkpt lat="42.29162" lon="1.79809">
        <ele>1727</ele>
        <time>2010-01-01T04:07:54Z</time>
      </trkpt>
      <trkpt lat="42.29174" lon="1.79799">
        <ele>1727</ele>
        <time>2010-01-01T04:08:00Z</time>
      </trkpt>
      <trkpt lat="42.28903" lon="1.80034">
        <ele>1702</ele>
        <time>2010-01-01T04:10:09Z</time>
      </trkpt>
      <trkpt lat="42.28945" lon="1.80018">
        <ele>1708</ele>
        <time>2010-01-01T04:10:26Z</time>
      </trkpt>
      <trkpt lat="42.2896" lon="1.80016">
        <ele>1706</ele>
        <time>2010-01-01T04:10:32Z</time>
      </trkpt>
      <trkpt lat="42.28967" lon="1.80006">
        <ele>1709</ele>
        <time>2010-01-01T04:10:36Z</time>
      </trkpt>
      <trkpt lat="42.2897" lon="1.80005">
        <ele>1709</ele>
        <time>2010-01-01T04:10:37Z</time>
      </trkpt>
      <trkpt lat="42.28984" lon="1.80001">
        <ele>1709</ele>
        <time>2010-01-01T04:10:43Z</time>
      </trkpt>
      <trkpt lat="42.28988" lon="1.79996">
        <ele>1710</ele>
        <time>2010-01-01T04:10:45Z</time>
      </trkpt>
      <trkpt lat="42.28998" lon="1.79994">
        <ele>1709</ele>
        <time>2010-01-01T04:10:49Z</time>
      </trkpt>
      <trkpt lat="42.28999" lon="1.7999">
        <ele>1710</ele>
        <time>2010-01-01T04:10:51Z</time>
      </trkpt>
      <trkpt lat="42.29019" lon="1.79967">
        <ele>1718</ele>
        <time>2010-01-01T04:11:01Z</time>
      </trkpt>
      <trkpt lat="42.29027" lon="1.79963">
        <ele>1718</ele>
        <time>2010-01-01T04:11:04Z</time>
      </trkpt>
      <trkpt lat="42.2903" lon="1.79964">
        <ele>1719</ele>
        <time>2010-01-01T04:11:06Z</time>
      </trkpt>
      <trkpt lat="42.29029" lon="1.79958">
        <ele>1719</ele>
        <time>2010-01-01T04:11:07Z</time>
      </trkpt>
      <trkpt lat="42.29041" lon="1.79928">
        <ele>1726</ele>
        <time>2010-01-01T04:11:18Z</time>
      </trkpt>
      <trkpt lat="42.29047" lon="1.79904">
        <ele>1726</ele>
        <time>2010-01-01T04:11:25Z</time>
      </trkpt>
      <trkpt lat="42.29047" lon="1.79891">
        <ele>1725</ele>
        <time>2010-01-01T04:11:29Z</time>
      </trkpt>
      <trkpt lat="42.29055" lon="1.79868">
        <ele>1724</ele>
        <time>2010-01-01T04:11:37Z</time>
      </trkpt>
      <trkpt lat="42.29067" lon="1.79846">
        <ele>1723</ele>
        <time>2010-01-01T04:11:45Z</time>
      </trkpt>
      <trkpt lat="42.29095" lon="1.79811">
        <ele>1720</ele>
        <time>2010-01-01T04:12:00Z</time>
      </trkpt>
      <trkpt lat="42.29099" lon="1.79791">
        <ele>1714</ele>
        <time>2010-01-01T04:12:06Z</time>
      </trkpt>
      <trkpt lat="42.29105" lon="1.79795">
        <ele>1716</ele>
        <time>2010-01-01T04:12:08Z</time>
      </trkpt>
      <trkpt lat="42.29119" lon="1.79798">
        <ele>1718</ele>
        <time>2010-01-01T04:12:14Z</time>
      </trkpt>
      <trkpt lat="42.29135" lon="1.79803">
        <ele>1721</ele>
        <time>2010-01-01T04:12:21Z</time>
      </trkpt>
      <trkpt lat="42.2915" lon="1.79804">
        <ele>1724</ele>
        <time>2010-01-01T04:12:27Z</time>
      </trkpt>
      <trkpt lat="42.29157" lon="1.79808">
        <ele>1726</ele>
        <time>2010-01-01T04:12:30Z</time>
      </trkpt>
      <trkpt lat="42.28901" lon="1.80044">
        <ele>1698</ele>
        <time>2010-01-01T04:14:34Z</time>
      </trkpt>
      <trkpt lat="42.28873" lon="1.80035">
        <ele>1702</ele>
        <time>2010-01-01T04:14:45Z</time>
      </trkpt>
      <trkpt lat="42.28854" lon="1.80042">
        <ele>1699</ele>
        <time>2010-01-01T04:14:53Z</time>
      </trkpt>
      <trkpt lat="42.28783" lon="1.80048">
        <ele>1707</ele>
        <time>2010-01-01T04:15:22Z</time>
      </trkpt>
      <trkpt lat="42.28774" lon="1.80052">
        <ele>1709</ele>
        <time>2010-01-01T04:15:26Z</time>
      </trkpt>
      <trkpt lat="42.28759" lon="1.80061">
        <ele>1709</ele>
        <time>2010-01-01T04:15:32Z</time>
      </trkpt>
      <trkpt lat="42.28752" lon="1.80068">
        <ele>1705</ele>
        <time>2010-01-01T04:15:36Z</time>
      </trkpt>
      <trkpt lat="42.28738" lon="1.80075">
        <ele>1705</ele>
        <time>2010-01-01T04:15:42Z</time>
      </trkpt>
      <trkpt lat="42.28729" lon="1.80078">
        <ele>1706</ele>
        <time>2010-01-01T04:15:46Z</time>
      </trkpt>
      <trkpt lat="42.2872" lon="1.80077">
        <ele>1710</ele>
        <time>2010-01-01T04:15:49Z</time>
      </trkpt>
      <trkpt lat="42.28714" lon="1.80087">
        <ele>1705</ele>
        <time>2010-01-01T04:15:53Z</time>
      </trkpt>
      <trkpt lat="42.28706" lon="1.80095">
        <ele>1702</ele>
        <time>2010-01-01T04:15:57Z</time>
      </trkpt>
      <trkpt lat="42.28689" lon="1.80114">
        <ele>1698</ele>
        <time>2010-01-01T04:16:06Z</time>
      </trkpt>
      <trkpt lat="42.28685" lon="1.80122">
        <ele>1696</ele>
        <time>2010-01-01T04:16:09Z</time>
      </trkpt>
      <trkpt lat="42.28676" lon="1.80134">
        <ele>1694</ele>
        <time>2010-01-01T04:16:14Z</time>
      </trkpt>
      <trkpt lat="42.28657" lon="1.80148">
        <ele>1695</ele>
        <time>2010-01-01T04:16:22Z</time>
      </trkpt>
      <trkpt lat="42.28651" lon="1.80149">
        <ele>1696</ele>
        <time>2010-01-01T04:16:25Z</time>
      </trkpt>
      <trkpt lat="42.28638" lon="1.80153">
        <ele>1698</ele>
        <time>2010-01-01T04:16:30Z</time>
      </trkpt>
      <trkpt lat="42.28633" lon="1.80158">
        <ele>1695</ele>
        <time>2010-01-01T04:16:33Z</time>
      </trkpt>
      <trkpt lat="42.28633" lon="1.80161">
        <ele>1693</ele>
        <time>2010-01-01T04:16:33Z</time>
      </trkpt>
      <trkpt lat="42.28629" lon="1.80155">
        <ele>1696</ele>
        <time>2010-01-01T04:16:36Z</time>
      </trkpt>
      <trkpt lat="42.28627" lon="1.80154">
        <ele>1697</ele>
        <time>2010-01-01T04:16:37Z</time>
      </trkpt>
      <trkpt lat="42.28626" lon="1.80152">
        <ele>1698</ele>
        <time>2010-01-01T04:16:38Z</time>
      </trkpt>
      <trkpt lat="42.28623" lon="1.80152">
        <ele>1697</ele>
        <time>2010-01-01T04:16:39Z</time>
      </trkpt>
      <trkpt lat="42.28618" lon="1.80158">
        <ele>1696</ele>
        <time>2010-01-01T04:16:41Z</time>
      </trkpt>
      <trkpt lat="42.28608" lon="1.80164">
        <ele>1696</ele>
        <time>2010-01-01T04:16:46Z</time>
      </trkpt>
      <trkpt lat="42.28604" lon="1.80172">
        <ele>1693</ele>
        <time>2010-01-01T04:16:49Z</time>
      </trkpt>
      <trkpt lat="42.28592" lon="1.80187">
        <ele>1692</ele>
        <time>2010-01-01T04:16:55Z</time>
      </trkpt>
      <trkpt lat="42.2859" lon="1.80182">
        <ele>1693</ele>
        <time>2010-01-01T04:16:57Z</time>
      </trkpt>
      <trkpt lat="42.28593" lon="1.80175">
        <ele>1693</ele>
        <time>2010-01-01T04:17:00Z</time>
      </trkpt>
      <trkpt lat="42.28606" lon="1.80154">
        <ele>1696</ele>
        <time>2010-01-01T04:17:08Z</time>
      </trkpt>
      <trkpt lat="42.28612" lon="1.80147">
        <ele>1698</ele>
        <time>2010-01-01T04:17:11Z</time>
      </trkpt>
      <trkpt lat="42.28632" lon="1.80108">
        <ele>1709</ele>
        <time>2010-01-01T04:17:25Z</time>
      </trkpt>
      <trkpt lat="42.28641" lon="1.80098">
        <ele>1713</ele>
        <time>2010-01-01T04:17:29Z</time>
      </trkpt>
      <trkpt lat="42.28675" lon="1.80065">
        <ele>1717</ele>
        <time>2010-01-01T04:17:46Z</time>
      </trkpt>
      <trkpt lat="42.2868" lon="1.80058">
        <ele>1719</ele>
        <time>2010-01-01T04:17:49Z</time>
      </trkpt>
      <trkpt lat="42.28686" lon="1.80045">
        <ele>1723</ele>
        <time>2010-01-01T04:17:54Z</time>
      </trkpt>
      <trkpt lat="42.28688" lon="1.80033">
        <ele>1725</ele>
        <time>2010-01-01T04:17:57Z</time>
      </trkpt>
      <trkpt lat="42.28692" lon="1.80019">
        <ele>1728</ele>
        <time>2010-01-01T04:18:02Z</time>
      </trkpt>
      <trkpt lat="42.28701" lon="1.80003">
        <ele>1735</ele>
        <time>2010-01-01T04:18:08Z</time>
      </trkpt>
      <trkpt lat="42.28705" lon="1.79993">
        <ele>1738</ele>
        <time>2010-01-01T04:18:11Z</time>
      </trkpt>
      <trkpt lat="42.28715" lon="1.79985">
        <ele>1742</ele>
        <time>2010-01-01T04:18:16Z</time>
      </trkpt>
      <trkpt lat="42.28719" lon="1.79987">
        <ele>1743</ele>
        <time>2010-01-01T04:18:18Z</time>
      </trkpt>
      <trkpt lat="42.28724" lon="1.79981">
        <ele>1746</ele>
        <time>2010-01-01T04:18:20Z</time>
      </trkpt>
      <trkpt lat="42.28728" lon="1.79978">
        <ele>1747</ele>
        <time>2010-01-01T04:18:22Z</time>
      </trkpt>
      <trkpt lat="42.28732" lon="1.79979">
        <ele>1748</ele>
        <time>2010-01-01T04:18:24Z</time>
      </trkpt>
      <trkpt lat="42.28743" lon="1.79965">
        <ele>1753</ele>
        <time>2010-01-01T04:18:30Z</time>
      </trkpt>
      <trkpt lat="42.2875" lon="1.79951">
        <ele>1756</ele>
        <time>2010-01-01T04:18:35Z</time>
      </trkpt>
      <trkpt lat="42.28759" lon="1.79937">
        <ele>1760</ele>
        <time>2010-01-01T04:18:40Z</time>
      </trkpt>
      <trkpt lat="42.28764" lon="1.79935">
        <ele>1761</ele>
        <time>2010-01-01T04:18:42Z</time>
      </trkpt>
      <trkpt lat="42.28769" lon="1.79928">
        <ele>1764</ele>
        <time>2010-01-01T04:18:45Z</time>
      </trkpt>
      <trkpt lat="42.28772" lon="1.79922">
        <ele>1765</ele>
        <time>2010-01-01T04:18:47Z</time>
      </trkpt>
      <trkpt lat="42.28787" lon="1.79901">
        <ele>1773</ele>
        <time>2010-01-01T04:18:56Z</time>
      </trkpt>
      <trkpt lat="42.28793" lon="1.79913">
        <ele>1773</ele>
        <time>2010-01-01T04:19:00Z</time>
      </trkpt>
      <trkpt lat="42.28799" lon="1.7992">
        <ele>1773</ele>
        <time>2010-01-01T04:19:03Z</time>
      </trkpt>
      <trkpt lat="42.28801" lon="1.79919">
        <ele>1774</ele>
        <time>2010-01-01T04:19:04Z</time>
      </trkpt>
      <trkpt lat="42.28803" lon="1.79914">
        <ele>1776</ele>
        <time>2010-01-01T04:19:06Z</time>
      </trkpt>
      <trkpt lat="42.28807" lon="1.79912">
        <ele>1777</ele>
        <time>2010-01-01T04:19:07Z</time>
      </trkpt>
      <trkpt lat="42.28813" lon="1.79899">
        <ele>1783</ele>
        <time>2010-01-01T04:19:12Z</time>
      </trkpt>
      <trkpt lat="42.28826" lon="1.79882">
        <ele>1791</ele>
        <time>2010-01-01T04:19:19Z</time>
      </trkpt>
      <trkpt lat="42.28828" lon="1.79881">
        <ele>1791</ele>
        <time>2010-01-01T04:19:20Z</time>
      </trkpt>
      <trkpt lat="42.28829" lon="1.79882">
        <ele>1791</ele>
        <time>2010-01-01T04:19:21Z</time>
      </trkpt>
      <trkpt lat="42.28831" lon="1.79881">
        <ele>1792</ele>
        <time>2010-01-01T04:19:22Z</time>
      </trkpt>
      <trkpt lat="42.28834" lon="1.79877">
        <ele>1794</ele>
        <time>2010-01-01T04:19:23Z</time>
      </trkpt>
      <trkpt lat="42.28837" lon="1.79879">
        <ele>1793</ele>
        <time>2010-01-01T04:19:24Z</time>
      </trkpt>
      <trkpt lat="42.28838" lon="1.79877">
        <ele>1793</ele>
        <time>2010-01-01T04:19:25Z</time>
      </trkpt>
      <trkpt lat="42.28845" lon="1.79866">
        <ele>1795</ele>
        <time>2010-01-01T04:19:29Z</time>
      </trkpt>
      <trkpt lat="42.28846" lon="1.79866">
        <ele>1795</ele>
        <time>2010-01-01T04:19:30Z</time>
      </trkpt>
      <trkpt lat="42.28848" lon="1.79868">
        <ele>1794</ele>
        <time>2010-01-01T04:19:31Z</time>
      </trkpt>
      <trkpt lat="42.2885" lon="1.79866">
        <ele>1794</ele>
        <time>2010-01-01T04:19:32Z</time>
      </trkpt>
      <trkpt lat="42.28852" lon="1.79868">
        <ele>1793</ele>
        <time>2010-01-01T04:19:33Z</time>
      </trkpt>
      <trkpt lat="42.28859" lon="1.79861">
        <ele>1793</ele>
        <time>2010-01-01T04:19:36Z</time>
      </trkpt>
      <trkpt lat="42.28857" lon="1.79857">
        <ele>1793</ele>
        <time>2010-01-01T04:19:38Z</time>
      </trkpt>
      <trkpt lat="42.28855" lon="1.79857">
        <ele>1794</ele>
        <time>2010-01-01T04:19:38Z</time>
      </trkpt>
      <trkpt lat="42.28851" lon="1.79863">
        <ele>1794</ele>
        <time>2010-01-01T04:19:41Z</time>
      </trkpt>
      <trkpt lat="42.28849" lon="1.79862">
        <ele>1795</ele>
        <time>2010-01-01T04:19:42Z</time>
      </trkpt>
      <trkpt lat="42.28847" lon="1.79864">
        <ele>1795</ele>
        <time>2010-01-01T04:19:43Z</time>
      </trkpt>
      <trkpt lat="42.28847" lon="1.79862">
        <ele>1795</ele>
        <time>2010-01-01T04:19:43Z</time>
      </trkpt>
      <trkpt lat="42.28845" lon="1.79861">
        <ele>1796</ele>
        <time>2010-01-01T04:19:44Z</time>
      </trkpt>
      <trkpt lat="42.28838" lon="1.79875">
        <ele>1794</ele>
        <time>2010-01-01T04:19:49Z</time>
      </trkpt>
      <trkpt lat="42.28835" lon="1.79871">
        <ele>1795</ele>
        <time>2010-01-01T04:19:51Z</time>
      </trkpt>
      <trkpt lat="42.28831" lon="1.79877">
        <ele>1793</ele>
        <time>2010-01-01T04:19:53Z</time>
      </trkpt>
      <trkpt lat="42.28829" lon="1.79873">
        <ele>1793</ele>
        <time>2010-01-01T04:19:55Z</time>
      </trkpt>
      <trkpt lat="42.28823" lon="1.79881">
        <ele>1790</ele>
        <time>2010-01-01T04:19:58Z</time>
      </trkpt>
      <trkpt lat="42.28821" lon="1.79882">
        <ele>1789</ele>
        <time>2010-01-01T04:19:59Z</time>
      </trkpt>
      <trkpt lat="42.28819" lon="1.79887">
        <ele>1788</ele>
        <time>2010-01-01T04:20:01Z</time>
      </trkpt>
      <trkpt lat="42.28813" lon="1.79895">
        <ele>1784</ele>
        <time>2010-01-01T04:20:04Z</time>
      </trkpt>
      <trkpt lat="42.2881" lon="1.79905">
        <ele>1780</ele>
        <time>2010-01-01T04:20:07Z</time>
      </trkpt>
      <trkpt lat="42.28804" lon="1.79905">
        <ele>1779</ele>
        <time>2010-01-01T04:20:10Z</time>
      </trkpt>
      <trkpt lat="42.28801" lon="1.79909">
        <ele>1776</ele>
        <time>2010-01-01T04:20:11Z</time>
      </trkpt>
      <trkpt lat="42.2879" lon="1.79891">
        <ele>1777</ele>
        <time>2010-01-01T04:20:18Z</time>
      </trkpt>
      <trkpt lat="42.28777" lon="1.79908">
        <ele>1769</ele>
        <time>2010-01-01T04:20:25Z</time>
      </trkpt>
      <trkpt lat="42.28771" lon="1.79913">
        <ele>1766</ele>
        <time>2010-01-01T04:20:28Z</time>
      </trkpt>
      <trkpt lat="42.28768" lon="1.79921">
        <ele>1765</ele>
        <time>2010-01-01T04:20:31Z</time>
      </trkpt>
      <trkpt lat="42.28764" lon="1.79928">
        <ele>1763</ele>
        <time>2010-01-01T04:20:33Z</time>
      </trkpt>
      <trkpt lat="42.28762" lon="1.79929">
        <ele>1762</ele>
        <time>2010-01-01T04:20:34Z</time>
      </trkpt>
      <trkpt lat="42.28758" lon="1.79926">
        <ele>1762</ele>
        <time>2010-01-01T04:20:36Z</time>
      </trkpt>
      <trkpt lat="42.28757" lon="1.79928">
        <ele>1762</ele>
        <time>2010-01-01T04:20:36Z</time>
      </trkpt>
      <trkpt lat="42.28744" lon="1.79947">
        <ele>1755</ele>
        <time>2010-01-01T04:20:44Z</time>
      </trkpt>
      <trkpt lat="42.28743" lon="1.79946">
        <ele>1754</ele>
        <time>2010-01-01T04:20:45Z</time>
      </trkpt>
      <trkpt lat="42.28739" lon="1.79941">
        <ele>1754</ele>
        <time>2010-01-01T04:20:47Z</time>
      </trkpt>
      <trkpt lat="42.28737" lon="1.79942">
        <ele>1753</ele>
        <time>2010-01-01T04:20:47Z</time>
      </trkpt>
      <trkpt lat="42.28732" lon="1.79947">
        <ele>1750</ele>
        <time>2010-01-01T04:20:50Z</time>
      </trkpt>
      <trkpt lat="42.28726" lon="1.79958">
        <ele>1748</ele>
        <time>2010-01-01T04:20:54Z</time>
      </trkpt>
      <trkpt lat="42.28721" lon="1.79963">
        <ele>1746</ele>
        <time>2010-01-01T04:20:57Z</time>
      </trkpt>
      <trkpt lat="42.28718" lon="1.79968">
        <ele>1745</ele>
        <time>2010-01-01T04:20:59Z</time>
      </trkpt>
      <trkpt lat="42.28714" lon="1.7997">
        <ele>1743</ele>
        <time>2010-01-01T04:21:00Z</time>
      </trkpt>
      <trkpt lat="42.28708" lon="1.79978">
        <ele>1741</ele>
        <time>2010-01-01T04:21:04Z</time>
      </trkpt>
      <trkpt lat="42.28691" lon="1.80013">
        <ele>1729</ele>
        <time>2010-01-01T04:21:16Z</time>
      </trkpt>
      <trkpt lat="42.28686" lon="1.80029">
        <ele>1725</ele>
        <time>2010-01-01T04:21:21Z</time>
      </trkpt>
      <trkpt lat="42.28684" lon="1.80042">
        <ele>1722</ele>
        <time>2010-01-01T04:21:25Z</time>
      </trkpt>
      <trkpt lat="42.28677" lon="1.80054">
        <ele>1719</ele>
        <time>2010-01-01T04:21:30Z</time>
      </trkpt>
      <trkpt lat="42.28673" lon="1.80061">
        <ele>1718</ele>
        <time>2010-01-01T04:21:32Z</time>
      </trkpt>
      <trkpt lat="42.28654" lon="1.80075">
        <ele>1715</ele>
        <time>2010-01-01T04:21:41Z</time>
      </trkpt>
      <trkpt lat="42.28636" lon="1.80093">
        <ele>1711</ele>
        <time>2010-01-01T04:21:50Z</time>
      </trkpt>
      <trkpt lat="42.28623" lon="1.80111">
        <ele>1705</ele>
        <time>2010-01-01T04:21:57Z</time>
      </trkpt>
      <trkpt lat="42.28622" lon="1.80116">
        <ele>1704</ele>
        <time>2010-01-01T04:21:59Z</time>
      </trkpt>
      <trkpt lat="42.28611" lon="1.80136">
        <ele>1699</ele>
        <time>2010-01-01T04:22:06Z</time>
      </trkpt>
      <trkpt lat="42.28604" lon="1.80144">
        <ele>1696</ele>
        <time>2010-01-01T04:22:10Z</time>
      </trkpt>
      <trkpt lat="42.28596" lon="1.80158">
        <ele>1695</ele>
        <time>2010-01-01T04:22:15Z</time>
      </trkpt>
      <trkpt lat="42.28592" lon="1.80165">
        <ele>1695</ele>
        <time>2010-01-01T04:22:18Z</time>
      </trkpt>
      <trkpt lat="42.28588" lon="1.8018">
        <ele>1693</ele>
        <time>2010-01-01T04:22:22Z</time>
      </trkpt>
      <trkpt lat="42.28579" lon="1.80193">
        <ele>1692</ele>
        <time>2010-01-01T04:22:28Z</time>
      </trkpt>
      <trkpt lat="42.2857" lon="1.80197">
        <ele>1690</ele>
        <time>2010-01-01T04:22:31Z</time>
      </trkpt>
      <trkpt lat="42.28566" lon="1.80197">
        <ele>1689</ele>
        <time>2010-01-01T04:22:33Z</time>
      </trkpt>
      <trkpt lat="42.28559" lon="1.80201">
        <ele>1687</ele>
        <time>2010-01-01T04:22:36Z</time>
      </trkpt>
      <trkpt lat="42.28547" lon="1.8022">
        <ele>1683</ele>
        <time>2010-01-01T04:22:44Z</time>
      </trkpt>
      <trkpt lat="42.28542" lon="1.80221">
        <ele>1681</ele>
        <time>2010-01-01T04:22:45Z</time>
      </trkpt>
      <trkpt lat="42.28532" lon="1.8023">
        <ele>1677</ele>
        <time>2010-01-01T04:22:50Z</time>
      </trkpt>
      <trkpt lat="42.28529" lon="1.80234">
        <ele>1677</ele>
        <time>2010-01-01T04:22:52Z</time>
      </trkpt>
      <trkpt lat="42.28526" lon="1.80242">
        <ele>1676</ele>
        <time>2010-01-01T04:22:55Z</time>
      </trkpt>
      <trkpt lat="42.28524" lon="1.80242">
        <ele>1675</ele>
        <time>2010-01-01T04:22:55Z</time>
      </trkpt>
      <trkpt lat="42.2852" lon="1.80235">
        <ele>1672</ele>
        <time>2010-01-01T04:22:58Z</time>
      </trkpt>
      <trkpt lat="42.28519" lon="1.80227">
        <ele>1670</ele>
        <time>2010-01-01T04:23:00Z</time>
      </trkpt>
      <trkpt lat="42.28519" lon="1.80203">
        <ele>1667</ele>
        <time>2010-01-01T04:23:07Z</time>
      </trkpt>
      <trkpt lat="42.28518" lon="1.80201">
        <ele>1666</ele>
        <time>2010-01-01T04:23:08Z</time>
      </trkpt>
      <trkpt lat="42.28519" lon="1.80193">
        <ele>1666</ele>
        <time>2010-01-01T04:23:11Z</time>
      </trkpt>
      <trkpt lat="42.28517" lon="1.80184">
        <ele>1662</ele>
        <time>2010-01-01T04:23:13Z</time>
      </trkpt>
      <trkpt lat="42.28518" lon="1.80162">
        <ele>1659</ele>
        <time>2010-01-01T04:23:20Z</time>
      </trkpt>
      <trkpt lat="42.28517" lon="1.8015">
        <ele>1656</ele>
        <time>2010-01-01T04:23:24Z</time>
      </trkpt>
      <trkpt lat="42.28517" lon="1.80122">
        <ele>1653</ele>
        <time>2010-01-01T04:23:32Z</time>
      </trkpt>
      <trkpt lat="42.28516" lon="1.80109">
        <ele>1652</ele>
        <time>2010-01-01T04:23:36Z</time>
      </trkpt>
      <trkpt lat="42.28518" lon="1.80098">
        <ele>1652</ele>
        <time>2010-01-01T04:23:39Z</time>
      </trkpt>
      <trkpt lat="42.28518" lon="1.80084">
        <ele>1651</ele>
        <time>2010-01-01T04:23:43Z</time>
      </trkpt>
      <trkpt lat="42.28517" lon="1.80081">
        <ele>1650</ele>
        <time>2010-01-01T04:23:44Z</time>
      </trkpt>
      <trkpt lat="42.28515" lon="1.80082">
        <ele>1648</ele>
        <time>2010-01-01T04:23:45Z</time>
      </trkpt>
      <trkpt lat="42.28511" lon="1.80087">
        <ele>1646</ele>
        <time>2010-01-01T04:23:47Z</time>
      </trkpt>
      <trkpt lat="42.2851" lon="1.8004">
        <ele>1635</ele>
        <time>2010-01-01T04:24:01Z</time>
      </trkpt>
      <trkpt lat="42.28506" lon="1.80026">
        <ele>1630</ele>
        <time>2010-01-01T04:24:05Z</time>
      </trkpt>
      <trkpt lat="42.28506" lon="1.80018">
        <ele>1629</ele>
        <time>2010-01-01T04:24:08Z</time>
      </trkpt>
      <trkpt lat="42.28502" lon="1.79993">
        <ele>1623</ele>
        <time>2010-01-01T04:24:16Z</time>
      </trkpt>
      <trkpt lat="42.28492" lon="1.79952">
        <ele>1616</ele>
        <time>2010-01-01T04:24:28Z</time>
      </trkpt>
      <trkpt lat="42.2849" lon="1.79951">
        <ele>1615</ele>
        <time>2010-01-01T04:24:29Z</time>
      </trkpt>
      <trkpt lat="42.28489" lon="1.79953">
        <ele>1614</ele>
        <time>2010-01-01T04:24:30Z</time>
      </trkpt>
      <trkpt lat="42.28484" lon="1.79963">
        <ele>1613</ele>
        <time>2010-01-01T04:24:33Z</time>
      </trkpt>
      <trkpt lat="42.28482" lon="1.79975">
        <ele>1613</ele>
        <time>2010-01-01T04:24:37Z</time>
      </trkpt>
      <trkpt lat="42.2848" lon="1.79978">
        <ele>1613</ele>
        <time>2010-01-01T04:24:38Z</time>
      </trkpt>
      <trkpt lat="42.28478" lon="1.79976">
        <ele>1612</ele>
        <time>2010-01-01T04:24:39Z</time>
      </trkpt>
      <trkpt lat="42.28473" lon="1.79961">
        <ele>1608</ele>
        <time>2010-01-01T04:24:44Z</time>
      </trkpt>
      <trkpt lat="42.28471" lon="1.79944">
        <ele>1606</ele>
        <time>2010-01-01T04:24:49Z</time>
      </trkpt>
      <trkpt lat="42.28466" lon="1.79939">
        <ele>1603</ele>
        <time>2010-01-01T04:24:51Z</time>
      </trkpt>
      <trkpt lat="42.28442" lon="1.79992">
        <ele>1596</ele>
        <time>2010-01-01T04:25:10Z</time>
      </trkpt>
      <trkpt lat="42.28434" lon="1.79998">
        <ele>1591</ele>
        <time>2010-01-01T04:25:14Z</time>
      </trkpt>
      <trkpt lat="42.28426" lon="1.80009">
        <ele>1585</ele>
        <time>2010-01-01T04:25:18Z</time>
      </trkpt>
      <trkpt lat="42.28423" lon="1.79989">
        <ele>1582</ele>
        <time>2010-01-01T04:25:24Z</time>
      </trkpt>
      <trkpt lat="42.28418" lon="1.79983">
        <ele>1578</ele>
        <time>2010-01-01T04:25:27Z</time>
      </trkpt>
      <trkpt lat="42.2841" lon="1.7999">
        <ele>1573</ele>
        <time>2010-01-01T04:25:31Z</time>
      </trkpt>
      <trkpt lat="42.28406" lon="1.79974">
        <ele>1570</ele>
        <time>2010-01-01T04:25:36Z</time>
      </trkpt>
      <trkpt lat="42.28408" lon="1.79966">
        <ele>1570</ele>
        <time>2010-01-01T04:25:38Z</time>
      </trkpt>
      <trkpt lat="42.28404" lon="1.79958">
        <ele>1567</ele>
        <time>2010-01-01T04:25:41Z</time>
      </trkpt>
      <trkpt lat="42.28401" lon="1.79963">
        <ele>1566</ele>
        <time>2010-01-01T04:25:43Z</time>
      </trkpt>
      <trkpt lat="42.28393" lon="1.7997">
        <ele>1561</ele>
        <time>2010-01-01T04:25:47Z</time>
      </trkpt>
      <trkpt lat="42.28392" lon="1.79973">
        <ele>1561</ele>
        <time>2010-01-01T04:25:48Z</time>
      </trkpt>
      <trkpt lat="42.28387" lon="1.79978">
        <ele>1558</ele>
        <time>2010-01-01T04:25:50Z</time>
      </trkpt>
      <trkpt lat="42.28385" lon="1.79983">
        <ele>1558</ele>
        <time>2010-01-01T04:25:52Z</time>
      </trkpt>
      <trkpt lat="42.28383" lon="1.79969">
        <ele>1556</ele>
        <time>2010-01-01T04:25:56Z</time>
      </trkpt>
      <trkpt lat="42.28383" lon="1.79958">
        <ele>1555</ele>
        <time>2010-01-01T04:25:59Z</time>
      </trkpt>
      <trkpt lat="42.28383" lon="1.79955">
        <ele>1554</ele>
        <time>2010-01-01T04:26:00Z</time>
      </trkpt>
      <trkpt lat="42.28377" lon="1.79959">
        <ele>1552</ele>
        <time>2010-01-01T04:26:02Z</time>
      </trkpt>
      <trkpt lat="42.28371" lon="1.79973">
        <ele>1551</ele>
        <time>2010-01-01T04:26:07Z</time>
      </trkpt>
      <trkpt lat="42.28368" lon="1.79959">
        <ele>1548</ele>
        <time>2010-01-01T04:26:11Z</time>
      </trkpt>
      <trkpt lat="42.28368" lon="1.79937">
        <ele>1545</ele>
        <time>2010-01-01T04:26:18Z</time>
      </trkpt>
      <trkpt lat="42.28361" lon="1.79903">
        <ele>1539</ele>
        <time>2010-01-01T04:26:28Z</time>
      </trkpt>
      <trkpt lat="42.28355" lon="1.79891">
        <ele>1534</ele>
        <time>2010-01-01T04:26:33Z</time>
      </trkpt>
      <trkpt lat="42.28345" lon="1.79861">
        <ele>1526</ele>
        <time>2010-01-01T04:26:42Z</time>
      </trkpt>
      <trkpt lat="42.28344" lon="1.79846">
        <ele>1525</ele>
        <time>2010-01-01T04:26:47Z</time>
      </trkpt>
      <trkpt lat="42.28336" lon="1.79845">
        <ele>1521</ele>
        <time>2010-01-01T04:26:50Z</time>
      </trkpt>
      <trkpt lat="42.2833" lon="1.79839">
        <ele>1519</ele>
        <time>2010-01-01T04:26:53Z</time>
      </trkpt>
      <trkpt lat="42.28325" lon="1.7983">
        <ele>1518</ele>
        <time>2010-01-01T04:26:56Z</time>
      </trkpt>
      <trkpt lat="42.28317" lon="1.79823">
        <ele>1516</ele>
        <time>2010-01-01T04:27:00Z</time>
      </trkpt>
      <trkpt lat="42.28314" lon="1.79821">
        <ele>1515</ele>
        <time>2010-01-01T04:27:01Z</time>
      </trkpt>
      <trkpt lat="42.2831" lon="1.79821">
        <ele>1513</ele>
        <time>2010-01-01T04:27:03Z</time>
      </trkpt>
      <trkpt lat="42.28307" lon="1.79817">
        <ele>1512</ele>
        <time>2010-01-01T04:27:05Z</time>
      </trkpt>
      <trkpt lat="42.28299" lon="1.79814">
        <ele>1509</ele>
        <time>2010-01-01T04:27:08Z</time>
      </trkpt>
      <trkpt lat="42.28296" lon="1.79811">
        <ele>1508</ele>
        <time>2010-01-01T04:27:09Z</time>
      </trkpt>
      <trkpt lat="42.28292" lon="1.79809">
        <ele>1507</ele>
        <time>2010-01-01T04:27:11Z</time>
      </trkpt>
      <trkpt lat="42.28287" lon="1.79803">
        <ele>1505</ele>
        <time>2010-01-01T04:27:14Z</time>
      </trkpt>
      <trkpt lat="42.28281" lon="1.79799">
        <ele>1503</ele>
        <time>2010-01-01T04:27:16Z</time>
      </trkpt>
      <trkpt lat="42.28277" lon="1.79805">
        <ele>1501</ele>
        <time>2010-01-01T04:27:19Z</time>
      </trkpt>
      <trkpt lat="42.28275" lon="1.79806">
        <ele>1500</ele>
        <time>2010-01-01T04:27:20Z</time>
      </trkpt>
      <trkpt lat="42.28273" lon="1.79805">
        <ele>1499</ele>
        <time>2010-01-01T04:27:21Z</time>
      </trkpt>
      <trkpt lat="42.28271" lon="1.79806">
        <ele>1499</ele>
        <time>2010-01-01T04:27:21Z</time>
      </trkpt>
      <trkpt lat="42.28267" lon="1.79815">
        <ele>1496</ele>
        <time>2010-01-01T04:27:24Z</time>
      </trkpt>
      <trkpt lat="42.28261" lon="1.79817">
        <ele>1493</ele>
        <time>2010-01-01T04:27:27Z</time>
      </trkpt>
      <trkpt lat="42.28258" lon="1.79814">
        <ele>1492</ele>
        <time>2010-01-01T04:27:28Z</time>
      </trkpt>
      <trkpt lat="42.28256" lon="1.79814">
        <ele>1491</ele>
        <time>2010-01-01T04:27:29Z</time>
      </trkpt>
      <trkpt lat="42.28251" lon="1.79819">
        <ele>1489</ele>
        <time>2010-01-01T04:27:32Z</time>
      </trkpt>
      <trkpt lat="42.28249" lon="1.79819">
        <ele>1488</ele>
        <time>2010-01-01T04:27:32Z</time>
      </trkpt>
      <trkpt lat="42.28247" lon="1.79824">
        <ele>1486</ele>
        <time>2010-01-01T04:27:34Z</time>
      </trkpt>
      <trkpt lat="42.28242" lon="1.79828">
        <ele>1482</ele>
        <time>2010-01-01T04:27:37Z</time>
      </trkpt>
      <trkpt lat="42.2824" lon="1.79826">
        <ele>1481</ele>
        <time>2010-01-01T04:27:37Z</time>
      </trkpt>
      <trkpt lat="42.28238" lon="1.79815">
        <ele>1481</ele>
        <time>2010-01-01T04:27:41Z</time>
      </trkpt>
      <trkpt lat="42.28232" lon="1.79818">
        <ele>1478</ele>
        <time>2010-01-01T04:27:43Z</time>
      </trkpt>
      <trkpt lat="42.28229" lon="1.79814">
        <ele>1477</ele>
        <time>2010-01-01T04:27:45Z</time>
      </trkpt>
      <trkpt lat="42.28227" lon="1.79814">
        <ele>1475</ele>
        <time>2010-01-01T04:27:46Z</time>
      </trkpt>
      <trkpt lat="42.28225" lon="1.79819">
        <ele>1474</ele>
        <time>2010-01-01T04:27:47Z</time>
      </trkpt>
      <trkpt lat="42.28226" lon="1.79822">
        <ele>1474</ele>
        <time>2010-01-01T04:27:48Z</time>
      </trkpt>
      <trkpt lat="42.28226" lon="1.79816">
        <ele>1475</ele>
        <time>2010-01-01T04:27:50Z</time>
      </trkpt>
      <trkpt lat="42.28229" lon="1.79814">
        <ele>1477</ele>
        <time>2010-01-01T04:27:51Z</time>
      </trkpt>
      <trkpt lat="42.28229" lon="1.79811">
        <ele>1477</ele>
        <time>2010-01-01T04:27:52Z</time>
      </trkpt>
      <trkpt lat="42.28227" lon="1.7981">
        <ele>1476</ele>
        <time>2010-01-01T04:27:53Z</time>
      </trkpt>
      <trkpt lat="42.28226" lon="1.79805">
        <ele>1475</ele>
        <time>2010-01-01T04:27:54Z</time>
      </trkpt>
      <trkpt lat="42.28224" lon="1.79805">
        <ele>1475</ele>
        <time>2010-01-01T04:27:55Z</time>
      </trkpt>
      <trkpt lat="42.28222" lon="1.79801">
        <ele>1472</ele>
        <time>2010-01-01T04:27:57Z</time>
      </trkpt>
      <trkpt lat="42.28221" lon="1.79787">
        <ele>1470</ele>
        <time>2010-01-01T04:28:01Z</time>
      </trkpt>
      <trkpt lat="42.28215" lon="1.79783">
        <ele>1466</ele>
        <time>2010-01-01T04:28:03Z</time>
      </trkpt>
      <trkpt lat="42.28212" lon="1.79776">
        <ele>1464</ele>
        <time>2010-01-01T04:28:06Z</time>
      </trkpt>
      <trkpt lat="42.2821" lon="1.79771">
        <ele>1463</ele>
        <time>2010-01-01T04:28:08Z</time>
      </trkpt>
      <trkpt lat="42.28211" lon="1.79766">
        <ele>1463</ele>
        <time>2010-01-01T04:28:09Z</time>
      </trkpt>
      <trkpt lat="42.2821" lon="1.79755">
        <ele>1462</ele>
        <time>2010-01-01T04:28:12Z</time>
      </trkpt>
      <trkpt lat="42.28208" lon="1.79755">
        <ele>1461</ele>
        <time>2010-01-01T04:28:13Z</time>
      </trkpt>
      <trkpt lat="42.28201" lon="1.79739">
        <ele>1455</ele>
        <time>2010-01-01T04:28:19Z</time>
      </trkpt>
      <trkpt lat="42.28199" lon="1.79739">
        <ele>1454</ele>
        <time>2010-01-01T04:28:19Z</time>
      </trkpt>
      <trkpt lat="42.28195" lon="1.79745">
        <ele>1452</ele>
        <time>2010-01-01T04:28:22Z</time>
      </trkpt>
      <trkpt lat="42.28189" lon="1.79748">
        <ele>1450</ele>
        <time>2010-01-01T04:28:24Z</time>
      </trkpt>
      <trkpt lat="42.28188" lon="1.79746">
        <ele>1448</ele>
        <time>2010-01-01T04:28:25Z</time>
      </trkpt>
      <trkpt lat="42.28188" lon="1.79737">
        <ele>1447</ele>
        <time>2010-01-01T04:28:28Z</time>
      </trkpt>
      <trkpt lat="42.28184" lon="1.79729">
        <ele>1445</ele>
        <time>2010-01-01T04:28:31Z</time>
      </trkpt>
      <trkpt lat="42.2818" lon="1.79697">
        <ele>1439</ele>
        <time>2010-01-01T04:28:40Z</time>
      </trkpt>
      <trkpt lat="42.28152" lon="1.79648">
        <ele>1429</ele>
        <time>2010-01-01T04:28:59Z</time>
      </trkpt>
      <trkpt lat="42.28143" lon="1.7964">
        <ele>1427</ele>
        <time>2010-01-01T04:29:03Z</time>
      </trkpt>
      <trkpt lat="42.2814" lon="1.79642">
        <ele>1426</ele>
        <time>2010-01-01T04:29:05Z</time>
      </trkpt>
      <trkpt lat="42.28135" lon="1.79649">
        <ele>1425</ele>
        <time>2010-01-01T04:29:07Z</time>
      </trkpt>
      <trkpt lat="42.28127" lon="1.79651">
        <ele>1424</ele>
        <time>2010-01-01T04:29:11Z</time>
      </trkpt>
      <trkpt lat="42.28124" lon="1.79649">
        <ele>1424</ele>
        <time>2010-01-01T04:29:12Z</time>
      </trkpt>
      <trkpt lat="42.28116" lon="1.79653">
        <ele>1421</ele>
        <time>2010-01-01T04:29:15Z</time>
      </trkpt>
      <trkpt lat="42.28112" lon="1.7965">
        <ele>1421</ele>
        <time>2010-01-01T04:29:17Z</time>
      </trkpt>
      <trkpt lat="42.28102" lon="1.79648">
        <ele>1419</ele>
        <time>2010-01-01T04:29:21Z</time>
      </trkpt>
      <trkpt lat="42.28097" lon="1.79645">
        <ele>1419</ele>
        <time>2010-01-01T04:29:24Z</time>
      </trkpt>
      <trkpt lat="42.28091" lon="1.79648">
        <ele>1417</ele>
        <time>2010-01-01T04:29:26Z</time>
      </trkpt>
      <trkpt lat="42.28089" lon="1.79653">
        <ele>1415</ele>
        <time>2010-01-01T04:29:28Z</time>
      </trkpt>
      <trkpt lat="42.28079" lon="1.7966">
        <ele>1412</ele>
        <time>2010-01-01T04:29:32Z</time>
      </trkpt>
      <trkpt lat="42.28077" lon="1.79663">
        <ele>1411</ele>
        <time>2010-01-01T04:29:34Z</time>
      </trkpt>
      <trkpt lat="42.28072" lon="1.79665">
        <ele>1410</ele>
        <time>2010-01-01T04:29:36Z</time>
      </trkpt>
      <trkpt lat="42.28067" lon="1.79664">
        <ele>1409</ele>
        <time>2010-01-01T04:29:38Z</time>
      </trkpt>
      <trkpt lat="42.28062" lon="1.79665">
        <ele>1409</ele>
        <time>2010-01-01T04:29:40Z</time>
      </trkpt>
      <trkpt lat="42.28037" lon="1.79674">
        <ele>1408</ele>
        <time>2010-01-01T04:29:50Z</time>
      </trkpt>
      <trkpt lat="42.28027" lon="1.79681">
        <ele>1408</ele>
        <time>2010-01-01T04:29:55Z</time>
      </trkpt>
      <trkpt lat="42.28024" lon="1.79685">
        <ele>1407</ele>
        <time>2010-01-01T04:29:56Z</time>
      </trkpt>
      <trkpt lat="42.28023" lon="1.7969">
        <ele>1406</ele>
        <time>2010-01-01T04:29:58Z</time>
      </trkpt>
      <trkpt lat="42.28032" lon="1.79699">
        <ele>1400</ele>
        <time>2010-01-01T04:30:02Z</time>
      </trkpt>
      <trkpt lat="42.28037" lon="1.79699">
        <ele>1399</ele>
        <time>2010-01-01T04:30:04Z</time>
      </trkpt>
      <trkpt lat="42.28041" lon="1.79705">
        <ele>1396</ele>
        <time>2010-01-01T04:30:06Z</time>
      </trkpt>
      <trkpt lat="42.2805" lon="1.79709">
        <ele>1393</ele>
        <time>2010-01-01T04:30:10Z</time>
      </trkpt>
      <trkpt lat="42.28047" lon="1.7972">
        <ele>1390</ele>
        <time>2010-01-01T04:30:13Z</time>
      </trkpt>
      <trkpt lat="42.2805" lon="1.79724">
        <ele>1389</ele>
        <time>2010-01-01T04:30:15Z</time>
      </trkpt>
      <trkpt lat="42.2806" lon="1.79728">
        <ele>1389</ele>
        <time>2010-01-01T04:30:19Z</time>
      </trkpt>
      <trkpt lat="42.28065" lon="1.79764">
        <ele>1382</ele>
        <time>2010-01-01T04:30:30Z</time>
      </trkpt>
      <trkpt lat="42.28066" lon="1.79807">
        <ele>1375</ele>
        <time>2010-01-01T04:30:43Z</time>
      </trkpt>
      <trkpt lat="42.2807" lon="1.79821">
        <ele>1377</ele>
        <time>2010-01-01T04:30:47Z</time>
      </trkpt>
      <trkpt lat="42.2807" lon="1.79844">
        <ele>1375</ele>
        <time>2010-01-01T04:30:54Z</time>
      </trkpt>
      <trkpt lat="42.28073" lon="1.79863">
        <ele>1375</ele>
        <time>2010-01-01T04:31:00Z</time>
      </trkpt>
      <trkpt lat="42.28078" lon="1.79881">
        <ele>1377</ele>
        <time>2010-01-01T04:31:05Z</time>
      </trkpt>
      <trkpt lat="42.28078" lon="1.79906">
        <ele>1375</ele>
        <time>2010-01-01T04:31:13Z</time>
      </trkpt>
      <trkpt lat="42.2808" lon="1.79912">
        <ele>1376</ele>
        <time>2010-01-01T04:31:15Z</time>
      </trkpt>
      <trkpt lat="42.28078" lon="1.79926">
        <ele>1375</ele>
        <time>2010-01-01T04:31:19Z</time>
      </trkpt>
      <trkpt lat="42.28072" lon="1.79948">
        <ele>1372</ele>
        <time>2010-01-01T04:31:26Z</time>
      </trkpt>
      <trkpt lat="42.28073" lon="1.79971">
        <ele>1375</ele>
        <time>2010-01-01T04:31:33Z</time>
      </trkpt>
      <trkpt lat="42.28068" lon="1.79992">
        <ele>1373</ele>
        <time>2010-01-01T04:31:39Z</time>
      </trkpt>
      <trkpt lat="42.28066" lon="1.80014">
        <ele>1371</ele>
        <time>2010-01-01T04:31:46Z</time>
      </trkpt>
      <trkpt lat="42.28062" lon="1.8003">
        <ele>1369</ele>
        <time>2010-01-01T04:31:51Z</time>
      </trkpt>
      <trkpt lat="42.2806" lon="1.80041">
        <ele>1367</ele>
        <time>2010-01-01T04:31:54Z</time>
      </trkpt>
      <trkpt lat="42.28061" lon="1.80059">
        <ele>1366</ele>
        <time>2010-01-01T04:31:59Z</time>
      </trkpt>
      <trkpt lat="42.28064" lon="1.80072">
        <ele>1368</ele>
        <time>2010-01-01T04:32:04Z</time>
      </trkpt>
      <trkpt lat="42.28065" lon="1.80099">
        <ele>1369</ele>
        <time>2010-01-01T04:32:11Z</time>
      </trkpt>
      <trkpt lat="42.28064" lon="1.80129">
        <ele>1369</ele>
        <time>2010-01-01T04:32:20Z</time>
      </trkpt>
      <trkpt lat="42.28058" lon="1.80152">
        <ele>1366</ele>
        <time>2010-01-01T04:32:28Z</time>
      </trkpt>
      <trkpt lat="42.2806" lon="1.8016">
        <ele>1367</ele>
        <time>2010-01-01T04:32:30Z</time>
      </trkpt>
      <trkpt lat="42.28059" lon="1.80177">
        <ele>1365</ele>
        <time>2010-01-01T04:32:35Z</time>
      </trkpt>
      <trkpt lat="42.28061" lon="1.80189">
        <ele>1366</ele>
        <time>2010-01-01T04:32:39Z</time>
      </trkpt>
      <trkpt lat="42.28058" lon="1.80208">
        <ele>1364</ele>
        <time>2010-01-01T04:32:44Z</time>
      </trkpt>
      <trkpt lat="42.28062" lon="1.80231">
        <ele>1367</ele>
        <time>2010-01-01T04:32:52Z</time>
      </trkpt>
      <trkpt lat="42.28062" lon="1.80239">
        <ele>1368</ele>
        <time>2010-01-01T04:32:54Z</time>
      </trkpt>
      <trkpt lat="42.28054" lon="1.80293">
        <ele>1374</ele>
        <time>2010-01-01T04:33:10Z</time>
      </trkpt>
      <trkpt lat="42.28048" lon="1.80303">
        <ele>1371</ele>
        <time>2010-01-01T04:33:14Z</time>
      </trkpt>
      <trkpt lat="42.28041" lon="1.80311">
        <ele>1368</ele>
        <time>2010-01-01T04:33:17Z</time>
      </trkpt>
      <trkpt lat="42.28023" lon="1.80321">
        <ele>1357</ele>
        <time>2010-01-01T04:33:25Z</time>
      </trkpt>
      <trkpt lat="42.27994" lon="1.80348">
        <ele>1350</ele>
        <time>2010-01-01T04:33:39Z</time>
      </trkpt>
      <trkpt lat="42.2799" lon="1.80347">
        <ele>1348</ele>
        <time>2010-01-01T04:33:41Z</time>
      </trkpt>
      <trkpt lat="42.27983" lon="1.8035">
        <ele>1346</ele>
        <time>2010-01-01T04:33:44Z</time>
      </trkpt>
      <trkpt lat="42.2797" lon="1.80364">
        <ele>1345</ele>
        <time>2010-01-01T04:33:50Z</time>
      </trkpt>
      <trkpt lat="42.27961" lon="1.80365">
        <ele>1341</ele>
        <time>2010-01-01T04:33:54Z</time>
      </trkpt>
      <trkpt lat="42.27952" lon="1.80371">
        <ele>1338</ele>
        <time>2010-01-01T04:33:58Z</time>
      </trkpt>
      <trkpt lat="42.27949" lon="1.80376">
        <ele>1338</ele>
        <time>2010-01-01T04:34:00Z</time>
      </trkpt>
      <trkpt lat="42.27933" lon="1.80385">
        <ele>1333</ele>
        <time>2010-01-01T04:34:07Z</time>
      </trkpt>
      <trkpt lat="42.2793" lon="1.80397">
        <ele>1332</ele>
        <time>2010-01-01T04:34:11Z</time>
      </trkpt>
      <trkpt lat="42.27922" lon="1.80405">
        <ele>1329</ele>
        <time>2010-01-01T04:34:14Z</time>
      </trkpt>
      <trkpt lat="42.27912" lon="1.80424">
        <ele>1323</ele>
        <time>2010-01-01T04:34:22Z</time>
      </trkpt>
      <trkpt lat="42.27906" lon="1.80424">
        <ele>1320</ele>
        <time>2010-01-01T04:34:24Z</time>
      </trkpt>
      <trkpt lat="42.27904" lon="1.80427">
        <ele>1320</ele>
        <time>2010-01-01T04:34:25Z</time>
      </trkpt>
      <trkpt lat="42.27902" lon="1.80425">
        <ele>1319</ele>
        <time>2010-01-01T04:34:26Z</time>
      </trkpt>
      <trkpt lat="42.27897" lon="1.80427">
        <ele>1317</ele>
        <time>2010-01-01T04:34:28Z</time>
      </trkpt>
      <trkpt lat="42.27895" lon="1.80425">
        <ele>1316</ele>
        <time>2010-01-01T04:34:29Z</time>
      </trkpt>
      <trkpt lat="42.27885" lon="1.80439">
        <ele>1311</ele>
        <time>2010-01-01T04:34:35Z</time>
      </trkpt>
      <trkpt lat="42.27882" lon="1.8047">
        <ele>1304</ele>
        <time>2010-01-01T04:34:44Z</time>
      </trkpt>
      <trkpt lat="42.27876" lon="1.80481">
        <ele>1299</ele>
        <time>2010-01-01T04:34:48Z</time>
      </trkpt>
      <trkpt lat="42.27875" lon="1.80496">
        <ele>1296</ele>
        <time>2010-01-01T04:34:53Z</time>
      </trkpt>
      <trkpt lat="42.27873" lon="1.80501">
        <ele>1294</ele>
        <time>2010-01-01T04:34:54Z</time>
      </trkpt>
      <trkpt lat="42.27875" lon="1.80509">
        <ele>1294</ele>
        <time>2010-01-01T04:34:57Z</time>
      </trkpt>
      <trkpt lat="42.27872" lon="1.80511">
        <ele>1292</ele>
        <time>2010-01-01T04:34:58Z</time>
      </trkpt>
      <trkpt lat="42.27869" lon="1.80509">
        <ele>1290</ele>
        <time>2010-01-01T04:35:00Z</time>
      </trkpt>
      <trkpt lat="42.27862" lon="1.80519">
        <ele>1285</ele>
        <time>2010-01-01T04:35:03Z</time>
      </trkpt>
      <trkpt lat="42.27861" lon="1.80524">
        <ele>1284</ele>
        <time>2010-01-01T04:35:05Z</time>
      </trkpt>
      <trkpt lat="42.27857" lon="1.80526">
        <ele>1282</ele>
        <time>2010-01-01T04:35:07Z</time>
      </trkpt>
      <trkpt lat="42.27853" lon="1.80515">
        <ele>1282</ele>
        <time>2010-01-01T04:35:11Z</time>
      </trkpt>
      <trkpt lat="42.27842" lon="1.80493">
        <ele>1283</ele>
        <time>2010-01-01T04:35:19Z</time>
      </trkpt>
      <trkpt lat="42.27834" lon="1.805">
        <ele>1279</ele>
        <time>2010-01-01T04:35:22Z</time>
      </trkpt>
      <trkpt lat="42.27833" lon="1.80539">
        <ele>1267</ele>
        <time>2010-01-01T04:35:34Z</time>
      </trkpt>
      <trkpt lat="42.27829" lon="1.80553">
        <ele>1262</ele>
        <time>2010-01-01T04:35:38Z</time>
      </trkpt>
      <trkpt lat="42.2783" lon="1.80565">
        <ele>1258</ele>
        <time>2010-01-01T04:35:42Z</time>
      </trkpt>
      <trkpt lat="42.27827" lon="1.80577">
        <ele>1253</ele>
        <time>2010-01-01T04:35:46Z</time>
      </trkpt>
      <trkpt lat="42.2783" lon="1.8059">
        <ele>1250</ele>
        <time>2010-01-01T04:35:50Z</time>
      </trkpt>
      <trkpt lat="42.27837" lon="1.80598">
        <ele>1250</ele>
        <time>2010-01-01T04:35:53Z</time>
      </trkpt>
      <trkpt lat="42.27829" lon="1.80592">
        <ele>1249</ele>
        <time>2010-01-01T04:35:57Z</time>
      </trkpt>
      <trkpt lat="42.27815" lon="1.80576">
        <ele>1250</ele>
        <time>2010-01-01T04:36:04Z</time>
      </trkpt>
      <trkpt lat="42.27806" lon="1.80578">
        <ele>1247</ele>
        <time>2010-01-01T04:36:08Z</time>
      </trkpt>
      <trkpt lat="42.27801" lon="1.80617">
        <ele>1233</ele>
        <time>2010-01-01T04:36:20Z</time>
      </trkpt>
      <trkpt lat="42.27794" lon="1.8063">
        <ele>1227</ele>
        <time>2010-01-01T04:36:24Z</time>
      </trkpt>
      <trkpt lat="42.27796" lon="1.80642">
        <ele>1223</ele>
        <time>2010-01-01T04:36:28Z</time>
      </trkpt>
      <trkpt lat="42.27784" lon="1.80661">
        <ele>1213</ele>
        <time>2010-01-01T04:36:35Z</time>
      </trkpt>
      <trkpt lat="42.27785" lon="1.80673">
        <ele>1210</ele>
        <time>2010-01-01T04:36:39Z</time>
      </trkpt>
      <trkpt lat="42.27791" lon="1.80684">
        <ele>1211</ele>
        <time>2010-01-01T04:36:43Z</time>
      </trkpt>
      <trkpt lat="42.27786" lon="1.80695">
        <ele>1207</ele>
        <time>2010-01-01T04:36:47Z</time>
      </trkpt>
      <trkpt lat="42.27784" lon="1.80707">
        <ele>1204</ele>
        <time>2010-01-01T04:36:50Z</time>
      </trkpt>
      <trkpt lat="42.27776" lon="1.80714">
        <ele>1199</ele>
        <time>2010-01-01T04:36:54Z</time>
      </trkpt>
      <trkpt lat="42.27771" lon="1.80727">
        <ele>1195</ele>
        <time>2010-01-01T04:36:58Z</time>
      </trkpt>
      <trkpt lat="42.27764" lon="1.80734">
        <ele>1190</ele>
        <time>2010-01-01T04:37:02Z</time>
      </trkpt>
      <trkpt lat="42.27753" lon="1.80755">
        <ele>1182</ele>
        <time>2010-01-01T04:37:10Z</time>
      </trkpt>
      <trkpt lat="42.27746" lon="1.80745">
        <ele>1181</ele>
        <time>2010-01-01T04:37:14Z</time>
      </trkpt>
      <trkpt lat="42.27738" lon="1.80753">
        <ele>1178</ele>
        <time>2010-01-01T04:37:17Z</time>
      </trkpt>
      <trkpt lat="42.27726" lon="1.80772">
        <ele>1170</ele>
        <time>2010-01-01T04:37:25Z</time>
      </trkpt>
      <trkpt lat="42.27724" lon="1.80797">
        <ele>1164</ele>
        <time>2010-01-01T04:37:32Z</time>
      </trkpt>
      <trkpt lat="42.27731" lon="1.80805">
        <ele>1166</ele>
        <time>2010-01-01T04:37:36Z</time>
      </trkpt>
      <trkpt lat="42.27724" lon="1.80812">
        <ele>1162</ele>
        <time>2010-01-01T04:37:40Z</time>
      </trkpt>
      <trkpt lat="42.27715" lon="1.8081">
        <ele>1158</ele>
        <time>2010-01-01T04:37:44Z</time>
      </trkpt>
      <trkpt lat="42.27709" lon="1.808">
        <ele>1157</ele>
        <time>2010-01-01T04:37:47Z</time>
      </trkpt>
      <trkpt lat="42.277" lon="1.80805">
        <ele>1153</ele>
        <time>2010-01-01T04:37:51Z</time>
      </trkpt>
      <trkpt lat="42.27696" lon="1.80831">
        <ele>1147</ele>
        <time>2010-01-01T04:37:59Z</time>
      </trkpt>
      <trkpt lat="42.27687" lon="1.80839">
        <ele>1145</ele>
        <time>2010-01-01T04:38:03Z</time>
      </trkpt>
      <trkpt lat="42.27679" lon="1.80862">
        <ele>1147</ele>
        <time>2010-01-01T04:38:10Z</time>
      </trkpt>
      <trkpt lat="42.2767" lon="1.80865">
        <ele>1147</ele>
        <time>2010-01-01T04:38:14Z</time>
      </trkpt>
      <trkpt lat="42.27663" lon="1.80858">
        <ele>1143</ele>
        <time>2010-01-01T04:38:18Z</time>
      </trkpt>
      <trkpt lat="42.27651" lon="1.80838">
        <ele>1134</ele>
        <time>2010-01-01T04:38:26Z</time>
      </trkpt>
      <trkpt lat="42.27643" lon="1.80831">
        <ele>1130</ele>
        <time>2010-01-01T04:38:30Z</time>
      </trkpt>
      <trkpt lat="42.27634" lon="1.80827">
        <ele>1128</ele>
        <time>2010-01-01T04:38:33Z</time>
      </trkpt>
      <trkpt lat="42.27625" lon="1.8082">
        <ele>1125</ele>
        <time>2010-01-01T04:38:38Z</time>
      </trkpt>
      <trkpt lat="42.27619" lon="1.80811">
        <ele>1123</ele>
        <time>2010-01-01T04:38:41Z</time>
      </trkpt>
      <trkpt lat="42.27609" lon="1.80812">
        <ele>1121</ele>
        <time>2010-01-01T04:38:45Z</time>
      </trkpt>
      <trkpt lat="42.276" lon="1.80817">
        <ele>1121</ele>
        <time>2010-01-01T04:38:49Z</time>
      </trkpt>
      <trkpt lat="42.27592" lon="1.80812">
        <ele>1120</ele>
        <time>2010-01-01T04:38:52Z</time>
      </trkpt>
      <trkpt lat="42.27584" lon="1.80808">
        <ele>1119</ele>
        <time>2010-01-01T04:38:56Z</time>
      </trkpt>
      <trkpt lat="42.27574" lon="1.80813">
        <ele>1118</ele>
        <time>2010-01-01T04:39:00Z</time>
      </trkpt>
      <trkpt lat="42.27566" lon="1.80821">
        <ele>1116</ele>
        <time>2010-01-01T04:39:04Z</time>
      </trkpt>
      <trkpt lat="42.27557" lon="1.80825">
        <ele>1115</ele>
        <time>2010-01-01T04:39:08Z</time>
      </trkpt>
      <trkpt lat="42.27538" lon="1.80821">
        <ele>1114</ele>
        <time>2010-01-01T04:39:16Z</time>
      </trkpt>
      <trkpt lat="42.27519" lon="1.80827">
        <ele>1110</ele>
        <time>2010-01-01T04:39:23Z</time>
      </trkpt>
      <trkpt lat="42.27511" lon="1.80834">
        <ele>1107</ele>
        <time>2010-01-01T04:39:27Z</time>
      </trkpt>
      <trkpt lat="42.27504" lon="1.80843">
        <ele>1105</ele>
        <time>2010-01-01T04:39:31Z</time>
      </trkpt>
      <trkpt lat="42.27497" lon="1.80854">
        <ele>1102</ele>
        <time>2010-01-01T04:39:35Z</time>
      </trkpt>
      <trkpt lat="42.27481" lon="1.80868">
        <ele>1096</ele>
        <time>2010-01-01T04:39:43Z</time>
      </trkpt>
      <trkpt lat="42.2747" lon="1.80868">
        <ele>1092</ele>
        <time>2010-01-01T04:39:47Z</time>
      </trkpt>
      <trkpt lat="42.27453" lon="1.80873">
        <ele>1087</ele>
        <time>2010-01-01T04:39:55Z</time>
      </trkpt>
      <trkpt lat="42.27427" lon="1.80887">
        <ele>1081</ele>
        <time>2010-01-01T04:40:05Z</time>
      </trkpt>
      <trkpt lat="42.27418" lon="1.80885">
        <ele>1077</ele>
        <time>2010-01-01T04:40:09Z</time>
      </trkpt>
      <trkpt lat="42.2741" lon="1.80892">
        <ele>1075</ele>
        <time>2010-01-01T04:40:13Z</time>
      </trkpt>
      <trkpt lat="42.27405" lon="1.80903">
        <ele>1076</ele>
        <time>2010-01-01T04:40:17Z</time>
      </trkpt>
      <trkpt lat="42.27398" lon="1.80913">
        <ele>1075</ele>
        <time>2010-01-01T04:40:21Z</time>
      </trkpt>
      <trkpt lat="42.27393" lon="1.80903">
        <ele>1073</ele>
        <time>2010-01-01T04:40:25Z</time>
      </trkpt>
      <trkpt lat="42.27365" lon="1.80897">
        <ele>1064</ele>
        <time>2010-01-01T04:40:36Z</time>
      </trkpt>
      <trkpt lat="42.27358" lon="1.80895">
        <ele>1063</ele>
        <time>2010-01-01T04:40:39Z</time>
      </trkpt>
      <trkpt lat="42.27351" lon="1.80886">
        <ele>1060</ele>
        <time>2010-01-01T04:40:43Z</time>
      </trkpt>
      <trkpt lat="42.27342" lon="1.80883">
        <ele>1057</ele>
        <time>2010-01-01T04:40:46Z</time>
      </trkpt>
      <trkpt lat="42.27333" lon="1.80889">
        <ele>1055</ele>
        <time>2010-01-01T04:40:50Z</time>
      </trkpt>
      <trkpt lat="42.27324" lon="1.80883">
        <ele>1052</ele>
        <time>2010-01-01T04:40:54Z</time>
      </trkpt>
      <trkpt lat="42.2732" lon="1.80872">
        <ele>1048</ele>
        <time>2010-01-01T04:40:58Z</time>
      </trkpt>
      <trkpt lat="42.27311" lon="1.80867">
        <ele>1045</ele>
        <time>2010-01-01T04:41:02Z</time>
      </trkpt>
      <trkpt lat="42.27306" lon="1.80868">
        <ele>1044</ele>
        <time>2010-01-01T04:41:04Z</time>
      </trkpt>
      <trkpt lat="42.27291" lon="1.80854">
        <ele>1040</ele>
        <time>2010-01-01T04:41:11Z</time>
      </trkpt>
      <trkpt lat="42.27279" lon="1.80851">
        <ele>1038</ele>
        <time>2010-01-01T04:41:16Z</time>
      </trkpt>
      <trkpt lat="42.27262" lon="1.80852">
        <ele>1036</ele>
        <time>2010-01-01T04:41:23Z</time>
      </trkpt>
      <trkpt lat="42.27248" lon="1.80849">
        <ele>1033</ele>
        <time>2010-01-01T04:41:28Z</time>
      </trkpt>
      <trkpt lat="42.27239" lon="1.8085">
        <ele>1032</ele>
        <time>2010-01-01T04:41:32Z</time>
      </trkpt>
      <trkpt lat="42.2723" lon="1.8085">
        <ele>1030</ele>
        <time>2010-01-01T04:41:36Z</time>
      </trkpt>
      <trkpt lat="42.27228" lon="1.80848">
        <ele>1029</ele>
        <time>2010-01-01T04:41:37Z</time>
      </trkpt>
      <trkpt lat="42.27218" lon="1.80849">
        <ele>1027</ele>
        <time>2010-01-01T04:41:41Z</time>
      </trkpt>
      <trkpt lat="42.27206" lon="1.80851">
        <ele>1023</ele>
        <time>2010-01-01T04:41:45Z</time>
      </trkpt>
      <trkpt lat="42.27199" lon="1.80851">
        <ele>1020</ele>
        <time>2010-01-01T04:41:48Z</time>
      </trkpt>
      <trkpt lat="42.27194" lon="1.80854">
        <ele>1020</ele>
        <time>2010-01-01T04:41:50Z</time>
      </trkpt>
      <trkpt lat="42.27188" lon="1.80856">
        <ele>1017</ele>
        <time>2010-01-01T04:41:53Z</time>
      </trkpt>
      <trkpt lat="42.27164" lon="1.80886">
        <ele>1019</ele>
        <time>2010-01-01T04:42:06Z</time>
      </trkpt>
      <trkpt lat="42.27151" lon="1.80905">
        <ele>1020</ele>
        <time>2010-01-01T04:42:14Z</time>
      </trkpt>
      <trkpt lat="42.27144" lon="1.80919">
        <ele>1020</ele>
        <time>2010-01-01T04:42:19Z</time>
      </trkpt>
      <trkpt lat="42.27144" lon="1.80934">
        <ele>1023</ele>
        <time>2010-01-01T04:42:23Z</time>
      </trkpt>
      <trkpt lat="42.2714" lon="1.80946">
        <ele>1023</ele>
        <time>2010-01-01T04:42:27Z</time>
      </trkpt>
      <trkpt lat="42.27125" lon="1.80977">
        <ele>1013</ele>
        <time>2010-01-01T04:42:38Z</time>
      </trkpt>
      <trkpt lat="42.27118" lon="1.80986">
        <ele>1007</ele>
        <time>2010-01-01T04:42:42Z</time>
      </trkpt>
      <trkpt lat="42.27117" lon="1.80998">
        <ele>1005</ele>
        <time>2010-01-01T04:42:46Z</time>
      </trkpt>
      <trkpt lat="42.27113" lon="1.81009">
        <ele>1001</ele>
        <time>2010-01-01T04:42:49Z</time>
      </trkpt>
      <trkpt lat="42.27107" lon="1.81019">
        <ele>997</ele>
        <time>2010-01-01T04:42:53Z</time>
      </trkpt>
      <trkpt lat="42.27097" lon="1.81069">
        <ele>987</ele>
        <time>2010-01-01T04:43:08Z</time>
      </trkpt>
      <trkpt lat="42.2709" lon="1.81092">
        <ele>981</ele>
        <time>2010-01-01T04:43:16Z</time>
      </trkpt>
      <trkpt lat="42.27084" lon="1.81102">
        <ele>977</ele>
        <time>2010-01-01T04:43:20Z</time>
      </trkpt>
      <trkpt lat="42.27085" lon="1.8114">
        <ele>974</ele>
        <time>2010-01-01T04:43:31Z</time>
      </trkpt>
      <trkpt lat="42.27077" lon="1.81148">
        <ele>971</ele>
        <time>2010-01-01T04:43:34Z</time>
      </trkpt>
      <trkpt lat="42.27073" lon="1.8116">
        <ele>969</ele>
        <time>2010-01-01T04:43:38Z</time>
      </trkpt>
      <trkpt lat="42.27071" lon="1.81173">
        <ele>969</ele>
        <time>2010-01-01T04:43:42Z</time>
      </trkpt>
      <trkpt lat="42.27064" lon="1.81183">
        <ele>966</ele>
        <time>2010-01-01T04:43:46Z</time>
      </trkpt>
      <trkpt lat="42.27053" lon="1.81204">
        <ele>963</ele>
        <time>2010-01-01T04:43:54Z</time>
      </trkpt>
      <trkpt lat="42.27044" lon="1.81211">
        <ele>960</ele>
        <time>2010-01-01T04:43:58Z</time>
      </trkpt>
      <trkpt lat="42.27036" lon="1.81216">
        <ele>958</ele>
        <time>2010-01-01T04:44:02Z</time>
      </trkpt>
      <trkpt lat="42.2703" lon="1.81227">
        <ele>957</ele>
        <time>2010-01-01T04:44:06Z</time>
      </trkpt>
      <trkpt lat="42.27005" lon="1.81245">
        <ele>951</ele>
        <time>2010-01-01T04:44:17Z</time>
      </trkpt>
      <trkpt lat="42.26967" lon="1.81262">
        <ele>943</ele>
        <time>2010-01-01T04:44:33Z</time>
      </trkpt>
      <trkpt lat="42.26948" lon="1.81265">
        <ele>937</ele>
        <time>2010-01-01T04:44:41Z</time>
      </trkpt>
      <trkpt lat="42.26939" lon="1.81269">
        <ele>934</ele>
        <time>2010-01-01T04:44:45Z</time>
      </trkpt>
      <trkpt lat="42.2693" lon="1.81268">
        <ele>929</ele>
        <time>2010-01-01T04:44:48Z</time>
      </trkpt>
      <trkpt lat="42.26923" lon="1.81277">
        <ele>928</ele>
        <time>2010-01-01T04:44:52Z</time>
      </trkpt>
      <trkpt lat="42.26906" lon="1.81289">
        <ele>927</ele>
        <time>2010-01-01T04:45:00Z</time>
      </trkpt>
      <trkpt lat="42.26897" lon="1.81289">
        <ele>925</ele>
        <time>2010-01-01T04:45:04Z</time>
      </trkpt>
      <trkpt lat="42.26887" lon="1.81291">
        <ele>923</ele>
        <time>2010-01-01T04:45:08Z</time>
      </trkpt>
      <trkpt lat="42.26871" lon="1.81306">
        <ele>925</ele>
        <time>2010-01-01T04:45:15Z</time>
      </trkpt>
      <trkpt lat="42.26853" lon="1.81319">
        <ele>923</ele>
        <time>2010-01-01T04:45:24Z</time>
      </trkpt>
      <trkpt lat="42.26848" lon="1.81329">
        <ele>922</ele>
        <time>2010-01-01T04:45:27Z</time>
      </trkpt>
      <trkpt lat="42.26841" lon="1.81339">
        <ele>920</ele>
        <time>2010-01-01T04:45:31Z</time>
      </trkpt>
      <trkpt lat="42.26831" lon="1.81345">
        <ele>917</ele>
        <time>2010-01-01T04:45:36Z</time>
      </trkpt>
      <trkpt lat="42.26824" lon="1.81355">
        <ele>917</ele>
        <time>2010-01-01T04:45:40Z</time>
      </trkpt>
      <trkpt lat="42.26815" lon="1.81378">
        <ele>919</ele>
        <time>2010-01-01T04:45:47Z</time>
      </trkpt>
      <trkpt lat="42.26827" lon="1.81356">
        <ele>918</ele>
        <time>2010-01-01T04:45:55Z</time>
      </trkpt>
      <trkpt lat="42.26835" lon="1.81332">
        <ele>916</ele>
        <time>2010-01-01T04:46:03Z</time>
      </trkpt>
      <trkpt lat="42.26846" lon="1.81312">
        <ele>918</ele>
        <time>2010-01-01T04:46:11Z</time>
      </trkpt>
      <trkpt lat="42.26859" lon="1.81291">
        <ele>919</ele>
        <time>2010-01-01T04:46:19Z</time>
      </trkpt>
      <trkpt lat="42.26773" lon="1.81415">
        <ele>913</ele>
        <time>2010-01-01T04:47:09Z</time>
      </trkpt>
      <trkpt lat="42.26766" lon="1.81422">
        <ele>912</ele>
        <time>2010-01-01T04:47:13Z</time>
      </trkpt>
      <trkpt lat="42.26753" lon="1.81435">
        <ele>910</ele>
        <time>2010-01-01T04:47:19Z</time>
      </trkpt>
      <trkpt lat="42.26748" lon="1.81451">
        <ele>910</ele>
        <time>2010-01-01T04:47:24Z</time>
      </trkpt>
      <trkpt lat="42.26749" lon="1.81461">
        <ele>911</ele>
        <time>2010-01-01T04:47:27Z</time>
      </trkpt>
      <trkpt lat="42.26754" lon="1.81471">
        <ele>913</ele>
        <time>2010-01-01T04:47:31Z</time>
      </trkpt>
      <trkpt lat="42.26761" lon="1.81476">
        <ele>914</ele>
        <time>2010-01-01T04:47:34Z</time>
      </trkpt>
      <trkpt lat="42.26767" lon="1.81474">
        <ele>915</ele>
        <time>2010-01-01T04:47:37Z</time>
      </trkpt>
      <trkpt lat="42.26777" lon="1.81466">
        <ele>916</ele>
        <time>2010-01-01T04:47:41Z</time>
      </trkpt>
      <trkpt lat="42.26791" lon="1.8146">
        <ele>918</ele>
        <time>2010-01-01T04:47:47Z</time>
      </trkpt>
      <trkpt lat="42.26809" lon="1.81459">
        <ele>922</ele>
        <time>2010-01-01T04:47:54Z</time>
      </trkpt>
      <trkpt lat="42.2682" lon="1.81462">
        <ele>924</ele>
        <time>2010-01-01T04:47:59Z</time>
      </trkpt>
      <trkpt lat="42.26827" lon="1.81468">
        <ele>925</ele>
        <time>2010-01-01T04:48:02Z</time>
      </trkpt>
      <trkpt lat="42.26828" lon="1.81471">
        <ele>925</ele>
        <time>2010-01-01T04:48:03Z</time>
      </trkpt>
      <trkpt lat="42.26828" lon="1.81488">
        <ele>926</ele>
        <time>2010-01-01T04:48:08Z</time>
      </trkpt>
      <trkpt lat="42.26827" lon="1.81493">
        <ele>926</ele>
        <time>2010-01-01T04:48:10Z</time>
      </trkpt>
      <trkpt lat="42.26831" lon="1.81486">
        <ele>926</ele>
        <time>2010-01-01T04:48:13Z</time>
      </trkpt>
      <trkpt lat="42.26831" lon="1.81481">
        <ele>926</ele>
        <time>2010-01-01T04:48:14Z</time>
      </trkpt>
      <trkpt lat="42.26829" lon="1.81477">
        <ele>925</ele>
        <time>2010-01-01T04:48:16Z</time>
      </trkpt>
      <trkpt lat="42.26831" lon="1.81485">
        <ele>926</ele>
        <time>2010-01-01T04:48:18Z</time>
      </trkpt>
      <trkpt lat="42.2683" lon="1.81479">
        <ele>926</ele>
        <time>2010-01-01T04:48:20Z</time>
      </trkpt>
      <trkpt lat="42.26831" lon="1.8148">
        <ele>926</ele>
        <time>2010-01-01T04:48:21Z</time>
      </trkpt>
      <trkpt lat="42.26851" lon="1.81491">
        <ele>928</ele>
        <time>2010-01-01T04:48:29Z</time>
      </trkpt>
      <trkpt lat="42.26874" lon="1.81511">
        <ele>930</ele>
        <time>2010-01-01T04:48:40Z</time>
      </trkpt>
      <trkpt lat="42.26886" lon="1.81517">
        <ele>931</ele>
        <time>2010-01-01T04:48:45Z</time>
      </trkpt>
      <trkpt lat="42.26895" lon="1.81521">
        <ele>932</ele>
        <time>2010-01-01T04:48:49Z</time>
      </trkpt>
      <trkpt lat="42.26912" lon="1.8152">
        <ele>936</ele>
        <time>2010-01-01T04:48:56Z</time>
      </trkpt>
      <trkpt lat="42.2692" lon="1.81527">
        <ele>937</ele>
        <time>2010-01-01T04:49:00Z</time>
      </trkpt>
      <trkpt lat="42.26954" lon="1.81567">
        <ele>938</ele>
        <time>2010-01-01T04:49:18Z</time>
      </trkpt>
      <trkpt lat="42.26962" lon="1.81586">
        <ele>938</ele>
        <time>2010-01-01T04:49:24Z</time>
      </trkpt>
      <trkpt lat="42.26966" lon="1.81602">
        <ele>939</ele>
        <time>2010-01-01T04:49:29Z</time>
      </trkpt>
      <trkpt lat="42.26974" lon="1.81609">
        <ele>940</ele>
        <time>2010-01-01T04:49:33Z</time>
      </trkpt>
      <trkpt lat="42.26983" lon="1.81614">
        <ele>942</ele>
        <time>2010-01-01T04:49:37Z</time>
      </trkpt>
      <trkpt lat="42.27001" lon="1.81633">
        <ele>944</ele>
        <time>2010-01-01T04:49:46Z</time>
      </trkpt>
      <trkpt lat="42.27013" lon="1.81636">
        <ele>947</ele>
        <time>2010-01-01T04:49:51Z</time>
      </trkpt>
      <trkpt lat="42.27023" lon="1.81643">
        <ele>949</ele>
        <time>2010-01-01T04:49:55Z</time>
      </trkpt>
      <trkpt lat="42.27049" lon="1.81646">
        <ele>954</ele>
        <time>2010-01-01T04:50:06Z</time>
      </trkpt>
      <trkpt lat="42.27066" lon="1.81635">
        <ele>958</ele>
        <time>2010-01-01T04:50:13Z</time>
      </trkpt>
      <trkpt lat="42.27076" lon="1.81633">
        <ele>960</ele>
        <time>2010-01-01T04:50:17Z</time>
      </trkpt>
      <trkpt lat="42.27093" lon="1.81636">
        <ele>960</ele>
        <time>2010-01-01T04:50:24Z</time>
      </trkpt>
      <trkpt lat="42.27103" lon="1.81634">
        <ele>961</ele>
        <time>2010-01-01T04:50:28Z</time>
      </trkpt>
      <trkpt lat="42.27122" lon="1.81623">
        <ele>965</ele>
        <time>2010-01-01T04:50:36Z</time>
      </trkpt>
      <trkpt lat="42.2713" lon="1.81617">
        <ele>968</ele>
        <time>2010-01-01T04:50:40Z</time>
      </trkpt>
      <trkpt lat="42.27138" lon="1.81614">
        <ele>970</ele>
        <time>2010-01-01T04:50:43Z</time>
      </trkpt>
      <trkpt lat="42.27147" lon="1.81617">
        <ele>970</ele>
        <time>2010-01-01T04:50:47Z</time>
      </trkpt>
      <trkpt lat="42.27157" lon="1.81622">
        <ele>970</ele>
        <time>2010-01-01T04:50:51Z</time>
      </trkpt>
      <trkpt lat="42.27165" lon="1.8163">
        <ele>970</ele>
        <time>2010-01-01T04:50:55Z</time>
      </trkpt>
      <trkpt lat="42.27169" lon="1.8164">
        <ele>968</ele>
        <time>2010-01-01T04:50:59Z</time>
      </trkpt>
      <trkpt lat="42.27181" lon="1.8168">
        <ele>963</ele>
        <time>2010-01-01T04:51:12Z</time>
      </trkpt>
      <trkpt lat="42.2719" lon="1.81697">
        <ele>962</ele>
        <time>2010-01-01T04:51:18Z</time>
      </trkpt>
      <trkpt lat="42.27227" lon="1.81723">
        <ele>971</ele>
        <time>2010-01-01T04:51:34Z</time>
      </trkpt>
      <trkpt lat="42.27247" lon="1.81732">
        <ele>976</ele>
        <time>2010-01-01T04:51:43Z</time>
      </trkpt>
      <trkpt lat="42.27257" lon="1.81734">
        <ele>978</ele>
        <time>2010-01-01T04:51:47Z</time>
      </trkpt>
      <trkpt lat="42.27275" lon="1.81748">
        <ele>979</ele>
        <time>2010-01-01T04:51:55Z</time>
      </trkpt>
      <trkpt lat="42.27288" lon="1.81769">
        <ele>982</ele>
        <time>2010-01-01T04:52:03Z</time>
      </trkpt>
      <trkpt lat="42.27292" lon="1.81793">
        <ele>982</ele>
        <time>2010-01-01T04:52:11Z</time>
      </trkpt>
      <trkpt lat="42.27299" lon="1.81817">
        <ele>982</ele>
        <time>2010-01-01T04:52:18Z</time>
      </trkpt>
      <trkpt lat="42.27306" lon="1.81855">
        <ele>983</ele>
        <time>2010-01-01T04:52:30Z</time>
      </trkpt>
      <trkpt lat="42.27313" lon="1.81861">
        <ele>984</ele>
        <time>2010-01-01T04:52:33Z</time>
      </trkpt>
      <trkpt lat="42.27331" lon="1.81848">
        <ele>985</ele>
        <time>2010-01-01T04:52:42Z</time>
      </trkpt>
      <trkpt lat="42.27336" lon="1.81837">
        <ele>985</ele>
        <time>2010-01-01T04:52:45Z</time>
      </trkpt>
      <trkpt lat="42.27355" lon="1.81822">
        <ele>989</ele>
        <time>2010-01-01T04:52:54Z</time>
      </trkpt>
      <trkpt lat="42.27362" lon="1.81822">
        <ele>990</ele>
        <time>2010-01-01T04:52:57Z</time>
      </trkpt>
      <trkpt lat="42.27369" lon="1.81815">
        <ele>993</ele>
        <time>2010-01-01T04:53:01Z</time>
      </trkpt>
      <trkpt lat="42.27378" lon="1.8182">
        <ele>994</ele>
        <time>2010-01-01T04:53:05Z</time>
      </trkpt>
      <trkpt lat="42.27399" lon="1.81827">
        <ele>995</ele>
        <time>2010-01-01T04:53:13Z</time>
      </trkpt>
      <trkpt lat="42.27417" lon="1.8184">
        <ele>996</ele>
        <time>2010-01-01T04:53:21Z</time>
      </trkpt>
      <trkpt lat="42.27436" lon="1.81842">
        <ele>997</ele>
        <time>2010-01-01T04:53:29Z</time>
      </trkpt>
      <trkpt lat="42.27457" lon="1.81836">
        <ele>998</ele>
        <time>2010-01-01T04:53:37Z</time>
      </trkpt>
      <trkpt lat="42.27465" lon="1.81831">
        <ele>1000</ele>
        <time>2010-01-01T04:53:41Z</time>
      </trkpt>
      <trkpt lat="42.27474" lon="1.81807">
        <ele>1006</ele>
        <time>2010-01-01T04:53:49Z</time>
      </trkpt>
      <trkpt lat="42.27484" lon="1.81804">
        <ele>1007</ele>
        <time>2010-01-01T04:53:53Z</time>
      </trkpt>
      <trkpt lat="42.27493" lon="1.81806">
        <ele>1006</ele>
        <time>2010-01-01T04:53:57Z</time>
      </trkpt>
      <trkpt lat="42.27498" lon="1.81817">
        <ele>1006</ele>
        <time>2010-01-01T04:54:00Z</time>
      </trkpt>
      <trkpt lat="42.27506" lon="1.81813">
        <ele>1007</ele>
        <time>2010-01-01T04:54:04Z</time>
      </trkpt>
      <trkpt lat="42.27517" lon="1.81815">
        <ele>1008</ele>
        <time>2010-01-01T04:54:08Z</time>
      </trkpt>
      <trkpt lat="42.27531" lon="1.81831">
        <ele>1010</ele>
        <time>2010-01-01T04:54:16Z</time>
      </trkpt>
      <trkpt lat="42.27537" lon="1.81842">
        <ele>1012</ele>
        <time>2010-01-01T04:54:20Z</time>
      </trkpt>
      <trkpt lat="42.27544" lon="1.81844">
        <ele>1013</ele>
        <time>2010-01-01T04:54:23Z</time>
      </trkpt>
      <trkpt lat="42.27554" lon="1.8184">
        <ele>1014</ele>
        <time>2010-01-01T04:54:27Z</time>
      </trkpt>
      <trkpt lat="42.27563" lon="1.81842">
        <ele>1018</ele>
        <time>2010-01-01T04:54:31Z</time>
      </trkpt>
      <trkpt lat="42.27578" lon="1.81826">
        <ele>1021</ele>
        <time>2010-01-01T04:54:38Z</time>
      </trkpt>
      <trkpt lat="42.2759" lon="1.81831">
        <ele>1028</ele>
        <time>2010-01-01T04:54:43Z</time>
      </trkpt>
      <trkpt lat="42.27599" lon="1.81837">
        <ele>1034</ele>
        <time>2010-01-01T04:54:47Z</time>
      </trkpt>
      <trkpt lat="42.27604" lon="1.81827">
        <ele>1037</ele>
        <time>2010-01-01T04:54:51Z</time>
      </trkpt>
      <trkpt lat="42.27612" lon="1.8182">
        <ele>1042</ele>
        <time>2010-01-01T04:54:55Z</time>
      </trkpt>
      <trkpt lat="42.27621" lon="1.81827">
        <ele>1046</ele>
        <time>2010-01-01T04:54:59Z</time>
      </trkpt>
      <trkpt lat="42.27624" lon="1.8184">
        <ele>1048</ele>
        <time>2010-01-01T04:55:03Z</time>
      </trkpt>
      <trkpt lat="42.27633" lon="1.81848">
        <ele>1053</ele>
        <time>2010-01-01T04:55:07Z</time>
      </trkpt>
      <trkpt lat="42.27641" lon="1.8184">
        <ele>1055</ele>
        <time>2010-01-01T04:55:11Z</time>
      </trkpt>
      <trkpt lat="42.27641" lon="1.81825">
        <ele>1055</ele>
        <time>2010-01-01T04:55:15Z</time>
      </trkpt>
      <trkpt lat="42.27649" lon="1.81828">
        <ele>1058</ele>
        <time>2010-01-01T04:55:19Z</time>
      </trkpt>
      <trkpt lat="42.27654" lon="1.81841">
        <ele>1061</ele>
        <time>2010-01-01T04:55:23Z</time>
      </trkpt>
      <trkpt lat="42.27661" lon="1.81848">
        <ele>1066</ele>
        <time>2010-01-01T04:55:26Z</time>
      </trkpt>
      <trkpt lat="42.27674" lon="1.81874">
        <ele>1078</ele>
        <time>2010-01-01T04:55:36Z</time>
      </trkpt>
      <trkpt lat="42.27693" lon="1.81905">
        <ele>1089</ele>
        <time>2010-01-01T04:55:47Z</time>
      </trkpt>
      <trkpt lat="42.27701" lon="1.81914">
        <ele>1093</ele>
        <time>2010-01-01T04:55:52Z</time>
      </trkpt>
      <trkpt lat="42.27703" lon="1.81902">
        <ele>1088</ele>
        <time>2010-01-01T04:55:55Z</time>
      </trkpt>
      <trkpt lat="42.27692" lon="1.81904">
        <ele>1089</ele>
        <time>2010-01-01T04:56:00Z</time>
      </trkpt>
      <trkpt lat="42.27685" lon="1.81878">
        <ele>1081</ele>
        <time>2010-01-01T04:56:08Z</time>
      </trkpt>
      <trkpt lat="42.27682" lon="1.81863">
        <ele>1076</ele>
        <time>2010-01-01T04:56:13Z</time>
      </trkpt>
      <trkpt lat="42.27684" lon="1.81845">
        <ele>1075</ele>
        <time>2010-01-01T04:56:18Z</time>
      </trkpt>
      <trkpt lat="42.27683" lon="1.81832">
        <ele>1074</ele>
        <time>2010-01-01T04:56:22Z</time>
      </trkpt>
      <trkpt lat="42.277" lon="1.81836">
        <ele>1087</ele>
        <time>2010-01-01T04:56:29Z</time>
      </trkpt>
      <trkpt lat="42.27708" lon="1.81843">
        <ele>1094</ele>
        <time>2010-01-01T04:56:33Z</time>
      </trkpt>
      <trkpt lat="42.27712" lon="1.81854">
        <ele>1093</ele>
        <time>2010-01-01T04:56:37Z</time>
      </trkpt>
      <trkpt lat="42.27704" lon="1.81847">
        <ele>1088</ele>
        <time>2010-01-01T04:56:40Z</time>
      </trkpt>
      <trkpt lat="42.27711" lon="1.81838">
        <ele>1098</ele>
        <time>2010-01-01T04:56:44Z</time>
      </trkpt>
      <trkpt lat="42.27719" lon="1.81842">
        <ele>1106</ele>
        <time>2010-01-01T04:56:48Z</time>
      </trkpt>
      <trkpt lat="42.27752" lon="1.81864">
        <ele>1121</ele>
        <time>2010-01-01T04:57:02Z</time>
      </trkpt>
      <trkpt lat="42.27743" lon="1.81859">
        <ele>1118</ele>
        <time>2010-01-01T04:57:06Z</time>
      </trkpt>
      <trkpt lat="42.27733" lon="1.81863">
        <ele>1106</ele>
        <time>2010-01-01T04:57:10Z</time>
      </trkpt>
      <trkpt lat="42.27723" lon="1.81861">
        <ele>1098</ele>
        <time>2010-01-01T04:57:14Z</time>
      </trkpt>
      <trkpt lat="42.27722" lon="1.81874">
        <ele>1087</ele>
        <time>2010-01-01T04:57:18Z</time>
      </trkpt>
      <trkpt lat="42.27723" lon="1.81888">
        <ele>1076</ele>
        <time>2010-01-01T04:57:22Z</time>
      </trkpt>
      <trkpt lat="42.27735" lon="1.81902">
        <ele>1092</ele>
        <time>2010-01-01T04:57:29Z</time>
      </trkpt>
      <trkpt lat="42.2774" lon="1.81913">
        <ele>1098</ele>
        <time>2010-01-01T04:57:33Z</time>
      </trkpt>
      <trkpt lat="42.27748" lon="1.8192">
        <ele>1102</ele>
        <time>2010-01-01T04:57:36Z</time>
      </trkpt>
      <trkpt lat="42.27743" lon="1.81932">
        <ele>1106</ele>
        <time>2010-01-01T04:57:40Z</time>
      </trkpt>
      <trkpt lat="42.27738" lon="1.81922">
        <ele>1101</ele>
        <time>2010-01-01T04:57:44Z</time>
      </trkpt>
      <trkpt lat="42.2775" lon="1.81901">
        <ele>1100</ele>
        <time>2010-01-01T04:57:52Z</time>
      </trkpt>
      <trkpt lat="42.27741" lon="1.81898">
        <ele>1094</ele>
        <time>2010-01-01T04:57:55Z</time>
      </trkpt>
      <trkpt lat="42.27751" lon="1.81893">
        <ele>1101</ele>
        <time>2010-01-01T04:58:00Z</time>
      </trkpt>
      <trkpt lat="42.2776" lon="1.81898">
        <ele>1102</ele>
        <time>2010-01-01T04:58:03Z</time>
      </trkpt>
      <trkpt lat="42.2776" lon="1.8191">
        <ele>1100</ele>
        <time>2010-01-01T04:58:07Z</time>
      </trkpt>
      <trkpt lat="42.27765" lon="1.81921">
        <ele>1099</ele>
        <time>2010-01-01T04:58:11Z</time>
      </trkpt>
      <trkpt lat="42.27769" lon="1.81908">
        <ele>1101</ele>
        <time>2010-01-01T04:58:15Z</time>
      </trkpt>
      <trkpt lat="42.27769" lon="1.81896">
        <ele>1105</ele>
        <time>2010-01-01T04:58:19Z</time>
      </trkpt>
      <trkpt lat="42.27779" lon="1.81891">
        <ele>1109</ele>
        <time>2010-01-01T04:58:23Z</time>
      </trkpt>
      <trkpt lat="42.27788" lon="1.81893">
        <ele>1105</ele>
        <time>2010-01-01T04:58:27Z</time>
      </trkpt>
      <trkpt lat="42.27781" lon="1.81901">
        <ele>1103</ele>
        <time>2010-01-01T04:58:30Z</time>
      </trkpt>
      <trkpt lat="42.27791" lon="1.81902">
        <ele>1099</ele>
        <time>2010-01-01T04:58:35Z</time>
      </trkpt>
      <trkpt lat="42.2781" lon="1.81912">
        <ele>1089</ele>
        <time>2010-01-01T04:58:43Z</time>
      </trkpt>
      <trkpt lat="42.27813" lon="1.81927">
        <ele>1086</ele>
        <time>2010-01-01T04:58:47Z</time>
      </trkpt>
      <trkpt lat="42.27822" lon="1.81929">
        <ele>1089</ele>
        <time>2010-01-01T04:58:51Z</time>
      </trkpt>
      <trkpt lat="42.27832" lon="1.81925">
        <ele>1091</ele>
        <time>2010-01-01T04:58:55Z</time>
      </trkpt>
      <trkpt lat="42.27839" lon="1.81933">
        <ele>1095</ele>
        <time>2010-01-01T04:58:58Z</time>
      </trkpt>
      <trkpt lat="42.27845" lon="1.81943">
        <ele>1098</ele>
        <time>2010-01-01T04:59:02Z</time>
      </trkpt>
      <trkpt lat="42.2786" lon="1.81961">
        <ele>1102</ele>
        <time>2010-01-01T04:59:10Z</time>
      </trkpt>
      <trkpt lat="42.2787" lon="1.81965">
        <ele>1108</ele>
        <time>2010-01-01T04:59:15Z</time>
      </trkpt>
      <trkpt lat="42.27879" lon="1.81961">
        <ele>1116</ele>
        <time>2010-01-01T04:59:19Z</time>
      </trkpt>
      <trkpt lat="42.27889" lon="1.81961">
        <ele>1123</ele>
        <time>2010-01-01T04:59:22Z</time>
      </trkpt>
      <trkpt lat="42.27897" lon="1.81968">
        <ele>1126</ele>
        <time>2010-01-01T04:59:26Z</time>
      </trkpt>
      <trkpt lat="42.27906" lon="1.81972">
        <ele>1131</ele>
        <time>2010-01-01T04:59:30Z</time>
      </trkpt>
      <trkpt lat="42.27927" lon="1.81973">
        <ele>1139</ele>
        <time>2010-01-01T04:59:38Z</time>
      </trkpt>
      <trkpt lat="42.27938" lon="1.81976">
        <ele>1140</ele>
        <time>2010-01-01T04:59:43Z</time>
      </trkpt>
      <trkpt lat="42.27949" lon="1.81976">
        <ele>1141</ele>
        <time>2010-01-01T04:59:47Z</time>
      </trkpt>
      <trkpt lat="42.27956" lon="1.8197">
        <ele>1143</ele>
        <time>2010-01-01T04:59:51Z</time>
      </trkpt>
      <trkpt lat="42.27961" lon="1.81959">
        <ele>1148</ele>
        <time>2010-01-01T04:59:55Z</time>
      </trkpt>
      <trkpt lat="42.27971" lon="1.81955">
        <ele>1151</ele>
        <time>2010-01-01T04:59:59Z</time>
      </trkpt>
      <trkpt lat="42.2798" lon="1.81948">
        <ele>1153</ele>
        <time>2010-01-01T05:00:03Z</time>
      </trkpt>
      <trkpt lat="42.27989" lon="1.81949">
        <ele>1152</ele>
        <time>2010-01-01T05:00:06Z</time>
      </trkpt>
      <trkpt lat="42.27991" lon="1.81937">
        <ele>1157</ele>
        <time>2010-01-01T05:00:10Z</time>
      </trkpt>
      <trkpt lat="42.28009" lon="1.81934">
        <ele>1155</ele>
        <time>2010-01-01T05:00:17Z</time>
      </trkpt>
      <trkpt lat="42.28042" lon="1.81948">
        <ele>1146</ele>
        <time>2010-01-01T05:00:31Z</time>
      </trkpt>
      <trkpt lat="42.2806" lon="1.81948">
        <ele>1145</ele>
        <time>2010-01-01T05:00:38Z</time>
      </trkpt>
      <trkpt lat="42.28067" lon="1.81924">
        <ele>1147</ele>
        <time>2010-01-01T05:00:46Z</time>
      </trkpt>
      <trkpt lat="42.28073" lon="1.81912">
        <ele>1148</ele>
        <time>2010-01-01T05:00:50Z</time>
      </trkpt>
      <trkpt lat="42.28084" lon="1.81904">
        <ele>1146</ele>
        <time>2010-01-01T05:00:55Z</time>
      </trkpt>
      <trkpt lat="42.28097" lon="1.81878">
        <ele>1148</ele>
        <time>2010-01-01T05:01:05Z</time>
      </trkpt>
      <trkpt lat="42.28099" lon="1.81866">
        <ele>1150</ele>
        <time>2010-01-01T05:01:08Z</time>
      </trkpt>
      <trkpt lat="42.28104" lon="1.81855">
        <ele>1150</ele>
        <time>2010-01-01T05:01:12Z</time>
      </trkpt>
      <trkpt lat="42.28111" lon="1.81846">
        <ele>1149</ele>
        <time>2010-01-01T05:01:16Z</time>
      </trkpt>
      <trkpt lat="42.28115" lon="1.81835">
        <ele>1151</ele>
        <time>2010-01-01T05:01:20Z</time>
      </trkpt>
      <trkpt lat="42.28118" lon="1.81821">
        <ele>1154</ele>
        <time>2010-01-01T05:01:24Z</time>
      </trkpt>
      <trkpt lat="42.28123" lon="1.81809">
        <ele>1155</ele>
        <time>2010-01-01T05:01:28Z</time>
      </trkpt>
      <trkpt lat="42.28132" lon="1.81773">
        <ele>1160</ele>
        <time>2010-01-01T05:01:39Z</time>
      </trkpt>
      <trkpt lat="42.28136" lon="1.81732">
        <ele>1167</ele>
        <time>2010-01-01T05:01:52Z</time>
      </trkpt>
      <trkpt lat="42.28142" lon="1.81723">
        <ele>1168</ele>
        <time>2010-01-01T05:01:55Z</time>
      </trkpt>
      <trkpt lat="42.28152" lon="1.81701">
        <ele>1172</ele>
        <time>2010-01-01T05:02:03Z</time>
      </trkpt>
      <trkpt lat="42.28152" lon="1.81688">
        <ele>1175</ele>
        <time>2010-01-01T05:02:07Z</time>
      </trkpt>
      <trkpt lat="42.2816" lon="1.81679">
        <ele>1179</ele>
        <time>2010-01-01T05:02:11Z</time>
      </trkpt>
      <trkpt lat="42.28169" lon="1.81673">
        <ele>1181</ele>
        <time>2010-01-01T05:02:15Z</time>
      </trkpt>
      <trkpt lat="42.28186" lon="1.81667">
        <ele>1187</ele>
        <time>2010-01-01T05:02:22Z</time>
      </trkpt>
      <trkpt lat="42.282" lon="1.81686">
        <ele>1188</ele>
        <time>2010-01-01T05:02:30Z</time>
      </trkpt>
      <trkpt lat="42.282" lon="1.81701">
        <ele>1188</ele>
        <time>2010-01-01T05:02:34Z</time>
      </trkpt>
      <trkpt lat="42.28199" lon="1.81689">
        <ele>1188</ele>
        <time>2010-01-01T05:02:38Z</time>
      </trkpt>
      <trkpt lat="42.2822" lon="1.81698">
        <ele>1201</ele>
        <time>2010-01-01T05:02:47Z</time>
      </trkpt>
      <trkpt lat="42.28229" lon="1.817">
        <ele>1203</ele>
        <time>2010-01-01T05:02:51Z</time>
      </trkpt>
      <trkpt lat="42.28247" lon="1.81689">
        <ele>1205</ele>
        <time>2010-01-01T05:02:58Z</time>
      </trkpt>
      <trkpt lat="42.28265" lon="1.817">
        <ele>1203</ele>
        <time>2010-01-01T05:03:06Z</time>
      </trkpt>
      <trkpt lat="42.28274" lon="1.81699">
        <ele>1201</ele>
        <time>2010-01-01T05:03:10Z</time>
      </trkpt>
      <trkpt lat="42.28284" lon="1.81703">
        <ele>1204</ele>
        <time>2010-01-01T05:03:14Z</time>
      </trkpt>
      <trkpt lat="42.28294" lon="1.81703">
        <ele>1207</ele>
        <time>2010-01-01T05:03:18Z</time>
      </trkpt>
      <trkpt lat="42.28304" lon="1.81698">
        <ele>1210</ele>
        <time>2010-01-01T05:03:22Z</time>
      </trkpt>
      <trkpt lat="42.28312" lon="1.81691">
        <ele>1212</ele>
        <time>2010-01-01T05:03:26Z</time>
      </trkpt>
      <trkpt lat="42.28316" lon="1.8168">
        <ele>1214</ele>
        <time>2010-01-01T05:03:30Z</time>
      </trkpt>
      <trkpt lat="42.28324" lon="1.81674">
        <ele>1215</ele>
        <time>2010-01-01T05:03:33Z</time>
      </trkpt>
      <trkpt lat="42.28332" lon="1.81664">
        <ele>1217</ele>
        <time>2010-01-01T05:03:38Z</time>
      </trkpt>
      <trkpt lat="42.2834" lon="1.81662">
        <ele>1219</ele>
        <time>2010-01-01T05:03:41Z</time>
      </trkpt>
      <trkpt lat="42.28348" lon="1.81653">
        <ele>1222</ele>
        <time>2010-01-01T05:03:45Z</time>
      </trkpt>
      <trkpt lat="42.28352" lon="1.81639">
        <ele>1227</ele>
        <time>2010-01-01T05:03:49Z</time>
      </trkpt>
      <trkpt lat="42.28366" lon="1.81638">
        <ele>1228</ele>
        <time>2010-01-01T05:03:55Z</time>
      </trkpt>
      <trkpt lat="42.28374" lon="1.81642">
        <ele>1228</ele>
        <time>2010-01-01T05:03:58Z</time>
      </trkpt>
      <trkpt lat="42.28381" lon="1.81648">
        <ele>1227</ele>
        <time>2010-01-01T05:04:01Z</time>
      </trkpt>
      <trkpt lat="42.2839" lon="1.81647">
        <ele>1229</ele>
        <time>2010-01-01T05:04:05Z</time>
      </trkpt>
      <trkpt lat="42.28399" lon="1.81652">
        <ele>1229</ele>
        <time>2010-01-01T05:04:09Z</time>
      </trkpt>
      <trkpt lat="42.28409" lon="1.81652">
        <ele>1231</ele>
        <time>2010-01-01T05:04:13Z</time>
      </trkpt>
      <trkpt lat="42.28418" lon="1.81656">
        <ele>1231</ele>
        <time>2010-01-01T05:04:17Z</time>
      </trkpt>
      <trkpt lat="42.28428" lon="1.81657">
        <ele>1232</ele>
        <time>2010-01-01T05:04:21Z</time>
      </trkpt>
      <trkpt lat="42.28439" lon="1.81652">
        <ele>1235</ele>
        <time>2010-01-01T05:04:25Z</time>
      </trkpt>
      <trkpt lat="42.2845" lon="1.8165">
        <ele>1236</ele>
        <time>2010-01-01T05:04:30Z</time>
      </trkpt>
      <trkpt lat="42.28467" lon="1.81641">
        <ele>1238</ele>
        <time>2010-01-01T05:04:37Z</time>
      </trkpt>
      <trkpt lat="42.28476" lon="1.81638">
        <ele>1238</ele>
        <time>2010-01-01T05:04:41Z</time>
      </trkpt>
      <trkpt lat="42.28485" lon="1.81631">
        <ele>1241</ele>
        <time>2010-01-01T05:04:45Z</time>
      </trkpt>
      <trkpt lat="42.28495" lon="1.81626">
        <ele>1244</ele>
        <time>2010-01-01T05:04:50Z</time>
      </trkpt>
      <trkpt lat="42.28538" lon="1.8159">
        <ele>1254</ele>
        <time>2010-01-01T05:05:10Z</time>
      </trkpt>
      <trkpt lat="42.28545" lon="1.81582">
        <ele>1255</ele>
        <time>2010-01-01T05:05:13Z</time>
      </trkpt>
      <trkpt lat="42.28564" lon="1.8157">
        <ele>1254</ele>
        <time>2010-01-01T05:05:22Z</time>
      </trkpt>
      <trkpt lat="42.28573" lon="1.81566">
        <ele>1254</ele>
        <time>2010-01-01T05:05:26Z</time>
      </trkpt>
      <trkpt lat="42.28588" lon="1.81551">
        <ele>1257</ele>
        <time>2010-01-01T05:05:33Z</time>
      </trkpt>
      <trkpt lat="42.28597" lon="1.81545">
        <ele>1260</ele>
        <time>2010-01-01T05:05:37Z</time>
      </trkpt>
      <trkpt lat="42.28605" lon="1.81537">
        <ele>1261</ele>
        <time>2010-01-01T05:05:41Z</time>
      </trkpt>
      <trkpt lat="42.28611" lon="1.81528">
        <ele>1263</ele>
        <time>2010-01-01T05:05:45Z</time>
      </trkpt>
      <trkpt lat="42.28623" lon="1.81491">
        <ele>1272</ele>
        <time>2010-01-01T05:05:57Z</time>
      </trkpt>
      <trkpt lat="42.28626" lon="1.8148">
        <ele>1273</ele>
        <time>2010-01-01T05:06:00Z</time>
      </trkpt>
      <trkpt lat="42.28625" lon="1.81466">
        <ele>1276</ele>
        <time>2010-01-01T05:06:04Z</time>
      </trkpt>
      <trkpt lat="42.28634" lon="1.81461">
        <ele>1275</ele>
        <time>2010-01-01T05:06:08Z</time>
      </trkpt>
      <trkpt lat="42.28644" lon="1.81457">
        <ele>1274</ele>
        <time>2010-01-01T05:06:12Z</time>
      </trkpt>
      <trkpt lat="42.28654" lon="1.81457">
        <ele>1274</ele>
        <time>2010-01-01T05:06:16Z</time>
      </trkpt>
      <trkpt lat="42.28663" lon="1.81451">
        <ele>1274</ele>
        <time>2010-01-01T05:06:20Z</time>
      </trkpt>
      <trkpt lat="42.28682" lon="1.81446">
        <ele>1277</ele>
        <time>2010-01-01T05:06:28Z</time>
      </trkpt>
      <trkpt lat="42.28689" lon="1.81438">
        <ele>1279</ele>
        <time>2010-01-01T05:06:32Z</time>
      </trkpt>
      <trkpt lat="42.28694" lon="1.81428">
        <ele>1280</ele>
        <time>2010-01-01T05:06:35Z</time>
      </trkpt>
      <trkpt lat="42.28702" lon="1.81419">
        <ele>1281</ele>
        <time>2010-01-01T05:06:39Z</time>
      </trkpt>
      <trkpt lat="42.2872" lon="1.81411">
        <ele>1284</ele>
        <time>2010-01-01T05:06:47Z</time>
      </trkpt>
      <trkpt lat="42.28728" lon="1.81404">
        <ele>1286</ele>
        <time>2010-01-01T05:06:51Z</time>
      </trkpt>
      <trkpt lat="42.28732" lon="1.81391">
        <ele>1287</ele>
        <time>2010-01-01T05:06:55Z</time>
      </trkpt>
      <trkpt lat="42.28732" lon="1.81378">
        <ele>1288</ele>
        <time>2010-01-01T05:06:59Z</time>
      </trkpt>
      <trkpt lat="42.28737" lon="1.81366">
        <ele>1290</ele>
        <time>2010-01-01T05:07:03Z</time>
      </trkpt>
      <trkpt lat="42.28745" lon="1.81358">
        <ele>1291</ele>
        <time>2010-01-01T05:07:07Z</time>
      </trkpt>
      <trkpt lat="42.28746" lon="1.81345">
        <ele>1293</ele>
        <time>2010-01-01T05:07:11Z</time>
      </trkpt>
      <trkpt lat="42.28763" lon="1.81325">
        <ele>1299</ele>
        <time>2010-01-01T05:07:20Z</time>
      </trkpt>
      <trkpt lat="42.28769" lon="1.81313">
        <ele>1302</ele>
        <time>2010-01-01T05:07:24Z</time>
      </trkpt>
      <trkpt lat="42.28791" lon="1.81288">
        <ele>1306</ele>
        <time>2010-01-01T05:07:35Z</time>
      </trkpt>
      <trkpt lat="42.28801" lon="1.81285">
        <ele>1306</ele>
        <time>2010-01-01T05:07:39Z</time>
      </trkpt>
      <trkpt lat="42.28809" lon="1.81279">
        <ele>1306</ele>
        <time>2010-01-01T05:07:43Z</time>
      </trkpt>
      <trkpt lat="42.28819" lon="1.81254">
        <ele>1311</ele>
        <time>2010-01-01T05:07:52Z</time>
      </trkpt>
      <trkpt lat="42.28825" lon="1.81245">
        <ele>1313</ele>
        <time>2010-01-01T05:07:55Z</time>
      </trkpt>
      <trkpt lat="42.28822" lon="1.81212">
        <ele>1316</ele>
        <time>2010-01-01T05:08:05Z</time>
      </trkpt>
      <trkpt lat="42.28831" lon="1.81204">
        <ele>1318</ele>
        <time>2010-01-01T05:08:10Z</time>
      </trkpt>
      <trkpt lat="42.28841" lon="1.81208">
        <ele>1321</ele>
        <time>2010-01-01T05:08:14Z</time>
      </trkpt>
      <trkpt lat="42.28837" lon="1.81196">
        <ele>1321</ele>
        <time>2010-01-01T05:08:18Z</time>
      </trkpt>
      <trkpt lat="42.28853" lon="1.81166">
        <ele>1333</ele>
        <time>2010-01-01T05:08:29Z</time>
      </trkpt>
      <trkpt lat="42.2886" lon="1.81157">
        <ele>1335</ele>
        <time>2010-01-01T05:08:32Z</time>
      </trkpt>
      <trkpt lat="42.28861" lon="1.81144">
        <ele>1338</ele>
        <time>2010-01-01T05:08:36Z</time>
      </trkpt>
      <trkpt lat="42.28859" lon="1.81131">
        <ele>1341</ele>
        <time>2010-01-01T05:08:40Z</time>
      </trkpt>
      <trkpt lat="42.28849" lon="1.81131">
        <ele>1342</ele>
        <time>2010-01-01T05:08:44Z</time>
      </trkpt>
      <trkpt lat="42.2884" lon="1.81132">
        <ele>1343</ele>
        <time>2010-01-01T05:08:48Z</time>
      </trkpt>
      <trkpt lat="42.28835" lon="1.81122">
        <ele>1347</ele>
        <time>2010-01-01T05:08:51Z</time>
      </trkpt>
      <trkpt lat="42.28837" lon="1.81109">
        <ele>1351</ele>
        <time>2010-01-01T05:08:55Z</time>
      </trkpt>
      <trkpt lat="42.28844" lon="1.81101">
        <ele>1352</ele>
        <time>2010-01-01T05:08:59Z</time>
      </trkpt>
      <trkpt lat="42.28847" lon="1.81076">
        <ele>1360</ele>
        <time>2010-01-01T05:09:06Z</time>
      </trkpt>
      <trkpt lat="42.28855" lon="1.81069">
        <ele>1361</ele>
        <time>2010-01-01T05:09:10Z</time>
      </trkpt>
      <trkpt lat="42.28864" lon="1.81066">
        <ele>1360</ele>
        <time>2010-01-01T05:09:14Z</time>
      </trkpt>
      <trkpt lat="42.28869" lon="1.81055">
        <ele>1365</ele>
        <time>2010-01-01T05:09:17Z</time>
      </trkpt>
      <trkpt lat="42.28863" lon="1.81044">
        <ele>1370</ele>
        <time>2010-01-01T05:09:22Z</time>
      </trkpt>
      <trkpt lat="42.2887" lon="1.81034">
        <ele>1372</ele>
        <time>2010-01-01T05:09:25Z</time>
      </trkpt>
      <trkpt lat="42.28874" lon="1.81022">
        <ele>1376</ele>
        <time>2010-01-01T05:09:29Z</time>
      </trkpt>
      <trkpt lat="42.2888" lon="1.81013">
        <ele>1378</ele>
        <time>2010-01-01T05:09:33Z</time>
      </trkpt>
      <trkpt lat="42.28889" lon="1.8101">
        <ele>1378</ele>
        <time>2010-01-01T05:09:37Z</time>
      </trkpt>
      <trkpt lat="42.28888" lon="1.80996">
        <ele>1383</ele>
        <time>2010-01-01T05:09:41Z</time>
      </trkpt>
      <trkpt lat="42.28894" lon="1.80987">
        <ele>1387</ele>
        <time>2010-01-01T05:09:45Z</time>
      </trkpt>
      <trkpt lat="42.28899" lon="1.80976">
        <ele>1391</ele>
        <time>2010-01-01T05:09:48Z</time>
      </trkpt>
      <trkpt lat="42.28908" lon="1.8097">
        <ele>1394</ele>
        <time>2010-01-01T05:09:52Z</time>
      </trkpt>
      <trkpt lat="42.28917" lon="1.80966">
        <ele>1395</ele>
        <time>2010-01-01T05:09:56Z</time>
      </trkpt>
      <trkpt lat="42.28927" lon="1.80967">
        <ele>1395</ele>
        <time>2010-01-01T05:10:00Z</time>
      </trkpt>
      <trkpt lat="42.28935" lon="1.80962">
        <ele>1398</ele>
        <time>2010-01-01T05:10:04Z</time>
      </trkpt>
      <trkpt lat="42.28939" lon="1.8095">
        <ele>1402</ele>
        <time>2010-01-01T05:10:08Z</time>
      </trkpt>
      <trkpt lat="42.28951" lon="1.80927">
        <ele>1406</ele>
        <time>2010-01-01T05:10:16Z</time>
      </trkpt>
      <trkpt lat="42.28956" lon="1.80903">
        <ele>1410</ele>
        <time>2010-01-01T05:10:24Z</time>
      </trkpt>
      <trkpt lat="42.28962" lon="1.80892">
        <ele>1411</ele>
        <time>2010-01-01T05:10:27Z</time>
      </trkpt>
      <trkpt lat="42.2897" lon="1.80865">
        <ele>1416</ele>
        <time>2010-01-01T05:10:36Z</time>
      </trkpt>
      <trkpt lat="42.28978" lon="1.80861">
        <ele>1416</ele>
        <time>2010-01-01T05:10:40Z</time>
      </trkpt>
      <trkpt lat="42.28994" lon="1.80813">
        <ele>1427</ele>
        <time>2010-01-01T05:10:55Z</time>
      </trkpt>
      <trkpt lat="42.28995" lon="1.808">
        <ele>1432</ele>
        <time>2010-01-01T05:10:59Z</time>
      </trkpt>
      <trkpt lat="42.28999" lon="1.80788">
        <ele>1436</ele>
        <time>2010-01-01T05:11:03Z</time>
      </trkpt>
      <trkpt lat="42.29007" lon="1.80781">
        <ele>1438</ele>
        <time>2010-01-01T05:11:07Z</time>
      </trkpt>
      <trkpt lat="42.2902" lon="1.8076">
        <ele>1445</ele>
        <time>2010-01-01T05:11:15Z</time>
      </trkpt>
      <trkpt lat="42.29028" lon="1.80754">
        <ele>1447</ele>
        <time>2010-01-01T05:11:19Z</time>
      </trkpt>
      <trkpt lat="42.29035" lon="1.80745">
        <ele>1449</ele>
        <time>2010-01-01T05:11:22Z</time>
      </trkpt>
      <trkpt lat="42.29041" lon="1.80735">
        <ele>1452</ele>
        <time>2010-01-01T05:11:26Z</time>
      </trkpt>
      <trkpt lat="42.29049" lon="1.80711">
        <ele>1457</ele>
        <time>2010-01-01T05:11:34Z</time>
      </trkpt>
      <trkpt lat="42.29055" lon="1.80701">
        <ele>1459</ele>
        <time>2010-01-01T05:11:38Z</time>
      </trkpt>
      <trkpt lat="42.2907" lon="1.80685">
        <ele>1461</ele>
        <time>2010-01-01T05:11:45Z</time>
      </trkpt>
      <trkpt lat="42.29079" lon="1.80661">
        <ele>1466</ele>
        <time>2010-01-01T05:11:53Z</time>
      </trkpt>
      <trkpt lat="42.29092" lon="1.80643">
        <ele>1469</ele>
        <time>2010-01-01T05:12:01Z</time>
      </trkpt>
      <trkpt lat="42.291" lon="1.80637">
        <ele>1470</ele>
        <time>2010-01-01T05:12:04Z</time>
      </trkpt>
      <trkpt lat="42.29106" lon="1.80628">
        <ele>1473</ele>
        <time>2010-01-01T05:12:08Z</time>
      </trkpt>
      <trkpt lat="42.29124" lon="1.80616">
        <ele>1478</ele>
        <time>2010-01-01T05:12:16Z</time>
      </trkpt>
      <trkpt lat="42.29143" lon="1.80606">
        <ele>1484</ele>
        <time>2010-01-01T05:12:24Z</time>
      </trkpt>
      <trkpt lat="42.29152" lon="1.80604">
        <ele>1488</ele>
        <time>2010-01-01T05:12:28Z</time>
      </trkpt>
      <trkpt lat="42.2916" lon="1.80596">
        <ele>1492</ele>
        <time>2010-01-01T05:12:32Z</time>
      </trkpt>
      <trkpt lat="42.29169" lon="1.80594">
        <ele>1494</ele>
        <time>2010-01-01T05:12:35Z</time>
      </trkpt>
      <trkpt lat="42.29178" lon="1.80588">
        <ele>1498</ele>
        <time>2010-01-01T05:12:39Z</time>
      </trkpt>
      <trkpt lat="42.29196" lon="1.80572">
        <ele>1506</ele>
        <time>2010-01-01T05:12:48Z</time>
      </trkpt>
      <trkpt lat="42.29205" lon="1.80569">
        <ele>1509</ele>
        <time>2010-01-01T05:12:52Z</time>
      </trkpt>
      <trkpt lat="42.29215" lon="1.80567">
        <ele>1512</ele>
        <time>2010-01-01T05:12:56Z</time>
      </trkpt>
      <trkpt lat="42.29224" lon="1.80562">
        <ele>1515</ele>
        <time>2010-01-01T05:13:00Z</time>
      </trkpt>
      <trkpt lat="42.29239" lon="1.80547">
        <ele>1521</ele>
        <time>2010-01-01T05:13:07Z</time>
      </trkpt>
      <trkpt lat="42.29248" lon="1.80536">
        <ele>1523</ele>
        <time>2010-01-01T05:13:12Z</time>
      </trkpt>
      <trkpt lat="42.29264" lon="1.80519">
        <ele>1529</ele>
        <time>2010-01-01T05:13:20Z</time>
      </trkpt>
      <trkpt lat="42.29278" lon="1.80515">
        <ele>1533</ele>
        <time>2010-01-01T05:13:26Z</time>
      </trkpt>
      <trkpt lat="42.29293" lon="1.80498">
        <ele>1539</ele>
        <time>2010-01-01T05:13:33Z</time>
      </trkpt>
      <trkpt lat="42.293" lon="1.80498">
        <ele>1541</ele>
        <time>2010-01-01T05:13:37Z</time>
      </trkpt>
      <trkpt lat="42.29304" lon="1.80494">
        <ele>1543</ele>
        <time>2010-01-01T05:13:38Z</time>
      </trkpt>
      <trkpt lat="42.29309" lon="1.80493">
        <ele>1545</ele>
        <time>2010-01-01T05:13:40Z</time>
      </trkpt>
      <trkpt lat="42.29316" lon="1.80488">
        <ele>1547</ele>
        <time>2010-01-01T05:13:44Z</time>
      </trkpt>
      <trkpt lat="42.29318" lon="1.80499">
        <ele>1546</ele>
        <time>2010-01-01T05:13:47Z</time>
      </trkpt>
      <trkpt lat="42.29327" lon="1.8049">
        <ele>1549</ele>
        <time>2010-01-01T05:13:52Z</time>
      </trkpt>
      <trkpt lat="42.29327" lon="1.80481">
        <ele>1550</ele>
        <time>2010-01-01T05:13:54Z</time>
      </trkpt>
      <trkpt lat="42.29321" lon="1.80467">
        <ele>1551</ele>
        <time>2010-01-01T05:13:59Z</time>
      </trkpt>
      <trkpt lat="42.29356" lon="1.80483">
        <ele>1555</ele>
        <time>2010-01-01T05:14:14Z</time>
      </trkpt>
      <trkpt lat="42.29362" lon="1.80481">
        <ele>1557</ele>
        <time>2010-01-01T05:14:16Z</time>
      </trkpt>
      <trkpt lat="42.29369" lon="1.80501">
        <ele>1556</ele>
        <time>2010-01-01T05:14:23Z</time>
      </trkpt>
      <trkpt lat="42.29368" lon="1.80516">
        <ele>1556</ele>
        <time>2010-01-01T05:14:28Z</time>
      </trkpt>
      <trkpt lat="42.29373" lon="1.80526">
        <ele>1557</ele>
        <time>2010-01-01T05:14:31Z</time>
      </trkpt>
      <trkpt lat="42.29395" lon="1.80531">
        <ele>1562</ele>
        <time>2010-01-01T05:14:40Z</time>
      </trkpt>
      <trkpt lat="42.29396" lon="1.80523">
        <ele>1562</ele>
        <time>2010-01-01T05:14:43Z</time>
      </trkpt>
      <trkpt lat="42.29406" lon="1.80496">
        <ele>1562</ele>
        <time>2010-01-01T05:14:52Z</time>
      </trkpt>
      <trkpt lat="42.29411" lon="1.80504">
        <ele>1563</ele>
        <time>2010-01-01T05:14:55Z</time>
      </trkpt>
      <trkpt lat="42.29418" lon="1.80498">
        <ele>1564</ele>
        <time>2010-01-01T05:14:58Z</time>
      </trkpt>
      <trkpt lat="42.29439" lon="1.80505">
        <ele>1573</ele>
        <time>2010-01-01T05:15:07Z</time>
      </trkpt>
      <trkpt lat="42.29415" lon="1.80501">
        <ele>1563</ele>
        <time>2010-01-01T05:15:17Z</time>
      </trkpt>
      <trkpt lat="42.29412" lon="1.80506">
        <ele>1563</ele>
        <time>2010-01-01T05:15:19Z</time>
      </trkpt>
      <trkpt lat="42.29405" lon="1.80501">
        <ele>1561</ele>
        <time>2010-01-01T05:15:22Z</time>
      </trkpt>
      <trkpt lat="42.29398" lon="1.80482">
        <ele>1561</ele>
        <time>2010-01-01T05:15:28Z</time>
      </trkpt>
      <trkpt lat="42.29396" lon="1.80481">
        <ele>1561</ele>
        <time>2010-01-01T05:15:29Z</time>
      </trkpt>
      <trkpt lat="42.29399" lon="1.80481">
        <ele>1561</ele>
        <time>2010-01-01T05:15:30Z</time>
      </trkpt>
      <trkpt lat="42.29397" lon="1.8048">
        <ele>1561</ele>
        <time>2010-01-01T05:15:31Z</time>
      </trkpt>
      <trkpt lat="42.29395" lon="1.80483">
        <ele>1561</ele>
        <time>2010-01-01T05:15:32Z</time>
      </trkpt>
      <trkpt lat="42.29395" lon="1.80484">
        <ele>1561</ele>
        <time>2010-01-01T05:15:32Z</time>
      </trkpt>
      <trkpt lat="42.29397" lon="1.80485">
        <ele>1561</ele>
        <time>2010-01-01T05:15:34Z</time>
      </trkpt>
      <trkpt lat="42.29405" lon="1.80501">
        <ele>1562</ele>
        <time>2010-01-01T05:15:39Z</time>
      </trkpt>
      <trkpt lat="42.29405" lon="1.80499">
        <ele>1562</ele>
        <time>2010-01-01T05:15:40Z</time>
      </trkpt>
      <trkpt lat="42.29401" lon="1.80497">
        <ele>1561</ele>
        <time>2010-01-01T05:15:42Z</time>
      </trkpt>
      <trkpt lat="42.29404" lon="1.805">
        <ele>1561</ele>
        <time>2010-01-01T05:15:44Z</time>
      </trkpt>
      <trkpt lat="42.29406" lon="1.80499">
        <ele>1562</ele>
        <time>2010-01-01T05:15:44Z</time>
      </trkpt>
      <trkpt lat="42.29399" lon="1.80497">
        <ele>1560</ele>
        <time>2010-01-01T05:15:47Z</time>
      </trkpt>
      <trkpt lat="42.29393" lon="1.80499">
        <ele>1559</ele>
        <time>2010-01-01T05:15:49Z</time>
      </trkpt>
      <trkpt lat="42.29401" lon="1.805">
        <ele>1561</ele>
        <time>2010-01-01T05:15:53Z</time>
      </trkpt>
      <trkpt lat="42.294" lon="1.80497">
        <ele>1561</ele>
        <time>2010-01-01T05:15:54Z</time>
      </trkpt>
      <trkpt lat="42.29403" lon="1.80499">
        <ele>1561</ele>
        <time>2010-01-01T05:15:55Z</time>
      </trkpt>
      <trkpt lat="42.29401" lon="1.805">
        <ele>1561</ele>
        <time>2010-01-01T05:15:55Z</time>
      </trkpt>
      <trkpt lat="42.29401" lon="1.80499">
        <ele>1561</ele>
        <time>2010-01-01T05:15:56Z</time>
      </trkpt>
      <trkpt lat="42.29397" lon="1.80499">
        <ele>1560</ele>
        <time>2010-01-01T05:15:57Z</time>
      </trkpt>
      <trkpt lat="42.29402" lon="1.80496">
        <ele>1561</ele>
        <time>2010-01-01T05:15:59Z</time>
      </trkpt>
      <trkpt lat="42.29399" lon="1.80498">
        <ele>1560</ele>
        <time>2010-01-01T05:16:01Z</time>
      </trkpt>
      <trkpt lat="42.29403" lon="1.805">
        <ele>1561</ele>
        <time>2010-01-01T05:16:02Z</time>
      </trkpt>
      <trkpt lat="42.29398" lon="1.80484">
        <ele>1561</ele>
        <time>2010-01-01T05:16:07Z</time>
      </trkpt>
      <trkpt lat="42.29406" lon="1.80494">
        <ele>1562</ele>
        <time>2010-01-01T05:16:11Z</time>
      </trkpt>
      <trkpt lat="42.29405" lon="1.80498">
        <ele>1561</ele>
        <time>2010-01-01T05:16:13Z</time>
      </trkpt>
      <trkpt lat="42.29407" lon="1.80501">
        <ele>1562</ele>
        <time>2010-01-01T05:16:14Z</time>
      </trkpt>
      <trkpt lat="42.29414" lon="1.80504">
        <ele>1563</ele>
        <time>2010-01-01T05:16:17Z</time>
      </trkpt>
      <trkpt lat="42.29409" lon="1.80509">
        <ele>1563</ele>
        <time>2010-01-01T05:16:19Z</time>
      </trkpt>
      <trkpt lat="42.29411" lon="1.80516">
        <ele>1564</ele>
        <time>2010-01-01T05:16:21Z</time>
      </trkpt>
      <trkpt lat="42.29415" lon="1.80521">
        <ele>1566</ele>
        <time>2010-01-01T05:16:23Z</time>
      </trkpt>
      <trkpt lat="42.29416" lon="1.80546">
        <ele>1570</ele>
        <time>2010-01-01T05:16:31Z</time>
      </trkpt>
      <trkpt lat="42.29436" lon="1.80459">
        <ele>1574</ele>
        <time>2010-01-01T05:16:58Z</time>
      </trkpt>
      <trkpt lat="42.29442" lon="1.80453">
        <ele>1578</ele>
        <time>2010-01-01T05:17:01Z</time>
      </trkpt>
      <trkpt lat="42.29445" lon="1.80441">
        <ele>1583</ele>
        <time>2010-01-01T05:17:05Z</time>
      </trkpt>
      <trkpt lat="42.29449" lon="1.80437">
        <ele>1584</ele>
        <time>2010-01-01T05:17:07Z</time>
      </trkpt>
      <trkpt lat="42.29447" lon="1.80424">
        <ele>1587</ele>
        <time>2010-01-01T05:17:11Z</time>
      </trkpt>
      <trkpt lat="42.29452" lon="1.80422">
        <ele>1588</ele>
        <time>2010-01-01T05:17:12Z</time>
      </trkpt>
      <trkpt lat="42.29456" lon="1.80425">
        <ele>1588</ele>
        <time>2010-01-01T05:17:15Z</time>
      </trkpt>
      <trkpt lat="42.29452" lon="1.80426">
        <ele>1587</ele>
        <time>2010-01-01T05:17:16Z</time>
      </trkpt>
      <trkpt lat="42.29454" lon="1.80419">
        <ele>1589</ele>
        <time>2010-01-01T05:17:19Z</time>
      </trkpt>
      <trkpt lat="42.29466" lon="1.80417">
        <ele>1591</ele>
        <time>2010-01-01T05:17:24Z</time>
      </trkpt>
      <trkpt lat="42.29469" lon="1.80411">
        <ele>1592</ele>
        <time>2010-01-01T05:17:26Z</time>
      </trkpt>
      <trkpt lat="42.29473" lon="1.80407">
        <ele>1592</ele>
        <time>2010-01-01T05:17:28Z</time>
      </trkpt>
      <trkpt lat="42.29479" lon="1.80405">
        <ele>1593</ele>
        <time>2010-01-01T05:17:30Z</time>
      </trkpt>
      <trkpt lat="42.29478" lon="1.80394">
        <ele>1594</ele>
        <time>2010-01-01T05:17:33Z</time>
      </trkpt>
      <trkpt lat="42.29486" lon="1.80382">
        <ele>1596</ele>
        <time>2010-01-01T05:17:38Z</time>
      </trkpt>
      <trkpt lat="42.29492" lon="1.80381">
        <ele>1597</ele>
        <time>2010-01-01T05:17:41Z</time>
      </trkpt>
      <trkpt lat="42.29506" lon="1.80381">
        <ele>1600</ele>
        <time>2010-01-01T05:17:46Z</time>
      </trkpt>
      <trkpt lat="42.29513" lon="1.80377">
        <ele>1604</ele>
        <time>2010-01-01T05:17:49Z</time>
      </trkpt>
      <trkpt lat="42.29519" lon="1.80376">
        <ele>1606</ele>
        <time>2010-01-01T05:17:52Z</time>
      </trkpt>
      <trkpt lat="42.2952" lon="1.80368">
        <ele>1607</ele>
        <time>2010-01-01T05:17:54Z</time>
      </trkpt>
      <trkpt lat="42.29518" lon="1.80362">
        <ele>1607</ele>
        <time>2010-01-01T05:17:56Z</time>
      </trkpt>
      <trkpt lat="42.29516" lon="1.80347">
        <ele>1610</ele>
        <time>2010-01-01T05:18:01Z</time>
      </trkpt>
      <trkpt lat="42.29517" lon="1.80338">
        <ele>1612</ele>
        <time>2010-01-01T05:18:03Z</time>
      </trkpt>
      <trkpt lat="42.29525" lon="1.80337">
        <ele>1613</ele>
        <time>2010-01-01T05:18:06Z</time>
      </trkpt>
      <trkpt lat="42.29527" lon="1.80346">
        <ele>1612</ele>
        <time>2010-01-01T05:18:09Z</time>
      </trkpt>
      <trkpt lat="42.29532" lon="1.80351">
        <ele>1614</ele>
        <time>2010-01-01T05:18:12Z</time>
      </trkpt>
      <trkpt lat="42.29537" lon="1.80336">
        <ele>1618</ele>
        <time>2010-01-01T05:18:17Z</time>
      </trkpt>
      <trkpt lat="42.29543" lon="1.80336">
        <ele>1620</ele>
        <time>2010-01-01T05:18:19Z</time>
      </trkpt>
      <trkpt lat="42.29547" lon="1.80333">
        <ele>1622</ele>
        <time>2010-01-01T05:18:21Z</time>
      </trkpt>
      <trkpt lat="42.29553" lon="1.80337">
        <ele>1624</ele>
        <time>2010-01-01T05:18:23Z</time>
      </trkpt>
      <trkpt lat="42.29557" lon="1.80339">
        <ele>1626</ele>
        <time>2010-01-01T05:18:25Z</time>
      </trkpt>
      <trkpt lat="42.29563" lon="1.80336">
        <ele>1630</ele>
        <time>2010-01-01T05:18:28Z</time>
      </trkpt>
      <trkpt lat="42.29563" lon="1.80322">
        <ele>1631</ele>
        <time>2010-01-01T05:18:32Z</time>
      </trkpt>
      <trkpt lat="42.2957" lon="1.80296">
        <ele>1636</ele>
        <time>2010-01-01T05:18:40Z</time>
      </trkpt>
      <trkpt lat="42.29563" lon="1.80285">
        <ele>1633</ele>
        <time>2010-01-01T05:18:45Z</time>
      </trkpt>
      <trkpt lat="42.29561" lon="1.80279">
        <ele>1632</ele>
        <time>2010-01-01T05:18:47Z</time>
      </trkpt>
      <trkpt lat="42.29565" lon="1.80283">
        <ele>1634</ele>
        <time>2010-01-01T05:18:49Z</time>
      </trkpt>
      <trkpt lat="42.29558" lon="1.80264">
        <ele>1634</ele>
        <time>2010-01-01T05:18:55Z</time>
      </trkpt>
      <trkpt lat="42.2957" lon="1.80264">
        <ele>1639</ele>
        <time>2010-01-01T05:18:59Z</time>
      </trkpt>
      <trkpt lat="42.29578" lon="1.80256">
        <ele>1644</ele>
        <time>2010-01-01T05:19:03Z</time>
      </trkpt>
      <trkpt lat="42.29575" lon="1.80247">
        <ele>1644</ele>
        <time>2010-01-01T05:19:06Z</time>
      </trkpt>
      <trkpt lat="42.2957" lon="1.80238">
        <ele>1644</ele>
        <time>2010-01-01T05:19:09Z</time>
      </trkpt>
      <trkpt lat="42.29571" lon="1.80232">
        <ele>1646</ele>
        <time>2010-01-01T05:19:11Z</time>
      </trkpt>
      <trkpt lat="42.29579" lon="1.80235">
        <ele>1647</ele>
        <time>2010-01-01T05:19:15Z</time>
      </trkpt>
      <trkpt lat="42.29584" lon="1.80233">
        <ele>1648</ele>
        <time>2010-01-01T05:19:17Z</time>
      </trkpt>
      <trkpt lat="42.29584" lon="1.80227">
        <ele>1649</ele>
        <time>2010-01-01T05:19:19Z</time>
      </trkpt>
      <trkpt lat="42.29581" lon="1.80222">
        <ele>1649</ele>
        <time>2010-01-01T05:19:21Z</time>
      </trkpt>
      <trkpt lat="42.29583" lon="1.80217">
        <ele>1651</ele>
        <time>2010-01-01T05:19:23Z</time>
      </trkpt>
      <trkpt lat="42.29585" lon="1.80223">
        <ele>1650</ele>
        <time>2010-01-01T05:19:25Z</time>
      </trkpt>
      <trkpt lat="42.29585" lon="1.80217">
        <ele>1651</ele>
        <time>2010-01-01T05:19:26Z</time>
      </trkpt>
      <trkpt lat="42.29597" lon="1.80215">
        <ele>1657</ele>
        <time>2010-01-01T05:19:31Z</time>
      </trkpt>
      <trkpt lat="42.296" lon="1.8021">
        <ele>1659</ele>
        <time>2010-01-01T05:19:33Z</time>
      </trkpt>
      <trkpt lat="42.29598" lon="1.80201">
        <ele>1660</ele>
        <time>2010-01-01T05:19:36Z</time>
      </trkpt>
      <trkpt lat="42.29598" lon="1.80193">
        <ele>1661</ele>
        <time>2010-01-01T05:19:38Z</time>
      </trkpt>
      <trkpt lat="42.29602" lon="1.8019">
        <ele>1664</ele>
        <time>2010-01-01T05:19:40Z</time>
      </trkpt>
      <trkpt lat="42.29608" lon="1.80191">
        <ele>1665</ele>
        <time>2010-01-01T05:19:42Z</time>
      </trkpt>
      <trkpt lat="42.2961" lon="1.80186">
        <ele>1667</ele>
        <time>2010-01-01T05:19:44Z</time>
      </trkpt>
      <trkpt lat="42.29609" lon="1.80177">
        <ele>1669</ele>
        <time>2010-01-01T05:19:47Z</time>
      </trkpt>
      <trkpt lat="42.29601" lon="1.80166">
        <ele>1670</ele>
        <time>2010-01-01T05:19:52Z</time>
      </trkpt>
      <trkpt lat="42.29613" lon="1.80163">
        <ele>1674</ele>
        <time>2010-01-01T05:19:56Z</time>
      </trkpt>
      <trkpt lat="42.29616" lon="1.80159">
        <ele>1677</ele>
        <time>2010-01-01T05:19:58Z</time>
      </trkpt>
      <trkpt lat="42.29613" lon="1.80151">
        <ele>1678</ele>
        <time>2010-01-01T05:20:01Z</time>
      </trkpt>
      <trkpt lat="42.29617" lon="1.80149">
        <ele>1680</ele>
        <time>2010-01-01T05:20:03Z</time>
      </trkpt>
      <trkpt lat="42.29621" lon="1.80144">
        <ele>1683</ele>
        <time>2010-01-01T05:20:05Z</time>
      </trkpt>
      <trkpt lat="42.29619" lon="1.80139">
        <ele>1684</ele>
        <time>2010-01-01T05:20:07Z</time>
      </trkpt>
      <trkpt lat="42.29622" lon="1.80132">
        <ele>1686</ele>
        <time>2010-01-01T05:20:09Z</time>
      </trkpt>
      <trkpt lat="42.29622" lon="1.80122">
        <ele>1688</ele>
        <time>2010-01-01T05:20:12Z</time>
      </trkpt>
      <trkpt lat="42.29617" lon="1.80119">
        <ele>1688</ele>
        <time>2010-01-01T05:20:14Z</time>
      </trkpt>
      <trkpt lat="42.29621" lon="1.80113">
        <ele>1690</ele>
        <time>2010-01-01T05:20:16Z</time>
      </trkpt>
      <trkpt lat="42.29617" lon="1.80111">
        <ele>1689</ele>
        <time>2010-01-01T05:20:18Z</time>
      </trkpt>
      <trkpt lat="42.29618" lon="1.80103">
        <ele>1691</ele>
        <time>2010-01-01T05:20:21Z</time>
      </trkpt>
      <trkpt lat="42.29625" lon="1.80099">
        <ele>1693</ele>
        <time>2010-01-01T05:20:24Z</time>
      </trkpt>
      <trkpt lat="42.29632" lon="1.80102">
        <ele>1695</ele>
        <time>2010-01-01T05:20:27Z</time>
      </trkpt>
      <trkpt lat="42.29638" lon="1.80093">
        <ele>1698</ele>
        <time>2010-01-01T05:20:30Z</time>
      </trkpt>
      <trkpt lat="42.29642" lon="1.80073">
        <ele>1704</ele>
        <time>2010-01-01T05:20:36Z</time>
      </trkpt>
      <trkpt lat="42.29645" lon="1.80051">
        <ele>1710</ele>
        <time>2010-01-01T05:20:43Z</time>
      </trkpt>
      <trkpt lat="42.29652" lon="1.80032">
        <ele>1718</ele>
        <time>2010-01-01T05:20:49Z</time>
      </trkpt>
      <trkpt lat="42.29658" lon="1.80023">
        <ele>1722</ele>
        <time>2010-01-01T05:20:53Z</time>
      </trkpt>
      <trkpt lat="42.29658" lon="1.80014">
        <ele>1724</ele>
        <time>2010-01-01T05:20:56Z</time>
      </trkpt>
      <trkpt lat="42.29659" lon="1.80008">
        <ele>1725</ele>
        <time>2010-01-01T05:20:58Z</time>
      </trkpt>
      <trkpt lat="42.29663" lon="1.80003">
        <ele>1727</ele>
        <time>2010-01-01T05:21:00Z</time>
      </trkpt>
      <trkpt lat="42.29664" lon="1.79996">
        <ele>1729</ele>
        <time>2010-01-01T05:21:02Z</time>
      </trkpt>
      <trkpt lat="42.29659" lon="1.7999">
        <ele>1729</ele>
        <time>2010-01-01T05:21:04Z</time>
      </trkpt>
      <trkpt lat="42.29663" lon="1.79978">
        <ele>1733</ele>
        <time>2010-01-01T05:21:08Z</time>
      </trkpt>
      <trkpt lat="42.29674" lon="1.7997">
        <ele>1738</ele>
        <time>2010-01-01T05:21:13Z</time>
      </trkpt>
      <trkpt lat="42.29678" lon="1.79964">
        <ele>1740</ele>
        <time>2010-01-01T05:21:16Z</time>
      </trkpt>
      <trkpt lat="42.29673" lon="1.79959">
        <ele>1740</ele>
        <time>2010-01-01T05:21:18Z</time>
      </trkpt>
      <trkpt lat="42.29678" lon="1.79956">
        <ele>1742</ele>
        <time>2010-01-01T05:21:20Z</time>
      </trkpt>
      <trkpt lat="42.29678" lon="1.79957">
        <ele>1742</ele>
        <time>2010-01-01T05:21:21Z</time>
      </trkpt>
      <trkpt lat="42.29681" lon="1.79958">
        <ele>1743</ele>
        <time>2010-01-01T05:21:22Z</time>
      </trkpt>
      <trkpt lat="42.29683" lon="1.79942">
        <ele>1747</ele>
        <time>2010-01-01T05:21:27Z</time>
      </trkpt>
      <trkpt lat="42.29688" lon="1.79945">
        <ele>1748</ele>
        <time>2010-01-01T05:21:29Z</time>
      </trkpt>
      <trkpt lat="42.29685" lon="1.79925">
        <ele>1750</ele>
        <time>2010-01-01T05:21:35Z</time>
      </trkpt>
      <trkpt lat="42.29686" lon="1.79919">
        <ele>1752</ele>
        <time>2010-01-01T05:21:37Z</time>
      </trkpt>
      <trkpt lat="42.2969" lon="1.79915">
        <ele>1754</ele>
        <time>2010-01-01T05:21:39Z</time>
      </trkpt>
      <trkpt lat="42.29694" lon="1.79918">
        <ele>1755</ele>
        <time>2010-01-01T05:21:41Z</time>
      </trkpt>
      <trkpt lat="42.297" lon="1.7992">
        <ele>1758</ele>
        <time>2010-01-01T05:21:43Z</time>
      </trkpt>
      <trkpt lat="42.29698" lon="1.79914">
        <ele>1758</ele>
        <time>2010-01-01T05:21:45Z</time>
      </trkpt>
      <trkpt lat="42.29705" lon="1.79906">
        <ele>1764</ele>
        <time>2010-01-01T05:21:49Z</time>
      </trkpt>
      <trkpt lat="42.29707" lon="1.79898">
        <ele>1767</ele>
        <time>2010-01-01T05:21:51Z</time>
      </trkpt>
      <trkpt lat="42.297" lon="1.79877">
        <ele>1768</ele>
        <time>2010-01-01T05:21:58Z</time>
      </trkpt>
      <trkpt lat="42.29711" lon="1.79878">
        <ele>1772</ele>
        <time>2010-01-01T05:22:03Z</time>
      </trkpt>
      <trkpt lat="42.29705" lon="1.79864">
        <ele>1771</ele>
        <time>2010-01-01T05:22:07Z</time>
      </trkpt>
      <trkpt lat="42.2971" lon="1.79858">
        <ele>1773</ele>
        <time>2010-01-01T05:22:10Z</time>
      </trkpt>
      <trkpt lat="42.29714" lon="1.79865">
        <ele>1774</ele>
        <time>2010-01-01T05:22:13Z</time>
      </trkpt>
      <trkpt lat="42.29716" lon="1.79859">
        <ele>1775</ele>
        <time>2010-01-01T05:22:15Z</time>
      </trkpt>
      <trkpt lat="42.29715" lon="1.79845">
        <ele>1776</ele>
        <time>2010-01-01T05:22:19Z</time>
      </trkpt>
      <trkpt lat="42.29716" lon="1.79825">
        <ele>1779</ele>
        <time>2010-01-01T05:22:25Z</time>
      </trkpt>
      <trkpt lat="42.29719" lon="1.7982">
        <ele>1781</ele>
        <time>2010-01-01T05:22:27Z</time>
      </trkpt>
      <trkpt lat="42.29717" lon="1.79806">
        <ele>1784</ele>
        <time>2010-01-01T05:22:31Z</time>
      </trkpt>
      <trkpt lat="42.29723" lon="1.79799">
        <ele>1784</ele>
        <time>2010-01-01T05:22:34Z</time>
      </trkpt>
      <trkpt lat="42.29727" lon="1.79793">
        <ele>1787</ele>
        <time>2010-01-01T05:22:36Z</time>
      </trkpt>
      <trkpt lat="42.29719" lon="1.79771">
        <ele>1787</ele>
        <time>2010-01-01T05:22:44Z</time>
      </trkpt>
      <trkpt lat="42.2972" lon="1.79728">
        <ele>1790</ele>
        <time>2010-01-01T05:22:56Z</time>
      </trkpt>
      <trkpt lat="42.29719" lon="1.79722">
        <ele>1791</ele>
        <time>2010-01-01T05:22:58Z</time>
      </trkpt>
      <trkpt lat="42.29713" lon="1.79712">
        <ele>1791</ele>
        <time>2010-01-01T05:23:02Z</time>
      </trkpt>
      <trkpt lat="42.2971" lon="1.79702">
        <ele>1791</ele>
        <time>2010-01-01T05:23:05Z</time>
      </trkpt>
      <trkpt lat="42.29715" lon="1.79697">
        <ele>1791</ele>
        <time>2010-01-01T05:23:08Z</time>
      </trkpt>
      <trkpt lat="42.29718" lon="1.79692">
        <ele>1790</ele>
        <time>2010-01-01T05:23:10Z</time>
      </trkpt>
      <trkpt lat="42.29721" lon="1.79692">
        <ele>1790</ele>
        <time>2010-01-01T05:23:11Z</time>
      </trkpt>
      <trkpt lat="42.29719" lon="1.79693">
        <ele>1790</ele>
        <time>2010-01-01T05:23:12Z</time>
      </trkpt>
      <trkpt lat="42.29721" lon="1.79695">
        <ele>1791</ele>
        <time>2010-01-01T05:23:12Z</time>
      </trkpt>
      <trkpt lat="42.29715" lon="1.79688">
        <ele>1789</ele>
        <time>2010-01-01T05:23:15Z</time>
      </trkpt>
      <trkpt lat="42.2972" lon="1.79691">
        <ele>1790</ele>
        <time>2010-01-01T05:23:17Z</time>
      </trkpt>
      <trkpt lat="42.2972" lon="1.79697">
        <ele>1791</ele>
        <time>2010-01-01T05:23:19Z</time>
      </trkpt>
      <trkpt lat="42.2972" lon="1.7969">
        <ele>1790</ele>
        <time>2010-01-01T05:23:21Z</time>
      </trkpt>
      <trkpt lat="42.29724" lon="1.79687">
        <ele>1790</ele>
        <time>2010-01-01T05:23:23Z</time>
      </trkpt>
      <trkpt lat="42.29722" lon="1.79695">
        <ele>1791</ele>
        <time>2010-01-01T05:23:26Z</time>
      </trkpt>
      <trkpt lat="42.2972" lon="1.79689">
        <ele>1790</ele>
        <time>2010-01-01T05:23:28Z</time>
      </trkpt>
      <trkpt lat="42.29718" lon="1.79694">
        <ele>1790</ele>
        <time>2010-01-01T05:23:30Z</time>
      </trkpt>
      <trkpt lat="42.29721" lon="1.79689">
        <ele>1790</ele>
        <time>2010-01-01T05:23:31Z</time>
      </trkpt>
      <trkpt lat="42.29714" lon="1.79712">
        <ele>1791</ele>
        <time>2010-01-01T05:23:39Z</time>
      </trkpt>
      <trkpt lat="42.29718" lon="1.79705">
        <ele>1791</ele>
        <time>2010-01-01T05:23:41Z</time>
      </trkpt>
      <trkpt lat="42.29718" lon="1.79712">
        <ele>1791</ele>
        <time>2010-01-01T05:23:44Z</time>
      </trkpt>
      <trkpt lat="42.29722" lon="1.79716">
        <ele>1791</ele>
        <time>2010-01-01T05:23:46Z</time>
      </trkpt>
      <trkpt lat="42.29727" lon="1.79712">
        <ele>1791</ele>
        <time>2010-01-01T05:23:48Z</time>
      </trkpt>
      <trkpt lat="42.29731" lon="1.79706">
        <ele>1791</ele>
        <time>2010-01-01T05:23:50Z</time>
      </trkpt>
      <trkpt lat="42.29741" lon="1.79706">
        <ele>1793</ele>
        <time>2010-01-01T05:23:54Z</time>
      </trkpt>
      <trkpt lat="42.29745" lon="1.79709">
        <ele>1793</ele>
        <time>2010-01-01T05:23:56Z</time>
      </trkpt>
      <trkpt lat="42.2975" lon="1.79709">
        <ele>1794</ele>
        <time>2010-01-01T05:23:58Z</time>
      </trkpt>
      <trkpt lat="42.29763" lon="1.79702">
        <ele>1798</ele>
        <time>2010-01-01T05:24:04Z</time>
      </trkpt>
      <trkpt lat="42.29768" lon="1.79701">
        <ele>1800</ele>
        <time>2010-01-01T05:24:06Z</time>
      </trkpt>
      <trkpt lat="42.29775" lon="1.79691">
        <ele>1801</ele>
        <time>2010-01-01T05:24:10Z</time>
      </trkpt>
      <trkpt lat="42.29779" lon="1.79691">
        <ele>1802</ele>
        <time>2010-01-01T05:24:12Z</time>
      </trkpt>
      <trkpt lat="42.29783" lon="1.79694">
        <ele>1804</ele>
        <time>2010-01-01T05:24:13Z</time>
      </trkpt>
      <trkpt lat="42.29788" lon="1.79706">
        <ele>1807</ele>
        <time>2010-01-01T05:24:17Z</time>
      </trkpt>
      <trkpt lat="42.29795" lon="1.79714">
        <ele>1812</ele>
        <time>2010-01-01T05:24:21Z</time>
      </trkpt>
      <trkpt lat="42.29799" lon="1.79714">
        <ele>1814</ele>
        <time>2010-01-01T05:24:23Z</time>
      </trkpt>
      <trkpt lat="42.29804" lon="1.79716">
        <ele>1816</ele>
        <time>2010-01-01T05:24:25Z</time>
      </trkpt>
      <trkpt lat="42.29806" lon="1.7971">
        <ele>1815</ele>
        <time>2010-01-01T05:24:27Z</time>
      </trkpt>
      <trkpt lat="42.29816" lon="1.79707">
        <ele>1815</ele>
        <time>2010-01-01T05:24:31Z</time>
      </trkpt>
      <trkpt lat="42.29818" lon="1.79713">
        <ele>1818</ele>
        <time>2010-01-01T05:24:33Z</time>
      </trkpt>
      <trkpt lat="42.29822" lon="1.79716">
        <ele>1820</ele>
        <time>2010-01-01T05:24:35Z</time>
      </trkpt>
      <trkpt lat="42.29825" lon="1.79721">
        <ele>1822</ele>
        <time>2010-01-01T05:24:37Z</time>
      </trkpt>
      <trkpt lat="42.29822" lon="1.79728">
        <ele>1823</ele>
        <time>2010-01-01T05:24:39Z</time>
      </trkpt>
      <trkpt lat="42.29825" lon="1.79741">
        <ele>1828</ele>
        <time>2010-01-01T05:24:43Z</time>
      </trkpt>
      <trkpt lat="42.29829" lon="1.79745">
        <ele>1830</ele>
        <time>2010-01-01T05:24:45Z</time>
      </trkpt>
      <trkpt lat="42.29833" lon="1.79743">
        <ele>1830</ele>
        <time>2010-01-01T05:24:46Z</time>
      </trkpt>
      <trkpt lat="42.29843" lon="1.79745">
        <ele>1832</ele>
        <time>2010-01-01T05:24:50Z</time>
      </trkpt>
      <trkpt lat="42.29846" lon="1.7975">
        <ele>1835</ele>
        <time>2010-01-01T05:24:52Z</time>
      </trkpt>
      <trkpt lat="42.29855" lon="1.79779">
        <ele>1849</ele>
        <time>2010-01-01T05:25:02Z</time>
      </trkpt>
      <trkpt lat="42.29857" lon="1.79792">
        <ele>1853</ele>
        <time>2010-01-01T05:25:05Z</time>
      </trkpt>
      <trkpt lat="42.29857" lon="1.79805">
        <ele>1857</ele>
        <time>2010-01-01T05:25:09Z</time>
      </trkpt>
      <trkpt lat="42.29858" lon="1.79805">
        <ele>1858</ele>
        <time>2010-01-01T05:25:10Z</time>
      </trkpt>
      <trkpt lat="42.29866" lon="1.79822">
        <ele>1862</ele>
        <time>2010-01-01T05:25:16Z</time>
      </trkpt>
      <trkpt lat="42.2987" lon="1.79825">
        <ele>1864</ele>
        <time>2010-01-01T05:25:18Z</time>
      </trkpt>
      <trkpt lat="42.29875" lon="1.7982">
        <ele>1864</ele>
        <time>2010-01-01T05:25:20Z</time>
      </trkpt>
      <trkpt lat="42.2988" lon="1.79821">
        <ele>1866</ele>
        <time>2010-01-01T05:25:22Z</time>
      </trkpt>
      <trkpt lat="42.29881" lon="1.79833">
        <ele>1869</ele>
        <time>2010-01-01T05:25:25Z</time>
      </trkpt>
      <trkpt lat="42.29889" lon="1.7984">
        <ele>1873</ele>
        <time>2010-01-01T05:25:29Z</time>
      </trkpt>
      <trkpt lat="42.29892" lon="1.79862">
        <ele>1879</ele>
        <time>2010-01-01T05:25:36Z</time>
      </trkpt>
      <trkpt lat="42.29897" lon="1.79881">
        <ele>1880</ele>
        <time>2010-01-01T05:25:42Z</time>
      </trkpt>
      <trkpt lat="42.29897" lon="1.79889">
        <ele>1881</ele>
        <time>2010-01-01T05:25:44Z</time>
      </trkpt>
      <trkpt lat="42.29903" lon="1.79915">
        <ele>1885</ele>
        <time>2010-01-01T05:25:52Z</time>
      </trkpt>
      <trkpt lat="42.29919" lon="1.79939">
        <ele>1890</ele>
        <time>2010-01-01T05:26:02Z</time>
      </trkpt>
      <trkpt lat="42.29923" lon="1.79943">
        <ele>1891</ele>
        <time>2010-01-01T05:26:04Z</time>
      </trkpt>
      <trkpt lat="42.29934" lon="1.79951">
        <ele>1894</ele>
        <time>2010-01-01T05:26:09Z</time>
      </trkpt>
      <trkpt lat="42.29938" lon="1.7997">
        <ele>1896</ele>
        <time>2010-01-01T05:26:15Z</time>
      </trkpt>
      <trkpt lat="42.29946" lon="1.79986">
        <ele>1898</ele>
        <time>2010-01-01T05:26:21Z</time>
      </trkpt>
      <trkpt lat="42.29951" lon="1.79993">
        <ele>1900</ele>
        <time>2010-01-01T05:26:24Z</time>
      </trkpt>
      <trkpt lat="42.29966" lon="1.80005">
        <ele>1906</ele>
        <time>2010-01-01T05:26:31Z</time>
      </trkpt>
      <trkpt lat="42.29979" lon="1.80021">
        <ele>1910</ele>
        <time>2010-01-01T05:26:38Z</time>
      </trkpt>
      <trkpt lat="42.29985" lon="1.80038">
        <ele>1912</ele>
        <time>2010-01-01T05:26:43Z</time>
      </trkpt>
      <trkpt lat="42.29988" lon="1.80058">
        <ele>1911</ele>
        <time>2010-01-01T05:26:49Z</time>
      </trkpt>
      <trkpt lat="42.29994" lon="1.80064">
        <ele>1914</ele>
        <time>2010-01-01T05:26:52Z</time>
      </trkpt>
      <trkpt lat="42.29993" lon="1.80073">
        <ele>1913</ele>
        <time>2010-01-01T05:26:55Z</time>
      </trkpt>
      <trkpt lat="42.29988" lon="1.80076">
        <ele>1910</ele>
        <time>2010-01-01T05:26:57Z</time>
      </trkpt>
      <trkpt lat="42.29991" lon="1.80073">
        <ele>1912</ele>
        <time>2010-01-01T05:26:59Z</time>
      </trkpt>
      <trkpt lat="42.29996" lon="1.80073">
        <ele>1915</ele>
        <time>2010-01-01T05:27:01Z</time>
      </trkpt>
      <trkpt lat="42.29999" lon="1.80086">
        <ele>1916</ele>
        <time>2010-01-01T05:27:05Z</time>
      </trkpt>
      <trkpt lat="42.29999" lon="1.80098">
        <ele>1916</ele>
        <time>2010-01-01T05:27:08Z</time>
      </trkpt>
      <trkpt lat="42.30002" lon="1.80108">
        <ele>1917</ele>
        <time>2010-01-01T05:27:11Z</time>
      </trkpt>
      <trkpt lat="42.30004" lon="1.80134">
        <ele>1919</ele>
        <time>2010-01-01T05:27:19Z</time>
      </trkpt>
      <trkpt lat="42.30004" lon="1.80147">
        <ele>1919</ele>
        <time>2010-01-01T05:27:23Z</time>
      </trkpt>
      <trkpt lat="42.30009" lon="1.8018">
        <ele>1921</ele>
        <time>2010-01-01T05:27:33Z</time>
      </trkpt>
      <trkpt lat="42.3001" lon="1.80193">
        <ele>1922</ele>
        <time>2010-01-01T05:27:37Z</time>
      </trkpt>
      <trkpt lat="42.30015" lon="1.80218">
        <ele>1924</ele>
        <time>2010-01-01T05:27:44Z</time>
      </trkpt>
      <trkpt lat="42.30015" lon="1.80236">
        <ele>1924</ele>
        <time>2010-01-01T05:27:50Z</time>
      </trkpt>
      <trkpt lat="42.30026" lon="1.8026">
        <ele>1929</ele>
        <time>2010-01-01T05:27:58Z</time>
      </trkpt>
      <trkpt lat="42.30033" lon="1.80279">
        <ele>1933</ele>
        <time>2010-01-01T05:28:04Z</time>
      </trkpt>
      <trkpt lat="42.30036" lon="1.80306">
        <ele>1935</ele>
        <time>2010-01-01T05:28:13Z</time>
      </trkpt>
      <trkpt lat="42.30039" lon="1.8031">
        <ele>1936</ele>
        <time>2010-01-01T05:28:14Z</time>
      </trkpt>
      <trkpt lat="42.30045" lon="1.80326">
        <ele>1939</ele>
        <time>2010-01-01T05:28:20Z</time>
      </trkpt>
      <trkpt lat="42.30051" lon="1.80359">
        <ele>1945</ele>
        <time>2010-01-01T05:28:30Z</time>
      </trkpt>
      <trkpt lat="42.30046" lon="1.80396">
        <ele>1944</ele>
        <time>2010-01-01T05:28:41Z</time>
      </trkpt>
      <trkpt lat="42.30047" lon="1.80422">
        <ele>1944</ele>
        <time>2010-01-01T05:28:49Z</time>
      </trkpt>
      <trkpt lat="42.30049" lon="1.8043">
        <ele>1945</ele>
        <time>2010-01-01T05:28:51Z</time>
      </trkpt>
      <trkpt lat="42.3005" lon="1.80443">
        <ele>1945</ele>
        <time>2010-01-01T05:28:55Z</time>
      </trkpt>
      <trkpt lat="42.30053" lon="1.80457">
        <ele>1946</ele>
        <time>2010-01-01T05:28:59Z</time>
      </trkpt>
      <trkpt lat="42.30059" lon="1.80467">
        <ele>1949</ele>
        <time>2010-01-01T05:29:03Z</time>
      </trkpt>
      <trkpt lat="42.30061" lon="1.80483">
        <ele>1948</ele>
        <time>2010-01-01T05:29:08Z</time>
      </trkpt>
      <trkpt lat="42.30066" lon="1.8048">
        <ele>1951</ele>
        <time>2010-01-01T05:29:10Z</time>
      </trkpt>
      <trkpt lat="42.30064" lon="1.80474">
        <ele>1951</ele>
        <time>2010-01-01T05:29:12Z</time>
      </trkpt>
      <trkpt lat="42.30068" lon="1.80478">
        <ele>1952</ele>
        <time>2010-01-01T05:29:14Z</time>
      </trkpt>
      <trkpt lat="42.30073" lon="1.80509">
        <ele>1954</ele>
        <time>2010-01-01T05:29:24Z</time>
      </trkpt>
      <trkpt lat="42.30079" lon="1.80523">
        <ele>1957</ele>
        <time>2010-01-01T05:29:28Z</time>
      </trkpt>
      <trkpt lat="42.30082" lon="1.80544">
        <ele>1958</ele>
        <time>2010-01-01T05:29:35Z</time>
      </trkpt>
      <trkpt lat="42.30082" lon="1.80555">
        <ele>1958</ele>
        <time>2010-01-01T05:29:38Z</time>
      </trkpt>
      <trkpt lat="42.30087" lon="1.80569">
        <ele>1960</ele>
        <time>2010-01-01T05:29:43Z</time>
      </trkpt>
      <trkpt lat="42.30086" lon="1.80581">
        <ele>1959</ele>
        <time>2010-01-01T05:29:46Z</time>
      </trkpt>
      <trkpt lat="42.3009" lon="1.80618">
        <ele>1964</ele>
        <time>2010-01-01T05:29:58Z</time>
      </trkpt>
      <trkpt lat="42.30089" lon="1.80648">
        <ele>1965</ele>
        <time>2010-01-01T05:30:06Z</time>
      </trkpt>
      <trkpt lat="42.30085" lon="1.80684">
        <ele>1968</ele>
        <time>2010-01-01T05:30:17Z</time>
      </trkpt>
      <trkpt lat="42.30082" lon="1.80733">
        <ele>1972</ele>
        <time>2010-01-01T05:30:32Z</time>
      </trkpt>
      <trkpt lat="42.30083" lon="1.80744">
        <ele>1974</ele>
        <time>2010-01-01T05:30:35Z</time>
      </trkpt>
      <trkpt lat="42.30086" lon="1.8075">
        <ele>1976</ele>
        <time>2010-01-01T05:30:37Z</time>
      </trkpt>
      <trkpt lat="42.30088" lon="1.80777">
        <ele>1978</ele>
        <time>2010-01-01T05:30:45Z</time>
      </trkpt>
      <trkpt lat="42.30091" lon="1.80787">
        <ele>1980</ele>
        <time>2010-01-01T05:30:48Z</time>
      </trkpt>
      <trkpt lat="42.30095" lon="1.80816">
        <ele>1982</ele>
        <time>2010-01-01T05:30:57Z</time>
      </trkpt>
      <trkpt lat="42.30099" lon="1.80829">
        <ele>1984</ele>
        <time>2010-01-01T05:31:01Z</time>
      </trkpt>
      <trkpt lat="42.301" lon="1.80839">
        <ele>1985</ele>
        <time>2010-01-01T05:31:04Z</time>
      </trkpt>
      <trkpt lat="42.30105" lon="1.80858">
        <ele>1988</ele>
        <time>2010-01-01T05:31:10Z</time>
      </trkpt>
      <trkpt lat="42.30104" lon="1.80867">
        <ele>1988</ele>
        <time>2010-01-01T05:31:13Z</time>
      </trkpt>
      <trkpt lat="42.30102" lon="1.80876">
        <ele>1988</ele>
        <time>2010-01-01T05:31:16Z</time>
      </trkpt>
      <trkpt lat="42.30102" lon="1.80889">
        <ele>1988</ele>
        <time>2010-01-01T05:31:20Z</time>
      </trkpt>
      <trkpt lat="42.30105" lon="1.80909">
        <ele>1990</ele>
        <time>2010-01-01T05:31:26Z</time>
      </trkpt>
      <trkpt lat="42.30104" lon="1.80926">
        <ele>1991</ele>
        <time>2010-01-01T05:31:31Z</time>
      </trkpt>
      <trkpt lat="42.30102" lon="1.8094">
        <ele>1991</ele>
        <time>2010-01-01T05:31:35Z</time>
      </trkpt>
      <trkpt lat="42.30105" lon="1.80954">
        <ele>1995</ele>
        <time>2010-01-01T05:31:39Z</time>
      </trkpt>
      <trkpt lat="42.30106" lon="1.80972">
        <ele>1999</ele>
        <time>2010-01-01T05:31:45Z</time>
      </trkpt>
      <trkpt lat="42.30102" lon="1.81003">
        <ele>2004</ele>
        <time>2010-01-01T05:31:54Z</time>
      </trkpt>
      <trkpt lat="42.30099" lon="1.81012">
        <ele>2004</ele>
        <time>2010-01-01T05:31:57Z</time>
      </trkpt>
      <trkpt lat="42.301" lon="1.8103">
        <ele>2006</ele>
        <time>2010-01-01T05:32:02Z</time>
      </trkpt>
      <trkpt lat="42.30103" lon="1.81036">
        <ele>2008</ele>
        <time>2010-01-01T05:32:04Z</time>
      </trkpt>
      <trkpt lat="42.30101" lon="1.81048">
        <ele>2009</ele>
        <time>2010-01-01T05:32:08Z</time>
      </trkpt>
      <trkpt lat="42.30094" lon="1.81062">
        <ele>2007</ele>
        <time>2010-01-01T05:32:13Z</time>
      </trkpt>
      <trkpt lat="42.30097" lon="1.81084">
        <ele>2009</ele>
        <time>2010-01-01T05:32:20Z</time>
      </trkpt>
      <trkpt lat="42.30093" lon="1.81107">
        <ele>2011</ele>
        <time>2010-01-01T05:32:27Z</time>
      </trkpt>
      <trkpt lat="42.30094" lon="1.81117">
        <ele>2013</ele>
        <time>2010-01-01T05:32:30Z</time>
      </trkpt>
      <trkpt lat="42.3009" lon="1.81129">
        <ele>2012</ele>
        <time>2010-01-01T05:32:34Z</time>
      </trkpt>
      <trkpt lat="42.30088" lon="1.81151">
        <ele>2015</ele>
        <time>2010-01-01T05:32:40Z</time>
      </trkpt>
      <trkpt lat="42.30085" lon="1.8116">
        <ele>2014</ele>
        <time>2010-01-01T05:32:43Z</time>
      </trkpt>
      <trkpt lat="42.30083" lon="1.81176">
        <ele>2015</ele>
        <time>2010-01-01T05:32:48Z</time>
      </trkpt>
      <trkpt lat="42.30073" lon="1.81197">
        <ele>2010</ele>
        <time>2010-01-01T05:32:55Z</time>
      </trkpt>
      <trkpt lat="42.30076" lon="1.81202">
        <ele>2011</ele>
        <time>2010-01-01T05:32:57Z</time>
      </trkpt>
      <trkpt lat="42.30075" lon="1.81196">
        <ele>2011</ele>
        <time>2010-01-01T05:32:59Z</time>
      </trkpt>
      <trkpt lat="42.30074" lon="1.81202">
        <ele>2009</ele>
        <time>2010-01-01T05:33:01Z</time>
      </trkpt>
      <trkpt lat="42.30075" lon="1.81209">
        <ele>2009</ele>
        <time>2010-01-01T05:33:03Z</time>
      </trkpt>
      <trkpt lat="42.3008" lon="1.81214">
        <ele>2011</ele>
        <time>2010-01-01T05:33:05Z</time>
      </trkpt>
      <trkpt lat="42.30086" lon="1.81228">
        <ele>2011</ele>
        <time>2010-01-01T05:33:10Z</time>
      </trkpt>
      <trkpt lat="42.30089" lon="1.81245">
        <ele>2009</ele>
        <time>2010-01-01T05:33:15Z</time>
      </trkpt>
      <trkpt lat="42.30089" lon="1.81279">
        <ele>2004</ele>
        <time>2010-01-01T05:33:25Z</time>
      </trkpt>
      <trkpt lat="42.30093" lon="1.8131">
        <ele>2002</ele>
        <time>2010-01-01T05:33:35Z</time>
      </trkpt>
      <trkpt lat="42.30103" lon="1.81327">
        <ele>2004</ele>
        <time>2010-01-01T05:33:41Z</time>
      </trkpt>
      <trkpt lat="42.30105" lon="1.8134">
        <ele>2003</ele>
        <time>2010-01-01T05:33:45Z</time>
      </trkpt>
      <trkpt lat="42.30112" lon="1.81362">
        <ele>2003</ele>
        <time>2010-01-01T05:33:52Z</time>
      </trkpt>
      <trkpt lat="42.30127" lon="1.81392">
        <ele>2005</ele>
        <time>2010-01-01T05:34:03Z</time>
      </trkpt>
      <trkpt lat="42.30142" lon="1.81405">
        <ele>2011</ele>
        <time>2010-01-01T05:34:10Z</time>
      </trkpt>
      <trkpt lat="42.30146" lon="1.81412">
        <ele>2012</ele>
        <time>2010-01-01T05:34:12Z</time>
      </trkpt>
      <trkpt lat="42.30152" lon="1.81418">
        <ele>2015</ele>
        <time>2010-01-01T05:34:15Z</time>
      </trkpt>
      <trkpt lat="42.30156" lon="1.81461">
        <ele>2010</ele>
        <time>2010-01-01T05:34:28Z</time>
      </trkpt>
      <trkpt lat="42.30154" lon="1.81471">
        <ele>2008</ele>
        <time>2010-01-01T05:34:31Z</time>
      </trkpt>
      <trkpt lat="42.30156" lon="1.81483">
        <ele>2007</ele>
        <time>2010-01-01T05:34:35Z</time>
      </trkpt>
      <trkpt lat="42.30161" lon="1.81502">
        <ele>2007</ele>
        <time>2010-01-01T05:34:41Z</time>
      </trkpt>
      <trkpt lat="42.30163" lon="1.81507">
        <ele>2006</ele>
        <time>2010-01-01T05:34:43Z</time>
      </trkpt>
      <trkpt lat="42.30163" lon="1.81515">
        <ele>2004</ele>
        <time>2010-01-01T05:34:45Z</time>
      </trkpt>
      <trkpt lat="42.30161" lon="1.81524">
        <ele>2001</ele>
        <time>2010-01-01T05:34:48Z</time>
      </trkpt>
      <trkpt lat="42.30155" lon="1.81533">
        <ele>1997</ele>
        <time>2010-01-01T05:34:51Z</time>
      </trkpt>
      <trkpt lat="42.30156" lon="1.81543">
        <ele>1994</ele>
        <time>2010-01-01T05:34:55Z</time>
      </trkpt>
      <trkpt lat="42.30154" lon="1.81551">
        <ele>1992</ele>
        <time>2010-01-01T05:34:57Z</time>
      </trkpt>
      <trkpt lat="42.30134" lon="1.81577">
        <ele>1985</ele>
        <time>2010-01-01T05:35:08Z</time>
      </trkpt>
      <trkpt lat="42.30126" lon="1.81581">
        <ele>1983</ele>
        <time>2010-01-01T05:35:12Z</time>
      </trkpt>
      <trkpt lat="42.30114" lon="1.81599">
        <ele>1980</ele>
        <time>2010-01-01T05:35:19Z</time>
      </trkpt>
      <trkpt lat="42.30109" lon="1.81605">
        <ele>1980</ele>
        <time>2010-01-01T05:35:21Z</time>
      </trkpt>
      <trkpt lat="42.30082" lon="1.81617">
        <ele>1975</ele>
        <time>2010-01-01T05:35:33Z</time>
      </trkpt>
      <trkpt lat="42.30073" lon="1.8162">
        <ele>1972</ele>
        <time>2010-01-01T05:35:37Z</time>
      </trkpt>
      <trkpt lat="42.30064" lon="1.81626">
        <ele>1971</ele>
        <time>2010-01-01T05:35:40Z</time>
      </trkpt>
      <trkpt lat="42.30057" lon="1.81633">
        <ele>1970</ele>
        <time>2010-01-01T05:35:44Z</time>
      </trkpt>
      <trkpt lat="42.30039" lon="1.81639">
        <ele>1966</ele>
        <time>2010-01-01T05:35:52Z</time>
      </trkpt>
      <trkpt lat="42.30038" lon="1.81638">
        <ele>1966</ele>
        <time>2010-01-01T05:35:52Z</time>
      </trkpt>
      <trkpt lat="42.3004" lon="1.81643">
        <ele>1967</ele>
        <time>2010-01-01T05:35:54Z</time>
      </trkpt>
      <trkpt lat="42.30041" lon="1.81644">
        <ele>1968</ele>
        <time>2010-01-01T05:35:54Z</time>
      </trkpt>
      <trkpt lat="42.30037" lon="1.81638">
        <ele>1966</ele>
        <time>2010-01-01T05:35:57Z</time>
      </trkpt>
      <trkpt lat="42.30041" lon="1.81645">
        <ele>1968</ele>
        <time>2010-01-01T05:35:59Z</time>
      </trkpt>
      <trkpt lat="42.30041" lon="1.81652">
        <ele>1969</ele>
        <time>2010-01-01T05:36:01Z</time>
      </trkpt>
      <trkpt lat="42.30034" lon="1.81665">
        <ele>1971</ele>
        <time>2010-01-01T05:36:06Z</time>
      </trkpt>
      <trkpt lat="42.30033" lon="1.81663">
        <ele>1970</ele>
        <time>2010-01-01T05:36:07Z</time>
      </trkpt>
      <trkpt lat="42.30036" lon="1.81659">
        <ele>1969</ele>
        <time>2010-01-01T05:36:08Z</time>
      </trkpt>
      <trkpt lat="42.30036" lon="1.81676">
        <ele>1973</ele>
        <time>2010-01-01T05:36:13Z</time>
      </trkpt>
      <trkpt lat="42.3004" lon="1.81701">
        <ele>1978</ele>
        <time>2010-01-01T05:36:21Z</time>
      </trkpt>
      <trkpt lat="42.30037" lon="1.81748">
        <ele>1985</ele>
        <time>2010-01-01T05:36:35Z</time>
      </trkpt>
      <trkpt lat="42.30032" lon="1.81763">
        <ele>1991</ele>
        <time>2010-01-01T05:36:40Z</time>
      </trkpt>
      <trkpt lat="42.30023" lon="1.81779">
        <ele>1999</ele>
        <time>2010-01-01T05:36:46Z</time>
      </trkpt>
      <trkpt lat="42.30023" lon="1.81786">
        <ele>2002</ele>
        <time>2010-01-01T05:36:48Z</time>
      </trkpt>
      <trkpt lat="42.3002" lon="1.81785">
        <ele>2001</ele>
        <time>2010-01-01T05:36:49Z</time>
      </trkpt>
      <trkpt lat="42.30018" lon="1.81796">
        <ele>2005</ele>
        <time>2010-01-01T05:36:52Z</time>
      </trkpt>
      <trkpt lat="42.30014" lon="1.81808">
        <ele>2010</ele>
        <time>2010-01-01T05:36:56Z</time>
      </trkpt>
      <trkpt lat="42.30015" lon="1.81812">
        <ele>2011</ele>
        <time>2010-01-01T05:36:57Z</time>
      </trkpt>
      <trkpt lat="42.30008" lon="1.81834">
        <ele>2016</ele>
        <time>2010-01-01T05:37:05Z</time>
      </trkpt>
      <trkpt lat="42.30005" lon="1.81876">
        <ele>2013</ele>
        <time>2010-01-01T05:37:17Z</time>
      </trkpt>
      <trkpt lat="42.30002" lon="1.81893">
        <ele>2014</ele>
        <time>2010-01-01T05:37:22Z</time>
      </trkpt>
      <trkpt lat="42.30001" lon="1.81921">
        <ele>2020</ele>
        <time>2010-01-01T05:37:31Z</time>
      </trkpt>
      <trkpt lat="42.30002" lon="1.81955">
        <ele>2035</ele>
        <time>2010-01-01T05:37:41Z</time>
      </trkpt>
      <trkpt lat="42.30001" lon="1.8197">
        <ele>2041</ele>
        <time>2010-01-01T05:37:45Z</time>
      </trkpt>
      <trkpt lat="42.30007" lon="1.81986">
        <ele>2041</ele>
        <time>2010-01-01T05:37:50Z</time>
      </trkpt>
      <trkpt lat="42.30009" lon="1.82004">
        <ele>2040</ele>
        <time>2010-01-01T05:37:56Z</time>
      </trkpt>
      <trkpt lat="42.30008" lon="1.82028">
        <ele>2032</ele>
        <time>2010-01-01T05:38:03Z</time>
      </trkpt>
      <trkpt lat="42.30004" lon="1.82035">
        <ele>2033</ele>
        <time>2010-01-01T05:38:06Z</time>
      </trkpt>
      <trkpt lat="42.30001" lon="1.82045">
        <ele>2034</ele>
        <time>2010-01-01T05:38:09Z</time>
      </trkpt>
      <trkpt lat="42.30002" lon="1.82058">
        <ele>2034</ele>
        <time>2010-01-01T05:38:13Z</time>
      </trkpt>
      <trkpt lat="42.3" lon="1.82067">
        <ele>2039</ele>
        <time>2010-01-01T05:38:15Z</time>
      </trkpt>
      <trkpt lat="42.29996" lon="1.82075">
        <ele>2042</ele>
        <time>2010-01-01T05:38:18Z</time>
      </trkpt>
      <trkpt lat="42.29994" lon="1.82087">
        <ele>2046</ele>
        <time>2010-01-01T05:38:22Z</time>
      </trkpt>
      <trkpt lat="42.2999" lon="1.82096">
        <ele>2047</ele>
        <time>2010-01-01T05:38:25Z</time>
      </trkpt>
      <trkpt lat="42.29984" lon="1.82106">
        <ele>2047</ele>
        <time>2010-01-01T05:38:29Z</time>
      </trkpt>
      <trkpt lat="42.29982" lon="1.82115">
        <ele>2049</ele>
        <time>2010-01-01T05:38:32Z</time>
      </trkpt>
      <trkpt lat="42.29978" lon="1.82126">
        <ele>2051</ele>
        <time>2010-01-01T05:38:35Z</time>
      </trkpt>
      <trkpt lat="42.29975" lon="1.82125">
        <ele>2049</ele>
        <time>2010-01-01T05:38:37Z</time>
      </trkpt>
      <trkpt lat="42.29972" lon="1.8213">
        <ele>2048</ele>
        <time>2010-01-01T05:38:39Z</time>
      </trkpt>
      <trkpt lat="42.29974" lon="1.82137">
        <ele>2052</ele>
        <time>2010-01-01T05:38:41Z</time>
      </trkpt>
      <trkpt lat="42.29973" lon="1.82145">
        <ele>2053</ele>
        <time>2010-01-01T05:38:43Z</time>
      </trkpt>
      <trkpt lat="42.29971" lon="1.82149">
        <ele>2052</ele>
        <time>2010-01-01T05:38:45Z</time>
      </trkpt>
      <trkpt lat="42.2997" lon="1.82158">
        <ele>2053</ele>
        <time>2010-01-01T05:38:47Z</time>
      </trkpt>
      <trkpt lat="42.2996" lon="1.82181">
        <ele>2052</ele>
        <time>2010-01-01T05:38:55Z</time>
      </trkpt>
      <trkpt lat="42.29957" lon="1.82182">
        <ele>2051</ele>
        <time>2010-01-01T05:38:56Z</time>
      </trkpt>
      <trkpt lat="42.29958" lon="1.82186">
        <ele>2052</ele>
        <time>2010-01-01T05:38:57Z</time>
      </trkpt>
      <trkpt lat="42.29958" lon="1.82184">
        <ele>2052</ele>
        <time>2010-01-01T05:38:58Z</time>
      </trkpt>
      <trkpt lat="42.29959" lon="1.82185">
        <ele>2052</ele>
        <time>2010-01-01T05:38:58Z</time>
      </trkpt>
      <trkpt lat="42.29958" lon="1.82189">
        <ele>2052</ele>
        <time>2010-01-01T05:39:00Z</time>
      </trkpt>
      <trkpt lat="42.29957" lon="1.82189">
        <ele>2052</ele>
        <time>2010-01-01T05:39:00Z</time>
      </trkpt>
      <trkpt lat="42.29958" lon="1.82185">
        <ele>2052</ele>
        <time>2010-01-01T05:39:01Z</time>
      </trkpt>
      <trkpt lat="42.29959" lon="1.82189">
        <ele>2053</ele>
        <time>2010-01-01T05:39:03Z</time>
      </trkpt>
      <trkpt lat="42.29956" lon="1.82185">
        <ele>2051</ele>
        <time>2010-01-01T05:39:04Z</time>
      </trkpt>
      <trkpt lat="42.29956" lon="1.82174">
        <ele>2050</ele>
        <time>2010-01-01T05:39:07Z</time>
      </trkpt>
      <trkpt lat="42.29956" lon="1.82178">
        <ele>2050</ele>
        <time>2010-01-01T05:39:09Z</time>
      </trkpt>
      <trkpt lat="42.29954" lon="1.8218">
        <ele>2049</ele>
        <time>2010-01-01T05:39:10Z</time>
      </trkpt>
      <trkpt lat="42.29957" lon="1.82183">
        <ele>2051</ele>
        <time>2010-01-01T05:39:11Z</time>
      </trkpt>
      <trkpt lat="42.29957" lon="1.82181">
        <ele>2051</ele>
        <time>2010-01-01T05:39:12Z</time>
      </trkpt>
      <trkpt lat="42.29956" lon="1.82186">
        <ele>2051</ele>
        <time>2010-01-01T05:39:13Z</time>
      </trkpt>
      <trkpt lat="42.29958" lon="1.82183">
        <ele>2051</ele>
        <time>2010-01-01T05:39:14Z</time>
      </trkpt>
      <trkpt lat="42.29957" lon="1.82183">
        <ele>2051</ele>
        <time>2010-01-01T05:39:15Z</time>
      </trkpt>
      <trkpt lat="42.29959" lon="1.82185">
        <ele>2052</ele>
        <time>2010-01-01T05:39:16Z</time>
      </trkpt>
      <trkpt lat="42.29962" lon="1.82199">
        <ele>2058</ele>
        <time>2010-01-01T05:39:20Z</time>
      </trkpt>
      <trkpt lat="42.29967" lon="1.8221">
        <ele>2069</ele>
        <time>2010-01-01T05:39:24Z</time>
      </trkpt>
      <trkpt lat="42.29974" lon="1.8222">
        <ele>2080</ele>
        <time>2010-01-01T05:39:28Z</time>
      </trkpt>
      <trkpt lat="42.29984" lon="1.82232">
        <ele>2078</ele>
        <time>2010-01-01T05:39:33Z</time>
      </trkpt>
      <trkpt lat="42.29987" lon="1.8224">
        <ele>2075</ele>
        <time>2010-01-01T05:39:36Z</time>
      </trkpt>
      <trkpt lat="42.29991" lon="1.82241">
        <ele>2075</ele>
        <time>2010-01-01T05:39:38Z</time>
      </trkpt>
      <trkpt lat="42.29993" lon="1.82247">
        <ele>2074</ele>
        <time>2010-01-01T05:39:40Z</time>
      </trkpt>
      <trkpt lat="42.30009" lon="1.82256">
        <ele>2071</ele>
        <time>2010-01-01T05:39:46Z</time>
      </trkpt>
      <trkpt lat="42.30014" lon="1.82257">
        <ele>2070</ele>
        <time>2010-01-01T05:39:49Z</time>
      </trkpt>
      <trkpt lat="42.30014" lon="1.82267">
        <ele>2070</ele>
        <time>2010-01-01T05:39:52Z</time>
      </trkpt>
      <trkpt lat="42.3002" lon="1.82295">
        <ele>2064</ele>
        <time>2010-01-01T05:40:00Z</time>
      </trkpt>
      <trkpt lat="42.30018" lon="1.82311">
        <ele>2055</ele>
        <time>2010-01-01T05:40:05Z</time>
      </trkpt>
      <trkpt lat="42.30019" lon="1.8232">
        <ele>2050</ele>
        <time>2010-01-01T05:40:08Z</time>
      </trkpt>
      <trkpt lat="42.30017" lon="1.82352">
        <ele>2032</ele>
        <time>2010-01-01T05:40:17Z</time>
      </trkpt>
      <trkpt lat="42.3002" lon="1.82397">
        <ele>2022</ele>
        <time>2010-01-01T05:40:31Z</time>
      </trkpt>
      <trkpt lat="42.30023" lon="1.82411">
        <ele>2022</ele>
        <time>2010-01-01T05:40:35Z</time>
      </trkpt>
      <trkpt lat="42.30028" lon="1.82428">
        <ele>2021</ele>
        <time>2010-01-01T05:40:41Z</time>
      </trkpt>
      <trkpt lat="42.30034" lon="1.82438">
        <ele>2020</ele>
        <time>2010-01-01T05:40:44Z</time>
      </trkpt>
      <trkpt lat="42.30036" lon="1.82451">
        <ele>2020</ele>
        <time>2010-01-01T05:40:48Z</time>
      </trkpt>
      <trkpt lat="42.30034" lon="1.82486">
        <ele>2009</ele>
        <time>2010-01-01T05:40:58Z</time>
      </trkpt>
      <trkpt lat="42.30037" lon="1.82527">
        <ele>1990</ele>
        <time>2010-01-01T05:41:11Z</time>
      </trkpt>
      <trkpt lat="42.30034" lon="1.82549">
        <ele>1995</ele>
        <time>2010-01-01T05:41:17Z</time>
      </trkpt>
      <trkpt lat="42.30034" lon="1.82545">
        <ele>1994</ele>
        <time>2010-01-01T05:41:19Z</time>
      </trkpt>
      <trkpt lat="42.30037" lon="1.82583">
        <ele>1994</ele>
        <time>2010-01-01T05:41:30Z</time>
      </trkpt>
      <trkpt lat="42.30049" lon="1.8264">
        <ele>1985</ele>
        <time>2010-01-01T05:41:47Z</time>
      </trkpt>
      <trkpt lat="42.3005" lon="1.82645">
        <ele>1986</ele>
        <time>2010-01-01T05:41:49Z</time>
      </trkpt>
      <trkpt lat="42.30053" lon="1.8265">
        <ele>1986</ele>
        <time>2010-01-01T05:41:51Z</time>
      </trkpt>
      <trkpt lat="42.30055" lon="1.82674">
        <ele>1991</ele>
        <time>2010-01-01T05:41:58Z</time>
      </trkpt>
      <trkpt lat="42.30057" lon="1.82677">
        <ele>1991</ele>
        <time>2010-01-01T05:41:59Z</time>
      </trkpt>
      <trkpt lat="42.30055" lon="1.82692">
        <ele>1995</ele>
        <time>2010-01-01T05:42:04Z</time>
      </trkpt>
      <trkpt lat="42.30057" lon="1.82707">
        <ele>1997</ele>
        <time>2010-01-01T05:42:09Z</time>
      </trkpt>
      <trkpt lat="42.30045" lon="1.82727">
        <ele>2002</ele>
        <time>2010-01-01T05:42:16Z</time>
      </trkpt>
      <trkpt lat="42.30068" lon="1.82771">
        <ele>2000</ele>
        <time>2010-01-01T05:42:32Z</time>
      </trkpt>
      <trkpt lat="42.30075" lon="1.82775">
        <ele>1999</ele>
        <time>2010-01-01T05:42:35Z</time>
      </trkpt>
      <trkpt lat="42.30076" lon="1.82777">
        <ele>1999</ele>
        <time>2010-01-01T05:42:36Z</time>
      </trkpt>
      <trkpt lat="42.30083" lon="1.82806">
        <ele>1988</ele>
        <time>2010-01-01T05:42:45Z</time>
      </trkpt>
      <trkpt lat="42.30088" lon="1.82857">
        <ele>1990</ele>
        <time>2010-01-01T05:43:00Z</time>
      </trkpt>
      <trkpt lat="42.30089" lon="1.82886">
        <ele>1993</ele>
        <time>2010-01-01T05:43:09Z</time>
      </trkpt>
      <trkpt lat="42.30094" lon="1.82919">
        <ele>1998</ele>
        <time>2010-01-01T05:43:19Z</time>
      </trkpt>
      <trkpt lat="42.30108" lon="1.82942">
        <ele>2010</ele>
        <time>2010-01-01T05:43:27Z</time>
      </trkpt>
      <trkpt lat="42.30124" lon="1.82958">
        <ele>2012</ele>
        <time>2010-01-01T05:43:36Z</time>
      </trkpt>
      <trkpt lat="42.30138" lon="1.82968">
        <ele>2012</ele>
        <time>2010-01-01T05:43:42Z</time>
      </trkpt>
      <trkpt lat="42.30156" lon="1.82986">
        <ele>2016</ele>
        <time>2010-01-01T05:43:51Z</time>
      </trkpt>
      <trkpt lat="42.30157" lon="1.82992">
        <ele>2018</ele>
        <time>2010-01-01T05:43:52Z</time>
      </trkpt>
      <trkpt lat="42.30168" lon="1.83004">
        <ele>2022</ele>
        <time>2010-01-01T05:43:58Z</time>
      </trkpt>
      <trkpt lat="42.30176" lon="1.83013">
        <ele>2025</ele>
        <time>2010-01-01T05:44:02Z</time>
      </trkpt>
      <trkpt lat="42.30196" lon="1.8303">
        <ele>2029</ele>
        <time>2010-01-01T05:44:12Z</time>
      </trkpt>
      <trkpt lat="42.30209" lon="1.83048">
        <ele>2030</ele>
        <time>2010-01-01T05:44:19Z</time>
      </trkpt>
      <trkpt lat="42.30217" lon="1.83061">
        <ele>2031</ele>
        <time>2010-01-01T05:44:24Z</time>
      </trkpt>
      <trkpt lat="42.3022" lon="1.83069">
        <ele>2032</ele>
        <time>2010-01-01T05:44:27Z</time>
      </trkpt>
      <trkpt lat="42.30233" lon="1.83085">
        <ele>2031</ele>
        <time>2010-01-01T05:44:34Z</time>
      </trkpt>
      <trkpt lat="42.30248" lon="1.83144">
        <ele>2036</ele>
        <time>2010-01-01T05:44:53Z</time>
      </trkpt>
      <trkpt lat="42.30249" lon="1.83158">
        <ele>2038</ele>
        <time>2010-01-01T05:44:57Z</time>
      </trkpt>
      <trkpt lat="42.30248" lon="1.83176">
        <ele>2042</ele>
        <time>2010-01-01T05:45:02Z</time>
      </trkpt>
      <trkpt lat="42.30245" lon="1.83185">
        <ele>2044</ele>
        <time>2010-01-01T05:45:05Z</time>
      </trkpt>
      <trkpt lat="42.30248" lon="1.83234">
        <ele>2050</ele>
        <time>2010-01-01T05:45:20Z</time>
      </trkpt>
      <trkpt lat="42.30246" lon="1.83263">
        <ele>2054</ele>
        <time>2010-01-01T05:45:28Z</time>
      </trkpt>
      <trkpt lat="42.30248" lon="1.83281">
        <ele>2055</ele>
        <time>2010-01-01T05:45:34Z</time>
      </trkpt>
      <trkpt lat="42.30252" lon="1.83295">
        <ele>2052</ele>
        <time>2010-01-01T05:45:38Z</time>
      </trkpt>
      <trkpt lat="42.30267" lon="1.83343">
        <ele>2053</ele>
        <time>2010-01-01T05:45:53Z</time>
      </trkpt>
      <trkpt lat="42.30268" lon="1.83366">
        <ele>2055</ele>
        <time>2010-01-01T05:46:00Z</time>
      </trkpt>
      <trkpt lat="42.30266" lon="1.83373">
        <ele>2054</ele>
        <time>2010-01-01T05:46:02Z</time>
      </trkpt>
      <trkpt lat="42.30264" lon="1.83376">
        <ele>2053</ele>
        <time>2010-01-01T05:46:04Z</time>
      </trkpt>
      <trkpt lat="42.30246" lon="1.83387">
        <ele>2044</ele>
        <time>2010-01-01T05:46:12Z</time>
      </trkpt>
      <trkpt lat="42.3024" lon="1.83405">
        <ele>2039</ele>
        <time>2010-01-01T05:46:17Z</time>
      </trkpt>
      <trkpt lat="42.30224" lon="1.83425">
        <ele>2028</ele>
        <time>2010-01-01T05:46:26Z</time>
      </trkpt>
      <trkpt lat="42.30215" lon="1.83442">
        <ele>2024</ele>
        <time>2010-01-01T05:46:32Z</time>
      </trkpt>
      <trkpt lat="42.30215" lon="1.83445">
        <ele>2023</ele>
        <time>2010-01-01T05:46:33Z</time>
      </trkpt>
      <trkpt lat="42.30221" lon="1.83467">
        <ele>2016</ele>
        <time>2010-01-01T05:46:40Z</time>
      </trkpt>
      <trkpt lat="42.30229" lon="1.83487">
        <ele>2011</ele>
        <time>2010-01-01T05:46:47Z</time>
      </trkpt>
      <trkpt lat="42.3023" lon="1.83498">
        <ele>2007</ele>
        <time>2010-01-01T05:46:50Z</time>
      </trkpt>
      <trkpt lat="42.3024" lon="1.83523">
        <ele>2002</ele>
        <time>2010-01-01T05:46:59Z</time>
      </trkpt>
      <trkpt lat="42.30242" lon="1.83536">
        <ele>1998</ele>
        <time>2010-01-01T05:47:02Z</time>
      </trkpt>
      <trkpt lat="42.30224" lon="1.83546">
        <ele>1982</ele>
        <time>2010-01-01T05:47:10Z</time>
      </trkpt>
      <trkpt lat="42.30226" lon="1.83558">
        <ele>1978</ele>
        <time>2010-01-01T05:47:14Z</time>
      </trkpt>
      <trkpt lat="42.30226" lon="1.83562">
        <ele>1977</ele>
        <time>2010-01-01T05:47:15Z</time>
      </trkpt>
      <trkpt lat="42.30225" lon="1.83564">
        <ele>1976</ele>
        <time>2010-01-01T05:47:16Z</time>
      </trkpt>
      <trkpt lat="42.30233" lon="1.83574">
        <ele>1977</ele>
        <time>2010-01-01T05:47:20Z</time>
      </trkpt>
      <trkpt lat="42.30234" lon="1.83591">
        <ele>1973</ele>
        <time>2010-01-01T05:47:25Z</time>
      </trkpt>
      <trkpt lat="42.30232" lon="1.83598">
        <ele>1970</ele>
        <time>2010-01-01T05:47:28Z</time>
      </trkpt>
      <trkpt lat="42.30233" lon="1.83605">
        <ele>1969</ele>
        <time>2010-01-01T05:47:30Z</time>
      </trkpt>
      <trkpt lat="42.30233" lon="1.83608">
        <ele>1968</ele>
        <time>2010-01-01T05:47:31Z</time>
      </trkpt>
      <trkpt lat="42.30236" lon="1.83612">
        <ele>1968</ele>
        <time>2010-01-01T05:47:32Z</time>
      </trkpt>
      <trkpt lat="42.30236" lon="1.8362">
        <ele>1964</ele>
        <time>2010-01-01T05:47:35Z</time>
      </trkpt>
      <trkpt lat="42.30233" lon="1.8362">
        <ele>1964</ele>
        <time>2010-01-01T05:47:36Z</time>
      </trkpt>
      <trkpt lat="42.30224" lon="1.83624">
        <ele>1961</ele>
        <time>2010-01-01T05:47:40Z</time>
      </trkpt>
      <trkpt lat="42.30221" lon="1.83632">
        <ele>1958</ele>
        <time>2010-01-01T05:47:42Z</time>
      </trkpt>
      <trkpt lat="42.30217" lon="1.83631">
        <ele>1957</ele>
        <time>2010-01-01T05:47:44Z</time>
      </trkpt>
      <trkpt lat="42.30214" lon="1.83628">
        <ele>1957</ele>
        <time>2010-01-01T05:47:45Z</time>
      </trkpt>
      <trkpt lat="42.30217" lon="1.83637">
        <ele>1955</ele>
        <time>2010-01-01T05:47:48Z</time>
      </trkpt>
      <trkpt lat="42.30227" lon="1.83657">
        <ele>1949</ele>
        <time>2010-01-01T05:47:55Z</time>
      </trkpt>
      <trkpt lat="42.30229" lon="1.83671">
        <ele>1944</ele>
        <time>2010-01-01T05:47:59Z</time>
      </trkpt>
      <trkpt lat="42.30233" lon="1.83676">
        <ele>1943</ele>
        <time>2010-01-01T05:48:02Z</time>
      </trkpt>
      <trkpt lat="42.30241" lon="1.83695">
        <ele>1939</ele>
        <time>2010-01-01T05:48:08Z</time>
      </trkpt>
      <trkpt lat="42.30242" lon="1.837">
        <ele>1938</ele>
        <time>2010-01-01T05:48:10Z</time>
      </trkpt>
      <trkpt lat="42.30242" lon="1.83718">
        <ele>1931</ele>
        <time>2010-01-01T05:48:15Z</time>
      </trkpt>
      <trkpt lat="42.30235" lon="1.83743">
        <ele>1924</ele>
        <time>2010-01-01T05:48:23Z</time>
      </trkpt>
      <trkpt lat="42.30231" lon="1.8375">
        <ele>1920</ele>
        <time>2010-01-01T05:48:26Z</time>
      </trkpt>
      <trkpt lat="42.30229" lon="1.83767">
        <ele>1920</ele>
        <time>2010-01-01T05:48:31Z</time>
      </trkpt>
      <trkpt lat="42.30219" lon="1.8379">
        <ele>1915</ele>
        <time>2010-01-01T05:48:39Z</time>
      </trkpt>
      <trkpt lat="42.30216" lon="1.83806">
        <ele>1915</ele>
        <time>2010-01-01T05:48:44Z</time>
      </trkpt>
      <trkpt lat="42.30216" lon="1.83823">
        <ele>1918</ele>
        <time>2010-01-01T05:48:49Z</time>
      </trkpt>
      <trkpt lat="42.30213" lon="1.83865">
        <ele>1916</ele>
        <time>2010-01-01T05:49:01Z</time>
      </trkpt>
      <trkpt lat="42.30206" lon="1.83872">
        <ele>1910</ele>
        <time>2010-01-01T05:49:05Z</time>
      </trkpt>
      <trkpt lat="42.30199" lon="1.83887">
        <ele>1904</ele>
        <time>2010-01-01T05:49:10Z</time>
      </trkpt>
      <trkpt lat="42.30199" lon="1.8389">
        <ele>1904</ele>
        <time>2010-01-01T05:49:11Z</time>
      </trkpt>
      <trkpt lat="42.30197" lon="1.83894">
        <ele>1903</ele>
        <time>2010-01-01T05:49:12Z</time>
      </trkpt>
      <trkpt lat="42.30199" lon="1.83911">
        <ele>1905</ele>
        <time>2010-01-01T05:49:17Z</time>
      </trkpt>
      <trkpt lat="42.30205" lon="1.83918">
        <ele>1907</ele>
        <time>2010-01-01T05:49:20Z</time>
      </trkpt>
      <trkpt lat="42.30216" lon="1.83925">
        <ele>1905</ele>
        <time>2010-01-01T05:49:25Z</time>
      </trkpt>
      <trkpt lat="42.30233" lon="1.83937">
        <ele>1906</ele>
        <time>2010-01-01T05:49:33Z</time>
      </trkpt>
      <trkpt lat="42.30242" lon="1.8395">
        <ele>1909</ele>
        <time>2010-01-01T05:49:38Z</time>
      </trkpt>
      <trkpt lat="42.30257" lon="1.8396">
        <ele>1926</ele>
        <time>2010-01-01T05:49:45Z</time>
      </trkpt>
      <trkpt lat="42.30261" lon="1.83982">
        <ele>1921</ele>
        <time>2010-01-01T05:49:52Z</time>
      </trkpt>
      <trkpt lat="42.30265" lon="1.83988">
        <ele>1921</ele>
        <time>2010-01-01T05:49:54Z</time>
      </trkpt>
      <trkpt lat="42.30272" lon="1.84014">
        <ele>1908</ele>
        <time>2010-01-01T05:50:02Z</time>
      </trkpt>
      <trkpt lat="42.30271" lon="1.8403">
        <ele>1900</ele>
        <time>2010-01-01T05:50:07Z</time>
      </trkpt>
      <trkpt lat="42.30273" lon="1.84045">
        <ele>1888</ele>
        <time>2010-01-01T05:50:11Z</time>
      </trkpt>
      <trkpt lat="42.30277" lon="1.84055">
        <ele>1883</ele>
        <time>2010-01-01T05:50:15Z</time>
      </trkpt>
      <trkpt lat="42.30287" lon="1.84068">
        <ele>1892</ele>
        <time>2010-01-01T05:50:20Z</time>
      </trkpt>
      <trkpt lat="42.30292" lon="1.8407">
        <ele>1898</ele>
        <time>2010-01-01T05:50:22Z</time>
      </trkpt>
      <trkpt lat="42.30293" lon="1.84081">
        <ele>1893</ele>
        <time>2010-01-01T05:50:25Z</time>
      </trkpt>
      <trkpt lat="42.30299" lon="1.84089">
        <ele>1895</ele>
        <time>2010-01-01T05:50:29Z</time>
      </trkpt>
      <trkpt lat="42.30298" lon="1.8409">
        <ele>1891</ele>
        <time>2010-01-01T05:50:29Z</time>
      </trkpt>
      <trkpt lat="42.30299" lon="1.84093">
        <ele>1889</ele>
        <time>2010-01-01T05:50:31Z</time>
      </trkpt>
      <trkpt lat="42.30303" lon="1.84088">
        <ele>1903</ele>
        <time>2010-01-01T05:50:33Z</time>
      </trkpt>
      <trkpt lat="42.30304" lon="1.84082">
        <ele>1910</ele>
        <time>2010-01-01T05:50:35Z</time>
      </trkpt>
      <trkpt lat="42.30306" lon="1.84081">
        <ele>1915</ele>
        <time>2010-01-01T05:50:36Z</time>
      </trkpt>
      <trkpt lat="42.30309" lon="1.84073">
        <ele>1925</ele>
        <time>2010-01-01T05:50:38Z</time>
      </trkpt>
      <trkpt lat="42.30309" lon="1.84078">
        <ele>1922</ele>
        <time>2010-01-01T05:50:39Z</time>
      </trkpt>
      <trkpt lat="42.30316" lon="1.84094">
        <ele>1915</ele>
        <time>2010-01-01T05:50:45Z</time>
      </trkpt>
      <trkpt lat="42.30316" lon="1.841">
        <ele>1908</ele>
        <time>2010-01-01T05:50:47Z</time>
      </trkpt>
      <trkpt lat="42.30319" lon="1.84109">
        <ele>1901</ele>
        <time>2010-01-01T05:50:50Z</time>
      </trkpt>
      <trkpt lat="42.30324" lon="1.84115">
        <ele>1905</ele>
        <time>2010-01-01T05:50:52Z</time>
      </trkpt>
      <trkpt lat="42.30328" lon="1.84126">
        <ele>1905</ele>
        <time>2010-01-01T05:50:56Z</time>
      </trkpt>
      <trkpt lat="42.30326" lon="1.84142">
        <ele>1893</ele>
        <time>2010-01-01T05:51:01Z</time>
      </trkpt>
      <trkpt lat="42.30323" lon="1.84156">
        <ele>1883</ele>
        <time>2010-01-01T05:51:05Z</time>
      </trkpt>
      <trkpt lat="42.30322" lon="1.84184">
        <ele>1865</ele>
        <time>2010-01-01T05:51:13Z</time>
      </trkpt>
      <trkpt lat="42.3032" lon="1.84199">
        <ele>1854</ele>
        <time>2010-01-01T05:51:18Z</time>
      </trkpt>
      <trkpt lat="42.30324" lon="1.84223">
        <ele>1859</ele>
        <time>2010-01-01T05:51:25Z</time>
      </trkpt>
      <trkpt lat="42.3032" lon="1.84232">
        <ele>1857</ele>
        <time>2010-01-01T05:51:28Z</time>
      </trkpt>
      <trkpt lat="42.3032" lon="1.8424">
        <ele>1859</ele>
        <time>2010-01-01T05:51:31Z</time>
      </trkpt>
      <trkpt lat="42.30313" lon="1.8427">
        <ele>1848</ele>
        <time>2010-01-01T05:51:40Z</time>
      </trkpt>
      <trkpt lat="42.3031" lon="1.84287">
        <ele>1845</ele>
        <time>2010-01-01T05:51:45Z</time>
      </trkpt>
      <trkpt lat="42.30312" lon="1.84295">
        <ele>1849</ele>
        <time>2010-01-01T05:51:47Z</time>
      </trkpt>
      <trkpt lat="42.30305" lon="1.84305">
        <ele>1841</ele>
        <time>2010-01-01T05:51:52Z</time>
      </trkpt>
      <trkpt lat="42.30301" lon="1.84306">
        <ele>1838</ele>
        <time>2010-01-01T05:51:53Z</time>
      </trkpt>
      <trkpt lat="42.30296" lon="1.84311">
        <ele>1835</ele>
        <time>2010-01-01T05:51:56Z</time>
      </trkpt>
      <trkpt lat="42.30289" lon="1.84307">
        <ele>1827</ele>
        <time>2010-01-01T05:51:59Z</time>
      </trkpt>
      <trkpt lat="42.30284" lon="1.84308">
        <ele>1822</ele>
        <time>2010-01-01T05:52:01Z</time>
      </trkpt>
      <trkpt lat="42.30279" lon="1.84301">
        <ele>1817</ele>
        <time>2010-01-01T05:52:04Z</time>
      </trkpt>
      <trkpt lat="42.30273" lon="1.84299">
        <ele>1813</ele>
        <time>2010-01-01T05:52:06Z</time>
      </trkpt>
      <trkpt lat="42.3027" lon="1.84275">
        <ele>1811</ele>
        <time>2010-01-01T05:52:13Z</time>
      </trkpt>
      <trkpt lat="42.30259" lon="1.84267">
        <ele>1802</ele>
        <time>2010-01-01T05:52:18Z</time>
      </trkpt>
      <trkpt lat="42.30248" lon="1.84239">
        <ele>1792</ele>
        <time>2010-01-01T05:52:28Z</time>
      </trkpt>
      <trkpt lat="42.30242" lon="1.84244">
        <ele>1788</ele>
        <time>2010-01-01T05:52:31Z</time>
      </trkpt>
      <trkpt lat="42.30238" lon="1.84243">
        <ele>1785</ele>
        <time>2010-01-01T05:52:32Z</time>
      </trkpt>
      <trkpt lat="42.3023" lon="1.84236">
        <ele>1781</ele>
        <time>2010-01-01T05:52:36Z</time>
      </trkpt>
      <trkpt lat="42.3022" lon="1.84219">
        <ele>1774</ele>
        <time>2010-01-01T05:52:43Z</time>
      </trkpt>
      <trkpt lat="42.3021" lon="1.84208">
        <ele>1764</ele>
        <time>2010-01-01T05:52:48Z</time>
      </trkpt>
      <trkpt lat="42.30209" lon="1.84197">
        <ele>1763</ele>
        <time>2010-01-01T05:52:51Z</time>
      </trkpt>
      <trkpt lat="42.30191" lon="1.84163">
        <ele>1775</ele>
        <time>2010-01-01T05:53:03Z</time>
      </trkpt>
      <trkpt lat="42.30186" lon="1.8416">
        <ele>1772</ele>
        <time>2010-01-01T05:53:05Z</time>
      </trkpt>
      <trkpt lat="42.30176" lon="1.84147">
        <ele>1767</ele>
        <time>2010-01-01T05:53:11Z</time>
      </trkpt>
      <trkpt lat="42.30155" lon="1.84139">
        <ele>1741</ele>
        <time>2010-01-01T05:53:20Z</time>
      </trkpt>
      <trkpt lat="42.30149" lon="1.8414">
        <ele>1733</ele>
        <time>2010-01-01T05:53:22Z</time>
      </trkpt>
      <trkpt lat="42.30153" lon="1.84158">
        <ele>1736</ele>
        <time>2010-01-01T05:53:28Z</time>
      </trkpt>
      <trkpt lat="42.30154" lon="1.84171">
        <ele>1733</ele>
        <time>2010-01-01T05:53:32Z</time>
      </trkpt>
      <trkpt lat="42.30148" lon="1.84175">
        <ele>1724</ele>
        <time>2010-01-01T05:53:34Z</time>
      </trkpt>
      <trkpt lat="42.30141" lon="1.84197">
        <ele>1706</ele>
        <time>2010-01-01T05:53:41Z</time>
      </trkpt>
      <trkpt lat="42.30137" lon="1.84195">
        <ele>1703</ele>
        <time>2010-01-01T05:53:43Z</time>
      </trkpt>
      <trkpt lat="42.3013" lon="1.84199">
        <ele>1700</ele>
        <time>2010-01-01T05:53:46Z</time>
      </trkpt>
      <trkpt lat="42.30122" lon="1.84204">
        <ele>1698</ele>
        <time>2010-01-01T05:53:49Z</time>
      </trkpt>
      <trkpt lat="42.30107" lon="1.84205">
        <ele>1692</ele>
        <time>2010-01-01T05:53:55Z</time>
      </trkpt>
      <trkpt lat="42.30094" lon="1.84198">
        <ele>1690</ele>
        <time>2010-01-01T05:54:01Z</time>
      </trkpt>
      <trkpt lat="42.30091" lon="1.84197">
        <ele>1690</ele>
        <time>2010-01-01T05:54:02Z</time>
      </trkpt>
      <trkpt lat="42.30088" lon="1.84194">
        <ele>1689</ele>
        <time>2010-01-01T05:54:04Z</time>
      </trkpt>
      <trkpt lat="42.30089" lon="1.84195">
        <ele>1689</ele>
        <time>2010-01-01T05:54:04Z</time>
      </trkpt>
      <trkpt lat="42.30086" lon="1.84221">
        <ele>1686</ele>
        <time>2010-01-01T05:54:12Z</time>
      </trkpt>
      <trkpt lat="42.30086" lon="1.84234">
        <ele>1688</ele>
        <time>2010-01-01T05:54:16Z</time>
      </trkpt>
      <trkpt lat="42.30085" lon="1.84235">
        <ele>1687</ele>
        <time>2010-01-01T05:54:17Z</time>
      </trkpt>
      <trkpt lat="42.30069" lon="1.84223">
        <ele>1679</ele>
        <time>2010-01-01T05:54:24Z</time>
      </trkpt>
      <trkpt lat="42.30077" lon="1.84236">
        <ele>1684</ele>
        <time>2010-01-01T05:54:29Z</time>
      </trkpt>
      <trkpt lat="42.30084" lon="1.84254">
        <ele>1690</ele>
        <time>2010-01-01T05:54:35Z</time>
      </trkpt>
      <trkpt lat="42.30087" lon="1.84264">
        <ele>1695</ele>
        <time>2010-01-01T05:54:38Z</time>
      </trkpt>
      <trkpt lat="42.30085" lon="1.84267">
        <ele>1695</ele>
        <time>2010-01-01T05:54:39Z</time>
      </trkpt>
      <trkpt lat="42.3008" lon="1.8427">
        <ele>1692</ele>
        <time>2010-01-01T05:54:42Z</time>
      </trkpt>
      <trkpt lat="42.30078" lon="1.84274">
        <ele>1691</ele>
        <time>2010-01-01T05:54:43Z</time>
      </trkpt>
      <trkpt lat="42.30073" lon="1.84273">
        <ele>1685</ele>
        <time>2010-01-01T05:54:45Z</time>
      </trkpt>
      <trkpt lat="42.30071" lon="1.84276">
        <ele>1683</ele>
        <time>2010-01-01T05:54:46Z</time>
      </trkpt>
      <trkpt lat="42.30066" lon="1.84278">
        <ele>1677</ele>
        <time>2010-01-01T05:54:48Z</time>
      </trkpt>
      <trkpt lat="42.30056" lon="1.84273">
        <ele>1665</ele>
        <time>2010-01-01T05:54:53Z</time>
      </trkpt>
      <trkpt lat="42.30051" lon="1.84274">
        <ele>1662</ele>
        <time>2010-01-01T05:54:55Z</time>
      </trkpt>
      <trkpt lat="42.30044" lon="1.84272">
        <ele>1658</ele>
        <time>2010-01-01T05:54:57Z</time>
      </trkpt>
      <trkpt lat="42.30019" lon="1.84259">
        <ele>1646</ele>
        <time>2010-01-01T05:55:08Z</time>
      </trkpt>
      <trkpt lat="42.30022" lon="1.84277">
        <ele>1642</ele>
        <time>2010-01-01T05:55:14Z</time>
      </trkpt>
      <trkpt lat="42.3002" lon="1.84281">
        <ele>1639</ele>
        <time>2010-01-01T05:55:15Z</time>
      </trkpt>
      <trkpt lat="42.30025" lon="1.84291">
        <ele>1641</ele>
        <time>2010-01-01T05:55:19Z</time>
      </trkpt>
      <trkpt lat="42.30018" lon="1.84294">
        <ele>1635</ele>
        <time>2010-01-01T05:55:22Z</time>
      </trkpt>
      <trkpt lat="42.30013" lon="1.84301">
        <ele>1629</ele>
        <time>2010-01-01T05:55:25Z</time>
      </trkpt>
      <trkpt lat="42.30003" lon="1.843">
        <ele>1622</ele>
        <time>2010-01-01T05:55:28Z</time>
      </trkpt>
      <trkpt lat="42.30003" lon="1.84308">
        <ele>1620</ele>
        <time>2010-01-01T05:55:31Z</time>
      </trkpt>
      <trkpt lat="42.30005" lon="1.84311">
        <ele>1621</ele>
        <time>2010-01-01T05:55:32Z</time>
      </trkpt>
      <trkpt lat="42.30001" lon="1.84309">
        <ele>1618</ele>
        <time>2010-01-01T05:55:33Z</time>
      </trkpt>
      <trkpt lat="42.30007" lon="1.84322">
        <ele>1621</ele>
        <time>2010-01-01T05:55:38Z</time>
      </trkpt>
      <trkpt lat="42.30006" lon="1.84365">
        <ele>1616</ele>
        <time>2010-01-01T05:55:51Z</time>
      </trkpt>
      <trkpt lat="42.30003" lon="1.8437">
        <ele>1613</ele>
        <time>2010-01-01T05:55:53Z</time>
      </trkpt>
      <trkpt lat="42.29998" lon="1.84388">
        <ele>1610</ele>
        <time>2010-01-01T05:55:58Z</time>
      </trkpt>
      <trkpt lat="42.29993" lon="1.84394">
        <ele>1606</ele>
        <time>2010-01-01T05:56:01Z</time>
      </trkpt>
      <trkpt lat="42.29993" lon="1.84408">
        <ele>1608</ele>
        <time>2010-01-01T05:56:05Z</time>
      </trkpt>
      <trkpt lat="42.29986" lon="1.84427">
        <ele>1607</ele>
        <time>2010-01-01T05:56:12Z</time>
      </trkpt>
      <trkpt lat="42.29986" lon="1.84434">
        <ele>1610</ele>
        <time>2010-01-01T05:56:14Z</time>
      </trkpt>
      <trkpt lat="42.29971" lon="1.84445">
        <ele>1593</ele>
        <time>2010-01-01T05:56:21Z</time>
      </trkpt>
      <trkpt lat="42.29969" lon="1.84452">
        <ele>1593</ele>
        <time>2010-01-01T05:56:23Z</time>
      </trkpt>
      <trkpt lat="42.29958" lon="1.84456">
        <ele>1584</ele>
        <time>2010-01-01T05:56:27Z</time>
      </trkpt>
      <trkpt lat="42.29956" lon="1.84454">
        <ele>1582</ele>
        <time>2010-01-01T05:56:28Z</time>
      </trkpt>
      <trkpt lat="42.29945" lon="1.84464">
        <ele>1575</ele>
        <time>2010-01-01T05:56:33Z</time>
      </trkpt>
      <trkpt lat="42.29939" lon="1.84489">
        <ele>1578</ele>
        <time>2010-01-01T05:56:41Z</time>
      </trkpt>
      <trkpt lat="42.29934" lon="1.84499">
        <ele>1577</ele>
        <time>2010-01-01T05:56:45Z</time>
      </trkpt>
      <trkpt lat="42.29928" lon="1.84521">
        <ele>1581</ele>
        <time>2010-01-01T05:56:52Z</time>
      </trkpt>
      <trkpt lat="42.29917" lon="1.84526">
        <ele>1573</ele>
        <time>2010-01-01T05:56:56Z</time>
      </trkpt>
      <trkpt lat="42.29913" lon="1.84531">
        <ele>1575</ele>
        <time>2010-01-01T05:56:59Z</time>
      </trkpt>
      <trkpt lat="42.29896" lon="1.84542">
        <ele>1569</ele>
        <time>2010-01-01T05:57:06Z</time>
      </trkpt>
      <trkpt lat="42.2989" lon="1.8455">
        <ele>1567</ele>
        <time>2010-01-01T05:57:09Z</time>
      </trkpt>
      <trkpt lat="42.29878" lon="1.84553">
        <ele>1552</ele>
        <time>2010-01-01T05:57:15Z</time>
      </trkpt>
      <trkpt lat="42.2986" lon="1.84555">
        <ele>1530</ele>
        <time>2010-01-01T05:57:21Z</time>
      </trkpt>
      <trkpt lat="42.29857" lon="1.84557">
        <ele>1530</ele>
        <time>2010-01-01T05:57:23Z</time>
      </trkpt>
      <trkpt lat="42.29826" lon="1.84569">
        <ele>1528</ele>
        <time>2010-01-01T05:57:36Z</time>
      </trkpt>
      <trkpt lat="42.29811" lon="1.84568">
        <ele>1526</ele>
        <time>2010-01-01T05:57:42Z</time>
      </trkpt>
      <trkpt lat="42.29806" lon="1.84573">
        <ele>1526</ele>
        <time>2010-01-01T05:57:44Z</time>
      </trkpt>
      <trkpt lat="42.29804" lon="1.8457">
        <ele>1524</ele>
        <time>2010-01-01T05:57:46Z</time>
      </trkpt>
      <trkpt lat="42.298" lon="1.84581">
        <ele>1525</ele>
        <time>2010-01-01T05:57:49Z</time>
      </trkpt>
      <trkpt lat="42.29785" lon="1.84601">
        <ele>1521</ele>
        <time>2010-01-01T05:57:58Z</time>
      </trkpt>
      <trkpt lat="42.29781" lon="1.84612">
        <ele>1523</ele>
        <time>2010-01-01T05:58:01Z</time>
      </trkpt>
      <trkpt lat="42.29775" lon="1.8462">
        <ele>1524</ele>
        <time>2010-01-01T05:58:05Z</time>
      </trkpt>
      <trkpt lat="42.29759" lon="1.84635">
        <ele>1523</ele>
        <time>2010-01-01T05:58:13Z</time>
      </trkpt>
      <trkpt lat="42.29748" lon="1.84644">
        <ele>1522</ele>
        <time>2010-01-01T05:58:18Z</time>
      </trkpt>
      <trkpt lat="42.29739" lon="1.84646">
        <ele>1518</ele>
        <time>2010-01-01T05:58:21Z</time>
      </trkpt>
      <trkpt lat="42.29732" lon="1.84654">
        <ele>1517</ele>
        <time>2010-01-01T05:58:25Z</time>
      </trkpt>
      <trkpt lat="42.29709" lon="1.84661">
        <ele>1507</ele>
        <time>2010-01-01T05:58:34Z</time>
      </trkpt>
      <trkpt lat="42.29706" lon="1.84664">
        <ele>1507</ele>
        <time>2010-01-01T05:58:36Z</time>
      </trkpt>
      <trkpt lat="42.29695" lon="1.84665">
        <ele>1501</ele>
        <time>2010-01-01T05:58:40Z</time>
      </trkpt>
      <trkpt lat="42.29675" lon="1.84674">
        <ele>1504</ele>
        <time>2010-01-01T05:58:49Z</time>
      </trkpt>
      <trkpt lat="42.29646" lon="1.84682">
        <ele>1505</ele>
        <time>2010-01-01T05:59:01Z</time>
      </trkpt>
      <trkpt lat="42.29631" lon="1.8468">
        <ele>1499</ele>
        <time>2010-01-01T05:59:07Z</time>
      </trkpt>
      <trkpt lat="42.29606" lon="1.84683">
        <ele>1490</ele>
        <time>2010-01-01T05:59:17Z</time>
      </trkpt>
      <trkpt lat="42.29597" lon="1.84688">
        <ele>1488</ele>
        <time>2010-01-01T05:59:21Z</time>
      </trkpt>
      <trkpt lat="42.29582" lon="1.84701">
        <ele>1485</ele>
        <time>2010-01-01T05:59:28Z</time>
      </trkpt>
      <trkpt lat="42.29577" lon="1.84709">
        <ele>1485</ele>
        <time>2010-01-01T05:59:31Z</time>
      </trkpt>
      <trkpt lat="42.29564" lon="1.84722">
        <ele>1482</ele>
        <time>2010-01-01T05:59:37Z</time>
      </trkpt>
      <trkpt lat="42.29561" lon="1.84725">
        <ele>1481</ele>
        <time>2010-01-01T05:59:38Z</time>
      </trkpt>
      <trkpt lat="42.29551" lon="1.84729">
        <ele>1477</ele>
        <time>2010-01-01T05:59:43Z</time>
      </trkpt>
      <trkpt lat="42.29528" lon="1.84753">
        <ele>1473</ele>
        <time>2010-01-01T05:59:54Z</time>
      </trkpt>
      <trkpt lat="42.29518" lon="1.8476">
        <ele>1468</ele>
        <time>2010-01-01T05:59:59Z</time>
      </trkpt>
      <trkpt lat="42.29515" lon="1.84768">
        <ele>1469</ele>
        <time>2010-01-01T06:00:02Z</time>
      </trkpt>
      <trkpt lat="42.29506" lon="1.84778">
        <ele>1468</ele>
        <time>2010-01-01T06:00:06Z</time>
      </trkpt>
      <trkpt lat="42.29497" lon="1.84785">
        <ele>1464</ele>
        <time>2010-01-01T06:00:11Z</time>
      </trkpt>
      <trkpt lat="42.29478" lon="1.84793">
        <ele>1456</ele>
        <time>2010-01-01T06:00:18Z</time>
      </trkpt>
      <trkpt lat="42.29475" lon="1.84797">
        <ele>1455</ele>
        <time>2010-01-01T06:00:20Z</time>
      </trkpt>
      <trkpt lat="42.29451" lon="1.84807">
        <ele>1442</ele>
        <time>2010-01-01T06:00:30Z</time>
      </trkpt>
      <trkpt lat="42.29443" lon="1.84808">
        <ele>1437</ele>
        <time>2010-01-01T06:00:33Z</time>
      </trkpt>
      <trkpt lat="42.29429" lon="1.84807">
        <ele>1430</ele>
        <time>2010-01-01T06:00:39Z</time>
      </trkpt>
      <trkpt lat="42.29427" lon="1.84803">
        <ele>1428</ele>
        <time>2010-01-01T06:00:40Z</time>
      </trkpt>
      <trkpt lat="42.29413" lon="1.84809">
        <ele>1423</ele>
        <time>2010-01-01T06:00:46Z</time>
      </trkpt>
      <trkpt lat="42.29404" lon="1.84815">
        <ele>1420</ele>
        <time>2010-01-01T06:00:50Z</time>
      </trkpt>
      <trkpt lat="42.29393" lon="1.84813">
        <ele>1416</ele>
        <time>2010-01-01T06:00:54Z</time>
      </trkpt>
      <trkpt lat="42.29389" lon="1.84817">
        <ele>1415</ele>
        <time>2010-01-01T06:00:56Z</time>
      </trkpt>
      <trkpt lat="42.29383" lon="1.84816">
        <ele>1412</ele>
        <time>2010-01-01T06:00:59Z</time>
      </trkpt>
      <trkpt lat="42.29379" lon="1.84818">
        <ele>1411</ele>
        <time>2010-01-01T06:01:01Z</time>
      </trkpt>
      <trkpt lat="42.29368" lon="1.84821">
        <ele>1408</ele>
        <time>2010-01-01T06:01:05Z</time>
      </trkpt>
      <trkpt lat="42.29361" lon="1.84827">
        <ele>1405</ele>
        <time>2010-01-01T06:01:09Z</time>
      </trkpt>
      <trkpt lat="42.29352" lon="1.84839">
        <ele>1402</ele>
        <time>2010-01-01T06:01:14Z</time>
      </trkpt>
      <trkpt lat="42.29336" lon="1.8483">
        <ele>1397</ele>
        <time>2010-01-01T06:01:21Z</time>
      </trkpt>
      <trkpt lat="42.29311" lon="1.84819">
        <ele>1388</ele>
        <time>2010-01-01T06:01:31Z</time>
      </trkpt>
      <trkpt lat="42.29305" lon="1.84813">
        <ele>1386</ele>
        <time>2010-01-01T06:01:34Z</time>
      </trkpt>
      <trkpt lat="42.29304" lon="1.84799">
        <ele>1385</ele>
        <time>2010-01-01T06:01:38Z</time>
      </trkpt>
      <trkpt lat="42.29306" lon="1.84792">
        <ele>1385</ele>
        <time>2010-01-01T06:01:41Z</time>
      </trkpt>
      <trkpt lat="42.29304" lon="1.84788">
        <ele>1384</ele>
        <time>2010-01-01T06:01:42Z</time>
      </trkpt>
      <trkpt lat="42.29293" lon="1.84785">
        <ele>1378</ele>
        <time>2010-01-01T06:01:47Z</time>
      </trkpt>
      <trkpt lat="42.29289" lon="1.84788">
        <ele>1376</ele>
        <time>2010-01-01T06:01:49Z</time>
      </trkpt>
      <trkpt lat="42.29279" lon="1.84797">
        <ele>1372</ele>
        <time>2010-01-01T06:01:53Z</time>
      </trkpt>
      <trkpt lat="42.29274" lon="1.84807">
        <ele>1372</ele>
        <time>2010-01-01T06:01:57Z</time>
      </trkpt>
      <trkpt lat="42.29262" lon="1.84817">
        <ele>1369</ele>
        <time>2010-01-01T06:02:02Z</time>
      </trkpt>
      <trkpt lat="42.29255" lon="1.84819">
        <ele>1366</ele>
        <time>2010-01-01T06:02:05Z</time>
      </trkpt>
      <trkpt lat="42.29229" lon="1.8483">
        <ele>1359</ele>
        <time>2010-01-01T06:02:17Z</time>
      </trkpt>
      <trkpt lat="42.29217" lon="1.84829">
        <ele>1356</ele>
        <time>2010-01-01T06:02:21Z</time>
      </trkpt>
      <trkpt lat="42.29204" lon="1.84825">
        <ele>1353</ele>
        <time>2010-01-01T06:02:27Z</time>
      </trkpt>
      <trkpt lat="42.29182" lon="1.84824">
        <ele>1351</ele>
        <time>2010-01-01T06:02:35Z</time>
      </trkpt>
      <trkpt lat="42.29153" lon="1.84817">
        <ele>1347</ele>
        <time>2010-01-01T06:02:47Z</time>
      </trkpt>
      <trkpt lat="42.29147" lon="1.8482">
        <ele>1346</ele>
        <time>2010-01-01T06:02:50Z</time>
      </trkpt>
      <trkpt lat="42.29122" lon="1.84812">
        <ele>1339</ele>
        <time>2010-01-01T06:03:00Z</time>
      </trkpt>
      <trkpt lat="42.29089" lon="1.84813">
        <ele>1332</ele>
        <time>2010-01-01T06:03:13Z</time>
      </trkpt>
      <trkpt lat="42.29081" lon="1.84809">
        <ele>1330</ele>
        <time>2010-01-01T06:03:17Z</time>
      </trkpt>
      <trkpt lat="42.29074" lon="1.84801">
        <ele>1326</ele>
        <time>2010-01-01T06:03:20Z</time>
      </trkpt>
      <trkpt lat="42.29054" lon="1.84791">
        <ele>1317</ele>
        <time>2010-01-01T06:03:29Z</time>
      </trkpt>
      <trkpt lat="42.29046" lon="1.84792">
        <ele>1315</ele>
        <time>2010-01-01T06:03:32Z</time>
      </trkpt>
      <trkpt lat="42.29038" lon="1.84807">
        <ele>1317</ele>
        <time>2010-01-01T06:03:38Z</time>
      </trkpt>
      <trkpt lat="42.29031" lon="1.84814">
        <ele>1315</ele>
        <time>2010-01-01T06:03:41Z</time>
      </trkpt>
      <trkpt lat="42.29021" lon="1.84815">
        <ele>1311</ele>
        <time>2010-01-01T06:03:45Z</time>
      </trkpt>
      <trkpt lat="42.2902" lon="1.84812">
        <ele>1310</ele>
        <time>2010-01-01T06:03:46Z</time>
      </trkpt>
      <trkpt lat="42.29023" lon="1.84798">
        <ele>1310</ele>
        <time>2010-01-01T06:03:50Z</time>
      </trkpt>
      <trkpt lat="42.29014" lon="1.84783">
        <ele>1304</ele>
        <time>2010-01-01T06:03:56Z</time>
      </trkpt>
      <trkpt lat="42.29009" lon="1.84779">
        <ele>1301</ele>
        <time>2010-01-01T06:03:58Z</time>
      </trkpt>
      <trkpt lat="42.29007" lon="1.84771">
        <ele>1298</ele>
        <time>2010-01-01T06:04:01Z</time>
      </trkpt>
      <trkpt lat="42.29008" lon="1.84764">
        <ele>1297</ele>
        <time>2010-01-01T06:04:03Z</time>
      </trkpt>
      <trkpt lat="42.28985" lon="1.84761">
        <ele>1288</ele>
        <time>2010-01-01T06:04:13Z</time>
      </trkpt>
      <trkpt lat="42.2898" lon="1.84762">
        <ele>1286</ele>
        <time>2010-01-01T06:04:14Z</time>
      </trkpt>
      <trkpt lat="42.28977" lon="1.84765">
        <ele>1285</ele>
        <time>2010-01-01T06:04:16Z</time>
      </trkpt>
      <trkpt lat="42.28971" lon="1.84766">
        <ele>1283</ele>
        <time>2010-01-01T06:04:18Z</time>
      </trkpt>
      <trkpt lat="42.2897" lon="1.84767">
        <ele>1283</ele>
        <time>2010-01-01T06:04:19Z</time>
      </trkpt>
      <trkpt lat="42.28967" lon="1.84766">
        <ele>1281</ele>
        <time>2010-01-01T06:04:20Z</time>
      </trkpt>
      <trkpt lat="42.28969" lon="1.84756">
        <ele>1280</ele>
        <time>2010-01-01T06:04:23Z</time>
      </trkpt>
      <trkpt lat="42.28963" lon="1.84744">
        <ele>1276</ele>
        <time>2010-01-01T06:04:27Z</time>
      </trkpt>
      <trkpt lat="42.28966" lon="1.84736">
        <ele>1275</ele>
        <time>2010-01-01T06:04:30Z</time>
      </trkpt>
      <trkpt lat="42.28964" lon="1.8472">
        <ele>1271</ele>
        <time>2010-01-01T06:04:35Z</time>
      </trkpt>
      <trkpt lat="42.28963" lon="1.84717">
        <ele>1270</ele>
        <time>2010-01-01T06:04:36Z</time>
      </trkpt>
      <trkpt lat="42.2896" lon="1.84715">
        <ele>1269</ele>
        <time>2010-01-01T06:04:37Z</time>
      </trkpt>
      <trkpt lat="42.28926" lon="1.84737">
        <ele>1262</ele>
        <time>2010-01-01T06:04:52Z</time>
      </trkpt>
      <trkpt lat="42.28911" lon="1.84764">
        <ele>1261</ele>
        <time>2010-01-01T06:05:02Z</time>
      </trkpt>
      <trkpt lat="42.28908" lon="1.84767">
        <ele>1260</ele>
        <time>2010-01-01T06:05:04Z</time>
      </trkpt>
      <trkpt lat="42.28905" lon="1.84756">
        <ele>1258</ele>
        <time>2010-01-01T06:05:07Z</time>
      </trkpt>
      <trkpt lat="42.289" lon="1.84748">
        <ele>1255</ele>
        <time>2010-01-01T06:05:10Z</time>
      </trkpt>
      <trkpt lat="42.28898" lon="1.84739">
        <ele>1253</ele>
        <time>2010-01-01T06:05:13Z</time>
      </trkpt>
      <trkpt lat="42.28892" lon="1.84738">
        <ele>1250</ele>
        <time>2010-01-01T06:05:15Z</time>
      </trkpt>
      <trkpt lat="42.28881" lon="1.84724">
        <ele>1243</ele>
        <time>2010-01-01T06:05:21Z</time>
      </trkpt>
      <trkpt lat="42.28872" lon="1.84716">
        <ele>1238</ele>
        <time>2010-01-01T06:05:25Z</time>
      </trkpt>
      <trkpt lat="42.28854" lon="1.84707">
        <ele>1228</ele>
        <time>2010-01-01T06:05:33Z</time>
      </trkpt>
      <trkpt lat="42.28833" lon="1.84716">
        <ele>1223</ele>
        <time>2010-01-01T06:05:42Z</time>
      </trkpt>
      <trkpt lat="42.28816" lon="1.84735">
        <ele>1219</ele>
        <time>2010-01-01T06:05:51Z</time>
      </trkpt>
      <trkpt lat="42.28805" lon="1.8474">
        <ele>1215</ele>
        <time>2010-01-01T06:05:55Z</time>
      </trkpt>
      <trkpt lat="42.28794" lon="1.84751">
        <ele>1211</ele>
        <time>2010-01-01T06:06:01Z</time>
      </trkpt>
      <trkpt lat="42.28784" lon="1.84752">
        <ele>1208</ele>
        <time>2010-01-01T06:06:05Z</time>
      </trkpt>
      <trkpt lat="42.28774" lon="1.84746">
        <ele>1203</ele>
        <time>2010-01-01T06:06:09Z</time>
      </trkpt>
      <trkpt lat="42.28765" lon="1.84746">
        <ele>1202</ele>
        <time>2010-01-01T06:06:13Z</time>
      </trkpt>
      <trkpt lat="42.28731" lon="1.84766">
        <ele>1194</ele>
        <time>2010-01-01T06:06:28Z</time>
      </trkpt>
      <trkpt lat="42.28718" lon="1.84786">
        <ele>1191</ele>
        <time>2010-01-01T06:06:36Z</time>
      </trkpt>
      <trkpt lat="42.28707" lon="1.84793">
        <ele>1186</ele>
        <time>2010-01-01T06:06:41Z</time>
      </trkpt>
      <trkpt lat="42.28697" lon="1.84803">
        <ele>1183</ele>
        <time>2010-01-01T06:06:46Z</time>
      </trkpt>
      <trkpt lat="42.28687" lon="1.84806">
        <ele>1179</ele>
        <time>2010-01-01T06:06:50Z</time>
      </trkpt>
      <trkpt lat="42.28681" lon="1.84812">
        <ele>1176</ele>
        <time>2010-01-01T06:06:53Z</time>
      </trkpt>
      <trkpt lat="42.28676" lon="1.84812">
        <ele>1173</ele>
        <time>2010-01-01T06:06:55Z</time>
      </trkpt>
      <trkpt lat="42.28673" lon="1.84813">
        <ele>1172</ele>
        <time>2010-01-01T06:06:56Z</time>
      </trkpt>
      <trkpt lat="42.28665" lon="1.84825">
        <ele>1168</ele>
        <time>2010-01-01T06:07:01Z</time>
      </trkpt>
      <trkpt lat="42.28662" lon="1.84824">
        <ele>1166</ele>
        <time>2010-01-01T06:07:02Z</time>
      </trkpt>
      <trkpt lat="42.28658" lon="1.84834">
        <ele>1164</ele>
        <time>2010-01-01T06:07:05Z</time>
      </trkpt>
      <trkpt lat="42.28654" lon="1.84839">
        <ele>1162</ele>
        <time>2010-01-01T06:07:08Z</time>
      </trkpt>
      <trkpt lat="42.28645" lon="1.84841">
        <ele>1157</ele>
        <time>2010-01-01T06:07:11Z</time>
      </trkpt>
      <trkpt lat="42.28639" lon="1.84851">
        <ele>1155</ele>
        <time>2010-01-01T06:07:15Z</time>
      </trkpt>
      <trkpt lat="42.28633" lon="1.84848">
        <ele>1151</ele>
        <time>2010-01-01T06:07:18Z</time>
      </trkpt>
      <trkpt lat="42.28626" lon="1.84854">
        <ele>1148</ele>
        <time>2010-01-01T06:07:21Z</time>
      </trkpt>
      <trkpt lat="42.28621" lon="1.8485">
        <ele>1145</ele>
        <time>2010-01-01T06:07:23Z</time>
      </trkpt>
      <trkpt lat="42.28616" lon="1.84862">
        <ele>1144</ele>
        <time>2010-01-01T06:07:27Z</time>
      </trkpt>
      <trkpt lat="42.28613" lon="1.84865">
        <ele>1143</ele>
        <time>2010-01-01T06:07:29Z</time>
      </trkpt>
      <trkpt lat="42.28607" lon="1.84886">
        <ele>1139</ele>
        <time>2010-01-01T06:07:36Z</time>
      </trkpt>
      <trkpt lat="42.28602" lon="1.84884">
        <ele>1136</ele>
        <time>2010-01-01T06:07:38Z</time>
      </trkpt>
      <trkpt lat="42.28599" lon="1.84893">
        <ele>1134</ele>
        <time>2010-01-01T06:07:41Z</time>
      </trkpt>
      <trkpt lat="42.28597" lon="1.84892">
        <ele>1132</ele>
        <time>2010-01-01T06:07:42Z</time>
      </trkpt>
      <trkpt lat="42.28592" lon="1.8487">
        <ele>1129</ele>
        <time>2010-01-01T06:07:49Z</time>
      </trkpt>
      <trkpt lat="42.28585" lon="1.84849">
        <ele>1124</ele>
        <time>2010-01-01T06:07:56Z</time>
      </trkpt>
      <trkpt lat="42.28588" lon="1.84813">
        <ele>1123</ele>
        <time>2010-01-01T06:08:06Z</time>
      </trkpt>
      <trkpt lat="42.28588" lon="1.84768">
        <ele>1120</ele>
        <time>2010-01-01T06:08:20Z</time>
      </trkpt>
      <trkpt lat="42.28591" lon="1.84739">
        <ele>1119</ele>
        <time>2010-01-01T06:08:28Z</time>
      </trkpt>
      <trkpt lat="42.28595" lon="1.84704">
        <ele>1117</ele>
        <time>2010-01-01T06:08:39Z</time>
      </trkpt>
      <trkpt lat="42.28609" lon="1.84679">
        <ele>1120</ele>
        <time>2010-01-01T06:08:48Z</time>
      </trkpt>
      <trkpt lat="42.28614" lon="1.84664">
        <ele>1121</ele>
        <time>2010-01-01T06:08:53Z</time>
      </trkpt>
      <trkpt lat="42.28614" lon="1.84642">
        <ele>1119</ele>
        <time>2010-01-01T06:08:59Z</time>
      </trkpt>
      <trkpt lat="42.28624" lon="1.84613">
        <ele>1119</ele>
        <time>2010-01-01T06:09:09Z</time>
      </trkpt>
      <trkpt lat="42.28631" lon="1.84581">
        <ele>1119</ele>
        <time>2010-01-01T06:09:19Z</time>
      </trkpt>
      <trkpt lat="42.28633" lon="1.84555">
        <ele>1119</ele>
        <time>2010-01-01T06:09:26Z</time>
      </trkpt>
      <trkpt lat="42.28639" lon="1.84536">
        <ele>1119</ele>
        <time>2010-01-01T06:09:33Z</time>
      </trkpt>
      <trkpt lat="42.28618" lon="1.84541">
        <ele>1111</ele>
        <time>2010-01-01T06:09:41Z</time>
      </trkpt>
      <trkpt lat="42.28609" lon="1.84558">
        <ele>1109</ele>
        <time>2010-01-01T06:09:48Z</time>
      </trkpt>
      <trkpt lat="42.28597" lon="1.84603">
        <ele>1108</ele>
        <time>2010-01-01T06:10:02Z</time>
      </trkpt>
      <trkpt lat="42.28584" lon="1.84641">
        <ele>1106</ele>
        <time>2010-01-01T06:10:14Z</time>
      </trkpt>
      <trkpt lat="42.28562" lon="1.84667">
        <ele>1100</ele>
        <time>2010-01-01T06:10:26Z</time>
      </trkpt>
      <trkpt lat="42.28541" lon="1.84708">
        <ele>1094</ele>
        <time>2010-01-01T06:10:41Z</time>
      </trkpt>
      <trkpt lat="42.28509" lon="1.8475">
        <ele>1089</ele>
        <time>2010-01-01T06:10:59Z</time>
      </trkpt>
      <trkpt lat="42.28493" lon="1.8476">
        <ele>1085</ele>
        <time>2010-01-01T06:11:05Z</time>
      </trkpt>
      <trkpt lat="42.28478" lon="1.84777">
        <ele>1082</ele>
        <time>2010-01-01T06:11:13Z</time>
      </trkpt>
      <trkpt lat="42.28466" lon="1.848">
        <ele>1083</ele>
        <time>2010-01-01T06:11:22Z</time>
      </trkpt>
      <trkpt lat="42.28446" lon="1.84823">
        <ele>1085</ele>
        <time>2010-01-01T06:11:32Z</time>
      </trkpt>
      <trkpt lat="42.28429" lon="1.84822">
        <ele>1084</ele>
        <time>2010-01-01T06:11:39Z</time>
      </trkpt>
      <trkpt lat="42.28401" lon="1.84817">
        <ele>1084</ele>
        <time>2010-01-01T06:11:50Z</time>
      </trkpt>
      <trkpt lat="42.2839" lon="1.84814">
        <ele>1085</ele>
        <time>2010-01-01T06:11:55Z</time>
      </trkpt>
      <trkpt lat="42.28384" lon="1.8481">
        <ele>1083</ele>
        <time>2010-01-01T06:11:57Z</time>
      </trkpt>
      <trkpt lat="42.2838" lon="1.84811">
        <ele>1083</ele>
        <time>2010-01-01T06:11:59Z</time>
      </trkpt>
      <trkpt lat="42.28373" lon="1.84807">
        <ele>1082</ele>
        <time>2010-01-01T06:12:02Z</time>
      </trkpt>
      <trkpt lat="42.28357" lon="1.84793">
        <ele>1078</ele>
        <time>2010-01-01T06:12:10Z</time>
      </trkpt>
      <trkpt lat="42.28347" lon="1.84782">
        <ele>1074</ele>
        <time>2010-01-01T06:12:15Z</time>
      </trkpt>
      <trkpt lat="42.28343" lon="1.84783">
        <ele>1074</ele>
        <time>2010-01-01T06:12:16Z</time>
      </trkpt>
      <trkpt lat="42.28336" lon="1.84771">
        <ele>1071</ele>
        <time>2010-01-01T06:12:21Z</time>
      </trkpt>
      <trkpt lat="42.28333" lon="1.84761">
        <ele>1069</ele>
        <time>2010-01-01T06:12:24Z</time>
      </trkpt>
      <trkpt lat="42.28331" lon="1.8473">
        <ele>1062</ele>
        <time>2010-01-01T06:12:33Z</time>
      </trkpt>
      <trkpt lat="42.28326" lon="1.84699">
        <ele>1055</ele>
        <time>2010-01-01T06:12:43Z</time>
      </trkpt>
      <trkpt lat="42.28327" lon="1.84694">
        <ele>1054</ele>
        <time>2010-01-01T06:12:44Z</time>
      </trkpt>
      <trkpt lat="42.28326" lon="1.84689">
        <ele>1053</ele>
        <time>2010-01-01T06:12:46Z</time>
      </trkpt>
      <trkpt lat="42.28315" lon="1.84681">
        <ele>1052</ele>
        <time>2010-01-01T06:12:51Z</time>
      </trkpt>
      <trkpt lat="42.28297" lon="1.84684">
        <ele>1050</ele>
        <time>2010-01-01T06:12:58Z</time>
      </trkpt>
      <trkpt lat="42.28278" lon="1.84695">
        <ele>1047</ele>
        <time>2010-01-01T06:13:06Z</time>
      </trkpt>
      <trkpt lat="42.28265" lon="1.84708">
        <ele>1044</ele>
        <time>2010-01-01T06:13:13Z</time>
      </trkpt>
      <trkpt lat="42.28256" lon="1.84717">
        <ele>1042</ele>
        <time>2010-01-01T06:13:17Z</time>
      </trkpt>
      <trkpt lat="42.28246" lon="1.84733">
        <ele>1040</ele>
        <time>2010-01-01T06:13:24Z</time>
      </trkpt>
      <trkpt lat="42.28235" lon="1.84759">
        <ele>1038</ele>
        <time>2010-01-01T06:13:32Z</time>
      </trkpt>
      <trkpt lat="42.28229" lon="1.84786">
        <ele>1037</ele>
        <time>2010-01-01T06:13:41Z</time>
      </trkpt>
      <trkpt lat="42.28219" lon="1.84813">
        <ele>1034</ele>
        <time>2010-01-01T06:13:50Z</time>
      </trkpt>
      <trkpt lat="42.28182" lon="1.84862">
        <ele>1029</ele>
        <time>2010-01-01T06:14:10Z</time>
      </trkpt>
      <trkpt lat="42.28179" lon="1.84878">
        <ele>1029</ele>
        <time>2010-01-01T06:14:15Z</time>
      </trkpt>
      <trkpt lat="42.28175" lon="1.84882">
        <ele>1027</ele>
        <time>2010-01-01T06:14:17Z</time>
      </trkpt>
      <trkpt lat="42.28145" lon="1.84903">
        <ele>1016</ele>
        <time>2010-01-01T06:14:31Z</time>
      </trkpt>
      <trkpt lat="42.28122" lon="1.84917">
        <ele>1011</ele>
        <time>2010-01-01T06:14:41Z</time>
      </trkpt>
      <trkpt lat="42.28097" lon="1.84893">
        <ele>1012</ele>
        <time>2010-01-01T06:14:53Z</time>
      </trkpt>
      <trkpt lat="42.28103" lon="1.84899">
        <ele>1011</ele>
        <time>2010-01-01T06:14:56Z</time>
      </trkpt>
      <trkpt lat="42.28121" lon="1.84909">
        <ele>1011</ele>
        <time>2010-01-01T06:15:04Z</time>
      </trkpt>
      <trkpt lat="42.2813" lon="1.84905">
        <ele>1012</ele>
        <time>2010-01-01T06:15:07Z</time>
      </trkpt>
      <trkpt lat="42.28147" lon="1.84893">
        <ele>1016</ele>
        <time>2010-01-01T06:15:15Z</time>
      </trkpt>
      <trkpt lat="42.28154" lon="1.84885">
        <ele>1019</ele>
        <time>2010-01-01T06:15:19Z</time>
      </trkpt>
      <trkpt lat="42.28153" lon="1.84884">
        <ele>1018</ele>
        <time>2010-01-01T06:15:19Z</time>
      </trkpt>
      <trkpt lat="42.28114" lon="1.84886">
        <ele>1012</ele>
        <time>2010-01-01T06:15:35Z</time>
      </trkpt>
      <trkpt lat="42.28104" lon="1.84883">
        <ele>1014</ele>
        <time>2010-01-01T06:15:39Z</time>
      </trkpt>
      <trkpt lat="42.28103" lon="1.84858">
        <ele>1022</ele>
        <time>2010-01-01T06:15:46Z</time>
      </trkpt>
      <trkpt lat="42.28113" lon="1.84836">
        <ele>1030</ele>
        <time>2010-01-01T06:15:54Z</time>
      </trkpt>
      <trkpt lat="42.28114" lon="1.84823">
        <ele>1035</ele>
        <time>2010-01-01T06:15:58Z</time>
      </trkpt>
      <trkpt lat="42.28118" lon="1.84811">
        <ele>1040</ele>
        <time>2010-01-01T06:16:02Z</time>
      </trkpt>
      <trkpt lat="42.28126" lon="1.84806">
        <ele>1040</ele>
        <time>2010-01-01T06:16:06Z</time>
      </trkpt>
      <trkpt lat="42.28134" lon="1.84798">
        <ele>1042</ele>
        <time>2010-01-01T06:16:09Z</time>
      </trkpt>
      <trkpt lat="42.28138" lon="1.84785">
        <ele>1045</ele>
        <time>2010-01-01T06:16:14Z</time>
      </trkpt>
      <trkpt lat="42.28149" lon="1.84765">
        <ele>1050</ele>
        <time>2010-01-01T06:16:21Z</time>
      </trkpt>
      <trkpt lat="42.28157" lon="1.8474">
        <ele>1056</ele>
        <time>2010-01-01T06:16:29Z</time>
      </trkpt>
      <trkpt lat="42.28167" lon="1.84716">
        <ele>1060</ele>
        <time>2010-01-01T06:16:37Z</time>
      </trkpt>
      <trkpt lat="42.28171" lon="1.84705">
        <ele>1062</ele>
        <time>2010-01-01T06:16:41Z</time>
      </trkpt>
      <trkpt lat="42.28175" lon="1.84679">
        <ele>1068</ele>
        <time>2010-01-01T06:16:49Z</time>
      </trkpt>
      <trkpt lat="42.28174" lon="1.84666">
        <ele>1074</ele>
        <time>2010-01-01T06:16:53Z</time>
      </trkpt>
      <trkpt lat="42.28179" lon="1.84655">
        <ele>1075</ele>
        <time>2010-01-01T06:16:57Z</time>
      </trkpt>
      <trkpt lat="42.28176" lon="1.84627">
        <ele>1086</ele>
        <time>2010-01-01T06:17:05Z</time>
      </trkpt>
      <trkpt lat="42.28181" lon="1.84615">
        <ele>1088</ele>
        <time>2010-01-01T06:17:09Z</time>
      </trkpt>
      <trkpt lat="42.28181" lon="1.84602">
        <ele>1092</ele>
        <time>2010-01-01T06:17:13Z</time>
      </trkpt>
      <trkpt lat="42.28183" lon="1.84574">
        <ele>1097</ele>
        <time>2010-01-01T06:17:21Z</time>
      </trkpt>
      <trkpt lat="42.28178" lon="1.84564">
        <ele>1102</ele>
        <time>2010-01-01T06:17:25Z</time>
      </trkpt>
      <trkpt lat="42.2818" lon="1.84551">
        <ele>1104</ele>
        <time>2010-01-01T06:17:29Z</time>
      </trkpt>
      <trkpt lat="42.28177" lon="1.84539">
        <ele>1108</ele>
        <time>2010-01-01T06:17:32Z</time>
      </trkpt>
      <trkpt lat="42.28186" lon="1.84515">
        <ele>1112</ele>
        <time>2010-01-01T06:17:40Z</time>
      </trkpt>
      <trkpt lat="42.28192" lon="1.84504">
        <ele>1113</ele>
        <time>2010-01-01T06:17:44Z</time>
      </trkpt>
      <trkpt lat="42.282" lon="1.84479">
        <ele>1118</ele>
        <time>2010-01-01T06:17:52Z</time>
      </trkpt>
      <trkpt lat="42.28216" lon="1.84445">
        <ele>1122</ele>
        <time>2010-01-01T06:18:04Z</time>
      </trkpt>
      <trkpt lat="42.28222" lon="1.84437">
        <ele>1123</ele>
        <time>2010-01-01T06:18:08Z</time>
      </trkpt>
      <trkpt lat="42.28227" lon="1.84425">
        <ele>1126</ele>
        <time>2010-01-01T06:18:12Z</time>
      </trkpt>
      <trkpt lat="42.28234" lon="1.84417">
        <ele>1128</ele>
        <time>2010-01-01T06:18:15Z</time>
      </trkpt>
      <trkpt lat="42.28246" lon="1.84397">
        <ele>1132</ele>
        <time>2010-01-01T06:18:23Z</time>
      </trkpt>
      <trkpt lat="42.28268" lon="1.84369">
        <ele>1139</ele>
        <time>2010-01-01T06:18:35Z</time>
      </trkpt>
      <trkpt lat="42.28273" lon="1.84357">
        <ele>1143</ele>
        <time>2010-01-01T06:18:39Z</time>
      </trkpt>
      <trkpt lat="42.28286" lon="1.84336">
        <ele>1151</ele>
        <time>2010-01-01T06:18:47Z</time>
      </trkpt>
      <trkpt lat="42.28285" lon="1.84323">
        <ele>1156</ele>
        <time>2010-01-01T06:18:51Z</time>
      </trkpt>
      <trkpt lat="42.28288" lon="1.84311">
        <ele>1159</ele>
        <time>2010-01-01T06:18:55Z</time>
      </trkpt>
      <trkpt lat="42.28293" lon="1.843">
        <ele>1161</ele>
        <time>2010-01-01T06:18:59Z</time>
      </trkpt>
      <trkpt lat="42.28296" lon="1.84288">
        <ele>1164</ele>
        <time>2010-01-01T06:19:03Z</time>
      </trkpt>
      <trkpt lat="42.28295" lon="1.84275">
        <ele>1168</ele>
        <time>2010-01-01T06:19:06Z</time>
      </trkpt>
      <trkpt lat="42.28302" lon="1.84251">
        <ele>1173</ele>
        <time>2010-01-01T06:19:14Z</time>
      </trkpt>
      <trkpt lat="42.28307" lon="1.84239">
        <ele>1175</ele>
        <time>2010-01-01T06:19:18Z</time>
      </trkpt>
      <trkpt lat="42.28309" lon="1.84226">
        <ele>1179</ele>
        <time>2010-01-01T06:19:22Z</time>
      </trkpt>
      <trkpt lat="42.28314" lon="1.84215">
        <ele>1181</ele>
        <time>2010-01-01T06:19:26Z</time>
      </trkpt>
      <trkpt lat="42.28316" lon="1.84203">
        <ele>1184</ele>
        <time>2010-01-01T06:19:29Z</time>
      </trkpt>
      <trkpt lat="42.28319" lon="1.8419">
        <ele>1187</ele>
        <time>2010-01-01T06:19:33Z</time>
      </trkpt>
      <trkpt lat="42.28326" lon="1.84181">
        <ele>1187</ele>
        <time>2010-01-01T06:19:37Z</time>
      </trkpt>
      <trkpt lat="42.28332" lon="1.84158">
        <ele>1192</ele>
        <time>2010-01-01T06:19:45Z</time>
      </trkpt>
      <trkpt lat="42.28338" lon="1.84133">
        <ele>1201</ele>
        <time>2010-01-01T06:19:52Z</time>
      </trkpt>
      <trkpt lat="42.28336" lon="1.84121">
        <ele>1206</ele>
        <time>2010-01-01T06:19:56Z</time>
      </trkpt>
      <trkpt lat="42.2834" lon="1.84108">
        <ele>1210</ele>
        <time>2010-01-01T06:20:00Z</time>
      </trkpt>
      <trkpt lat="42.28345" lon="1.84098">
        <ele>1212</ele>
        <time>2010-01-01T06:20:04Z</time>
      </trkpt>
      <trkpt lat="42.28348" lon="1.84086">
        <ele>1215</ele>
        <time>2010-01-01T06:20:07Z</time>
      </trkpt>
      <trkpt lat="42.28353" lon="1.84075">
        <ele>1216</ele>
        <time>2010-01-01T06:20:11Z</time>
      </trkpt>
      <trkpt lat="42.2836" lon="1.84067">
        <ele>1216</ele>
        <time>2010-01-01T06:20:15Z</time>
      </trkpt>
      <trkpt lat="42.2837" lon="1.84069">
        <ele>1217</ele>
        <time>2010-01-01T06:20:19Z</time>
      </trkpt>
      <trkpt lat="42.28379" lon="1.84064">
        <ele>1219</ele>
        <time>2010-01-01T06:20:23Z</time>
      </trkpt>
      <trkpt lat="42.28384" lon="1.84053">
        <ele>1223</ele>
        <time>2010-01-01T06:20:27Z</time>
      </trkpt>
      <trkpt lat="42.28392" lon="1.84043">
        <ele>1228</ele>
        <time>2010-01-01T06:20:31Z</time>
      </trkpt>
      <trkpt lat="42.28398" lon="1.84031">
        <ele>1234</ele>
        <time>2010-01-01T06:20:35Z</time>
      </trkpt>
      <trkpt lat="42.28401" lon="1.8402">
        <ele>1238</ele>
        <time>2010-01-01T06:20:39Z</time>
      </trkpt>
      <trkpt lat="42.28419" lon="1.83989">
        <ele>1255</ele>
        <time>2010-01-01T06:20:50Z</time>
      </trkpt>
      <trkpt lat="42.28425" lon="1.83965">
        <ele>1266</ele>
        <time>2010-01-01T06:20:58Z</time>
      </trkpt>
      <trkpt lat="42.28426" lon="1.83913">
        <ele>1279</ele>
        <time>2010-01-01T06:21:13Z</time>
      </trkpt>
      <trkpt lat="42.28424" lon="1.839">
        <ele>1282</ele>
        <time>2010-01-01T06:21:17Z</time>
      </trkpt>
      <trkpt lat="42.28424" lon="1.83888">
        <ele>1285</ele>
        <time>2010-01-01T06:21:21Z</time>
      </trkpt>
      <trkpt lat="42.28426" lon="1.83875">
        <ele>1290</ele>
        <time>2010-01-01T06:21:24Z</time>
      </trkpt>
      <trkpt lat="42.28435" lon="1.83852">
        <ele>1300</ele>
        <time>2010-01-01T06:21:32Z</time>
      </trkpt>
      <trkpt lat="42.2845" lon="1.83835">
        <ele>1308</ele>
        <time>2010-01-01T06:21:40Z</time>
      </trkpt>
      <trkpt lat="42.28456" lon="1.83825">
        <ele>1313</ele>
        <time>2010-01-01T06:21:44Z</time>
      </trkpt>
      <trkpt lat="42.28466" lon="1.83817">
        <ele>1317</ele>
        <time>2010-01-01T06:21:49Z</time>
      </trkpt>
      <trkpt lat="42.28473" lon="1.83808">
        <ele>1322</ele>
        <time>2010-01-01T06:21:53Z</time>
      </trkpt>
      <trkpt lat="42.28477" lon="1.83796">
        <ele>1326</ele>
        <time>2010-01-01T06:21:56Z</time>
      </trkpt>
      <trkpt lat="42.28482" lon="1.83786">
        <ele>1330</ele>
        <time>2010-01-01T06:22:00Z</time>
      </trkpt>
      <trkpt lat="42.28496" lon="1.83768">
        <ele>1337</ele>
        <time>2010-01-01T06:22:08Z</time>
      </trkpt>
      <trkpt lat="42.28505" lon="1.83732">
        <ele>1348</ele>
        <time>2010-01-01T06:22:19Z</time>
      </trkpt>
      <trkpt lat="42.28515" lon="1.8371">
        <ele>1353</ele>
        <time>2010-01-01T06:22:26Z</time>
      </trkpt>
      <trkpt lat="42.28522" lon="1.83687">
        <ele>1358</ele>
        <time>2010-01-01T06:22:34Z</time>
      </trkpt>
      <trkpt lat="42.28522" lon="1.83656">
        <ele>1364</ele>
        <time>2010-01-01T06:22:43Z</time>
      </trkpt>
      <trkpt lat="42.28518" lon="1.83656">
        <ele>1365</ele>
        <time>2010-01-01T06:22:45Z</time>
      </trkpt>
      <trkpt lat="42.28517" lon="1.83657">
        <ele>1365</ele>
        <time>2010-01-01T06:22:45Z</time>
      </trkpt>
      <trkpt lat="42.28517" lon="1.8366">
        <ele>1364</ele>
        <time>2010-01-01T06:22:46Z</time>
      </trkpt>
      <trkpt lat="42.28507" lon="1.83663">
        <ele>1365</ele>
        <time>2010-01-01T06:22:50Z</time>
      </trkpt>
      <trkpt lat="42.28502" lon="1.83664">
        <ele>1365</ele>
        <time>2010-01-01T06:22:52Z</time>
      </trkpt>
      <trkpt lat="42.28498" lon="1.83662">
        <ele>1366</ele>
        <time>2010-01-01T06:22:54Z</time>
      </trkpt>
      <trkpt lat="42.28495" lon="1.8365">
        <ele>1371</ele>
        <time>2010-01-01T06:22:57Z</time>
      </trkpt>
      <trkpt lat="42.28496" lon="1.83648">
        <ele>1371</ele>
        <time>2010-01-01T06:22:58Z</time>
      </trkpt>
      <trkpt lat="42.28492" lon="1.83643">
        <ele>1374</ele>
        <time>2010-01-01T06:23:00Z</time>
      </trkpt>
      <trkpt lat="42.2849" lon="1.83634">
        <ele>1376</ele>
        <time>2010-01-01T06:23:03Z</time>
      </trkpt>
      <trkpt lat="42.28487" lon="1.83632">
        <ele>1377</ele>
        <time>2010-01-01T06:23:04Z</time>
      </trkpt>
      <trkpt lat="42.28485" lon="1.83627">
        <ele>1379</ele>
        <time>2010-01-01T06:23:06Z</time>
      </trkpt>
      <trkpt lat="42.28485" lon="1.83617">
        <ele>1381</ele>
        <time>2010-01-01T06:23:09Z</time>
      </trkpt>
      <trkpt lat="42.28481" lon="1.83604">
        <ele>1385</ele>
        <time>2010-01-01T06:23:13Z</time>
      </trkpt>
      <trkpt lat="42.28483" lon="1.83606">
        <ele>1384</ele>
        <time>2010-01-01T06:23:14Z</time>
      </trkpt>
      <trkpt lat="42.28483" lon="1.83609">
        <ele>1383</ele>
        <time>2010-01-01T06:23:15Z</time>
      </trkpt>
      <trkpt lat="42.28477" lon="1.83621">
        <ele>1382</ele>
        <time>2010-01-01T06:23:19Z</time>
      </trkpt>
      <trkpt lat="42.28471" lon="1.83626">
        <ele>1383</ele>
        <time>2010-01-01T06:23:22Z</time>
      </trkpt>
      <trkpt lat="42.2847" lon="1.83625">
        <ele>1384</ele>
        <time>2010-01-01T06:23:23Z</time>
      </trkpt>
      <trkpt lat="42.28456" lon="1.83579">
        <ele>1405</ele>
        <time>2010-01-01T06:23:38Z</time>
      </trkpt>
      <trkpt lat="42.28457" lon="1.83576">
        <ele>1405</ele>
        <time>2010-01-01T06:23:38Z</time>
      </trkpt>
      <trkpt lat="42.28453" lon="1.8357">
        <ele>1412</ele>
        <time>2010-01-01T06:23:41Z</time>
      </trkpt>
      <trkpt lat="42.28454" lon="1.8357">
        <ele>1411</ele>
        <time>2010-01-01T06:23:42Z</time>
      </trkpt>
      <trkpt lat="42.28458" lon="1.83573">
        <ele>1406</ele>
        <time>2010-01-01T06:23:43Z</time>
      </trkpt>
      <trkpt lat="42.28457" lon="1.83578">
        <ele>1405</ele>
        <time>2010-01-01T06:23:45Z</time>
      </trkpt>
      <trkpt lat="42.28445" lon="1.83581">
        <ele>1412</ele>
        <time>2010-01-01T06:23:50Z</time>
      </trkpt>
      <trkpt lat="42.28443" lon="1.83583">
        <ele>1412</ele>
        <time>2010-01-01T06:23:51Z</time>
      </trkpt>
      <trkpt lat="42.28444" lon="1.83585">
        <ele>1410</ele>
        <time>2010-01-01T06:23:51Z</time>
      </trkpt>
      <trkpt lat="42.28443" lon="1.83589">
        <ele>1409</ele>
        <time>2010-01-01T06:23:53Z</time>
      </trkpt>
      <trkpt lat="42.28441" lon="1.83592">
        <ele>1410</ele>
        <time>2010-01-01T06:23:54Z</time>
      </trkpt>
      <trkpt lat="42.28433" lon="1.83593">
        <ele>1416</ele>
        <time>2010-01-01T06:23:57Z</time>
      </trkpt>
      <trkpt lat="42.28429" lon="1.83589">
        <ele>1422</ele>
        <time>2010-01-01T06:23:59Z</time>
      </trkpt>
      <trkpt lat="42.28429" lon="1.83591">
        <ele>1421</ele>
        <time>2010-01-01T06:24:00Z</time>
      </trkpt>
      <trkpt lat="42.28422" lon="1.83585">
        <ele>1430</ele>
        <time>2010-01-01T06:24:03Z</time>
      </trkpt>
      <trkpt lat="42.28415" lon="1.8359">
        <ele>1433</ele>
        <time>2010-01-01T06:24:06Z</time>
      </trkpt>
      <trkpt lat="42.28407" lon="1.83589">
        <ele>1437</ele>
        <time>2010-01-01T06:24:09Z</time>
      </trkpt>
      <trkpt lat="42.284" lon="1.83592">
        <ele>1439</ele>
        <time>2010-01-01T06:24:12Z</time>
      </trkpt>
      <trkpt lat="42.28395" lon="1.8359">
        <ele>1442</ele>
        <time>2010-01-01T06:24:14Z</time>
      </trkpt>
      <trkpt lat="42.2839" lon="1.83585">
        <ele>1446</ele>
        <time>2010-01-01T06:24:17Z</time>
      </trkpt>
      <trkpt lat="42.28383" lon="1.83587">
        <ele>1448</ele>
        <time>2010-01-01T06:24:20Z</time>
      </trkpt>
      <trkpt lat="42.28376" lon="1.83593">
        <ele>1448</ele>
        <time>2010-01-01T06:24:23Z</time>
      </trkpt>
      <trkpt lat="42.2837" lon="1.83592">
        <ele>1450</ele>
        <time>2010-01-01T06:24:25Z</time>
      </trkpt>
      <trkpt lat="42.28363" lon="1.83587">
        <ele>1455</ele>
        <time>2010-01-01T06:24:28Z</time>
      </trkpt>
      <trkpt lat="42.28363" lon="1.83578">
        <ele>1459</ele>
        <time>2010-01-01T06:24:31Z</time>
      </trkpt>
      <trkpt lat="42.28366" lon="1.83578">
        <ele>1458</ele>
        <time>2010-01-01T06:24:32Z</time>
      </trkpt>
      <trkpt lat="42.28368" lon="1.83576">
        <ele>1458</ele>
        <time>2010-01-01T06:24:33Z</time>
      </trkpt>
      <trkpt lat="42.28366" lon="1.83581">
        <ele>1457</ele>
        <time>2010-01-01T06:24:35Z</time>
      </trkpt>
      <trkpt lat="42.28361" lon="1.83583">
        <ele>1458</ele>
        <time>2010-01-01T06:24:37Z</time>
      </trkpt>
      <trkpt lat="42.28359" lon="1.83582">
        <ele>1459</ele>
        <time>2010-01-01T06:24:38Z</time>
      </trkpt>
      <trkpt lat="42.28355" lon="1.83576">
        <ele>1462</ele>
        <time>2010-01-01T06:24:40Z</time>
      </trkpt>
      <trkpt lat="42.28356" lon="1.83576">
        <ele>1462</ele>
        <time>2010-01-01T06:24:41Z</time>
      </trkpt>
      <trkpt lat="42.28354" lon="1.83577">
        <ele>1462</ele>
        <time>2010-01-01T06:24:42Z</time>
      </trkpt>
      <trkpt lat="42.28353" lon="1.83571">
        <ele>1464</ele>
        <time>2010-01-01T06:24:43Z</time>
      </trkpt>
      <trkpt lat="42.28357" lon="1.83573">
        <ele>1462</ele>
        <time>2010-01-01T06:24:45Z</time>
      </trkpt>
      <trkpt lat="42.28355" lon="1.83573">
        <ele>1463</ele>
        <time>2010-01-01T06:24:46Z</time>
      </trkpt>
      <trkpt lat="42.2835" lon="1.83566">
        <ele>1466</ele>
        <time>2010-01-01T06:24:49Z</time>
      </trkpt>
      <trkpt lat="42.28342" lon="1.83565">
        <ele>1469</ele>
        <time>2010-01-01T06:24:52Z</time>
      </trkpt>
      <trkpt lat="42.28337" lon="1.83562">
        <ele>1471</ele>
        <time>2010-01-01T06:24:54Z</time>
      </trkpt>
      <trkpt lat="42.28336" lon="1.83566">
        <ele>1470</ele>
        <time>2010-01-01T06:24:55Z</time>
      </trkpt>
      <trkpt lat="42.28335" lon="1.83566">
        <ele>1470</ele>
        <time>2010-01-01T06:24:56Z</time>
      </trkpt>
      <trkpt lat="42.28337" lon="1.83572">
        <ele>1468</ele>
        <time>2010-01-01T06:24:58Z</time>
      </trkpt>
      <trkpt lat="42.28336" lon="1.83577">
        <ele>1467</ele>
        <time>2010-01-01T06:24:59Z</time>
      </trkpt>
      <trkpt lat="42.28337" lon="1.83574">
        <ele>1468</ele>
        <time>2010-01-01T06:25:00Z</time>
      </trkpt>
      <trkpt lat="42.28332" lon="1.83564">
        <ele>1471</ele>
        <time>2010-01-01T06:25:04Z</time>
      </trkpt>
      <trkpt lat="42.28328" lon="1.83564">
        <ele>1470</ele>
        <time>2010-01-01T06:25:05Z</time>
      </trkpt>
      <trkpt lat="42.28329" lon="1.83554">
        <ele>1472</ele>
        <time>2010-01-01T06:25:08Z</time>
      </trkpt>
      <trkpt lat="42.28338" lon="1.8354">
        <ele>1474</ele>
        <time>2010-01-01T06:25:14Z</time>
      </trkpt>
      <trkpt lat="42.28341" lon="1.83532">
        <ele>1475</ele>
        <time>2010-01-01T06:25:16Z</time>
      </trkpt>
      <trkpt lat="42.28346" lon="1.83529">
        <ele>1476</ele>
        <time>2010-01-01T06:25:19Z</time>
      </trkpt>
      <trkpt lat="42.28352" lon="1.83511">
        <ele>1478</ele>
        <time>2010-01-01T06:25:25Z</time>
      </trkpt>
      <trkpt lat="42.28352" lon="1.83502">
        <ele>1479</ele>
        <time>2010-01-01T06:25:27Z</time>
      </trkpt>
      <trkpt lat="42.28349" lon="1.83493">
        <ele>1478</ele>
        <time>2010-01-01T06:25:30Z</time>
      </trkpt>
      <trkpt lat="42.28349" lon="1.83485">
        <ele>1478</ele>
        <time>2010-01-01T06:25:33Z</time>
      </trkpt>
      <trkpt lat="42.28345" lon="1.83475">
        <ele>1476</ele>
        <time>2010-01-01T06:25:36Z</time>
      </trkpt>
      <trkpt lat="42.2835" lon="1.83436">
        <ele>1477</ele>
        <time>2010-01-01T06:25:47Z</time>
      </trkpt>
      <trkpt lat="42.2835" lon="1.8342">
        <ele>1476</ele>
        <time>2010-01-01T06:25:52Z</time>
      </trkpt>
      <trkpt lat="42.28348" lon="1.83416">
        <ele>1476</ele>
        <time>2010-01-01T06:25:53Z</time>
      </trkpt>
      <trkpt lat="42.28343" lon="1.83411">
        <ele>1474</ele>
        <time>2010-01-01T06:25:56Z</time>
      </trkpt>
      <trkpt lat="42.28337" lon="1.83381">
        <ele>1473</ele>
        <time>2010-01-01T06:26:05Z</time>
      </trkpt>
      <trkpt lat="42.2833" lon="1.83372">
        <ele>1472</ele>
        <time>2010-01-01T06:26:09Z</time>
      </trkpt>
      <trkpt lat="42.28322" lon="1.83363">
        <ele>1471</ele>
        <time>2010-01-01T06:26:13Z</time>
      </trkpt>
      <trkpt lat="42.28315" lon="1.83343">
        <ele>1473</ele>
        <time>2010-01-01T06:26:20Z</time>
      </trkpt>
      <trkpt lat="42.28308" lon="1.83341">
        <ele>1472</ele>
        <time>2010-01-01T06:26:23Z</time>
      </trkpt>
      <trkpt lat="42.2831" lon="1.83332">
        <ele>1475</ele>
        <time>2010-01-01T06:26:25Z</time>
      </trkpt>
      <trkpt lat="42.28317" lon="1.83327">
        <ele>1478</ele>
        <time>2010-01-01T06:26:29Z</time>
      </trkpt>
      <trkpt lat="42.28316" lon="1.8334">
        <ele>1475</ele>
        <time>2010-01-01T06:26:32Z</time>
      </trkpt>
      <trkpt lat="42.28312" lon="1.83344">
        <ele>1472</ele>
        <time>2010-01-01T06:26:34Z</time>
      </trkpt>
      <trkpt lat="42.2831" lon="1.83343">
        <ele>1472</ele>
        <time>2010-01-01T06:26:35Z</time>
      </trkpt>
      <trkpt lat="42.28312" lon="1.83341">
        <ele>1473</ele>
        <time>2010-01-01T06:26:36Z</time>
      </trkpt>
      <trkpt lat="42.28311" lon="1.8334">
        <ele>1473</ele>
        <time>2010-01-01T06:26:36Z</time>
      </trkpt>
      <trkpt lat="42.2831" lon="1.83342">
        <ele>1472</ele>
        <time>2010-01-01T06:26:37Z</time>
      </trkpt>
      <trkpt lat="42.28316" lon="1.83338">
        <ele>1475</ele>
        <time>2010-01-01T06:26:39Z</time>
      </trkpt>
      <trkpt lat="42.28313" lon="1.8333">
        <ele>1476</ele>
        <time>2010-01-01T06:26:42Z</time>
      </trkpt>
      <trkpt lat="42.28313" lon="1.83332">
        <ele>1476</ele>
        <time>2010-01-01T06:26:43Z</time>
      </trkpt>
      <trkpt lat="42.28313" lon="1.83323">
        <ele>1478</ele>
        <time>2010-01-01T06:26:46Z</time>
      </trkpt>
      <trkpt lat="42.28313" lon="1.83324">
        <ele>1478</ele>
        <time>2010-01-01T06:26:46Z</time>
      </trkpt>
      <trkpt lat="42.28312" lon="1.83321">
        <ele>1478</ele>
        <time>2010-01-01T06:26:47Z</time>
      </trkpt>
      <trkpt lat="42.28309" lon="1.83322">
        <ele>1477</ele>
        <time>2010-01-01T06:26:48Z</time>
      </trkpt>
      <trkpt lat="42.28307" lon="1.83321">
        <ele>1477</ele>
        <time>2010-01-01T06:26:49Z</time>
      </trkpt>
      <trkpt lat="42.2831" lon="1.8333">
        <ele>1476</ele>
        <time>2010-01-01T06:26:52Z</time>
      </trkpt>
      <trkpt lat="42.2831" lon="1.83338">
        <ele>1473</ele>
        <time>2010-01-01T06:26:54Z</time>
      </trkpt>
      <trkpt lat="42.2831" lon="1.83335">
        <ele>1474</ele>
        <time>2010-01-01T06:26:55Z</time>
      </trkpt>
      <trkpt lat="42.28311" lon="1.8334">
        <ele>1473</ele>
        <time>2010-01-01T06:26:57Z</time>
      </trkpt>
      <trkpt lat="42.28309" lon="1.8334">
        <ele>1472</ele>
        <time>2010-01-01T06:26:57Z</time>
      </trkpt>
      <trkpt lat="42.28312" lon="1.83339">
        <ele>1474</ele>
        <time>2010-01-01T06:26:58Z</time>
      </trkpt>
      <trkpt lat="42.28314" lon="1.83344">
        <ele>1473</ele>
        <time>2010-01-01T06:27:00Z</time>
      </trkpt>
      <trkpt lat="42.28309" lon="1.83363">
        <ele>1465</ele>
        <time>2010-01-01T06:27:06Z</time>
      </trkpt>
      <trkpt lat="42.28308" lon="1.8337">
        <ele>1463</ele>
        <time>2010-01-01T06:27:08Z</time>
      </trkpt>
      <trkpt lat="42.28303" lon="1.83377">
        <ele>1460</ele>
        <time>2010-01-01T06:27:11Z</time>
      </trkpt>
      <trkpt lat="42.28298" lon="1.83377">
        <ele>1459</ele>
        <time>2010-01-01T06:27:13Z</time>
      </trkpt>
      <trkpt lat="42.28297" lon="1.83386">
        <ele>1457</ele>
        <time>2010-01-01T06:27:16Z</time>
      </trkpt>
      <trkpt lat="42.28299" lon="1.83388">
        <ele>1457</ele>
        <time>2010-01-01T06:27:17Z</time>
      </trkpt>
      <trkpt lat="42.28295" lon="1.83397">
        <ele>1455</ele>
        <time>2010-01-01T06:27:20Z</time>
      </trkpt>
      <trkpt lat="42.28295" lon="1.83404">
        <ele>1454</ele>
        <time>2010-01-01T06:27:22Z</time>
      </trkpt>
      <trkpt lat="42.28292" lon="1.8341">
        <ele>1452</ele>
        <time>2010-01-01T06:27:24Z</time>
      </trkpt>
      <trkpt lat="42.28287" lon="1.83412">
        <ele>1450</ele>
        <time>2010-01-01T06:27:26Z</time>
      </trkpt>
      <trkpt lat="42.2829" lon="1.83423">
        <ele>1451</ele>
        <time>2010-01-01T06:27:29Z</time>
      </trkpt>
      <trkpt lat="42.28288" lon="1.83439">
        <ele>1450</ele>
        <time>2010-01-01T06:27:34Z</time>
      </trkpt>
      <trkpt lat="42.28285" lon="1.83444">
        <ele>1449</ele>
        <time>2010-01-01T06:27:36Z</time>
      </trkpt>
      <trkpt lat="42.28273" lon="1.8345">
        <ele>1444</ele>
        <time>2010-01-01T06:27:41Z</time>
      </trkpt>
      <trkpt lat="42.28271" lon="1.83456">
        <ele>1443</ele>
        <time>2010-01-01T06:27:43Z</time>
      </trkpt>
      <trkpt lat="42.28272" lon="1.83455">
        <ele>1443</ele>
        <time>2010-01-01T06:27:43Z</time>
      </trkpt>
      <trkpt lat="42.28266" lon="1.83459">
        <ele>1441</ele>
        <time>2010-01-01T06:27:46Z</time>
      </trkpt>
      <trkpt lat="42.28251" lon="1.83478">
        <ele>1437</ele>
        <time>2010-01-01T06:27:55Z</time>
      </trkpt>
      <trkpt lat="42.28246" lon="1.83481">
        <ele>1434</ele>
        <time>2010-01-01T06:27:57Z</time>
      </trkpt>
      <trkpt lat="42.28239" lon="1.83484">
        <ele>1430</ele>
        <time>2010-01-01T06:28:00Z</time>
      </trkpt>
      <trkpt lat="42.28234" lon="1.83491">
        <ele>1428</ele>
        <time>2010-01-01T06:28:03Z</time>
      </trkpt>
      <trkpt lat="42.28222" lon="1.83491">
        <ele>1422</ele>
        <time>2010-01-01T06:28:07Z</time>
      </trkpt>
      <trkpt lat="42.28214" lon="1.83493">
        <ele>1419</ele>
        <time>2010-01-01T06:28:11Z</time>
      </trkpt>
      <trkpt lat="42.28205" lon="1.8349">
        <ele>1416</ele>
        <time>2010-01-01T06:28:14Z</time>
      </trkpt>
      <trkpt lat="42.28201" lon="1.83483">
        <ele>1416</ele>
        <time>2010-01-01T06:28:17Z</time>
      </trkpt>
      <trkpt lat="42.282" lon="1.83475">
        <ele>1416</ele>
        <time>2010-01-01T06:28:19Z</time>
      </trkpt>
      <trkpt lat="42.28195" lon="1.83471">
        <ele>1416</ele>
        <time>2010-01-01T06:28:22Z</time>
      </trkpt>
      <trkpt lat="42.2819" lon="1.83468">
        <ele>1416</ele>
        <time>2010-01-01T06:28:24Z</time>
      </trkpt>
      <trkpt lat="42.28183" lon="1.83472">
        <ele>1414</ele>
        <time>2010-01-01T06:28:27Z</time>
      </trkpt>
      <trkpt lat="42.28169" lon="1.83468">
        <ele>1412</ele>
        <time>2010-01-01T06:28:32Z</time>
      </trkpt>
      <trkpt lat="42.28159" lon="1.83476">
        <ele>1408</ele>
        <time>2010-01-01T06:28:37Z</time>
      </trkpt>
      <trkpt lat="42.28151" lon="1.83488">
        <ele>1403</ele>
        <time>2010-01-01T06:28:42Z</time>
      </trkpt>
      <trkpt lat="42.28146" lon="1.83505">
        <ele>1396</ele>
        <time>2010-01-01T06:28:47Z</time>
      </trkpt>
      <trkpt lat="42.2814" lon="1.83512">
        <ele>1391</ele>
        <time>2010-01-01T06:28:50Z</time>
      </trkpt>
      <trkpt lat="42.28123" lon="1.83525">
        <ele>1385</ele>
        <time>2010-01-01T06:28:58Z</time>
      </trkpt>
      <trkpt lat="42.28106" lon="1.83531">
        <ele>1382</ele>
        <time>2010-01-01T06:29:05Z</time>
      </trkpt>
      <trkpt lat="42.28098" lon="1.8354">
        <ele>1378</ele>
        <time>2010-01-01T06:29:09Z</time>
      </trkpt>
      <trkpt lat="42.28091" lon="1.83542">
        <ele>1377</ele>
        <time>2010-01-01T06:29:12Z</time>
      </trkpt>
      <trkpt lat="42.28091" lon="1.83544">
        <ele>1376</ele>
        <time>2010-01-01T06:29:13Z</time>
      </trkpt>
      <trkpt lat="42.28093" lon="1.83546">
        <ele>1375</ele>
        <time>2010-01-01T06:29:14Z</time>
      </trkpt>
      <trkpt lat="42.28095" lon="1.8356">
        <ele>1370</ele>
        <time>2010-01-01T06:29:18Z</time>
      </trkpt>
      <trkpt lat="42.28098" lon="1.83562">
        <ele>1369</ele>
        <time>2010-01-01T06:29:20Z</time>
      </trkpt>
      <trkpt lat="42.28101" lon="1.83567">
        <ele>1367</ele>
        <time>2010-01-01T06:29:22Z</time>
      </trkpt>
      <trkpt lat="42.28102" lon="1.83579">
        <ele>1363</ele>
        <time>2010-01-01T06:29:25Z</time>
      </trkpt>
      <trkpt lat="42.28102" lon="1.83599">
        <ele>1357</ele>
        <time>2010-01-01T06:29:31Z</time>
      </trkpt>
      <trkpt lat="42.28095" lon="1.83621">
        <ele>1349</ele>
        <time>2010-01-01T06:29:38Z</time>
      </trkpt>
      <trkpt lat="42.28095" lon="1.83638">
        <ele>1344</ele>
        <time>2010-01-01T06:29:43Z</time>
      </trkpt>
      <trkpt lat="42.28091" lon="1.83652">
        <ele>1339</ele>
        <time>2010-01-01T06:29:48Z</time>
      </trkpt>
      <trkpt lat="42.28088" lon="1.83658">
        <ele>1337</ele>
        <time>2010-01-01T06:29:50Z</time>
      </trkpt>
      <trkpt lat="42.2808" lon="1.83665">
        <ele>1333</ele>
        <time>2010-01-01T06:29:54Z</time>
      </trkpt>
      <trkpt lat="42.2808" lon="1.8367">
        <ele>1332</ele>
        <time>2010-01-01T06:29:55Z</time>
      </trkpt>
      <trkpt lat="42.28074" lon="1.83676">
        <ele>1330</ele>
        <time>2010-01-01T06:29:58Z</time>
      </trkpt>
      <trkpt lat="42.28073" lon="1.83702">
        <ele>1324</ele>
        <time>2010-01-01T06:30:05Z</time>
      </trkpt>
      <trkpt lat="42.28065" lon="1.83717">
        <ele>1319</ele>
        <time>2010-01-01T06:30:11Z</time>
      </trkpt>
      <trkpt lat="42.28064" lon="1.83732">
        <ele>1316</ele>
        <time>2010-01-01T06:30:15Z</time>
      </trkpt>
      <trkpt lat="42.28053" lon="1.83745">
        <ele>1311</ele>
        <time>2010-01-01T06:30:21Z</time>
      </trkpt>
      <trkpt lat="42.28051" lon="1.83758">
        <ele>1309</ele>
        <time>2010-01-01T06:30:25Z</time>
      </trkpt>
      <trkpt lat="42.28049" lon="1.83766">
        <ele>1307</ele>
        <time>2010-01-01T06:30:28Z</time>
      </trkpt>
      <trkpt lat="42.28034" lon="1.83792">
        <ele>1298</ele>
        <time>2010-01-01T06:30:38Z</time>
      </trkpt>
      <trkpt lat="42.28026" lon="1.83814">
        <ele>1289</ele>
        <time>2010-01-01T06:30:45Z</time>
      </trkpt>
      <trkpt lat="42.28021" lon="1.83821">
        <ele>1285</ele>
        <time>2010-01-01T06:30:47Z</time>
      </trkpt>
      <trkpt lat="42.28021" lon="1.83829">
        <ele>1282</ele>
        <time>2010-01-01T06:30:50Z</time>
      </trkpt>
      <trkpt lat="42.28018" lon="1.83835">
        <ele>1279</ele>
        <time>2010-01-01T06:30:52Z</time>
      </trkpt>
      <trkpt lat="42.28016" lon="1.8384">
        <ele>1277</ele>
        <time>2010-01-01T06:30:53Z</time>
      </trkpt>
      <trkpt lat="42.2801" lon="1.83845">
        <ele>1275</ele>
        <time>2010-01-01T06:30:56Z</time>
      </trkpt>
      <trkpt lat="42.28013" lon="1.83851">
        <ele>1275</ele>
        <time>2010-01-01T06:30:58Z</time>
      </trkpt>
      <trkpt lat="42.28014" lon="1.83863">
        <ele>1273</ele>
        <time>2010-01-01T06:31:02Z</time>
      </trkpt>
      <trkpt lat="42.28009" lon="1.83886">
        <ele>1271</ele>
        <time>2010-01-01T06:31:09Z</time>
      </trkpt>
      <trkpt lat="42.27997" lon="1.83906">
        <ele>1266</ele>
        <time>2010-01-01T06:31:17Z</time>
      </trkpt>
      <trkpt lat="42.27993" lon="1.83921">
        <ele>1263</ele>
        <time>2010-01-01T06:31:22Z</time>
      </trkpt>
      <trkpt lat="42.27984" lon="1.83934">
        <ele>1255</ele>
        <time>2010-01-01T06:31:27Z</time>
      </trkpt>
      <trkpt lat="42.27982" lon="1.83946">
        <ele>1252</ele>
        <time>2010-01-01T06:31:30Z</time>
      </trkpt>
      <trkpt lat="42.27979" lon="1.83954">
        <ele>1248</ele>
        <time>2010-01-01T06:31:33Z</time>
      </trkpt>
      <trkpt lat="42.27978" lon="1.83966">
        <ele>1244</ele>
        <time>2010-01-01T06:31:37Z</time>
      </trkpt>
      <trkpt lat="42.27972" lon="1.83982">
        <ele>1238</ele>
        <time>2010-01-01T06:31:42Z</time>
      </trkpt>
      <trkpt lat="42.27969" lon="1.83988">
        <ele>1236</ele>
        <time>2010-01-01T06:31:44Z</time>
      </trkpt>
      <trkpt lat="42.2796" lon="1.83995">
        <ele>1233</ele>
        <time>2010-01-01T06:31:48Z</time>
      </trkpt>
      <trkpt lat="42.27958" lon="1.84">
        <ele>1232</ele>
        <time>2010-01-01T06:31:50Z</time>
      </trkpt>
      <trkpt lat="42.27946" lon="1.84015">
        <ele>1227</ele>
        <time>2010-01-01T06:31:57Z</time>
      </trkpt>
      <trkpt lat="42.27945" lon="1.8402">
        <ele>1226</ele>
        <time>2010-01-01T06:31:58Z</time>
      </trkpt>
      <trkpt lat="42.27938" lon="1.84037">
        <ele>1223</ele>
        <time>2010-01-01T06:32:04Z</time>
      </trkpt>
      <trkpt lat="42.27934" lon="1.84052">
        <ele>1220</ele>
        <time>2010-01-01T06:32:09Z</time>
      </trkpt>
      <trkpt lat="42.27928" lon="1.84064">
        <ele>1218</ele>
        <time>2010-01-01T06:32:13Z</time>
      </trkpt>
      <trkpt lat="42.27928" lon="1.84082">
        <ele>1216</ele>
        <time>2010-01-01T06:32:18Z</time>
      </trkpt>
      <trkpt lat="42.27923" lon="1.84095">
        <ele>1212</ele>
        <time>2010-01-01T06:32:22Z</time>
      </trkpt>
      <trkpt lat="42.27921" lon="1.84101">
        <ele>1210</ele>
        <time>2010-01-01T06:32:24Z</time>
      </trkpt>
      <trkpt lat="42.27921" lon="1.84126">
        <ele>1206</ele>
        <time>2010-01-01T06:32:32Z</time>
      </trkpt>
      <trkpt lat="42.27918" lon="1.84131">
        <ele>1204</ele>
        <time>2010-01-01T06:32:34Z</time>
      </trkpt>
      <trkpt lat="42.27906" lon="1.84191">
        <ele>1194</ele>
        <time>2010-01-01T06:32:52Z</time>
      </trkpt>
      <trkpt lat="42.27903" lon="1.84212">
        <ele>1192</ele>
        <time>2010-01-01T06:32:58Z</time>
      </trkpt>
      <trkpt lat="42.27904" lon="1.84223">
        <ele>1191</ele>
        <time>2010-01-01T06:33:02Z</time>
      </trkpt>
      <trkpt lat="42.279" lon="1.84239">
        <ele>1187</ele>
        <time>2010-01-01T06:33:07Z</time>
      </trkpt>
      <trkpt lat="42.27898" lon="1.84253">
        <ele>1185</ele>
        <time>2010-01-01T06:33:11Z</time>
      </trkpt>
      <trkpt lat="42.27888" lon="1.84272">
        <ele>1180</ele>
        <time>2010-01-01T06:33:18Z</time>
      </trkpt>
      <trkpt lat="42.27878" lon="1.84299">
        <ele>1179</ele>
        <time>2010-01-01T06:33:27Z</time>
      </trkpt>
      <trkpt lat="42.27871" lon="1.84308">
        <ele>1177</ele>
        <time>2010-01-01T06:33:30Z</time>
      </trkpt>
      <trkpt lat="42.27866" lon="1.84317">
        <ele>1176</ele>
        <time>2010-01-01T06:33:34Z</time>
      </trkpt>
      <trkpt lat="42.2786" lon="1.84335">
        <ele>1174</ele>
        <time>2010-01-01T06:33:40Z</time>
      </trkpt>
      <trkpt lat="42.27854" lon="1.84346">
        <ele>1170</ele>
        <time>2010-01-01T06:33:44Z</time>
      </trkpt>
      <trkpt lat="42.27854" lon="1.84357">
        <ele>1168</ele>
        <time>2010-01-01T06:33:47Z</time>
      </trkpt>
      <trkpt lat="42.27849" lon="1.84369">
        <ele>1164</ele>
        <time>2010-01-01T06:33:51Z</time>
      </trkpt>
      <trkpt lat="42.27847" lon="1.8438">
        <ele>1160</ele>
        <time>2010-01-01T06:33:55Z</time>
      </trkpt>
      <trkpt lat="42.27849" lon="1.84394">
        <ele>1157</ele>
        <time>2010-01-01T06:33:59Z</time>
      </trkpt>
      <trkpt lat="42.27846" lon="1.84413">
        <ele>1152</ele>
        <time>2010-01-01T06:34:05Z</time>
      </trkpt>
      <trkpt lat="42.27836" lon="1.84422">
        <ele>1147</ele>
        <time>2010-01-01T06:34:09Z</time>
      </trkpt>
      <trkpt lat="42.27832" lon="1.84427">
        <ele>1145</ele>
        <time>2010-01-01T06:34:11Z</time>
      </trkpt>
      <trkpt lat="42.27834" lon="1.84436">
        <ele>1144</ele>
        <time>2010-01-01T06:34:14Z</time>
      </trkpt>
      <trkpt lat="42.27831" lon="1.84446">
        <ele>1142</ele>
        <time>2010-01-01T06:34:17Z</time>
      </trkpt>
      <trkpt lat="42.2783" lon="1.84456">
        <ele>1141</ele>
        <time>2010-01-01T06:34:20Z</time>
      </trkpt>
      <trkpt lat="42.27828" lon="1.84494">
        <ele>1140</ele>
        <time>2010-01-01T06:34:32Z</time>
      </trkpt>
      <trkpt lat="42.27826" lon="1.84506">
        <ele>1139</ele>
        <time>2010-01-01T06:34:35Z</time>
      </trkpt>
      <trkpt lat="42.27819" lon="1.8452">
        <ele>1136</ele>
        <time>2010-01-01T06:34:40Z</time>
      </trkpt>
      <trkpt lat="42.27816" lon="1.84536">
        <ele>1133</ele>
        <time>2010-01-01T06:34:45Z</time>
      </trkpt>
      <trkpt lat="42.27804" lon="1.84568">
        <ele>1126</ele>
        <time>2010-01-01T06:34:56Z</time>
      </trkpt>
      <trkpt lat="42.27796" lon="1.84581">
        <ele>1123</ele>
        <time>2010-01-01T06:35:01Z</time>
      </trkpt>
      <trkpt lat="42.27792" lon="1.84592">
        <ele>1120</ele>
        <time>2010-01-01T06:35:04Z</time>
      </trkpt>
      <trkpt lat="42.27772" lon="1.84611">
        <ele>1113</ele>
        <time>2010-01-01T06:35:14Z</time>
      </trkpt>
      <trkpt lat="42.27765" lon="1.84624">
        <ele>1109</ele>
        <time>2010-01-01T06:35:19Z</time>
      </trkpt>
      <trkpt lat="42.27757" lon="1.84643">
        <ele>1103</ele>
        <time>2010-01-01T06:35:25Z</time>
      </trkpt>
      <trkpt lat="42.27757" lon="1.84649">
        <ele>1102</ele>
        <time>2010-01-01T06:35:27Z</time>
      </trkpt>
      <trkpt lat="42.27751" lon="1.84653">
        <ele>1100</ele>
        <time>2010-01-01T06:35:30Z</time>
      </trkpt>
      <trkpt lat="42.27742" lon="1.84656">
        <ele>1099</ele>
        <time>2010-01-01T06:35:33Z</time>
      </trkpt>
      <trkpt lat="42.2773" lon="1.84664">
        <ele>1096</ele>
        <time>2010-01-01T06:35:39Z</time>
      </trkpt>
      <trkpt lat="42.27719" lon="1.84712">
        <ele>1088</ele>
        <time>2010-01-01T06:35:54Z</time>
      </trkpt>
      <trkpt lat="42.27717" lon="1.84741">
        <ele>1086</ele>
        <time>2010-01-01T06:36:02Z</time>
      </trkpt>
      <trkpt lat="42.27706" lon="1.84771">
        <ele>1084</ele>
        <time>2010-01-01T06:36:12Z</time>
      </trkpt>
      <trkpt lat="42.27699" lon="1.8478">
        <ele>1083</ele>
        <time>2010-01-01T06:36:16Z</time>
      </trkpt>
      <trkpt lat="42.27693" lon="1.84783">
        <ele>1082</ele>
        <time>2010-01-01T06:36:19Z</time>
      </trkpt>
      <trkpt lat="42.27681" lon="1.84793">
        <ele>1077</ele>
        <time>2010-01-01T06:36:24Z</time>
      </trkpt>
      <trkpt lat="42.27673" lon="1.84803">
        <ele>1072</ele>
        <time>2010-01-01T06:36:29Z</time>
      </trkpt>
      <trkpt lat="42.27666" lon="1.84806">
        <ele>1070</ele>
        <time>2010-01-01T06:36:32Z</time>
      </trkpt>
      <trkpt lat="42.27654" lon="1.84816">
        <ele>1063</ele>
        <time>2010-01-01T06:36:37Z</time>
      </trkpt>
      <trkpt lat="42.27648" lon="1.84818">
        <ele>1061</ele>
        <time>2010-01-01T06:36:40Z</time>
      </trkpt>
      <trkpt lat="42.2764" lon="1.84826">
        <ele>1056</ele>
        <time>2010-01-01T06:36:44Z</time>
      </trkpt>
      <trkpt lat="42.27626" lon="1.84832">
        <ele>1053</ele>
        <time>2010-01-01T06:36:50Z</time>
      </trkpt>
      <trkpt lat="42.27623" lon="1.84835">
        <ele>1051</ele>
        <time>2010-01-01T06:36:51Z</time>
      </trkpt>
      <trkpt lat="42.27615" lon="1.8485">
        <ele>1047</ele>
        <time>2010-01-01T06:36:57Z</time>
      </trkpt>
      <trkpt lat="42.27606" lon="1.84862">
        <ele>1045</ele>
        <time>2010-01-01T06:37:02Z</time>
      </trkpt>
      <trkpt lat="42.27603" lon="1.84877">
        <ele>1041</ele>
        <time>2010-01-01T06:37:06Z</time>
      </trkpt>
      <trkpt lat="42.27602" lon="1.84894">
        <ele>1035</ele>
        <time>2010-01-01T06:37:12Z</time>
      </trkpt>
      <trkpt lat="42.27605" lon="1.84914">
        <ele>1028</ele>
        <time>2010-01-01T06:37:17Z</time>
      </trkpt>
      <trkpt lat="42.27604" lon="1.84918">
        <ele>1026</ele>
        <time>2010-01-01T06:37:19Z</time>
      </trkpt>
      <trkpt lat="42.27597" lon="1.84931">
        <ele>1021</ele>
        <time>2010-01-01T06:37:23Z</time>
      </trkpt>
      <trkpt lat="42.27595" lon="1.84942">
        <ele>1016</ele>
        <time>2010-01-01T06:37:27Z</time>
      </trkpt>
      <trkpt lat="42.27592" lon="1.84949">
        <ele>1013</ele>
        <time>2010-01-01T06:37:29Z</time>
      </trkpt>
      <trkpt lat="42.27588" lon="1.84955">
        <ele>1011</ele>
        <time>2010-01-01T06:37:31Z</time>
      </trkpt>
      <trkpt lat="42.27584" lon="1.84956">
        <ele>1009</ele>
        <time>2010-01-01T06:37:33Z</time>
      </trkpt>
      <trkpt lat="42.27579" lon="1.84956">
        <ele>1008</ele>
        <time>2010-01-01T06:37:35Z</time>
      </trkpt>
      <trkpt lat="42.27576" lon="1.84958">
        <ele>1007</ele>
        <time>2010-01-01T06:37:37Z</time>
      </trkpt>
      <trkpt lat="42.27578" lon="1.84962">
        <ele>1006</ele>
        <time>2010-01-01T06:37:38Z</time>
      </trkpt>
      <trkpt lat="42.2757" lon="1.84974">
        <ele>1001</ele>
        <time>2010-01-01T06:37:43Z</time>
      </trkpt>
      <trkpt lat="42.2757" lon="1.84977">
        <ele>1000</ele>
        <time>2010-01-01T06:37:43Z</time>
      </trkpt>
      <trkpt lat="42.27565" lon="1.8498">
        <ele>998</ele>
        <time>2010-01-01T06:37:45Z</time>
      </trkpt>
      <trkpt lat="42.27561" lon="1.84989">
        <ele>994</ele>
        <time>2010-01-01T06:37:49Z</time>
      </trkpt>
      <trkpt lat="42.27557" lon="1.84994">
        <ele>992</ele>
        <time>2010-01-01T06:37:51Z</time>
      </trkpt>
      <trkpt lat="42.27546" lon="1.85">
        <ele>988</ele>
        <time>2010-01-01T06:37:56Z</time>
      </trkpt>
      <trkpt lat="42.27531" lon="1.85">
        <ele>986</ele>
        <time>2010-01-01T06:38:02Z</time>
      </trkpt>
      <trkpt lat="42.2753" lon="1.85001">
        <ele>985</ele>
        <time>2010-01-01T06:38:02Z</time>
      </trkpt>
      <trkpt lat="42.27529" lon="1.85008">
        <ele>981</ele>
        <time>2010-01-01T06:38:04Z</time>
      </trkpt>
      <trkpt lat="42.27532" lon="1.8502">
        <ele>975</ele>
        <time>2010-01-01T06:38:08Z</time>
      </trkpt>
      <trkpt lat="42.27535" lon="1.85024">
        <ele>974</ele>
        <time>2010-01-01T06:38:10Z</time>
      </trkpt>
      <trkpt lat="42.27539" lon="1.85021">
        <ele>976</ele>
        <time>2010-01-01T06:38:11Z</time>
      </trkpt>
      <trkpt lat="42.27546" lon="1.8502">
        <ele>978</ele>
        <time>2010-01-01T06:38:14Z</time>
      </trkpt>
      <trkpt lat="42.27553" lon="1.85023">
        <ele>978</ele>
        <time>2010-01-01T06:38:17Z</time>
      </trkpt>
      <trkpt lat="42.27556" lon="1.85029">
        <ele>977</ele>
        <time>2010-01-01T06:38:19Z</time>
      </trkpt>
      <trkpt lat="42.27566" lon="1.85038">
        <ele>977</ele>
        <time>2010-01-01T06:38:24Z</time>
      </trkpt>
      <trkpt lat="42.27567" lon="1.85044">
        <ele>976</ele>
        <time>2010-01-01T06:38:26Z</time>
      </trkpt>
      <trkpt lat="42.27566" lon="1.85048">
        <ele>975</ele>
        <time>2010-01-01T06:38:27Z</time>
      </trkpt>
      <trkpt lat="42.2756" lon="1.85056">
        <ele>973</ele>
        <time>2010-01-01T06:38:31Z</time>
      </trkpt>
      <trkpt lat="42.2754" lon="1.85073">
        <ele>963</ele>
        <time>2010-01-01T06:38:40Z</time>
      </trkpt>
      <trkpt lat="42.27511" lon="1.85081">
        <ele>949</ele>
        <time>2010-01-01T06:38:52Z</time>
      </trkpt>
      <trkpt lat="42.27493" lon="1.85081">
        <ele>945</ele>
        <time>2010-01-01T06:38:59Z</time>
      </trkpt>
      <trkpt lat="42.27486" lon="1.85079">
        <ele>946</ele>
        <time>2010-01-01T06:39:02Z</time>
      </trkpt>
      <trkpt lat="42.27476" lon="1.85068">
        <ele>950</ele>
        <time>2010-01-01T06:39:07Z</time>
      </trkpt>
      <trkpt lat="42.27472" lon="1.85067">
        <ele>950</ele>
        <time>2010-01-01T06:39:09Z</time>
      </trkpt>
      <trkpt lat="42.27465" lon="1.85066">
        <ele>951</ele>
        <time>2010-01-01T06:39:12Z</time>
      </trkpt>
      <trkpt lat="42.27455" lon="1.85067">
        <ele>951</ele>
        <time>2010-01-01T06:39:16Z</time>
      </trkpt>
      <trkpt lat="42.2744" lon="1.85066">
        <ele>952</ele>
        <time>2010-01-01T06:39:22Z</time>
      </trkpt>
      <trkpt lat="42.27414" lon="1.8508">
        <ele>937</ele>
        <time>2010-01-01T06:39:33Z</time>
      </trkpt>
      <trkpt lat="42.274" lon="1.85094">
        <ele>935</ele>
        <time>2010-01-01T06:39:40Z</time>
      </trkpt>
      <trkpt lat="42.27408" lon="1.8509">
        <ele>935</ele>
        <time>2010-01-01T06:39:44Z</time>
      </trkpt>
      <trkpt lat="42.2741" lon="1.85081">
        <ele>936</ele>
        <time>2010-01-01T06:39:46Z</time>
      </trkpt>
      <trkpt lat="42.27412" lon="1.85079">
        <ele>938</ele>
        <time>2010-01-01T06:39:47Z</time>
      </trkpt>
      <trkpt lat="42.27413" lon="1.85082">
        <ele>935</ele>
        <time>2010-01-01T06:39:48Z</time>
      </trkpt>
      <trkpt lat="42.27421" lon="1.85088">
        <ele>935</ele>
        <time>2010-01-01T06:39:52Z</time>
      </trkpt>
      <trkpt lat="42.27438" lon="1.85084">
        <ele>940</ele>
        <time>2010-01-01T06:39:58Z</time>
      </trkpt>
      <trkpt lat="42.27438" lon="1.85088">
        <ele>939</ele>
        <time>2010-01-01T06:39:59Z</time>
      </trkpt>
      <trkpt lat="42.2744" lon="1.85089">
        <ele>940</ele>
        <time>2010-01-01T06:40:00Z</time>
      </trkpt>
      <trkpt lat="42.27452" lon="1.85091">
        <ele>941</ele>
        <time>2010-01-01T06:40:05Z</time>
      </trkpt>
      <trkpt lat="42.27463" lon="1.85088">
        <ele>942</ele>
        <time>2010-01-01T06:40:10Z</time>
      </trkpt>
      <trkpt lat="42.27474" lon="1.85089">
        <ele>942</ele>
        <time>2010-01-01T06:40:14Z</time>
      </trkpt>
      <trkpt lat="42.27487" lon="1.8508">
        <ele>946</ele>
        <time>2010-01-01T06:40:20Z</time>
      </trkpt>
      <trkpt lat="42.27489" lon="1.85087">
        <ele>944</ele>
        <time>2010-01-01T06:40:22Z</time>
      </trkpt>
      <trkpt lat="42.27488" lon="1.85094">
        <ele>943</ele>
        <time>2010-01-01T06:40:24Z</time>
      </trkpt>
      <trkpt lat="42.27484" lon="1.85099">
        <ele>942</ele>
        <time>2010-01-01T06:40:26Z</time>
      </trkpt>
      <trkpt lat="42.2748" lon="1.85099">
        <ele>941</ele>
        <time>2010-01-01T06:40:28Z</time>
      </trkpt>
      <trkpt lat="42.27475" lon="1.85106">
        <ele>939</ele>
        <time>2010-01-01T06:40:31Z</time>
      </trkpt>
      <trkpt lat="42.27461" lon="1.85114">
        <ele>937</ele>
        <time>2010-01-01T06:40:37Z</time>
      </trkpt>
      <trkpt lat="42.2745" lon="1.85117">
        <ele>936</ele>
        <time>2010-01-01T06:40:41Z</time>
      </trkpt>
      <trkpt lat="42.2745" lon="1.85118">
        <ele>936</ele>
        <time>2010-01-01T06:40:42Z</time>
      </trkpt>
      <trkpt lat="42.27445" lon="1.85122">
        <ele>936</ele>
        <time>2010-01-01T06:40:44Z</time>
      </trkpt>
      <trkpt lat="42.27443" lon="1.8513">
        <ele>936</ele>
        <time>2010-01-01T06:40:47Z</time>
      </trkpt>
      <trkpt lat="42.27436" lon="1.85136">
        <ele>935</ele>
        <time>2010-01-01T06:40:50Z</time>
      </trkpt>
      <trkpt lat="42.27432" lon="1.85145">
        <ele>935</ele>
        <time>2010-01-01T06:40:53Z</time>
      </trkpt>
      <trkpt lat="42.27428" lon="1.85161">
        <ele>935</ele>
        <time>2010-01-01T06:40:58Z</time>
      </trkpt>
      <trkpt lat="42.2743" lon="1.85174">
        <ele>936</ele>
        <time>2010-01-01T06:41:02Z</time>
      </trkpt>
      <trkpt lat="42.27428" lon="1.8519">
        <ele>938</ele>
        <time>2010-01-01T06:41:07Z</time>
      </trkpt>
      <trkpt lat="42.27419" lon="1.85233">
        <ele>941</ele>
        <time>2010-01-01T06:41:20Z</time>
      </trkpt>
      <trkpt lat="42.27419" lon="1.85259">
        <ele>944</ele>
        <time>2010-01-01T06:41:28Z</time>
      </trkpt>
      <trkpt lat="42.27424" lon="1.85268">
        <ele>946</ele>
        <time>2010-01-01T06:41:31Z</time>
      </trkpt>
      <trkpt lat="42.27425" lon="1.85275">
        <ele>946</ele>
        <time>2010-01-01T06:41:33Z</time>
      </trkpt>
      <trkpt lat="42.27428" lon="1.85287">
        <ele>947</ele>
        <time>2010-01-01T06:41:37Z</time>
      </trkpt>
      <trkpt lat="42.27438" lon="1.85296">
        <ele>949</ele>
        <time>2010-01-01T06:41:42Z</time>
      </trkpt>
      <trkpt lat="42.27449" lon="1.85309">
        <ele>951</ele>
        <time>2010-01-01T06:41:48Z</time>
      </trkpt>
      <trkpt lat="42.27454" lon="1.85312">
        <ele>953</ele>
        <time>2010-01-01T06:41:50Z</time>
      </trkpt>
      <trkpt lat="42.27458" lon="1.85312">
        <ele>955</ele>
        <time>2010-01-01T06:41:51Z</time>
      </trkpt>
      <trkpt lat="42.27453" lon="1.8532">
        <ele>953</ele>
        <time>2010-01-01T06:41:54Z</time>
      </trkpt>
      <trkpt lat="42.27446" lon="1.85322">
        <ele>951</ele>
        <time>2010-01-01T06:41:57Z</time>
      </trkpt>
      <trkpt lat="42.27451" lon="1.85338">
        <ele>953</ele>
        <time>2010-01-01T06:42:02Z</time>
      </trkpt>
      <trkpt lat="42.27454" lon="1.85342">
        <ele>955</ele>
        <time>2010-01-01T06:42:04Z</time>
      </trkpt>
      <trkpt lat="42.2746" lon="1.85346">
        <ele>956</ele>
        <time>2010-01-01T06:42:07Z</time>
      </trkpt>
      <trkpt lat="42.27462" lon="1.8535">
        <ele>957</ele>
        <time>2010-01-01T06:42:08Z</time>
      </trkpt>
      <trkpt lat="42.27455" lon="1.85373">
        <ele>957</ele>
        <time>2010-01-01T06:42:16Z</time>
      </trkpt>
      <trkpt lat="42.27451" lon="1.85379">
        <ele>957</ele>
        <time>2010-01-01T06:42:18Z</time>
      </trkpt>
      <trkpt lat="42.27448" lon="1.85387">
        <ele>958</ele>
        <time>2010-01-01T06:42:21Z</time>
      </trkpt>
      <trkpt lat="42.27454" lon="1.85418">
        <ele>964</ele>
        <time>2010-01-01T06:42:30Z</time>
      </trkpt>
      <trkpt lat="42.27455" lon="1.85432">
        <ele>965</ele>
        <time>2010-01-01T06:42:34Z</time>
      </trkpt>
      <trkpt lat="42.27461" lon="1.85465">
        <ele>967</ele>
        <time>2010-01-01T06:42:44Z</time>
      </trkpt>
      <trkpt lat="42.27459" lon="1.8549">
        <ele>973</ele>
        <time>2010-01-01T06:42:52Z</time>
      </trkpt>
      <trkpt lat="42.2746" lon="1.85505">
        <ele>976</ele>
        <time>2010-01-01T06:42:56Z</time>
      </trkpt>
      <trkpt lat="42.27464" lon="1.85522">
        <ele>977</ele>
        <time>2010-01-01T06:43:02Z</time>
      </trkpt>
      <trkpt lat="42.27472" lon="1.8553">
        <ele>976</ele>
        <time>2010-01-01T06:43:06Z</time>
      </trkpt>
      <trkpt lat="42.2748" lon="1.85544">
        <ele>979</ele>
        <time>2010-01-01T06:43:11Z</time>
      </trkpt>
      <trkpt lat="42.27482" lon="1.85557">
        <ele>981</ele>
        <time>2010-01-01T06:43:15Z</time>
      </trkpt>
      <trkpt lat="42.27484" lon="1.85561">
        <ele>983</ele>
        <time>2010-01-01T06:43:16Z</time>
      </trkpt>
      <trkpt lat="42.27477" lon="1.85597">
        <ele>987</ele>
        <time>2010-01-01T06:43:27Z</time>
      </trkpt>
      <trkpt lat="42.27478" lon="1.85608">
        <ele>987</ele>
        <time>2010-01-01T06:43:31Z</time>
      </trkpt>
      <trkpt lat="42.27482" lon="1.85618">
        <ele>988</ele>
        <time>2010-01-01T06:43:34Z</time>
      </trkpt>
      <trkpt lat="42.27482" lon="1.85627">
        <ele>989</ele>
        <time>2010-01-01T06:43:36Z</time>
      </trkpt>
      <trkpt lat="42.27481" lon="1.85636">
        <ele>990</ele>
        <time>2010-01-01T06:43:39Z</time>
      </trkpt>
      <trkpt lat="42.27483" lon="1.85646">
        <ele>992</ele>
        <time>2010-01-01T06:43:42Z</time>
      </trkpt>
      <trkpt lat="42.27481" lon="1.85675">
        <ele>997</ele>
        <time>2010-01-01T06:43:51Z</time>
      </trkpt>
      <trkpt lat="42.27484" lon="1.85683">
        <ele>999</ele>
        <time>2010-01-01T06:43:54Z</time>
      </trkpt>
      <trkpt lat="42.27478" lon="1.85709">
        <ele>1004</ele>
        <time>2010-01-01T06:44:01Z</time>
      </trkpt>
      <trkpt lat="42.27478" lon="1.85726">
        <ele>1008</ele>
        <time>2010-01-01T06:44:06Z</time>
      </trkpt>
      <trkpt lat="42.2748" lon="1.85733">
        <ele>1010</ele>
        <time>2010-01-01T06:44:09Z</time>
      </trkpt>
      <trkpt lat="42.27486" lon="1.85736">
        <ele>1011</ele>
        <time>2010-01-01T06:44:11Z</time>
      </trkpt>
      <trkpt lat="42.27485" lon="1.85766">
        <ele>1020</ele>
        <time>2010-01-01T06:44:20Z</time>
      </trkpt>
      <trkpt lat="42.27489" lon="1.85776">
        <ele>1022</ele>
        <time>2010-01-01T06:44:24Z</time>
      </trkpt>
      <trkpt lat="42.27495" lon="1.85784">
        <ele>1022</ele>
        <time>2010-01-01T06:44:27Z</time>
      </trkpt>
      <trkpt lat="42.27496" lon="1.85788">
        <ele>1023</ele>
        <time>2010-01-01T06:44:28Z</time>
      </trkpt>
      <trkpt lat="42.27497" lon="1.85803">
        <ele>1027</ele>
        <time>2010-01-01T06:44:33Z</time>
      </trkpt>
      <trkpt lat="42.27498" lon="1.85805">
        <ele>1027</ele>
        <time>2010-01-01T06:44:33Z</time>
      </trkpt>
      <trkpt lat="42.275" lon="1.85801">
        <ele>1025</ele>
        <time>2010-01-01T06:44:35Z</time>
      </trkpt>
      <trkpt lat="42.27502" lon="1.85805">
        <ele>1026</ele>
        <time>2010-01-01T06:44:36Z</time>
      </trkpt>
      <trkpt lat="42.27503" lon="1.85825">
        <ele>1029</ele>
        <time>2010-01-01T06:44:42Z</time>
      </trkpt>
      <trkpt lat="42.275" lon="1.85844">
        <ele>1032</ele>
        <time>2010-01-01T06:44:48Z</time>
      </trkpt>
      <trkpt lat="42.27498" lon="1.85838">
        <ele>1032</ele>
        <time>2010-01-01T06:44:49Z</time>
      </trkpt>
      <trkpt lat="42.27499" lon="1.85851">
        <ele>1034</ele>
        <time>2010-01-01T06:44:53Z</time>
      </trkpt>
      <trkpt lat="42.27497" lon="1.85848">
        <ele>1035</ele>
        <time>2010-01-01T06:44:55Z</time>
      </trkpt>
      <trkpt lat="42.27502" lon="1.85881">
        <ele>1038</ele>
        <time>2010-01-01T06:45:04Z</time>
      </trkpt>
      <trkpt lat="42.27502" lon="1.85906">
        <ele>1043</ele>
        <time>2010-01-01T06:45:12Z</time>
      </trkpt>
      <trkpt lat="42.27511" lon="1.85932">
        <ele>1049</ele>
        <time>2010-01-01T06:45:20Z</time>
      </trkpt>
      <trkpt lat="42.27513" lon="1.85952">
        <ele>1054</ele>
        <time>2010-01-01T06:45:26Z</time>
      </trkpt>
      <trkpt lat="42.27514" lon="1.85954">
        <ele>1054</ele>
        <time>2010-01-01T06:45:27Z</time>
      </trkpt>
      <trkpt lat="42.27504" lon="1.85946">
        <ele>1051</ele>
        <time>2010-01-01T06:45:32Z</time>
      </trkpt>
      <trkpt lat="42.27488" lon="1.85964">
        <ele>1061</ele>
        <time>2010-01-01T06:45:40Z</time>
      </trkpt>
      <trkpt lat="42.27499" lon="1.8596">
        <ele>1055</ele>
        <time>2010-01-01T06:45:45Z</time>
      </trkpt>
      <trkpt lat="42.27503" lon="1.85962">
        <ele>1056</ele>
        <time>2010-01-01T06:45:47Z</time>
      </trkpt>
      <trkpt lat="42.27505" lon="1.85964">
        <ele>1056</ele>
        <time>2010-01-01T06:45:48Z</time>
      </trkpt>
      <trkpt lat="42.27505" lon="1.85977">
        <ele>1059</ele>
        <time>2010-01-01T06:45:51Z</time>
      </trkpt>
      <trkpt lat="42.27497" lon="1.86">
        <ele>1064</ele>
        <time>2010-01-01T06:45:59Z</time>
      </trkpt>
      <trkpt lat="42.27497" lon="1.86005">
        <ele>1064</ele>
        <time>2010-01-01T06:46:01Z</time>
      </trkpt>
      <trkpt lat="42.27501" lon="1.86012">
        <ele>1064</ele>
        <time>2010-01-01T06:46:03Z</time>
      </trkpt>
      <trkpt lat="42.27507" lon="1.86014">
        <ele>1064</ele>
        <time>2010-01-01T06:46:06Z</time>
      </trkpt>
      <trkpt lat="42.27509" lon="1.8603">
        <ele>1065</ele>
        <time>2010-01-01T06:46:11Z</time>
      </trkpt>
      <trkpt lat="42.27515" lon="1.86044">
        <ele>1065</ele>
        <time>2010-01-01T06:46:15Z</time>
      </trkpt>
      <trkpt lat="42.27517" lon="1.86058">
        <ele>1065</ele>
        <time>2010-01-01T06:46:20Z</time>
      </trkpt>
      <trkpt lat="42.27522" lon="1.86071">
        <ele>1067</ele>
        <time>2010-01-01T06:46:24Z</time>
      </trkpt>
      <trkpt lat="42.27517" lon="1.86098">
        <ele>1069</ele>
        <time>2010-01-01T06:46:32Z</time>
      </trkpt>
      <trkpt lat="42.27516" lon="1.86106">
        <ele>1069</ele>
        <time>2010-01-01T06:46:35Z</time>
      </trkpt>
      <trkpt lat="42.27521" lon="1.86117">
        <ele>1071</ele>
        <time>2010-01-01T06:46:39Z</time>
      </trkpt>
      <trkpt lat="42.27525" lon="1.86134">
        <ele>1073</ele>
        <time>2010-01-01T06:46:44Z</time>
      </trkpt>
      <trkpt lat="42.27523" lon="1.86165">
        <ele>1085</ele>
        <time>2010-01-01T06:46:53Z</time>
      </trkpt>
      <trkpt lat="42.27525" lon="1.8618">
        <ele>1088</ele>
        <time>2010-01-01T06:46:58Z</time>
      </trkpt>
      <trkpt lat="42.27524" lon="1.86197">
        <ele>1092</ele>
        <time>2010-01-01T06:47:03Z</time>
      </trkpt>
      <trkpt lat="42.27531" lon="1.86215">
        <ele>1095</ele>
        <time>2010-01-01T06:47:09Z</time>
      </trkpt>
      <trkpt lat="42.27537" lon="1.86224">
        <ele>1098</ele>
        <time>2010-01-01T06:47:12Z</time>
      </trkpt>
      <trkpt lat="42.27539" lon="1.86231">
        <ele>1100</ele>
        <time>2010-01-01T06:47:14Z</time>
      </trkpt>
      <trkpt lat="42.27542" lon="1.86232">
        <ele>1100</ele>
        <time>2010-01-01T06:47:16Z</time>
      </trkpt>
      <trkpt lat="42.27551" lon="1.86267">
        <ele>1110</ele>
        <time>2010-01-01T06:47:26Z</time>
      </trkpt>
      <trkpt lat="42.2756" lon="1.86279">
        <ele>1116</ele>
        <time>2010-01-01T06:47:31Z</time>
      </trkpt>
      <trkpt lat="42.27562" lon="1.86288">
        <ele>1118</ele>
        <time>2010-01-01T06:47:34Z</time>
      </trkpt>
      <trkpt lat="42.2756" lon="1.86312">
        <ele>1119</ele>
        <time>2010-01-01T06:47:42Z</time>
      </trkpt>
      <trkpt lat="42.27565" lon="1.86324">
        <ele>1122</ele>
        <time>2010-01-01T06:47:46Z</time>
      </trkpt>
      <trkpt lat="42.27567" lon="1.86346">
        <ele>1125</ele>
        <time>2010-01-01T06:47:52Z</time>
      </trkpt>
      <trkpt lat="42.27565" lon="1.86352">
        <ele>1126</ele>
        <time>2010-01-01T06:47:54Z</time>
      </trkpt>
      <trkpt lat="42.27566" lon="1.86368">
        <ele>1131</ele>
        <time>2010-01-01T06:47:59Z</time>
      </trkpt>
      <trkpt lat="42.27573" lon="1.86389">
        <ele>1139</ele>
        <time>2010-01-01T06:48:06Z</time>
      </trkpt>
      <trkpt lat="42.2757" lon="1.86404">
        <ele>1141</ele>
        <time>2010-01-01T06:48:10Z</time>
      </trkpt>
      <trkpt lat="42.27563" lon="1.86421">
        <ele>1144</ele>
        <time>2010-01-01T06:48:16Z</time>
      </trkpt>
      <trkpt lat="42.27563" lon="1.86445">
        <ele>1149</ele>
        <time>2010-01-01T06:48:23Z</time>
      </trkpt>
      <trkpt lat="42.27559" lon="1.86464">
        <ele>1154</ele>
        <time>2010-01-01T06:48:29Z</time>
      </trkpt>
      <trkpt lat="42.27559" lon="1.86469">
        <ele>1156</ele>
        <time>2010-01-01T06:48:31Z</time>
      </trkpt>
      <trkpt lat="42.2757" lon="1.86486">
        <ele>1160</ele>
        <time>2010-01-01T06:48:37Z</time>
      </trkpt>
      <trkpt lat="42.27568" lon="1.86498">
        <ele>1165</ele>
        <time>2010-01-01T06:48:41Z</time>
      </trkpt>
      <trkpt lat="42.2757" lon="1.86508">
        <ele>1168</ele>
        <time>2010-01-01T06:48:44Z</time>
      </trkpt>
      <trkpt lat="42.27573" lon="1.86512">
        <ele>1169</ele>
        <time>2010-01-01T06:48:46Z</time>
      </trkpt>
      <trkpt lat="42.27576" lon="1.86525">
        <ele>1173</ele>
        <time>2010-01-01T06:48:50Z</time>
      </trkpt>
      <trkpt lat="42.2758" lon="1.86528">
        <ele>1173</ele>
        <time>2010-01-01T06:48:52Z</time>
      </trkpt>
      <trkpt lat="42.27585" lon="1.86541">
        <ele>1175</ele>
        <time>2010-01-01T06:48:56Z</time>
      </trkpt>
      <trkpt lat="42.27585" lon="1.86549">
        <ele>1177</ele>
        <time>2010-01-01T06:48:59Z</time>
      </trkpt>
      <trkpt lat="42.27581" lon="1.86551">
        <ele>1178</ele>
        <time>2010-01-01T06:49:00Z</time>
      </trkpt>
      <trkpt lat="42.27581" lon="1.86554">
        <ele>1178</ele>
        <time>2010-01-01T06:49:01Z</time>
      </trkpt>
      <trkpt lat="42.27586" lon="1.8657">
        <ele>1180</ele>
        <time>2010-01-01T06:49:06Z</time>
      </trkpt>
      <trkpt lat="42.27589" lon="1.86573">
        <ele>1181</ele>
        <time>2010-01-01T06:49:08Z</time>
      </trkpt>
      <trkpt lat="42.27589" lon="1.86576">
        <ele>1182</ele>
        <time>2010-01-01T06:49:08Z</time>
      </trkpt>
      <trkpt lat="42.27586" lon="1.86578">
        <ele>1181</ele>
        <time>2010-01-01T06:49:10Z</time>
      </trkpt>
      <trkpt lat="42.27585" lon="1.86583">
        <ele>1182</ele>
        <time>2010-01-01T06:49:11Z</time>
      </trkpt>
      <trkpt lat="42.27594" lon="1.86603">
        <ele>1188</ele>
        <time>2010-01-01T06:49:18Z</time>
      </trkpt>
      <trkpt lat="42.27594" lon="1.86611">
        <ele>1189</ele>
        <time>2010-01-01T06:49:21Z</time>
      </trkpt>
      <trkpt lat="42.27591" lon="1.86615">
        <ele>1190</ele>
        <time>2010-01-01T06:49:22Z</time>
      </trkpt>
      <trkpt lat="42.27592" lon="1.86624">
        <ele>1196</ele>
        <time>2010-01-01T06:49:25Z</time>
      </trkpt>
      <trkpt lat="42.27597" lon="1.86629">
        <ele>1198</ele>
        <time>2010-01-01T06:49:27Z</time>
      </trkpt>
      <trkpt lat="42.27601" lon="1.8663">
        <ele>1199</ele>
        <time>2010-01-01T06:49:29Z</time>
      </trkpt>
      <trkpt lat="42.27603" lon="1.86634">
        <ele>1201</ele>
        <time>2010-01-01T06:49:31Z</time>
      </trkpt>
      <trkpt lat="42.27604" lon="1.86641">
        <ele>1203</ele>
        <time>2010-01-01T06:49:33Z</time>
      </trkpt>
      <trkpt lat="42.27608" lon="1.86648">
        <ele>1205</ele>
        <time>2010-01-01T06:49:35Z</time>
      </trkpt>
      <trkpt lat="42.27607" lon="1.86661">
        <ele>1208</ele>
        <time>2010-01-01T06:49:39Z</time>
      </trkpt>
      <trkpt lat="42.27611" lon="1.86674">
        <ele>1211</ele>
        <time>2010-01-01T06:49:43Z</time>
      </trkpt>
      <trkpt lat="42.2761" lon="1.86685">
        <ele>1213</ele>
        <time>2010-01-01T06:49:47Z</time>
      </trkpt>
      <trkpt lat="42.27606" lon="1.86691">
        <ele>1214</ele>
        <time>2010-01-01T06:49:49Z</time>
      </trkpt>
      <trkpt lat="42.27605" lon="1.86694">
        <ele>1214</ele>
        <time>2010-01-01T06:49:50Z</time>
      </trkpt>
      <trkpt lat="42.27611" lon="1.8671">
        <ele>1216</ele>
        <time>2010-01-01T06:49:55Z</time>
      </trkpt>
      <trkpt lat="42.27614" lon="1.86716">
        <ele>1218</ele>
        <time>2010-01-01T06:49:57Z</time>
      </trkpt>
      <trkpt lat="42.27618" lon="1.86716">
        <ele>1219</ele>
        <time>2010-01-01T06:49:59Z</time>
      </trkpt>
      <trkpt lat="42.2762" lon="1.86724">
        <ele>1221</ele>
        <time>2010-01-01T06:50:01Z</time>
      </trkpt>
      <trkpt lat="42.27618" lon="1.86737">
        <ele>1223</ele>
        <time>2010-01-01T06:50:05Z</time>
      </trkpt>
      <trkpt lat="42.27619" lon="1.86754">
        <ele>1226</ele>
        <time>2010-01-01T06:50:10Z</time>
      </trkpt>
      <trkpt lat="42.27617" lon="1.86766">
        <ele>1229</ele>
        <time>2010-01-01T06:50:14Z</time>
      </trkpt>
      <trkpt lat="42.27623" lon="1.86778">
        <ele>1233</ele>
        <time>2010-01-01T06:50:18Z</time>
      </trkpt>
      <trkpt lat="42.27626" lon="1.8678">
        <ele>1235</ele>
        <time>2010-01-01T06:50:20Z</time>
      </trkpt>
      <trkpt lat="42.27629" lon="1.86779">
        <ele>1235</ele>
        <time>2010-01-01T06:50:21Z</time>
      </trkpt>
      <trkpt lat="42.27627" lon="1.86785">
        <ele>1236</ele>
        <time>2010-01-01T06:50:23Z</time>
      </trkpt>
      <trkpt lat="42.27622" lon="1.8679">
        <ele>1236</ele>
        <time>2010-01-01T06:50:25Z</time>
      </trkpt>
      <trkpt lat="42.2762" lon="1.86794">
        <ele>1237</ele>
        <time>2010-01-01T06:50:27Z</time>
      </trkpt>
      <trkpt lat="42.27626" lon="1.86799">
        <ele>1240</ele>
        <time>2010-01-01T06:50:29Z</time>
      </trkpt>
      <trkpt lat="42.27625" lon="1.86808">
        <ele>1242</ele>
        <time>2010-01-01T06:50:32Z</time>
      </trkpt>
      <trkpt lat="42.27627" lon="1.8681">
        <ele>1243</ele>
        <time>2010-01-01T06:50:33Z</time>
      </trkpt>
      <trkpt lat="42.27624" lon="1.86812">
        <ele>1244</ele>
        <time>2010-01-01T06:50:34Z</time>
      </trkpt>
      <trkpt lat="42.27625" lon="1.8682">
        <ele>1247</ele>
        <time>2010-01-01T06:50:36Z</time>
      </trkpt>
      <trkpt lat="42.27628" lon="1.86841">
        <ele>1256</ele>
        <time>2010-01-01T06:50:42Z</time>
      </trkpt>
      <trkpt lat="42.2763" lon="1.86852">
        <ele>1260</ele>
        <time>2010-01-01T06:50:46Z</time>
      </trkpt>
      <trkpt lat="42.27625" lon="1.86862">
        <ele>1262</ele>
        <time>2010-01-01T06:50:49Z</time>
      </trkpt>
      <trkpt lat="42.2763" lon="1.86871">
        <ele>1266</ele>
        <time>2010-01-01T06:50:53Z</time>
      </trkpt>
      <trkpt lat="42.27632" lon="1.86886">
        <ele>1270</ele>
        <time>2010-01-01T06:50:57Z</time>
      </trkpt>
      <trkpt lat="42.27635" lon="1.86892">
        <ele>1272</ele>
        <time>2010-01-01T06:50:59Z</time>
      </trkpt>
      <trkpt lat="42.27646" lon="1.86904">
        <ele>1278</ele>
        <time>2010-01-01T06:51:05Z</time>
      </trkpt>
      <trkpt lat="42.27651" lon="1.86915">
        <ele>1283</ele>
        <time>2010-01-01T06:51:09Z</time>
      </trkpt>
      <trkpt lat="42.27645" lon="1.86938">
        <ele>1288</ele>
        <time>2010-01-01T06:51:16Z</time>
      </trkpt>
      <trkpt lat="42.27647" lon="1.86947">
        <ele>1291</ele>
        <time>2010-01-01T06:51:19Z</time>
      </trkpt>
      <trkpt lat="42.27651" lon="1.86951">
        <ele>1293</ele>
        <time>2010-01-01T06:51:21Z</time>
      </trkpt>
      <trkpt lat="42.27649" lon="1.86963">
        <ele>1296</ele>
        <time>2010-01-01T06:51:24Z</time>
      </trkpt>
      <trkpt lat="42.27646" lon="1.86971">
        <ele>1297</ele>
        <time>2010-01-01T06:51:27Z</time>
      </trkpt>
      <trkpt lat="42.27645" lon="1.86991">
        <ele>1301</ele>
        <time>2010-01-01T06:51:33Z</time>
      </trkpt>
      <trkpt lat="42.27647" lon="1.86999">
        <ele>1304</ele>
        <time>2010-01-01T06:51:36Z</time>
      </trkpt>
      <trkpt lat="42.27654" lon="1.87013">
        <ele>1307</ele>
        <time>2010-01-01T06:51:41Z</time>
      </trkpt>
      <trkpt lat="42.27656" lon="1.87021">
        <ele>1309</ele>
        <time>2010-01-01T06:51:43Z</time>
      </trkpt>
      <trkpt lat="42.27655" lon="1.87025">
        <ele>1309</ele>
        <time>2010-01-01T06:51:44Z</time>
      </trkpt>
      <trkpt lat="42.27657" lon="1.87027">
        <ele>1310</ele>
        <time>2010-01-01T06:51:45Z</time>
      </trkpt>
      <trkpt lat="42.2766" lon="1.87035">
        <ele>1313</ele>
        <time>2010-01-01T06:51:48Z</time>
      </trkpt>
      <trkpt lat="42.27659" lon="1.87061">
        <ele>1323</ele>
        <time>2010-01-01T06:51:56Z</time>
      </trkpt>
      <trkpt lat="42.27659" lon="1.87065">
        <ele>1325</ele>
        <time>2010-01-01T06:51:57Z</time>
      </trkpt>
      <trkpt lat="42.27667" lon="1.87072">
        <ele>1327</ele>
        <time>2010-01-01T06:52:01Z</time>
      </trkpt>
      <trkpt lat="42.27665" lon="1.87075">
        <ele>1329</ele>
        <time>2010-01-01T06:52:01Z</time>
      </trkpt>
      <trkpt lat="42.27664" lon="1.87075">
        <ele>1329</ele>
        <time>2010-01-01T06:52:02Z</time>
      </trkpt>
      <trkpt lat="42.2766" lon="1.8707">
        <ele>1327</ele>
        <time>2010-01-01T06:52:04Z</time>
      </trkpt>
      <trkpt lat="42.27657" lon="1.87061">
        <ele>1324</ele>
        <time>2010-01-01T06:52:07Z</time>
      </trkpt>
      <trkpt lat="42.27657" lon="1.87061">
        <ele>1324</ele>
        <time>2010-01-01T06:52:08Z</time>
      </trkpt>
      <trkpt lat="42.27658" lon="1.87059">
        <ele>1322</ele>
        <time>2010-01-01T06:52:08Z</time>
      </trkpt>
      <trkpt lat="42.27658" lon="1.8707">
        <ele>1328</ele>
        <time>2010-01-01T06:52:12Z</time>
      </trkpt>
      <trkpt lat="42.27651" lon="1.87077">
        <ele>1333</ele>
        <time>2010-01-01T06:52:15Z</time>
      </trkpt>
      <trkpt lat="42.2768" lon="1.87121">
        <ele>1347</ele>
        <time>2010-01-01T06:52:33Z</time>
      </trkpt>
      <trkpt lat="42.27684" lon="1.87123">
        <ele>1348</ele>
        <time>2010-01-01T06:52:34Z</time>
      </trkpt>
      <trkpt lat="42.27686" lon="1.87122">
        <ele>1348</ele>
        <time>2010-01-01T06:52:35Z</time>
      </trkpt>
      <trkpt lat="42.27689" lon="1.87125">
        <ele>1349</ele>
        <time>2010-01-01T06:52:37Z</time>
      </trkpt>
      <trkpt lat="42.27689" lon="1.87125">
        <ele>1349</ele>
        <time>2010-01-01T06:52:37Z</time>
      </trkpt>
      <trkpt lat="42.27683" lon="1.87126">
        <ele>1348</ele>
        <time>2010-01-01T06:52:40Z</time>
      </trkpt>
      <trkpt lat="42.27687" lon="1.87145">
        <ele>1354</ele>
        <time>2010-01-01T06:52:45Z</time>
      </trkpt>
      <trkpt lat="42.27686" lon="1.87145">
        <ele>1354</ele>
        <time>2010-01-01T06:52:46Z</time>
      </trkpt>
      <trkpt lat="42.27685" lon="1.87155">
        <ele>1357</ele>
        <time>2010-01-01T06:52:49Z</time>
      </trkpt>
      <trkpt lat="42.27688" lon="1.87163">
        <ele>1360</ele>
        <time>2010-01-01T06:52:52Z</time>
      </trkpt>
      <trkpt lat="42.27685" lon="1.8717">
        <ele>1362</ele>
        <time>2010-01-01T06:52:54Z</time>
      </trkpt>
      <trkpt lat="42.27684" lon="1.87178">
        <ele>1365</ele>
        <time>2010-01-01T06:52:56Z</time>
      </trkpt>
      <trkpt lat="42.27677" lon="1.87181">
        <ele>1365</ele>
        <time>2010-01-01T06:52:59Z</time>
      </trkpt>
      <trkpt lat="42.27661" lon="1.87177">
        <ele>1364</ele>
        <time>2010-01-01T06:53:06Z</time>
      </trkpt>
      <trkpt lat="42.27655" lon="1.87206">
        <ele>1374</ele>
        <time>2010-01-01T06:53:15Z</time>
      </trkpt>
      <trkpt lat="42.27657" lon="1.87218">
        <ele>1377</ele>
        <time>2010-01-01T06:53:18Z</time>
      </trkpt>
      <trkpt lat="42.27655" lon="1.87229">
        <ele>1380</ele>
        <time>2010-01-01T06:53:22Z</time>
      </trkpt>
      <trkpt lat="42.27654" lon="1.87228">
        <ele>1380</ele>
        <time>2010-01-01T06:53:22Z</time>
      </trkpt>
      <trkpt lat="42.27658" lon="1.87226">
        <ele>1379</ele>
        <time>2010-01-01T06:53:24Z</time>
      </trkpt>
      <trkpt lat="42.27661" lon="1.87228">
        <ele>1379</ele>
        <time>2010-01-01T06:53:25Z</time>
      </trkpt>
      <trkpt lat="42.2766" lon="1.87235">
        <ele>1381</ele>
        <time>2010-01-01T06:53:27Z</time>
      </trkpt>
      <trkpt lat="42.27654" lon="1.87234">
        <ele>1382</ele>
        <time>2010-01-01T06:53:30Z</time>
      </trkpt>
      <trkpt lat="42.27649" lon="1.87241">
        <ele>1384</ele>
        <time>2010-01-01T06:53:33Z</time>
      </trkpt>
      <trkpt lat="42.27647" lon="1.87251">
        <ele>1386</ele>
        <time>2010-01-01T06:53:36Z</time>
      </trkpt>
      <trkpt lat="42.27652" lon="1.87259">
        <ele>1389</ele>
        <time>2010-01-01T06:53:39Z</time>
      </trkpt>
      <trkpt lat="42.27654" lon="1.87261">
        <ele>1389</ele>
        <time>2010-01-01T06:53:40Z</time>
      </trkpt>
      <trkpt lat="42.27672" lon="1.87254">
        <ele>1387</ele>
        <time>2010-01-01T06:53:48Z</time>
      </trkpt>
      <trkpt lat="42.2769" lon="1.87242">
        <ele>1387</ele>
        <time>2010-01-01T06:53:55Z</time>
      </trkpt>
      <trkpt lat="42.27693" lon="1.87246">
        <ele>1389</ele>
        <time>2010-01-01T06:53:57Z</time>
      </trkpt>
      <trkpt lat="42.27687" lon="1.87263">
        <ele>1391</ele>
        <time>2010-01-01T06:54:03Z</time>
      </trkpt>
      <trkpt lat="42.27682" lon="1.87273">
        <ele>1392</ele>
        <time>2010-01-01T06:54:06Z</time>
      </trkpt>
      <trkpt lat="42.27631" lon="1.8733">
        <ele>1402</ele>
        <time>2010-01-01T06:54:33Z</time>
      </trkpt>
      <trkpt lat="42.27622" lon="1.87345">
        <ele>1405</ele>
        <time>2010-01-01T06:54:38Z</time>
      </trkpt>
      <trkpt lat="42.27622" lon="1.87366">
        <ele>1406</ele>
        <time>2010-01-01T06:54:45Z</time>
      </trkpt>
      <trkpt lat="42.27627" lon="1.87427">
        <ele>1401</ele>
        <time>2010-01-01T06:55:03Z</time>
      </trkpt>
      <trkpt lat="42.27631" lon="1.87446">
        <ele>1399</ele>
        <time>2010-01-01T06:55:09Z</time>
      </trkpt>
      <trkpt lat="42.27646" lon="1.87463">
        <ele>1400</ele>
        <time>2010-01-01T06:55:16Z</time>
      </trkpt>
      <trkpt lat="42.27662" lon="1.87492">
        <ele>1404</ele>
        <time>2010-01-01T06:55:27Z</time>
      </trkpt>
      <trkpt lat="42.27666" lon="1.8751">
        <ele>1403</ele>
        <time>2010-01-01T06:55:33Z</time>
      </trkpt>
      <trkpt lat="42.27665" lon="1.87533">
        <ele>1399</ele>
        <time>2010-01-01T06:55:39Z</time>
      </trkpt>
      <trkpt lat="42.27669" lon="1.87555">
        <ele>1400</ele>
        <time>2010-01-01T06:55:46Z</time>
      </trkpt>
      <trkpt lat="42.27677" lon="1.87574">
        <ele>1402</ele>
        <time>2010-01-01T06:55:53Z</time>
      </trkpt>
      <trkpt lat="42.27683" lon="1.87581">
        <ele>1404</ele>
        <time>2010-01-01T06:55:56Z</time>
      </trkpt>
      <trkpt lat="42.27701" lon="1.87596">
        <ele>1411</ele>
        <time>2010-01-01T06:56:04Z</time>
      </trkpt>
      <trkpt lat="42.27709" lon="1.87607">
        <ele>1414</ele>
        <time>2010-01-01T06:56:09Z</time>
      </trkpt>
      <trkpt lat="42.27711" lon="1.87613">
        <ele>1414</ele>
        <time>2010-01-01T06:56:11Z</time>
      </trkpt>
      <trkpt lat="42.27711" lon="1.87623">
        <ele>1415</ele>
        <time>2010-01-01T06:56:14Z</time>
      </trkpt>
      <trkpt lat="42.27707" lon="1.87639">
        <ele>1416</ele>
        <time>2010-01-01T06:56:19Z</time>
      </trkpt>
      <trkpt lat="42.2771" lon="1.87662">
        <ele>1417</ele>
        <time>2010-01-01T06:56:25Z</time>
      </trkpt>
      <trkpt lat="42.27714" lon="1.87672">
        <ele>1418</ele>
        <time>2010-01-01T06:56:29Z</time>
      </trkpt>
      <trkpt lat="42.27714" lon="1.87677">
        <ele>1418</ele>
        <time>2010-01-01T06:56:31Z</time>
      </trkpt>
      <trkpt lat="42.27712" lon="1.87681">
        <ele>1418</ele>
        <time>2010-01-01T06:56:32Z</time>
      </trkpt>
      <trkpt lat="42.27707" lon="1.87688">
        <ele>1417</ele>
        <time>2010-01-01T06:56:35Z</time>
      </trkpt>
      <trkpt lat="42.27705" lon="1.87697">
        <ele>1416</ele>
        <time>2010-01-01T06:56:37Z</time>
      </trkpt>
      <trkpt lat="42.27699" lon="1.87704">
        <ele>1415</ele>
        <time>2010-01-01T06:56:41Z</time>
      </trkpt>
      <trkpt lat="42.2769" lon="1.87735">
        <ele>1410</ele>
        <time>2010-01-01T06:56:50Z</time>
      </trkpt>
      <trkpt lat="42.27686" lon="1.8776">
        <ele>1407</ele>
        <time>2010-01-01T06:56:58Z</time>
      </trkpt>
      <trkpt lat="42.27682" lon="1.8777">
        <ele>1406</ele>
        <time>2010-01-01T06:57:02Z</time>
      </trkpt>
      <trkpt lat="42.27681" lon="1.87776">
        <ele>1405</ele>
        <time>2010-01-01T06:57:04Z</time>
      </trkpt>
      <trkpt lat="42.27679" lon="1.87785">
        <ele>1404</ele>
        <time>2010-01-01T06:57:06Z</time>
      </trkpt>
      <trkpt lat="42.27676" lon="1.87806">
        <ele>1400</ele>
        <time>2010-01-01T06:57:13Z</time>
      </trkpt>
      <trkpt lat="42.27677" lon="1.87822">
        <ele>1397</ele>
        <time>2010-01-01T06:57:17Z</time>
      </trkpt>
      <trkpt lat="42.27674" lon="1.8783">
        <ele>1394</ele>
        <time>2010-01-01T06:57:20Z</time>
      </trkpt>
      <trkpt lat="42.27671" lon="1.87844">
        <ele>1392</ele>
        <time>2010-01-01T06:57:24Z</time>
      </trkpt>
      <trkpt lat="42.27658" lon="1.87874">
        <ele>1385</ele>
        <time>2010-01-01T06:57:35Z</time>
      </trkpt>
      <trkpt lat="42.27655" lon="1.87876">
        <ele>1384</ele>
        <time>2010-01-01T06:57:36Z</time>
      </trkpt>
      <trkpt lat="42.27656" lon="1.87883">
        <ele>1384</ele>
        <time>2010-01-01T06:57:38Z</time>
      </trkpt>
      <trkpt lat="42.27663" lon="1.87895">
        <ele>1387</ele>
        <time>2010-01-01T06:57:42Z</time>
      </trkpt>
      <trkpt lat="42.27674" lon="1.87895">
        <ele>1393</ele>
        <time>2010-01-01T06:57:47Z</time>
      </trkpt>
      <trkpt lat="42.27638" lon="1.87891">
        <ele>1377</ele>
        <time>2010-01-01T06:58:01Z</time>
      </trkpt>
      <trkpt lat="42.27632" lon="1.87902">
        <ele>1374</ele>
        <time>2010-01-01T06:58:05Z</time>
      </trkpt>
      <trkpt lat="42.2763" lon="1.87914">
        <ele>1374</ele>
        <time>2010-01-01T06:58:09Z</time>
      </trkpt>
      <trkpt lat="42.27625" lon="1.87918">
        <ele>1371</ele>
        <time>2010-01-01T06:58:11Z</time>
      </trkpt>
      <trkpt lat="42.27625" lon="1.87909">
        <ele>1372</ele>
        <time>2010-01-01T06:58:14Z</time>
      </trkpt>
      <trkpt lat="42.27621" lon="1.87909">
        <ele>1370</ele>
        <time>2010-01-01T06:58:16Z</time>
      </trkpt>
      <trkpt lat="42.27618" lon="1.87905">
        <ele>1369</ele>
        <time>2010-01-01T06:58:18Z</time>
      </trkpt>
      <trkpt lat="42.27621" lon="1.87884">
        <ele>1371</ele>
        <time>2010-01-01T06:58:24Z</time>
      </trkpt>
      <trkpt lat="42.27623" lon="1.87886">
        <ele>1371</ele>
        <time>2010-01-01T06:58:25Z</time>
      </trkpt>
      <trkpt lat="42.27613" lon="1.87889">
        <ele>1367</ele>
        <time>2010-01-01T06:58:29Z</time>
      </trkpt>
      <trkpt lat="42.2761" lon="1.87886">
        <ele>1366</ele>
        <time>2010-01-01T06:58:30Z</time>
      </trkpt>
      <trkpt lat="42.27603" lon="1.87882">
        <ele>1364</ele>
        <time>2010-01-01T06:58:33Z</time>
      </trkpt>
      <trkpt lat="42.27598" lon="1.87888">
        <ele>1361</ele>
        <time>2010-01-01T06:58:36Z</time>
      </trkpt>
      <trkpt lat="42.27593" lon="1.8789">
        <ele>1359</ele>
        <time>2010-01-01T06:58:38Z</time>
      </trkpt>
      <trkpt lat="42.27591" lon="1.87901">
        <ele>1358</ele>
        <time>2010-01-01T06:58:41Z</time>
      </trkpt>
      <trkpt lat="42.27597" lon="1.87924">
        <ele>1359</ele>
        <time>2010-01-01T06:58:48Z</time>
      </trkpt>
      <trkpt lat="42.27588" lon="1.87923">
        <ele>1356</ele>
        <time>2010-01-01T06:58:52Z</time>
      </trkpt>
      <trkpt lat="42.27583" lon="1.87933">
        <ele>1353</ele>
        <time>2010-01-01T06:58:56Z</time>
      </trkpt>
      <trkpt lat="42.2758" lon="1.87948">
        <ele>1350</ele>
        <time>2010-01-01T06:59:00Z</time>
      </trkpt>
      <trkpt lat="42.2758" lon="1.87966">
        <ele>1348</ele>
        <time>2010-01-01T06:59:06Z</time>
      </trkpt>
      <trkpt lat="42.27575" lon="1.87978">
        <ele>1345</ele>
        <time>2010-01-01T06:59:10Z</time>
      </trkpt>
      <trkpt lat="42.2756" lon="1.87971">
        <ele>1340</ele>
        <time>2010-01-01T06:59:16Z</time>
      </trkpt>
      <trkpt lat="42.27547" lon="1.87962">
        <ele>1337</ele>
        <time>2010-01-01T06:59:22Z</time>
      </trkpt>
      <trkpt lat="42.27529" lon="1.87962">
        <ele>1333</ele>
        <time>2010-01-01T06:59:29Z</time>
      </trkpt>
      <trkpt lat="42.27512" lon="1.87974">
        <ele>1328</ele>
        <time>2010-01-01T06:59:37Z</time>
      </trkpt>
      <trkpt lat="42.27491" lon="1.87992">
        <ele>1322</ele>
        <time>2010-01-01T06:59:47Z</time>
      </trkpt>
      <trkpt lat="42.27478" lon="1.88013">
        <ele>1317</ele>
        <time>2010-01-01T06:59:55Z</time>
      </trkpt>
      <trkpt lat="42.27467" lon="1.88044">
        <ele>1314</ele>
        <time>2010-01-01T07:00:05Z</time>
      </trkpt>
      <trkpt lat="42.27461" lon="1.88072">
        <ele>1315</ele>
        <time>2010-01-01T07:00:14Z</time>
      </trkpt>
      <trkpt lat="42.27467" lon="1.8811">
        <ele>1317</ele>
        <time>2010-01-01T07:00:25Z</time>
      </trkpt>
      <trkpt lat="42.27476" lon="1.88132">
        <ele>1316</ele>
        <time>2010-01-01T07:00:33Z</time>
      </trkpt>
      <trkpt lat="42.27481" lon="1.88154">
        <ele>1315</ele>
        <time>2010-01-01T07:00:40Z</time>
      </trkpt>
      <trkpt lat="42.27479" lon="1.88164">
        <ele>1314</ele>
        <time>2010-01-01T07:00:43Z</time>
      </trkpt>
      <trkpt lat="42.27478" lon="1.88163">
        <ele>1314</ele>
        <time>2010-01-01T07:00:43Z</time>
      </trkpt>
      <trkpt lat="42.27481" lon="1.88161">
        <ele>1315</ele>
        <time>2010-01-01T07:00:44Z</time>
      </trkpt>
      <trkpt lat="42.27483" lon="1.88163">
        <ele>1314</ele>
        <time>2010-01-01T07:00:46Z</time>
      </trkpt>
      <trkpt lat="42.27489" lon="1.88196">
        <ele>1314</ele>
        <time>2010-01-01T07:00:55Z</time>
      </trkpt>
      <trkpt lat="42.27492" lon="1.8823">
        <ele>1320</ele>
        <time>2010-01-01T07:01:06Z</time>
      </trkpt>
      <trkpt lat="42.275" lon="1.88265">
        <ele>1326</ele>
        <time>2010-01-01T07:01:17Z</time>
      </trkpt>
      <trkpt lat="42.2752" lon="1.88275">
        <ele>1325</ele>
        <time>2010-01-01T07:01:25Z</time>
      </trkpt>
      <trkpt lat="42.2754" lon="1.88287">
        <ele>1327</ele>
        <time>2010-01-01T07:01:34Z</time>
      </trkpt>
      <trkpt lat="42.27543" lon="1.88299">
        <ele>1330</ele>
        <time>2010-01-01T07:01:38Z</time>
      </trkpt>
      <trkpt lat="42.27536" lon="1.88307">
        <ele>1331</ele>
        <time>2010-01-01T07:01:41Z</time>
      </trkpt>
      <trkpt lat="42.27537" lon="1.88321">
        <ele>1335</ele>
        <time>2010-01-01T07:01:45Z</time>
      </trkpt>
      <trkpt lat="42.27547" lon="1.88325">
        <ele>1336</ele>
        <time>2010-01-01T07:01:50Z</time>
      </trkpt>
      <trkpt lat="42.2756" lon="1.88327">
        <ele>1337</ele>
        <time>2010-01-01T07:01:55Z</time>
      </trkpt>
      <trkpt lat="42.27565" lon="1.88334">
        <ele>1340</ele>
        <time>2010-01-01T07:01:58Z</time>
      </trkpt>
      <trkpt lat="42.27559" lon="1.8835">
        <ele>1342</ele>
        <time>2010-01-01T07:02:03Z</time>
      </trkpt>
      <trkpt lat="42.27564" lon="1.8836">
        <ele>1345</ele>
        <time>2010-01-01T07:02:07Z</time>
      </trkpt>
      <trkpt lat="42.27567" lon="1.88376">
        <ele>1350</ele>
        <time>2010-01-01T07:02:12Z</time>
      </trkpt>
      <trkpt lat="42.27567" lon="1.88384">
        <ele>1352</ele>
        <time>2010-01-01T07:02:14Z</time>
      </trkpt>
      <trkpt lat="42.2756" lon="1.88387">
        <ele>1351</ele>
        <time>2010-01-01T07:02:17Z</time>
      </trkpt>
      <trkpt lat="42.27549" lon="1.88386">
        <ele>1352</ele>
        <time>2010-01-01T07:02:21Z</time>
      </trkpt>
      <trkpt lat="42.27539" lon="1.8839">
        <ele>1356</ele>
        <time>2010-01-01T07:02:25Z</time>
      </trkpt>
      <trkpt lat="42.2753" lon="1.8839">
        <ele>1359</ele>
        <time>2010-01-01T07:02:29Z</time>
      </trkpt>
      <trkpt lat="42.27541" lon="1.88408">
        <ele>1363</ele>
        <time>2010-01-01T07:02:36Z</time>
      </trkpt>
      <trkpt lat="42.27543" lon="1.88418">
        <ele>1366</ele>
        <time>2010-01-01T07:02:39Z</time>
      </trkpt>
      <trkpt lat="42.2754" lon="1.88428">
        <ele>1371</ele>
        <time>2010-01-01T07:02:42Z</time>
      </trkpt>
      <trkpt lat="42.27536" lon="1.88427">
        <ele>1372</ele>
        <time>2010-01-01T07:02:44Z</time>
      </trkpt>
      <trkpt lat="42.27531" lon="1.88432">
        <ele>1376</ele>
        <time>2010-01-01T07:02:46Z</time>
      </trkpt>
      <trkpt lat="42.27532" lon="1.88436">
        <ele>1377</ele>
        <time>2010-01-01T07:02:47Z</time>
      </trkpt>
      <trkpt lat="42.27538" lon="1.88454">
        <ele>1382</ele>
        <time>2010-01-01T07:02:53Z</time>
      </trkpt>
      <trkpt lat="42.2754" lon="1.88467">
        <ele>1387</ele>
        <time>2010-01-01T07:02:57Z</time>
      </trkpt>
      <trkpt lat="42.27544" lon="1.88479">
        <ele>1390</ele>
        <time>2010-01-01T07:03:01Z</time>
      </trkpt>
      <trkpt lat="42.27553" lon="1.88495">
        <ele>1394</ele>
        <time>2010-01-01T07:03:07Z</time>
      </trkpt>
      <trkpt lat="42.27563" lon="1.88507">
        <ele>1399</ele>
        <time>2010-01-01T07:03:12Z</time>
      </trkpt>
      <trkpt lat="42.27572" lon="1.88504">
        <ele>1398</ele>
        <time>2010-01-01T07:03:16Z</time>
      </trkpt>
      <trkpt lat="42.27575" lon="1.88511">
        <ele>1400</ele>
        <time>2010-01-01T07:03:19Z</time>
      </trkpt>
      <trkpt lat="42.27576" lon="1.88529">
        <ele>1406</ele>
        <time>2010-01-01T07:03:24Z</time>
      </trkpt>
      <trkpt lat="42.27573" lon="1.88552">
        <ele>1414</ele>
        <time>2010-01-01T07:03:31Z</time>
      </trkpt>
      <trkpt lat="42.27564" lon="1.88553">
        <ele>1417</ele>
        <time>2010-01-01T07:03:34Z</time>
      </trkpt>
      <trkpt lat="42.27547" lon="1.88546">
        <ele>1418</ele>
        <time>2010-01-01T07:03:42Z</time>
      </trkpt>
      <trkpt lat="42.27543" lon="1.88542">
        <ele>1418</ele>
        <time>2010-01-01T07:03:44Z</time>
      </trkpt>
      <trkpt lat="42.27541" lon="1.88545">
        <ele>1420</ele>
        <time>2010-01-01T07:03:45Z</time>
      </trkpt>
      <trkpt lat="42.27546" lon="1.88563">
        <ele>1427</ele>
        <time>2010-01-01T07:03:51Z</time>
      </trkpt>
      <trkpt lat="42.27546" lon="1.88574">
        <ele>1434</ele>
        <time>2010-01-01T07:03:54Z</time>
      </trkpt>
      <trkpt lat="42.27558" lon="1.88602">
        <ele>1441</ele>
        <time>2010-01-01T07:04:04Z</time>
      </trkpt>
      <trkpt lat="42.27553" lon="1.88602">
        <ele>1443</ele>
        <time>2010-01-01T07:04:06Z</time>
      </trkpt>
      <trkpt lat="42.27554" lon="1.88612">
        <ele>1447</ele>
        <time>2010-01-01T07:04:09Z</time>
      </trkpt>
      <trkpt lat="42.27558" lon="1.8863">
        <ele>1453</ele>
        <time>2010-01-01T07:04:14Z</time>
      </trkpt>
      <trkpt lat="42.27563" lon="1.88643">
        <ele>1455</ele>
        <time>2010-01-01T07:04:19Z</time>
      </trkpt>
      <trkpt lat="42.27578" lon="1.88653">
        <ele>1453</ele>
        <time>2010-01-01T07:04:25Z</time>
      </trkpt>
      <trkpt lat="42.27592" lon="1.88657">
        <ele>1452</ele>
        <time>2010-01-01T07:04:31Z</time>
      </trkpt>
      <trkpt lat="42.27595" lon="1.88662">
        <ele>1454</ele>
        <time>2010-01-01T07:04:33Z</time>
      </trkpt>
      <trkpt lat="42.27597" lon="1.88673">
        <ele>1457</ele>
        <time>2010-01-01T07:04:36Z</time>
      </trkpt>
      <trkpt lat="42.27595" lon="1.88684">
        <ele>1460</ele>
        <time>2010-01-01T07:04:40Z</time>
      </trkpt>
      <trkpt lat="42.27598" lon="1.88704">
        <ele>1465</ele>
        <time>2010-01-01T07:04:46Z</time>
      </trkpt>
      <trkpt lat="42.27594" lon="1.8873">
        <ele>1471</ele>
        <time>2010-01-01T07:04:54Z</time>
      </trkpt>
      <trkpt lat="42.2759" lon="1.88738">
        <ele>1473</ele>
        <time>2010-01-01T07:04:56Z</time>
      </trkpt>
      <trkpt lat="42.27579" lon="1.88755">
        <ele>1476</ele>
        <time>2010-01-01T07:05:03Z</time>
      </trkpt>
      <trkpt lat="42.27559" lon="1.88774">
        <ele>1479</ele>
        <time>2010-01-01T07:05:13Z</time>
      </trkpt>
      <trkpt lat="42.2757" lon="1.88782">
        <ele>1480</ele>
        <time>2010-01-01T07:05:18Z</time>
      </trkpt>
      <trkpt lat="42.27558" lon="1.88775">
        <ele>1479</ele>
        <time>2010-01-01T07:05:24Z</time>
      </trkpt>
      <trkpt lat="42.27553" lon="1.88778">
        <ele>1480</ele>
        <time>2010-01-01T07:05:26Z</time>
      </trkpt>
      <trkpt lat="42.27545" lon="1.88786">
        <ele>1481</ele>
        <time>2010-01-01T07:05:30Z</time>
      </trkpt>
      <trkpt lat="42.27533" lon="1.88822">
        <ele>1481</ele>
        <time>2010-01-01T07:05:41Z</time>
      </trkpt>
      <trkpt lat="42.27515" lon="1.88849">
        <ele>1482</ele>
        <time>2010-01-01T07:05:52Z</time>
      </trkpt>
      <trkpt lat="42.27506" lon="1.88858">
        <ele>1482</ele>
        <time>2010-01-01T07:05:57Z</time>
      </trkpt>
      <trkpt lat="42.27496" lon="1.88871">
        <ele>1483</ele>
        <time>2010-01-01T07:06:02Z</time>
      </trkpt>
      <trkpt lat="42.27492" lon="1.88886">
        <ele>1482</ele>
        <time>2010-01-01T07:06:07Z</time>
      </trkpt>
      <trkpt lat="42.27484" lon="1.88899">
        <ele>1483</ele>
        <time>2010-01-01T07:06:12Z</time>
      </trkpt>
      <trkpt lat="42.27457" lon="1.88933">
        <ele>1482</ele>
        <time>2010-01-01T07:06:27Z</time>
      </trkpt>
      <trkpt lat="42.27438" lon="1.88962">
        <ele>1485</ele>
        <time>2010-01-01T07:06:38Z</time>
      </trkpt>
      <trkpt lat="42.27425" lon="1.88976">
        <ele>1491</ele>
        <time>2010-01-01T07:06:45Z</time>
      </trkpt>
      <trkpt lat="42.27419" lon="1.88987">
        <ele>1493</ele>
        <time>2010-01-01T07:06:49Z</time>
      </trkpt>
      <trkpt lat="42.27411" lon="1.88999">
        <ele>1495</ele>
        <time>2010-01-01T07:06:54Z</time>
      </trkpt>
      <trkpt lat="42.27405" lon="1.89006">
        <ele>1496</ele>
        <time>2010-01-01T07:06:57Z</time>
      </trkpt>
      <trkpt lat="42.27395" lon="1.89013">
        <ele>1500</ele>
        <time>2010-01-01T07:07:02Z</time>
      </trkpt>
      <trkpt lat="42.27374" lon="1.89036">
        <ele>1507</ele>
        <time>2010-01-01T07:07:12Z</time>
      </trkpt>
      <trkpt lat="42.27365" lon="1.89051">
        <ele>1508</ele>
        <time>2010-01-01T07:07:18Z</time>
      </trkpt>
      <trkpt lat="42.27358" lon="1.89057">
        <ele>1512</ele>
        <time>2010-01-01T07:07:21Z</time>
      </trkpt>
      <trkpt lat="42.27342" lon="1.89079">
        <ele>1517</ele>
        <time>2010-01-01T07:07:31Z</time>
      </trkpt>
      <trkpt lat="42.27331" lon="1.89092">
        <ele>1522</ele>
        <time>2010-01-01T07:07:36Z</time>
      </trkpt>
      <trkpt lat="42.27325" lon="1.89097">
        <ele>1524</ele>
        <time>2010-01-01T07:07:39Z</time>
      </trkpt>
      <trkpt lat="42.27312" lon="1.89115">
        <ele>1527</ele>
        <time>2010-01-01T07:07:46Z</time>
      </trkpt>
      <trkpt lat="42.27308" lon="1.89125">
        <ele>1527</ele>
        <time>2010-01-01T07:07:50Z</time>
      </trkpt>
      <trkpt lat="42.2731" lon="1.89125">
        <ele>1526</ele>
        <time>2010-01-01T07:07:51Z</time>
      </trkpt>
      <trkpt lat="42.2731" lon="1.89126">
        <ele>1526</ele>
        <time>2010-01-01T07:07:51Z</time>
      </trkpt>
      <trkpt lat="42.27296" lon="1.89138">
        <ele>1532</ele>
        <time>2010-01-01T07:07:58Z</time>
      </trkpt>
      <trkpt lat="42.2729" lon="1.89146">
        <ele>1534</ele>
        <time>2010-01-01T07:08:01Z</time>
      </trkpt>
      <trkpt lat="42.27279" lon="1.89174">
        <ele>1537</ele>
        <time>2010-01-01T07:08:11Z</time>
      </trkpt>
      <trkpt lat="42.27267" lon="1.89189">
        <ele>1546</ele>
        <time>2010-01-01T07:08:17Z</time>
      </trkpt>
      <trkpt lat="42.27254" lon="1.89211">
        <ele>1554</ele>
        <time>2010-01-01T07:08:26Z</time>
      </trkpt>
      <trkpt lat="42.27253" lon="1.89216">
        <ele>1554</ele>
        <time>2010-01-01T07:08:27Z</time>
      </trkpt>
      <trkpt lat="42.27241" lon="1.89239">
        <ele>1552</ele>
        <time>2010-01-01T07:08:35Z</time>
      </trkpt>
      <trkpt lat="42.27236" lon="1.89255">
        <ele>1549</ele>
        <time>2010-01-01T07:08:40Z</time>
      </trkpt>
      <trkpt lat="42.27231" lon="1.89261">
        <ele>1550</ele>
        <time>2010-01-01T07:08:43Z</time>
      </trkpt>
      <trkpt lat="42.27215" lon="1.89276">
        <ele>1552</ele>
        <time>2010-01-01T07:08:51Z</time>
      </trkpt>
      <trkpt lat="42.27209" lon="1.89288">
        <ele>1551</ele>
        <time>2010-01-01T07:08:55Z</time>
      </trkpt>
      <trkpt lat="42.27206" lon="1.89305">
        <ele>1550</ele>
        <time>2010-01-01T07:09:00Z</time>
      </trkpt>
      <trkpt lat="42.27192" lon="1.89331">
        <ele>1550</ele>
        <time>2010-01-01T07:09:10Z</time>
      </trkpt>
      <trkpt lat="42.27195" lon="1.8933">
        <ele>1551</ele>
        <time>2010-01-01T07:09:11Z</time>
      </trkpt>
      <trkpt lat="42.2719" lon="1.89334">
        <ele>1550</ele>
        <time>2010-01-01T07:09:13Z</time>
      </trkpt>
      <trkpt lat="42.27182" lon="1.89347">
        <ele>1548</ele>
        <time>2010-01-01T07:09:18Z</time>
      </trkpt>
      <trkpt lat="42.2717" lon="1.89343">
        <ele>1547</ele>
        <time>2010-01-01T07:09:23Z</time>
      </trkpt>
      <trkpt lat="42.27167" lon="1.89344">
        <ele>1547</ele>
        <time>2010-01-01T07:09:24Z</time>
      </trkpt>
      <trkpt lat="42.27161" lon="1.89349">
        <ele>1545</ele>
        <time>2010-01-01T07:09:27Z</time>
      </trkpt>
      <trkpt lat="42.27154" lon="1.89352">
        <ele>1543</ele>
        <time>2010-01-01T07:09:30Z</time>
      </trkpt>
      <trkpt lat="42.27144" lon="1.8936">
        <ele>1539</ele>
        <time>2010-01-01T07:09:35Z</time>
      </trkpt>
      <trkpt lat="42.27138" lon="1.89369">
        <ele>1538</ele>
        <time>2010-01-01T07:09:39Z</time>
      </trkpt>
      <trkpt lat="42.27129" lon="1.89386">
        <ele>1538</ele>
        <time>2010-01-01T07:09:45Z</time>
      </trkpt>
      <trkpt lat="42.27122" lon="1.8939">
        <ele>1536</ele>
        <time>2010-01-01T07:09:48Z</time>
      </trkpt>
      <trkpt lat="42.27121" lon="1.89393">
        <ele>1536</ele>
        <time>2010-01-01T07:09:49Z</time>
      </trkpt>
      <trkpt lat="42.27109" lon="1.89401">
        <ele>1534</ele>
        <time>2010-01-01T07:09:54Z</time>
      </trkpt>
      <trkpt lat="42.27099" lon="1.8942">
        <ele>1533</ele>
        <time>2010-01-01T07:10:01Z</time>
      </trkpt>
      <trkpt lat="42.27091" lon="1.89426">
        <ele>1531</ele>
        <time>2010-01-01T07:10:04Z</time>
      </trkpt>
      <trkpt lat="42.2708" lon="1.89441">
        <ele>1528</ele>
        <time>2010-01-01T07:10:11Z</time>
      </trkpt>
      <trkpt lat="42.27079" lon="1.89455">
        <ele>1529</ele>
        <time>2010-01-01T07:10:15Z</time>
      </trkpt>
      <trkpt lat="42.27077" lon="1.89462">
        <ele>1528</ele>
        <time>2010-01-01T07:10:17Z</time>
      </trkpt>
      <trkpt lat="42.2707" lon="1.89464">
        <ele>1526</ele>
        <time>2010-01-01T07:10:20Z</time>
      </trkpt>
      <trkpt lat="42.27069" lon="1.89466">
        <ele>1526</ele>
        <time>2010-01-01T07:10:21Z</time>
      </trkpt>
      <trkpt lat="42.27063" lon="1.89458">
        <ele>1523</ele>
        <time>2010-01-01T07:10:24Z</time>
      </trkpt>
      <trkpt lat="42.27057" lon="1.8944">
        <ele>1520</ele>
        <time>2010-01-01T07:10:30Z</time>
      </trkpt>
      <trkpt lat="42.27058" lon="1.89435">
        <ele>1520</ele>
        <time>2010-01-01T07:10:31Z</time>
      </trkpt>
      <trkpt lat="42.27054" lon="1.89431">
        <ele>1519</ele>
        <time>2010-01-01T07:10:33Z</time>
      </trkpt>
      <trkpt lat="42.27052" lon="1.89422">
        <ele>1518</ele>
        <time>2010-01-01T07:10:36Z</time>
      </trkpt>
      <trkpt lat="42.27048" lon="1.89417">
        <ele>1516</ele>
        <time>2010-01-01T07:10:38Z</time>
      </trkpt>
      <trkpt lat="42.27039" lon="1.894">
        <ele>1513</ele>
        <time>2010-01-01T07:10:44Z</time>
      </trkpt>
      <trkpt lat="42.27035" lon="1.89379">
        <ele>1509</ele>
        <time>2010-01-01T07:10:51Z</time>
      </trkpt>
      <trkpt lat="42.27026" lon="1.89367">
        <ele>1505</ele>
        <time>2010-01-01T07:10:56Z</time>
      </trkpt>
      <trkpt lat="42.27014" lon="1.89347">
        <ele>1502</ele>
        <time>2010-01-01T07:11:03Z</time>
      </trkpt>
      <trkpt lat="42.26997" lon="1.89324">
        <ele>1500</ele>
        <time>2010-01-01T07:11:13Z</time>
      </trkpt>
      <trkpt lat="42.26991" lon="1.89322">
        <ele>1500</ele>
        <time>2010-01-01T07:11:16Z</time>
      </trkpt>
      <trkpt lat="42.26982" lon="1.89324">
        <ele>1501</ele>
        <time>2010-01-01T07:11:19Z</time>
      </trkpt>
      <trkpt lat="42.26977" lon="1.89327">
        <ele>1502</ele>
        <time>2010-01-01T07:11:21Z</time>
      </trkpt>
      <trkpt lat="42.26974" lon="1.89334">
        <ele>1502</ele>
        <time>2010-01-01T07:11:24Z</time>
      </trkpt>
      <trkpt lat="42.26966" lon="1.89367">
        <ele>1503</ele>
        <time>2010-01-01T07:11:34Z</time>
      </trkpt>
      <trkpt lat="42.26961" lon="1.89379">
        <ele>1503</ele>
        <time>2010-01-01T07:11:38Z</time>
      </trkpt>
      <trkpt lat="42.26962" lon="1.89389">
        <ele>1502</ele>
        <time>2010-01-01T07:11:41Z</time>
      </trkpt>
      <trkpt lat="42.26966" lon="1.89397">
        <ele>1501</ele>
        <time>2010-01-01T07:11:44Z</time>
      </trkpt>
      <trkpt lat="42.26974" lon="1.89378">
        <ele>1501</ele>
        <time>2010-01-01T07:11:50Z</time>
      </trkpt>
      <trkpt lat="42.26976" lon="1.89351">
        <ele>1502</ele>
        <time>2010-01-01T07:11:58Z</time>
      </trkpt>
      <trkpt lat="42.26974" lon="1.89343">
        <ele>1502</ele>
        <time>2010-01-01T07:12:01Z</time>
      </trkpt>
      <trkpt lat="42.26962" lon="1.89337">
        <ele>1504</ele>
        <time>2010-01-01T07:12:06Z</time>
      </trkpt>
      <trkpt lat="42.26956" lon="1.8934">
        <ele>1505</ele>
        <time>2010-01-01T07:12:09Z</time>
      </trkpt>
      <trkpt lat="42.26927" lon="1.89352">
        <ele>1509</ele>
        <time>2010-01-01T07:12:21Z</time>
      </trkpt>
      <trkpt lat="42.26915" lon="1.89362">
        <ele>1509</ele>
        <time>2010-01-01T07:12:27Z</time>
      </trkpt>
      <trkpt lat="42.26896" lon="1.89382">
        <ele>1509</ele>
        <time>2010-01-01T07:12:36Z</time>
      </trkpt>
      <trkpt lat="42.26877" lon="1.89391">
        <ele>1510</ele>
        <time>2010-01-01T07:12:44Z</time>
      </trkpt>
      <trkpt lat="42.26867" lon="1.894">
        <ele>1511</ele>
        <time>2010-01-01T07:12:49Z</time>
      </trkpt>
      <trkpt lat="42.26859" lon="1.8941">
        <ele>1512</ele>
        <time>2010-01-01T07:12:53Z</time>
      </trkpt>
      <trkpt lat="42.26852" lon="1.89405">
        <ele>1513</ele>
        <time>2010-01-01T07:12:57Z</time>
      </trkpt>
      <trkpt lat="42.26846" lon="1.89429">
        <ele>1516</ele>
        <time>2010-01-01T07:13:04Z</time>
      </trkpt>
      <trkpt lat="42.2685" lon="1.89449">
        <ele>1517</ele>
        <time>2010-01-01T07:13:10Z</time>
      </trkpt>
      <trkpt lat="42.26849" lon="1.89454">
        <ele>1517</ele>
        <time>2010-01-01T07:13:12Z</time>
      </trkpt>
      <trkpt lat="42.26841" lon="1.89471">
        <ele>1519</ele>
        <time>2010-01-01T07:13:18Z</time>
      </trkpt>
      <trkpt lat="42.26837" lon="1.89472">
        <ele>1519</ele>
        <time>2010-01-01T07:13:19Z</time>
      </trkpt>
      <trkpt lat="42.26821" lon="1.89461">
        <ele>1524</ele>
        <time>2010-01-01T07:13:27Z</time>
      </trkpt>
      <trkpt lat="42.2681" lon="1.89443">
        <ele>1529</ele>
        <time>2010-01-01T07:13:34Z</time>
      </trkpt>
      <trkpt lat="42.26795" lon="1.89424">
        <ele>1531</ele>
        <time>2010-01-01T07:13:42Z</time>
      </trkpt>
      <trkpt lat="42.26788" lon="1.89418">
        <ele>1531</ele>
        <time>2010-01-01T07:13:45Z</time>
      </trkpt>
      <trkpt lat="42.26785" lon="1.8942">
        <ele>1531</ele>
        <time>2010-01-01T07:13:46Z</time>
      </trkpt>
      <trkpt lat="42.2678" lon="1.8944">
        <ele>1534</ele>
        <time>2010-01-01T07:13:53Z</time>
      </trkpt>
      <trkpt lat="42.26781" lon="1.89448">
        <ele>1534</ele>
        <time>2010-01-01T07:13:55Z</time>
      </trkpt>
      <trkpt lat="42.26773" lon="1.89472">
        <ele>1540</ele>
        <time>2010-01-01T07:14:03Z</time>
      </trkpt>
      <trkpt lat="42.26773" lon="1.89489">
        <ele>1543</ele>
        <time>2010-01-01T07:14:08Z</time>
      </trkpt>
      <trkpt lat="42.26764" lon="1.89529">
        <ele>1546</ele>
        <time>2010-01-01T07:14:20Z</time>
      </trkpt>
      <trkpt lat="42.26745" lon="1.89567">
        <ele>1554</ele>
        <time>2010-01-01T07:14:34Z</time>
      </trkpt>
      <trkpt lat="42.26718" lon="1.89598">
        <ele>1570</ele>
        <time>2010-01-01T07:14:48Z</time>
      </trkpt>
      <trkpt lat="42.26708" lon="1.89613">
        <ele>1573</ele>
        <time>2010-01-01T07:14:54Z</time>
      </trkpt>
      <trkpt lat="42.26699" lon="1.89618">
        <ele>1578</ele>
        <time>2010-01-01T07:14:58Z</time>
      </trkpt>
      <trkpt lat="42.26695" lon="1.89623">
        <ele>1580</ele>
        <time>2010-01-01T07:15:00Z</time>
      </trkpt>
      <trkpt lat="42.26677" lon="1.89653">
        <ele>1586</ele>
        <time>2010-01-01T07:15:12Z</time>
      </trkpt>
      <trkpt lat="42.2667" lon="1.89662">
        <ele>1589</ele>
        <time>2010-01-01T07:15:15Z</time>
      </trkpt>
      <trkpt lat="42.26667" lon="1.89671">
        <ele>1589</ele>
        <time>2010-01-01T07:15:18Z</time>
      </trkpt>
      <trkpt lat="42.26647" lon="1.89695">
        <ele>1592</ele>
        <time>2010-01-01T07:15:29Z</time>
      </trkpt>
      <trkpt lat="42.26638" lon="1.89703">
        <ele>1594</ele>
        <time>2010-01-01T07:15:33Z</time>
      </trkpt>
      <trkpt lat="42.26615" lon="1.8974">
        <ele>1597</ele>
        <time>2010-01-01T07:15:47Z</time>
      </trkpt>
      <trkpt lat="42.26583" lon="1.89785">
        <ele>1601</ele>
        <time>2010-01-01T07:16:06Z</time>
      </trkpt>
      <trkpt lat="42.26564" lon="1.89799">
        <ele>1604</ele>
        <time>2010-01-01T07:16:15Z</time>
      </trkpt>
      <trkpt lat="42.26546" lon="1.89808">
        <ele>1605</ele>
        <time>2010-01-01T07:16:22Z</time>
      </trkpt>
      <trkpt lat="42.26513" lon="1.8984">
        <ele>1606</ele>
        <time>2010-01-01T07:16:39Z</time>
      </trkpt>
      <trkpt lat="42.26509" lon="1.89846">
        <ele>1607</ele>
        <time>2010-01-01T07:16:41Z</time>
      </trkpt>
      <trkpt lat="42.26509" lon="1.89852">
        <ele>1608</ele>
        <time>2010-01-01T07:16:43Z</time>
      </trkpt>
      <trkpt lat="42.26508" lon="1.89846">
        <ele>1607</ele>
        <time>2010-01-01T07:16:44Z</time>
      </trkpt>
      <trkpt lat="42.26504" lon="1.89845">
        <ele>1607</ele>
        <time>2010-01-01T07:16:46Z</time>
      </trkpt>
      <trkpt lat="42.26493" lon="1.89855">
        <ele>1608</ele>
        <time>2010-01-01T07:16:51Z</time>
      </trkpt>
      <trkpt lat="42.26485" lon="1.89867">
        <ele>1608</ele>
        <time>2010-01-01T07:16:56Z</time>
      </trkpt>
      <trkpt lat="42.26485" lon="1.89878">
        <ele>1608</ele>
        <time>2010-01-01T07:16:59Z</time>
      </trkpt>
      <trkpt lat="42.26482" lon="1.89883">
        <ele>1608</ele>
        <time>2010-01-01T07:17:01Z</time>
      </trkpt>
      <trkpt lat="42.26471" lon="1.8988">
        <ele>1605</ele>
        <time>2010-01-01T07:17:06Z</time>
      </trkpt>
      <trkpt lat="42.26466" lon="1.89877">
        <ele>1604</ele>
        <time>2010-01-01T07:17:08Z</time>
      </trkpt>
      <trkpt lat="42.26462" lon="1.89879">
        <ele>1603</ele>
        <time>2010-01-01T07:17:10Z</time>
      </trkpt>
      <trkpt lat="42.26462" lon="1.89884">
        <ele>1603</ele>
        <time>2010-01-01T07:17:11Z</time>
      </trkpt>
      <trkpt lat="42.26465" lon="1.89895">
        <ele>1605</ele>
        <time>2010-01-01T07:17:15Z</time>
      </trkpt>
      <trkpt lat="42.26469" lon="1.89902">
        <ele>1606</ele>
        <time>2010-01-01T07:17:17Z</time>
      </trkpt>
      <trkpt lat="42.26467" lon="1.89904">
        <ele>1605</ele>
        <time>2010-01-01T07:17:18Z</time>
      </trkpt>
      <trkpt lat="42.26464" lon="1.89902">
        <ele>1605</ele>
        <time>2010-01-01T07:17:19Z</time>
      </trkpt>
      <trkpt lat="42.26465" lon="1.89897">
        <ele>1605</ele>
        <time>2010-01-01T07:17:21Z</time>
      </trkpt>
      <trkpt lat="42.26459" lon="1.89893">
        <ele>1603</ele>
        <time>2010-01-01T07:17:23Z</time>
      </trkpt>
      <trkpt lat="42.26451" lon="1.89892">
        <ele>1601</ele>
        <time>2010-01-01T07:17:27Z</time>
      </trkpt>
      <trkpt lat="42.26452" lon="1.89922">
        <ele>1602</ele>
        <time>2010-01-01T07:17:36Z</time>
      </trkpt>
      <trkpt lat="42.2645" lon="1.89938">
        <ele>1601</ele>
        <time>2010-01-01T07:17:40Z</time>
      </trkpt>
      <trkpt lat="42.26453" lon="1.8994">
        <ele>1601</ele>
        <time>2010-01-01T07:17:42Z</time>
      </trkpt>
      <trkpt lat="42.26454" lon="1.89939">
        <ele>1601</ele>
        <time>2010-01-01T07:17:42Z</time>
      </trkpt>
      <trkpt lat="42.2645" lon="1.89945">
        <ele>1601</ele>
        <time>2010-01-01T07:17:44Z</time>
      </trkpt>
      <trkpt lat="42.26451" lon="1.89945">
        <ele>1601</ele>
        <time>2010-01-01T07:17:45Z</time>
      </trkpt>
      <trkpt lat="42.26451" lon="1.89942">
        <ele>1601</ele>
        <time>2010-01-01T07:17:45Z</time>
      </trkpt>
      <trkpt lat="42.26447" lon="1.89939">
        <ele>1601</ele>
        <time>2010-01-01T07:17:48Z</time>
      </trkpt>
      <trkpt lat="42.26447" lon="1.89945">
        <ele>1601</ele>
        <time>2010-01-01T07:17:49Z</time>
      </trkpt>
      <trkpt lat="42.26446" lon="1.89961">
        <ele>1599</ele>
        <time>2010-01-01T07:17:54Z</time>
      </trkpt>
      <trkpt lat="42.2644" lon="1.89958">
        <ele>1598</ele>
        <time>2010-01-01T07:17:57Z</time>
      </trkpt>
      <trkpt lat="42.26431" lon="1.89967">
        <ele>1597</ele>
        <time>2010-01-01T07:18:01Z</time>
      </trkpt>
      <trkpt lat="42.26427" lon="1.89974">
        <ele>1596</ele>
        <time>2010-01-01T07:18:04Z</time>
      </trkpt>
      <trkpt lat="42.26424" lon="1.89976">
        <ele>1596</ele>
        <time>2010-01-01T07:18:05Z</time>
      </trkpt>
      <trkpt lat="42.26423" lon="1.89979">
        <ele>1596</ele>
        <time>2010-01-01T07:18:06Z</time>
      </trkpt>
      <trkpt lat="42.26418" lon="1.89982">
        <ele>1595</ele>
        <time>2010-01-01T07:18:08Z</time>
      </trkpt>
      <trkpt lat="42.26414" lon="1.8998">
        <ele>1594</ele>
        <time>2010-01-01T07:18:10Z</time>
      </trkpt>
      <trkpt lat="42.26409" lon="1.89984">
        <ele>1592</ele>
        <time>2010-01-01T07:18:12Z</time>
      </trkpt>
      <trkpt lat="42.26408" lon="1.89992">
        <ele>1592</ele>
        <time>2010-01-01T07:18:14Z</time>
      </trkpt>
      <trkpt lat="42.2641" lon="1.90004">
        <ele>1593</ele>
        <time>2010-01-01T07:18:18Z</time>
      </trkpt>
      <trkpt lat="42.264" lon="1.8998">
        <ele>1588</ele>
        <time>2010-01-01T07:18:26Z</time>
      </trkpt>
      <trkpt lat="42.26392" lon="1.89987">
        <ele>1585</ele>
        <time>2010-01-01T07:18:30Z</time>
      </trkpt>
      <trkpt lat="42.26387" lon="1.90001">
        <ele>1583</ele>
        <time>2010-01-01T07:18:34Z</time>
      </trkpt>
      <trkpt lat="42.26382" lon="1.90004">
        <ele>1581</ele>
        <time>2010-01-01T07:18:36Z</time>
      </trkpt>
      <trkpt lat="42.26379" lon="1.90014">
        <ele>1580</ele>
        <time>2010-01-01T07:18:40Z</time>
      </trkpt>
      <trkpt lat="42.26373" lon="1.90012">
        <ele>1578</ele>
        <time>2010-01-01T07:18:42Z</time>
      </trkpt>
      <trkpt lat="42.2637" lon="1.90013">
        <ele>1576</ele>
        <time>2010-01-01T07:18:43Z</time>
      </trkpt>
      <trkpt lat="42.26366" lon="1.90026">
        <ele>1575</ele>
        <time>2010-01-01T07:18:47Z</time>
      </trkpt>
      <trkpt lat="42.26368" lon="1.90032">
        <ele>1575</ele>
        <time>2010-01-01T07:18:49Z</time>
      </trkpt>
      <trkpt lat="42.26367" lon="1.90033">
        <ele>1575</ele>
        <time>2010-01-01T07:18:50Z</time>
      </trkpt>
      <trkpt lat="42.2636" lon="1.90026">
        <ele>1573</ele>
        <time>2010-01-01T07:18:53Z</time>
      </trkpt>
      <trkpt lat="42.26359" lon="1.90022">
        <ele>1571</ele>
        <time>2010-01-01T07:18:55Z</time>
      </trkpt>
      <trkpt lat="42.26354" lon="1.9002">
        <ele>1568</ele>
        <time>2010-01-01T07:18:57Z</time>
      </trkpt>
      <trkpt lat="42.26346" lon="1.90021">
        <ele>1563</ele>
        <time>2010-01-01T07:19:00Z</time>
      </trkpt>
      <trkpt lat="42.26343" lon="1.90024">
        <ele>1561</ele>
        <time>2010-01-01T07:19:01Z</time>
      </trkpt>
      <trkpt lat="42.26346" lon="1.90035">
        <ele>1563</ele>
        <time>2010-01-01T07:19:05Z</time>
      </trkpt>
      <trkpt lat="42.26346" lon="1.9004">
        <ele>1563</ele>
        <time>2010-01-01T07:19:07Z</time>
      </trkpt>
      <trkpt lat="42.26343" lon="1.9004">
        <ele>1561</ele>
        <time>2010-01-01T07:19:07Z</time>
      </trkpt>
      <trkpt lat="42.26339" lon="1.9002">
        <ele>1558</ele>
        <time>2010-01-01T07:19:14Z</time>
      </trkpt>
      <trkpt lat="42.26338" lon="1.89992">
        <ele>1555</ele>
        <time>2010-01-01T07:19:22Z</time>
      </trkpt>
      <trkpt lat="42.26343" lon="1.89962">
        <ele>1553</ele>
        <time>2010-01-01T07:19:31Z</time>
      </trkpt>
      <trkpt lat="42.26343" lon="1.89955">
        <ele>1551</ele>
        <time>2010-01-01T07:19:33Z</time>
      </trkpt>
      <trkpt lat="42.26342" lon="1.89954">
        <ele>1550</ele>
        <time>2010-01-01T07:19:34Z</time>
      </trkpt>
      <trkpt lat="42.2634" lon="1.89958">
        <ele>1550</ele>
        <time>2010-01-01T07:19:35Z</time>
      </trkpt>
      <trkpt lat="42.26338" lon="1.8995">
        <ele>1546</ele>
        <time>2010-01-01T07:19:37Z</time>
      </trkpt>
      <trkpt lat="42.26334" lon="1.89953">
        <ele>1545</ele>
        <time>2010-01-01T07:19:39Z</time>
      </trkpt>
      <trkpt lat="42.26327" lon="1.8997">
        <ele>1542</ele>
        <time>2010-01-01T07:19:45Z</time>
      </trkpt>
      <trkpt lat="42.26324" lon="1.8997">
        <ele>1539</ele>
        <time>2010-01-01T07:19:46Z</time>
      </trkpt>
      <trkpt lat="42.2632" lon="1.89961">
        <ele>1535</ele>
        <time>2010-01-01T07:19:49Z</time>
      </trkpt>
      <trkpt lat="42.26321" lon="1.89962">
        <ele>1535</ele>
        <time>2010-01-01T07:19:49Z</time>
      </trkpt>
      <trkpt lat="42.26322" lon="1.8996">
        <ele>1535</ele>
        <time>2010-01-01T07:19:50Z</time>
      </trkpt>
      <trkpt lat="42.26322" lon="1.89952">
        <ele>1534</ele>
        <time>2010-01-01T07:19:53Z</time>
      </trkpt>
      <trkpt lat="42.26328" lon="1.89946">
        <ele>1538</ele>
        <time>2010-01-01T07:19:56Z</time>
      </trkpt>
      <trkpt lat="42.26325" lon="1.89934">
        <ele>1533</ele>
        <time>2010-01-01T07:19:59Z</time>
      </trkpt>
      <trkpt lat="42.26326" lon="1.89924">
        <ele>1531</ele>
        <time>2010-01-01T07:20:02Z</time>
      </trkpt>
      <trkpt lat="42.26331" lon="1.89916">
        <ele>1534</ele>
        <time>2010-01-01T07:20:05Z</time>
      </trkpt>
      <trkpt lat="42.26335" lon="1.89914">
        <ele>1537</ele>
        <time>2010-01-01T07:20:07Z</time>
      </trkpt>
      <trkpt lat="42.26337" lon="1.8991">
        <ele>1537</ele>
        <time>2010-01-01T07:20:09Z</time>
      </trkpt>
      <trkpt lat="42.26338" lon="1.899">
        <ele>1535</ele>
        <time>2010-01-01T07:20:11Z</time>
      </trkpt>
      <trkpt lat="42.26333" lon="1.89896">
        <ele>1529</ele>
        <time>2010-01-01T07:20:14Z</time>
      </trkpt>
      <trkpt lat="42.26333" lon="1.89898">
        <ele>1530</ele>
        <time>2010-01-01T07:20:14Z</time>
      </trkpt>
      <trkpt lat="42.26333" lon="1.899">
        <ele>1531</ele>
        <time>2010-01-01T07:20:15Z</time>
      </trkpt>
      <trkpt lat="42.26334" lon="1.89899">
        <ele>1531</ele>
        <time>2010-01-01T07:20:15Z</time>
      </trkpt>
      <trkpt lat="42.26337" lon="1.89895">
        <ele>1532</ele>
        <time>2010-01-01T07:20:17Z</time>
      </trkpt>
      <trkpt lat="42.26337" lon="1.89888">
        <ele>1530</ele>
        <time>2010-01-01T07:20:19Z</time>
      </trkpt>
      <trkpt lat="42.26344" lon="1.89862">
        <ele>1528</ele>
        <time>2010-01-01T07:20:28Z</time>
      </trkpt>
      <trkpt lat="42.26343" lon="1.89858">
        <ele>1526</ele>
        <time>2010-01-01T07:20:29Z</time>
      </trkpt>
      <trkpt lat="42.2634" lon="1.89857">
        <ele>1523</ele>
        <time>2010-01-01T07:20:30Z</time>
      </trkpt>
      <trkpt lat="42.26341" lon="1.89854">
        <ele>1523</ele>
        <time>2010-01-01T07:20:31Z</time>
      </trkpt>
      <trkpt lat="42.26347" lon="1.89847">
        <ele>1526</ele>
        <time>2010-01-01T07:20:34Z</time>
      </trkpt>
      <trkpt lat="42.26347" lon="1.89842">
        <ele>1524</ele>
        <time>2010-01-01T07:20:36Z</time>
      </trkpt>
      <trkpt lat="42.2635" lon="1.89834">
        <ele>1523</ele>
        <time>2010-01-01T07:20:38Z</time>
      </trkpt>
      <trkpt lat="42.26351" lon="1.89821">
        <ele>1520</ele>
        <time>2010-01-01T07:20:42Z</time>
      </trkpt>
      <trkpt lat="42.2635" lon="1.89813">
        <ele>1517</ele>
        <time>2010-01-01T07:20:45Z</time>
      </trkpt>
      <trkpt lat="42.26355" lon="1.89794">
        <ele>1514</ele>
        <time>2010-01-01T07:20:51Z</time>
      </trkpt>
      <trkpt lat="42.26354" lon="1.89763">
        <ele>1505</ele>
        <time>2010-01-01T07:21:00Z</time>
      </trkpt>
      <trkpt lat="42.26356" lon="1.89758">
        <ele>1505</ele>
        <time>2010-01-01T07:21:02Z</time>
      </trkpt>
      <trkpt lat="42.26356" lon="1.89751">
        <ele>1503</ele>
        <time>2010-01-01T07:21:04Z</time>
      </trkpt>
      <trkpt lat="42.26352" lon="1.89749">
        <ele>1500</ele>
        <time>2010-01-01T07:21:05Z</time>
      </trkpt>
      <trkpt lat="42.26343" lon="1.89749">
        <ele>1497</ele>
        <time>2010-01-01T07:21:09Z</time>
      </trkpt>
      <trkpt lat="42.26344" lon="1.89745">
        <ele>1496</ele>
        <time>2010-01-01T07:21:10Z</time>
      </trkpt>
      <trkpt lat="42.26343" lon="1.8974">
        <ele>1494</ele>
        <time>2010-01-01T07:21:12Z</time>
      </trkpt>
      <trkpt lat="42.26338" lon="1.89745">
        <ele>1494</ele>
        <time>2010-01-01T07:21:14Z</time>
      </trkpt>
      <trkpt lat="42.26334" lon="1.89752">
        <ele>1494</ele>
        <time>2010-01-01T07:21:16Z</time>
      </trkpt>
      <trkpt lat="42.26332" lon="1.8975">
        <ele>1493</ele>
        <time>2010-01-01T07:21:17Z</time>
      </trkpt>
      <trkpt lat="42.26331" lon="1.89745">
        <ele>1491</ele>
        <time>2010-01-01T07:21:19Z</time>
      </trkpt>
      <trkpt lat="42.26329" lon="1.89747">
        <ele>1490</ele>
        <time>2010-01-01T07:21:20Z</time>
      </trkpt>
      <trkpt lat="42.26326" lon="1.89757">
        <ele>1491</ele>
        <time>2010-01-01T07:21:24Z</time>
      </trkpt>
      <trkpt lat="42.26323" lon="1.89759">
        <ele>1491</ele>
        <time>2010-01-01T07:21:25Z</time>
      </trkpt>
      <trkpt lat="42.26324" lon="1.89769">
        <ele>1492</ele>
        <time>2010-01-01T07:21:28Z</time>
      </trkpt>
      <trkpt lat="42.2632" lon="1.89771">
        <ele>1491</ele>
        <time>2010-01-01T07:21:29Z</time>
      </trkpt>
      <trkpt lat="42.26318" lon="1.89778">
        <ele>1491</ele>
        <time>2010-01-01T07:21:31Z</time>
      </trkpt>
      <trkpt lat="42.26313" lon="1.8978">
        <ele>1489</ele>
        <time>2010-01-01T07:21:34Z</time>
      </trkpt>
      <trkpt lat="42.26309" lon="1.8978">
        <ele>1486</ele>
        <time>2010-01-01T07:21:35Z</time>
      </trkpt>
      <trkpt lat="42.26293" lon="1.89793">
        <ele>1478</ele>
        <time>2010-01-01T07:21:43Z</time>
      </trkpt>
      <trkpt lat="42.26282" lon="1.89805">
        <ele>1473</ele>
        <time>2010-01-01T07:21:48Z</time>
      </trkpt>
      <trkpt lat="42.26274" lon="1.8981">
        <ele>1470</ele>
        <time>2010-01-01T07:21:52Z</time>
      </trkpt>
      <trkpt lat="42.26268" lon="1.89818">
        <ele>1468</ele>
        <time>2010-01-01T07:21:55Z</time>
      </trkpt>
      <trkpt lat="42.26261" lon="1.89819">
        <ele>1465</ele>
        <time>2010-01-01T07:21:58Z</time>
      </trkpt>
      <trkpt lat="42.26259" lon="1.89822">
        <ele>1465</ele>
        <time>2010-01-01T07:21:59Z</time>
      </trkpt>
      <trkpt lat="42.26258" lon="1.8982">
        <ele>1464</ele>
        <time>2010-01-01T07:22:00Z</time>
      </trkpt>
      <trkpt lat="42.26256" lon="1.89821">
        <ele>1463</ele>
        <time>2010-01-01T07:22:01Z</time>
      </trkpt>
      <trkpt lat="42.26253" lon="1.89829">
        <ele>1463</ele>
        <time>2010-01-01T07:22:03Z</time>
      </trkpt>
      <trkpt lat="42.2625" lon="1.89831">
        <ele>1462</ele>
        <time>2010-01-01T07:22:04Z</time>
      </trkpt>
      <trkpt lat="42.2625" lon="1.89834">
        <ele>1463</ele>
        <time>2010-01-01T07:22:05Z</time>
      </trkpt>
      <trkpt lat="42.26252" lon="1.89824">
        <ele>1461</ele>
        <time>2010-01-01T07:22:09Z</time>
      </trkpt>
      <trkpt lat="42.26249" lon="1.89809">
        <ele>1457</ele>
        <time>2010-01-01T07:22:13Z</time>
      </trkpt>
      <trkpt lat="42.2625" lon="1.898">
        <ele>1456</ele>
        <time>2010-01-01T07:22:16Z</time>
      </trkpt>
      <trkpt lat="42.26244" lon="1.89784">
        <ele>1448</ele>
        <time>2010-01-01T07:22:21Z</time>
      </trkpt>
      <trkpt lat="42.2624" lon="1.89777">
        <ele>1444</ele>
        <time>2010-01-01T07:22:23Z</time>
      </trkpt>
      <trkpt lat="42.26233" lon="1.89791">
        <ele>1444</ele>
        <time>2010-01-01T07:22:28Z</time>
      </trkpt>
      <trkpt lat="42.2623" lon="1.89794">
        <ele>1442</ele>
        <time>2010-01-01T07:22:30Z</time>
      </trkpt>
      <trkpt lat="42.26223" lon="1.89804">
        <ele>1439</ele>
        <time>2010-01-01T07:22:34Z</time>
      </trkpt>
      <trkpt lat="42.26213" lon="1.89809">
        <ele>1435</ele>
        <time>2010-01-01T07:22:38Z</time>
      </trkpt>
      <trkpt lat="42.2621" lon="1.89813">
        <ele>1434</ele>
        <time>2010-01-01T07:22:40Z</time>
      </trkpt>
      <trkpt lat="42.26205" lon="1.89815">
        <ele>1431</ele>
        <time>2010-01-01T07:22:42Z</time>
      </trkpt>
      <trkpt lat="42.26202" lon="1.89821">
        <ele>1432</ele>
        <time>2010-01-01T07:22:44Z</time>
      </trkpt>
      <trkpt lat="42.26194" lon="1.89832">
        <ele>1430</ele>
        <time>2010-01-01T07:22:49Z</time>
      </trkpt>
      <trkpt lat="42.26187" lon="1.89848">
        <ele>1432</ele>
        <time>2010-01-01T07:22:55Z</time>
      </trkpt>
      <trkpt lat="42.2618" lon="1.89856">
        <ele>1429</ele>
        <time>2010-01-01T07:22:58Z</time>
      </trkpt>
      <trkpt lat="42.26172" lon="1.89871">
        <ele>1429</ele>
        <time>2010-01-01T07:23:04Z</time>
      </trkpt>
      <trkpt lat="42.26168" lon="1.89872">
        <ele>1427</ele>
        <time>2010-01-01T07:23:05Z</time>
      </trkpt>
      <trkpt lat="42.26166" lon="1.89877">
        <ele>1428</ele>
        <time>2010-01-01T07:23:07Z</time>
      </trkpt>
      <trkpt lat="42.26157" lon="1.89883">
        <ele>1424</ele>
        <time>2010-01-01T07:23:11Z</time>
      </trkpt>
      <trkpt lat="42.26157" lon="1.89881">
        <ele>1423</ele>
        <time>2010-01-01T07:23:12Z</time>
      </trkpt>
      <trkpt lat="42.26152" lon="1.89882">
        <ele>1420</ele>
        <time>2010-01-01T07:23:14Z</time>
      </trkpt>
      <trkpt lat="42.26153" lon="1.89885">
        <ele>1422</ele>
        <time>2010-01-01T07:23:15Z</time>
      </trkpt>
      <trkpt lat="42.2615" lon="1.89882">
        <ele>1418</ele>
        <time>2010-01-01T07:23:16Z</time>
      </trkpt>
      <trkpt lat="42.26149" lon="1.89884">
        <ele>1418</ele>
        <time>2010-01-01T07:23:17Z</time>
      </trkpt>
      <trkpt lat="42.2615" lon="1.8988">
        <ele>1418</ele>
        <time>2010-01-01T07:23:18Z</time>
      </trkpt>
      <trkpt lat="42.26147" lon="1.89878">
        <ele>1415</ele>
        <time>2010-01-01T07:23:20Z</time>
      </trkpt>
      <trkpt lat="42.26145" lon="1.89882">
        <ele>1415</ele>
        <time>2010-01-01T07:23:21Z</time>
      </trkpt>
      <trkpt lat="42.26151" lon="1.89884">
        <ele>1420</ele>
        <time>2010-01-01T07:23:23Z</time>
      </trkpt>
      <trkpt lat="42.26146" lon="1.89888">
        <ele>1418</ele>
        <time>2010-01-01T07:23:26Z</time>
      </trkpt>
      <trkpt lat="42.26142" lon="1.89887">
        <ele>1414</ele>
        <time>2010-01-01T07:23:27Z</time>
      </trkpt>
      <trkpt lat="42.26134" lon="1.89894">
        <ele>1412</ele>
        <time>2010-01-01T07:23:31Z</time>
      </trkpt>
      <trkpt lat="42.2613" lon="1.89914">
        <ele>1415</ele>
        <time>2010-01-01T07:23:37Z</time>
      </trkpt>
      <trkpt lat="42.26127" lon="1.89903">
        <ele>1410</ele>
        <time>2010-01-01T07:23:40Z</time>
      </trkpt>
      <trkpt lat="42.26127" lon="1.89895">
        <ele>1408</ele>
        <time>2010-01-01T07:23:43Z</time>
      </trkpt>
      <trkpt lat="42.26124" lon="1.89902">
        <ele>1407</ele>
        <time>2010-01-01T07:23:46Z</time>
      </trkpt>
      <trkpt lat="42.26118" lon="1.89906">
        <ele>1405</ele>
        <time>2010-01-01T07:23:48Z</time>
      </trkpt>
      <trkpt lat="42.26116" lon="1.89911">
        <ele>1405</ele>
        <time>2010-01-01T07:23:50Z</time>
      </trkpt>
      <trkpt lat="42.2611" lon="1.89914">
        <ele>1402</ele>
        <time>2010-01-01T07:23:52Z</time>
      </trkpt>
      <trkpt lat="42.26108" lon="1.89917">
        <ele>1401</ele>
        <time>2010-01-01T07:23:53Z</time>
      </trkpt>
      <trkpt lat="42.26108" lon="1.8992">
        <ele>1402</ele>
        <time>2010-01-01T07:23:54Z</time>
      </trkpt>
      <trkpt lat="42.26103" lon="1.89924">
        <ele>1400</ele>
        <time>2010-01-01T07:23:57Z</time>
      </trkpt>
      <trkpt lat="42.26099" lon="1.89933">
        <ele>1399</ele>
        <time>2010-01-01T07:24:00Z</time>
      </trkpt>
      <trkpt lat="42.261" lon="1.8993">
        <ele>1399</ele>
        <time>2010-01-01T07:24:00Z</time>
      </trkpt>
      <trkpt lat="42.26097" lon="1.89936">
        <ele>1399</ele>
        <time>2010-01-01T07:24:03Z</time>
      </trkpt>
      <trkpt lat="42.26096" lon="1.89944">
        <ele>1400</ele>
        <time>2010-01-01T07:24:05Z</time>
      </trkpt>
      <trkpt lat="42.26092" lon="1.89949">
        <ele>1399</ele>
        <time>2010-01-01T07:24:07Z</time>
      </trkpt>
      <trkpt lat="42.26086" lon="1.89962">
        <ele>1397</ele>
        <time>2010-01-01T07:24:12Z</time>
      </trkpt>
      <trkpt lat="42.26083" lon="1.89964">
        <ele>1395</ele>
        <time>2010-01-01T07:24:13Z</time>
      </trkpt>
      <trkpt lat="42.26079" lon="1.89971">
        <ele>1394</ele>
        <time>2010-01-01T07:24:16Z</time>
      </trkpt>
      <trkpt lat="42.26079" lon="1.89983">
        <ele>1395</ele>
        <time>2010-01-01T07:24:19Z</time>
      </trkpt>
      <trkpt lat="42.26076" lon="1.89995">
        <ele>1393</ele>
        <time>2010-01-01T07:24:23Z</time>
      </trkpt>
      <trkpt lat="42.26077" lon="1.90005">
        <ele>1395</ele>
        <time>2010-01-01T07:24:26Z</time>
      </trkpt>
      <trkpt lat="42.2607" lon="1.90009">
        <ele>1390</ele>
        <time>2010-01-01T07:24:29Z</time>
      </trkpt>
      <trkpt lat="42.26058" lon="1.9004">
        <ele>1383</ele>
        <time>2010-01-01T07:24:39Z</time>
      </trkpt>
      <trkpt lat="42.26057" lon="1.9005">
        <ele>1383</ele>
        <time>2010-01-01T07:24:42Z</time>
      </trkpt>
      <trkpt lat="42.26049" lon="1.90056">
        <ele>1379</ele>
        <time>2010-01-01T07:24:46Z</time>
      </trkpt>
      <trkpt lat="42.26043" lon="1.90071">
        <ele>1377</ele>
        <time>2010-01-01T07:24:51Z</time>
      </trkpt>
      <trkpt lat="42.26041" lon="1.90072">
        <ele>1376</ele>
        <time>2010-01-01T07:24:52Z</time>
      </trkpt>
      <trkpt lat="42.26039" lon="1.90079">
        <ele>1375</ele>
        <time>2010-01-01T07:24:54Z</time>
      </trkpt>
      <trkpt lat="42.26038" lon="1.90087">
        <ele>1375</ele>
        <time>2010-01-01T07:24:57Z</time>
      </trkpt>
      <trkpt lat="42.26032" lon="1.90101">
        <ele>1371</ele>
        <time>2010-01-01T07:25:01Z</time>
      </trkpt>
      <trkpt lat="42.2603" lon="1.90103">
        <ele>1369</ele>
        <time>2010-01-01T07:25:02Z</time>
      </trkpt>
      <trkpt lat="42.26029" lon="1.90112">
        <ele>1368</ele>
        <time>2010-01-01T07:25:05Z</time>
      </trkpt>
      <trkpt lat="42.26026" lon="1.90114">
        <ele>1366</ele>
        <time>2010-01-01T07:25:06Z</time>
      </trkpt>
      <trkpt lat="42.26013" lon="1.90137">
        <ele>1358</ele>
        <time>2010-01-01T07:25:15Z</time>
      </trkpt>
      <trkpt lat="42.26008" lon="1.90143">
        <ele>1355</ele>
        <time>2010-01-01T07:25:18Z</time>
      </trkpt>
      <trkpt lat="42.26005" lon="1.90142">
        <ele>1355</ele>
        <time>2010-01-01T07:25:19Z</time>
      </trkpt>
      <trkpt lat="42.26001" lon="1.90147">
        <ele>1353</ele>
        <time>2010-01-01T07:25:21Z</time>
      </trkpt>
      <trkpt lat="42.26" lon="1.90153">
        <ele>1352</ele>
        <time>2010-01-01T07:25:23Z</time>
      </trkpt>
      <trkpt lat="42.25998" lon="1.90151">
        <ele>1351</ele>
        <time>2010-01-01T07:25:24Z</time>
      </trkpt>
      <trkpt lat="42.25993" lon="1.90158">
        <ele>1348</ele>
        <time>2010-01-01T07:25:27Z</time>
      </trkpt>
      <trkpt lat="42.25993" lon="1.90161">
        <ele>1348</ele>
        <time>2010-01-01T07:25:28Z</time>
      </trkpt>
      <trkpt lat="42.25997" lon="1.90168">
        <ele>1350</ele>
        <time>2010-01-01T07:25:30Z</time>
      </trkpt>
      <trkpt lat="42.25996" lon="1.90172">
        <ele>1349</ele>
        <time>2010-01-01T07:25:32Z</time>
      </trkpt>
      <trkpt lat="42.25996" lon="1.90178">
        <ele>1348</ele>
        <time>2010-01-01T07:25:34Z</time>
      </trkpt>
      <trkpt lat="42.25994" lon="1.90182">
        <ele>1347</ele>
        <time>2010-01-01T07:25:35Z</time>
      </trkpt>
      <trkpt lat="42.25992" lon="1.90182">
        <ele>1346</ele>
        <time>2010-01-01T07:25:36Z</time>
      </trkpt>
      <trkpt lat="42.25988" lon="1.90191">
        <ele>1343</ele>
        <time>2010-01-01T07:25:39Z</time>
      </trkpt>
      <trkpt lat="42.25989" lon="1.90199">
        <ele>1342</ele>
        <time>2010-01-01T07:25:41Z</time>
      </trkpt>
      <trkpt lat="42.25988" lon="1.90206">
        <ele>1339</ele>
        <time>2010-01-01T07:25:44Z</time>
      </trkpt>
      <trkpt lat="42.25993" lon="1.90217">
        <ele>1336</ele>
        <time>2010-01-01T07:25:47Z</time>
      </trkpt>
      <trkpt lat="42.25995" lon="1.90217">
        <ele>1337</ele>
        <time>2010-01-01T07:25:48Z</time>
      </trkpt>
      <trkpt lat="42.25992" lon="1.90219">
        <ele>1335</ele>
        <time>2010-01-01T07:25:50Z</time>
      </trkpt>
      <trkpt lat="42.2599" lon="1.90226">
        <ele>1332</ele>
        <time>2010-01-01T07:25:52Z</time>
      </trkpt>
      <trkpt lat="42.25986" lon="1.90223">
        <ele>1332</ele>
        <time>2010-01-01T07:25:54Z</time>
      </trkpt>
      <trkpt lat="42.25979" lon="1.90211">
        <ele>1333</ele>
        <time>2010-01-01T07:25:58Z</time>
      </trkpt>
      <trkpt lat="42.25976" lon="1.90203">
        <ele>1334</ele>
        <time>2010-01-01T07:26:01Z</time>
      </trkpt>
      <trkpt lat="42.25968" lon="1.9019">
        <ele>1333</ele>
        <time>2010-01-01T07:26:06Z</time>
      </trkpt>
      <trkpt lat="42.25968" lon="1.90188">
        <ele>1333</ele>
        <time>2010-01-01T07:26:06Z</time>
      </trkpt>
      <trkpt lat="42.2597" lon="1.90186">
        <ele>1334</ele>
        <time>2010-01-01T07:26:07Z</time>
      </trkpt>
      <trkpt lat="42.25966" lon="1.90187">
        <ele>1332</ele>
        <time>2010-01-01T07:26:09Z</time>
      </trkpt>
      <trkpt lat="42.25966" lon="1.90183">
        <ele>1333</ele>
        <time>2010-01-01T07:26:10Z</time>
      </trkpt>
      <trkpt lat="42.25964" lon="1.90187">
        <ele>1331</ele>
        <time>2010-01-01T07:26:12Z</time>
      </trkpt>
      <trkpt lat="42.2596" lon="1.90181">
        <ele>1329</ele>
        <time>2010-01-01T07:26:14Z</time>
      </trkpt>
      <trkpt lat="42.25958" lon="1.90177">
        <ele>1329</ele>
        <time>2010-01-01T07:26:15Z</time>
      </trkpt>
      <trkpt lat="42.25958" lon="1.90158">
        <ele>1331</ele>
        <time>2010-01-01T07:26:21Z</time>
      </trkpt>
      <trkpt lat="42.25955" lon="1.90143">
        <ele>1331</ele>
        <time>2010-01-01T07:26:26Z</time>
      </trkpt>
      <trkpt lat="42.2594" lon="1.90126">
        <ele>1324</ele>
        <time>2010-01-01T07:26:33Z</time>
      </trkpt>
      <trkpt lat="42.25937" lon="1.90116">
        <ele>1322</ele>
        <time>2010-01-01T07:26:36Z</time>
      </trkpt>
      <trkpt lat="42.25936" lon="1.90108">
        <ele>1322</ele>
        <time>2010-01-01T07:26:39Z</time>
      </trkpt>
      <trkpt lat="42.25932" lon="1.90101">
        <ele>1321</ele>
        <time>2010-01-01T07:26:41Z</time>
      </trkpt>
      <trkpt lat="42.25926" lon="1.90098">
        <ele>1319</ele>
        <time>2010-01-01T07:26:44Z</time>
      </trkpt>
      <trkpt lat="42.25921" lon="1.90105">
        <ele>1318</ele>
        <time>2010-01-01T07:26:47Z</time>
      </trkpt>
      <trkpt lat="42.25914" lon="1.90133">
        <ele>1317</ele>
        <time>2010-01-01T07:26:56Z</time>
      </trkpt>
      <trkpt lat="42.25908" lon="1.90144">
        <ele>1315</ele>
        <time>2010-01-01T07:27:00Z</time>
      </trkpt>
      <trkpt lat="42.25901" lon="1.9017">
        <ele>1308</ele>
        <time>2010-01-01T07:27:08Z</time>
      </trkpt>
      <trkpt lat="42.25893" lon="1.90183">
        <ele>1304</ele>
        <time>2010-01-01T07:27:13Z</time>
      </trkpt>
      <trkpt lat="42.25891" lon="1.90184">
        <ele>1304</ele>
        <time>2010-01-01T07:27:14Z</time>
      </trkpt>
      <trkpt lat="42.25893" lon="1.90189">
        <ele>1303</ele>
        <time>2010-01-01T07:27:16Z</time>
      </trkpt>
      <trkpt lat="42.25891" lon="1.90189">
        <ele>1303</ele>
        <time>2010-01-01T07:27:16Z</time>
      </trkpt>
      <trkpt lat="42.25892" lon="1.90193">
        <ele>1302</ele>
        <time>2010-01-01T07:27:18Z</time>
      </trkpt>
      <trkpt lat="42.25883" lon="1.90206">
        <ele>1299</ele>
        <time>2010-01-01T07:27:23Z</time>
      </trkpt>
      <trkpt lat="42.2588" lon="1.90215">
        <ele>1298</ele>
        <time>2010-01-01T07:27:26Z</time>
      </trkpt>
      <trkpt lat="42.25869" lon="1.90229">
        <ele>1296</ele>
        <time>2010-01-01T07:27:32Z</time>
      </trkpt>
      <trkpt lat="42.25861" lon="1.90246">
        <ele>1294</ele>
        <time>2010-01-01T07:27:38Z</time>
      </trkpt>
      <trkpt lat="42.25851" lon="1.90258">
        <ele>1292</ele>
        <time>2010-01-01T07:27:43Z</time>
      </trkpt>
      <trkpt lat="42.25847" lon="1.90258">
        <ele>1291</ele>
        <time>2010-01-01T07:27:45Z</time>
      </trkpt>
      <trkpt lat="42.25835" lon="1.9025">
        <ele>1291</ele>
        <time>2010-01-01T07:27:50Z</time>
      </trkpt>
      <trkpt lat="42.25821" lon="1.90244">
        <ele>1290</ele>
        <time>2010-01-01T07:27:56Z</time>
      </trkpt>
      <trkpt lat="42.25812" lon="1.90244">
        <ele>1289</ele>
        <time>2010-01-01T07:27:59Z</time>
      </trkpt>
      <trkpt lat="42.25805" lon="1.90249">
        <ele>1288</ele>
        <time>2010-01-01T07:28:03Z</time>
      </trkpt>
      <trkpt lat="42.25778" lon="1.9026">
        <ele>1287</ele>
        <time>2010-01-01T07:28:14Z</time>
      </trkpt>
      <trkpt lat="42.25772" lon="1.90259">
        <ele>1285</ele>
        <time>2010-01-01T07:28:16Z</time>
      </trkpt>
      <trkpt lat="42.25754" lon="1.90251">
        <ele>1281</ele>
        <time>2010-01-01T07:28:24Z</time>
      </trkpt>
      <trkpt lat="42.25751" lon="1.90252">
        <ele>1281</ele>
        <time>2010-01-01T07:28:26Z</time>
      </trkpt>
      <trkpt lat="42.25746" lon="1.90251">
        <ele>1279</ele>
        <time>2010-01-01T07:28:28Z</time>
      </trkpt>
      <trkpt lat="42.25738" lon="1.90247">
        <ele>1276</ele>
        <time>2010-01-01T07:28:31Z</time>
      </trkpt>
      <trkpt lat="42.25734" lon="1.90247">
        <ele>1274</ele>
        <time>2010-01-01T07:28:32Z</time>
      </trkpt>
      <trkpt lat="42.25734" lon="1.90253">
        <ele>1275</ele>
        <time>2010-01-01T07:28:34Z</time>
      </trkpt>
      <trkpt lat="42.25733" lon="1.90254">
        <ele>1274</ele>
        <time>2010-01-01T07:28:34Z</time>
      </trkpt>
      <trkpt lat="42.25728" lon="1.90246">
        <ele>1272</ele>
        <time>2010-01-01T07:28:38Z</time>
      </trkpt>
      <trkpt lat="42.25721" lon="1.90244">
        <ele>1269</ele>
        <time>2010-01-01T07:28:41Z</time>
      </trkpt>
      <trkpt lat="42.25711" lon="1.90259">
        <ele>1266</ele>
        <time>2010-01-01T07:28:47Z</time>
      </trkpt>
      <trkpt lat="42.25707" lon="1.90269">
        <ele>1266</ele>
        <time>2010-01-01T07:28:50Z</time>
      </trkpt>
      <trkpt lat="42.25699" lon="1.90269">
        <ele>1263</ele>
        <time>2010-01-01T07:28:53Z</time>
      </trkpt>
      <trkpt lat="42.25691" lon="1.90283">
        <ele>1261</ele>
        <time>2010-01-01T07:28:58Z</time>
      </trkpt>
      <trkpt lat="42.25692" lon="1.90287">
        <ele>1261</ele>
        <time>2010-01-01T07:28:59Z</time>
      </trkpt>
      <trkpt lat="42.25693" lon="1.90287">
        <ele>1261</ele>
        <time>2010-01-01T07:29:00Z</time>
      </trkpt>
      <trkpt lat="42.2569" lon="1.90284">
        <ele>1260</ele>
        <time>2010-01-01T07:29:01Z</time>
      </trkpt>
      <trkpt lat="42.25688" lon="1.90276">
        <ele>1259</ele>
        <time>2010-01-01T07:29:03Z</time>
      </trkpt>
      <trkpt lat="42.25691" lon="1.90261">
        <ele>1260</ele>
        <time>2010-01-01T07:29:08Z</time>
      </trkpt>
      <trkpt lat="42.25687" lon="1.90253">
        <ele>1258</ele>
        <time>2010-01-01T07:29:11Z</time>
      </trkpt>
      <trkpt lat="42.25688" lon="1.90249">
        <ele>1258</ele>
        <time>2010-01-01T07:29:12Z</time>
      </trkpt>
      <trkpt lat="42.25685" lon="1.90244">
        <ele>1257</ele>
        <time>2010-01-01T07:29:14Z</time>
      </trkpt>
      <trkpt lat="42.25684" lon="1.90238">
        <ele>1256</ele>
        <time>2010-01-01T07:29:16Z</time>
      </trkpt>
      <trkpt lat="42.25676" lon="1.90222">
        <ele>1252</ele>
        <time>2010-01-01T07:29:22Z</time>
      </trkpt>
      <trkpt lat="42.25676" lon="1.90212">
        <ele>1252</ele>
        <time>2010-01-01T07:29:25Z</time>
      </trkpt>
      <trkpt lat="42.25672" lon="1.90205">
        <ele>1250</ele>
        <time>2010-01-01T07:29:27Z</time>
      </trkpt>
      <trkpt lat="42.25672" lon="1.902">
        <ele>1251</ele>
        <time>2010-01-01T07:29:29Z</time>
      </trkpt>
      <trkpt lat="42.2567" lon="1.90202">
        <ele>1250</ele>
        <time>2010-01-01T07:29:30Z</time>
      </trkpt>
      <trkpt lat="42.25665" lon="1.90192">
        <ele>1248</ele>
        <time>2010-01-01T07:29:34Z</time>
      </trkpt>
      <trkpt lat="42.25652" lon="1.9018">
        <ele>1243</ele>
        <time>2010-01-01T07:29:40Z</time>
      </trkpt>
      <trkpt lat="42.25644" lon="1.90183">
        <ele>1239</ele>
        <time>2010-01-01T07:29:43Z</time>
      </trkpt>
      <trkpt lat="42.25641" lon="1.90187">
        <ele>1237</ele>
        <time>2010-01-01T07:29:45Z</time>
      </trkpt>
      <trkpt lat="42.25641" lon="1.90195">
        <ele>1235</ele>
        <time>2010-01-01T07:29:47Z</time>
      </trkpt>
      <trkpt lat="42.25635" lon="1.90207">
        <ele>1232</ele>
        <time>2010-01-01T07:29:51Z</time>
      </trkpt>
      <trkpt lat="42.25637" lon="1.90212">
        <ele>1233</ele>
        <time>2010-01-01T07:29:53Z</time>
      </trkpt>
      <trkpt lat="42.25636" lon="1.90216">
        <ele>1232</ele>
        <time>2010-01-01T07:29:55Z</time>
      </trkpt>
      <trkpt lat="42.2563" lon="1.90211">
        <ele>1230</ele>
        <time>2010-01-01T07:29:57Z</time>
      </trkpt>
      <trkpt lat="42.25621" lon="1.90206">
        <ele>1227</ele>
        <time>2010-01-01T07:30:01Z</time>
      </trkpt>
      <trkpt lat="42.25618" lon="1.90205">
        <ele>1226</ele>
        <time>2010-01-01T07:30:02Z</time>
      </trkpt>
      <trkpt lat="42.25606" lon="1.90199">
        <ele>1222</ele>
        <time>2010-01-01T07:30:08Z</time>
      </trkpt>
      <trkpt lat="42.25603" lon="1.90198">
        <ele>1221</ele>
        <time>2010-01-01T07:30:09Z</time>
      </trkpt>
      <trkpt lat="42.25596" lon="1.90183">
        <ele>1220</ele>
        <time>2010-01-01T07:30:14Z</time>
      </trkpt>
      <trkpt lat="42.25592" lon="1.90177">
        <ele>1219</ele>
        <time>2010-01-01T07:30:17Z</time>
      </trkpt>
      <trkpt lat="42.25589" lon="1.90168">
        <ele>1218</ele>
        <time>2010-01-01T07:30:20Z</time>
      </trkpt>
      <trkpt lat="42.25584" lon="1.90161">
        <ele>1217</ele>
        <time>2010-01-01T07:30:23Z</time>
      </trkpt>
      <trkpt lat="42.25582" lon="1.90161">
        <ele>1216</ele>
        <time>2010-01-01T07:30:23Z</time>
      </trkpt>
      <trkpt lat="42.2558" lon="1.90172">
        <ele>1215</ele>
        <time>2010-01-01T07:30:26Z</time>
      </trkpt>
      <trkpt lat="42.25572" lon="1.90167">
        <ele>1213</ele>
        <time>2010-01-01T07:30:30Z</time>
      </trkpt>
      <trkpt lat="42.25571" lon="1.90168">
        <ele>1212</ele>
        <time>2010-01-01T07:30:30Z</time>
      </trkpt>
      <trkpt lat="42.25562" lon="1.90154">
        <ele>1209</ele>
        <time>2010-01-01T07:30:36Z</time>
      </trkpt>
      <trkpt lat="42.25557" lon="1.90153">
        <ele>1207</ele>
        <time>2010-01-01T07:30:38Z</time>
      </trkpt>
      <trkpt lat="42.25554" lon="1.90161">
        <ele>1207</ele>
        <time>2010-01-01T07:30:40Z</time>
      </trkpt>
      <trkpt lat="42.25555" lon="1.90164">
        <ele>1207</ele>
        <time>2010-01-01T07:30:41Z</time>
      </trkpt>
      <trkpt lat="42.25544" lon="1.90157">
        <ele>1204</ele>
        <time>2010-01-01T07:30:46Z</time>
      </trkpt>
      <trkpt lat="42.25545" lon="1.9016">
        <ele>1204</ele>
        <time>2010-01-01T07:30:47Z</time>
      </trkpt>
      <trkpt lat="42.25542" lon="1.90174">
        <ele>1205</ele>
        <time>2010-01-01T07:30:51Z</time>
      </trkpt>
      <trkpt lat="42.2554" lon="1.90176">
        <ele>1204</ele>
        <time>2010-01-01T07:30:52Z</time>
      </trkpt>
      <trkpt lat="42.25528" lon="1.90169">
        <ele>1201</ele>
        <time>2010-01-01T07:30:57Z</time>
      </trkpt>
      <trkpt lat="42.25524" lon="1.90163">
        <ele>1199</ele>
        <time>2010-01-01T07:31:00Z</time>
      </trkpt>
      <trkpt lat="42.25518" lon="1.90174">
        <ele>1197</ele>
        <time>2010-01-01T07:31:04Z</time>
      </trkpt>
      <trkpt lat="42.25513" lon="1.90164">
        <ele>1195</ele>
        <time>2010-01-01T07:31:07Z</time>
      </trkpt>
      <trkpt lat="42.25503" lon="1.90153">
        <ele>1189</ele>
        <time>2010-01-01T07:31:12Z</time>
      </trkpt>
      <trkpt lat="42.25505" lon="1.90153">
        <ele>1190</ele>
        <time>2010-01-01T07:31:13Z</time>
      </trkpt>
      <trkpt lat="42.25505" lon="1.90146">
        <ele>1189</ele>
        <time>2010-01-01T07:31:15Z</time>
      </trkpt>
      <trkpt lat="42.25491" lon="1.90133">
        <ele>1181</ele>
        <time>2010-01-01T07:31:22Z</time>
      </trkpt>
      <trkpt lat="42.25497" lon="1.9013">
        <ele>1183</ele>
        <time>2010-01-01T07:31:24Z</time>
      </trkpt>
      <trkpt lat="42.25498" lon="1.90126">
        <ele>1182</ele>
        <time>2010-01-01T07:31:26Z</time>
      </trkpt>
      <trkpt lat="42.25504" lon="1.90115">
        <ele>1183</ele>
        <time>2010-01-01T07:31:29Z</time>
      </trkpt>
      <trkpt lat="42.25506" lon="1.90115">
        <ele>1184</ele>
        <time>2010-01-01T07:31:30Z</time>
      </trkpt>
      <trkpt lat="42.25508" lon="1.90111">
        <ele>1184</ele>
        <time>2010-01-01T07:31:32Z</time>
      </trkpt>
      <trkpt lat="42.25505" lon="1.90088">
        <ele>1181</ele>
        <time>2010-01-01T07:31:39Z</time>
      </trkpt>
      <trkpt lat="42.2551" lon="1.90065">
        <ele>1181</ele>
        <time>2010-01-01T07:31:46Z</time>
      </trkpt>
      <trkpt lat="42.25504" lon="1.9004">
        <ele>1178</ele>
        <time>2010-01-01T07:31:53Z</time>
      </trkpt>
      <trkpt lat="42.25497" lon="1.90026">
        <ele>1174</ele>
        <time>2010-01-01T07:31:58Z</time>
      </trkpt>
      <trkpt lat="42.25497" lon="1.90017">
        <ele>1174</ele>
        <time>2010-01-01T07:32:01Z</time>
      </trkpt>
      <trkpt lat="42.25494" lon="1.89999">
        <ele>1172</ele>
        <time>2010-01-01T07:32:07Z</time>
      </trkpt>
      <trkpt lat="42.25495" lon="1.89973">
        <ele>1172</ele>
        <time>2010-01-01T07:32:14Z</time>
      </trkpt>
      <trkpt lat="42.25492" lon="1.89953">
        <ele>1172</ele>
        <time>2010-01-01T07:32:20Z</time>
      </trkpt>
      <trkpt lat="42.25489" lon="1.89949">
        <ele>1170</ele>
        <time>2010-01-01T07:32:22Z</time>
      </trkpt>
      <trkpt lat="42.2549" lon="1.89944">
        <ele>1171</ele>
        <time>2010-01-01T07:32:24Z</time>
      </trkpt>
      <trkpt lat="42.25486" lon="1.89931">
        <ele>1170</ele>
        <time>2010-01-01T07:32:28Z</time>
      </trkpt>
      <trkpt lat="42.2548" lon="1.89921">
        <ele>1167</ele>
        <time>2010-01-01T07:32:32Z</time>
      </trkpt>
      <trkpt lat="42.25477" lon="1.89918">
        <ele>1166</ele>
        <time>2010-01-01T07:32:33Z</time>
      </trkpt>
      <trkpt lat="42.25477" lon="1.8992">
        <ele>1165</ele>
        <time>2010-01-01T07:32:34Z</time>
      </trkpt>
      <trkpt lat="42.25477" lon="1.89919">
        <ele>1166</ele>
        <time>2010-01-01T07:32:34Z</time>
      </trkpt>
      <trkpt lat="42.25472" lon="1.89913">
        <ele>1163</ele>
        <time>2010-01-01T07:32:37Z</time>
      </trkpt>
      <trkpt lat="42.25469" lon="1.89914">
        <ele>1162</ele>
        <time>2010-01-01T07:32:38Z</time>
      </trkpt>
      <trkpt lat="42.25468" lon="1.89916">
        <ele>1161</ele>
        <time>2010-01-01T07:32:39Z</time>
      </trkpt>
      <trkpt lat="42.25465" lon="1.89903">
        <ele>1160</ele>
        <time>2010-01-01T07:32:43Z</time>
      </trkpt>
      <trkpt lat="42.25463" lon="1.89902">
        <ele>1159</ele>
        <time>2010-01-01T07:32:44Z</time>
      </trkpt>
      <trkpt lat="42.25457" lon="1.89905">
        <ele>1156</ele>
        <time>2010-01-01T07:32:46Z</time>
      </trkpt>
      <trkpt lat="42.25446" lon="1.89903">
        <ele>1151</ele>
        <time>2010-01-01T07:32:50Z</time>
      </trkpt>
      <trkpt lat="42.25438" lon="1.89922">
        <ele>1147</ele>
        <time>2010-01-01T07:32:57Z</time>
      </trkpt>
      <trkpt lat="42.25442" lon="1.89919">
        <ele>1149</ele>
        <time>2010-01-01T07:32:59Z</time>
      </trkpt>
      <trkpt lat="42.25444" lon="1.89904">
        <ele>1150</ele>
        <time>2010-01-01T07:33:03Z</time>
      </trkpt>
      <trkpt lat="42.25451" lon="1.89902">
        <ele>1154</ele>
        <time>2010-01-01T07:33:06Z</time>
      </trkpt>
      <trkpt lat="42.25451" lon="1.89905">
        <ele>1154</ele>
        <time>2010-01-01T07:33:07Z</time>
      </trkpt>
      <trkpt lat="42.25452" lon="1.89901">
        <ele>1154</ele>
        <time>2010-01-01T07:33:08Z</time>
      </trkpt>
      <trkpt lat="42.2545" lon="1.89897">
        <ele>1153</ele>
        <time>2010-01-01T07:33:10Z</time>
      </trkpt>
      <trkpt lat="42.2545" lon="1.89894">
        <ele>1154</ele>
        <time>2010-01-01T07:33:11Z</time>
      </trkpt>
      <trkpt lat="42.25437" lon="1.89896">
        <ele>1148</ele>
        <time>2010-01-01T07:33:16Z</time>
      </trkpt>
      <trkpt lat="42.25434" lon="1.89888">
        <ele>1147</ele>
        <time>2010-01-01T07:33:19Z</time>
      </trkpt>
      <trkpt lat="42.25433" lon="1.89894">
        <ele>1147</ele>
        <time>2010-01-01T07:33:21Z</time>
      </trkpt>
      <trkpt lat="42.25435" lon="1.89893">
        <ele>1148</ele>
        <time>2010-01-01T07:33:21Z</time>
      </trkpt>
      <trkpt lat="42.25439" lon="1.89895">
        <ele>1149</ele>
        <time>2010-01-01T07:33:23Z</time>
      </trkpt>
      <trkpt lat="42.25437" lon="1.89893">
        <ele>1148</ele>
        <time>2010-01-01T07:33:24Z</time>
      </trkpt>
      <trkpt lat="42.25433" lon="1.89874">
        <ele>1145</ele>
        <time>2010-01-01T07:33:30Z</time>
      </trkpt>
      <trkpt lat="42.25429" lon="1.89871">
        <ele>1143</ele>
        <time>2010-01-01T07:33:32Z</time>
      </trkpt>
      <trkpt lat="42.25423" lon="1.89881">
        <ele>1142</ele>
        <time>2010-01-01T07:33:36Z</time>
      </trkpt>
      <trkpt lat="42.25416" lon="1.89877">
        <ele>1139</ele>
        <time>2010-01-01T07:33:39Z</time>
      </trkpt>
      <trkpt lat="42.25414" lon="1.89874">
        <ele>1138</ele>
        <time>2010-01-01T07:33:40Z</time>
      </trkpt>
      <trkpt lat="42.25412" lon="1.89876">
        <ele>1137</ele>
        <time>2010-01-01T07:33:41Z</time>
      </trkpt>
      <trkpt lat="42.25402" lon="1.89875">
        <ele>1133</ele>
        <time>2010-01-01T07:33:45Z</time>
      </trkpt>
      <trkpt lat="42.25402" lon="1.89887">
        <ele>1135</ele>
        <time>2010-01-01T07:33:49Z</time>
      </trkpt>
      <trkpt lat="42.25404" lon="1.89892">
        <ele>1136</ele>
        <time>2010-01-01T07:33:50Z</time>
      </trkpt>
      <trkpt lat="42.25406" lon="1.89892">
        <ele>1136</ele>
        <time>2010-01-01T07:33:51Z</time>
      </trkpt>
      <trkpt lat="42.25403" lon="1.89887">
        <ele>1135</ele>
        <time>2010-01-01T07:33:53Z</time>
      </trkpt>
      <trkpt lat="42.25402" lon="1.89875">
        <ele>1133</ele>
        <time>2010-01-01T07:33:56Z</time>
      </trkpt>
      <trkpt lat="42.25406" lon="1.89854">
        <ele>1133</ele>
        <time>2010-01-01T07:34:03Z</time>
      </trkpt>
      <trkpt lat="42.25415" lon="1.89837">
        <ele>1135</ele>
        <time>2010-01-01T07:34:09Z</time>
      </trkpt>
      <trkpt lat="42.25412" lon="1.89825">
        <ele>1132</ele>
        <time>2010-01-01T07:34:13Z</time>
      </trkpt>
      <trkpt lat="42.2541" lon="1.89807">
        <ele>1129</ele>
        <time>2010-01-01T07:34:18Z</time>
      </trkpt>
      <trkpt lat="42.25396" lon="1.89788">
        <ele>1121</ele>
        <time>2010-01-01T07:34:26Z</time>
      </trkpt>
      <trkpt lat="42.25394" lon="1.89782">
        <ele>1120</ele>
        <time>2010-01-01T07:34:28Z</time>
      </trkpt>
      <trkpt lat="42.25386" lon="1.89779">
        <ele>1116</ele>
        <time>2010-01-01T07:34:31Z</time>
      </trkpt>
      <trkpt lat="42.25384" lon="1.8978">
        <ele>1116</ele>
        <time>2010-01-01T07:34:32Z</time>
      </trkpt>
      <trkpt lat="42.25379" lon="1.89778">
        <ele>1113</ele>
        <time>2010-01-01T07:34:34Z</time>
      </trkpt>
      <trkpt lat="42.25377" lon="1.89785">
        <ele>1112</ele>
        <time>2010-01-01T07:34:37Z</time>
      </trkpt>
      <trkpt lat="42.25377" lon="1.89788">
        <ele>1113</ele>
        <time>2010-01-01T07:34:38Z</time>
      </trkpt>
      <trkpt lat="42.25374" lon="1.89777">
        <ele>1111</ele>
        <time>2010-01-01T07:34:41Z</time>
      </trkpt>
      <trkpt lat="42.2537" lon="1.89773">
        <ele>1108</ele>
        <time>2010-01-01T07:34:43Z</time>
      </trkpt>
      <trkpt lat="42.25366" lon="1.89781">
        <ele>1108</ele>
        <time>2010-01-01T07:34:46Z</time>
      </trkpt>
      <trkpt lat="42.25368" lon="1.89783">
        <ele>1108</ele>
        <time>2010-01-01T07:34:47Z</time>
      </trkpt>
      <trkpt lat="42.25363" lon="1.89778">
        <ele>1106</ele>
        <time>2010-01-01T07:34:49Z</time>
      </trkpt>
      <trkpt lat="42.25365" lon="1.89754">
        <ele>1103</ele>
        <time>2010-01-01T07:34:56Z</time>
      </trkpt>
      <trkpt lat="42.25359" lon="1.89746">
        <ele>1098</ele>
        <time>2010-01-01T07:35:00Z</time>
      </trkpt>
      <trkpt lat="42.25355" lon="1.89746">
        <ele>1097</ele>
        <time>2010-01-01T07:35:02Z</time>
      </trkpt>
      <trkpt lat="42.25352" lon="1.89751">
        <ele>1096</ele>
        <time>2010-01-01T07:35:03Z</time>
      </trkpt>
      <trkpt lat="42.2535" lon="1.89751">
        <ele>1095</ele>
        <time>2010-01-01T07:35:04Z</time>
      </trkpt>
      <trkpt lat="42.25348" lon="1.89754">
        <ele>1095</ele>
        <time>2010-01-01T07:35:05Z</time>
      </trkpt>
      <trkpt lat="42.2535" lon="1.89764">
        <ele>1097</ele>
        <time>2010-01-01T07:35:08Z</time>
      </trkpt>
      <trkpt lat="42.2535" lon="1.89757">
        <ele>1096</ele>
        <time>2010-01-01T07:35:10Z</time>
      </trkpt>
      <trkpt lat="42.25348" lon="1.89749">
        <ele>1094</ele>
        <time>2010-01-01T07:35:13Z</time>
      </trkpt>
      <trkpt lat="42.25349" lon="1.8974">
        <ele>1092</ele>
        <time>2010-01-01T07:35:16Z</time>
      </trkpt>
      <trkpt lat="42.25347" lon="1.89734">
        <ele>1090</ele>
        <time>2010-01-01T07:35:18Z</time>
      </trkpt>
      <trkpt lat="42.25349" lon="1.89725">
        <ele>1089</ele>
        <time>2010-01-01T07:35:20Z</time>
      </trkpt>
      <trkpt lat="42.25347" lon="1.89711">
        <ele>1084</ele>
        <time>2010-01-01T07:35:25Z</time>
      </trkpt>
      <trkpt lat="42.25341" lon="1.89704">
        <ele>1080</ele>
        <time>2010-01-01T07:35:28Z</time>
      </trkpt>
      <trkpt lat="42.25339" lon="1.89705">
        <ele>1080</ele>
        <time>2010-01-01T07:35:29Z</time>
      </trkpt>
      <trkpt lat="42.25339" lon="1.89711">
        <ele>1081</ele>
        <time>2010-01-01T07:35:30Z</time>
      </trkpt>
      <trkpt lat="42.25342" lon="1.89709">
        <ele>1082</ele>
        <time>2010-01-01T07:35:32Z</time>
      </trkpt>
      <trkpt lat="42.25342" lon="1.89707">
        <ele>1081</ele>
        <time>2010-01-01T07:35:32Z</time>
      </trkpt>
      <trkpt lat="42.2533" lon="1.89722">
        <ele>1080</ele>
        <time>2010-01-01T07:35:39Z</time>
      </trkpt>
      <trkpt lat="42.25331" lon="1.89727">
        <ele>1081</ele>
        <time>2010-01-01T07:35:40Z</time>
      </trkpt>
      <trkpt lat="42.25333" lon="1.89724">
        <ele>1082</ele>
        <time>2010-01-01T07:35:41Z</time>
      </trkpt>
      <trkpt lat="42.25344" lon="1.89691">
        <ele>1078</ele>
        <time>2010-01-01T07:35:52Z</time>
      </trkpt>
      <trkpt lat="42.25349" lon="1.89681">
        <ele>1078</ele>
        <time>2010-01-01T07:35:56Z</time>
      </trkpt>
      <trkpt lat="42.25356" lon="1.89675">
        <ele>1080</ele>
        <time>2010-01-01T07:35:59Z</time>
      </trkpt>
      <trkpt lat="42.25364" lon="1.89662">
        <ele>1080</ele>
        <time>2010-01-01T07:36:04Z</time>
      </trkpt>
      <trkpt lat="42.25368" lon="1.89642">
        <ele>1074</ele>
        <time>2010-01-01T07:36:10Z</time>
      </trkpt>
      <trkpt lat="42.25368" lon="1.89634">
        <ele>1071</ele>
        <time>2010-01-01T07:36:13Z</time>
      </trkpt>
      <trkpt lat="42.25367" lon="1.89628">
        <ele>1069</ele>
        <time>2010-01-01T07:36:14Z</time>
      </trkpt>
      <trkpt lat="42.25362" lon="1.8962">
        <ele>1064</ele>
        <time>2010-01-01T07:36:17Z</time>
      </trkpt>
      <trkpt lat="42.25364" lon="1.89613">
        <ele>1062</ele>
        <time>2010-01-01T07:36:20Z</time>
      </trkpt>
      <trkpt lat="42.25359" lon="1.89606">
        <ele>1058</ele>
        <time>2010-01-01T07:36:22Z</time>
      </trkpt>
      <trkpt lat="42.25351" lon="1.89607">
        <ele>1056</ele>
        <time>2010-01-01T07:36:26Z</time>
      </trkpt>
      <trkpt lat="42.25348" lon="1.8961">
        <ele>1056</ele>
        <time>2010-01-01T07:36:27Z</time>
      </trkpt>
      <trkpt lat="42.25347" lon="1.89617">
        <ele>1058</ele>
        <time>2010-01-01T07:36:29Z</time>
      </trkpt>
      <trkpt lat="42.25343" lon="1.89614">
        <ele>1055</ele>
        <time>2010-01-01T07:36:31Z</time>
      </trkpt>
      <trkpt lat="42.25336" lon="1.8962">
        <ele>1055</ele>
        <time>2010-01-01T07:36:34Z</time>
      </trkpt>
      <trkpt lat="42.25335" lon="1.89623">
        <ele>1056</ele>
        <time>2010-01-01T07:36:35Z</time>
      </trkpt>
      <trkpt lat="42.25337" lon="1.89626">
        <ele>1058</ele>
        <time>2010-01-01T07:36:36Z</time>
      </trkpt>
      <trkpt lat="42.25339" lon="1.89625">
        <ele>1059</ele>
        <time>2010-01-01T07:36:37Z</time>
      </trkpt>
      <trkpt lat="42.2534" lon="1.89622">
        <ele>1058</ele>
        <time>2010-01-01T07:36:38Z</time>
      </trkpt>
      <trkpt lat="42.2534" lon="1.89596">
        <ele>1049</ele>
        <time>2010-01-01T07:36:46Z</time>
      </trkpt>
      <trkpt lat="42.25338" lon="1.89584">
        <ele>1045</ele>
        <time>2010-01-01T07:36:50Z</time>
      </trkpt>
      <trkpt lat="42.2534" lon="1.89577">
        <ele>1044</ele>
        <time>2010-01-01T07:36:52Z</time>
      </trkpt>
      <trkpt lat="42.25343" lon="1.89576">
        <ele>1044</ele>
        <time>2010-01-01T07:36:53Z</time>
      </trkpt>
      <trkpt lat="42.25343" lon="1.89572">
        <ele>1044</ele>
        <time>2010-01-01T07:36:54Z</time>
      </trkpt>
      <trkpt lat="42.25339" lon="1.89564">
        <ele>1042</ele>
        <time>2010-01-01T07:36:57Z</time>
      </trkpt>
      <trkpt lat="42.25334" lon="1.89564">
        <ele>1042</ele>
        <time>2010-01-01T07:36:59Z</time>
      </trkpt>
      <trkpt lat="42.25333" lon="1.89567">
        <ele>1042</ele>
        <time>2010-01-01T07:37:00Z</time>
      </trkpt>
      <trkpt lat="42.25337" lon="1.89566">
        <ele>1042</ele>
        <time>2010-01-01T07:37:01Z</time>
      </trkpt>
      <trkpt lat="42.2534" lon="1.89556">
        <ele>1041</ele>
        <time>2010-01-01T07:37:05Z</time>
      </trkpt>
      <trkpt lat="42.25336" lon="1.89549">
        <ele>1039</ele>
        <time>2010-01-01T07:37:08Z</time>
      </trkpt>
      <trkpt lat="42.25337" lon="1.89543">
        <ele>1037</ele>
        <time>2010-01-01T07:37:09Z</time>
      </trkpt>
      <trkpt lat="42.25331" lon="1.89523">
        <ele>1032</ele>
        <time>2010-01-01T07:37:16Z</time>
      </trkpt>
      <trkpt lat="42.25326" lon="1.89513">
        <ele>1029</ele>
        <time>2010-01-01T07:37:19Z</time>
      </trkpt>
      <trkpt lat="42.25326" lon="1.89504">
        <ele>1027</ele>
        <time>2010-01-01T07:37:22Z</time>
      </trkpt>
      <trkpt lat="42.25323" lon="1.89485">
        <ele>1021</ele>
        <time>2010-01-01T07:37:28Z</time>
      </trkpt>
      <trkpt lat="42.25319" lon="1.8948">
        <ele>1020</ele>
        <time>2010-01-01T07:37:30Z</time>
      </trkpt>
      <trkpt lat="42.25313" lon="1.89475">
        <ele>1019</ele>
        <time>2010-01-01T07:37:33Z</time>
      </trkpt>
      <trkpt lat="42.25311" lon="1.89476">
        <ele>1019</ele>
        <time>2010-01-01T07:37:34Z</time>
      </trkpt>
      <trkpt lat="42.25314" lon="1.89471">
        <ele>1018</ele>
        <time>2010-01-01T07:37:35Z</time>
      </trkpt>
      <trkpt lat="42.25336" lon="1.89485">
        <ele>1022</ele>
        <time>2010-01-01T07:37:45Z</time>
      </trkpt>
      <trkpt lat="42.25342" lon="1.8948">
        <ele>1021</ele>
        <time>2010-01-01T07:37:48Z</time>
      </trkpt>
      <trkpt lat="42.25348" lon="1.8947">
        <ele>1020</ele>
        <time>2010-01-01T07:37:51Z</time>
      </trkpt>
      <trkpt lat="42.25348" lon="1.89464">
        <ele>1020</ele>
        <time>2010-01-01T07:37:53Z</time>
      </trkpt>
      <trkpt lat="42.25344" lon="1.89457">
        <ele>1018</ele>
        <time>2010-01-01T07:37:56Z</time>
      </trkpt>
      <trkpt lat="42.25342" lon="1.89457">
        <ele>1017</ele>
        <time>2010-01-01T07:37:57Z</time>
      </trkpt>
      <trkpt lat="42.25341" lon="1.8946">
        <ele>1017</ele>
        <time>2010-01-01T07:37:57Z</time>
      </trkpt>
      <trkpt lat="42.25339" lon="1.89458">
        <ele>1016</ele>
        <time>2010-01-01T07:37:58Z</time>
      </trkpt>
      <trkpt lat="42.25337" lon="1.8945">
        <ele>1015</ele>
        <time>2010-01-01T07:38:01Z</time>
      </trkpt>
      <trkpt lat="42.25339" lon="1.89447">
        <ele>1015</ele>
        <time>2010-01-01T07:38:02Z</time>
      </trkpt>
      <trkpt lat="42.25338" lon="1.89441">
        <ele>1014</ele>
        <time>2010-01-01T07:38:04Z</time>
      </trkpt>
      <trkpt lat="42.25335" lon="1.89436">
        <ele>1012</ele>
        <time>2010-01-01T07:38:06Z</time>
      </trkpt>
      <trkpt lat="42.25329" lon="1.8943">
        <ele>1012</ele>
        <time>2010-01-01T07:38:09Z</time>
      </trkpt>
      <trkpt lat="42.25328" lon="1.89434">
        <ele>1012</ele>
        <time>2010-01-01T07:38:10Z</time>
      </trkpt>
      <trkpt lat="42.25332" lon="1.89435">
        <ele>1012</ele>
        <time>2010-01-01T07:38:12Z</time>
      </trkpt>
      <trkpt lat="42.25325" lon="1.89431">
        <ele>1012</ele>
        <time>2010-01-01T07:38:15Z</time>
      </trkpt>
      <trkpt lat="42.25322" lon="1.89415">
        <ele>1010</ele>
        <time>2010-01-01T07:38:20Z</time>
      </trkpt>
      <trkpt lat="42.25324" lon="1.89399">
        <ele>1008</ele>
        <time>2010-01-01T07:38:25Z</time>
      </trkpt>
      <trkpt lat="42.25323" lon="1.89392">
        <ele>1006</ele>
        <time>2010-01-01T07:38:27Z</time>
      </trkpt>
      <trkpt lat="42.25318" lon="1.89384">
        <ele>1004</ele>
        <time>2010-01-01T07:38:30Z</time>
      </trkpt>
      <trkpt lat="42.25313" lon="1.89379">
        <ele>1002</ele>
        <time>2010-01-01T07:38:33Z</time>
      </trkpt>
      <trkpt lat="42.25306" lon="1.89366">
        <ele>999</ele>
        <time>2010-01-01T07:38:38Z</time>
      </trkpt>
      <trkpt lat="42.25301" lon="1.89349">
        <ele>997</ele>
        <time>2010-01-01T07:38:43Z</time>
      </trkpt>
      <trkpt lat="42.25294" lon="1.89347">
        <ele>995</ele>
        <time>2010-01-01T07:38:46Z</time>
      </trkpt>
      <trkpt lat="42.2529" lon="1.89338">
        <ele>994</ele>
        <time>2010-01-01T07:38:49Z</time>
      </trkpt>
      <trkpt lat="42.2528" lon="1.89326">
        <ele>990</ele>
        <time>2010-01-01T07:38:54Z</time>
      </trkpt>
      <trkpt lat="42.25276" lon="1.89318">
        <ele>988</ele>
        <time>2010-01-01T07:38:57Z</time>
      </trkpt>
      <trkpt lat="42.25269" lon="1.89299">
        <ele>985</ele>
        <time>2010-01-01T07:39:03Z</time>
      </trkpt>
      <trkpt lat="42.25268" lon="1.89291">
        <ele>984</ele>
        <time>2010-01-01T07:39:06Z</time>
      </trkpt>
      <trkpt lat="42.25262" lon="1.89276">
        <ele>982</ele>
        <time>2010-01-01T07:39:11Z</time>
      </trkpt>
      <trkpt lat="42.2526" lon="1.89266">
        <ele>980</ele>
        <time>2010-01-01T07:39:14Z</time>
      </trkpt>
      <trkpt lat="42.25258" lon="1.89263">
        <ele>979</ele>
        <time>2010-01-01T07:39:15Z</time>
      </trkpt>
      <trkpt lat="42.25251" lon="1.89262">
        <ele>977</ele>
        <time>2010-01-01T07:39:18Z</time>
      </trkpt>
      <trkpt lat="42.25248" lon="1.89259">
        <ele>976</ele>
        <time>2010-01-01T07:39:19Z</time>
      </trkpt>
      <trkpt lat="42.25248" lon="1.8926">
        <ele>976</ele>
        <time>2010-01-01T07:39:20Z</time>
      </trkpt>
      <trkpt lat="42.25244" lon="1.89253">
        <ele>974</ele>
        <time>2010-01-01T07:39:22Z</time>
      </trkpt>
      <trkpt lat="42.25242" lon="1.89244">
        <ele>973</ele>
        <time>2010-01-01T07:39:25Z</time>
      </trkpt>
      <trkpt lat="42.25244" lon="1.89235">
        <ele>972</ele>
        <time>2010-01-01T07:39:28Z</time>
      </trkpt>
      <trkpt lat="42.25244" lon="1.89236">
        <ele>972</ele>
        <time>2010-01-01T07:39:29Z</time>
      </trkpt>
      <trkpt lat="42.25242" lon="1.89236">
        <ele>971</ele>
        <time>2010-01-01T07:39:29Z</time>
      </trkpt>
      <trkpt lat="42.25244" lon="1.89236">
        <ele>972</ele>
        <time>2010-01-01T07:39:30Z</time>
      </trkpt>
      <trkpt lat="42.25239" lon="1.89221">
        <ele>968</ele>
        <time>2010-01-01T07:39:35Z</time>
      </trkpt>
      <trkpt lat="42.25239" lon="1.89212">
        <ele>968</ele>
        <time>2010-01-01T07:39:37Z</time>
      </trkpt>
      <trkpt lat="42.25236" lon="1.89203">
        <ele>966</ele>
        <time>2010-01-01T07:39:40Z</time>
      </trkpt>
      <trkpt lat="42.25234" lon="1.89175">
        <ele>965</ele>
        <time>2010-01-01T07:39:49Z</time>
      </trkpt>
      <trkpt lat="42.25232" lon="1.89172">
        <ele>965</ele>
        <time>2010-01-01T07:39:50Z</time>
      </trkpt>
      <trkpt lat="42.25221" lon="1.89165">
        <ele>962</ele>
        <time>2010-01-01T07:39:55Z</time>
      </trkpt>
      <trkpt lat="42.25214" lon="1.89164">
        <ele>961</ele>
        <time>2010-01-01T07:39:58Z</time>
      </trkpt>
      <trkpt lat="42.25211" lon="1.89161">
        <ele>960</ele>
        <time>2010-01-01T07:39:59Z</time>
      </trkpt>
      <trkpt lat="42.25206" lon="1.8919">
        <ele>961</ele>
        <time>2010-01-01T07:40:08Z</time>
      </trkpt>
      <trkpt lat="42.25206" lon="1.89206">
        <ele>962</ele>
        <time>2010-01-01T07:40:13Z</time>
      </trkpt>
      <trkpt lat="42.25203" lon="1.89219">
        <ele>962</ele>
        <time>2010-01-01T07:40:17Z</time>
      </trkpt>
      <trkpt lat="42.25198" lon="1.89226">
        <ele>963</ele>
        <time>2010-01-01T07:40:20Z</time>
      </trkpt>
      <trkpt lat="42.25195" lon="1.89227">
        <ele>963</ele>
        <time>2010-01-01T07:40:21Z</time>
      </trkpt>
      <trkpt lat="42.25187" lon="1.89225">
        <ele>963</ele>
        <time>2010-01-01T07:40:24Z</time>
      </trkpt>
      <trkpt lat="42.25179" lon="1.89226">
        <ele>965</ele>
        <time>2010-01-01T07:40:27Z</time>
      </trkpt>
      <trkpt lat="42.25172" lon="1.8922">
        <ele>965</ele>
        <time>2010-01-01T07:40:31Z</time>
      </trkpt>
      <trkpt lat="42.25163" lon="1.89207">
        <ele>963</ele>
        <time>2010-01-01T07:40:36Z</time>
      </trkpt>
      <trkpt lat="42.25151" lon="1.89194">
        <ele>960</ele>
        <time>2010-01-01T07:40:42Z</time>
      </trkpt>
      <trkpt lat="42.25143" lon="1.89191">
        <ele>959</ele>
        <time>2010-01-01T07:40:45Z</time>
      </trkpt>
      <trkpt lat="42.25146" lon="1.89198">
        <ele>961</ele>
        <time>2010-01-01T07:40:47Z</time>
      </trkpt>
      <trkpt lat="42.25145" lon="1.89192">
        <ele>960</ele>
        <time>2010-01-01T07:40:49Z</time>
      </trkpt>
      <trkpt lat="42.25137" lon="1.89183">
        <ele>957</ele>
        <time>2010-01-01T07:40:53Z</time>
      </trkpt>
      <trkpt lat="42.25136" lon="1.89178">
        <ele>955</ele>
        <time>2010-01-01T07:40:55Z</time>
      </trkpt>
      <trkpt lat="42.25119" lon="1.89166">
        <ele>951</ele>
        <time>2010-01-01T07:41:02Z</time>
      </trkpt>
      <trkpt lat="42.25113" lon="1.89164">
        <ele>951</ele>
        <time>2010-01-01T07:41:05Z</time>
      </trkpt>
      <trkpt lat="42.25111" lon="1.89162">
        <ele>950</ele>
        <time>2010-01-01T07:41:06Z</time>
      </trkpt>
      <trkpt lat="42.25094" lon="1.89161">
        <ele>947</ele>
        <time>2010-01-01T07:41:13Z</time>
      </trkpt>
      <trkpt lat="42.2508" lon="1.89165">
        <ele>946</ele>
        <time>2010-01-01T07:41:18Z</time>
      </trkpt>
      <trkpt lat="42.2507" lon="1.89165">
        <ele>945</ele>
        <time>2010-01-01T07:41:22Z</time>
      </trkpt>
      <trkpt lat="42.25064" lon="1.89164">
        <ele>943</ele>
        <time>2010-01-01T07:41:25Z</time>
      </trkpt>
      <trkpt lat="42.25054" lon="1.89167">
        <ele>942</ele>
        <time>2010-01-01T07:41:29Z</time>
      </trkpt>
      <trkpt lat="42.25048" lon="1.89163">
        <ele>941</ele>
        <time>2010-01-01T07:41:32Z</time>
      </trkpt>
      <trkpt lat="42.25042" lon="1.89162">
        <ele>940</ele>
        <time>2010-01-01T07:41:34Z</time>
      </trkpt>
      <trkpt lat="42.25035" lon="1.89162">
        <ele>939</ele>
        <time>2010-01-01T07:41:37Z</time>
      </trkpt>
      <trkpt lat="42.25028" lon="1.89156">
        <ele>937</ele>
        <time>2010-01-01T07:41:40Z</time>
      </trkpt>
      <trkpt lat="42.25025" lon="1.89155">
        <ele>936</ele>
        <time>2010-01-01T07:41:41Z</time>
      </trkpt>
      <trkpt lat="42.25019" lon="1.89156">
        <ele>936</ele>
        <time>2010-01-01T07:41:44Z</time>
      </trkpt>
      <trkpt lat="42.2502" lon="1.89158">
        <ele>936</ele>
        <time>2010-01-01T07:41:44Z</time>
      </trkpt>
      <trkpt lat="42.25012" lon="1.89145">
        <ele>933</ele>
        <time>2010-01-01T07:41:49Z</time>
      </trkpt>
      <trkpt lat="42.25014" lon="1.89154">
        <ele>935</ele>
        <time>2010-01-01T07:41:52Z</time>
      </trkpt>
      <trkpt lat="42.25016" lon="1.8915">
        <ele>934</ele>
        <time>2010-01-01T07:41:54Z</time>
      </trkpt>
      <trkpt lat="42.2501" lon="1.8914">
        <ele>932</ele>
        <time>2010-01-01T07:41:57Z</time>
      </trkpt>
      <trkpt lat="42.25" lon="1.89141">
        <ele>931</ele>
        <time>2010-01-01T07:42:01Z</time>
      </trkpt>
      <trkpt lat="42.24993" lon="1.89135">
        <ele>929</ele>
        <time>2010-01-01T07:42:05Z</time>
      </trkpt>
      <trkpt lat="42.2496" lon="1.89134">
        <ele>926</ele>
        <time>2010-01-01T07:42:18Z</time>
      </trkpt>
      <trkpt lat="42.24949" lon="1.8913">
        <ele>926</ele>
        <time>2010-01-01T07:42:23Z</time>
      </trkpt>
      <trkpt lat="42.24944" lon="1.89127">
        <ele>926</ele>
        <time>2010-01-01T07:42:25Z</time>
      </trkpt>
      <trkpt lat="42.24935" lon="1.89118">
        <ele>925</ele>
        <time>2010-01-01T07:42:29Z</time>
      </trkpt>
      <trkpt lat="42.24929" lon="1.89109">
        <ele>925</ele>
        <time>2010-01-01T07:42:33Z</time>
      </trkpt>
      <trkpt lat="42.24926" lon="1.89107">
        <ele>925</ele>
        <time>2010-01-01T07:42:34Z</time>
      </trkpt>
      <trkpt lat="42.24929" lon="1.8911">
        <ele>925</ele>
        <time>2010-01-01T07:42:35Z</time>
      </trkpt>
      <trkpt lat="42.24924" lon="1.89095">
        <ele>925</ele>
        <time>2010-01-01T07:42:40Z</time>
      </trkpt>
      <trkpt lat="42.24918" lon="1.89088">
        <ele>925</ele>
        <time>2010-01-01T07:42:44Z</time>
      </trkpt>
      <trkpt lat="42.24908" lon="1.89082">
        <ele>925</ele>
        <time>2010-01-01T07:42:48Z</time>
      </trkpt>
      <trkpt lat="42.2489" lon="1.89083">
        <ele>923</ele>
        <time>2010-01-01T07:42:55Z</time>
      </trkpt>
      <trkpt lat="42.24877" lon="1.89092">
        <ele>921</ele>
        <time>2010-01-01T07:43:01Z</time>
      </trkpt>
      <trkpt lat="42.24872" lon="1.89093">
        <ele>921</ele>
        <time>2010-01-01T07:43:03Z</time>
      </trkpt>
      <trkpt lat="42.24869" lon="1.89098">
        <ele>921</ele>
        <time>2010-01-01T07:43:05Z</time>
      </trkpt>
      <trkpt lat="42.24861" lon="1.89104">
        <ele>920</ele>
        <time>2010-01-01T07:43:09Z</time>
      </trkpt>
      <trkpt lat="42.24843" lon="1.89108">
        <ele>917</ele>
        <time>2010-01-01T07:43:16Z</time>
      </trkpt>
      <trkpt lat="42.24824" lon="1.89115">
        <ele>914</ele>
        <time>2010-01-01T07:43:24Z</time>
      </trkpt>
      <trkpt lat="42.24814" lon="1.89114">
        <ele>912</ele>
        <time>2010-01-01T07:43:28Z</time>
      </trkpt>
      <trkpt lat="42.2478" lon="1.89125">
        <ele>909</ele>
        <time>2010-01-01T07:43:42Z</time>
      </trkpt>
      <trkpt lat="42.24778" lon="1.89128">
        <ele>909</ele>
        <time>2010-01-01T07:43:43Z</time>
      </trkpt>
      <trkpt lat="42.24774" lon="1.8913">
        <ele>908</ele>
        <time>2010-01-01T07:43:45Z</time>
      </trkpt>
      <trkpt lat="42.24769" lon="1.8913">
        <ele>908</ele>
        <time>2010-01-01T07:43:47Z</time>
      </trkpt>
      <trkpt lat="42.24765" lon="1.89129">
        <ele>907</ele>
        <time>2010-01-01T07:43:48Z</time>
      </trkpt>
      <trkpt lat="42.24758" lon="1.89122">
        <ele>906</ele>
        <time>2010-01-01T07:43:52Z</time>
      </trkpt>
      <trkpt lat="42.24746" lon="1.89108">
        <ele>905</ele>
        <time>2010-01-01T07:43:58Z</time>
      </trkpt>
      <trkpt lat="42.24706" lon="1.89069">
        <ele>898</ele>
        <time>2010-01-01T07:44:18Z</time>
      </trkpt>
      <trkpt lat="42.24692" lon="1.89065">
        <ele>896</ele>
        <time>2010-01-01T07:44:23Z</time>
      </trkpt>
      <trkpt lat="42.24694" lon="1.89068">
        <ele>897</ele>
        <time>2010-01-01T07:44:24Z</time>
      </trkpt>
      <trkpt lat="42.24692" lon="1.89067">
        <ele>896</ele>
        <time>2010-01-01T07:44:25Z</time>
      </trkpt>
      <trkpt lat="42.24689" lon="1.89068">
        <ele>896</ele>
        <time>2010-01-01T07:44:27Z</time>
      </trkpt>
      <trkpt lat="42.24682" lon="1.89065">
        <ele>894</ele>
        <time>2010-01-01T07:44:29Z</time>
      </trkpt>
      <trkpt lat="42.24678" lon="1.8907">
        <ele>894</ele>
        <time>2010-01-01T07:44:31Z</time>
      </trkpt>
      <trkpt lat="42.24679" lon="1.89073">
        <ele>894</ele>
        <time>2010-01-01T07:44:32Z</time>
      </trkpt>
      <trkpt lat="42.2467" lon="1.8908">
        <ele>893</ele>
        <time>2010-01-01T07:44:36Z</time>
      </trkpt>
      <trkpt lat="42.24662" lon="1.89091">
        <ele>892</ele>
        <time>2010-01-01T07:44:41Z</time>
      </trkpt>
      <trkpt lat="42.24656" lon="1.89096">
        <ele>892</ele>
        <time>2010-01-01T07:44:44Z</time>
      </trkpt>
      <trkpt lat="42.24641" lon="1.89102">
        <ele>892</ele>
        <time>2010-01-01T07:44:50Z</time>
      </trkpt>
      <trkpt lat="42.24624" lon="1.89118">
        <ele>896</ele>
        <time>2010-01-01T07:44:58Z</time>
      </trkpt>
      <trkpt lat="42.24613" lon="1.89124">
        <ele>897</ele>
        <time>2010-01-01T07:45:03Z</time>
      </trkpt>
      <trkpt lat="42.24603" lon="1.89121">
        <ele>898</ele>
        <time>2010-01-01T07:45:07Z</time>
      </trkpt>
      <trkpt lat="42.24592" lon="1.89125">
        <ele>899</ele>
        <time>2010-01-01T07:45:12Z</time>
      </trkpt>
      <trkpt lat="42.24582" lon="1.89123">
        <ele>900</ele>
        <time>2010-01-01T07:45:16Z</time>
      </trkpt>
      <trkpt lat="42.24569" lon="1.89112">
        <ele>900</ele>
        <time>2010-01-01T07:45:22Z</time>
      </trkpt>
      <trkpt lat="42.24558" lon="1.8911">
        <ele>899</ele>
        <time>2010-01-01T07:45:26Z</time>
      </trkpt>
      <trkpt lat="42.24555" lon="1.8911">
        <ele>899</ele>
        <time>2010-01-01T07:45:27Z</time>
      </trkpt>
      <trkpt lat="42.2455" lon="1.89114">
        <ele>900</ele>
        <time>2010-01-01T07:45:30Z</time>
      </trkpt>
      <trkpt lat="42.24528" lon="1.89118">
        <ele>902</ele>
        <time>2010-01-01T07:45:39Z</time>
      </trkpt>
      <trkpt lat="42.24526" lon="1.89106">
        <ele>901</ele>
        <time>2010-01-01T07:45:42Z</time>
      </trkpt>
      <trkpt lat="42.24523" lon="1.89104">
        <ele>901</ele>
        <time>2010-01-01T07:45:44Z</time>
      </trkpt>
      <trkpt lat="42.24523" lon="1.89102">
        <ele>901</ele>
        <time>2010-01-01T07:45:44Z</time>
      </trkpt>
      <trkpt lat="42.24527" lon="1.89079">
        <ele>898</ele>
        <time>2010-01-01T07:45:51Z</time>
      </trkpt>
      <trkpt lat="42.24527" lon="1.8907">
        <ele>897</ele>
        <time>2010-01-01T07:45:54Z</time>
      </trkpt>
      <trkpt lat="42.24532" lon="1.89064">
        <ele>895</ele>
        <time>2010-01-01T07:45:57Z</time>
      </trkpt>
      <trkpt lat="42.24535" lon="1.89055">
        <ele>894</ele>
        <time>2010-01-01T07:46:00Z</time>
      </trkpt>
      <trkpt lat="42.24537" lon="1.89039">
        <ele>891</ele>
        <time>2010-01-01T07:46:04Z</time>
      </trkpt>
      <trkpt lat="42.24535" lon="1.89032">
        <ele>891</ele>
        <time>2010-01-01T07:46:07Z</time>
      </trkpt>
      <trkpt lat="42.24533" lon="1.89031">
        <ele>891</ele>
        <time>2010-01-01T07:46:08Z</time>
      </trkpt>
      <trkpt lat="42.24534" lon="1.89031">
        <ele>891</ele>
        <time>2010-01-01T07:46:08Z</time>
      </trkpt>
      <trkpt lat="42.24534" lon="1.8903">
        <ele>891</ele>
        <time>2010-01-01T07:46:09Z</time>
      </trkpt>
      <trkpt lat="42.24532" lon="1.8903">
        <ele>891</ele>
        <time>2010-01-01T07:46:10Z</time>
      </trkpt>
      <trkpt lat="42.24535" lon="1.89033">
        <ele>891</ele>
        <time>2010-01-01T07:46:11Z</time>
      </trkpt>
      <trkpt lat="42.24536" lon="1.89032">
        <ele>891</ele>
        <time>2010-01-01T07:46:12Z</time>
      </trkpt>
      <trkpt lat="42.24539" lon="1.89019">
        <ele>888</ele>
        <time>2010-01-01T07:46:16Z</time>
      </trkpt>
      <trkpt lat="42.24534" lon="1.89021">
        <ele>890</ele>
        <time>2010-01-01T07:46:18Z</time>
      </trkpt>
      <trkpt lat="42.24532" lon="1.89028">
        <ele>891</ele>
        <time>2010-01-01T07:46:20Z</time>
      </trkpt>
      <trkpt lat="42.24533" lon="1.89032">
        <ele>891</ele>
        <time>2010-01-01T07:46:21Z</time>
      </trkpt>
      <trkpt lat="42.24534" lon="1.8903">
        <ele>891</ele>
        <time>2010-01-01T07:46:22Z</time>
      </trkpt>
      <trkpt lat="42.24529" lon="1.89036">
        <ele>892</ele>
        <time>2010-01-01T07:46:24Z</time>
      </trkpt>
      <trkpt lat="42.24519" lon="1.89022">
        <ele>891</ele>
        <time>2010-01-01T07:46:30Z</time>
      </trkpt>
      <trkpt lat="42.24509" lon="1.89011">
        <ele>890</ele>
        <time>2010-01-01T07:46:36Z</time>
      </trkpt>
      <trkpt lat="42.24496" lon="1.89004">
        <ele>888</ele>
        <time>2010-01-01T07:46:41Z</time>
      </trkpt>
      <trkpt lat="42.24493" lon="1.89005">
        <ele>887</ele>
        <time>2010-01-01T07:46:42Z</time>
      </trkpt>
      <trkpt lat="42.2449" lon="1.89004">
        <ele>887</ele>
        <time>2010-01-01T07:46:44Z</time>
      </trkpt>
      <trkpt lat="42.24488" lon="1.89005">
        <ele>886</ele>
        <time>2010-01-01T07:46:45Z</time>
      </trkpt>
      <trkpt lat="42.24482" lon="1.89001">
        <ele>885</ele>
        <time>2010-01-01T07:46:47Z</time>
      </trkpt>
      <trkpt lat="42.24477" lon="1.89001">
        <ele>884</ele>
        <time>2010-01-01T07:46:49Z</time>
      </trkpt>
      <trkpt lat="42.24468" lon="1.88994">
        <ele>881</ele>
        <time>2010-01-01T07:46:53Z</time>
      </trkpt>
      <trkpt lat="42.24459" lon="1.88991">
        <ele>877</ele>
        <time>2010-01-01T07:46:57Z</time>
      </trkpt>
      <trkpt lat="42.24441" lon="1.89002">
        <ele>871</ele>
        <time>2010-01-01T07:47:05Z</time>
      </trkpt>
      <trkpt lat="42.24431" lon="1.89011">
        <ele>869</ele>
        <time>2010-01-01T07:47:10Z</time>
      </trkpt>
      <trkpt lat="42.24421" lon="1.89025">
        <ele>868</ele>
        <time>2010-01-01T07:47:16Z</time>
      </trkpt>
      <trkpt lat="42.24419" lon="1.89027">
        <ele>868</ele>
        <time>2010-01-01T07:47:17Z</time>
      </trkpt>
      <trkpt lat="42.24413" lon="1.89029">
        <ele>867</ele>
        <time>2010-01-01T07:47:19Z</time>
      </trkpt>
      <trkpt lat="42.2441" lon="1.89032">
        <ele>867</ele>
        <time>2010-01-01T07:47:21Z</time>
      </trkpt>
      <trkpt lat="42.24401" lon="1.89024">
        <ele>863</ele>
        <time>2010-01-01T07:47:25Z</time>
      </trkpt>
      <trkpt lat="42.24399" lon="1.89015">
        <ele>861</ele>
        <time>2010-01-01T07:47:28Z</time>
      </trkpt>
      <trkpt lat="42.24399" lon="1.88998">
        <ele>858</ele>
        <time>2010-01-01T07:47:33Z</time>
      </trkpt>
      <trkpt lat="42.24391" lon="1.8898">
        <ele>854</ele>
        <time>2010-01-01T07:47:39Z</time>
      </trkpt>
      <trkpt lat="42.24384" lon="1.88943">
        <ele>849</ele>
        <time>2010-01-01T07:47:50Z</time>
      </trkpt>
      <trkpt lat="42.24379" lon="1.88935">
        <ele>848</ele>
        <time>2010-01-01T07:47:54Z</time>
      </trkpt>
      <trkpt lat="42.24371" lon="1.88933">
        <ele>846</ele>
        <time>2010-01-01T07:47:57Z</time>
      </trkpt>
      <trkpt lat="42.24365" lon="1.88937">
        <ele>845</ele>
        <time>2010-01-01T07:48:00Z</time>
      </trkpt>
      <trkpt lat="42.24358" lon="1.88934">
        <ele>844</ele>
        <time>2010-01-01T07:48:02Z</time>
      </trkpt>
      <trkpt lat="42.24356" lon="1.88936">
        <ele>843</ele>
        <time>2010-01-01T07:48:03Z</time>
      </trkpt>
      <trkpt lat="42.24357" lon="1.88939">
        <ele>843</ele>
        <time>2010-01-01T07:48:04Z</time>
      </trkpt>
      <trkpt lat="42.24349" lon="1.88931">
        <ele>843</ele>
        <time>2010-01-01T07:48:08Z</time>
      </trkpt>
      <trkpt lat="42.24338" lon="1.8893">
        <ele>841</ele>
        <time>2010-01-01T07:48:12Z</time>
      </trkpt>
      <trkpt lat="42.24334" lon="1.88928">
        <ele>841</ele>
        <time>2010-01-01T07:48:14Z</time>
      </trkpt>
      <trkpt lat="42.24327" lon="1.88911">
        <ele>842</ele>
        <time>2010-01-01T07:48:20Z</time>
      </trkpt>
      <trkpt lat="42.24324" lon="1.88906">
        <ele>843</ele>
        <time>2010-01-01T07:48:22Z</time>
      </trkpt>
      <trkpt lat="42.24309" lon="1.88897">
        <ele>844</ele>
        <time>2010-01-01T07:48:28Z</time>
      </trkpt>
      <trkpt lat="42.24299" lon="1.88893">
        <ele>844</ele>
        <time>2010-01-01T07:48:33Z</time>
      </trkpt>
      <trkpt lat="42.24272" lon="1.88887">
        <ele>840</ele>
        <time>2010-01-01T07:48:44Z</time>
      </trkpt>
      <trkpt lat="42.24267" lon="1.8888">
        <ele>839</ele>
        <time>2010-01-01T07:48:46Z</time>
      </trkpt>
      <trkpt lat="42.24256" lon="1.88839">
        <ele>838</ele>
        <time>2010-01-01T07:49:00Z</time>
      </trkpt>
      <trkpt lat="42.24256" lon="1.88835">
        <ele>839</ele>
        <time>2010-01-01T07:49:01Z</time>
      </trkpt>
      <trkpt lat="42.24258" lon="1.88838">
        <ele>839</ele>
        <time>2010-01-01T07:49:02Z</time>
      </trkpt>
      <trkpt lat="42.24253" lon="1.88821">
        <ele>837</ele>
        <time>2010-01-01T07:49:07Z</time>
      </trkpt>
      <trkpt lat="42.24253" lon="1.88816">
        <ele>837</ele>
        <time>2010-01-01T07:49:09Z</time>
      </trkpt>
      <trkpt lat="42.24254" lon="1.88808">
        <ele>837</ele>
        <time>2010-01-01T07:49:11Z</time>
      </trkpt>
      <trkpt lat="42.24259" lon="1.888">
        <ele>839</ele>
        <time>2010-01-01T07:49:14Z</time>
      </trkpt>
      <trkpt lat="42.24268" lon="1.88773">
        <ele>842</ele>
        <time>2010-01-01T07:49:23Z</time>
      </trkpt>
      <trkpt lat="42.2427" lon="1.88752">
        <ele>842</ele>
        <time>2010-01-01T07:49:29Z</time>
      </trkpt>
      <trkpt lat="42.24276" lon="1.88729">
        <ele>843</ele>
        <time>2010-01-01T07:49:36Z</time>
      </trkpt>
      <trkpt lat="42.24275" lon="1.88711">
        <ele>843</ele>
        <time>2010-01-01T07:49:42Z</time>
      </trkpt>
      <trkpt lat="42.24268" lon="1.88697">
        <ele>840</ele>
        <time>2010-01-01T07:49:47Z</time>
      </trkpt>
      <trkpt lat="42.24261" lon="1.88663">
        <ele>837</ele>
        <time>2010-01-01T07:49:57Z</time>
      </trkpt>
      <trkpt lat="42.24255" lon="1.88614">
        <ele>834</ele>
        <time>2010-01-01T07:50:12Z</time>
      </trkpt>
      <trkpt lat="42.2426" lon="1.88612">
        <ele>836</ele>
        <time>2010-01-01T07:50:13Z</time>
      </trkpt>
      <trkpt lat="42.24258" lon="1.88613">
        <ele>835</ele>
        <time>2010-01-01T07:50:14Z</time>
      </trkpt>
      <trkpt lat="42.24256" lon="1.88617">
        <ele>835</ele>
        <time>2010-01-01T07:50:16Z</time>
      </trkpt>
      <trkpt lat="42.24255" lon="1.88618">
        <ele>834</ele>
        <time>2010-01-01T07:50:16Z</time>
      </trkpt>
      <trkpt lat="42.24253" lon="1.88615">
        <ele>833</ele>
        <time>2010-01-01T07:50:17Z</time>
      </trkpt>
      <trkpt lat="42.24256" lon="1.88613">
        <ele>835</ele>
        <time>2010-01-01T07:50:18Z</time>
      </trkpt>
      <trkpt lat="42.24258" lon="1.88613">
        <ele>836</ele>
        <time>2010-01-01T07:50:19Z</time>
      </trkpt>
      <trkpt lat="42.24259" lon="1.88615">
        <ele>836</ele>
        <time>2010-01-01T07:50:20Z</time>
      </trkpt>
      <trkpt lat="42.24254" lon="1.8862">
        <ele>834</ele>
        <time>2010-01-01T07:50:22Z</time>
      </trkpt>
      <trkpt lat="42.24256" lon="1.88616">
        <ele>834</ele>
        <time>2010-01-01T07:50:23Z</time>
      </trkpt>
      <trkpt lat="42.24255" lon="1.88617">
        <ele>834</ele>
        <time>2010-01-01T07:50:24Z</time>
      </trkpt>
      <trkpt lat="42.24258" lon="1.8862">
        <ele>835</ele>
        <time>2010-01-01T07:50:25Z</time>
      </trkpt>
      <trkpt lat="42.24254" lon="1.88623">
        <ele>833</ele>
        <time>2010-01-01T07:50:27Z</time>
      </trkpt>
      <trkpt lat="42.2425" lon="1.88625">
        <ele>831</ele>
        <time>2010-01-01T07:50:29Z</time>
      </trkpt>
      <trkpt lat="42.24253" lon="1.88616">
        <ele>833</ele>
        <time>2010-01-01T07:50:32Z</time>
      </trkpt>
      <trkpt lat="42.2425" lon="1.88614">
        <ele>832</ele>
        <time>2010-01-01T07:50:33Z</time>
      </trkpt>
      <trkpt lat="42.24253" lon="1.88615">
        <ele>833</ele>
        <time>2010-01-01T07:50:34Z</time>
      </trkpt>
      <trkpt lat="42.24252" lon="1.88601">
        <ele>832</ele>
        <time>2010-01-01T07:50:38Z</time>
      </trkpt>
      <trkpt lat="42.24249" lon="1.88593">
        <ele>831</ele>
        <time>2010-01-01T07:50:40Z</time>
      </trkpt>
      <trkpt lat="42.24236" lon="1.8857">
        <ele>827</ele>
        <time>2010-01-01T07:50:49Z</time>
      </trkpt>
      <trkpt lat="42.24233" lon="1.88569">
        <ele>826</ele>
        <time>2010-01-01T07:50:50Z</time>
      </trkpt>
      <trkpt lat="42.24227" lon="1.88578">
        <ele>825</ele>
        <time>2010-01-01T07:50:54Z</time>
      </trkpt>
      <trkpt lat="42.24224" lon="1.88595">
        <ele>824</ele>
        <time>2010-01-01T07:50:59Z</time>
      </trkpt>
      <trkpt lat="42.2422" lon="1.88593">
        <ele>823</ele>
        <time>2010-01-01T07:51:00Z</time>
      </trkpt>
      <trkpt lat="42.24206" lon="1.88592">
        <ele>821</ele>
        <time>2010-01-01T07:51:06Z</time>
      </trkpt>
      <trkpt lat="42.24198" lon="1.88589">
        <ele>820</ele>
        <time>2010-01-01T07:51:09Z</time>
      </trkpt>
      <trkpt lat="42.24194" lon="1.88585">
        <ele>819</ele>
        <time>2010-01-01T07:51:11Z</time>
      </trkpt>
      <trkpt lat="42.24185" lon="1.88581">
        <ele>819</ele>
        <time>2010-01-01T07:51:15Z</time>
      </trkpt>
      <trkpt lat="42.24181" lon="1.88576">
        <ele>818</ele>
        <time>2010-01-01T07:51:17Z</time>
      </trkpt>
      <trkpt lat="42.24179" lon="1.88579">
        <ele>818</ele>
        <time>2010-01-01T07:51:18Z</time>
      </trkpt>
      <trkpt lat="42.24175" lon="1.8858">
        <ele>817</ele>
        <time>2010-01-01T07:51:20Z</time>
      </trkpt>
      <trkpt lat="42.24171" lon="1.88592">
        <ele>817</ele>
        <time>2010-01-01T07:51:24Z</time>
      </trkpt>
      <trkpt lat="42.24172" lon="1.88611">
        <ele>816</ele>
        <time>2010-01-01T07:51:29Z</time>
      </trkpt>
      <trkpt lat="42.2417" lon="1.88601">
        <ele>816</ele>
        <time>2010-01-01T07:51:33Z</time>
      </trkpt>
      <trkpt lat="42.24164" lon="1.8859">
        <ele>816</ele>
        <time>2010-01-01T07:51:37Z</time>
      </trkpt>
      <trkpt lat="42.24153" lon="1.8858">
        <ele>817</ele>
        <time>2010-01-01T07:51:42Z</time>
      </trkpt>
      <trkpt lat="42.24148" lon="1.88579">
        <ele>817</ele>
        <time>2010-01-01T07:51:44Z</time>
      </trkpt>
      <trkpt lat="42.24162" lon="1.88581">
        <ele>817</ele>
        <time>2010-01-01T07:51:49Z</time>
      </trkpt>
      <trkpt lat="42.24166" lon="1.88579">
        <ele>817</ele>
        <time>2010-01-01T07:51:51Z</time>
      </trkpt>
      <trkpt lat="42.24167" lon="1.88574">
        <ele>817</ele>
        <time>2010-01-01T07:51:53Z</time>
      </trkpt>
      <trkpt lat="42.24166" lon="1.88569">
        <ele>817</ele>
        <time>2010-01-01T07:51:54Z</time>
      </trkpt>
      <trkpt lat="42.24155" lon="1.88568">
        <ele>817</ele>
        <time>2010-01-01T07:51:59Z</time>
      </trkpt>
      <trkpt lat="42.24149" lon="1.88566">
        <ele>817</ele>
        <time>2010-01-01T07:52:01Z</time>
      </trkpt>
      <trkpt lat="42.24144" lon="1.88568">
        <ele>817</ele>
        <time>2010-01-01T07:52:03Z</time>
      </trkpt>
      <trkpt lat="42.24143" lon="1.88561">
        <ele>817</ele>
        <time>2010-01-01T07:52:06Z</time>
      </trkpt>
      <trkpt lat="42.2414" lon="1.88558">
        <ele>817</ele>
        <time>2010-01-01T07:52:07Z</time>
      </trkpt>
      <trkpt lat="42.24128" lon="1.88557">
        <ele>817</ele>
        <time>2010-01-01T07:52:12Z</time>
      </trkpt>
      <trkpt lat="42.24115" lon="1.88558">
        <ele>818</ele>
        <time>2010-01-01T07:52:17Z</time>
      </trkpt>
      <trkpt lat="42.24103" lon="1.88561">
        <ele>821</ele>
        <time>2010-01-01T07:52:22Z</time>
      </trkpt>
      <trkpt lat="42.24091" lon="1.88566">
        <ele>824</ele>
        <time>2010-01-01T07:52:27Z</time>
      </trkpt>
      <trkpt lat="42.24077" lon="1.88566">
        <ele>827</ele>
        <time>2010-01-01T07:52:32Z</time>
      </trkpt>
      <trkpt lat="42.24053" lon="1.88553">
        <ele>832</ele>
        <time>2010-01-01T07:52:43Z</time>
      </trkpt>
      <trkpt lat="42.24041" lon="1.88549">
        <ele>831</ele>
        <time>2010-01-01T07:52:48Z</time>
      </trkpt>
      <trkpt lat="42.24013" lon="1.88546">
        <ele>830</ele>
        <time>2010-01-01T07:52:59Z</time>
      </trkpt>
      <trkpt lat="42.24003" lon="1.88543">
        <ele>830</ele>
        <time>2010-01-01T07:53:03Z</time>
      </trkpt>
      <trkpt lat="42.23993" lon="1.88536">
        <ele>830</ele>
        <time>2010-01-01T07:53:08Z</time>
      </trkpt>
      <trkpt lat="42.23979" lon="1.88534">
        <ele>830</ele>
        <time>2010-01-01T07:53:14Z</time>
      </trkpt>
      <trkpt lat="42.2396" lon="1.88527">
        <ele>828</ele>
        <time>2010-01-01T07:53:21Z</time>
      </trkpt>
      <trkpt lat="42.23948" lon="1.88525">
        <ele>826</ele>
        <time>2010-01-01T07:53:26Z</time>
      </trkpt>
      <trkpt lat="42.23909" lon="1.88534">
        <ele>825</ele>
        <time>2010-01-01T07:53:42Z</time>
      </trkpt>
      <trkpt lat="42.23893" lon="1.88522">
        <ele>826</ele>
        <time>2010-01-01T07:53:49Z</time>
      </trkpt>
      <trkpt lat="42.23887" lon="1.88514">
        <ele>825</ele>
        <time>2010-01-01T07:53:52Z</time>
      </trkpt>
      <trkpt lat="42.23869" lon="1.88495">
        <ele>823</ele>
        <time>2010-01-01T07:54:02Z</time>
      </trkpt>
      <trkpt lat="42.23861" lon="1.88495">
        <ele>823</ele>
        <time>2010-01-01T07:54:05Z</time>
      </trkpt>
      <trkpt lat="42.23839" lon="1.88486">
        <ele>823</ele>
        <time>2010-01-01T07:54:14Z</time>
      </trkpt>
      <trkpt lat="42.23837" lon="1.88488">
        <ele>824</ele>
        <time>2010-01-01T07:54:15Z</time>
      </trkpt>
      <trkpt lat="42.2383" lon="1.88483">
        <ele>823</ele>
        <time>2010-01-01T07:54:18Z</time>
      </trkpt>
      <trkpt lat="42.23812" lon="1.8848">
        <ele>825</ele>
        <time>2010-01-01T07:54:26Z</time>
      </trkpt>
      <trkpt lat="42.23801" lon="1.88483">
        <ele>826</ele>
        <time>2010-01-01T07:54:30Z</time>
      </trkpt>
      <trkpt lat="42.23792" lon="1.88482">
        <ele>826</ele>
        <time>2010-01-01T07:54:33Z</time>
      </trkpt>
      <trkpt lat="42.23784" lon="1.88477">
        <ele>825</ele>
        <time>2010-01-01T07:54:37Z</time>
      </trkpt>
      <trkpt lat="42.2376" lon="1.88458">
        <ele>823</ele>
        <time>2010-01-01T07:54:48Z</time>
      </trkpt>
      <trkpt lat="42.23755" lon="1.88449">
        <ele>823</ele>
        <time>2010-01-01T07:54:51Z</time>
      </trkpt>
      <trkpt lat="42.23752" lon="1.88449">
        <ele>823</ele>
        <time>2010-01-01T07:54:53Z</time>
      </trkpt>
      <trkpt lat="42.2375" lon="1.88452">
        <ele>823</ele>
        <time>2010-01-01T07:54:54Z</time>
      </trkpt>
      <trkpt lat="42.23748" lon="1.88464">
        <ele>822</ele>
        <time>2010-01-01T07:54:57Z</time>
      </trkpt>
      <trkpt lat="42.2375" lon="1.88452">
        <ele>822</ele>
        <time>2010-01-01T07:55:01Z</time>
      </trkpt>
      <trkpt lat="42.23747" lon="1.88439">
        <ele>822</ele>
        <time>2010-01-01T07:55:05Z</time>
      </trkpt>
      <trkpt lat="42.23741" lon="1.88432">
        <ele>821</ele>
        <time>2010-01-01T07:55:08Z</time>
      </trkpt>
      <trkpt lat="42.23736" lon="1.88423">
        <ele>821</ele>
        <time>2010-01-01T07:55:12Z</time>
      </trkpt>
      <trkpt lat="42.2373" lon="1.88417">
        <ele>820</ele>
        <time>2010-01-01T07:55:15Z</time>
      </trkpt>
      <trkpt lat="42.23718" lon="1.88418">
        <ele>819</ele>
        <time>2010-01-01T07:55:19Z</time>
      </trkpt>
      <trkpt lat="42.23696" lon="1.88413">
        <ele>819</ele>
        <time>2010-01-01T07:55:28Z</time>
      </trkpt>
      <trkpt lat="42.23688" lon="1.88407">
        <ele>820</ele>
        <time>2010-01-01T07:55:32Z</time>
      </trkpt>
      <trkpt lat="42.23684" lon="1.884">
        <ele>822</ele>
        <time>2010-01-01T07:55:34Z</time>
      </trkpt>
      <trkpt lat="42.23684" lon="1.88402">
        <ele>821</ele>
        <time>2010-01-01T07:55:35Z</time>
      </trkpt>
      <trkpt lat="42.23676" lon="1.88397">
        <ele>823</ele>
        <time>2010-01-01T07:55:38Z</time>
      </trkpt>
      <trkpt lat="42.23671" lon="1.88395">
        <ele>824</ele>
        <time>2010-01-01T07:55:40Z</time>
      </trkpt>
      <trkpt lat="42.2366" lon="1.88394">
        <ele>825</ele>
        <time>2010-01-01T07:55:45Z</time>
      </trkpt>
      <trkpt lat="42.23647" lon="1.88398">
        <ele>824</ele>
        <time>2010-01-01T07:55:50Z</time>
      </trkpt>
      <trkpt lat="42.23635" lon="1.88415">
        <ele>822</ele>
        <time>2010-01-01T07:55:57Z</time>
      </trkpt>
      <trkpt lat="42.23625" lon="1.88426">
        <ele>821</ele>
        <time>2010-01-01T07:56:02Z</time>
      </trkpt>
      <trkpt lat="42.23607" lon="1.88453">
        <ele>817</ele>
        <time>2010-01-01T07:56:13Z</time>
      </trkpt>
      <trkpt lat="42.23602" lon="1.88456">
        <ele>817</ele>
        <time>2010-01-01T07:56:15Z</time>
      </trkpt>
      <trkpt lat="42.23596" lon="1.88463">
        <ele>815</ele>
        <time>2010-01-01T07:56:18Z</time>
      </trkpt>
      <trkpt lat="42.23584" lon="1.8847">
        <ele>814</ele>
        <time>2010-01-01T07:56:24Z</time>
      </trkpt>
      <trkpt lat="42.23575" lon="1.88471">
        <ele>813</ele>
        <time>2010-01-01T07:56:27Z</time>
      </trkpt>
      <trkpt lat="42.23557" lon="1.88467">
        <ele>811</ele>
        <time>2010-01-01T07:56:35Z</time>
      </trkpt>
      <trkpt lat="42.23548" lon="1.88462">
        <ele>809</ele>
        <time>2010-01-01T07:56:39Z</time>
      </trkpt>
      <trkpt lat="42.23538" lon="1.8846">
        <ele>807</ele>
        <time>2010-01-01T07:56:43Z</time>
      </trkpt>
      <trkpt lat="42.23524" lon="1.88455">
        <ele>804</ele>
        <time>2010-01-01T07:56:49Z</time>
      </trkpt>
      <trkpt lat="42.23518" lon="1.88451">
        <ele>803</ele>
        <time>2010-01-01T07:56:51Z</time>
      </trkpt>
      <trkpt lat="42.23504" lon="1.88449">
        <ele>800</ele>
        <time>2010-01-01T07:56:57Z</time>
      </trkpt>
      <trkpt lat="42.23494" lon="1.88451">
        <ele>797</ele>
        <time>2010-01-01T07:57:01Z</time>
      </trkpt>
      <trkpt lat="42.23491" lon="1.88448">
        <ele>797</ele>
        <time>2010-01-01T07:57:02Z</time>
      </trkpt>
      <trkpt lat="42.23486" lon="1.88443">
        <ele>796</ele>
        <time>2010-01-01T07:57:05Z</time>
      </trkpt>
      <trkpt lat="42.23483" lon="1.88429">
        <ele>798</ele>
        <time>2010-01-01T07:57:09Z</time>
      </trkpt>
      <trkpt lat="42.23476" lon="1.8841">
        <ele>800</ele>
        <time>2010-01-01T07:57:15Z</time>
      </trkpt>
      <trkpt lat="42.2347" lon="1.88399">
        <ele>800</ele>
        <time>2010-01-01T07:57:19Z</time>
      </trkpt>
      <trkpt lat="42.23453" lon="1.88385">
        <ele>798</ele>
        <time>2010-01-01T07:57:27Z</time>
      </trkpt>
      <trkpt lat="42.23441" lon="1.88384">
        <ele>795</ele>
        <time>2010-01-01T07:57:32Z</time>
      </trkpt>
      <trkpt lat="42.23434" lon="1.8838">
        <ele>795</ele>
        <time>2010-01-01T07:57:35Z</time>
      </trkpt>
      <trkpt lat="42.23426" lon="1.88378">
        <ele>794</ele>
        <time>2010-01-01T07:57:39Z</time>
      </trkpt>
      <trkpt lat="42.23412" lon="1.8837">
        <ele>791</ele>
        <time>2010-01-01T07:57:45Z</time>
      </trkpt>
      <trkpt lat="42.23409" lon="1.88362">
        <ele>792</ele>
        <time>2010-01-01T07:57:47Z</time>
      </trkpt>
      <trkpt lat="42.23396" lon="1.88343">
        <ele>788</ele>
        <time>2010-01-01T07:57:55Z</time>
      </trkpt>
      <trkpt lat="42.23384" lon="1.88321">
        <ele>785</ele>
        <time>2010-01-01T07:58:03Z</time>
      </trkpt>
      <trkpt lat="42.23365" lon="1.88308">
        <ele>779</ele>
        <time>2010-01-01T07:58:11Z</time>
      </trkpt>
      <trkpt lat="42.23359" lon="1.88302">
        <ele>777</ele>
        <time>2010-01-01T07:58:15Z</time>
      </trkpt>
      <trkpt lat="42.23348" lon="1.88279">
        <ele>777</ele>
        <time>2010-01-01T07:58:23Z</time>
      </trkpt>
      <trkpt lat="42.2334" lon="1.88258">
        <ele>777</ele>
        <time>2010-01-01T07:58:30Z</time>
      </trkpt>
      <trkpt lat="42.23332" lon="1.88249">
        <ele>775</ele>
        <time>2010-01-01T07:58:34Z</time>
      </trkpt>
      <trkpt lat="42.23315" lon="1.8822">
        <ele>771</ele>
        <time>2010-01-01T07:58:45Z</time>
      </trkpt>
      <trkpt lat="42.23311" lon="1.88209">
        <ele>771</ele>
        <time>2010-01-01T07:58:48Z</time>
      </trkpt>
      <trkpt lat="42.23292" lon="1.88178">
        <ele>768</ele>
        <time>2010-01-01T07:59:00Z</time>
      </trkpt>
      <trkpt lat="42.23278" lon="1.88146">
        <ele>766</ele>
        <time>2010-01-01T07:59:11Z</time>
      </trkpt>
      <trkpt lat="42.23268" lon="1.8813">
        <ele>764</ele>
        <time>2010-01-01T07:59:18Z</time>
      </trkpt>
      <trkpt lat="42.23268" lon="1.8811">
        <ele>764</ele>
        <time>2010-01-01T07:59:24Z</time>
      </trkpt>
      <trkpt lat="42.23266" lon="1.88102">
        <ele>763</ele>
        <time>2010-01-01T07:59:26Z</time>
      </trkpt>
      <trkpt lat="42.23269" lon="1.88094">
        <ele>763</ele>
        <time>2010-01-01T07:59:29Z</time>
      </trkpt>
      <trkpt lat="42.23276" lon="1.88086">
        <ele>764</ele>
        <time>2010-01-01T07:59:33Z</time>
      </trkpt>
      <trkpt lat="42.23281" lon="1.88077">
        <ele>762</ele>
        <time>2010-01-01T07:59:36Z</time>
      </trkpt>
      <trkpt lat="42.23297" lon="1.8806">
        <ele>759</ele>
        <time>2010-01-01T07:59:44Z</time>
      </trkpt>
      <trkpt lat="42.23329" lon="1.88017">
        <ele>751</ele>
        <time>2010-01-01T08:00:02Z</time>
      </trkpt>
      <trkpt lat="42.23338" lon="1.8801">
        <ele>750</ele>
        <time>2010-01-01T08:00:06Z</time>
      </trkpt>
      <trkpt lat="42.23352" lon="1.87989">
        <ele>747</ele>
        <time>2010-01-01T08:00:15Z</time>
      </trkpt>
      <trkpt lat="42.23366" lon="1.87974">
        <ele>747</ele>
        <time>2010-01-01T08:00:22Z</time>
      </trkpt>
      <trkpt lat="42.23377" lon="1.87955">
        <ele>746</ele>
        <time>2010-01-01T08:00:29Z</time>
      </trkpt>
      <trkpt lat="42.2338" lon="1.87945">
        <ele>746</ele>
        <time>2010-01-01T08:00:32Z</time>
      </trkpt>
      <trkpt lat="42.23379" lon="1.87934">
        <ele>745</ele>
        <time>2010-01-01T08:00:35Z</time>
      </trkpt>
      <trkpt lat="42.23392" lon="1.87891">
        <ele>740</ele>
        <time>2010-01-01T08:00:49Z</time>
      </trkpt>
      <trkpt lat="42.23392" lon="1.87874">
        <ele>737</ele>
        <time>2010-01-01T08:00:54Z</time>
      </trkpt>
      <trkpt lat="42.23391" lon="1.87872">
        <ele>737</ele>
        <time>2010-01-01T08:00:55Z</time>
      </trkpt>
      <trkpt lat="42.2339" lon="1.87873">
        <ele>737</ele>
        <time>2010-01-01T08:00:55Z</time>
      </trkpt>
      <trkpt lat="42.23372" lon="1.87902">
        <ele>740</ele>
        <time>2010-01-01T08:01:07Z</time>
      </trkpt>
      <trkpt lat="42.23344" lon="1.87924">
        <ele>738</ele>
        <time>2010-01-01T08:01:20Z</time>
      </trkpt>
      <trkpt lat="42.23334" lon="1.87929">
        <ele>737</ele>
        <time>2010-01-01T08:01:24Z</time>
      </trkpt>
      <trkpt lat="42.23311" lon="1.87935">
        <ele>733</ele>
        <time>2010-01-01T08:01:33Z</time>
      </trkpt>
      <trkpt lat="42.23305" lon="1.87941">
        <ele>732</ele>
        <time>2010-01-01T08:01:36Z</time>
      </trkpt>
      <trkpt lat="42.23298" lon="1.87944">
        <ele>732</ele>
        <time>2010-01-01T08:01:39Z</time>
      </trkpt>
      <trkpt lat="42.23288" lon="1.87943">
        <ele>732</ele>
        <time>2010-01-01T08:01:43Z</time>
      </trkpt>
      <trkpt lat="42.2328" lon="1.87939">
        <ele>732</ele>
        <time>2010-01-01T08:01:47Z</time>
      </trkpt>
      <trkpt lat="42.23266" lon="1.87928">
        <ele>731</ele>
        <time>2010-01-01T08:01:53Z</time>
      </trkpt>
      <trkpt lat="42.23263" lon="1.87928">
        <ele>731</ele>
        <time>2010-01-01T08:01:54Z</time>
      </trkpt>
      <trkpt lat="42.23258" lon="1.87931">
        <ele>731</ele>
        <time>2010-01-01T08:01:56Z</time>
      </trkpt>
      <trkpt lat="42.23295" lon="1.87954">
        <ele>734</ele>
        <time>2010-01-01T08:02:13Z</time>
      </trkpt>
    </trkseg>
  </trk>
</gpx>